<?xml version="1.0" encoding="UTF-8" standalone="no" ?>
<gpx xmlns="http://www.topografix.com/GPX/1/1" xmlns:xsi="http://www.w3.org/2001/XMLSchema-instance" xsi:schemaLocation="http://www.topografix.com/GPX/1/1 http://www.topografix.com/GPX/1/1/gpx.xsd" version="1.1" creator="VisuGPX - https://www.visugpx.com">
  <metadata>
    <name>Parcours-Lagrasse-2022</name>
  </metadata>
  <trk>
    <name><![CDATA[Lagrasse-125km]]></name>
    <extensions>
      <line xmlns="http://www.topografix.com/GPX/gpx_style/0/2">
        <color>0000FF</color>
        <width>7</width>
          <extensions>
            <sens>1</sens>
          </extensions>
      </line>
    </extensions>
    <trkseg>
      <trkpt lat="43.09271" lon="2.62078">
        <ele>127</ele>
        <time>2022-05-02T17:52:48Z</time>
      </trkpt>
      <trkpt lat="43.09236" lon="2.62026">
        <ele>128</ele>
        <time>2022-05-02T17:52:57Z</time>
      </trkpt>
      <trkpt lat="43.09214" lon="2.62048">
        <ele>128</ele>
        <time>2022-05-02T17:53:02Z</time>
      </trkpt>
      <trkpt lat="43.09179" lon="2.6208">
        <ele>129</ele>
        <time>2022-05-02T17:53:10Z</time>
      </trkpt>
      <trkpt lat="43.09171" lon="2.62085">
        <ele>129</ele>
        <time>2022-05-02T17:53:11Z</time>
      </trkpt>
      <trkpt lat="43.09153" lon="2.62091">
        <ele>129</ele>
        <time>2022-05-02T17:53:14Z</time>
      </trkpt>
      <trkpt lat="43.09125" lon="2.62088">
        <ele>129</ele>
        <time>2022-05-02T17:53:19Z</time>
      </trkpt>
      <trkpt lat="43.09102" lon="2.62082">
        <ele>130</ele>
        <time>2022-05-02T17:53:24Z</time>
      </trkpt>
      <trkpt lat="43.09031" lon="2.62058">
        <ele>133</ele>
        <time>2022-05-02T17:53:37Z</time>
      </trkpt>
      <trkpt lat="43.08993" lon="2.62049">
        <ele>135</ele>
        <time>2022-05-02T17:53:43Z</time>
      </trkpt>
      <trkpt lat="43.08975" lon="2.62042">
        <ele>136</ele>
        <time>2022-05-02T17:53:47Z</time>
      </trkpt>
      <trkpt lat="43.08968" lon="2.62037">
        <ele>137</ele>
        <time>2022-05-02T17:53:48Z</time>
      </trkpt>
      <trkpt lat="43.08965" lon="2.62035">
        <ele>137</ele>
        <time>2022-05-02T17:53:49Z</time>
      </trkpt>
      <trkpt lat="43.08959" lon="2.6203">
        <ele>137</ele>
        <time>2022-05-02T17:53:50Z</time>
      </trkpt>
      <trkpt lat="43.08919" lon="2.61996">
        <ele>139</ele>
        <time>2022-05-02T17:53:58Z</time>
      </trkpt>
      <trkpt lat="43.08901" lon="2.61983">
        <ele>139</ele>
        <time>2022-05-02T17:54:02Z</time>
      </trkpt>
      <trkpt lat="43.08877" lon="2.61965">
        <ele>140</ele>
        <time>2022-05-02T17:54:07Z</time>
      </trkpt>
      <trkpt lat="43.08826" lon="2.61923">
        <ele>139</ele>
        <time>2022-05-02T17:54:17Z</time>
      </trkpt>
      <trkpt lat="43.08794" lon="2.61905">
        <ele>137</ele>
        <time>2022-05-02T17:54:24Z</time>
      </trkpt>
      <trkpt lat="43.08713" lon="2.61885">
        <ele>139</ele>
        <time>2022-05-02T17:54:38Z</time>
      </trkpt>
      <trkpt lat="43.08684" lon="2.61872">
        <ele>140</ele>
        <time>2022-05-02T17:54:44Z</time>
      </trkpt>
      <trkpt lat="43.08656" lon="2.61856">
        <ele>139</ele>
        <time>2022-05-02T17:54:49Z</time>
      </trkpt>
      <trkpt lat="43.08515" lon="2.61764">
        <ele>139</ele>
        <time>2022-05-02T17:55:17Z</time>
      </trkpt>
      <trkpt lat="43.08491" lon="2.61741">
        <ele>139</ele>
        <time>2022-05-02T17:55:22Z</time>
      </trkpt>
      <trkpt lat="43.08418" lon="2.61644">
        <ele>137</ele>
        <time>2022-05-02T17:55:40Z</time>
      </trkpt>
      <trkpt lat="43.08378" lon="2.61593">
        <ele>137</ele>
        <time>2022-05-02T17:55:50Z</time>
      </trkpt>
      <trkpt lat="43.08349" lon="2.61568">
        <ele>137</ele>
        <time>2022-05-02T17:55:56Z</time>
      </trkpt>
      <trkpt lat="43.08265" lon="2.61512">
        <ele>137</ele>
        <time>2022-05-02T17:56:13Z</time>
      </trkpt>
      <trkpt lat="43.08169" lon="2.61429">
        <ele>139</ele>
        <time>2022-05-02T17:56:33Z</time>
      </trkpt>
      <trkpt lat="43.08147" lon="2.61406">
        <ele>140</ele>
        <time>2022-05-02T17:56:38Z</time>
      </trkpt>
      <trkpt lat="43.08134" lon="2.61384">
        <ele>140</ele>
        <time>2022-05-02T17:56:41Z</time>
      </trkpt>
      <trkpt lat="43.08114" lon="2.61321">
        <ele>138</ele>
        <time>2022-05-02T17:56:50Z</time>
      </trkpt>
      <trkpt lat="43.08105" lon="2.61302">
        <ele>136</ele>
        <time>2022-05-02T17:56:53Z</time>
      </trkpt>
      <trkpt lat="43.08098" lon="2.61295">
        <ele>136</ele>
        <time>2022-05-02T17:56:55Z</time>
      </trkpt>
      <trkpt lat="43.08091" lon="2.61289">
        <ele>136</ele>
        <time>2022-05-02T17:56:56Z</time>
      </trkpt>
      <trkpt lat="43.08073" lon="2.61278">
        <ele>137</ele>
        <time>2022-05-02T17:57:00Z</time>
      </trkpt>
      <trkpt lat="43.07995" lon="2.61247">
        <ele>140</ele>
        <time>2022-05-02T17:57:14Z</time>
      </trkpt>
      <trkpt lat="43.07981" lon="2.61235">
        <ele>140</ele>
        <time>2022-05-02T17:57:17Z</time>
      </trkpt>
      <trkpt lat="43.07976" lon="2.61228">
        <ele>139</ele>
        <time>2022-05-02T17:57:18Z</time>
      </trkpt>
      <trkpt lat="43.07969" lon="2.61215">
        <ele>139</ele>
        <time>2022-05-02T17:57:21Z</time>
      </trkpt>
      <trkpt lat="43.07965" lon="2.61203">
        <ele>139</ele>
        <time>2022-05-02T17:57:22Z</time>
      </trkpt>
      <trkpt lat="43.07961" lon="2.61182">
        <ele>138</ele>
        <time>2022-05-02T17:57:25Z</time>
      </trkpt>
      <trkpt lat="43.07958" lon="2.61168">
        <ele>137</ele>
        <time>2022-05-02T17:57:27Z</time>
      </trkpt>
      <trkpt lat="43.07951" lon="2.61138">
        <ele>137</ele>
        <time>2022-05-02T17:57:31Z</time>
      </trkpt>
      <trkpt lat="43.07945" lon="2.61123">
        <ele>137</ele>
        <time>2022-05-02T17:57:33Z</time>
      </trkpt>
      <trkpt lat="43.07899" lon="2.61037">
        <ele>139</ele>
        <time>2022-05-02T17:57:47Z</time>
      </trkpt>
      <trkpt lat="43.07884" lon="2.61002">
        <ele>141</ele>
        <time>2022-05-02T17:57:52Z</time>
      </trkpt>
      <trkpt lat="43.07879" lon="2.60986">
        <ele>142</ele>
        <time>2022-05-02T17:57:55Z</time>
      </trkpt>
      <trkpt lat="43.07869" lon="2.60937">
        <ele>143</ele>
        <time>2022-05-02T17:58:01Z</time>
      </trkpt>
      <trkpt lat="43.07843" lon="2.60767">
        <ele>139</ele>
        <time>2022-05-02T17:58:24Z</time>
      </trkpt>
      <trkpt lat="43.07837" lon="2.60729">
        <ele>138</ele>
        <time>2022-05-02T17:58:29Z</time>
      </trkpt>
      <trkpt lat="43.07832" lon="2.60708">
        <ele>137</ele>
        <time>2022-05-02T17:58:32Z</time>
      </trkpt>
      <trkpt lat="43.07825" lon="2.60687">
        <ele>138</ele>
        <time>2022-05-02T17:58:35Z</time>
      </trkpt>
      <trkpt lat="43.07815" lon="2.60665">
        <ele>139</ele>
        <time>2022-05-02T17:58:38Z</time>
      </trkpt>
      <trkpt lat="43.07713" lon="2.60459">
        <ele>137</ele>
        <time>2022-05-02T17:59:11Z</time>
      </trkpt>
      <trkpt lat="43.07695" lon="2.60436">
        <ele>137</ele>
        <time>2022-05-02T17:59:15Z</time>
      </trkpt>
      <trkpt lat="43.07674" lon="2.60419">
        <ele>137</ele>
        <time>2022-05-02T17:59:19Z</time>
      </trkpt>
      <trkpt lat="43.07654" lon="2.60415">
        <ele>136</ele>
        <time>2022-05-02T17:59:23Z</time>
      </trkpt>
      <trkpt lat="43.0764" lon="2.60416">
        <ele>135</ele>
        <time>2022-05-02T17:59:25Z</time>
      </trkpt>
      <trkpt lat="43.07626" lon="2.60421">
        <ele>135</ele>
        <time>2022-05-02T17:59:28Z</time>
      </trkpt>
      <trkpt lat="43.07465" lon="2.60559">
        <ele>142</ele>
        <time>2022-05-02T18:00:02Z</time>
      </trkpt>
      <trkpt lat="43.0738" lon="2.60647">
        <ele>145</ele>
        <time>2022-05-02T18:00:21Z</time>
      </trkpt>
      <trkpt lat="43.0737" lon="2.60659">
        <ele>145</ele>
        <time>2022-05-02T18:00:23Z</time>
      </trkpt>
      <trkpt lat="43.0736" lon="2.60682">
        <ele>145</ele>
        <time>2022-05-02T18:00:27Z</time>
      </trkpt>
      <trkpt lat="43.07355" lon="2.60711">
        <ele>147</ele>
        <time>2022-05-02T18:00:30Z</time>
      </trkpt>
      <trkpt lat="43.07341" lon="2.60902">
        <ele>146</ele>
        <time>2022-05-02T18:00:55Z</time>
      </trkpt>
      <trkpt lat="43.07336" lon="2.60928">
        <ele>146</ele>
        <time>2022-05-02T18:00:59Z</time>
      </trkpt>
      <trkpt lat="43.07327" lon="2.60953">
        <ele>145</ele>
        <time>2022-05-02T18:01:02Z</time>
      </trkpt>
      <trkpt lat="43.07316" lon="2.60974">
        <ele>144</ele>
        <time>2022-05-02T18:01:06Z</time>
      </trkpt>
      <trkpt lat="43.0731" lon="2.60983">
        <ele>144</ele>
        <time>2022-05-02T18:01:07Z</time>
      </trkpt>
      <trkpt lat="43.07304" lon="2.60992">
        <ele>144</ele>
        <time>2022-05-02T18:01:09Z</time>
      </trkpt>
      <trkpt lat="43.07291" lon="2.61008">
        <ele>143</ele>
        <time>2022-05-02T18:01:12Z</time>
      </trkpt>
      <trkpt lat="43.07276" lon="2.61023">
        <ele>143</ele>
        <time>2022-05-02T18:01:15Z</time>
      </trkpt>
      <trkpt lat="43.07263" lon="2.61033">
        <ele>142</ele>
        <time>2022-05-02T18:01:18Z</time>
      </trkpt>
      <trkpt lat="43.07249" lon="2.61039">
        <ele>141</ele>
        <time>2022-05-02T18:01:21Z</time>
      </trkpt>
      <trkpt lat="43.0722" lon="2.61046">
        <ele>142</ele>
        <time>2022-05-02T18:01:26Z</time>
      </trkpt>
      <trkpt lat="43.0717" lon="2.61057">
        <ele>142</ele>
        <time>2022-05-02T18:01:35Z</time>
      </trkpt>
      <trkpt lat="43.07157" lon="2.61059">
        <ele>143</ele>
        <time>2022-05-02T18:01:37Z</time>
      </trkpt>
      <trkpt lat="43.07137" lon="2.61063">
        <ele>145</ele>
        <time>2022-05-02T18:01:41Z</time>
      </trkpt>
      <trkpt lat="43.07126" lon="2.61062">
        <ele>146</ele>
        <time>2022-05-02T18:01:43Z</time>
      </trkpt>
      <trkpt lat="43.07112" lon="2.61058">
        <ele>148</ele>
        <time>2022-05-02T18:01:45Z</time>
      </trkpt>
      <trkpt lat="43.07005" lon="2.60956">
        <ele>146</ele>
        <time>2022-05-02T18:02:09Z</time>
      </trkpt>
      <trkpt lat="43.06995" lon="2.60947">
        <ele>146</ele>
        <time>2022-05-02T18:02:11Z</time>
      </trkpt>
      <trkpt lat="43.06937" lon="2.60889">
        <ele>150</ele>
        <time>2022-05-02T18:02:23Z</time>
      </trkpt>
      <trkpt lat="43.06926" lon="2.60874">
        <ele>150</ele>
        <time>2022-05-02T18:02:26Z</time>
      </trkpt>
      <trkpt lat="43.06902" lon="2.60824">
        <ele>146</ele>
        <time>2022-05-02T18:02:34Z</time>
      </trkpt>
      <trkpt lat="43.06895" lon="2.60813">
        <ele>145</ele>
        <time>2022-05-02T18:02:36Z</time>
      </trkpt>
      <trkpt lat="43.06887" lon="2.60805">
        <ele>145</ele>
        <time>2022-05-02T18:02:38Z</time>
      </trkpt>
      <trkpt lat="43.06878" lon="2.60799">
        <ele>145</ele>
        <time>2022-05-02T18:02:39Z</time>
      </trkpt>
      <trkpt lat="43.06869" lon="2.60797">
        <ele>145</ele>
        <time>2022-05-02T18:02:41Z</time>
      </trkpt>
      <trkpt lat="43.06857" lon="2.60797">
        <ele>146</ele>
        <time>2022-05-02T18:02:43Z</time>
      </trkpt>
      <trkpt lat="43.06848" lon="2.60799">
        <ele>146</ele>
        <time>2022-05-02T18:02:45Z</time>
      </trkpt>
      <trkpt lat="43.06839" lon="2.60804">
        <ele>147</ele>
        <time>2022-05-02T18:02:47Z</time>
      </trkpt>
      <trkpt lat="43.06812" lon="2.60827">
        <ele>151</ele>
        <time>2022-05-02T18:02:52Z</time>
      </trkpt>
      <trkpt lat="43.06796" lon="2.60834">
        <ele>151</ele>
        <time>2022-05-02T18:02:55Z</time>
      </trkpt>
      <trkpt lat="43.06785" lon="2.60835">
        <ele>151</ele>
        <time>2022-05-02T18:02:57Z</time>
      </trkpt>
      <trkpt lat="43.06748" lon="2.60829">
        <ele>150</ele>
        <time>2022-05-02T18:03:04Z</time>
      </trkpt>
      <trkpt lat="43.06733" lon="2.60832">
        <ele>150</ele>
        <time>2022-05-02T18:03:06Z</time>
      </trkpt>
      <trkpt lat="43.06693" lon="2.6085">
        <ele>150</ele>
        <time>2022-05-02T18:03:14Z</time>
      </trkpt>
      <trkpt lat="43.06673" lon="2.6085">
        <ele>149</ele>
        <time>2022-05-02T18:03:18Z</time>
      </trkpt>
      <trkpt lat="43.06662" lon="2.60846">
        <ele>149</ele>
        <time>2022-05-02T18:03:20Z</time>
      </trkpt>
      <trkpt lat="43.06642" lon="2.60833">
        <ele>151</ele>
        <time>2022-05-02T18:03:24Z</time>
      </trkpt>
      <trkpt lat="43.06624" lon="2.60821">
        <ele>153</ele>
        <time>2022-05-02T18:03:27Z</time>
      </trkpt>
      <trkpt lat="43.06617" lon="2.6081">
        <ele>154</ele>
        <time>2022-05-02T18:03:29Z</time>
      </trkpt>
      <trkpt lat="43.06612" lon="2.60799">
        <ele>154</ele>
        <time>2022-05-02T18:03:31Z</time>
      </trkpt>
      <trkpt lat="43.06593" lon="2.6073">
        <ele>156</ele>
        <time>2022-05-02T18:03:40Z</time>
      </trkpt>
      <trkpt lat="43.06584" lon="2.60708">
        <ele>157</ele>
        <time>2022-05-02T18:03:44Z</time>
      </trkpt>
      <trkpt lat="43.06577" lon="2.60696">
        <ele>157</ele>
        <time>2022-05-02T18:03:46Z</time>
      </trkpt>
      <trkpt lat="43.06519" lon="2.60634">
        <ele>159</ele>
        <time>2022-05-02T18:03:59Z</time>
      </trkpt>
      <trkpt lat="43.06511" lon="2.60619">
        <ele>160</ele>
        <time>2022-05-02T18:04:01Z</time>
      </trkpt>
      <trkpt lat="43.06499" lon="2.60582">
        <ele>160</ele>
        <time>2022-05-02T18:04:06Z</time>
      </trkpt>
      <trkpt lat="43.06487" lon="2.60528">
        <ele>161</ele>
        <time>2022-05-02T18:04:14Z</time>
      </trkpt>
      <trkpt lat="43.06477" lon="2.60499">
        <ele>162</ele>
        <time>2022-05-02T18:04:18Z</time>
      </trkpt>
      <trkpt lat="43.06405" lon="2.60383">
        <ele>164</ele>
        <time>2022-05-02T18:04:38Z</time>
      </trkpt>
      <trkpt lat="43.06327" lon="2.6025">
        <ele>162</ele>
        <time>2022-05-02T18:05:00Z</time>
      </trkpt>
      <trkpt lat="43.06314" lon="2.60245">
        <ele>160</ele>
        <time>2022-05-02T18:05:02Z</time>
      </trkpt>
      <trkpt lat="43.06293" lon="2.60248">
        <ele>160</ele>
        <time>2022-05-02T18:05:06Z</time>
      </trkpt>
      <trkpt lat="43.06267" lon="2.60261">
        <ele>161</ele>
        <time>2022-05-02T18:05:11Z</time>
      </trkpt>
      <trkpt lat="43.06248" lon="2.60258">
        <ele>160</ele>
        <time>2022-05-02T18:05:14Z</time>
      </trkpt>
      <trkpt lat="43.0621" lon="2.6024">
        <ele>154</ele>
        <time>2022-05-02T18:05:21Z</time>
      </trkpt>
      <trkpt lat="43.0619" lon="2.60241">
        <ele>153</ele>
        <time>2022-05-02T18:05:25Z</time>
      </trkpt>
      <trkpt lat="43.06164" lon="2.60257">
        <ele>154</ele>
        <time>2022-05-02T18:05:30Z</time>
      </trkpt>
      <trkpt lat="43.06141" lon="2.6029">
        <ele>156</ele>
        <time>2022-05-02T18:05:36Z</time>
      </trkpt>
      <trkpt lat="43.0604" lon="2.60404">
        <ele>153</ele>
        <time>2022-05-02T18:05:59Z</time>
      </trkpt>
      <trkpt lat="43.06003" lon="2.60443">
        <ele>151</ele>
        <time>2022-05-02T18:06:08Z</time>
      </trkpt>
      <trkpt lat="43.05967" lon="2.60472">
        <ele>151</ele>
        <time>2022-05-02T18:06:15Z</time>
      </trkpt>
      <trkpt lat="43.05942" lon="2.60476">
        <ele>149</ele>
        <time>2022-05-02T18:06:19Z</time>
      </trkpt>
      <trkpt lat="43.05927" lon="2.60482">
        <ele>148</ele>
        <time>2022-05-02T18:06:22Z</time>
      </trkpt>
      <trkpt lat="43.05893" lon="2.60513">
        <ele>149</ele>
        <time>2022-05-02T18:06:30Z</time>
      </trkpt>
      <trkpt lat="43.05881" lon="2.60503">
        <ele>149</ele>
        <time>2022-05-02T18:06:32Z</time>
      </trkpt>
      <trkpt lat="43.05873" lon="2.60496">
        <ele>149</ele>
        <time>2022-05-02T18:06:34Z</time>
      </trkpt>
      <trkpt lat="43.05837" lon="2.60471">
        <ele>151</ele>
        <time>2022-05-02T18:06:41Z</time>
      </trkpt>
      <trkpt lat="43.05846" lon="2.60412">
        <ele>153</ele>
        <time>2022-05-02T18:06:49Z</time>
      </trkpt>
      <trkpt lat="43.05851" lon="2.6039">
        <ele>152</ele>
        <time>2022-05-02T18:06:52Z</time>
      </trkpt>
      <trkpt lat="43.05852" lon="2.60371">
        <ele>152</ele>
        <time>2022-05-02T18:06:54Z</time>
      </trkpt>
      <trkpt lat="43.0585" lon="2.60348">
        <ele>152</ele>
        <time>2022-05-02T18:06:57Z</time>
      </trkpt>
      <trkpt lat="43.05839" lon="2.60303">
        <ele>150</ele>
        <time>2022-05-02T18:07:03Z</time>
      </trkpt>
      <trkpt lat="43.05814" lon="2.60278">
        <ele>151</ele>
        <time>2022-05-02T18:07:09Z</time>
      </trkpt>
      <trkpt lat="43.05793" lon="2.6026">
        <ele>152</ele>
        <time>2022-05-02T18:07:13Z</time>
      </trkpt>
      <trkpt lat="43.05778" lon="2.6025">
        <ele>153</ele>
        <time>2022-05-02T18:07:16Z</time>
      </trkpt>
      <trkpt lat="43.05725" lon="2.60224">
        <ele>158</ele>
        <time>2022-05-02T18:07:26Z</time>
      </trkpt>
      <trkpt lat="43.05714" lon="2.6021">
        <ele>158</ele>
        <time>2022-05-02T18:07:29Z</time>
      </trkpt>
      <trkpt lat="43.05682" lon="2.60145">
        <ele>157</ele>
        <time>2022-05-02T18:07:39Z</time>
      </trkpt>
      <trkpt lat="43.05668" lon="2.601">
        <ele>156</ele>
        <time>2022-05-02T18:07:45Z</time>
      </trkpt>
      <trkpt lat="43.0566" lon="2.60082">
        <ele>155</ele>
        <time>2022-05-02T18:07:48Z</time>
      </trkpt>
      <trkpt lat="43.05654" lon="2.60075">
        <ele>156</ele>
        <time>2022-05-02T18:07:50Z</time>
      </trkpt>
      <trkpt lat="43.05627" lon="2.60059">
        <ele>161</ele>
        <time>2022-05-02T18:07:55Z</time>
      </trkpt>
      <trkpt lat="43.05619" lon="2.60052">
        <ele>162</ele>
        <time>2022-05-02T18:07:57Z</time>
      </trkpt>
      <trkpt lat="43.05614" lon="2.60044">
        <ele>163</ele>
        <time>2022-05-02T18:07:58Z</time>
      </trkpt>
      <trkpt lat="43.0561" lon="2.60024">
        <ele>163</ele>
        <time>2022-05-02T18:08:01Z</time>
      </trkpt>
      <trkpt lat="43.05611" lon="2.60004">
        <ele>162</ele>
        <time>2022-05-02T18:08:03Z</time>
      </trkpt>
      <trkpt lat="43.05613" lon="2.59975">
        <ele>161</ele>
        <time>2022-05-02T18:08:07Z</time>
      </trkpt>
      <trkpt lat="43.05619" lon="2.59947">
        <ele>159</ele>
        <time>2022-05-02T18:08:11Z</time>
      </trkpt>
      <trkpt lat="43.05619" lon="2.59925">
        <ele>159</ele>
        <time>2022-05-02T18:08:14Z</time>
      </trkpt>
      <trkpt lat="43.05614" lon="2.59901">
        <ele>161</ele>
        <time>2022-05-02T18:08:17Z</time>
      </trkpt>
      <trkpt lat="43.05611" lon="2.59891">
        <ele>162</ele>
        <time>2022-05-02T18:08:18Z</time>
      </trkpt>
      <trkpt lat="43.05601" lon="2.59871">
        <ele>165</ele>
        <time>2022-05-02T18:08:21Z</time>
      </trkpt>
      <trkpt lat="43.05597" lon="2.59851">
        <ele>167</ele>
        <time>2022-05-02T18:08:24Z</time>
      </trkpt>
      <trkpt lat="43.05605" lon="2.5974">
        <ele>167</ele>
        <time>2022-05-02T18:08:39Z</time>
      </trkpt>
      <trkpt lat="43.05605" lon="2.59729">
        <ele>167</ele>
        <time>2022-05-02T18:08:40Z</time>
      </trkpt>
      <trkpt lat="43.05598" lon="2.59668">
        <ele>170</ele>
        <time>2022-05-02T18:08:48Z</time>
      </trkpt>
      <trkpt lat="43.05597" lon="2.59657">
        <ele>171</ele>
        <time>2022-05-02T18:08:50Z</time>
      </trkpt>
      <trkpt lat="43.05604" lon="2.59595">
        <ele>170</ele>
        <time>2022-05-02T18:08:58Z</time>
      </trkpt>
      <trkpt lat="43.05604" lon="2.5953">
        <ele>173</ele>
        <time>2022-05-02T18:09:06Z</time>
      </trkpt>
      <trkpt lat="43.05617" lon="2.5946">
        <ele>174</ele>
        <time>2022-05-02T18:09:16Z</time>
      </trkpt>
      <trkpt lat="43.05621" lon="2.59425">
        <ele>175</ele>
        <time>2022-05-02T18:09:20Z</time>
      </trkpt>
      <trkpt lat="43.05632" lon="2.59382">
        <ele>172</ele>
        <time>2022-05-02T18:09:26Z</time>
      </trkpt>
      <trkpt lat="43.05635" lon="2.59347">
        <ele>172</ele>
        <time>2022-05-02T18:09:31Z</time>
      </trkpt>
      <trkpt lat="43.05631" lon="2.59206">
        <ele>169</ele>
        <time>2022-05-02T18:09:49Z</time>
      </trkpt>
      <trkpt lat="43.05629" lon="2.59195">
        <ele>169</ele>
        <time>2022-05-02T18:09:50Z</time>
      </trkpt>
      <trkpt lat="43.05623" lon="2.59188">
        <ele>169</ele>
        <time>2022-05-02T18:09:52Z</time>
      </trkpt>
      <trkpt lat="43.05615" lon="2.59186">
        <ele>171</ele>
        <time>2022-05-02T18:09:53Z</time>
      </trkpt>
      <trkpt lat="43.05578" lon="2.59187">
        <ele>177</ele>
        <time>2022-05-02T18:10:00Z</time>
      </trkpt>
      <trkpt lat="43.05556" lon="2.59176">
        <ele>177</ele>
        <time>2022-05-02T18:10:04Z</time>
      </trkpt>
      <trkpt lat="43.05531" lon="2.59156">
        <ele>175</ele>
        <time>2022-05-02T18:10:09Z</time>
      </trkpt>
      <trkpt lat="43.05494" lon="2.59141">
        <ele>176</ele>
        <time>2022-05-02T18:10:16Z</time>
      </trkpt>
      <trkpt lat="43.05461" lon="2.59134">
        <ele>183</ele>
        <time>2022-05-02T18:10:22Z</time>
      </trkpt>
      <trkpt lat="43.05455" lon="2.59128">
        <ele>183</ele>
        <time>2022-05-02T18:10:23Z</time>
      </trkpt>
      <trkpt lat="43.05422" lon="2.59062">
        <ele>179</ele>
        <time>2022-05-02T18:10:34Z</time>
      </trkpt>
      <trkpt lat="43.05416" lon="2.59047">
        <ele>177</ele>
        <time>2022-05-02T18:10:36Z</time>
      </trkpt>
      <trkpt lat="43.05409" lon="2.58993">
        <ele>170</ele>
        <time>2022-05-02T18:10:43Z</time>
      </trkpt>
      <trkpt lat="43.05395" lon="2.5895">
        <ele>172</ele>
        <time>2022-05-02T18:10:49Z</time>
      </trkpt>
      <trkpt lat="43.05393" lon="2.58938">
        <ele>172</ele>
        <time>2022-05-02T18:10:51Z</time>
      </trkpt>
      <trkpt lat="43.05393" lon="2.5888">
        <ele>170</ele>
        <time>2022-05-02T18:10:58Z</time>
      </trkpt>
      <trkpt lat="43.05392" lon="2.5886">
        <ele>171</ele>
        <time>2022-05-02T18:11:01Z</time>
      </trkpt>
      <trkpt lat="43.0538" lon="2.58792">
        <ele>173</ele>
        <time>2022-05-02T18:11:10Z</time>
      </trkpt>
      <trkpt lat="43.05357" lon="2.5873">
        <ele>173</ele>
        <time>2022-05-02T18:11:19Z</time>
      </trkpt>
      <trkpt lat="43.05351" lon="2.58717">
        <ele>172</ele>
        <time>2022-05-02T18:11:21Z</time>
      </trkpt>
      <trkpt lat="43.05329" lon="2.58688">
        <ele>169</ele>
        <time>2022-05-02T18:11:27Z</time>
      </trkpt>
      <trkpt lat="43.05307" lon="2.58666">
        <ele>166</ele>
        <time>2022-05-02T18:11:31Z</time>
      </trkpt>
      <trkpt lat="43.05296" lon="2.58658">
        <ele>167</ele>
        <time>2022-05-02T18:11:34Z</time>
      </trkpt>
      <trkpt lat="43.05279" lon="2.58653">
        <ele>167</ele>
        <time>2022-05-02T18:11:37Z</time>
      </trkpt>
      <trkpt lat="43.05265" lon="2.58656">
        <ele>167</ele>
        <time>2022-05-02T18:11:39Z</time>
      </trkpt>
      <trkpt lat="43.0521" lon="2.58684">
        <ele>168</ele>
        <time>2022-05-02T18:11:50Z</time>
      </trkpt>
      <trkpt lat="43.05154" lon="2.58715">
        <ele>170</ele>
        <time>2022-05-02T18:12:00Z</time>
      </trkpt>
      <trkpt lat="43.05034" lon="2.58789">
        <ele>169</ele>
        <time>2022-05-02T18:12:24Z</time>
      </trkpt>
      <trkpt lat="43.05004" lon="2.58809">
        <ele>167</ele>
        <time>2022-05-02T18:12:30Z</time>
      </trkpt>
      <trkpt lat="43.04961" lon="2.58837">
        <ele>168</ele>
        <time>2022-05-02T18:12:38Z</time>
      </trkpt>
      <trkpt lat="43.04952" lon="2.58846">
        <ele>169</ele>
        <time>2022-05-02T18:12:40Z</time>
      </trkpt>
      <trkpt lat="43.04937" lon="2.58871">
        <ele>172</ele>
        <time>2022-05-02T18:12:44Z</time>
      </trkpt>
      <trkpt lat="43.04891" lon="2.5892">
        <ele>172</ele>
        <time>2022-05-02T18:12:55Z</time>
      </trkpt>
      <trkpt lat="43.04826" lon="2.58979">
        <ele>178</ele>
        <time>2022-05-02T18:13:09Z</time>
      </trkpt>
      <trkpt lat="43.04802" lon="2.58991">
        <ele>180</ele>
        <time>2022-05-02T18:13:13Z</time>
      </trkpt>
      <trkpt lat="43.04788" lon="2.58994">
        <ele>180</ele>
        <time>2022-05-02T18:13:16Z</time>
      </trkpt>
      <trkpt lat="43.04759" lon="2.58992">
        <ele>177</ele>
        <time>2022-05-02T18:13:21Z</time>
      </trkpt>
      <trkpt lat="43.04734" lon="2.58982">
        <ele>180</ele>
        <time>2022-05-02T18:13:26Z</time>
      </trkpt>
      <trkpt lat="43.04727" lon="2.58977">
        <ele>182</ele>
        <time>2022-05-02T18:13:27Z</time>
      </trkpt>
      <trkpt lat="43.04701" lon="2.58951">
        <ele>184</ele>
        <time>2022-05-02T18:13:33Z</time>
      </trkpt>
      <trkpt lat="43.04691" lon="2.58933">
        <ele>183</ele>
        <time>2022-05-02T18:13:36Z</time>
      </trkpt>
      <trkpt lat="43.04686" lon="2.58909">
        <ele>180</ele>
        <time>2022-05-02T18:13:39Z</time>
      </trkpt>
      <trkpt lat="43.0468" lon="2.58843">
        <ele>180</ele>
        <time>2022-05-02T18:13:48Z</time>
      </trkpt>
      <trkpt lat="43.0468" lon="2.58816">
        <ele>182</ele>
        <time>2022-05-02T18:13:51Z</time>
      </trkpt>
      <trkpt lat="43.04686" lon="2.58777">
        <ele>185</ele>
        <time>2022-05-02T18:13:56Z</time>
      </trkpt>
      <trkpt lat="43.04692" lon="2.58759">
        <ele>186</ele>
        <time>2022-05-02T18:13:59Z</time>
      </trkpt>
      <trkpt lat="43.04707" lon="2.5873">
        <ele>186</ele>
        <time>2022-05-02T18:14:03Z</time>
      </trkpt>
      <trkpt lat="43.04735" lon="2.58694">
        <ele>182</ele>
        <time>2022-05-02T18:14:10Z</time>
      </trkpt>
      <trkpt lat="43.04837" lon="2.58579">
        <ele>178</ele>
        <time>2022-05-02T18:14:34Z</time>
      </trkpt>
      <trkpt lat="43.04845" lon="2.58565">
        <ele>180</ele>
        <time>2022-05-02T18:14:36Z</time>
      </trkpt>
      <trkpt lat="43.04855" lon="2.58541">
        <ele>183</ele>
        <time>2022-05-02T18:14:40Z</time>
      </trkpt>
      <trkpt lat="43.04869" lon="2.58443">
        <ele>184</ele>
        <time>2022-05-02T18:14:53Z</time>
      </trkpt>
      <trkpt lat="43.0487" lon="2.58413">
        <ele>183</ele>
        <time>2022-05-02T18:14:57Z</time>
      </trkpt>
      <trkpt lat="43.04867" lon="2.58399">
        <ele>182</ele>
        <time>2022-05-02T18:14:58Z</time>
      </trkpt>
      <trkpt lat="43.04859" lon="2.58382">
        <ele>180</ele>
        <time>2022-05-02T18:15:01Z</time>
      </trkpt>
      <trkpt lat="43.0485" lon="2.58365">
        <ele>178</ele>
        <time>2022-05-02T18:15:04Z</time>
      </trkpt>
      <trkpt lat="43.04839" lon="2.5835">
        <ele>176</ele>
        <time>2022-05-02T18:15:07Z</time>
      </trkpt>
      <trkpt lat="43.04825" lon="2.58337">
        <ele>174</ele>
        <time>2022-05-02T18:15:10Z</time>
      </trkpt>
      <trkpt lat="43.04797" lon="2.5832">
        <ele>176</ele>
        <time>2022-05-02T18:15:15Z</time>
      </trkpt>
      <trkpt lat="43.04688" lon="2.58284">
        <ele>177</ele>
        <time>2022-05-02T18:15:35Z</time>
      </trkpt>
      <trkpt lat="43.04605" lon="2.58261">
        <ele>175</ele>
        <time>2022-05-02T18:15:50Z</time>
      </trkpt>
      <trkpt lat="43.04566" lon="2.58259">
        <ele>174</ele>
        <time>2022-05-02T18:15:57Z</time>
      </trkpt>
      <trkpt lat="43.04506" lon="2.58282">
        <ele>179</ele>
        <time>2022-05-02T18:16:08Z</time>
      </trkpt>
      <trkpt lat="43.04461" lon="2.5831">
        <ele>185</ele>
        <time>2022-05-02T18:16:17Z</time>
      </trkpt>
      <trkpt lat="43.04432" lon="2.58315">
        <ele>186</ele>
        <time>2022-05-02T18:16:22Z</time>
      </trkpt>
      <trkpt lat="43.04402" lon="2.58311">
        <ele>186</ele>
        <time>2022-05-02T18:16:27Z</time>
      </trkpt>
      <trkpt lat="43.04379" lon="2.58303">
        <ele>186</ele>
        <time>2022-05-02T18:16:32Z</time>
      </trkpt>
      <trkpt lat="43.04362" lon="2.58295">
        <ele>187</ele>
        <time>2022-05-02T18:16:35Z</time>
      </trkpt>
      <trkpt lat="43.04355" lon="2.58289">
        <ele>186</ele>
        <time>2022-05-02T18:16:36Z</time>
      </trkpt>
      <trkpt lat="43.04349" lon="2.5828">
        <ele>186</ele>
        <time>2022-05-02T18:16:38Z</time>
      </trkpt>
      <trkpt lat="43.04343" lon="2.58259">
        <ele>183</ele>
        <time>2022-05-02T18:16:41Z</time>
      </trkpt>
      <trkpt lat="43.04338" lon="2.58205">
        <ele>181</ele>
        <time>2022-05-02T18:16:48Z</time>
      </trkpt>
      <trkpt lat="43.04331" lon="2.58154">
        <ele>181</ele>
        <time>2022-05-02T18:16:55Z</time>
      </trkpt>
      <trkpt lat="43.04331" lon="2.58127">
        <ele>180</ele>
        <time>2022-05-02T18:16:58Z</time>
      </trkpt>
      <trkpt lat="43.04336" lon="2.58081">
        <ele>178</ele>
        <time>2022-05-02T18:17:04Z</time>
      </trkpt>
      <trkpt lat="43.04334" lon="2.58034">
        <ele>180</ele>
        <time>2022-05-02T18:17:10Z</time>
      </trkpt>
      <trkpt lat="43.04337" lon="2.57955">
        <ele>182</ele>
        <time>2022-05-02T18:17:21Z</time>
      </trkpt>
      <trkpt lat="43.04325" lon="2.57859">
        <ele>181</ele>
        <time>2022-05-02T18:17:33Z</time>
      </trkpt>
      <trkpt lat="43.04313" lon="2.57812">
        <ele>183</ele>
        <time>2022-05-02T18:17:40Z</time>
      </trkpt>
      <trkpt lat="43.04279" lon="2.57724">
        <ele>186</ele>
        <time>2022-05-02T18:17:53Z</time>
      </trkpt>
      <trkpt lat="43.04259" lon="2.57663">
        <ele>183</ele>
        <time>2022-05-02T18:18:01Z</time>
      </trkpt>
      <trkpt lat="43.04253" lon="2.57651">
        <ele>182</ele>
        <time>2022-05-02T18:18:03Z</time>
      </trkpt>
      <trkpt lat="43.04194" lon="2.57556">
        <ele>185</ele>
        <time>2022-05-02T18:18:20Z</time>
      </trkpt>
      <trkpt lat="43.0417" lon="2.57528">
        <ele>182</ele>
        <time>2022-05-02T18:18:25Z</time>
      </trkpt>
      <trkpt lat="43.04145" lon="2.57502">
        <ele>178</ele>
        <time>2022-05-02T18:18:31Z</time>
      </trkpt>
      <trkpt lat="43.04135" lon="2.57494">
        <ele>178</ele>
        <time>2022-05-02T18:18:33Z</time>
      </trkpt>
      <trkpt lat="43.04113" lon="2.57482">
        <ele>178</ele>
        <time>2022-05-02T18:18:37Z</time>
      </trkpt>
      <trkpt lat="43.04093" lon="2.5744">
        <ele>176</ele>
        <time>2022-05-02T18:18:44Z</time>
      </trkpt>
      <trkpt lat="43.04062" lon="2.57363">
        <ele>179</ele>
        <time>2022-05-02T18:18:55Z</time>
      </trkpt>
      <trkpt lat="43.03974" lon="2.57192">
        <ele>189</ele>
        <time>2022-05-02T18:19:22Z</time>
      </trkpt>
      <trkpt lat="43.03964" lon="2.57166">
        <ele>189</ele>
        <time>2022-05-02T18:19:26Z</time>
      </trkpt>
      <trkpt lat="43.03952" lon="2.57127">
        <ele>192</ele>
        <time>2022-05-02T18:19:31Z</time>
      </trkpt>
      <trkpt lat="43.03937" lon="2.57037">
        <ele>192</ele>
        <time>2022-05-02T18:19:43Z</time>
      </trkpt>
      <trkpt lat="43.03936" lon="2.57004">
        <ele>191</ele>
        <time>2022-05-02T18:19:48Z</time>
      </trkpt>
      <trkpt lat="43.03942" lon="2.56951">
        <ele>191</ele>
        <time>2022-05-02T18:19:55Z</time>
      </trkpt>
      <trkpt lat="43.03948" lon="2.56927">
        <ele>191</ele>
        <time>2022-05-02T18:19:58Z</time>
      </trkpt>
      <trkpt lat="43.03955" lon="2.56911">
        <ele>190</ele>
        <time>2022-05-02T18:20:00Z</time>
      </trkpt>
      <trkpt lat="43.03963" lon="2.569">
        <ele>190</ele>
        <time>2022-05-02T18:20:03Z</time>
      </trkpt>
      <trkpt lat="43.03989" lon="2.56871">
        <ele>187</ele>
        <time>2022-05-02T18:20:08Z</time>
      </trkpt>
      <trkpt lat="43.03996" lon="2.5686">
        <ele>186</ele>
        <time>2022-05-02T18:20:10Z</time>
      </trkpt>
      <trkpt lat="43.04005" lon="2.56837">
        <ele>187</ele>
        <time>2022-05-02T18:20:14Z</time>
      </trkpt>
      <trkpt lat="43.0401" lon="2.56828">
        <ele>188</ele>
        <time>2022-05-02T18:20:15Z</time>
      </trkpt>
      <trkpt lat="43.04017" lon="2.56821">
        <ele>188</ele>
        <time>2022-05-02T18:20:17Z</time>
      </trkpt>
      <trkpt lat="43.0409" lon="2.56778">
        <ele>187</ele>
        <time>2022-05-02T18:20:31Z</time>
      </trkpt>
      <trkpt lat="43.04126" lon="2.56764">
        <ele>186</ele>
        <time>2022-05-02T18:20:38Z</time>
      </trkpt>
      <trkpt lat="43.04155" lon="2.56744">
        <ele>184</ele>
        <time>2022-05-02T18:20:43Z</time>
      </trkpt>
      <trkpt lat="43.04176" lon="2.56719">
        <ele>185</ele>
        <time>2022-05-02T18:20:48Z</time>
      </trkpt>
      <trkpt lat="43.04194" lon="2.56692">
        <ele>187</ele>
        <time>2022-05-02T18:20:53Z</time>
      </trkpt>
      <trkpt lat="43.04223" lon="2.56659">
        <ele>186</ele>
        <time>2022-05-02T18:21:00Z</time>
      </trkpt>
      <trkpt lat="43.04253" lon="2.56632">
        <ele>184</ele>
        <time>2022-05-02T18:21:06Z</time>
      </trkpt>
      <trkpt lat="43.04263" lon="2.5662">
        <ele>184</ele>
        <time>2022-05-02T18:21:09Z</time>
      </trkpt>
      <trkpt lat="43.0428" lon="2.56585">
        <ele>184</ele>
        <time>2022-05-02T18:21:14Z</time>
      </trkpt>
      <trkpt lat="43.04282" lon="2.56574">
        <ele>184</ele>
        <time>2022-05-02T18:21:15Z</time>
      </trkpt>
      <trkpt lat="43.04283" lon="2.56561">
        <ele>184</ele>
        <time>2022-05-02T18:21:17Z</time>
      </trkpt>
      <trkpt lat="43.04282" lon="2.56548">
        <ele>184</ele>
        <time>2022-05-02T18:21:19Z</time>
      </trkpt>
      <trkpt lat="43.04278" lon="2.56537">
        <ele>184</ele>
        <time>2022-05-02T18:21:20Z</time>
      </trkpt>
      <trkpt lat="43.04266" lon="2.56515">
        <ele>184</ele>
        <time>2022-05-02T18:21:24Z</time>
      </trkpt>
      <trkpt lat="43.04257" lon="2.56505">
        <ele>184</ele>
        <time>2022-05-02T18:21:26Z</time>
      </trkpt>
      <trkpt lat="43.04241" lon="2.56492">
        <ele>184</ele>
        <time>2022-05-02T18:21:29Z</time>
      </trkpt>
      <trkpt lat="43.04207" lon="2.56474">
        <ele>184</ele>
        <time>2022-05-02T18:21:36Z</time>
      </trkpt>
      <trkpt lat="43.04175" lon="2.56466">
        <ele>183</ele>
        <time>2022-05-02T18:21:42Z</time>
      </trkpt>
      <trkpt lat="43.04128" lon="2.56465">
        <ele>183</ele>
        <time>2022-05-02T18:21:50Z</time>
      </trkpt>
      <trkpt lat="43.04094" lon="2.56466">
        <ele>184</ele>
        <time>2022-05-02T18:21:56Z</time>
      </trkpt>
      <trkpt lat="43.0408" lon="2.5647">
        <ele>184</ele>
        <time>2022-05-02T18:21:59Z</time>
      </trkpt>
      <trkpt lat="43.0406" lon="2.56483">
        <ele>185</ele>
        <time>2022-05-02T18:22:03Z</time>
      </trkpt>
      <trkpt lat="43.04051" lon="2.56494">
        <ele>184</ele>
        <time>2022-05-02T18:22:05Z</time>
      </trkpt>
      <trkpt lat="43.04024" lon="2.56561">
        <ele>187</ele>
        <time>2022-05-02T18:22:15Z</time>
      </trkpt>
      <trkpt lat="43.04003" lon="2.56596">
        <ele>187</ele>
        <time>2022-05-02T18:22:21Z</time>
      </trkpt>
      <trkpt lat="43.03993" lon="2.56609">
        <ele>188</ele>
        <time>2022-05-02T18:22:23Z</time>
      </trkpt>
      <trkpt lat="43.03962" lon="2.56638">
        <ele>188</ele>
        <time>2022-05-02T18:22:30Z</time>
      </trkpt>
      <trkpt lat="43.03948" lon="2.56657">
        <ele>188</ele>
        <time>2022-05-02T18:22:33Z</time>
      </trkpt>
      <trkpt lat="43.03918" lon="2.56692">
        <ele>189</ele>
        <time>2022-05-02T18:22:40Z</time>
      </trkpt>
      <trkpt lat="43.03906" lon="2.56704">
        <ele>191</ele>
        <time>2022-05-02T18:22:43Z</time>
      </trkpt>
      <trkpt lat="43.03895" lon="2.5671">
        <ele>191</ele>
        <time>2022-05-02T18:22:45Z</time>
      </trkpt>
      <trkpt lat="43.03883" lon="2.56714">
        <ele>191</ele>
        <time>2022-05-02T18:22:47Z</time>
      </trkpt>
      <trkpt lat="43.03803" lon="2.56719">
        <ele>191</ele>
        <time>2022-05-02T18:23:01Z</time>
      </trkpt>
      <trkpt lat="43.03785" lon="2.56714">
        <ele>191</ele>
        <time>2022-05-02T18:23:05Z</time>
      </trkpt>
      <trkpt lat="43.03731" lon="2.56686">
        <ele>190</ele>
        <time>2022-05-02T18:23:15Z</time>
      </trkpt>
      <trkpt lat="43.03723" lon="2.56678">
        <ele>189</ele>
        <time>2022-05-02T18:23:17Z</time>
      </trkpt>
      <trkpt lat="43.03684" lon="2.56609">
        <ele>187</ele>
        <time>2022-05-02T18:23:28Z</time>
      </trkpt>
      <trkpt lat="43.03678" lon="2.56594">
        <ele>187</ele>
        <time>2022-05-02T18:23:30Z</time>
      </trkpt>
      <trkpt lat="43.03668" lon="2.56542">
        <ele>185</ele>
        <time>2022-05-02T18:23:37Z</time>
      </trkpt>
      <trkpt lat="43.03635" lon="2.56475">
        <ele>189</ele>
        <time>2022-05-02T18:23:48Z</time>
      </trkpt>
      <trkpt lat="43.03625" lon="2.5646">
        <ele>190</ele>
        <time>2022-05-02T18:23:50Z</time>
      </trkpt>
      <trkpt lat="43.0357" lon="2.56385">
        <ele>194</ele>
        <time>2022-05-02T18:24:04Z</time>
      </trkpt>
      <trkpt lat="43.03552" lon="2.56356">
        <ele>199</ele>
        <time>2022-05-02T18:24:09Z</time>
      </trkpt>
      <trkpt lat="43.03546" lon="2.56341">
        <ele>200</ele>
        <time>2022-05-02T18:24:11Z</time>
      </trkpt>
      <trkpt lat="43.03541" lon="2.56322">
        <ele>202</ele>
        <time>2022-05-02T18:24:14Z</time>
      </trkpt>
      <trkpt lat="43.03535" lon="2.56283">
        <ele>204</ele>
        <time>2022-05-02T18:24:19Z</time>
      </trkpt>
      <trkpt lat="43.03533" lon="2.5624">
        <ele>204</ele>
        <time>2022-05-02T18:24:25Z</time>
      </trkpt>
      <trkpt lat="43.03534" lon="2.56223">
        <ele>204</ele>
        <time>2022-05-02T18:24:27Z</time>
      </trkpt>
      <trkpt lat="43.03545" lon="2.56152">
        <ele>202</ele>
        <time>2022-05-02T18:24:36Z</time>
      </trkpt>
      <trkpt lat="43.03553" lon="2.56123">
        <ele>201</ele>
        <time>2022-05-02T18:24:41Z</time>
      </trkpt>
      <trkpt lat="43.03558" lon="2.5611">
        <ele>201</ele>
        <time>2022-05-02T18:24:42Z</time>
      </trkpt>
      <trkpt lat="43.03564" lon="2.56099">
        <ele>199</ele>
        <time>2022-05-02T18:24:44Z</time>
      </trkpt>
      <trkpt lat="43.03595" lon="2.56061">
        <ele>197</ele>
        <time>2022-05-02T18:24:52Z</time>
      </trkpt>
      <trkpt lat="43.03612" lon="2.56045">
        <ele>198</ele>
        <time>2022-05-02T18:24:55Z</time>
      </trkpt>
      <trkpt lat="43.03626" lon="2.56034">
        <ele>198</ele>
        <time>2022-05-02T18:24:58Z</time>
      </trkpt>
      <trkpt lat="43.03671" lon="2.56016">
        <ele>193</ele>
        <time>2022-05-02T18:25:07Z</time>
      </trkpt>
      <trkpt lat="43.03681" lon="2.5601">
        <ele>193</ele>
        <time>2022-05-02T18:25:08Z</time>
      </trkpt>
      <trkpt lat="43.03691" lon="2.55998">
        <ele>193</ele>
        <time>2022-05-02T18:25:11Z</time>
      </trkpt>
      <trkpt lat="43.03708" lon="2.55971">
        <ele>193</ele>
        <time>2022-05-02T18:25:15Z</time>
      </trkpt>
      <trkpt lat="43.03718" lon="2.55945">
        <ele>192</ele>
        <time>2022-05-02T18:25:19Z</time>
      </trkpt>
      <trkpt lat="43.03719" lon="2.55932">
        <ele>191</ele>
        <time>2022-05-02T18:25:21Z</time>
      </trkpt>
      <trkpt lat="43.03718" lon="2.55919">
        <ele>191</ele>
        <time>2022-05-02T18:25:23Z</time>
      </trkpt>
      <trkpt lat="43.03715" lon="2.55909">
        <ele>191</ele>
        <time>2022-05-02T18:25:24Z</time>
      </trkpt>
      <trkpt lat="43.0371" lon="2.55899">
        <ele>192</ele>
        <time>2022-05-02T18:25:26Z</time>
      </trkpt>
      <trkpt lat="43.03699" lon="2.55887">
        <ele>192</ele>
        <time>2022-05-02T18:25:28Z</time>
      </trkpt>
      <trkpt lat="43.0368" lon="2.55871">
        <ele>193</ele>
        <time>2022-05-02T18:25:32Z</time>
      </trkpt>
      <trkpt lat="43.03626" lon="2.55836">
        <ele>198</ele>
        <time>2022-05-02T18:25:43Z</time>
      </trkpt>
      <trkpt lat="43.03614" lon="2.55825">
        <ele>199</ele>
        <time>2022-05-02T18:25:45Z</time>
      </trkpt>
      <trkpt lat="43.03574" lon="2.55771">
        <ele>197</ele>
        <time>2022-05-02T18:25:55Z</time>
      </trkpt>
      <trkpt lat="43.03569" lon="2.55759">
        <ele>196</ele>
        <time>2022-05-02T18:25:57Z</time>
      </trkpt>
      <trkpt lat="43.03564" lon="2.55744">
        <ele>194</ele>
        <time>2022-05-02T18:25:59Z</time>
      </trkpt>
      <trkpt lat="43.03544" lon="2.55636">
        <ele>193</ele>
        <time>2022-05-02T18:26:14Z</time>
      </trkpt>
      <trkpt lat="43.03535" lon="2.55503">
        <ele>195</ele>
        <time>2022-05-02T18:26:31Z</time>
      </trkpt>
      <trkpt lat="43.0353" lon="2.55481">
        <ele>195</ele>
        <time>2022-05-02T18:26:34Z</time>
      </trkpt>
      <trkpt lat="43.03523" lon="2.55463">
        <ele>194</ele>
        <time>2022-05-02T18:26:37Z</time>
      </trkpt>
      <trkpt lat="43.03513" lon="2.55445">
        <ele>193</ele>
        <time>2022-05-02T18:26:40Z</time>
      </trkpt>
      <trkpt lat="43.03503" lon="2.55432">
        <ele>192</ele>
        <time>2022-05-02T18:26:42Z</time>
      </trkpt>
      <trkpt lat="43.03488" lon="2.55422">
        <ele>192</ele>
        <time>2022-05-02T18:26:45Z</time>
      </trkpt>
      <trkpt lat="43.03474" lon="2.55415">
        <ele>192</ele>
        <time>2022-05-02T18:26:48Z</time>
      </trkpt>
      <trkpt lat="43.0345" lon="2.55412">
        <ele>192</ele>
        <time>2022-05-02T18:26:52Z</time>
      </trkpt>
      <trkpt lat="43.03429" lon="2.55416">
        <ele>193</ele>
        <time>2022-05-02T18:26:56Z</time>
      </trkpt>
      <trkpt lat="43.03413" lon="2.55422">
        <ele>194</ele>
        <time>2022-05-02T18:26:59Z</time>
      </trkpt>
      <trkpt lat="43.03384" lon="2.55444">
        <ele>199</ele>
        <time>2022-05-02T18:27:05Z</time>
      </trkpt>
      <trkpt lat="43.03376" lon="2.55449">
        <ele>201</ele>
        <time>2022-05-02T18:27:06Z</time>
      </trkpt>
      <trkpt lat="43.03369" lon="2.5545">
        <ele>201</ele>
        <time>2022-05-02T18:27:08Z</time>
      </trkpt>
      <trkpt lat="43.03352" lon="2.55446">
        <ele>202</ele>
        <time>2022-05-02T18:27:11Z</time>
      </trkpt>
      <trkpt lat="43.03337" lon="2.55436">
        <ele>201</ele>
        <time>2022-05-02T18:27:14Z</time>
      </trkpt>
      <trkpt lat="43.03293" lon="2.55399">
        <ele>203</ele>
        <time>2022-05-02T18:27:23Z</time>
      </trkpt>
      <trkpt lat="43.03286" lon="2.55387">
        <ele>202</ele>
        <time>2022-05-02T18:27:25Z</time>
      </trkpt>
      <trkpt lat="43.03273" lon="2.55335">
        <ele>197</ele>
        <time>2022-05-02T18:27:32Z</time>
      </trkpt>
      <trkpt lat="43.03266" lon="2.55319">
        <ele>197</ele>
        <time>2022-05-02T18:27:34Z</time>
      </trkpt>
      <trkpt lat="43.03248" lon="2.55286">
        <ele>195</ele>
        <time>2022-05-02T18:27:40Z</time>
      </trkpt>
      <trkpt lat="43.03238" lon="2.55275">
        <ele>196</ele>
        <time>2022-05-02T18:27:42Z</time>
      </trkpt>
      <trkpt lat="43.03224" lon="2.55266">
        <ele>197</ele>
        <time>2022-05-02T18:27:45Z</time>
      </trkpt>
      <trkpt lat="43.03199" lon="2.55258">
        <ele>198</ele>
        <time>2022-05-02T18:27:49Z</time>
      </trkpt>
      <trkpt lat="43.03181" lon="2.55249">
        <ele>199</ele>
        <time>2022-05-02T18:27:53Z</time>
      </trkpt>
      <trkpt lat="43.03148" lon="2.5521">
        <ele>202</ele>
        <time>2022-05-02T18:28:00Z</time>
      </trkpt>
      <trkpt lat="43.03122" lon="2.55171">
        <ele>204</ele>
        <time>2022-05-02T18:28:07Z</time>
      </trkpt>
      <trkpt lat="43.03109" lon="2.55154">
        <ele>206</ele>
        <time>2022-05-02T18:28:11Z</time>
      </trkpt>
      <trkpt lat="43.03091" lon="2.55136">
        <ele>207</ele>
        <time>2022-05-02T18:28:14Z</time>
      </trkpt>
      <trkpt lat="43.03078" lon="2.55117">
        <ele>207</ele>
        <time>2022-05-02T18:28:18Z</time>
      </trkpt>
      <trkpt lat="43.03069" lon="2.551">
        <ele>209</ele>
        <time>2022-05-02T18:28:21Z</time>
      </trkpt>
      <trkpt lat="43.03054" lon="2.55039">
        <ele>209</ele>
        <time>2022-05-02T18:28:29Z</time>
      </trkpt>
      <trkpt lat="43.03048" lon="2.55022">
        <ele>209</ele>
        <time>2022-05-02T18:28:31Z</time>
      </trkpt>
      <trkpt lat="43.0302" lon="2.54976">
        <ele>209</ele>
        <time>2022-05-02T18:28:39Z</time>
      </trkpt>
      <trkpt lat="43.0301" lon="2.54963">
        <ele>208</ele>
        <time>2022-05-02T18:28:42Z</time>
      </trkpt>
      <trkpt lat="43.0298" lon="2.54941">
        <ele>212</ele>
        <time>2022-05-02T18:28:48Z</time>
      </trkpt>
      <trkpt lat="43.0297" lon="2.54932">
        <ele>213</ele>
        <time>2022-05-02T18:28:50Z</time>
      </trkpt>
      <trkpt lat="43.02943" lon="2.54897">
        <ele>216</ele>
        <time>2022-05-02T18:28:56Z</time>
      </trkpt>
      <trkpt lat="43.02933" lon="2.54881">
        <ele>215</ele>
        <time>2022-05-02T18:28:59Z</time>
      </trkpt>
      <trkpt lat="43.0291" lon="2.54817">
        <ele>207</ele>
        <time>2022-05-02T18:29:08Z</time>
      </trkpt>
      <trkpt lat="43.02894" lon="2.54796">
        <ele>211</ele>
        <time>2022-05-02T18:29:12Z</time>
      </trkpt>
      <trkpt lat="43.02838" lon="2.54744">
        <ele>207</ele>
        <time>2022-05-02T18:29:24Z</time>
      </trkpt>
      <trkpt lat="43.02768" lon="2.54697">
        <ele>206</ele>
        <time>2022-05-02T18:29:38Z</time>
      </trkpt>
      <trkpt lat="43.02747" lon="2.54687">
        <ele>204</ele>
        <time>2022-05-02T18:29:42Z</time>
      </trkpt>
      <trkpt lat="43.02701" lon="2.54678">
        <ele>204</ele>
        <time>2022-05-02T18:29:51Z</time>
      </trkpt>
      <trkpt lat="43.02694" lon="2.54674">
        <ele>203</ele>
        <time>2022-05-02T18:29:52Z</time>
      </trkpt>
      <trkpt lat="43.02686" lon="2.54659">
        <ele>202</ele>
        <time>2022-05-02T18:29:54Z</time>
      </trkpt>
      <trkpt lat="43.02672" lon="2.546">
        <ele>205</ele>
        <time>2022-05-02T18:30:02Z</time>
      </trkpt>
      <trkpt lat="43.02667" lon="2.54591">
        <ele>205</ele>
        <time>2022-05-02T18:30:04Z</time>
      </trkpt>
      <trkpt lat="43.02654" lon="2.54584">
        <ele>206</ele>
        <time>2022-05-02T18:30:06Z</time>
      </trkpt>
      <trkpt lat="43.02644" lon="2.54585">
        <ele>207</ele>
        <time>2022-05-02T18:30:08Z</time>
      </trkpt>
      <trkpt lat="43.0259" lon="2.54602">
        <ele>210</ele>
        <time>2022-05-02T18:30:18Z</time>
      </trkpt>
      <trkpt lat="43.02469" lon="2.54624">
        <ele>213</ele>
        <time>2022-05-02T18:30:40Z</time>
      </trkpt>
      <trkpt lat="43.02453" lon="2.54633">
        <ele>213</ele>
        <time>2022-05-02T18:30:43Z</time>
      </trkpt>
      <trkpt lat="43.0243" lon="2.5464">
        <ele>213</ele>
        <time>2022-05-02T18:30:47Z</time>
      </trkpt>
      <trkpt lat="43.02399" lon="2.54656">
        <ele>216</ele>
        <time>2022-05-02T18:30:53Z</time>
      </trkpt>
      <trkpt lat="43.02385" lon="2.5467">
        <ele>217</ele>
        <time>2022-05-02T18:30:56Z</time>
      </trkpt>
      <trkpt lat="43.02361" lon="2.54701">
        <ele>219</ele>
        <time>2022-05-02T18:31:02Z</time>
      </trkpt>
      <trkpt lat="43.02344" lon="2.5472">
        <ele>219</ele>
        <time>2022-05-02T18:31:06Z</time>
      </trkpt>
      <trkpt lat="43.02334" lon="2.54736">
        <ele>218</ele>
        <time>2022-05-02T18:31:08Z</time>
      </trkpt>
      <trkpt lat="43.02315" lon="2.54777">
        <ele>217</ele>
        <time>2022-05-02T18:31:15Z</time>
      </trkpt>
      <trkpt lat="43.02295" lon="2.54833">
        <ele>212</ele>
        <time>2022-05-02T18:31:23Z</time>
      </trkpt>
      <trkpt lat="43.02289" lon="2.54848">
        <ele>212</ele>
        <time>2022-05-02T18:31:25Z</time>
      </trkpt>
      <trkpt lat="43.02278" lon="2.54859">
        <ele>212</ele>
        <time>2022-05-02T18:31:28Z</time>
      </trkpt>
      <trkpt lat="43.02263" lon="2.54863">
        <ele>213</ele>
        <time>2022-05-02T18:31:30Z</time>
      </trkpt>
      <trkpt lat="43.0224" lon="2.54866">
        <ele>215</ele>
        <time>2022-05-02T18:31:34Z</time>
      </trkpt>
      <trkpt lat="43.02184" lon="2.54867">
        <ele>219</ele>
        <time>2022-05-02T18:31:44Z</time>
      </trkpt>
      <trkpt lat="43.02122" lon="2.5488">
        <ele>220</ele>
        <time>2022-05-02T18:31:56Z</time>
      </trkpt>
      <trkpt lat="43.02107" lon="2.54878">
        <ele>222</ele>
        <time>2022-05-02T18:31:58Z</time>
      </trkpt>
      <trkpt lat="43.02081" lon="2.54869">
        <ele>227</ele>
        <time>2022-05-02T18:32:03Z</time>
      </trkpt>
      <trkpt lat="43.02067" lon="2.54868">
        <ele>228</ele>
        <time>2022-05-02T18:32:05Z</time>
      </trkpt>
      <trkpt lat="43.02035" lon="2.54899">
        <ele>222</ele>
        <time>2022-05-02T18:32:12Z</time>
      </trkpt>
      <trkpt lat="43.02016" lon="2.54907">
        <ele>223</ele>
        <time>2022-05-02T18:32:16Z</time>
      </trkpt>
      <trkpt lat="43.01982" lon="2.54938">
        <ele>218</ele>
        <time>2022-05-02T18:32:23Z</time>
      </trkpt>
      <trkpt lat="43.0197" lon="2.5494">
        <ele>217</ele>
        <time>2022-05-02T18:32:25Z</time>
      </trkpt>
      <trkpt lat="43.01956" lon="2.54936">
        <ele>217</ele>
        <time>2022-05-02T18:32:28Z</time>
      </trkpt>
      <trkpt lat="43.01948" lon="2.5493">
        <ele>217</ele>
        <time>2022-05-02T18:32:30Z</time>
      </trkpt>
      <trkpt lat="43.01939" lon="2.5492">
        <ele>218</ele>
        <time>2022-05-02T18:32:32Z</time>
      </trkpt>
      <trkpt lat="43.01928" lon="2.54891">
        <ele>221</ele>
        <time>2022-05-02T18:32:36Z</time>
      </trkpt>
      <trkpt lat="43.0191" lon="2.54833">
        <ele>228</ele>
        <time>2022-05-02T18:32:44Z</time>
      </trkpt>
      <trkpt lat="43.01907" lon="2.54814">
        <ele>227</ele>
        <time>2022-05-02T18:32:47Z</time>
      </trkpt>
      <trkpt lat="43.01907" lon="2.54802">
        <ele>226</ele>
        <time>2022-05-02T18:32:48Z</time>
      </trkpt>
      <trkpt lat="43.0191" lon="2.54787">
        <ele>226</ele>
        <time>2022-05-02T18:32:50Z</time>
      </trkpt>
      <trkpt lat="43.01963" lon="2.54674">
        <ele>223</ele>
        <time>2022-05-02T18:33:08Z</time>
      </trkpt>
      <trkpt lat="43.01971" lon="2.54644">
        <ele>222</ele>
        <time>2022-05-02T18:33:12Z</time>
      </trkpt>
      <trkpt lat="43.01972" lon="2.54618">
        <ele>222</ele>
        <time>2022-05-02T18:33:15Z</time>
      </trkpt>
      <trkpt lat="43.01969" lon="2.5455">
        <ele>220</ele>
        <time>2022-05-02T18:33:24Z</time>
      </trkpt>
      <trkpt lat="43.01969" lon="2.5454">
        <ele>220</ele>
        <time>2022-05-02T18:33:25Z</time>
      </trkpt>
      <trkpt lat="43.01972" lon="2.5453">
        <ele>220</ele>
        <time>2022-05-02T18:33:27Z</time>
      </trkpt>
      <trkpt lat="43.01977" lon="2.54521">
        <ele>220</ele>
        <time>2022-05-02T18:33:28Z</time>
      </trkpt>
      <trkpt lat="43.0199" lon="2.54506">
        <ele>221</ele>
        <time>2022-05-02T18:33:31Z</time>
      </trkpt>
      <trkpt lat="43.02001" lon="2.545">
        <ele>221</ele>
        <time>2022-05-02T18:33:33Z</time>
      </trkpt>
      <trkpt lat="43.02051" lon="2.54488">
        <ele>225</ele>
        <time>2022-05-02T18:33:42Z</time>
      </trkpt>
      <trkpt lat="43.02067" lon="2.5448">
        <ele>226</ele>
        <time>2022-05-02T18:33:45Z</time>
      </trkpt>
      <trkpt lat="43.02079" lon="2.54464">
        <ele>227</ele>
        <time>2022-05-02T18:33:48Z</time>
      </trkpt>
      <trkpt lat="43.02083" lon="2.54449">
        <ele>227</ele>
        <time>2022-05-02T18:33:50Z</time>
      </trkpt>
      <trkpt lat="43.02084" lon="2.54438">
        <ele>227</ele>
        <time>2022-05-02T18:33:52Z</time>
      </trkpt>
      <trkpt lat="43.02083" lon="2.54428">
        <ele>226</ele>
        <time>2022-05-02T18:33:53Z</time>
      </trkpt>
      <trkpt lat="43.02076" lon="2.54411">
        <ele>226</ele>
        <time>2022-05-02T18:33:56Z</time>
      </trkpt>
      <trkpt lat="43.02064" lon="2.54396">
        <ele>227</ele>
        <time>2022-05-02T18:33:59Z</time>
      </trkpt>
      <trkpt lat="43.02057" lon="2.54392">
        <ele>228</ele>
        <time>2022-05-02T18:34:00Z</time>
      </trkpt>
      <trkpt lat="43.02051" lon="2.5439">
        <ele>228</ele>
        <time>2022-05-02T18:34:01Z</time>
      </trkpt>
      <trkpt lat="43.01926" lon="2.54408">
        <ele>227</ele>
        <time>2022-05-02T18:34:23Z</time>
      </trkpt>
      <trkpt lat="43.01906" lon="2.54405">
        <ele>227</ele>
        <time>2022-05-02T18:34:27Z</time>
      </trkpt>
      <trkpt lat="43.0189" lon="2.54401">
        <ele>227</ele>
        <time>2022-05-02T18:34:30Z</time>
      </trkpt>
      <trkpt lat="43.01759" lon="2.54326">
        <ele>229</ele>
        <time>2022-05-02T18:34:55Z</time>
      </trkpt>
      <trkpt lat="43.01748" lon="2.54318">
        <ele>229</ele>
        <time>2022-05-02T18:34:57Z</time>
      </trkpt>
      <trkpt lat="43.01741" lon="2.54309">
        <ele>229</ele>
        <time>2022-05-02T18:34:59Z</time>
      </trkpt>
      <trkpt lat="43.01735" lon="2.54296">
        <ele>229</ele>
        <time>2022-05-02T18:35:01Z</time>
      </trkpt>
      <trkpt lat="43.01732" lon="2.54284">
        <ele>230</ele>
        <time>2022-05-02T18:35:03Z</time>
      </trkpt>
      <trkpt lat="43.01735" lon="2.5399">
        <ele>238</ele>
        <time>2022-05-02T18:35:41Z</time>
      </trkpt>
      <trkpt lat="43.01742" lon="2.53964">
        <ele>236</ele>
        <time>2022-05-02T18:35:45Z</time>
      </trkpt>
      <trkpt lat="43.01758" lon="2.53925">
        <ele>237</ele>
        <time>2022-05-02T18:35:50Z</time>
      </trkpt>
      <trkpt lat="43.01774" lon="2.53874">
        <ele>241</ele>
        <time>2022-05-02T18:35:58Z</time>
      </trkpt>
      <trkpt lat="43.01777" lon="2.53853">
        <ele>242</ele>
        <time>2022-05-02T18:36:00Z</time>
      </trkpt>
      <trkpt lat="43.01777" lon="2.53831">
        <ele>241</ele>
        <time>2022-05-02T18:36:03Z</time>
      </trkpt>
      <trkpt lat="43.01769" lon="2.53791">
        <ele>241</ele>
        <time>2022-05-02T18:36:09Z</time>
      </trkpt>
      <trkpt lat="43.01756" lon="2.53761">
        <ele>238</ele>
        <time>2022-05-02T18:36:13Z</time>
      </trkpt>
      <trkpt lat="43.01733" lon="2.53728">
        <ele>237</ele>
        <time>2022-05-02T18:36:19Z</time>
      </trkpt>
      <trkpt lat="43.01675" lon="2.53656">
        <ele>237</ele>
        <time>2022-05-02T18:36:33Z</time>
      </trkpt>
      <trkpt lat="43.01663" lon="2.53647">
        <ele>238</ele>
        <time>2022-05-02T18:36:36Z</time>
      </trkpt>
      <trkpt lat="43.01653" lon="2.53646">
        <ele>239</ele>
        <time>2022-05-02T18:36:37Z</time>
      </trkpt>
      <trkpt lat="43.01643" lon="2.53649">
        <ele>239</ele>
        <time>2022-05-02T18:36:39Z</time>
      </trkpt>
      <trkpt lat="43.01566" lon="2.53713">
        <ele>234</ele>
        <time>2022-05-02T18:36:55Z</time>
      </trkpt>
      <trkpt lat="43.01488" lon="2.53783">
        <ele>231</ele>
        <time>2022-05-02T18:37:12Z</time>
      </trkpt>
      <trkpt lat="43.01485" lon="2.5379">
        <ele>230</ele>
        <time>2022-05-02T18:37:13Z</time>
      </trkpt>
      <trkpt lat="43.01484" lon="2.53805">
        <ele>227</ele>
        <time>2022-05-02T18:37:15Z</time>
      </trkpt>
      <trkpt lat="43.01484" lon="2.53819">
        <ele>225</ele>
        <time>2022-05-02T18:37:17Z</time>
      </trkpt>
      <trkpt lat="43.01489" lon="2.5385">
        <ele>226</ele>
        <time>2022-05-02T18:37:21Z</time>
      </trkpt>
      <trkpt lat="43.01491" lon="2.53859">
        <ele>229</ele>
        <time>2022-05-02T18:37:22Z</time>
      </trkpt>
      <trkpt lat="43.01491" lon="2.53869">
        <ele>232</ele>
        <time>2022-05-02T18:37:23Z</time>
      </trkpt>
      <trkpt lat="43.01502" lon="2.53866">
        <ele>231</ele>
        <time>2022-05-02T18:37:25Z</time>
      </trkpt>
      <trkpt lat="43.01514" lon="2.53866">
        <ele>230</ele>
        <time>2022-05-02T18:37:27Z</time>
      </trkpt>
      <trkpt lat="43.0156" lon="2.53879">
        <ele>231</ele>
        <time>2022-05-02T18:37:36Z</time>
      </trkpt>
      <trkpt lat="43.01592" lon="2.53891">
        <ele>230</ele>
        <time>2022-05-02T18:37:42Z</time>
      </trkpt>
      <trkpt lat="43.016" lon="2.539">
        <ele>230</ele>
        <time>2022-05-02T18:37:44Z</time>
      </trkpt>
      <trkpt lat="43.01604" lon="2.53911">
        <ele>231</ele>
        <time>2022-05-02T18:37:45Z</time>
      </trkpt>
      <trkpt lat="43.01607" lon="2.53958">
        <ele>235</ele>
        <time>2022-05-02T18:37:51Z</time>
      </trkpt>
      <trkpt lat="43.01605" lon="2.53974">
        <ele>237</ele>
        <time>2022-05-02T18:37:53Z</time>
      </trkpt>
      <trkpt lat="43.01595" lon="2.54022">
        <ele>241</ele>
        <time>2022-05-02T18:38:00Z</time>
      </trkpt>
      <trkpt lat="43.01577" lon="2.54085">
        <ele>242</ele>
        <time>2022-05-02T18:38:09Z</time>
      </trkpt>
      <trkpt lat="43.01565" lon="2.54145">
        <ele>243</ele>
        <time>2022-05-02T18:38:17Z</time>
      </trkpt>
      <trkpt lat="43.01548" lon="2.54263">
        <ele>246</ele>
        <time>2022-05-02T18:38:32Z</time>
      </trkpt>
      <trkpt lat="43.01547" lon="2.54277">
        <ele>246</ele>
        <time>2022-05-02T18:38:34Z</time>
      </trkpt>
      <trkpt lat="43.01555" lon="2.54332">
        <ele>239</ele>
        <time>2022-05-02T18:38:42Z</time>
      </trkpt>
      <trkpt lat="43.01556" lon="2.54348">
        <ele>236</ele>
        <time>2022-05-02T18:38:44Z</time>
      </trkpt>
      <trkpt lat="43.01551" lon="2.54363">
        <ele>235</ele>
        <time>2022-05-02T18:38:46Z</time>
      </trkpt>
      <trkpt lat="43.01543" lon="2.54372">
        <ele>237</ele>
        <time>2022-05-02T18:38:48Z</time>
      </trkpt>
      <trkpt lat="43.01487" lon="2.54409">
        <ele>245</ele>
        <time>2022-05-02T18:38:59Z</time>
      </trkpt>
      <trkpt lat="43.01437" lon="2.54454">
        <ele>244</ele>
        <time>2022-05-02T18:39:09Z</time>
      </trkpt>
      <trkpt lat="43.01425" lon="2.54462">
        <ele>245</ele>
        <time>2022-05-02T18:39:12Z</time>
      </trkpt>
      <trkpt lat="43.01412" lon="2.54465">
        <ele>246</ele>
        <time>2022-05-02T18:39:14Z</time>
      </trkpt>
      <trkpt lat="43.01353" lon="2.54481">
        <ele>244</ele>
        <time>2022-05-02T18:39:25Z</time>
      </trkpt>
      <trkpt lat="43.01343" lon="2.5448">
        <ele>244</ele>
        <time>2022-05-02T18:39:27Z</time>
      </trkpt>
      <trkpt lat="43.01336" lon="2.54478">
        <ele>244</ele>
        <time>2022-05-02T18:39:28Z</time>
      </trkpt>
      <trkpt lat="43.01326" lon="2.54471">
        <ele>245</ele>
        <time>2022-05-02T18:39:30Z</time>
      </trkpt>
      <trkpt lat="43.01306" lon="2.54438">
        <ele>248</ele>
        <time>2022-05-02T18:39:35Z</time>
      </trkpt>
      <trkpt lat="43.01298" lon="2.54431">
        <ele>249</ele>
        <time>2022-05-02T18:39:37Z</time>
      </trkpt>
      <trkpt lat="43.01288" lon="2.54426">
        <ele>250</ele>
        <time>2022-05-02T18:39:39Z</time>
      </trkpt>
      <trkpt lat="43.01267" lon="2.54424">
        <ele>251</ele>
        <time>2022-05-02T18:39:43Z</time>
      </trkpt>
      <trkpt lat="43.01254" lon="2.54427">
        <ele>251</ele>
        <time>2022-05-02T18:39:45Z</time>
      </trkpt>
      <trkpt lat="43.01216" lon="2.5444">
        <ele>252</ele>
        <time>2022-05-02T18:39:52Z</time>
      </trkpt>
      <trkpt lat="43.01209" lon="2.54446">
        <ele>252</ele>
        <time>2022-05-02T18:39:54Z</time>
      </trkpt>
      <trkpt lat="43.01202" lon="2.54456">
        <ele>251</ele>
        <time>2022-05-02T18:39:55Z</time>
      </trkpt>
      <trkpt lat="43.01175" lon="2.54524">
        <ele>243</ele>
        <time>2022-05-02T18:40:05Z</time>
      </trkpt>
      <trkpt lat="43.0117" lon="2.54533">
        <ele>242</ele>
        <time>2022-05-02T18:40:07Z</time>
      </trkpt>
      <trkpt lat="43.01159" lon="2.54543">
        <ele>241</ele>
        <time>2022-05-02T18:40:09Z</time>
      </trkpt>
      <trkpt lat="43.0113" lon="2.54553">
        <ele>241</ele>
        <time>2022-05-02T18:40:15Z</time>
      </trkpt>
      <trkpt lat="43.01114" lon="2.54563">
        <ele>240</ele>
        <time>2022-05-02T18:40:18Z</time>
      </trkpt>
      <trkpt lat="43.01094" lon="2.54584">
        <ele>238</ele>
        <time>2022-05-02T18:40:22Z</time>
      </trkpt>
      <trkpt lat="43.01083" lon="2.54588">
        <ele>239</ele>
        <time>2022-05-02T18:40:24Z</time>
      </trkpt>
      <trkpt lat="43.01076" lon="2.54585">
        <ele>238</ele>
        <time>2022-05-02T18:40:25Z</time>
      </trkpt>
      <trkpt lat="43.0107" lon="2.54579">
        <ele>239</ele>
        <time>2022-05-02T18:40:27Z</time>
      </trkpt>
      <trkpt lat="43.0105" lon="2.54544">
        <ele>244</ele>
        <time>2022-05-02T18:40:33Z</time>
      </trkpt>
      <trkpt lat="43.01039" lon="2.54532">
        <ele>245</ele>
        <time>2022-05-02T18:40:35Z</time>
      </trkpt>
      <trkpt lat="43.01019" lon="2.5452">
        <ele>248</ele>
        <time>2022-05-02T18:40:39Z</time>
      </trkpt>
      <trkpt lat="43.01001" lon="2.54517">
        <ele>248</ele>
        <time>2022-05-02T18:40:42Z</time>
      </trkpt>
      <trkpt lat="43.00987" lon="2.54517">
        <ele>251</ele>
        <time>2022-05-02T18:40:45Z</time>
      </trkpt>
      <trkpt lat="43.00968" lon="2.54524">
        <ele>254</ele>
        <time>2022-05-02T18:40:48Z</time>
      </trkpt>
      <trkpt lat="43.00955" lon="2.54538">
        <ele>255</ele>
        <time>2022-05-02T18:40:51Z</time>
      </trkpt>
      <trkpt lat="43.00944" lon="2.54563">
        <ele>252</ele>
        <time>2022-05-02T18:40:55Z</time>
      </trkpt>
      <trkpt lat="43.00931" lon="2.54622">
        <ele>247</ele>
        <time>2022-05-02T18:41:03Z</time>
      </trkpt>
      <trkpt lat="43.00932" lon="2.54654">
        <ele>244</ele>
        <time>2022-05-02T18:41:07Z</time>
      </trkpt>
      <trkpt lat="43.00936" lon="2.54687">
        <ele>245</ele>
        <time>2022-05-02T18:41:11Z</time>
      </trkpt>
      <trkpt lat="43.00966" lon="2.54761">
        <ele>245</ele>
        <time>2022-05-02T18:41:22Z</time>
      </trkpt>
      <trkpt lat="43.00976" lon="2.548">
        <ele>245</ele>
        <time>2022-05-02T18:41:28Z</time>
      </trkpt>
      <trkpt lat="43.00976" lon="2.54822">
        <ele>246</ele>
        <time>2022-05-02T18:41:31Z</time>
      </trkpt>
      <trkpt lat="43.00972" lon="2.54832">
        <ele>248</ele>
        <time>2022-05-02T18:41:32Z</time>
      </trkpt>
      <trkpt lat="43.00947" lon="2.54853">
        <ele>252</ele>
        <time>2022-05-02T18:41:37Z</time>
      </trkpt>
      <trkpt lat="43.00937" lon="2.54864">
        <ele>253</ele>
        <time>2022-05-02T18:41:40Z</time>
      </trkpt>
      <trkpt lat="43.00845" lon="2.55007">
        <ele>258</ele>
        <time>2022-05-02T18:42:04Z</time>
      </trkpt>
      <trkpt lat="43.00838" lon="2.55022">
        <ele>256</ele>
        <time>2022-05-02T18:42:07Z</time>
      </trkpt>
      <trkpt lat="43.00821" lon="2.55064">
        <ele>253</ele>
        <time>2022-05-02T18:42:13Z</time>
      </trkpt>
      <trkpt lat="43.00812" lon="2.55112">
        <ele>253</ele>
        <time>2022-05-02T18:42:19Z</time>
      </trkpt>
      <trkpt lat="43.0081" lon="2.55117">
        <ele>253</ele>
        <time>2022-05-02T18:42:20Z</time>
      </trkpt>
      <trkpt lat="43.00806" lon="2.55119">
        <ele>253</ele>
        <time>2022-05-02T18:42:21Z</time>
      </trkpt>
      <trkpt lat="43.00771" lon="2.55124">
        <ele>255</ele>
        <time>2022-05-02T18:42:27Z</time>
      </trkpt>
      <trkpt lat="43.00755" lon="2.55123">
        <ele>256</ele>
        <time>2022-05-02T18:42:30Z</time>
      </trkpt>
      <trkpt lat="43.00729" lon="2.55103">
        <ele>259</ele>
        <time>2022-05-02T18:42:35Z</time>
      </trkpt>
      <trkpt lat="43.00703" lon="2.55095">
        <ele>261</ele>
        <time>2022-05-02T18:42:40Z</time>
      </trkpt>
      <trkpt lat="43.00627" lon="2.55097">
        <ele>265</ele>
        <time>2022-05-02T18:42:54Z</time>
      </trkpt>
      <trkpt lat="43.00614" lon="2.55103">
        <ele>265</ele>
        <time>2022-05-02T18:42:56Z</time>
      </trkpt>
      <trkpt lat="43.00599" lon="2.55117">
        <ele>264</ele>
        <time>2022-05-02T18:42:59Z</time>
      </trkpt>
      <trkpt lat="43.00587" lon="2.5512">
        <ele>264</ele>
        <time>2022-05-02T18:43:02Z</time>
      </trkpt>
      <trkpt lat="43.00575" lon="2.55121">
        <ele>265</ele>
        <time>2022-05-02T18:43:04Z</time>
      </trkpt>
      <trkpt lat="43.00554" lon="2.55107">
        <ele>268</ele>
        <time>2022-05-02T18:43:08Z</time>
      </trkpt>
      <trkpt lat="43.00539" lon="2.55088">
        <ele>271</ele>
        <time>2022-05-02T18:43:11Z</time>
      </trkpt>
      <trkpt lat="43.00529" lon="2.5508">
        <ele>272</ele>
        <time>2022-05-02T18:43:14Z</time>
      </trkpt>
      <trkpt lat="43.00526" lon="2.55078">
        <ele>272</ele>
        <time>2022-05-02T18:43:14Z</time>
      </trkpt>
      <trkpt lat="43.00517" lon="2.5508">
        <ele>272</ele>
        <time>2022-05-02T18:43:16Z</time>
      </trkpt>
      <trkpt lat="43.00511" lon="2.55086">
        <ele>272</ele>
        <time>2022-05-02T18:43:17Z</time>
      </trkpt>
      <trkpt lat="43.00503" lon="2.55112">
        <ele>270</ele>
        <time>2022-05-02T18:43:21Z</time>
      </trkpt>
      <trkpt lat="43.005" lon="2.55118">
        <ele>270</ele>
        <time>2022-05-02T18:43:22Z</time>
      </trkpt>
      <trkpt lat="43.00495" lon="2.55122">
        <ele>270</ele>
        <time>2022-05-02T18:43:23Z</time>
      </trkpt>
      <trkpt lat="43.00468" lon="2.55132">
        <ele>273</ele>
        <time>2022-05-02T18:43:28Z</time>
      </trkpt>
      <trkpt lat="43.0045" lon="2.55143">
        <ele>274</ele>
        <time>2022-05-02T18:43:31Z</time>
      </trkpt>
      <trkpt lat="43.00437" lon="2.55162">
        <ele>274</ele>
        <time>2022-05-02T18:43:35Z</time>
      </trkpt>
      <trkpt lat="43.00418" lon="2.55195">
        <ele>276</ele>
        <time>2022-05-02T18:43:40Z</time>
      </trkpt>
      <trkpt lat="43.00396" lon="2.55242">
        <ele>278</ele>
        <time>2022-05-02T18:43:47Z</time>
      </trkpt>
      <trkpt lat="43.0039" lon="2.55248">
        <ele>279</ele>
        <time>2022-05-02T18:43:49Z</time>
      </trkpt>
      <trkpt lat="43.00383" lon="2.55251">
        <ele>279</ele>
        <time>2022-05-02T18:43:50Z</time>
      </trkpt>
      <trkpt lat="43.00348" lon="2.55248">
        <ele>281</ele>
        <time>2022-05-02T18:43:56Z</time>
      </trkpt>
      <trkpt lat="43.00347" lon="2.55249">
        <ele>281</ele>
        <time>2022-05-02T18:43:56Z</time>
      </trkpt>
      <trkpt lat="43.00329" lon="2.55284">
        <ele>287</ele>
        <time>2022-05-02T18:44:02Z</time>
      </trkpt>
      <trkpt lat="43.00327" lon="2.55292">
        <ele>289</ele>
        <time>2022-05-02T18:44:03Z</time>
      </trkpt>
      <trkpt lat="43.00329" lon="2.553">
        <ele>290</ele>
        <time>2022-05-02T18:44:04Z</time>
      </trkpt>
      <trkpt lat="43.0034" lon="2.5532">
        <ele>292</ele>
        <time>2022-05-02T18:44:07Z</time>
      </trkpt>
      <trkpt lat="43.00346" lon="2.55326">
        <ele>293</ele>
        <time>2022-05-02T18:44:09Z</time>
      </trkpt>
      <trkpt lat="43.00356" lon="2.5533">
        <ele>293</ele>
        <time>2022-05-02T18:44:11Z</time>
      </trkpt>
      <trkpt lat="43.00408" lon="2.55329">
        <ele>292</ele>
        <time>2022-05-02T18:44:20Z</time>
      </trkpt>
      <trkpt lat="43.0042" lon="2.55323">
        <ele>291</ele>
        <time>2022-05-02T18:44:22Z</time>
      </trkpt>
      <trkpt lat="43.00462" lon="2.5528">
        <ele>279</ele>
        <time>2022-05-02T18:44:31Z</time>
      </trkpt>
      <trkpt lat="43.0047" lon="2.55279">
        <ele>278</ele>
        <time>2022-05-02T18:44:33Z</time>
      </trkpt>
      <trkpt lat="43.00478" lon="2.55282">
        <ele>278</ele>
        <time>2022-05-02T18:44:34Z</time>
      </trkpt>
      <trkpt lat="43.00482" lon="2.55289">
        <ele>279</ele>
        <time>2022-05-02T18:44:35Z</time>
      </trkpt>
      <trkpt lat="43.00483" lon="2.55299">
        <ele>280</ele>
        <time>2022-05-02T18:44:37Z</time>
      </trkpt>
      <trkpt lat="43.00482" lon="2.55308">
        <ele>282</ele>
        <time>2022-05-02T18:44:38Z</time>
      </trkpt>
      <trkpt lat="43.00478" lon="2.55317">
        <ele>284</ele>
        <time>2022-05-02T18:44:39Z</time>
      </trkpt>
      <trkpt lat="43.00458" lon="2.55343">
        <ele>290</ele>
        <time>2022-05-02T18:44:44Z</time>
      </trkpt>
      <trkpt lat="43.0045" lon="2.55365">
        <ele>295</ele>
        <time>2022-05-02T18:44:47Z</time>
      </trkpt>
      <trkpt lat="43.00451" lon="2.55376">
        <ele>297</ele>
        <time>2022-05-02T18:44:49Z</time>
      </trkpt>
      <trkpt lat="43.00455" lon="2.55396">
        <ele>300</ele>
        <time>2022-05-02T18:44:52Z</time>
      </trkpt>
      <trkpt lat="43.00462" lon="2.55411">
        <ele>301</ele>
        <time>2022-05-02T18:44:54Z</time>
      </trkpt>
      <trkpt lat="43.00473" lon="2.55429">
        <ele>303</ele>
        <time>2022-05-02T18:44:57Z</time>
      </trkpt>
      <trkpt lat="43.00504" lon="2.55465">
        <ele>306</ele>
        <time>2022-05-02T18:45:04Z</time>
      </trkpt>
      <trkpt lat="43.00517" lon="2.55494">
        <ele>310</ele>
        <time>2022-05-02T18:45:09Z</time>
      </trkpt>
      <trkpt lat="43.00519" lon="2.55509">
        <ele>311</ele>
        <time>2022-05-02T18:45:11Z</time>
      </trkpt>
      <trkpt lat="43.00519" lon="2.55529">
        <ele>314</ele>
        <time>2022-05-02T18:45:13Z</time>
      </trkpt>
      <trkpt lat="43.00518" lon="2.55542">
        <ele>316</ele>
        <time>2022-05-02T18:45:15Z</time>
      </trkpt>
      <trkpt lat="43.00494" lon="2.55608">
        <ele>329</ele>
        <time>2022-05-02T18:45:25Z</time>
      </trkpt>
      <trkpt lat="43.00484" lon="2.5562">
        <ele>333</ele>
        <time>2022-05-02T18:45:27Z</time>
      </trkpt>
      <trkpt lat="43.00477" lon="2.55625">
        <ele>335</ele>
        <time>2022-05-02T18:45:28Z</time>
      </trkpt>
      <trkpt lat="43.00461" lon="2.55635">
        <ele>340</ele>
        <time>2022-05-02T18:45:31Z</time>
      </trkpt>
      <trkpt lat="43.00456" lon="2.55639">
        <ele>340</ele>
        <time>2022-05-02T18:45:32Z</time>
      </trkpt>
      <trkpt lat="43.00451" lon="2.55647">
        <ele>341</ele>
        <time>2022-05-02T18:45:34Z</time>
      </trkpt>
      <trkpt lat="43.00448" lon="2.55657">
        <ele>340</ele>
        <time>2022-05-02T18:45:35Z</time>
      </trkpt>
      <trkpt lat="43.00424" lon="2.55751">
        <ele>330</ele>
        <time>2022-05-02T18:45:48Z</time>
      </trkpt>
      <trkpt lat="43.00417" lon="2.55781">
        <ele>330</ele>
        <time>2022-05-02T18:45:52Z</time>
      </trkpt>
      <trkpt lat="43.00416" lon="2.55801">
        <ele>331</ele>
        <time>2022-05-02T18:45:55Z</time>
      </trkpt>
      <trkpt lat="43.00419" lon="2.55823">
        <ele>331</ele>
        <time>2022-05-02T18:45:58Z</time>
      </trkpt>
      <trkpt lat="43.00426" lon="2.55839">
        <ele>332</ele>
        <time>2022-05-02T18:46:00Z</time>
      </trkpt>
      <trkpt lat="43.00434" lon="2.55854">
        <ele>335</ele>
        <time>2022-05-02T18:46:03Z</time>
      </trkpt>
      <trkpt lat="43.00444" lon="2.5586">
        <ele>335</ele>
        <time>2022-05-02T18:46:05Z</time>
      </trkpt>
      <trkpt lat="43.00459" lon="2.55865">
        <ele>335</ele>
        <time>2022-05-02T18:46:07Z</time>
      </trkpt>
      <trkpt lat="43.005" lon="2.55864">
        <ele>332</ele>
        <time>2022-05-02T18:46:15Z</time>
      </trkpt>
      <trkpt lat="43.00507" lon="2.55867">
        <ele>335</ele>
        <time>2022-05-02T18:46:16Z</time>
      </trkpt>
      <trkpt lat="43.00511" lon="2.55872">
        <ele>337</ele>
        <time>2022-05-02T18:46:17Z</time>
      </trkpt>
      <trkpt lat="43.00516" lon="2.55886">
        <ele>338</ele>
        <time>2022-05-02T18:46:19Z</time>
      </trkpt>
      <trkpt lat="43.00517" lon="2.55904">
        <ele>339</ele>
        <time>2022-05-02T18:46:21Z</time>
      </trkpt>
      <trkpt lat="43.00514" lon="2.5593">
        <ele>337</ele>
        <time>2022-05-02T18:46:25Z</time>
      </trkpt>
      <trkpt lat="43.00489" lon="2.55991">
        <ele>334</ele>
        <time>2022-05-02T18:46:34Z</time>
      </trkpt>
      <trkpt lat="43.00475" lon="2.56043">
        <ele>337</ele>
        <time>2022-05-02T18:46:41Z</time>
      </trkpt>
      <trkpt lat="43.00471" lon="2.56071">
        <ele>337</ele>
        <time>2022-05-02T18:46:45Z</time>
      </trkpt>
      <trkpt lat="43.00472" lon="2.56114">
        <ele>335</ele>
        <time>2022-05-02T18:46:50Z</time>
      </trkpt>
      <trkpt lat="43.0047" lon="2.56148">
        <ele>333</ele>
        <time>2022-05-02T18:46:55Z</time>
      </trkpt>
      <trkpt lat="43.00469" lon="2.56187">
        <ele>334</ele>
        <time>2022-05-02T18:47:00Z</time>
      </trkpt>
      <trkpt lat="43.00465" lon="2.56198">
        <ele>335</ele>
        <time>2022-05-02T18:47:01Z</time>
      </trkpt>
      <trkpt lat="43.00457" lon="2.56202">
        <ele>336</ele>
        <time>2022-05-02T18:47:03Z</time>
      </trkpt>
      <trkpt lat="43.00445" lon="2.56203">
        <ele>336</ele>
        <time>2022-05-02T18:47:05Z</time>
      </trkpt>
      <trkpt lat="43.00412" lon="2.562">
        <ele>337</ele>
        <time>2022-05-02T18:47:11Z</time>
      </trkpt>
      <trkpt lat="43.00397" lon="2.56195">
        <ele>338</ele>
        <time>2022-05-02T18:47:14Z</time>
      </trkpt>
      <trkpt lat="43.00382" lon="2.56185">
        <ele>338</ele>
        <time>2022-05-02T18:47:17Z</time>
      </trkpt>
      <trkpt lat="43.00366" lon="2.5617">
        <ele>337</ele>
        <time>2022-05-02T18:47:20Z</time>
      </trkpt>
      <trkpt lat="43.00357" lon="2.56157">
        <ele>337</ele>
        <time>2022-05-02T18:47:22Z</time>
      </trkpt>
      <trkpt lat="43.00353" lon="2.5614">
        <ele>337</ele>
        <time>2022-05-02T18:47:25Z</time>
      </trkpt>
      <trkpt lat="43.00354" lon="2.56123">
        <ele>338</ele>
        <time>2022-05-02T18:47:27Z</time>
      </trkpt>
      <trkpt lat="43.00365" lon="2.56071">
        <ele>342</ele>
        <time>2022-05-02T18:47:34Z</time>
      </trkpt>
      <trkpt lat="43.00368" lon="2.56049">
        <ele>344</ele>
        <time>2022-05-02T18:47:37Z</time>
      </trkpt>
      <trkpt lat="43.00364" lon="2.56013">
        <ele>346</ele>
        <time>2022-05-02T18:47:42Z</time>
      </trkpt>
      <trkpt lat="43.00356" lon="2.55977">
        <ele>345</ele>
        <time>2022-05-02T18:47:47Z</time>
      </trkpt>
      <trkpt lat="43.00346" lon="2.55952">
        <ele>345</ele>
        <time>2022-05-02T18:47:50Z</time>
      </trkpt>
      <trkpt lat="43.00333" lon="2.5593">
        <ele>344</ele>
        <time>2022-05-02T18:47:54Z</time>
      </trkpt>
      <trkpt lat="43.00312" lon="2.55903">
        <ele>348</ele>
        <time>2022-05-02T18:47:59Z</time>
      </trkpt>
      <trkpt lat="43.00302" lon="2.55895">
        <ele>350</ele>
        <time>2022-05-02T18:48:01Z</time>
      </trkpt>
      <trkpt lat="43.00239" lon="2.55881">
        <ele>354</ele>
        <time>2022-05-02T18:48:13Z</time>
      </trkpt>
      <trkpt lat="43.00224" lon="2.55883">
        <ele>354</ele>
        <time>2022-05-02T18:48:15Z</time>
      </trkpt>
      <trkpt lat="43.00195" lon="2.55896">
        <ele>351</ele>
        <time>2022-05-02T18:48:21Z</time>
      </trkpt>
      <trkpt lat="43.00175" lon="2.55902">
        <ele>350</ele>
        <time>2022-05-02T18:48:24Z</time>
      </trkpt>
      <trkpt lat="43.0013" lon="2.55889">
        <ele>353</ele>
        <time>2022-05-02T18:48:32Z</time>
      </trkpt>
      <trkpt lat="43.00122" lon="2.55889">
        <ele>352</ele>
        <time>2022-05-02T18:48:34Z</time>
      </trkpt>
      <trkpt lat="43.00119" lon="2.55892">
        <ele>352</ele>
        <time>2022-05-02T18:48:35Z</time>
      </trkpt>
      <trkpt lat="43.00106" lon="2.55922">
        <ele>346</ele>
        <time>2022-05-02T18:48:39Z</time>
      </trkpt>
      <trkpt lat="43.00103" lon="2.55933">
        <ele>347</ele>
        <time>2022-05-02T18:48:41Z</time>
      </trkpt>
      <trkpt lat="43.00099" lon="2.5595">
        <ele>348</ele>
        <time>2022-05-02T18:48:43Z</time>
      </trkpt>
      <trkpt lat="43.00097" lon="2.55995">
        <ele>352</ele>
        <time>2022-05-02T18:48:49Z</time>
      </trkpt>
      <trkpt lat="43.00103" lon="2.56035">
        <ele>357</ele>
        <time>2022-05-02T18:48:54Z</time>
      </trkpt>
      <trkpt lat="43.00103" lon="2.56055">
        <ele>358</ele>
        <time>2022-05-02T18:48:57Z</time>
      </trkpt>
      <trkpt lat="43.00099" lon="2.56074">
        <ele>358</ele>
        <time>2022-05-02T18:48:59Z</time>
      </trkpt>
      <trkpt lat="43.00091" lon="2.56092">
        <ele>354</ele>
        <time>2022-05-02T18:49:02Z</time>
      </trkpt>
      <trkpt lat="43.00083" lon="2.56105">
        <ele>351</ele>
        <time>2022-05-02T18:49:04Z</time>
      </trkpt>
      <trkpt lat="43.00074" lon="2.56118">
        <ele>352</ele>
        <time>2022-05-02T18:49:07Z</time>
      </trkpt>
      <trkpt lat="43.0006" lon="2.56134">
        <ele>353</ele>
        <time>2022-05-02T18:49:10Z</time>
      </trkpt>
      <trkpt lat="43.00049" lon="2.56145">
        <ele>353</ele>
        <time>2022-05-02T18:49:12Z</time>
      </trkpt>
      <trkpt lat="43.00029" lon="2.56159">
        <ele>353</ele>
        <time>2022-05-02T18:49:16Z</time>
      </trkpt>
      <trkpt lat="43.00024" lon="2.56174">
        <ele>353</ele>
        <time>2022-05-02T18:49:18Z</time>
      </trkpt>
      <trkpt lat="43.00018" lon="2.56204">
        <ele>352</ele>
        <time>2022-05-02T18:49:22Z</time>
      </trkpt>
      <trkpt lat="43.00017" lon="2.56209">
        <ele>352</ele>
        <time>2022-05-02T18:49:23Z</time>
      </trkpt>
      <trkpt lat="43.00018" lon="2.56243">
        <ele>351</ele>
        <time>2022-05-02T18:49:28Z</time>
      </trkpt>
      <trkpt lat="43.00023" lon="2.56277">
        <ele>351</ele>
        <time>2022-05-02T18:49:32Z</time>
      </trkpt>
      <trkpt lat="43.00032" lon="2.56299">
        <ele>353</ele>
        <time>2022-05-02T18:49:35Z</time>
      </trkpt>
      <trkpt lat="43.00047" lon="2.56339">
        <ele>355</ele>
        <time>2022-05-02T18:49:41Z</time>
      </trkpt>
      <trkpt lat="43.00054" lon="2.56358">
        <ele>355</ele>
        <time>2022-05-02T18:49:44Z</time>
      </trkpt>
      <trkpt lat="43.00059" lon="2.56379">
        <ele>354</ele>
        <time>2022-05-02T18:49:47Z</time>
      </trkpt>
      <trkpt lat="43.00077" lon="2.56459">
        <ele>353</ele>
        <time>2022-05-02T18:49:58Z</time>
      </trkpt>
      <trkpt lat="43.00086" lon="2.56509">
        <ele>356</ele>
        <time>2022-05-02T18:50:04Z</time>
      </trkpt>
      <trkpt lat="43.00095" lon="2.5652">
        <ele>360</ele>
        <time>2022-05-02T18:50:07Z</time>
      </trkpt>
      <trkpt lat="43.00119" lon="2.56539">
        <ele>367</ele>
        <time>2022-05-02T18:50:12Z</time>
      </trkpt>
      <trkpt lat="43.00195" lon="2.5658">
        <ele>380</ele>
        <time>2022-05-02T18:50:26Z</time>
      </trkpt>
      <trkpt lat="43.00203" lon="2.56587">
        <ele>382</ele>
        <time>2022-05-02T18:50:28Z</time>
      </trkpt>
      <trkpt lat="43.0021" lon="2.56597">
        <ele>384</ele>
        <time>2022-05-02T18:50:30Z</time>
      </trkpt>
      <trkpt lat="43.00215" lon="2.56618">
        <ele>386</ele>
        <time>2022-05-02T18:50:32Z</time>
      </trkpt>
      <trkpt lat="43.00219" lon="2.56654">
        <ele>386</ele>
        <time>2022-05-02T18:50:37Z</time>
      </trkpt>
      <trkpt lat="43.00219" lon="2.56691">
        <ele>388</ele>
        <time>2022-05-02T18:50:42Z</time>
      </trkpt>
      <trkpt lat="43.00217" lon="2.56715">
        <ele>390</ele>
        <time>2022-05-02T18:50:45Z</time>
      </trkpt>
      <trkpt lat="43.00214" lon="2.5673">
        <ele>391</ele>
        <time>2022-05-02T18:50:47Z</time>
      </trkpt>
      <trkpt lat="43.00208" lon="2.56739">
        <ele>391</ele>
        <time>2022-05-02T18:50:49Z</time>
      </trkpt>
      <trkpt lat="43.00195" lon="2.56754">
        <ele>392</ele>
        <time>2022-05-02T18:50:52Z</time>
      </trkpt>
      <trkpt lat="43.00191" lon="2.56766">
        <ele>392</ele>
        <time>2022-05-02T18:50:53Z</time>
      </trkpt>
      <trkpt lat="43.00189" lon="2.5678">
        <ele>393</ele>
        <time>2022-05-02T18:50:55Z</time>
      </trkpt>
      <trkpt lat="43.00192" lon="2.56878">
        <ele>397</ele>
        <time>2022-05-02T18:51:08Z</time>
      </trkpt>
      <trkpt lat="43.0019" lon="2.56907">
        <ele>398</ele>
        <time>2022-05-02T18:51:12Z</time>
      </trkpt>
      <trkpt lat="43.00184" lon="2.56928">
        <ele>398</ele>
        <time>2022-05-02T18:51:15Z</time>
      </trkpt>
      <trkpt lat="43.00153" lon="2.57011">
        <ele>401</ele>
        <time>2022-05-02T18:51:27Z</time>
      </trkpt>
      <trkpt lat="43.0014" lon="2.57049">
        <ele>406</ele>
        <time>2022-05-02T18:51:32Z</time>
      </trkpt>
      <trkpt lat="43.00123" lon="2.57093">
        <ele>411</ele>
        <time>2022-05-02T18:51:39Z</time>
      </trkpt>
      <trkpt lat="43.0011" lon="2.57159">
        <ele>413</ele>
        <time>2022-05-02T18:51:48Z</time>
      </trkpt>
      <trkpt lat="43.00102" lon="2.57175">
        <ele>413</ele>
        <time>2022-05-02T18:51:50Z</time>
      </trkpt>
      <trkpt lat="43.00086" lon="2.57201">
        <ele>412</ele>
        <time>2022-05-02T18:51:55Z</time>
      </trkpt>
      <trkpt lat="43.00072" lon="2.57241">
        <ele>414</ele>
        <time>2022-05-02T18:52:00Z</time>
      </trkpt>
      <trkpt lat="43.00058" lon="2.57305">
        <ele>418</ele>
        <time>2022-05-02T18:52:09Z</time>
      </trkpt>
      <trkpt lat="43.00045" lon="2.5733">
        <ele>419</ele>
        <time>2022-05-02T18:52:13Z</time>
      </trkpt>
      <trkpt lat="43.00021" lon="2.5737">
        <ele>423</ele>
        <time>2022-05-02T18:52:20Z</time>
      </trkpt>
      <trkpt lat="43.00008" lon="2.57425">
        <ele>424</ele>
        <time>2022-05-02T18:52:27Z</time>
      </trkpt>
      <trkpt lat="42.99997" lon="2.57464">
        <ele>427</ele>
        <time>2022-05-02T18:52:33Z</time>
      </trkpt>
      <trkpt lat="42.99987" lon="2.57484">
        <ele>431</ele>
        <time>2022-05-02T18:52:36Z</time>
      </trkpt>
      <trkpt lat="42.9998" lon="2.57517">
        <ele>435</ele>
        <time>2022-05-02T18:52:40Z</time>
      </trkpt>
      <trkpt lat="42.99971" lon="2.57547">
        <ele>437</ele>
        <time>2022-05-02T18:52:45Z</time>
      </trkpt>
      <trkpt lat="42.99924" lon="2.57638">
        <ele>445</ele>
        <time>2022-05-02T18:52:59Z</time>
      </trkpt>
      <trkpt lat="42.9991" lon="2.57657">
        <ele>447</ele>
        <time>2022-05-02T18:53:03Z</time>
      </trkpt>
      <trkpt lat="42.99903" lon="2.57671">
        <ele>449</ele>
        <time>2022-05-02T18:53:05Z</time>
      </trkpt>
      <trkpt lat="42.99902" lon="2.57678">
        <ele>450</ele>
        <time>2022-05-02T18:53:06Z</time>
      </trkpt>
      <trkpt lat="42.99903" lon="2.57684">
        <ele>450</ele>
        <time>2022-05-02T18:53:07Z</time>
      </trkpt>
      <trkpt lat="42.99906" lon="2.5769">
        <ele>450</ele>
        <time>2022-05-02T18:53:08Z</time>
      </trkpt>
      <trkpt lat="42.99916" lon="2.5769">
        <ele>448</ele>
        <time>2022-05-02T18:53:09Z</time>
      </trkpt>
      <trkpt lat="42.99926" lon="2.57686">
        <ele>448</ele>
        <time>2022-05-02T18:53:11Z</time>
      </trkpt>
      <trkpt lat="42.99936" lon="2.5768">
        <ele>447</ele>
        <time>2022-05-02T18:53:13Z</time>
      </trkpt>
      <trkpt lat="42.99971" lon="2.57645">
        <ele>442</ele>
        <time>2022-05-02T18:53:21Z</time>
      </trkpt>
      <trkpt lat="42.99987" lon="2.57635">
        <ele>440</ele>
        <time>2022-05-02T18:53:24Z</time>
      </trkpt>
      <trkpt lat="42.99994" lon="2.57633">
        <ele>439</ele>
        <time>2022-05-02T18:53:25Z</time>
      </trkpt>
      <trkpt lat="43.00001" lon="2.57634">
        <ele>439</ele>
        <time>2022-05-02T18:53:27Z</time>
      </trkpt>
      <trkpt lat="43.0001" lon="2.57639">
        <ele>442</ele>
        <time>2022-05-02T18:53:28Z</time>
      </trkpt>
      <trkpt lat="43.00021" lon="2.57649">
        <ele>446</ele>
        <time>2022-05-02T18:53:31Z</time>
      </trkpt>
      <trkpt lat="43.00033" lon="2.57665">
        <ele>451</ele>
        <time>2022-05-02T18:53:34Z</time>
      </trkpt>
      <trkpt lat="43.0004" lon="2.57667">
        <ele>453</ele>
        <time>2022-05-02T18:53:35Z</time>
      </trkpt>
      <trkpt lat="43.00047" lon="2.57665">
        <ele>455</ele>
        <time>2022-05-02T18:53:36Z</time>
      </trkpt>
      <trkpt lat="43.00052" lon="2.57661">
        <ele>455</ele>
        <time>2022-05-02T18:53:37Z</time>
      </trkpt>
      <trkpt lat="43.00056" lon="2.57653">
        <ele>456</ele>
        <time>2022-05-02T18:53:38Z</time>
      </trkpt>
      <trkpt lat="43.0006" lon="2.5763">
        <ele>455</ele>
        <time>2022-05-02T18:53:42Z</time>
      </trkpt>
      <trkpt lat="43.00059" lon="2.57613">
        <ele>453</ele>
        <time>2022-05-02T18:53:44Z</time>
      </trkpt>
      <trkpt lat="43.00052" lon="2.57572">
        <ele>448</ele>
        <time>2022-05-02T18:53:49Z</time>
      </trkpt>
      <trkpt lat="43.00052" lon="2.57558">
        <ele>447</ele>
        <time>2022-05-02T18:53:51Z</time>
      </trkpt>
      <trkpt lat="43.00059" lon="2.57535">
        <ele>447</ele>
        <time>2022-05-02T18:53:54Z</time>
      </trkpt>
      <trkpt lat="43.00072" lon="2.57507">
        <ele>449</ele>
        <time>2022-05-02T18:53:59Z</time>
      </trkpt>
      <trkpt lat="43.0011" lon="2.57441">
        <ele>449</ele>
        <time>2022-05-02T18:54:10Z</time>
      </trkpt>
      <trkpt lat="43.00166" lon="2.57371">
        <ele>456</ele>
        <time>2022-05-02T18:54:23Z</time>
      </trkpt>
      <trkpt lat="43.00172" lon="2.57366">
        <ele>455</ele>
        <time>2022-05-02T18:54:24Z</time>
      </trkpt>
      <trkpt lat="43.00186" lon="2.57366">
        <ele>456</ele>
        <time>2022-05-02T18:54:27Z</time>
      </trkpt>
      <trkpt lat="43.00224" lon="2.57393">
        <ele>465</ele>
        <time>2022-05-02T18:54:34Z</time>
      </trkpt>
      <trkpt lat="43.00239" lon="2.57401">
        <ele>468</ele>
        <time>2022-05-02T18:54:37Z</time>
      </trkpt>
      <trkpt lat="43.00285" lon="2.57421">
        <ele>471</ele>
        <time>2022-05-02T18:54:46Z</time>
      </trkpt>
      <trkpt lat="43.00292" lon="2.57428">
        <ele>471</ele>
        <time>2022-05-02T18:54:47Z</time>
      </trkpt>
      <trkpt lat="43.00296" lon="2.57437">
        <ele>471</ele>
        <time>2022-05-02T18:54:49Z</time>
      </trkpt>
      <trkpt lat="43.00295" lon="2.57448">
        <ele>470</ele>
        <time>2022-05-02T18:54:50Z</time>
      </trkpt>
      <trkpt lat="43.00291" lon="2.57459">
        <ele>471</ele>
        <time>2022-05-02T18:54:52Z</time>
      </trkpt>
      <trkpt lat="43.00267" lon="2.57497">
        <ele>475</ele>
        <time>2022-05-02T18:54:58Z</time>
      </trkpt>
      <trkpt lat="43.00255" lon="2.57507">
        <ele>475</ele>
        <time>2022-05-02T18:55:01Z</time>
      </trkpt>
      <trkpt lat="43.00243" lon="2.5751">
        <ele>476</ele>
        <time>2022-05-02T18:55:03Z</time>
      </trkpt>
      <trkpt lat="43.00217" lon="2.57511">
        <ele>477</ele>
        <time>2022-05-02T18:55:08Z</time>
      </trkpt>
      <trkpt lat="43.00203" lon="2.57513">
        <ele>477</ele>
        <time>2022-05-02T18:55:10Z</time>
      </trkpt>
      <trkpt lat="43.00194" lon="2.57519">
        <ele>477</ele>
        <time>2022-05-02T18:55:12Z</time>
      </trkpt>
      <trkpt lat="43.00183" lon="2.57533">
        <ele>477</ele>
        <time>2022-05-02T18:55:15Z</time>
      </trkpt>
      <trkpt lat="43.00174" lon="2.57546">
        <ele>477</ele>
        <time>2022-05-02T18:55:17Z</time>
      </trkpt>
      <trkpt lat="43.00169" lon="2.57562">
        <ele>478</ele>
        <time>2022-05-02T18:55:19Z</time>
      </trkpt>
      <trkpt lat="43.00157" lon="2.57617">
        <ele>475</ele>
        <time>2022-05-02T18:55:27Z</time>
      </trkpt>
      <trkpt lat="43.00135" lon="2.57683">
        <ele>470</ele>
        <time>2022-05-02T18:55:36Z</time>
      </trkpt>
      <trkpt lat="43.00122" lon="2.57729">
        <ele>470</ele>
        <time>2022-05-02T18:55:42Z</time>
      </trkpt>
      <trkpt lat="43.00111" lon="2.57762">
        <ele>473</ele>
        <time>2022-05-02T18:55:47Z</time>
      </trkpt>
      <trkpt lat="43.00096" lon="2.57794">
        <ele>481</ele>
        <time>2022-05-02T18:55:52Z</time>
      </trkpt>
      <trkpt lat="43.00045" lon="2.57867">
        <ele>498</ele>
        <time>2022-05-02T18:56:05Z</time>
      </trkpt>
      <trkpt lat="43.00039" lon="2.57872">
        <ele>499</ele>
        <time>2022-05-02T18:56:07Z</time>
      </trkpt>
      <trkpt lat="43.00027" lon="2.57873">
        <ele>498</ele>
        <time>2022-05-02T18:56:09Z</time>
      </trkpt>
      <trkpt lat="43.00021" lon="2.57868">
        <ele>497</ele>
        <time>2022-05-02T18:56:10Z</time>
      </trkpt>
      <trkpt lat="42.99999" lon="2.57823">
        <ele>486</ele>
        <time>2022-05-02T18:56:17Z</time>
      </trkpt>
      <trkpt lat="42.99991" lon="2.57817">
        <ele>484</ele>
        <time>2022-05-02T18:56:19Z</time>
      </trkpt>
      <trkpt lat="42.99982" lon="2.57815">
        <ele>483</ele>
        <time>2022-05-02T18:56:20Z</time>
      </trkpt>
      <trkpt lat="42.99974" lon="2.57815">
        <ele>482</ele>
        <time>2022-05-02T18:56:22Z</time>
      </trkpt>
      <trkpt lat="42.99963" lon="2.5782">
        <ele>483</ele>
        <time>2022-05-02T18:56:24Z</time>
      </trkpt>
      <trkpt lat="42.9995" lon="2.5783">
        <ele>485</ele>
        <time>2022-05-02T18:56:26Z</time>
      </trkpt>
      <trkpt lat="42.99938" lon="2.57845">
        <ele>488</ele>
        <time>2022-05-02T18:56:29Z</time>
      </trkpt>
      <trkpt lat="42.99914" lon="2.57887">
        <ele>495</ele>
        <time>2022-05-02T18:56:36Z</time>
      </trkpt>
      <trkpt lat="42.99906" lon="2.57897">
        <ele>495</ele>
        <time>2022-05-02T18:56:38Z</time>
      </trkpt>
      <trkpt lat="42.99881" lon="2.57919">
        <ele>493</ele>
        <time>2022-05-02T18:56:43Z</time>
      </trkpt>
      <trkpt lat="42.99875" lon="2.57927">
        <ele>493</ele>
        <time>2022-05-02T18:56:45Z</time>
      </trkpt>
      <trkpt lat="42.99869" lon="2.57937">
        <ele>494</ele>
        <time>2022-05-02T18:56:47Z</time>
      </trkpt>
      <trkpt lat="42.99856" lon="2.57978">
        <ele>500</ele>
        <time>2022-05-02T18:56:52Z</time>
      </trkpt>
      <trkpt lat="42.99851" lon="2.57986">
        <ele>501</ele>
        <time>2022-05-02T18:56:54Z</time>
      </trkpt>
      <trkpt lat="42.99844" lon="2.57993">
        <ele>501</ele>
        <time>2022-05-02T18:56:55Z</time>
      </trkpt>
      <trkpt lat="42.99822" lon="2.58006">
        <ele>499</ele>
        <time>2022-05-02T18:57:00Z</time>
      </trkpt>
      <trkpt lat="42.99811" lon="2.58016">
        <ele>498</ele>
        <time>2022-05-02T18:57:02Z</time>
      </trkpt>
      <trkpt lat="42.99789" lon="2.58043">
        <ele>499</ele>
        <time>2022-05-02T18:57:07Z</time>
      </trkpt>
      <trkpt lat="42.99781" lon="2.58059">
        <ele>500</ele>
        <time>2022-05-02T18:57:10Z</time>
      </trkpt>
      <trkpt lat="42.99778" lon="2.5807">
        <ele>501</ele>
        <time>2022-05-02T18:57:11Z</time>
      </trkpt>
      <trkpt lat="42.99776" lon="2.58126">
        <ele>512</ele>
        <time>2022-05-02T18:57:19Z</time>
      </trkpt>
      <trkpt lat="42.99769" lon="2.58139">
        <ele>513</ele>
        <time>2022-05-02T18:57:21Z</time>
      </trkpt>
      <trkpt lat="42.99763" lon="2.58142">
        <ele>513</ele>
        <time>2022-05-02T18:57:22Z</time>
      </trkpt>
      <trkpt lat="42.99753" lon="2.58143">
        <ele>512</ele>
        <time>2022-05-02T18:57:24Z</time>
      </trkpt>
      <trkpt lat="42.99734" lon="2.58136">
        <ele>510</ele>
        <time>2022-05-02T18:57:27Z</time>
      </trkpt>
      <trkpt lat="42.99714" lon="2.58123">
        <ele>506</ele>
        <time>2022-05-02T18:57:31Z</time>
      </trkpt>
      <trkpt lat="42.99693" lon="2.58114">
        <ele>504</ele>
        <time>2022-05-02T18:57:35Z</time>
      </trkpt>
      <trkpt lat="42.99684" lon="2.58113">
        <ele>504</ele>
        <time>2022-05-02T18:57:37Z</time>
      </trkpt>
      <trkpt lat="42.99673" lon="2.58116">
        <ele>504</ele>
        <time>2022-05-02T18:57:39Z</time>
      </trkpt>
      <trkpt lat="42.99663" lon="2.58122">
        <ele>506</ele>
        <time>2022-05-02T18:57:40Z</time>
      </trkpt>
      <trkpt lat="42.9965" lon="2.58135">
        <ele>508</ele>
        <time>2022-05-02T18:57:43Z</time>
      </trkpt>
      <trkpt lat="42.99626" lon="2.58163">
        <ele>513</ele>
        <time>2022-05-02T18:57:49Z</time>
      </trkpt>
      <trkpt lat="42.99609" lon="2.58178">
        <ele>513</ele>
        <time>2022-05-02T18:57:53Z</time>
      </trkpt>
      <trkpt lat="42.9959" lon="2.58189">
        <ele>512</ele>
        <time>2022-05-02T18:57:56Z</time>
      </trkpt>
      <trkpt lat="42.99572" lon="2.58197">
        <ele>512</ele>
        <time>2022-05-02T18:58:00Z</time>
      </trkpt>
      <trkpt lat="42.99554" lon="2.58199">
        <ele>513</ele>
        <time>2022-05-02T18:58:03Z</time>
      </trkpt>
      <trkpt lat="42.99539" lon="2.58196">
        <ele>513</ele>
        <time>2022-05-02T18:58:05Z</time>
      </trkpt>
      <trkpt lat="42.99524" lon="2.58188">
        <ele>514</ele>
        <time>2022-05-02T18:58:08Z</time>
      </trkpt>
      <trkpt lat="42.99511" lon="2.58174">
        <ele>515</ele>
        <time>2022-05-02T18:58:11Z</time>
      </trkpt>
      <trkpt lat="42.99487" lon="2.58136">
        <ele>516</ele>
        <time>2022-05-02T18:58:18Z</time>
      </trkpt>
      <trkpt lat="42.9945" lon="2.58079">
        <ele>514</ele>
        <time>2022-05-02T18:58:28Z</time>
      </trkpt>
      <trkpt lat="42.99439" lon="2.58063">
        <ele>515</ele>
        <time>2022-05-02T18:58:31Z</time>
      </trkpt>
      <trkpt lat="42.99425" lon="2.58046">
        <ele>516</ele>
        <time>2022-05-02T18:58:34Z</time>
      </trkpt>
      <trkpt lat="42.99389" lon="2.58011">
        <ele>515</ele>
        <time>2022-05-02T18:58:42Z</time>
      </trkpt>
      <trkpt lat="42.99325" lon="2.57975">
        <ele>511</ele>
        <time>2022-05-02T18:58:54Z</time>
      </trkpt>
      <trkpt lat="42.99298" lon="2.57956">
        <ele>510</ele>
        <time>2022-05-02T18:59:00Z</time>
      </trkpt>
      <trkpt lat="42.99272" lon="2.57946">
        <ele>507</ele>
        <time>2022-05-02T18:59:04Z</time>
      </trkpt>
      <trkpt lat="42.99258" lon="2.57939">
        <ele>505</ele>
        <time>2022-05-02T18:59:07Z</time>
      </trkpt>
      <trkpt lat="42.99248" lon="2.5793">
        <ele>505</ele>
        <time>2022-05-02T18:59:09Z</time>
      </trkpt>
      <trkpt lat="42.99224" lon="2.57893">
        <ele>504</ele>
        <time>2022-05-02T18:59:16Z</time>
      </trkpt>
      <trkpt lat="42.99217" lon="2.57872">
        <ele>506</ele>
        <time>2022-05-02T18:59:19Z</time>
      </trkpt>
      <trkpt lat="42.99211" lon="2.57848">
        <ele>508</ele>
        <time>2022-05-02T18:59:22Z</time>
      </trkpt>
      <trkpt lat="42.99206" lon="2.57839">
        <ele>509</ele>
        <time>2022-05-02T18:59:23Z</time>
      </trkpt>
      <trkpt lat="42.99201" lon="2.57836">
        <ele>508</ele>
        <time>2022-05-02T18:59:24Z</time>
      </trkpt>
      <trkpt lat="42.99194" lon="2.57837">
        <ele>507</ele>
        <time>2022-05-02T18:59:26Z</time>
      </trkpt>
      <trkpt lat="42.99177" lon="2.57852">
        <ele>501</ele>
        <time>2022-05-02T18:59:29Z</time>
      </trkpt>
      <trkpt lat="42.99164" lon="2.5786">
        <ele>497</ele>
        <time>2022-05-02T18:59:32Z</time>
      </trkpt>
      <trkpt lat="42.99155" lon="2.57861">
        <ele>495</ele>
        <time>2022-05-02T18:59:33Z</time>
      </trkpt>
      <trkpt lat="42.99148" lon="2.5786">
        <ele>494</ele>
        <time>2022-05-02T18:59:35Z</time>
      </trkpt>
      <trkpt lat="42.99137" lon="2.57856">
        <ele>492</ele>
        <time>2022-05-02T18:59:37Z</time>
      </trkpt>
      <trkpt lat="42.99125" lon="2.57847">
        <ele>491</ele>
        <time>2022-05-02T18:59:39Z</time>
      </trkpt>
      <trkpt lat="42.9909" lon="2.57811">
        <ele>490</ele>
        <time>2022-05-02T18:59:47Z</time>
      </trkpt>
      <trkpt lat="42.99081" lon="2.57796">
        <ele>491</ele>
        <time>2022-05-02T18:59:49Z</time>
      </trkpt>
      <trkpt lat="42.99075" lon="2.57782">
        <ele>491</ele>
        <time>2022-05-02T18:59:51Z</time>
      </trkpt>
      <trkpt lat="42.99043" lon="2.57689">
        <ele>494</ele>
        <time>2022-05-02T19:00:05Z</time>
      </trkpt>
      <trkpt lat="42.99036" lon="2.57677">
        <ele>494</ele>
        <time>2022-05-02T19:00:07Z</time>
      </trkpt>
      <trkpt lat="42.99028" lon="2.57668">
        <ele>493</ele>
        <time>2022-05-02T19:00:09Z</time>
      </trkpt>
      <trkpt lat="42.99017" lon="2.57661">
        <ele>492</ele>
        <time>2022-05-02T19:00:11Z</time>
      </trkpt>
      <trkpt lat="42.98999" lon="2.57656">
        <ele>488</ele>
        <time>2022-05-02T19:00:14Z</time>
      </trkpt>
      <trkpt lat="42.98962" lon="2.5765">
        <ele>481</ele>
        <time>2022-05-02T19:00:21Z</time>
      </trkpt>
      <trkpt lat="42.98944" lon="2.57642">
        <ele>479</ele>
        <time>2022-05-02T19:00:24Z</time>
      </trkpt>
      <trkpt lat="42.9893" lon="2.57631">
        <ele>479</ele>
        <time>2022-05-02T19:00:27Z</time>
      </trkpt>
      <trkpt lat="42.9891" lon="2.57611">
        <ele>481</ele>
        <time>2022-05-02T19:00:31Z</time>
      </trkpt>
      <trkpt lat="42.98899" lon="2.57602">
        <ele>481</ele>
        <time>2022-05-02T19:00:34Z</time>
      </trkpt>
      <trkpt lat="42.98821" lon="2.57582">
        <ele>470</ele>
        <time>2022-05-02T19:00:48Z</time>
      </trkpt>
      <trkpt lat="42.98801" lon="2.57574">
        <ele>469</ele>
        <time>2022-05-02T19:00:51Z</time>
      </trkpt>
      <trkpt lat="42.98778" lon="2.57562">
        <ele>467</ele>
        <time>2022-05-02T19:00:56Z</time>
      </trkpt>
      <trkpt lat="42.98753" lon="2.57535">
        <ele>466</ele>
        <time>2022-05-02T19:01:02Z</time>
      </trkpt>
      <trkpt lat="42.98714" lon="2.57478">
        <ele>466</ele>
        <time>2022-05-02T19:01:12Z</time>
      </trkpt>
      <trkpt lat="42.98679" lon="2.57439">
        <ele>463</ele>
        <time>2022-05-02T19:01:20Z</time>
      </trkpt>
      <trkpt lat="42.98659" lon="2.57424">
        <ele>461</ele>
        <time>2022-05-02T19:01:24Z</time>
      </trkpt>
      <trkpt lat="42.98645" lon="2.57419">
        <ele>460</ele>
        <time>2022-05-02T19:01:26Z</time>
      </trkpt>
      <trkpt lat="42.98633" lon="2.5742">
        <ele>460</ele>
        <time>2022-05-02T19:01:28Z</time>
      </trkpt>
      <trkpt lat="42.98622" lon="2.57428">
        <ele>458</ele>
        <time>2022-05-02T19:01:31Z</time>
      </trkpt>
      <trkpt lat="42.98613" lon="2.57444">
        <ele>456</ele>
        <time>2022-05-02T19:01:33Z</time>
      </trkpt>
      <trkpt lat="42.98608" lon="2.57459">
        <ele>455</ele>
        <time>2022-05-02T19:01:35Z</time>
      </trkpt>
      <trkpt lat="42.98602" lon="2.57474">
        <ele>454</ele>
        <time>2022-05-02T19:01:38Z</time>
      </trkpt>
      <trkpt lat="42.98579" lon="2.57503">
        <ele>451</ele>
        <time>2022-05-02T19:01:43Z</time>
      </trkpt>
      <trkpt lat="42.98562" lon="2.5752">
        <ele>448</ele>
        <time>2022-05-02T19:01:47Z</time>
      </trkpt>
      <trkpt lat="42.98555" lon="2.57522">
        <ele>447</ele>
        <time>2022-05-02T19:01:48Z</time>
      </trkpt>
      <trkpt lat="42.98542" lon="2.57521">
        <ele>447</ele>
        <time>2022-05-02T19:01:51Z</time>
      </trkpt>
      <trkpt lat="42.98513" lon="2.57512">
        <ele>447</ele>
        <time>2022-05-02T19:01:56Z</time>
      </trkpt>
      <trkpt lat="42.98504" lon="2.57507">
        <ele>447</ele>
        <time>2022-05-02T19:01:58Z</time>
      </trkpt>
      <trkpt lat="42.98492" lon="2.57494">
        <ele>447</ele>
        <time>2022-05-02T19:02:00Z</time>
      </trkpt>
      <trkpt lat="42.98459" lon="2.5744">
        <ele>447</ele>
        <time>2022-05-02T19:02:09Z</time>
      </trkpt>
      <trkpt lat="42.98447" lon="2.57426">
        <ele>448</ele>
        <time>2022-05-02T19:02:12Z</time>
      </trkpt>
      <trkpt lat="42.98429" lon="2.57411">
        <ele>447</ele>
        <time>2022-05-02T19:02:16Z</time>
      </trkpt>
      <trkpt lat="42.98397" lon="2.57395">
        <ele>446</ele>
        <time>2022-05-02T19:02:22Z</time>
      </trkpt>
      <trkpt lat="42.98379" lon="2.57393">
        <ele>446</ele>
        <time>2022-05-02T19:02:25Z</time>
      </trkpt>
      <trkpt lat="42.98361" lon="2.57395">
        <ele>446</ele>
        <time>2022-05-02T19:02:29Z</time>
      </trkpt>
      <trkpt lat="42.98349" lon="2.574">
        <ele>445</ele>
        <time>2022-05-02T19:02:31Z</time>
      </trkpt>
      <trkpt lat="42.98336" lon="2.57411">
        <ele>444</ele>
        <time>2022-05-02T19:02:33Z</time>
      </trkpt>
      <trkpt lat="42.9831" lon="2.57446">
        <ele>440</ele>
        <time>2022-05-02T19:02:40Z</time>
      </trkpt>
      <trkpt lat="42.98303" lon="2.57453">
        <ele>440</ele>
        <time>2022-05-02T19:02:42Z</time>
      </trkpt>
      <trkpt lat="42.983" lon="2.57455">
        <ele>440</ele>
        <time>2022-05-02T19:02:42Z</time>
      </trkpt>
      <trkpt lat="42.98276" lon="2.57469">
        <ele>441</ele>
        <time>2022-05-02T19:02:47Z</time>
      </trkpt>
      <trkpt lat="42.98268" lon="2.57479">
        <ele>441</ele>
        <time>2022-05-02T19:02:49Z</time>
      </trkpt>
      <trkpt lat="42.98243" lon="2.57526">
        <ele>439</ele>
        <time>2022-05-02T19:02:56Z</time>
      </trkpt>
      <trkpt lat="42.98204" lon="2.57593">
        <ele>432</ele>
        <time>2022-05-02T19:03:07Z</time>
      </trkpt>
      <trkpt lat="42.98192" lon="2.57601">
        <ele>431</ele>
        <time>2022-05-02T19:03:10Z</time>
      </trkpt>
      <trkpt lat="42.98151" lon="2.57607">
        <ele>430</ele>
        <time>2022-05-02T19:03:17Z</time>
      </trkpt>
      <trkpt lat="42.98134" lon="2.57613">
        <ele>428</ele>
        <time>2022-05-02T19:03:20Z</time>
      </trkpt>
      <trkpt lat="42.9813" lon="2.57615">
        <ele>427</ele>
        <time>2022-05-02T19:03:21Z</time>
      </trkpt>
      <trkpt lat="42.98124" lon="2.57618">
        <ele>426</ele>
        <time>2022-05-02T19:03:22Z</time>
      </trkpt>
      <trkpt lat="42.98108" lon="2.57629">
        <ele>425</ele>
        <time>2022-05-02T19:03:25Z</time>
      </trkpt>
      <trkpt lat="42.98084" lon="2.57652">
        <ele>424</ele>
        <time>2022-05-02T19:03:31Z</time>
      </trkpt>
      <trkpt lat="42.98078" lon="2.57657">
        <ele>425</ele>
        <time>2022-05-02T19:03:32Z</time>
      </trkpt>
      <trkpt lat="42.98059" lon="2.57668">
        <ele>425</ele>
        <time>2022-05-02T19:03:35Z</time>
      </trkpt>
      <trkpt lat="42.97977" lon="2.57704">
        <ele>438</ele>
        <time>2022-05-02T19:03:51Z</time>
      </trkpt>
      <trkpt lat="42.97963" lon="2.57706">
        <ele>440</ele>
        <time>2022-05-02T19:03:53Z</time>
      </trkpt>
      <trkpt lat="42.97941" lon="2.57704">
        <ele>443</ele>
        <time>2022-05-02T19:03:57Z</time>
      </trkpt>
      <trkpt lat="42.9793" lon="2.577">
        <ele>444</ele>
        <time>2022-05-02T19:03:59Z</time>
      </trkpt>
      <trkpt lat="42.97872" lon="2.57666">
        <ele>442</ele>
        <time>2022-05-02T19:04:10Z</time>
      </trkpt>
      <trkpt lat="42.97853" lon="2.57658">
        <ele>443</ele>
        <time>2022-05-02T19:04:14Z</time>
      </trkpt>
      <trkpt lat="42.9782" lon="2.57649">
        <ele>446</ele>
        <time>2022-05-02T19:04:20Z</time>
      </trkpt>
      <trkpt lat="42.97806" lon="2.57651">
        <ele>449</ele>
        <time>2022-05-02T19:04:22Z</time>
      </trkpt>
      <trkpt lat="42.97755" lon="2.57674">
        <ele>460</ele>
        <time>2022-05-02T19:04:32Z</time>
      </trkpt>
      <trkpt lat="42.97748" lon="2.57673">
        <ele>461</ele>
        <time>2022-05-02T19:04:33Z</time>
      </trkpt>
      <trkpt lat="42.97742" lon="2.57668">
        <ele>462</ele>
        <time>2022-05-02T19:04:35Z</time>
      </trkpt>
      <trkpt lat="42.97739" lon="2.57661">
        <ele>462</ele>
        <time>2022-05-02T19:04:36Z</time>
      </trkpt>
      <trkpt lat="42.97738" lon="2.57651">
        <ele>462</ele>
        <time>2022-05-02T19:04:37Z</time>
      </trkpt>
      <trkpt lat="42.97742" lon="2.57639">
        <ele>461</ele>
        <time>2022-05-02T19:04:39Z</time>
      </trkpt>
      <trkpt lat="42.97768" lon="2.57582">
        <ele>452</ele>
        <time>2022-05-02T19:04:47Z</time>
      </trkpt>
      <trkpt lat="42.97772" lon="2.57567">
        <ele>449</ele>
        <time>2022-05-02T19:04:49Z</time>
      </trkpt>
      <trkpt lat="42.97772" lon="2.57558">
        <ele>449</ele>
        <time>2022-05-02T19:04:51Z</time>
      </trkpt>
      <trkpt lat="42.97766" lon="2.57533">
        <ele>449</ele>
        <time>2022-05-02T19:04:54Z</time>
      </trkpt>
      <trkpt lat="42.97746" lon="2.57484">
        <ele>451</ele>
        <time>2022-05-02T19:05:01Z</time>
      </trkpt>
      <trkpt lat="42.97735" lon="2.57467">
        <ele>448</ele>
        <time>2022-05-02T19:05:04Z</time>
      </trkpt>
      <trkpt lat="42.97718" lon="2.57453">
        <ele>446</ele>
        <time>2022-05-02T19:05:08Z</time>
      </trkpt>
      <trkpt lat="42.97706" lon="2.57453">
        <ele>447</ele>
        <time>2022-05-02T19:05:10Z</time>
      </trkpt>
      <trkpt lat="42.97695" lon="2.57458">
        <ele>448</ele>
        <time>2022-05-02T19:05:12Z</time>
      </trkpt>
      <trkpt lat="42.97668" lon="2.57484">
        <ele>457</ele>
        <time>2022-05-02T19:05:18Z</time>
      </trkpt>
      <trkpt lat="42.97662" lon="2.57488">
        <ele>458</ele>
        <time>2022-05-02T19:05:19Z</time>
      </trkpt>
      <trkpt lat="42.97654" lon="2.57491">
        <ele>458</ele>
        <time>2022-05-02T19:05:21Z</time>
      </trkpt>
      <trkpt lat="42.97622" lon="2.57486">
        <ele>452</ele>
        <time>2022-05-02T19:05:26Z</time>
      </trkpt>
      <trkpt lat="42.9761" lon="2.57489">
        <ele>451</ele>
        <time>2022-05-02T19:05:28Z</time>
      </trkpt>
      <trkpt lat="42.97602" lon="2.57497">
        <ele>452</ele>
        <time>2022-05-02T19:05:30Z</time>
      </trkpt>
      <trkpt lat="42.97597" lon="2.57514">
        <ele>456</ele>
        <time>2022-05-02T19:05:33Z</time>
      </trkpt>
      <trkpt lat="42.97592" lon="2.57522">
        <ele>458</ele>
        <time>2022-05-02T19:05:34Z</time>
      </trkpt>
      <trkpt lat="42.97575" lon="2.57537">
        <ele>460</ele>
        <time>2022-05-02T19:05:38Z</time>
      </trkpt>
      <trkpt lat="42.97561" lon="2.57559">
        <ele>464</ele>
        <time>2022-05-02T19:05:41Z</time>
      </trkpt>
      <trkpt lat="42.97542" lon="2.5757">
        <ele>463</ele>
        <time>2022-05-02T19:05:45Z</time>
      </trkpt>
      <trkpt lat="42.97528" lon="2.5758">
        <ele>463</ele>
        <time>2022-05-02T19:05:48Z</time>
      </trkpt>
      <trkpt lat="42.97493" lon="2.57612">
        <ele>468</ele>
        <time>2022-05-02T19:05:55Z</time>
      </trkpt>
      <trkpt lat="42.97486" lon="2.57614">
        <ele>468</ele>
        <time>2022-05-02T19:05:57Z</time>
      </trkpt>
      <trkpt lat="42.97456" lon="2.57615">
        <ele>464</ele>
        <time>2022-05-02T19:06:02Z</time>
      </trkpt>
      <trkpt lat="42.97441" lon="2.5762">
        <ele>464</ele>
        <time>2022-05-02T19:06:05Z</time>
      </trkpt>
      <trkpt lat="42.97418" lon="2.57646">
        <ele>470</ele>
        <time>2022-05-02T19:06:10Z</time>
      </trkpt>
      <trkpt lat="42.97392" lon="2.5767">
        <ele>469</ele>
        <time>2022-05-02T19:06:16Z</time>
      </trkpt>
      <trkpt lat="42.9739" lon="2.57676">
        <ele>469</ele>
        <time>2022-05-02T19:06:16Z</time>
      </trkpt>
      <trkpt lat="42.97385" lon="2.57718">
        <ele>476</ele>
        <time>2022-05-02T19:06:22Z</time>
      </trkpt>
      <trkpt lat="42.97346" lon="2.57873">
        <ele>481</ele>
        <time>2022-05-02T19:06:43Z</time>
      </trkpt>
      <trkpt lat="42.97338" lon="2.57914">
        <ele>481</ele>
        <time>2022-05-02T19:06:49Z</time>
      </trkpt>
      <trkpt lat="42.97338" lon="2.57925">
        <ele>481</ele>
        <time>2022-05-02T19:06:50Z</time>
      </trkpt>
      <trkpt lat="42.97342" lon="2.57947">
        <ele>482</ele>
        <time>2022-05-02T19:06:53Z</time>
      </trkpt>
      <trkpt lat="42.97376" lon="2.58006">
        <ele>489</ele>
        <time>2022-05-02T19:07:03Z</time>
      </trkpt>
      <trkpt lat="42.97379" lon="2.58015">
        <ele>490</ele>
        <time>2022-05-02T19:07:04Z</time>
      </trkpt>
      <trkpt lat="42.9738" lon="2.58027">
        <ele>490</ele>
        <time>2022-05-02T19:07:06Z</time>
      </trkpt>
      <trkpt lat="42.97377" lon="2.58047">
        <ele>489</ele>
        <time>2022-05-02T19:07:09Z</time>
      </trkpt>
      <trkpt lat="42.97362" lon="2.58076">
        <ele>488</ele>
        <time>2022-05-02T19:07:13Z</time>
      </trkpt>
      <trkpt lat="42.97351" lon="2.58066">
        <ele>486</ele>
        <time>2022-05-02T19:07:16Z</time>
      </trkpt>
      <trkpt lat="42.97338" lon="2.58059">
        <ele>484</ele>
        <time>2022-05-02T19:07:18Z</time>
      </trkpt>
      <trkpt lat="42.9732" lon="2.58055">
        <ele>482</ele>
        <time>2022-05-02T19:07:21Z</time>
      </trkpt>
      <trkpt lat="42.97294" lon="2.58057">
        <ele>481</ele>
        <time>2022-05-02T19:07:26Z</time>
      </trkpt>
      <trkpt lat="42.97153" lon="2.58108">
        <ele>479</ele>
        <time>2022-05-02T19:07:52Z</time>
      </trkpt>
      <trkpt lat="42.97129" lon="2.58112">
        <ele>481</ele>
        <time>2022-05-02T19:07:56Z</time>
      </trkpt>
      <trkpt lat="42.97112" lon="2.58108">
        <ele>480</ele>
        <time>2022-05-02T19:07:59Z</time>
      </trkpt>
      <trkpt lat="42.97075" lon="2.58087">
        <ele>475</ele>
        <time>2022-05-02T19:08:06Z</time>
      </trkpt>
      <trkpt lat="42.97061" lon="2.58084">
        <ele>474</ele>
        <time>2022-05-02T19:08:09Z</time>
      </trkpt>
      <trkpt lat="42.97043" lon="2.58086">
        <ele>474</ele>
        <time>2022-05-02T19:08:12Z</time>
      </trkpt>
      <trkpt lat="42.97001" lon="2.5811">
        <ele>478</ele>
        <time>2022-05-02T19:08:20Z</time>
      </trkpt>
      <trkpt lat="42.96993" lon="2.58113">
        <ele>478</ele>
        <time>2022-05-02T19:08:22Z</time>
      </trkpt>
      <trkpt lat="42.96978" lon="2.58114">
        <ele>477</ele>
        <time>2022-05-02T19:08:24Z</time>
      </trkpt>
      <trkpt lat="42.96969" lon="2.58112">
        <ele>476</ele>
        <time>2022-05-02T19:08:26Z</time>
      </trkpt>
      <trkpt lat="42.96935" lon="2.58083">
        <ele>468</ele>
        <time>2022-05-02T19:08:33Z</time>
      </trkpt>
      <trkpt lat="42.9692" lon="2.58076">
        <ele>465</ele>
        <time>2022-05-02T19:08:36Z</time>
      </trkpt>
      <trkpt lat="42.96912" lon="2.58076">
        <ele>464</ele>
        <time>2022-05-02T19:08:37Z</time>
      </trkpt>
      <trkpt lat="42.96894" lon="2.58084">
        <ele>464</ele>
        <time>2022-05-02T19:08:41Z</time>
      </trkpt>
      <trkpt lat="42.96876" lon="2.58102">
        <ele>465</ele>
        <time>2022-05-02T19:08:45Z</time>
      </trkpt>
      <trkpt lat="42.9686" lon="2.58128">
        <ele>467</ele>
        <time>2022-05-02T19:08:49Z</time>
      </trkpt>
      <trkpt lat="42.96847" lon="2.58141">
        <ele>467</ele>
        <time>2022-05-02T19:08:52Z</time>
      </trkpt>
      <trkpt lat="42.96839" lon="2.58146">
        <ele>467</ele>
        <time>2022-05-02T19:08:54Z</time>
      </trkpt>
      <trkpt lat="42.96824" lon="2.58151">
        <ele>467</ele>
        <time>2022-05-02T19:08:56Z</time>
      </trkpt>
      <trkpt lat="42.96812" lon="2.5815">
        <ele>467</ele>
        <time>2022-05-02T19:08:58Z</time>
      </trkpt>
      <trkpt lat="42.96802" lon="2.58148">
        <ele>468</ele>
        <time>2022-05-02T19:09:00Z</time>
      </trkpt>
      <trkpt lat="42.96731" lon="2.58102">
        <ele>461</ele>
        <time>2022-05-02T19:09:14Z</time>
      </trkpt>
      <trkpt lat="42.96669" lon="2.58068">
        <ele>460</ele>
        <time>2022-05-02T19:09:26Z</time>
      </trkpt>
      <trkpt lat="42.9666" lon="2.58058">
        <ele>459</ele>
        <time>2022-05-02T19:09:28Z</time>
      </trkpt>
      <trkpt lat="42.96627" lon="2.57989">
        <ele>453</ele>
        <time>2022-05-02T19:09:39Z</time>
      </trkpt>
      <trkpt lat="42.96607" lon="2.57957">
        <ele>450</ele>
        <time>2022-05-02T19:09:44Z</time>
      </trkpt>
      <trkpt lat="42.96595" lon="2.57946">
        <ele>450</ele>
        <time>2022-05-02T19:09:47Z</time>
      </trkpt>
      <trkpt lat="42.96577" lon="2.57934">
        <ele>450</ele>
        <time>2022-05-02T19:09:50Z</time>
      </trkpt>
      <trkpt lat="42.96553" lon="2.57926">
        <ele>450</ele>
        <time>2022-05-02T19:09:55Z</time>
      </trkpt>
      <trkpt lat="42.96517" lon="2.57917">
        <ele>451</ele>
        <time>2022-05-02T19:10:01Z</time>
      </trkpt>
      <trkpt lat="42.96503" lon="2.57909">
        <ele>452</ele>
        <time>2022-05-02T19:10:04Z</time>
      </trkpt>
      <trkpt lat="42.96493" lon="2.57897">
        <ele>453</ele>
        <time>2022-05-02T19:10:06Z</time>
      </trkpt>
      <trkpt lat="42.96486" lon="2.57881">
        <ele>453</ele>
        <time>2022-05-02T19:10:09Z</time>
      </trkpt>
      <trkpt lat="42.96475" lon="2.57821">
        <ele>450</ele>
        <time>2022-05-02T19:10:17Z</time>
      </trkpt>
      <trkpt lat="42.96467" lon="2.57798">
        <ele>449</ele>
        <time>2022-05-02T19:10:20Z</time>
      </trkpt>
      <trkpt lat="42.96443" lon="2.57744">
        <ele>445</ele>
        <time>2022-05-02T19:10:28Z</time>
      </trkpt>
      <trkpt lat="42.96429" lon="2.57726">
        <ele>445</ele>
        <time>2022-05-02T19:10:32Z</time>
      </trkpt>
      <trkpt lat="42.96413" lon="2.57711">
        <ele>445</ele>
        <time>2022-05-02T19:10:35Z</time>
      </trkpt>
      <trkpt lat="42.96405" lon="2.57699">
        <ele>443</ele>
        <time>2022-05-02T19:10:37Z</time>
      </trkpt>
      <trkpt lat="42.96399" lon="2.57686">
        <ele>442</ele>
        <time>2022-05-02T19:10:39Z</time>
      </trkpt>
      <trkpt lat="42.96376" lon="2.57586">
        <ele>444</ele>
        <time>2022-05-02T19:10:53Z</time>
      </trkpt>
      <trkpt lat="42.96353" lon="2.5751">
        <ele>443</ele>
        <time>2022-05-02T19:11:04Z</time>
      </trkpt>
      <trkpt lat="42.96346" lon="2.5749">
        <ele>443</ele>
        <time>2022-05-02T19:11:07Z</time>
      </trkpt>
      <trkpt lat="42.96311" lon="2.5742">
        <ele>444</ele>
        <time>2022-05-02T19:11:18Z</time>
      </trkpt>
      <trkpt lat="42.96277" lon="2.57316">
        <ele>448</ele>
        <time>2022-05-02T19:11:33Z</time>
      </trkpt>
      <trkpt lat="42.96204" lon="2.57087">
        <ele>445</ele>
        <time>2022-05-02T19:12:05Z</time>
      </trkpt>
      <trkpt lat="42.96197" lon="2.57072">
        <ele>446</ele>
        <time>2022-05-02T19:12:07Z</time>
      </trkpt>
      <trkpt lat="42.9619" lon="2.57063">
        <ele>446</ele>
        <time>2022-05-02T19:12:09Z</time>
      </trkpt>
      <trkpt lat="42.96181" lon="2.57058">
        <ele>446</ele>
        <time>2022-05-02T19:12:11Z</time>
      </trkpt>
      <trkpt lat="42.96171" lon="2.57054">
        <ele>447</ele>
        <time>2022-05-02T19:12:13Z</time>
      </trkpt>
      <trkpt lat="42.96162" lon="2.57054">
        <ele>447</ele>
        <time>2022-05-02T19:12:14Z</time>
      </trkpt>
      <trkpt lat="42.96135" lon="2.57062">
        <ele>448</ele>
        <time>2022-05-02T19:12:19Z</time>
      </trkpt>
      <trkpt lat="42.96106" lon="2.57081">
        <ele>450</ele>
        <time>2022-05-02T19:12:25Z</time>
      </trkpt>
      <trkpt lat="42.96062" lon="2.57134">
        <ele>456</ele>
        <time>2022-05-02T19:12:35Z</time>
      </trkpt>
      <trkpt lat="42.96046" lon="2.57145">
        <ele>456</ele>
        <time>2022-05-02T19:12:39Z</time>
      </trkpt>
      <trkpt lat="42.9603" lon="2.57147">
        <ele>455</ele>
        <time>2022-05-02T19:12:41Z</time>
      </trkpt>
      <trkpt lat="42.96019" lon="2.57145">
        <ele>454</ele>
        <time>2022-05-02T19:12:43Z</time>
      </trkpt>
      <trkpt lat="42.95999" lon="2.57136">
        <ele>451</ele>
        <time>2022-05-02T19:12:47Z</time>
      </trkpt>
      <trkpt lat="42.95991" lon="2.5713">
        <ele>452</ele>
        <time>2022-05-02T19:12:49Z</time>
      </trkpt>
      <trkpt lat="42.95975" lon="2.57114">
        <ele>453</ele>
        <time>2022-05-02T19:12:52Z</time>
      </trkpt>
      <trkpt lat="42.95961" lon="2.57094">
        <ele>453</ele>
        <time>2022-05-02T19:12:56Z</time>
      </trkpt>
      <trkpt lat="42.95886" lon="2.56976">
        <ele>455</ele>
        <time>2022-05-02T19:13:16Z</time>
      </trkpt>
      <trkpt lat="42.95858" lon="2.56948">
        <ele>455</ele>
        <time>2022-05-02T19:13:22Z</time>
      </trkpt>
      <trkpt lat="42.95832" lon="2.56915">
        <ele>450</ele>
        <time>2022-05-02T19:13:29Z</time>
      </trkpt>
      <trkpt lat="42.95824" lon="2.56899">
        <ele>451</ele>
        <time>2022-05-02T19:13:31Z</time>
      </trkpt>
      <trkpt lat="42.95798" lon="2.56829">
        <ele>454</ele>
        <time>2022-05-02T19:13:42Z</time>
      </trkpt>
      <trkpt lat="42.95783" lon="2.56754">
        <ele>456</ele>
        <time>2022-05-02T19:13:52Z</time>
      </trkpt>
      <trkpt lat="42.95776" lon="2.56739">
        <ele>457</ele>
        <time>2022-05-02T19:13:54Z</time>
      </trkpt>
      <trkpt lat="42.95768" lon="2.56726">
        <ele>458</ele>
        <time>2022-05-02T19:13:56Z</time>
      </trkpt>
      <trkpt lat="42.95757" lon="2.56718">
        <ele>458</ele>
        <time>2022-05-02T19:13:58Z</time>
      </trkpt>
      <trkpt lat="42.95729" lon="2.56708">
        <ele>463</ele>
        <time>2022-05-02T19:14:04Z</time>
      </trkpt>
      <trkpt lat="42.95663" lon="2.56674">
        <ele>469</ele>
        <time>2022-05-02T19:14:16Z</time>
      </trkpt>
      <trkpt lat="42.95642" lon="2.56661">
        <ele>476</ele>
        <time>2022-05-02T19:14:20Z</time>
      </trkpt>
      <trkpt lat="42.95635" lon="2.5665">
        <ele>477</ele>
        <time>2022-05-02T19:14:22Z</time>
      </trkpt>
      <trkpt lat="42.9563" lon="2.56638">
        <ele>477</ele>
        <time>2022-05-02T19:14:24Z</time>
      </trkpt>
      <trkpt lat="42.95626" lon="2.56619">
        <ele>475</ele>
        <time>2022-05-02T19:14:26Z</time>
      </trkpt>
      <trkpt lat="42.95622" lon="2.56587">
        <ele>470</ele>
        <time>2022-05-02T19:14:31Z</time>
      </trkpt>
      <trkpt lat="42.95617" lon="2.56571">
        <ele>469</ele>
        <time>2022-05-02T19:14:33Z</time>
      </trkpt>
      <trkpt lat="42.95598" lon="2.56543">
        <ele>466</ele>
        <time>2022-05-02T19:14:38Z</time>
      </trkpt>
      <trkpt lat="42.95568" lon="2.56477">
        <ele>461</ele>
        <time>2022-05-02T19:14:48Z</time>
      </trkpt>
      <trkpt lat="42.95564" lon="2.56457">
        <ele>461</ele>
        <time>2022-05-02T19:14:51Z</time>
      </trkpt>
      <trkpt lat="42.95563" lon="2.56446">
        <ele>461</ele>
        <time>2022-05-02T19:14:52Z</time>
      </trkpt>
      <trkpt lat="42.95566" lon="2.5643">
        <ele>460</ele>
        <time>2022-05-02T19:14:54Z</time>
      </trkpt>
      <trkpt lat="42.95557" lon="2.56422">
        <ele>460</ele>
        <time>2022-05-02T19:14:56Z</time>
      </trkpt>
      <trkpt lat="42.95521" lon="2.56397">
        <ele>461</ele>
        <time>2022-05-02T19:15:03Z</time>
      </trkpt>
      <trkpt lat="42.95507" lon="2.56391">
        <ele>461</ele>
        <time>2022-05-02T19:15:06Z</time>
      </trkpt>
      <trkpt lat="42.95495" lon="2.5639">
        <ele>462</ele>
        <time>2022-05-02T19:15:08Z</time>
      </trkpt>
      <trkpt lat="42.95469" lon="2.56392">
        <ele>467</ele>
        <time>2022-05-02T19:15:13Z</time>
      </trkpt>
      <trkpt lat="42.95462" lon="2.56391">
        <ele>468</ele>
        <time>2022-05-02T19:15:14Z</time>
      </trkpt>
      <trkpt lat="42.9546" lon="2.5639">
        <ele>468</ele>
        <time>2022-05-02T19:15:14Z</time>
      </trkpt>
      <trkpt lat="42.95448" lon="2.56383">
        <ele>470</ele>
        <time>2022-05-02T19:15:17Z</time>
      </trkpt>
      <trkpt lat="42.9544" lon="2.56373">
        <ele>470</ele>
        <time>2022-05-02T19:15:19Z</time>
      </trkpt>
      <trkpt lat="42.9542" lon="2.5633">
        <ele>467</ele>
        <time>2022-05-02T19:15:25Z</time>
      </trkpt>
      <trkpt lat="42.95412" lon="2.56319">
        <ele>467</ele>
        <time>2022-05-02T19:15:27Z</time>
      </trkpt>
      <trkpt lat="42.95383" lon="2.56285">
        <ele>463</ele>
        <time>2022-05-02T19:15:34Z</time>
      </trkpt>
      <trkpt lat="42.9537" lon="2.56274">
        <ele>462</ele>
        <time>2022-05-02T19:15:37Z</time>
      </trkpt>
      <trkpt lat="42.95354" lon="2.56266">
        <ele>461</ele>
        <time>2022-05-02T19:15:40Z</time>
      </trkpt>
      <trkpt lat="42.95346" lon="2.56266">
        <ele>461</ele>
        <time>2022-05-02T19:15:41Z</time>
      </trkpt>
      <trkpt lat="42.95321" lon="2.56277">
        <ele>463</ele>
        <time>2022-05-02T19:15:46Z</time>
      </trkpt>
      <trkpt lat="42.95291" lon="2.56309">
        <ele>467</ele>
        <time>2022-05-02T19:15:53Z</time>
      </trkpt>
      <trkpt lat="42.95274" lon="2.56322">
        <ele>468</ele>
        <time>2022-05-02T19:15:56Z</time>
      </trkpt>
      <trkpt lat="42.9526" lon="2.56331">
        <ele>468</ele>
        <time>2022-05-02T19:15:59Z</time>
      </trkpt>
      <trkpt lat="42.95247" lon="2.5634">
        <ele>468</ele>
        <time>2022-05-02T19:16:02Z</time>
      </trkpt>
      <trkpt lat="42.95212" lon="2.56393">
        <ele>471</ele>
        <time>2022-05-02T19:16:11Z</time>
      </trkpt>
      <trkpt lat="42.9519" lon="2.56417">
        <ele>470</ele>
        <time>2022-05-02T19:16:16Z</time>
      </trkpt>
      <trkpt lat="42.95179" lon="2.56426">
        <ele>470</ele>
        <time>2022-05-02T19:16:18Z</time>
      </trkpt>
      <trkpt lat="42.9517" lon="2.56429">
        <ele>470</ele>
        <time>2022-05-02T19:16:20Z</time>
      </trkpt>
      <trkpt lat="42.95162" lon="2.56429">
        <ele>470</ele>
        <time>2022-05-02T19:16:21Z</time>
      </trkpt>
      <trkpt lat="42.95116" lon="2.56411">
        <ele>472</ele>
        <time>2022-05-02T19:16:30Z</time>
      </trkpt>
      <trkpt lat="42.95097" lon="2.5641">
        <ele>473</ele>
        <time>2022-05-02T19:16:33Z</time>
      </trkpt>
      <trkpt lat="42.9509" lon="2.56411">
        <ele>474</ele>
        <time>2022-05-02T19:16:34Z</time>
      </trkpt>
      <trkpt lat="42.95075" lon="2.5642">
        <ele>475</ele>
        <time>2022-05-02T19:16:37Z</time>
      </trkpt>
      <trkpt lat="42.95042" lon="2.56452">
        <ele>481</ele>
        <time>2022-05-02T19:16:44Z</time>
      </trkpt>
      <trkpt lat="42.95028" lon="2.56457">
        <ele>482</ele>
        <time>2022-05-02T19:16:47Z</time>
      </trkpt>
      <trkpt lat="42.95022" lon="2.56457">
        <ele>483</ele>
        <time>2022-05-02T19:16:48Z</time>
      </trkpt>
      <trkpt lat="42.95017" lon="2.56455">
        <ele>482</ele>
        <time>2022-05-02T19:16:49Z</time>
      </trkpt>
      <trkpt lat="42.95001" lon="2.56446">
        <ele>482</ele>
        <time>2022-05-02T19:16:52Z</time>
      </trkpt>
      <trkpt lat="42.94981" lon="2.5644">
        <ele>482</ele>
        <time>2022-05-02T19:16:56Z</time>
      </trkpt>
      <trkpt lat="42.9496" lon="2.56442">
        <ele>483</ele>
        <time>2022-05-02T19:17:00Z</time>
      </trkpt>
      <trkpt lat="42.94933" lon="2.56454">
        <ele>486</ele>
        <time>2022-05-02T19:17:05Z</time>
      </trkpt>
      <trkpt lat="42.94912" lon="2.56466">
        <ele>488</ele>
        <time>2022-05-02T19:17:09Z</time>
      </trkpt>
      <trkpt lat="42.94849" lon="2.56512">
        <ele>490</ele>
        <time>2022-05-02T19:17:21Z</time>
      </trkpt>
      <trkpt lat="42.94799" lon="2.56569">
        <ele>497</ele>
        <time>2022-05-02T19:17:33Z</time>
      </trkpt>
      <trkpt lat="42.94786" lon="2.5658">
        <ele>497</ele>
        <time>2022-05-02T19:17:36Z</time>
      </trkpt>
      <trkpt lat="42.94774" lon="2.56584">
        <ele>497</ele>
        <time>2022-05-02T19:17:38Z</time>
      </trkpt>
      <trkpt lat="42.94704" lon="2.56596">
        <ele>501</ele>
        <time>2022-05-02T19:17:50Z</time>
      </trkpt>
      <trkpt lat="42.94646" lon="2.56588">
        <ele>502</ele>
        <time>2022-05-02T19:18:01Z</time>
      </trkpt>
      <trkpt lat="42.9461" lon="2.56585">
        <ele>505</ele>
        <time>2022-05-02T19:18:07Z</time>
      </trkpt>
      <trkpt lat="42.9456" lon="2.56586">
        <ele>509</ele>
        <time>2022-05-02T19:18:16Z</time>
      </trkpt>
      <trkpt lat="42.94534" lon="2.56591">
        <ele>512</ele>
        <time>2022-05-02T19:18:21Z</time>
      </trkpt>
      <trkpt lat="42.94522" lon="2.56591">
        <ele>512</ele>
        <time>2022-05-02T19:18:23Z</time>
      </trkpt>
      <trkpt lat="42.94483" lon="2.56582">
        <ele>510</ele>
        <time>2022-05-02T19:18:30Z</time>
      </trkpt>
      <trkpt lat="42.94467" lon="2.56582">
        <ele>510</ele>
        <time>2022-05-02T19:18:33Z</time>
      </trkpt>
      <trkpt lat="42.9439" lon="2.56607">
        <ele>512</ele>
        <time>2022-05-02T19:18:47Z</time>
      </trkpt>
      <trkpt lat="42.94373" lon="2.5662">
        <ele>513</ele>
        <time>2022-05-02T19:18:50Z</time>
      </trkpt>
      <trkpt lat="42.94361" lon="2.56631">
        <ele>513</ele>
        <time>2022-05-02T19:18:53Z</time>
      </trkpt>
      <trkpt lat="42.94354" lon="2.5664">
        <ele>513</ele>
        <time>2022-05-02T19:18:55Z</time>
      </trkpt>
      <trkpt lat="42.9435" lon="2.5665">
        <ele>513</ele>
        <time>2022-05-02T19:18:56Z</time>
      </trkpt>
      <trkpt lat="42.94337" lon="2.56765">
        <ele>518</ele>
        <time>2022-05-02T19:19:11Z</time>
      </trkpt>
      <trkpt lat="42.94334" lon="2.56778">
        <ele>518</ele>
        <time>2022-05-02T19:19:13Z</time>
      </trkpt>
      <trkpt lat="42.94321" lon="2.56806">
        <ele>521</ele>
        <time>2022-05-02T19:19:17Z</time>
      </trkpt>
      <trkpt lat="42.94319" lon="2.56814">
        <ele>522</ele>
        <time>2022-05-02T19:19:18Z</time>
      </trkpt>
      <trkpt lat="42.94319" lon="2.56822">
        <ele>523</ele>
        <time>2022-05-02T19:19:19Z</time>
      </trkpt>
      <trkpt lat="42.94326" lon="2.56861">
        <ele>528</ele>
        <time>2022-05-02T19:19:25Z</time>
      </trkpt>
      <trkpt lat="42.94325" lon="2.56871">
        <ele>529</ele>
        <time>2022-05-02T19:19:26Z</time>
      </trkpt>
      <trkpt lat="42.94321" lon="2.56877">
        <ele>531</ele>
        <time>2022-05-02T19:19:27Z</time>
      </trkpt>
      <trkpt lat="42.94308" lon="2.56879">
        <ele>533</ele>
        <time>2022-05-02T19:19:29Z</time>
      </trkpt>
      <trkpt lat="42.94302" lon="2.56873">
        <ele>533</ele>
        <time>2022-05-02T19:19:31Z</time>
      </trkpt>
      <trkpt lat="42.9429" lon="2.56843">
        <ele>528</ele>
        <time>2022-05-02T19:19:35Z</time>
      </trkpt>
      <trkpt lat="42.94281" lon="2.56831">
        <ele>526</ele>
        <time>2022-05-02T19:19:37Z</time>
      </trkpt>
      <trkpt lat="42.94237" lon="2.56807">
        <ele>527</ele>
        <time>2022-05-02T19:19:46Z</time>
      </trkpt>
      <trkpt lat="42.94206" lon="2.56797">
        <ele>533</ele>
        <time>2022-05-02T19:19:52Z</time>
      </trkpt>
      <trkpt lat="42.94199" lon="2.56792">
        <ele>534</ele>
        <time>2022-05-02T19:19:53Z</time>
      </trkpt>
      <trkpt lat="42.94171" lon="2.56753">
        <ele>526</ele>
        <time>2022-05-02T19:20:00Z</time>
      </trkpt>
      <trkpt lat="42.94165" lon="2.56747">
        <ele>526</ele>
        <time>2022-05-02T19:20:01Z</time>
      </trkpt>
      <trkpt lat="42.94151" lon="2.56737">
        <ele>529</ele>
        <time>2022-05-02T19:20:04Z</time>
      </trkpt>
      <trkpt lat="42.94138" lon="2.5673">
        <ele>532</ele>
        <time>2022-05-02T19:20:07Z</time>
      </trkpt>
      <trkpt lat="42.9411" lon="2.56722">
        <ele>537</ele>
        <time>2022-05-02T19:20:12Z</time>
      </trkpt>
      <trkpt lat="42.94101" lon="2.56717">
        <ele>538</ele>
        <time>2022-05-02T19:20:13Z</time>
      </trkpt>
      <trkpt lat="42.94092" lon="2.56709">
        <ele>538</ele>
        <time>2022-05-02T19:20:15Z</time>
      </trkpt>
      <trkpt lat="42.94059" lon="2.56668">
        <ele>532</ele>
        <time>2022-05-02T19:20:23Z</time>
      </trkpt>
      <trkpt lat="42.94033" lon="2.56651">
        <ele>537</ele>
        <time>2022-05-02T19:20:28Z</time>
      </trkpt>
      <trkpt lat="42.94028" lon="2.5665">
        <ele>538</ele>
        <time>2022-05-02T19:20:29Z</time>
      </trkpt>
      <trkpt lat="42.94022" lon="2.56652">
        <ele>538</ele>
        <time>2022-05-02T19:20:30Z</time>
      </trkpt>
      <trkpt lat="42.9401" lon="2.56674">
        <ele>539</ele>
        <time>2022-05-02T19:20:34Z</time>
      </trkpt>
      <trkpt lat="42.94005" lon="2.56687">
        <ele>542</ele>
        <time>2022-05-02T19:20:36Z</time>
      </trkpt>
      <trkpt lat="42.93999" lon="2.56716">
        <ele>547</ele>
        <time>2022-05-02T19:20:40Z</time>
      </trkpt>
      <trkpt lat="42.93991" lon="2.56734">
        <ele>551</ele>
        <time>2022-05-02T19:20:43Z</time>
      </trkpt>
      <trkpt lat="42.93979" lon="2.56751">
        <ele>555</ele>
        <time>2022-05-02T19:20:46Z</time>
      </trkpt>
      <trkpt lat="42.93972" lon="2.56756">
        <ele>558</ele>
        <time>2022-05-02T19:20:47Z</time>
      </trkpt>
      <trkpt lat="42.93962" lon="2.56755">
        <ele>559</ele>
        <time>2022-05-02T19:20:49Z</time>
      </trkpt>
      <trkpt lat="42.93955" lon="2.56749">
        <ele>559</ele>
        <time>2022-05-02T19:20:50Z</time>
      </trkpt>
      <trkpt lat="42.93951" lon="2.56736">
        <ele>560</ele>
        <time>2022-05-02T19:20:52Z</time>
      </trkpt>
      <trkpt lat="42.93951" lon="2.56725">
        <ele>560</ele>
        <time>2022-05-02T19:20:54Z</time>
      </trkpt>
      <trkpt lat="42.93975" lon="2.56637">
        <ele>555</ele>
        <time>2022-05-02T19:21:06Z</time>
      </trkpt>
      <trkpt lat="42.9399" lon="2.56595">
        <ele>554</ele>
        <time>2022-05-02T19:21:12Z</time>
      </trkpt>
      <trkpt lat="42.93997" lon="2.56581">
        <ele>552</ele>
        <time>2022-05-02T19:21:14Z</time>
      </trkpt>
      <trkpt lat="42.94009" lon="2.56547">
        <ele>553</ele>
        <time>2022-05-02T19:21:19Z</time>
      </trkpt>
      <trkpt lat="42.94009" lon="2.56537">
        <ele>554</ele>
        <time>2022-05-02T19:21:20Z</time>
      </trkpt>
      <trkpt lat="42.94003" lon="2.56511">
        <ele>558</ele>
        <time>2022-05-02T19:21:24Z</time>
      </trkpt>
      <trkpt lat="42.94003" lon="2.56482">
        <ele>559</ele>
        <time>2022-05-02T19:21:28Z</time>
      </trkpt>
      <trkpt lat="42.93997" lon="2.5643">
        <ele>558</ele>
        <time>2022-05-02T19:21:35Z</time>
      </trkpt>
      <trkpt lat="42.9399" lon="2.56414">
        <ele>559</ele>
        <time>2022-05-02T19:21:37Z</time>
      </trkpt>
      <trkpt lat="42.93985" lon="2.56408">
        <ele>560</ele>
        <time>2022-05-02T19:21:38Z</time>
      </trkpt>
      <trkpt lat="42.93964" lon="2.56394">
        <ele>563</ele>
        <time>2022-05-02T19:21:42Z</time>
      </trkpt>
      <trkpt lat="42.93957" lon="2.56392">
        <ele>563</ele>
        <time>2022-05-02T19:21:44Z</time>
      </trkpt>
      <trkpt lat="42.93949" lon="2.56393">
        <ele>564</ele>
        <time>2022-05-02T19:21:45Z</time>
      </trkpt>
      <trkpt lat="42.93944" lon="2.56397">
        <ele>564</ele>
        <time>2022-05-02T19:21:46Z</time>
      </trkpt>
      <trkpt lat="42.93927" lon="2.56414">
        <ele>566</ele>
        <time>2022-05-02T19:21:50Z</time>
      </trkpt>
      <trkpt lat="42.93913" lon="2.56423">
        <ele>570</ele>
        <time>2022-05-02T19:21:53Z</time>
      </trkpt>
      <trkpt lat="42.93896" lon="2.56426">
        <ele>571</ele>
        <time>2022-05-02T19:21:56Z</time>
      </trkpt>
      <trkpt lat="42.93859" lon="2.56423">
        <ele>572</ele>
        <time>2022-05-02T19:22:02Z</time>
      </trkpt>
      <trkpt lat="42.93843" lon="2.56427">
        <ele>574</ele>
        <time>2022-05-02T19:22:05Z</time>
      </trkpt>
      <trkpt lat="42.93831" lon="2.56423">
        <ele>574</ele>
        <time>2022-05-02T19:22:07Z</time>
      </trkpt>
      <trkpt lat="42.93815" lon="2.56405">
        <ele>572</ele>
        <time>2022-05-02T19:22:11Z</time>
      </trkpt>
      <trkpt lat="42.93809" lon="2.56402">
        <ele>572</ele>
        <time>2022-05-02T19:22:12Z</time>
      </trkpt>
      <trkpt lat="42.93774" lon="2.56401">
        <ele>574</ele>
        <time>2022-05-02T19:22:18Z</time>
      </trkpt>
      <trkpt lat="42.93763" lon="2.56394">
        <ele>574</ele>
        <time>2022-05-02T19:22:21Z</time>
      </trkpt>
      <trkpt lat="42.9375" lon="2.56392">
        <ele>575</ele>
        <time>2022-05-02T19:22:23Z</time>
      </trkpt>
      <trkpt lat="42.93741" lon="2.56395">
        <ele>575</ele>
        <time>2022-05-02T19:22:24Z</time>
      </trkpt>
      <trkpt lat="42.93708" lon="2.56417">
        <ele>578</ele>
        <time>2022-05-02T19:22:31Z</time>
      </trkpt>
      <trkpt lat="42.93701" lon="2.56423">
        <ele>579</ele>
        <time>2022-05-02T19:22:32Z</time>
      </trkpt>
      <trkpt lat="42.93687" lon="2.56442">
        <ele>583</ele>
        <time>2022-05-02T19:22:36Z</time>
      </trkpt>
      <trkpt lat="42.93676" lon="2.56463">
        <ele>588</ele>
        <time>2022-05-02T19:22:39Z</time>
      </trkpt>
      <trkpt lat="42.9367" lon="2.5647">
        <ele>589</ele>
        <time>2022-05-02T19:22:41Z</time>
      </trkpt>
      <trkpt lat="42.9364" lon="2.56484">
        <ele>591</ele>
        <time>2022-05-02T19:22:46Z</time>
      </trkpt>
      <trkpt lat="42.93596" lon="2.5652">
        <ele>596</ele>
        <time>2022-05-02T19:22:56Z</time>
      </trkpt>
      <trkpt lat="42.9359" lon="2.56523">
        <ele>596</ele>
        <time>2022-05-02T19:22:57Z</time>
      </trkpt>
      <trkpt lat="42.93584" lon="2.56523">
        <ele>596</ele>
        <time>2022-05-02T19:22:58Z</time>
      </trkpt>
      <trkpt lat="42.93578" lon="2.56519">
        <ele>596</ele>
        <time>2022-05-02T19:22:59Z</time>
      </trkpt>
      <trkpt lat="42.93573" lon="2.56511">
        <ele>595</ele>
        <time>2022-05-02T19:23:00Z</time>
      </trkpt>
      <trkpt lat="42.93571" lon="2.565">
        <ele>594</ele>
        <time>2022-05-02T19:23:02Z</time>
      </trkpt>
      <trkpt lat="42.9357" lon="2.56489">
        <ele>592</ele>
        <time>2022-05-02T19:23:03Z</time>
      </trkpt>
      <trkpt lat="42.9357" lon="2.56476">
        <ele>590</ele>
        <time>2022-05-02T19:23:05Z</time>
      </trkpt>
      <trkpt lat="42.93569" lon="2.56468">
        <ele>589</ele>
        <time>2022-05-02T19:23:06Z</time>
      </trkpt>
      <trkpt lat="42.93566" lon="2.5646">
        <ele>588</ele>
        <time>2022-05-02T19:23:07Z</time>
      </trkpt>
      <trkpt lat="42.93561" lon="2.56454">
        <ele>588</ele>
        <time>2022-05-02T19:23:08Z</time>
      </trkpt>
      <trkpt lat="42.93553" lon="2.56449">
        <ele>588</ele>
        <time>2022-05-02T19:23:10Z</time>
      </trkpt>
      <trkpt lat="42.93543" lon="2.56446">
        <ele>589</ele>
        <time>2022-05-02T19:23:12Z</time>
      </trkpt>
      <trkpt lat="42.93491" lon="2.56444">
        <ele>594</ele>
        <time>2022-05-02T19:23:21Z</time>
      </trkpt>
      <trkpt lat="42.93463" lon="2.56447">
        <ele>596</ele>
        <time>2022-05-02T19:23:26Z</time>
      </trkpt>
      <trkpt lat="42.93425" lon="2.5646">
        <ele>600</ele>
        <time>2022-05-02T19:23:33Z</time>
      </trkpt>
      <trkpt lat="42.93404" lon="2.56471">
        <ele>602</ele>
        <time>2022-05-02T19:23:37Z</time>
      </trkpt>
      <trkpt lat="42.93364" lon="2.565">
        <ele>604</ele>
        <time>2022-05-02T19:23:45Z</time>
      </trkpt>
      <trkpt lat="42.93353" lon="2.56512">
        <ele>605</ele>
        <time>2022-05-02T19:23:47Z</time>
      </trkpt>
      <trkpt lat="42.93345" lon="2.56524">
        <ele>607</ele>
        <time>2022-05-02T19:23:50Z</time>
      </trkpt>
      <trkpt lat="42.93331" lon="2.56552">
        <ele>610</ele>
        <time>2022-05-02T19:23:54Z</time>
      </trkpt>
      <trkpt lat="42.93307" lon="2.56609">
        <ele>618</ele>
        <time>2022-05-02T19:24:03Z</time>
      </trkpt>
      <trkpt lat="42.93302" lon="2.56615">
        <ele>618</ele>
        <time>2022-05-02T19:24:04Z</time>
      </trkpt>
      <trkpt lat="42.93293" lon="2.56624">
        <ele>619</ele>
        <time>2022-05-02T19:24:06Z</time>
      </trkpt>
      <trkpt lat="42.93283" lon="2.5663">
        <ele>619</ele>
        <time>2022-05-02T19:24:08Z</time>
      </trkpt>
      <trkpt lat="42.93257" lon="2.56641">
        <ele>619</ele>
        <time>2022-05-02T19:24:13Z</time>
      </trkpt>
      <trkpt lat="42.93246" lon="2.56651">
        <ele>621</ele>
        <time>2022-05-02T19:24:15Z</time>
      </trkpt>
      <trkpt lat="42.93235" lon="2.56665">
        <ele>623</ele>
        <time>2022-05-02T19:24:18Z</time>
      </trkpt>
      <trkpt lat="42.93226" lon="2.5668">
        <ele>625</ele>
        <time>2022-05-02T19:24:20Z</time>
      </trkpt>
      <trkpt lat="42.93214" lon="2.56702">
        <ele>626</ele>
        <time>2022-05-02T19:24:24Z</time>
      </trkpt>
      <trkpt lat="42.93202" lon="2.56724">
        <ele>626</ele>
        <time>2022-05-02T19:24:27Z</time>
      </trkpt>
      <trkpt lat="42.93173" lon="2.56767">
        <ele>624</ele>
        <time>2022-05-02T19:24:35Z</time>
      </trkpt>
      <trkpt lat="42.93166" lon="2.56775">
        <ele>623</ele>
        <time>2022-05-02T19:24:36Z</time>
      </trkpt>
      <trkpt lat="42.93159" lon="2.56778">
        <ele>623</ele>
        <time>2022-05-02T19:24:38Z</time>
      </trkpt>
      <trkpt lat="42.93121" lon="2.56781">
        <ele>621</ele>
        <time>2022-05-02T19:24:45Z</time>
      </trkpt>
      <trkpt lat="42.93077" lon="2.56799">
        <ele>616</ele>
        <time>2022-05-02T19:24:53Z</time>
      </trkpt>
      <trkpt lat="42.93062" lon="2.56801">
        <ele>614</ele>
        <time>2022-05-02T19:24:55Z</time>
      </trkpt>
      <trkpt lat="42.9305" lon="2.56795">
        <ele>613</ele>
        <time>2022-05-02T19:24:58Z</time>
      </trkpt>
      <trkpt lat="42.93043" lon="2.56786">
        <ele>615</ele>
        <time>2022-05-02T19:24:59Z</time>
      </trkpt>
      <trkpt lat="42.9303" lon="2.56764">
        <ele>618</ele>
        <time>2022-05-02T19:25:03Z</time>
      </trkpt>
      <trkpt lat="42.93027" lon="2.5676">
        <ele>618</ele>
        <time>2022-05-02T19:25:04Z</time>
      </trkpt>
      <trkpt lat="42.93023" lon="2.56758">
        <ele>618</ele>
        <time>2022-05-02T19:25:05Z</time>
      </trkpt>
      <trkpt lat="42.93016" lon="2.56757">
        <ele>617</ele>
        <time>2022-05-02T19:25:06Z</time>
      </trkpt>
      <trkpt lat="42.92971" lon="2.56779">
        <ele>608</ele>
        <time>2022-05-02T19:25:14Z</time>
      </trkpt>
      <trkpt lat="42.92962" lon="2.56781">
        <ele>606</ele>
        <time>2022-05-02T19:25:16Z</time>
      </trkpt>
      <trkpt lat="42.92935" lon="2.56781">
        <ele>603</ele>
        <time>2022-05-02T19:25:21Z</time>
      </trkpt>
      <trkpt lat="42.92922" lon="2.56776">
        <ele>603</ele>
        <time>2022-05-02T19:25:23Z</time>
      </trkpt>
      <trkpt lat="42.92915" lon="2.56765">
        <ele>604</ele>
        <time>2022-05-02T19:25:25Z</time>
      </trkpt>
      <trkpt lat="42.92911" lon="2.56752">
        <ele>606</ele>
        <time>2022-05-02T19:25:27Z</time>
      </trkpt>
      <trkpt lat="42.92908" lon="2.56735">
        <ele>609</ele>
        <time>2022-05-02T19:25:29Z</time>
      </trkpt>
      <trkpt lat="42.92905" lon="2.56729">
        <ele>610</ele>
        <time>2022-05-02T19:25:30Z</time>
      </trkpt>
      <trkpt lat="42.92903" lon="2.56725">
        <ele>611</ele>
        <time>2022-05-02T19:25:31Z</time>
      </trkpt>
      <trkpt lat="42.929" lon="2.56722">
        <ele>612</ele>
        <time>2022-05-02T19:25:31Z</time>
      </trkpt>
      <trkpt lat="42.92892" lon="2.56718">
        <ele>612</ele>
        <time>2022-05-02T19:25:33Z</time>
      </trkpt>
      <trkpt lat="42.92883" lon="2.5672">
        <ele>612</ele>
        <time>2022-05-02T19:25:35Z</time>
      </trkpt>
      <trkpt lat="42.92879" lon="2.56723">
        <ele>611</ele>
        <time>2022-05-02T19:25:35Z</time>
      </trkpt>
      <trkpt lat="42.92803" lon="2.56803">
        <ele>596</ele>
        <time>2022-05-02T19:25:52Z</time>
      </trkpt>
      <trkpt lat="42.92786" lon="2.56828">
        <ele>592</ele>
        <time>2022-05-02T19:25:57Z</time>
      </trkpt>
      <trkpt lat="42.92775" lon="2.56839">
        <ele>590</ele>
        <time>2022-05-02T19:25:59Z</time>
      </trkpt>
      <trkpt lat="42.92763" lon="2.56844">
        <ele>590</ele>
        <time>2022-05-02T19:26:02Z</time>
      </trkpt>
      <trkpt lat="42.92699" lon="2.56856">
        <ele>586</ele>
        <time>2022-05-02T19:26:13Z</time>
      </trkpt>
      <trkpt lat="42.92689" lon="2.5686">
        <ele>585</ele>
        <time>2022-05-02T19:26:15Z</time>
      </trkpt>
      <trkpt lat="42.92672" lon="2.56872">
        <ele>583</ele>
        <time>2022-05-02T19:26:18Z</time>
      </trkpt>
      <trkpt lat="42.92656" lon="2.56877">
        <ele>581</ele>
        <time>2022-05-02T19:26:21Z</time>
      </trkpt>
      <trkpt lat="42.9262" lon="2.5688">
        <ele>579</ele>
        <time>2022-05-02T19:26:28Z</time>
      </trkpt>
      <trkpt lat="42.92605" lon="2.56877">
        <ele>579</ele>
        <time>2022-05-02T19:26:30Z</time>
      </trkpt>
      <trkpt lat="42.92583" lon="2.56861">
        <ele>580</ele>
        <time>2022-05-02T19:26:35Z</time>
      </trkpt>
      <trkpt lat="42.92572" lon="2.56857">
        <ele>582</ele>
        <time>2022-05-02T19:26:37Z</time>
      </trkpt>
      <trkpt lat="42.92568" lon="2.56857">
        <ele>583</ele>
        <time>2022-05-02T19:26:38Z</time>
      </trkpt>
      <trkpt lat="42.92563" lon="2.56861">
        <ele>582</ele>
        <time>2022-05-02T19:26:39Z</time>
      </trkpt>
      <trkpt lat="42.9256" lon="2.56867">
        <ele>582</ele>
        <time>2022-05-02T19:26:39Z</time>
      </trkpt>
      <trkpt lat="42.92559" lon="2.56876">
        <ele>580</ele>
        <time>2022-05-02T19:26:41Z</time>
      </trkpt>
      <trkpt lat="42.9256" lon="2.56883">
        <ele>579</ele>
        <time>2022-05-02T19:26:42Z</time>
      </trkpt>
      <trkpt lat="42.92571" lon="2.5691">
        <ele>574</ele>
        <time>2022-05-02T19:26:46Z</time>
      </trkpt>
      <trkpt lat="42.92573" lon="2.56918">
        <ele>572</ele>
        <time>2022-05-02T19:26:47Z</time>
      </trkpt>
      <trkpt lat="42.92573" lon="2.56939">
        <ele>569</ele>
        <time>2022-05-02T19:26:49Z</time>
      </trkpt>
      <trkpt lat="42.9257" lon="2.56984">
        <ele>563</ele>
        <time>2022-05-02T19:26:55Z</time>
      </trkpt>
      <trkpt lat="42.92567" lon="2.56998">
        <ele>562</ele>
        <time>2022-05-02T19:26:57Z</time>
      </trkpt>
      <trkpt lat="42.92553" lon="2.57038">
        <ele>558</ele>
        <time>2022-05-02T19:27:03Z</time>
      </trkpt>
      <trkpt lat="42.92542" lon="2.57057">
        <ele>557</ele>
        <time>2022-05-02T19:27:06Z</time>
      </trkpt>
      <trkpt lat="42.92533" lon="2.57067">
        <ele>557</ele>
        <time>2022-05-02T19:27:08Z</time>
      </trkpt>
      <trkpt lat="42.92524" lon="2.57071">
        <ele>558</ele>
        <time>2022-05-02T19:27:10Z</time>
      </trkpt>
      <trkpt lat="42.92514" lon="2.57071">
        <ele>559</ele>
        <time>2022-05-02T19:27:12Z</time>
      </trkpt>
      <trkpt lat="42.92447" lon="2.57049">
        <ele>558</ele>
        <time>2022-05-02T19:27:24Z</time>
      </trkpt>
      <trkpt lat="42.9242" lon="2.57046">
        <ele>555</ele>
        <time>2022-05-02T19:27:29Z</time>
      </trkpt>
      <trkpt lat="42.92382" lon="2.57054">
        <ele>549</ele>
        <time>2022-05-02T19:27:36Z</time>
      </trkpt>
      <trkpt lat="42.92363" lon="2.57055">
        <ele>547</ele>
        <time>2022-05-02T19:27:39Z</time>
      </trkpt>
      <trkpt lat="42.92355" lon="2.57051">
        <ele>546</ele>
        <time>2022-05-02T19:27:41Z</time>
      </trkpt>
      <trkpt lat="42.92348" lon="2.57042">
        <ele>547</ele>
        <time>2022-05-02T19:27:42Z</time>
      </trkpt>
      <trkpt lat="42.92334" lon="2.5702">
        <ele>548</ele>
        <time>2022-05-02T19:27:46Z</time>
      </trkpt>
      <trkpt lat="42.9233" lon="2.57016">
        <ele>549</ele>
        <time>2022-05-02T19:27:47Z</time>
      </trkpt>
      <trkpt lat="42.92321" lon="2.57014">
        <ele>548</ele>
        <time>2022-05-02T19:27:49Z</time>
      </trkpt>
      <trkpt lat="42.92317" lon="2.57016">
        <ele>548</ele>
        <time>2022-05-02T19:27:49Z</time>
      </trkpt>
      <trkpt lat="42.9228" lon="2.57053">
        <ele>539</ele>
        <time>2022-05-02T19:27:57Z</time>
      </trkpt>
      <trkpt lat="42.92275" lon="2.57056">
        <ele>538</ele>
        <time>2022-05-02T19:27:58Z</time>
      </trkpt>
      <trkpt lat="42.9227" lon="2.57057">
        <ele>538</ele>
        <time>2022-05-02T19:27:59Z</time>
      </trkpt>
      <trkpt lat="42.92232" lon="2.57046">
        <ele>539</ele>
        <time>2022-05-02T19:28:06Z</time>
      </trkpt>
      <trkpt lat="42.92226" lon="2.57047">
        <ele>540</ele>
        <time>2022-05-02T19:28:07Z</time>
      </trkpt>
      <trkpt lat="42.92218" lon="2.57054">
        <ele>539</ele>
        <time>2022-05-02T19:28:09Z</time>
      </trkpt>
      <trkpt lat="42.92209" lon="2.57071">
        <ele>536</ele>
        <time>2022-05-02T19:28:12Z</time>
      </trkpt>
      <trkpt lat="42.92195" lon="2.57091">
        <ele>533</ele>
        <time>2022-05-02T19:28:15Z</time>
      </trkpt>
      <trkpt lat="42.92155" lon="2.57128">
        <ele>527</ele>
        <time>2022-05-02T19:28:24Z</time>
      </trkpt>
      <trkpt lat="42.92147" lon="2.57133">
        <ele>526</ele>
        <time>2022-05-02T19:28:26Z</time>
      </trkpt>
      <trkpt lat="42.92119" lon="2.57143">
        <ele>525</ele>
        <time>2022-05-02T19:28:31Z</time>
      </trkpt>
      <trkpt lat="42.92115" lon="2.57146">
        <ele>525</ele>
        <time>2022-05-02T19:28:31Z</time>
      </trkpt>
      <trkpt lat="42.92104" lon="2.57157">
        <ele>524</ele>
        <time>2022-05-02T19:28:34Z</time>
      </trkpt>
      <trkpt lat="42.92073" lon="2.572">
        <ele>517</ele>
        <time>2022-05-02T19:28:42Z</time>
      </trkpt>
      <trkpt lat="42.92052" lon="2.57225">
        <ele>512</ele>
        <time>2022-05-02T19:28:47Z</time>
      </trkpt>
      <trkpt lat="42.92036" lon="2.57238">
        <ele>510</ele>
        <time>2022-05-02T19:28:50Z</time>
      </trkpt>
      <trkpt lat="42.92028" lon="2.5724">
        <ele>510</ele>
        <time>2022-05-02T19:28:51Z</time>
      </trkpt>
      <trkpt lat="42.92021" lon="2.57239">
        <ele>510</ele>
        <time>2022-05-02T19:28:53Z</time>
      </trkpt>
      <trkpt lat="42.91981" lon="2.57214">
        <ele>511</ele>
        <time>2022-05-02T19:29:01Z</time>
      </trkpt>
      <trkpt lat="42.91976" lon="2.57204">
        <ele>511</ele>
        <time>2022-05-02T19:29:02Z</time>
      </trkpt>
      <trkpt lat="42.91969" lon="2.57182">
        <ele>512</ele>
        <time>2022-05-02T19:29:05Z</time>
      </trkpt>
      <trkpt lat="42.91963" lon="2.57176">
        <ele>512</ele>
        <time>2022-05-02T19:29:07Z</time>
      </trkpt>
      <trkpt lat="42.91956" lon="2.57174">
        <ele>511</ele>
        <time>2022-05-02T19:29:08Z</time>
      </trkpt>
      <trkpt lat="42.91948" lon="2.57175">
        <ele>510</ele>
        <time>2022-05-02T19:29:09Z</time>
      </trkpt>
      <trkpt lat="42.9194" lon="2.57179">
        <ele>509</ele>
        <time>2022-05-02T19:29:11Z</time>
      </trkpt>
      <trkpt lat="42.91933" lon="2.57189">
        <ele>507</ele>
        <time>2022-05-02T19:29:13Z</time>
      </trkpt>
      <trkpt lat="42.91929" lon="2.57211">
        <ele>505</ele>
        <time>2022-05-02T19:29:16Z</time>
      </trkpt>
      <trkpt lat="42.91925" lon="2.57282">
        <ele>496</ele>
        <time>2022-05-02T19:29:25Z</time>
      </trkpt>
      <trkpt lat="42.91928" lon="2.57293">
        <ele>495</ele>
        <time>2022-05-02T19:29:26Z</time>
      </trkpt>
      <trkpt lat="42.91933" lon="2.57301">
        <ele>494</ele>
        <time>2022-05-02T19:29:28Z</time>
      </trkpt>
      <trkpt lat="42.91949" lon="2.57309">
        <ele>494</ele>
        <time>2022-05-02T19:29:31Z</time>
      </trkpt>
      <trkpt lat="42.91954" lon="2.57314">
        <ele>493</ele>
        <time>2022-05-02T19:29:32Z</time>
      </trkpt>
      <trkpt lat="42.91956" lon="2.57323">
        <ele>492</ele>
        <time>2022-05-02T19:29:33Z</time>
      </trkpt>
      <trkpt lat="42.91955" lon="2.5733">
        <ele>491</ele>
        <time>2022-05-02T19:29:34Z</time>
      </trkpt>
      <trkpt lat="42.91951" lon="2.57334">
        <ele>490</ele>
        <time>2022-05-02T19:29:35Z</time>
      </trkpt>
      <trkpt lat="42.9192" lon="2.57337">
        <ele>488</ele>
        <time>2022-05-02T19:29:40Z</time>
      </trkpt>
      <trkpt lat="42.91901" lon="2.57337">
        <ele>485</ele>
        <time>2022-05-02T19:29:44Z</time>
      </trkpt>
      <trkpt lat="42.91889" lon="2.57334">
        <ele>483</ele>
        <time>2022-05-02T19:29:46Z</time>
      </trkpt>
      <trkpt lat="42.91877" lon="2.57324">
        <ele>482</ele>
        <time>2022-05-02T19:29:48Z</time>
      </trkpt>
      <trkpt lat="42.91874" lon="2.57317">
        <ele>482</ele>
        <time>2022-05-02T19:29:50Z</time>
      </trkpt>
      <trkpt lat="42.91874" lon="2.57308">
        <ele>483</ele>
        <time>2022-05-02T19:29:51Z</time>
      </trkpt>
      <trkpt lat="42.91881" lon="2.57284">
        <ele>488</ele>
        <time>2022-05-02T19:29:54Z</time>
      </trkpt>
      <trkpt lat="42.91881" lon="2.57277">
        <ele>489</ele>
        <time>2022-05-02T19:29:55Z</time>
      </trkpt>
      <trkpt lat="42.91879" lon="2.57268">
        <ele>489</ele>
        <time>2022-05-02T19:29:56Z</time>
      </trkpt>
      <trkpt lat="42.91846" lon="2.57232">
        <ele>485</ele>
        <time>2022-05-02T19:30:04Z</time>
      </trkpt>
      <trkpt lat="42.91839" lon="2.57217">
        <ele>484</ele>
        <time>2022-05-02T19:30:06Z</time>
      </trkpt>
      <trkpt lat="42.9183" lon="2.57192">
        <ele>484</ele>
        <time>2022-05-02T19:30:10Z</time>
      </trkpt>
      <trkpt lat="42.91824" lon="2.57164">
        <ele>485</ele>
        <time>2022-05-02T19:30:13Z</time>
      </trkpt>
      <trkpt lat="42.91824" lon="2.57144">
        <ele>486</ele>
        <time>2022-05-02T19:30:16Z</time>
      </trkpt>
      <trkpt lat="42.91822" lon="2.57126">
        <ele>487</ele>
        <time>2022-05-02T19:30:18Z</time>
      </trkpt>
      <trkpt lat="42.91795" lon="2.57018">
        <ele>490</ele>
        <time>2022-05-02T19:30:33Z</time>
      </trkpt>
      <trkpt lat="42.91788" lon="2.57014">
        <ele>489</ele>
        <time>2022-05-02T19:30:35Z</time>
      </trkpt>
      <trkpt lat="42.91782" lon="2.57014">
        <ele>488</ele>
        <time>2022-05-02T19:30:36Z</time>
      </trkpt>
      <trkpt lat="42.91774" lon="2.57021">
        <ele>486</ele>
        <time>2022-05-02T19:30:37Z</time>
      </trkpt>
      <trkpt lat="42.91772" lon="2.57029">
        <ele>486</ele>
        <time>2022-05-02T19:30:39Z</time>
      </trkpt>
      <trkpt lat="42.91774" lon="2.57036">
        <ele>486</ele>
        <time>2022-05-02T19:30:40Z</time>
      </trkpt>
      <trkpt lat="42.91789" lon="2.57061">
        <ele>487</ele>
        <time>2022-05-02T19:30:44Z</time>
      </trkpt>
      <trkpt lat="42.91794" lon="2.57079">
        <ele>487</ele>
        <time>2022-05-02T19:30:46Z</time>
      </trkpt>
      <trkpt lat="42.91798" lon="2.57108">
        <ele>485</ele>
        <time>2022-05-02T19:30:50Z</time>
      </trkpt>
      <trkpt lat="42.91797" lon="2.57139">
        <ele>482</ele>
        <time>2022-05-02T19:30:54Z</time>
      </trkpt>
      <trkpt lat="42.91788" lon="2.57191">
        <ele>477</ele>
        <time>2022-05-02T19:31:01Z</time>
      </trkpt>
      <trkpt lat="42.91789" lon="2.57204">
        <ele>477</ele>
        <time>2022-05-02T19:31:03Z</time>
      </trkpt>
      <trkpt lat="42.91795" lon="2.57238">
        <ele>476</ele>
        <time>2022-05-02T19:31:07Z</time>
      </trkpt>
      <trkpt lat="42.91798" lon="2.57247">
        <ele>476</ele>
        <time>2022-05-02T19:31:09Z</time>
      </trkpt>
      <trkpt lat="42.91792" lon="2.57262">
        <ele>474</ele>
        <time>2022-05-02T19:31:11Z</time>
      </trkpt>
      <trkpt lat="42.91785" lon="2.57238">
        <ele>475</ele>
        <time>2022-05-02T19:31:14Z</time>
      </trkpt>
      <trkpt lat="42.91769" lon="2.57219">
        <ele>473</ele>
        <time>2022-05-02T19:31:18Z</time>
      </trkpt>
      <trkpt lat="42.91743" lon="2.57191">
        <ele>471</ele>
        <time>2022-05-02T19:31:24Z</time>
      </trkpt>
      <trkpt lat="42.91685" lon="2.57137">
        <ele>469</ele>
        <time>2022-05-02T19:31:36Z</time>
      </trkpt>
      <trkpt lat="42.91678" lon="2.57124">
        <ele>468</ele>
        <time>2022-05-02T19:31:39Z</time>
      </trkpt>
      <trkpt lat="42.91674" lon="2.57112">
        <ele>468</ele>
        <time>2022-05-02T19:31:40Z</time>
      </trkpt>
      <trkpt lat="42.91667" lon="2.5702">
        <ele>470</ele>
        <time>2022-05-02T19:31:52Z</time>
      </trkpt>
      <trkpt lat="42.91669" lon="2.5699">
        <ele>472</ele>
        <time>2022-05-02T19:31:56Z</time>
      </trkpt>
      <trkpt lat="42.91667" lon="2.56971">
        <ele>472</ele>
        <time>2022-05-02T19:31:59Z</time>
      </trkpt>
      <trkpt lat="42.91658" lon="2.56941">
        <ele>472</ele>
        <time>2022-05-02T19:32:03Z</time>
      </trkpt>
      <trkpt lat="42.91616" lon="2.56819">
        <ele>475</ele>
        <time>2022-05-02T19:32:20Z</time>
      </trkpt>
      <trkpt lat="42.91607" lon="2.56807">
        <ele>475</ele>
        <time>2022-05-02T19:32:23Z</time>
      </trkpt>
      <trkpt lat="42.91589" lon="2.56792">
        <ele>473</ele>
        <time>2022-05-02T19:32:26Z</time>
      </trkpt>
      <trkpt lat="42.9158" lon="2.56782">
        <ele>473</ele>
        <time>2022-05-02T19:32:29Z</time>
      </trkpt>
      <trkpt lat="42.91576" lon="2.56774">
        <ele>473</ele>
        <time>2022-05-02T19:32:30Z</time>
      </trkpt>
      <trkpt lat="42.91553" lon="2.56693">
        <ele>478</ele>
        <time>2022-05-02T19:32:41Z</time>
      </trkpt>
      <trkpt lat="42.9155" lon="2.56674">
        <ele>478</ele>
        <time>2022-05-02T19:32:44Z</time>
      </trkpt>
      <trkpt lat="42.91545" lon="2.56568">
        <ele>479</ele>
        <time>2022-05-02T19:32:58Z</time>
      </trkpt>
      <trkpt lat="42.91538" lon="2.56488">
        <ele>479</ele>
        <time>2022-05-02T19:33:08Z</time>
      </trkpt>
      <trkpt lat="42.91535" lon="2.56474">
        <ele>480</ele>
        <time>2022-05-02T19:33:10Z</time>
      </trkpt>
      <trkpt lat="42.91528" lon="2.56457">
        <ele>481</ele>
        <time>2022-05-02T19:33:12Z</time>
      </trkpt>
      <trkpt lat="42.91487" lon="2.56394">
        <ele>485</ele>
        <time>2022-05-02T19:33:23Z</time>
      </trkpt>
      <trkpt lat="42.91477" lon="2.56376">
        <ele>486</ele>
        <time>2022-05-02T19:33:26Z</time>
      </trkpt>
      <trkpt lat="42.91473" lon="2.5636">
        <ele>487</ele>
        <time>2022-05-02T19:33:29Z</time>
      </trkpt>
      <trkpt lat="42.91479" lon="2.5632">
        <ele>491</ele>
        <time>2022-05-02T19:33:34Z</time>
      </trkpt>
      <trkpt lat="42.91484" lon="2.56304">
        <ele>493</ele>
        <time>2022-05-02T19:33:36Z</time>
      </trkpt>
      <trkpt lat="42.91486" lon="2.56265">
        <ele>494</ele>
        <time>2022-05-02T19:33:41Z</time>
      </trkpt>
      <trkpt lat="42.9148" lon="2.56127">
        <ele>504</ele>
        <time>2022-05-02T19:33:59Z</time>
      </trkpt>
      <trkpt lat="42.91478" lon="2.56103">
        <ele>507</ele>
        <time>2022-05-02T19:34:02Z</time>
      </trkpt>
      <trkpt lat="42.91464" lon="2.56065">
        <ele>510</ele>
        <time>2022-05-02T19:34:08Z</time>
      </trkpt>
      <trkpt lat="42.91443" lon="2.5602">
        <ele>510</ele>
        <time>2022-05-02T19:34:15Z</time>
      </trkpt>
      <trkpt lat="42.91417" lon="2.55971">
        <ele>507</ele>
        <time>2022-05-02T19:34:23Z</time>
      </trkpt>
      <trkpt lat="42.91398" lon="2.55942">
        <ele>513</ele>
        <time>2022-05-02T19:34:28Z</time>
      </trkpt>
      <trkpt lat="42.91391" lon="2.55936">
        <ele>513</ele>
        <time>2022-05-02T19:34:29Z</time>
      </trkpt>
      <trkpt lat="42.91375" lon="2.55932">
        <ele>511</ele>
        <time>2022-05-02T19:34:32Z</time>
      </trkpt>
      <trkpt lat="42.91368" lon="2.55928">
        <ele>510</ele>
        <time>2022-05-02T19:34:34Z</time>
      </trkpt>
      <trkpt lat="42.91363" lon="2.55922">
        <ele>509</ele>
        <time>2022-05-02T19:34:35Z</time>
      </trkpt>
      <trkpt lat="42.91344" lon="2.5589">
        <ele>508</ele>
        <time>2022-05-02T19:34:40Z</time>
      </trkpt>
      <trkpt lat="42.91339" lon="2.55886">
        <ele>507</ele>
        <time>2022-05-02T19:34:41Z</time>
      </trkpt>
      <trkpt lat="42.9133" lon="2.55886">
        <ele>505</ele>
        <time>2022-05-02T19:34:43Z</time>
      </trkpt>
      <trkpt lat="42.91319" lon="2.55891">
        <ele>505</ele>
        <time>2022-05-02T19:34:45Z</time>
      </trkpt>
      <trkpt lat="42.9131" lon="2.55893">
        <ele>505</ele>
        <time>2022-05-02T19:34:46Z</time>
      </trkpt>
      <trkpt lat="42.91303" lon="2.55894">
        <ele>505</ele>
        <time>2022-05-02T19:34:48Z</time>
      </trkpt>
      <trkpt lat="42.91287" lon="2.55885">
        <ele>505</ele>
        <time>2022-05-02T19:34:51Z</time>
      </trkpt>
      <trkpt lat="42.91201" lon="2.5582">
        <ele>505</ele>
        <time>2022-05-02T19:35:08Z</time>
      </trkpt>
      <trkpt lat="42.91192" lon="2.5581">
        <ele>505</ele>
        <time>2022-05-02T19:35:10Z</time>
      </trkpt>
      <trkpt lat="42.91184" lon="2.55791">
        <ele>506</ele>
        <time>2022-05-02T19:35:13Z</time>
      </trkpt>
      <trkpt lat="42.91157" lon="2.55689">
        <ele>506</ele>
        <time>2022-05-02T19:35:27Z</time>
      </trkpt>
      <trkpt lat="42.9115" lon="2.55677">
        <ele>507</ele>
        <time>2022-05-02T19:35:29Z</time>
      </trkpt>
      <trkpt lat="42.9114" lon="2.55669">
        <ele>508</ele>
        <time>2022-05-02T19:35:31Z</time>
      </trkpt>
      <trkpt lat="42.91091" lon="2.55644">
        <ele>514</ele>
        <time>2022-05-02T19:35:41Z</time>
      </trkpt>
      <trkpt lat="42.91074" lon="2.55633">
        <ele>517</ele>
        <time>2022-05-02T19:35:44Z</time>
      </trkpt>
      <trkpt lat="42.91059" lon="2.55613">
        <ele>519</ele>
        <time>2022-05-02T19:35:48Z</time>
      </trkpt>
      <trkpt lat="42.91003" lon="2.5551">
        <ele>520</ele>
        <time>2022-05-02T19:36:04Z</time>
      </trkpt>
      <trkpt lat="42.90971" lon="2.55464">
        <ele>525</ele>
        <time>2022-05-02T19:36:13Z</time>
      </trkpt>
      <trkpt lat="42.90966" lon="2.55453">
        <ele>525</ele>
        <time>2022-05-02T19:36:14Z</time>
      </trkpt>
      <trkpt lat="42.90964" lon="2.55445">
        <ele>525</ele>
        <time>2022-05-02T19:36:16Z</time>
      </trkpt>
      <trkpt lat="42.90968" lon="2.55422">
        <ele>522</ele>
        <time>2022-05-02T19:36:19Z</time>
      </trkpt>
      <trkpt lat="42.90971" lon="2.55412">
        <ele>521</ele>
        <time>2022-05-02T19:36:20Z</time>
      </trkpt>
      <trkpt lat="42.90971" lon="2.55401">
        <ele>521</ele>
        <time>2022-05-02T19:36:21Z</time>
      </trkpt>
      <trkpt lat="42.90967" lon="2.55387">
        <ele>521</ele>
        <time>2022-05-02T19:36:23Z</time>
      </trkpt>
      <trkpt lat="42.90943" lon="2.55363">
        <ele>523</ele>
        <time>2022-05-02T19:36:29Z</time>
      </trkpt>
      <trkpt lat="42.90935" lon="2.55358">
        <ele>524</ele>
        <time>2022-05-02T19:36:30Z</time>
      </trkpt>
      <trkpt lat="42.90911" lon="2.55356">
        <ele>528</ele>
        <time>2022-05-02T19:36:35Z</time>
      </trkpt>
      <trkpt lat="42.90901" lon="2.55348">
        <ele>529</ele>
        <time>2022-05-02T19:36:37Z</time>
      </trkpt>
      <trkpt lat="42.90889" lon="2.55324">
        <ele>529</ele>
        <time>2022-05-02T19:36:40Z</time>
      </trkpt>
      <trkpt lat="42.90877" lon="2.55309">
        <ele>530</ele>
        <time>2022-05-02T19:36:43Z</time>
      </trkpt>
      <trkpt lat="42.90843" lon="2.55281">
        <ele>533</ele>
        <time>2022-05-02T19:36:50Z</time>
      </trkpt>
      <trkpt lat="42.90824" lon="2.55263">
        <ele>535</ele>
        <time>2022-05-02T19:36:54Z</time>
      </trkpt>
      <trkpt lat="42.90793" lon="2.55226">
        <ele>537</ele>
        <time>2022-05-02T19:37:02Z</time>
      </trkpt>
      <trkpt lat="42.90784" lon="2.55212">
        <ele>538</ele>
        <time>2022-05-02T19:37:04Z</time>
      </trkpt>
      <trkpt lat="42.90765" lon="2.55159">
        <ele>539</ele>
        <time>2022-05-02T19:37:12Z</time>
      </trkpt>
      <trkpt lat="42.90733" lon="2.55084">
        <ele>540</ele>
        <time>2022-05-02T19:37:23Z</time>
      </trkpt>
      <trkpt lat="42.90726" lon="2.55069">
        <ele>540</ele>
        <time>2022-05-02T19:37:26Z</time>
      </trkpt>
      <trkpt lat="42.90715" lon="2.55056">
        <ele>541</ele>
        <time>2022-05-02T19:37:28Z</time>
      </trkpt>
      <trkpt lat="42.90659" lon="2.55004">
        <ele>550</ele>
        <time>2022-05-02T19:37:40Z</time>
      </trkpt>
      <trkpt lat="42.90653" lon="2.54996">
        <ele>551</ele>
        <time>2022-05-02T19:37:42Z</time>
      </trkpt>
      <trkpt lat="42.90633" lon="2.5496">
        <ele>553</ele>
        <time>2022-05-02T19:37:48Z</time>
      </trkpt>
      <trkpt lat="42.90625" lon="2.54949">
        <ele>554</ele>
        <time>2022-05-02T19:37:50Z</time>
      </trkpt>
      <trkpt lat="42.90609" lon="2.54933">
        <ele>556</ele>
        <time>2022-05-02T19:37:53Z</time>
      </trkpt>
      <trkpt lat="42.90584" lon="2.54916">
        <ele>561</ele>
        <time>2022-05-02T19:37:58Z</time>
      </trkpt>
      <trkpt lat="42.90575" lon="2.54906">
        <ele>562</ele>
        <time>2022-05-02T19:38:00Z</time>
      </trkpt>
      <trkpt lat="42.90567" lon="2.54894">
        <ele>563</ele>
        <time>2022-05-02T19:38:02Z</time>
      </trkpt>
      <trkpt lat="42.90554" lon="2.54868">
        <ele>563</ele>
        <time>2022-05-02T19:38:06Z</time>
      </trkpt>
      <trkpt lat="42.90545" lon="2.54855">
        <ele>564</ele>
        <time>2022-05-02T19:38:09Z</time>
      </trkpt>
      <trkpt lat="42.90516" lon="2.54833">
        <ele>569</ele>
        <time>2022-05-02T19:38:15Z</time>
      </trkpt>
      <trkpt lat="42.90511" lon="2.54827">
        <ele>570</ele>
        <time>2022-05-02T19:38:16Z</time>
      </trkpt>
      <trkpt lat="42.90506" lon="2.54818">
        <ele>570</ele>
        <time>2022-05-02T19:38:17Z</time>
      </trkpt>
      <trkpt lat="42.90482" lon="2.54735">
        <ele>568</ele>
        <time>2022-05-02T19:38:29Z</time>
      </trkpt>
      <trkpt lat="42.90469" lon="2.54707">
        <ele>571</ele>
        <time>2022-05-02T19:38:33Z</time>
      </trkpt>
      <trkpt lat="42.90362" lon="2.54501">
        <ele>581</ele>
        <time>2022-05-02T19:39:06Z</time>
      </trkpt>
      <trkpt lat="42.90294" lon="2.54409">
        <ele>589</ele>
        <time>2022-05-02T19:39:23Z</time>
      </trkpt>
      <trkpt lat="42.90288" lon="2.54395">
        <ele>590</ele>
        <time>2022-05-02T19:39:25Z</time>
      </trkpt>
      <trkpt lat="42.90276" lon="2.54346">
        <ele>590</ele>
        <time>2022-05-02T19:39:32Z</time>
      </trkpt>
      <trkpt lat="42.90266" lon="2.54327">
        <ele>592</ele>
        <time>2022-05-02T19:39:35Z</time>
      </trkpt>
      <trkpt lat="42.90241" lon="2.54278">
        <ele>601</ele>
        <time>2022-05-02T19:39:43Z</time>
      </trkpt>
      <trkpt lat="42.90236" lon="2.54268">
        <ele>601</ele>
        <time>2022-05-02T19:39:44Z</time>
      </trkpt>
      <trkpt lat="42.90223" lon="2.5425">
        <ele>603</ele>
        <time>2022-05-02T19:39:48Z</time>
      </trkpt>
      <trkpt lat="42.90216" lon="2.54246">
        <ele>604</ele>
        <time>2022-05-02T19:39:49Z</time>
      </trkpt>
      <trkpt lat="42.90208" lon="2.54245">
        <ele>604</ele>
        <time>2022-05-02T19:39:51Z</time>
      </trkpt>
      <trkpt lat="42.90198" lon="2.54249">
        <ele>603</ele>
        <time>2022-05-02T19:39:52Z</time>
      </trkpt>
      <trkpt lat="42.90195" lon="2.54255">
        <ele>603</ele>
        <time>2022-05-02T19:39:53Z</time>
      </trkpt>
      <trkpt lat="42.90187" lon="2.54267">
        <ele>601</ele>
        <time>2022-05-02T19:39:55Z</time>
      </trkpt>
      <trkpt lat="42.90173" lon="2.5429">
        <ele>599</ele>
        <time>2022-05-02T19:39:59Z</time>
      </trkpt>
      <trkpt lat="42.90149" lon="2.54329">
        <ele>595</ele>
        <time>2022-05-02T19:40:06Z</time>
      </trkpt>
      <trkpt lat="42.90142" lon="2.54337">
        <ele>595</ele>
        <time>2022-05-02T19:40:08Z</time>
      </trkpt>
      <trkpt lat="42.90135" lon="2.54342">
        <ele>594</ele>
        <time>2022-05-02T19:40:09Z</time>
      </trkpt>
      <trkpt lat="42.9009" lon="2.54354">
        <ele>593</ele>
        <time>2022-05-02T19:40:17Z</time>
      </trkpt>
      <trkpt lat="42.90076" lon="2.54354">
        <ele>592</ele>
        <time>2022-05-02T19:40:20Z</time>
      </trkpt>
      <trkpt lat="42.90055" lon="2.54347">
        <ele>589</ele>
        <time>2022-05-02T19:40:23Z</time>
      </trkpt>
      <trkpt lat="42.90046" lon="2.54341">
        <ele>588</ele>
        <time>2022-05-02T19:40:25Z</time>
      </trkpt>
      <trkpt lat="42.90039" lon="2.54331">
        <ele>588</ele>
        <time>2022-05-02T19:40:27Z</time>
      </trkpt>
      <trkpt lat="42.90036" lon="2.54314">
        <ele>588</ele>
        <time>2022-05-02T19:40:29Z</time>
      </trkpt>
      <trkpt lat="42.90035" lon="2.54285">
        <ele>590</ele>
        <time>2022-05-02T19:40:33Z</time>
      </trkpt>
      <trkpt lat="42.90032" lon="2.54274">
        <ele>590</ele>
        <time>2022-05-02T19:40:35Z</time>
      </trkpt>
      <trkpt lat="42.90021" lon="2.54249">
        <ele>589</ele>
        <time>2022-05-02T19:40:38Z</time>
      </trkpt>
      <trkpt lat="42.90013" lon="2.54191">
        <ele>590</ele>
        <time>2022-05-02T19:40:46Z</time>
      </trkpt>
      <trkpt lat="42.90002" lon="2.54167">
        <ele>588</ele>
        <time>2022-05-02T19:40:50Z</time>
      </trkpt>
      <trkpt lat="42.89991" lon="2.5415">
        <ele>586</ele>
        <time>2022-05-02T19:40:53Z</time>
      </trkpt>
      <trkpt lat="42.89981" lon="2.54127">
        <ele>584</ele>
        <time>2022-05-02T19:40:56Z</time>
      </trkpt>
      <trkpt lat="42.89971" lon="2.54086">
        <ele>584</ele>
        <time>2022-05-02T19:41:02Z</time>
      </trkpt>
      <trkpt lat="42.89957" lon="2.54047">
        <ele>584</ele>
        <time>2022-05-02T19:41:08Z</time>
      </trkpt>
      <trkpt lat="42.89944" lon="2.54023">
        <ele>582</ele>
        <time>2022-05-02T19:41:11Z</time>
      </trkpt>
      <trkpt lat="42.89894" lon="2.53955">
        <ele>573</ele>
        <time>2022-05-02T19:41:24Z</time>
      </trkpt>
      <trkpt lat="42.89889" lon="2.5394">
        <ele>572</ele>
        <time>2022-05-02T19:41:26Z</time>
      </trkpt>
      <trkpt lat="42.89889" lon="2.53918">
        <ele>574</ele>
        <time>2022-05-02T19:41:29Z</time>
      </trkpt>
      <trkpt lat="42.899" lon="2.53852">
        <ele>570</ele>
        <time>2022-05-02T19:41:38Z</time>
      </trkpt>
      <trkpt lat="42.89909" lon="2.53833">
        <ele>571</ele>
        <time>2022-05-02T19:41:41Z</time>
      </trkpt>
      <trkpt lat="42.89981" lon="2.53741">
        <ele>577</ele>
        <time>2022-05-02T19:41:58Z</time>
      </trkpt>
      <trkpt lat="42.89988" lon="2.53724">
        <ele>580</ele>
        <time>2022-05-02T19:42:01Z</time>
      </trkpt>
      <trkpt lat="42.89989" lon="2.53705">
        <ele>581</ele>
        <time>2022-05-02T19:42:03Z</time>
      </trkpt>
      <trkpt lat="42.89985" lon="2.53687">
        <ele>580</ele>
        <time>2022-05-02T19:42:06Z</time>
      </trkpt>
      <trkpt lat="42.89949" lon="2.5364">
        <ele>575</ele>
        <time>2022-05-02T19:42:15Z</time>
      </trkpt>
      <trkpt lat="42.89937" lon="2.53631">
        <ele>573</ele>
        <time>2022-05-02T19:42:17Z</time>
      </trkpt>
      <trkpt lat="42.8989" lon="2.53613">
        <ele>563</ele>
        <time>2022-05-02T19:42:26Z</time>
      </trkpt>
      <trkpt lat="42.89878" lon="2.53604">
        <ele>561</ele>
        <time>2022-05-02T19:42:28Z</time>
      </trkpt>
      <trkpt lat="42.89869" lon="2.53594">
        <ele>560</ele>
        <time>2022-05-02T19:42:30Z</time>
      </trkpt>
      <trkpt lat="42.89863" lon="2.53578">
        <ele>560</ele>
        <time>2022-05-02T19:42:33Z</time>
      </trkpt>
      <trkpt lat="42.89862" lon="2.5356">
        <ele>560</ele>
        <time>2022-05-02T19:42:35Z</time>
      </trkpt>
      <trkpt lat="42.89869" lon="2.53474">
        <ele>569</ele>
        <time>2022-05-02T19:42:46Z</time>
      </trkpt>
      <trkpt lat="42.89866" lon="2.53454">
        <ele>570</ele>
        <time>2022-05-02T19:42:49Z</time>
      </trkpt>
      <trkpt lat="42.89861" lon="2.53439">
        <ele>569</ele>
        <time>2022-05-02T19:42:51Z</time>
      </trkpt>
      <trkpt lat="42.89851" lon="2.53426">
        <ele>567</ele>
        <time>2022-05-02T19:42:54Z</time>
      </trkpt>
      <trkpt lat="42.89823" lon="2.53404">
        <ele>564</ele>
        <time>2022-05-02T19:42:59Z</time>
      </trkpt>
      <trkpt lat="42.89809" lon="2.534">
        <ele>565</ele>
        <time>2022-05-02T19:43:02Z</time>
      </trkpt>
      <trkpt lat="42.8979" lon="2.53403">
        <ele>564</ele>
        <time>2022-05-02T19:43:05Z</time>
      </trkpt>
      <trkpt lat="42.8976" lon="2.53417">
        <ele>559</ele>
        <time>2022-05-02T19:43:11Z</time>
      </trkpt>
      <trkpt lat="42.89721" lon="2.53444">
        <ele>556</ele>
        <time>2022-05-02T19:43:19Z</time>
      </trkpt>
      <trkpt lat="42.89699" lon="2.53463">
        <ele>555</ele>
        <time>2022-05-02T19:43:23Z</time>
      </trkpt>
      <trkpt lat="42.8962" lon="2.53548">
        <ele>544</ele>
        <time>2022-05-02T19:43:41Z</time>
      </trkpt>
      <trkpt lat="42.89607" lon="2.53558">
        <ele>543</ele>
        <time>2022-05-02T19:43:44Z</time>
      </trkpt>
      <trkpt lat="42.89594" lon="2.53564">
        <ele>544</ele>
        <time>2022-05-02T19:43:46Z</time>
      </trkpt>
      <trkpt lat="42.89571" lon="2.53571">
        <ele>542</ele>
        <time>2022-05-02T19:43:51Z</time>
      </trkpt>
      <trkpt lat="42.89557" lon="2.53571">
        <ele>540</ele>
        <time>2022-05-02T19:43:53Z</time>
      </trkpt>
      <trkpt lat="42.89543" lon="2.53564">
        <ele>539</ele>
        <time>2022-05-02T19:43:56Z</time>
      </trkpt>
      <trkpt lat="42.89531" lon="2.53553">
        <ele>538</ele>
        <time>2022-05-02T19:43:58Z</time>
      </trkpt>
      <trkpt lat="42.89525" lon="2.53542">
        <ele>537</ele>
        <time>2022-05-02T19:44:00Z</time>
      </trkpt>
      <trkpt lat="42.89521" lon="2.53526">
        <ele>538</ele>
        <time>2022-05-02T19:44:02Z</time>
      </trkpt>
      <trkpt lat="42.89517" lon="2.5337">
        <ele>547</ele>
        <time>2022-05-02T19:44:23Z</time>
      </trkpt>
      <trkpt lat="42.89515" lon="2.53356">
        <ele>548</ele>
        <time>2022-05-02T19:44:24Z</time>
      </trkpt>
      <trkpt lat="42.89511" lon="2.53345">
        <ele>548</ele>
        <time>2022-05-02T19:44:26Z</time>
      </trkpt>
      <trkpt lat="42.89508" lon="2.53338">
        <ele>547</ele>
        <time>2022-05-02T19:44:27Z</time>
      </trkpt>
      <trkpt lat="42.89494" lon="2.53329">
        <ele>547</ele>
        <time>2022-05-02T19:44:30Z</time>
      </trkpt>
      <trkpt lat="42.89468" lon="2.53326">
        <ele>547</ele>
        <time>2022-05-02T19:44:34Z</time>
      </trkpt>
      <trkpt lat="42.89456" lon="2.53334">
        <ele>545</ele>
        <time>2022-05-02T19:44:37Z</time>
      </trkpt>
      <trkpt lat="42.89434" lon="2.53364">
        <ele>539</ele>
        <time>2022-05-02T19:44:42Z</time>
      </trkpt>
      <trkpt lat="42.89425" lon="2.53371">
        <ele>537</ele>
        <time>2022-05-02T19:44:44Z</time>
      </trkpt>
      <trkpt lat="42.89402" lon="2.53382">
        <ele>533</ele>
        <time>2022-05-02T19:44:49Z</time>
      </trkpt>
      <trkpt lat="42.89384" lon="2.53386">
        <ele>531</ele>
        <time>2022-05-02T19:44:52Z</time>
      </trkpt>
      <trkpt lat="42.8936" lon="2.53384">
        <ele>530</ele>
        <time>2022-05-02T19:44:56Z</time>
      </trkpt>
      <trkpt lat="42.89329" lon="2.53369">
        <ele>529</ele>
        <time>2022-05-02T19:45:02Z</time>
      </trkpt>
      <trkpt lat="42.89322" lon="2.53359">
        <ele>529</ele>
        <time>2022-05-02T19:45:04Z</time>
      </trkpt>
      <trkpt lat="42.89314" lon="2.53345">
        <ele>529</ele>
        <time>2022-05-02T19:45:06Z</time>
      </trkpt>
      <trkpt lat="42.89306" lon="2.53329">
        <ele>529</ele>
        <time>2022-05-02T19:45:09Z</time>
      </trkpt>
      <trkpt lat="42.89299" lon="2.5331">
        <ele>530</ele>
        <time>2022-05-02T19:45:11Z</time>
      </trkpt>
      <trkpt lat="42.89292" lon="2.53254">
        <ele>536</ele>
        <time>2022-05-02T19:45:19Z</time>
      </trkpt>
      <trkpt lat="42.89288" lon="2.53245">
        <ele>536</ele>
        <time>2022-05-02T19:45:20Z</time>
      </trkpt>
      <trkpt lat="42.89279" lon="2.53236">
        <ele>536</ele>
        <time>2022-05-02T19:45:22Z</time>
      </trkpt>
      <trkpt lat="42.89272" lon="2.53234">
        <ele>536</ele>
        <time>2022-05-02T19:45:23Z</time>
      </trkpt>
      <trkpt lat="42.89263" lon="2.53235">
        <ele>534</ele>
        <time>2022-05-02T19:45:25Z</time>
      </trkpt>
      <trkpt lat="42.89208" lon="2.53253">
        <ele>527</ele>
        <time>2022-05-02T19:45:35Z</time>
      </trkpt>
      <trkpt lat="42.89188" lon="2.53255">
        <ele>525</ele>
        <time>2022-05-02T19:45:39Z</time>
      </trkpt>
      <trkpt lat="42.89174" lon="2.53253">
        <ele>525</ele>
        <time>2022-05-02T19:45:41Z</time>
      </trkpt>
      <trkpt lat="42.89134" lon="2.53229">
        <ele>523</ele>
        <time>2022-05-02T19:45:49Z</time>
      </trkpt>
      <trkpt lat="42.89076" lon="2.53186">
        <ele>522</ele>
        <time>2022-05-02T19:46:01Z</time>
      </trkpt>
      <trkpt lat="42.89064" lon="2.53182">
        <ele>522</ele>
        <time>2022-05-02T19:46:03Z</time>
      </trkpt>
      <trkpt lat="42.89028" lon="2.53179">
        <ele>518</ele>
        <time>2022-05-02T19:46:09Z</time>
      </trkpt>
      <trkpt lat="42.88998" lon="2.53167">
        <ele>516</ele>
        <time>2022-05-02T19:46:15Z</time>
      </trkpt>
      <trkpt lat="42.88957" lon="2.53164">
        <ele>510</ele>
        <time>2022-05-02T19:46:22Z</time>
      </trkpt>
      <trkpt lat="42.88949" lon="2.53162">
        <ele>509</ele>
        <time>2022-05-02T19:46:24Z</time>
      </trkpt>
      <trkpt lat="42.88939" lon="2.53155">
        <ele>508</ele>
        <time>2022-05-02T19:46:26Z</time>
      </trkpt>
      <trkpt lat="42.88924" lon="2.53139">
        <ele>507</ele>
        <time>2022-05-02T19:46:29Z</time>
      </trkpt>
      <trkpt lat="42.88918" lon="2.53127">
        <ele>507</ele>
        <time>2022-05-02T19:46:31Z</time>
      </trkpt>
      <trkpt lat="42.88916" lon="2.53112">
        <ele>508</ele>
        <time>2022-05-02T19:46:33Z</time>
      </trkpt>
      <trkpt lat="42.88918" lon="2.53096">
        <ele>509</ele>
        <time>2022-05-02T19:46:35Z</time>
      </trkpt>
      <trkpt lat="42.88922" lon="2.53078">
        <ele>511</ele>
        <time>2022-05-02T19:46:37Z</time>
      </trkpt>
      <trkpt lat="42.88932" lon="2.53054">
        <ele>512</ele>
        <time>2022-05-02T19:46:41Z</time>
      </trkpt>
      <trkpt lat="42.88934" lon="2.53041">
        <ele>512</ele>
        <time>2022-05-02T19:46:43Z</time>
      </trkpt>
      <trkpt lat="42.88934" lon="2.53018">
        <ele>511</ele>
        <time>2022-05-02T19:46:46Z</time>
      </trkpt>
      <trkpt lat="42.88932" lon="2.53007">
        <ele>511</ele>
        <time>2022-05-02T19:46:47Z</time>
      </trkpt>
      <trkpt lat="42.88927" lon="2.52996">
        <ele>510</ele>
        <time>2022-05-02T19:46:49Z</time>
      </trkpt>
      <trkpt lat="42.88903" lon="2.52955">
        <ele>507</ele>
        <time>2022-05-02T19:46:56Z</time>
      </trkpt>
      <trkpt lat="42.88858" lon="2.52857">
        <ele>503</ele>
        <time>2022-05-02T19:47:11Z</time>
      </trkpt>
      <trkpt lat="42.88828" lon="2.52774">
        <ele>501</ele>
        <time>2022-05-02T19:47:23Z</time>
      </trkpt>
      <trkpt lat="42.88821" lon="2.52757">
        <ele>500</ele>
        <time>2022-05-02T19:47:25Z</time>
      </trkpt>
      <trkpt lat="42.88809" lon="2.52735">
        <ele>500</ele>
        <time>2022-05-02T19:47:29Z</time>
      </trkpt>
      <trkpt lat="42.88764" lon="2.5266">
        <ele>496</ele>
        <time>2022-05-02T19:47:42Z</time>
      </trkpt>
      <trkpt lat="42.88728" lon="2.52589">
        <ele>493</ele>
        <time>2022-05-02T19:47:53Z</time>
      </trkpt>
      <trkpt lat="42.88717" lon="2.52557">
        <ele>490</ele>
        <time>2022-05-02T19:47:58Z</time>
      </trkpt>
      <trkpt lat="42.88716" lon="2.52544">
        <ele>489</ele>
        <time>2022-05-02T19:47:59Z</time>
      </trkpt>
      <trkpt lat="42.88723" lon="2.52488">
        <ele>489</ele>
        <time>2022-05-02T19:48:07Z</time>
      </trkpt>
      <trkpt lat="42.88738" lon="2.52421">
        <ele>487</ele>
        <time>2022-05-02T19:48:16Z</time>
      </trkpt>
      <trkpt lat="42.88734" lon="2.52392">
        <ele>483</ele>
        <time>2022-05-02T19:48:20Z</time>
      </trkpt>
      <trkpt lat="42.88734" lon="2.52376">
        <ele>481</ele>
        <time>2022-05-02T19:48:22Z</time>
      </trkpt>
      <trkpt lat="42.88735" lon="2.52357">
        <ele>480</ele>
        <time>2022-05-02T19:48:24Z</time>
      </trkpt>
      <trkpt lat="42.88737" lon="2.52346">
        <ele>480</ele>
        <time>2022-05-02T19:48:26Z</time>
      </trkpt>
      <trkpt lat="42.88746" lon="2.52318">
        <ele>483</ele>
        <time>2022-05-02T19:48:30Z</time>
      </trkpt>
      <trkpt lat="42.88747" lon="2.52307">
        <ele>483</ele>
        <time>2022-05-02T19:48:31Z</time>
      </trkpt>
      <trkpt lat="42.88747" lon="2.52296">
        <ele>483</ele>
        <time>2022-05-02T19:48:33Z</time>
      </trkpt>
      <trkpt lat="42.88742" lon="2.52281">
        <ele>481</ele>
        <time>2022-05-02T19:48:35Z</time>
      </trkpt>
      <trkpt lat="42.88741" lon="2.52269">
        <ele>480</ele>
        <time>2022-05-02T19:48:36Z</time>
      </trkpt>
      <trkpt lat="42.88742" lon="2.52256">
        <ele>480</ele>
        <time>2022-05-02T19:48:38Z</time>
      </trkpt>
      <trkpt lat="42.88751" lon="2.52225">
        <ele>478</ele>
        <time>2022-05-02T19:48:42Z</time>
      </trkpt>
      <trkpt lat="42.88757" lon="2.52212">
        <ele>476</ele>
        <time>2022-05-02T19:48:44Z</time>
      </trkpt>
      <trkpt lat="42.88766" lon="2.52203">
        <ele>474</ele>
        <time>2022-05-02T19:48:46Z</time>
      </trkpt>
      <trkpt lat="42.88775" lon="2.52199">
        <ele>473</ele>
        <time>2022-05-02T19:48:48Z</time>
      </trkpt>
      <trkpt lat="42.88785" lon="2.52201">
        <ele>474</ele>
        <time>2022-05-02T19:48:50Z</time>
      </trkpt>
      <trkpt lat="42.88817" lon="2.52215">
        <ele>477</ele>
        <time>2022-05-02T19:48:56Z</time>
      </trkpt>
      <trkpt lat="42.88834" lon="2.52229">
        <ele>481</ele>
        <time>2022-05-02T19:48:59Z</time>
      </trkpt>
      <trkpt lat="42.88842" lon="2.52231">
        <ele>481</ele>
        <time>2022-05-02T19:49:01Z</time>
      </trkpt>
      <trkpt lat="42.8886" lon="2.52232">
        <ele>480</ele>
        <time>2022-05-02T19:49:04Z</time>
      </trkpt>
      <trkpt lat="42.88913" lon="2.52241">
        <ele>479</ele>
        <time>2022-05-02T19:49:13Z</time>
      </trkpt>
      <trkpt lat="42.8894" lon="2.52241">
        <ele>480</ele>
        <time>2022-05-02T19:49:18Z</time>
      </trkpt>
      <trkpt lat="42.89024" lon="2.52221">
        <ele>483</ele>
        <time>2022-05-02T19:49:33Z</time>
      </trkpt>
      <trkpt lat="42.8903" lon="2.52217">
        <ele>483</ele>
        <time>2022-05-02T19:49:35Z</time>
      </trkpt>
      <trkpt lat="42.89035" lon="2.52207">
        <ele>484</ele>
        <time>2022-05-02T19:49:36Z</time>
      </trkpt>
      <trkpt lat="42.89036" lon="2.52198">
        <ele>484</ele>
        <time>2022-05-02T19:49:37Z</time>
      </trkpt>
      <trkpt lat="42.89034" lon="2.52192">
        <ele>483</ele>
        <time>2022-05-02T19:49:38Z</time>
      </trkpt>
      <trkpt lat="42.89021" lon="2.5218">
        <ele>480</ele>
        <time>2022-05-02T19:49:41Z</time>
      </trkpt>
      <trkpt lat="42.89005" lon="2.52172">
        <ele>477</ele>
        <time>2022-05-02T19:49:44Z</time>
      </trkpt>
      <trkpt lat="42.88968" lon="2.52164">
        <ele>471</ele>
        <time>2022-05-02T19:49:51Z</time>
      </trkpt>
      <trkpt lat="42.88963" lon="2.52157">
        <ele>470</ele>
        <time>2022-05-02T19:49:52Z</time>
      </trkpt>
      <trkpt lat="42.88962" lon="2.52144">
        <ele>470</ele>
        <time>2022-05-02T19:49:54Z</time>
      </trkpt>
      <trkpt lat="42.88964" lon="2.52131">
        <ele>469</ele>
        <time>2022-05-02T19:49:55Z</time>
      </trkpt>
      <trkpt lat="42.8897" lon="2.52119">
        <ele>470</ele>
        <time>2022-05-02T19:49:57Z</time>
      </trkpt>
      <trkpt lat="42.89011" lon="2.52071">
        <ele>474</ele>
        <time>2022-05-02T19:50:07Z</time>
      </trkpt>
      <trkpt lat="42.89014" lon="2.52063">
        <ele>475</ele>
        <time>2022-05-02T19:50:08Z</time>
      </trkpt>
      <trkpt lat="42.89014" lon="2.52051">
        <ele>475</ele>
        <time>2022-05-02T19:50:10Z</time>
      </trkpt>
      <trkpt lat="42.89009" lon="2.52037">
        <ele>474</ele>
        <time>2022-05-02T19:50:12Z</time>
      </trkpt>
      <trkpt lat="42.89002" lon="2.52028">
        <ele>474</ele>
        <time>2022-05-02T19:50:13Z</time>
      </trkpt>
      <trkpt lat="42.88994" lon="2.52024">
        <ele>474</ele>
        <time>2022-05-02T19:50:15Z</time>
      </trkpt>
      <trkpt lat="42.88986" lon="2.52026">
        <ele>475</ele>
        <time>2022-05-02T19:50:16Z</time>
      </trkpt>
      <trkpt lat="42.88917" lon="2.52064">
        <ele>470</ele>
        <time>2022-05-02T19:50:30Z</time>
      </trkpt>
      <trkpt lat="42.88849" lon="2.52084">
        <ele>467</ele>
        <time>2022-05-02T19:50:42Z</time>
      </trkpt>
      <trkpt lat="42.88812" lon="2.52088">
        <ele>467</ele>
        <time>2022-05-02T19:50:49Z</time>
      </trkpt>
      <trkpt lat="42.88768" lon="2.5209">
        <ele>468</ele>
        <time>2022-05-02T19:50:56Z</time>
      </trkpt>
      <trkpt lat="42.8867" lon="2.52094">
        <ele>463</ele>
        <time>2022-05-02T19:51:14Z</time>
      </trkpt>
      <trkpt lat="42.88641" lon="2.52099">
        <ele>464</ele>
        <time>2022-05-02T19:51:19Z</time>
      </trkpt>
      <trkpt lat="42.88617" lon="2.52109">
        <ele>463</ele>
        <time>2022-05-02T19:51:24Z</time>
      </trkpt>
      <trkpt lat="42.88597" lon="2.52122">
        <ele>462</ele>
        <time>2022-05-02T19:51:27Z</time>
      </trkpt>
      <trkpt lat="42.88578" lon="2.52146">
        <ele>457</ele>
        <time>2022-05-02T19:51:32Z</time>
      </trkpt>
      <trkpt lat="42.88572" lon="2.52159">
        <ele>454</ele>
        <time>2022-05-02T19:51:34Z</time>
      </trkpt>
      <trkpt lat="42.88569" lon="2.52172">
        <ele>452</ele>
        <time>2022-05-02T19:51:36Z</time>
      </trkpt>
      <trkpt lat="42.8856" lon="2.52236">
        <ele>445</ele>
        <time>2022-05-02T19:51:44Z</time>
      </trkpt>
      <trkpt lat="42.88557" lon="2.52245">
        <ele>444</ele>
        <time>2022-05-02T19:51:46Z</time>
      </trkpt>
      <trkpt lat="42.88552" lon="2.52251">
        <ele>443</ele>
        <time>2022-05-02T19:51:47Z</time>
      </trkpt>
      <trkpt lat="42.88539" lon="2.52251">
        <ele>443</ele>
        <time>2022-05-02T19:51:49Z</time>
      </trkpt>
      <trkpt lat="42.88531" lon="2.52247">
        <ele>444</ele>
        <time>2022-05-02T19:51:51Z</time>
      </trkpt>
      <trkpt lat="42.88511" lon="2.52228">
        <ele>446</ele>
        <time>2022-05-02T19:51:55Z</time>
      </trkpt>
      <trkpt lat="42.88502" lon="2.5221">
        <ele>448</ele>
        <time>2022-05-02T19:51:58Z</time>
      </trkpt>
      <trkpt lat="42.88466" lon="2.52067">
        <ele>444</ele>
        <time>2022-05-02T19:52:18Z</time>
      </trkpt>
      <trkpt lat="42.88465" lon="2.52055">
        <ele>443</ele>
        <time>2022-05-02T19:52:19Z</time>
      </trkpt>
      <trkpt lat="42.88467" lon="2.52042">
        <ele>443</ele>
        <time>2022-05-02T19:52:21Z</time>
      </trkpt>
      <trkpt lat="42.88471" lon="2.52029">
        <ele>443</ele>
        <time>2022-05-02T19:52:23Z</time>
      </trkpt>
      <trkpt lat="42.88486" lon="2.52001">
        <ele>445</ele>
        <time>2022-05-02T19:52:27Z</time>
      </trkpt>
      <trkpt lat="42.88497" lon="2.51984">
        <ele>445</ele>
        <time>2022-05-02T19:52:30Z</time>
      </trkpt>
      <trkpt lat="42.8852" lon="2.51959">
        <ele>447</ele>
        <time>2022-05-02T19:52:35Z</time>
      </trkpt>
      <trkpt lat="42.88565" lon="2.51917">
        <ele>449</ele>
        <time>2022-05-02T19:52:45Z</time>
      </trkpt>
      <trkpt lat="42.88612" lon="2.51854">
        <ele>447</ele>
        <time>2022-05-02T19:52:57Z</time>
      </trkpt>
      <trkpt lat="42.88624" lon="2.51848">
        <ele>447</ele>
        <time>2022-05-02T19:52:59Z</time>
      </trkpt>
      <trkpt lat="42.8866" lon="2.51842">
        <ele>450</ele>
        <time>2022-05-02T19:53:06Z</time>
      </trkpt>
      <trkpt lat="42.88674" lon="2.51837">
        <ele>451</ele>
        <time>2022-05-02T19:53:08Z</time>
      </trkpt>
      <trkpt lat="42.88685" lon="2.51832">
        <ele>453</ele>
        <time>2022-05-02T19:53:10Z</time>
      </trkpt>
      <trkpt lat="42.88692" lon="2.51826">
        <ele>454</ele>
        <time>2022-05-02T19:53:12Z</time>
      </trkpt>
      <trkpt lat="42.88718" lon="2.5179">
        <ele>456</ele>
        <time>2022-05-02T19:53:18Z</time>
      </trkpt>
      <trkpt lat="42.88744" lon="2.51738">
        <ele>454</ele>
        <time>2022-05-02T19:53:26Z</time>
      </trkpt>
      <trkpt lat="42.88749" lon="2.51727">
        <ele>455</ele>
        <time>2022-05-02T19:53:28Z</time>
      </trkpt>
      <trkpt lat="42.88754" lon="2.51726">
        <ele>456</ele>
        <time>2022-05-02T19:53:29Z</time>
      </trkpt>
      <trkpt lat="42.88798" lon="2.51689">
        <ele>465</ele>
        <time>2022-05-02T19:53:38Z</time>
      </trkpt>
      <trkpt lat="42.88806" lon="2.51679">
        <ele>466</ele>
        <time>2022-05-02T19:53:40Z</time>
      </trkpt>
      <trkpt lat="42.88811" lon="2.5167">
        <ele>466</ele>
        <time>2022-05-02T19:53:42Z</time>
      </trkpt>
      <trkpt lat="42.88843" lon="2.51601">
        <ele>471</ele>
        <time>2022-05-02T19:53:52Z</time>
      </trkpt>
      <trkpt lat="42.88854" lon="2.51588">
        <ele>472</ele>
        <time>2022-05-02T19:53:55Z</time>
      </trkpt>
      <trkpt lat="42.88885" lon="2.5158">
        <ele>475</ele>
        <time>2022-05-02T19:54:00Z</time>
      </trkpt>
      <trkpt lat="42.88912" lon="2.51566">
        <ele>478</ele>
        <time>2022-05-02T19:54:06Z</time>
      </trkpt>
      <trkpt lat="42.88963" lon="2.51522">
        <ele>483</ele>
        <time>2022-05-02T19:54:16Z</time>
      </trkpt>
      <trkpt lat="42.88971" lon="2.51518">
        <ele>483</ele>
        <time>2022-05-02T19:54:18Z</time>
      </trkpt>
      <trkpt lat="42.88986" lon="2.51519">
        <ele>482</ele>
        <time>2022-05-02T19:54:21Z</time>
      </trkpt>
      <trkpt lat="42.88993" lon="2.51524">
        <ele>482</ele>
        <time>2022-05-02T19:54:22Z</time>
      </trkpt>
      <trkpt lat="42.89018" lon="2.51553">
        <ele>484</ele>
        <time>2022-05-02T19:54:28Z</time>
      </trkpt>
      <trkpt lat="42.89034" lon="2.51564">
        <ele>484</ele>
        <time>2022-05-02T19:54:31Z</time>
      </trkpt>
      <trkpt lat="42.89043" lon="2.51567">
        <ele>484</ele>
        <time>2022-05-02T19:54:33Z</time>
      </trkpt>
      <trkpt lat="42.89053" lon="2.51568">
        <ele>484</ele>
        <time>2022-05-02T19:54:34Z</time>
      </trkpt>
      <trkpt lat="42.89067" lon="2.51562">
        <ele>484</ele>
        <time>2022-05-02T19:54:37Z</time>
      </trkpt>
      <trkpt lat="42.89084" lon="2.51552">
        <ele>484</ele>
        <time>2022-05-02T19:54:40Z</time>
      </trkpt>
      <trkpt lat="42.89094" lon="2.51541">
        <ele>485</ele>
        <time>2022-05-02T19:54:43Z</time>
      </trkpt>
      <trkpt lat="42.89125" lon="2.51505">
        <ele>485</ele>
        <time>2022-05-02T19:54:50Z</time>
      </trkpt>
      <trkpt lat="42.89133" lon="2.51493">
        <ele>486</ele>
        <time>2022-05-02T19:54:52Z</time>
      </trkpt>
      <trkpt lat="42.89143" lon="2.5147">
        <ele>488</ele>
        <time>2022-05-02T19:54:55Z</time>
      </trkpt>
      <trkpt lat="42.89192" lon="2.5134">
        <ele>501</ele>
        <time>2022-05-02T19:55:14Z</time>
      </trkpt>
      <trkpt lat="42.89203" lon="2.51319">
        <ele>503</ele>
        <time>2022-05-02T19:55:18Z</time>
      </trkpt>
      <trkpt lat="42.89216" lon="2.51301">
        <ele>505</ele>
        <time>2022-05-02T19:55:21Z</time>
      </trkpt>
      <trkpt lat="42.89233" lon="2.51287">
        <ele>505</ele>
        <time>2022-05-02T19:55:25Z</time>
      </trkpt>
      <trkpt lat="42.89248" lon="2.51268">
        <ele>505</ele>
        <time>2022-05-02T19:55:28Z</time>
      </trkpt>
      <trkpt lat="42.89274" lon="2.51218">
        <ele>512</ele>
        <time>2022-05-02T19:55:36Z</time>
      </trkpt>
      <trkpt lat="42.89282" lon="2.51195">
        <ele>513</ele>
        <time>2022-05-02T19:55:40Z</time>
      </trkpt>
      <trkpt lat="42.89303" lon="2.51171">
        <ele>514</ele>
        <time>2022-05-02T19:55:45Z</time>
      </trkpt>
      <trkpt lat="42.89326" lon="2.51149">
        <ele>514</ele>
        <time>2022-05-02T19:55:50Z</time>
      </trkpt>
      <trkpt lat="42.89331" lon="2.51141">
        <ele>513</ele>
        <time>2022-05-02T19:55:51Z</time>
      </trkpt>
      <trkpt lat="42.89333" lon="2.51133">
        <ele>513</ele>
        <time>2022-05-02T19:55:52Z</time>
      </trkpt>
      <trkpt lat="42.89332" lon="2.51126">
        <ele>513</ele>
        <time>2022-05-02T19:55:53Z</time>
      </trkpt>
      <trkpt lat="42.89324" lon="2.51107">
        <ele>515</ele>
        <time>2022-05-02T19:55:56Z</time>
      </trkpt>
      <trkpt lat="42.89324" lon="2.51093">
        <ele>515</ele>
        <time>2022-05-02T19:55:58Z</time>
      </trkpt>
      <trkpt lat="42.89327" lon="2.51077">
        <ele>515</ele>
        <time>2022-05-02T19:56:00Z</time>
      </trkpt>
      <trkpt lat="42.89329" lon="2.51053">
        <ele>516</ele>
        <time>2022-05-02T19:56:03Z</time>
      </trkpt>
      <trkpt lat="42.89329" lon="2.51035">
        <ele>517</ele>
        <time>2022-05-02T19:56:05Z</time>
      </trkpt>
      <trkpt lat="42.89325" lon="2.51007">
        <ele>519</ele>
        <time>2022-05-02T19:56:09Z</time>
      </trkpt>
      <trkpt lat="42.89322" lon="2.50997">
        <ele>520</ele>
        <time>2022-05-02T19:56:10Z</time>
      </trkpt>
      <trkpt lat="42.89307" lon="2.5097">
        <ele>526</ele>
        <time>2022-05-02T19:56:15Z</time>
      </trkpt>
      <trkpt lat="42.89306" lon="2.50962">
        <ele>527</ele>
        <time>2022-05-02T19:56:16Z</time>
      </trkpt>
      <trkpt lat="42.89308" lon="2.50952">
        <ele>528</ele>
        <time>2022-05-02T19:56:17Z</time>
      </trkpt>
      <trkpt lat="42.89314" lon="2.50942">
        <ele>528</ele>
        <time>2022-05-02T19:56:19Z</time>
      </trkpt>
      <trkpt lat="42.89321" lon="2.50938">
        <ele>528</ele>
        <time>2022-05-02T19:56:20Z</time>
      </trkpt>
      <trkpt lat="42.89331" lon="2.5094">
        <ele>527</ele>
        <time>2022-05-02T19:56:22Z</time>
      </trkpt>
      <trkpt lat="42.89336" lon="2.50944">
        <ele>528</ele>
        <time>2022-05-02T19:56:23Z</time>
      </trkpt>
      <trkpt lat="42.8934" lon="2.50951">
        <ele>528</ele>
        <time>2022-05-02T19:56:24Z</time>
      </trkpt>
      <trkpt lat="42.89366" lon="2.51016">
        <ele>529</ele>
        <time>2022-05-02T19:56:34Z</time>
      </trkpt>
      <trkpt lat="42.8937" lon="2.51028">
        <ele>529</ele>
        <time>2022-05-02T19:56:36Z</time>
      </trkpt>
      <trkpt lat="42.89375" lon="2.51059">
        <ele>528</ele>
        <time>2022-05-02T19:56:40Z</time>
      </trkpt>
      <trkpt lat="42.89378" lon="2.51068">
        <ele>528</ele>
        <time>2022-05-02T19:56:41Z</time>
      </trkpt>
      <trkpt lat="42.89382" lon="2.51073">
        <ele>528</ele>
        <time>2022-05-02T19:56:42Z</time>
      </trkpt>
      <trkpt lat="42.89411" lon="2.51083">
        <ele>535</ele>
        <time>2022-05-02T19:56:47Z</time>
      </trkpt>
      <trkpt lat="42.89417" lon="2.51088">
        <ele>537</ele>
        <time>2022-05-02T19:56:49Z</time>
      </trkpt>
      <trkpt lat="42.8942" lon="2.51096">
        <ele>539</ele>
        <time>2022-05-02T19:56:50Z</time>
      </trkpt>
      <trkpt lat="42.89421" lon="2.51106">
        <ele>540</ele>
        <time>2022-05-02T19:56:51Z</time>
      </trkpt>
      <trkpt lat="42.89418" lon="2.51115">
        <ele>539</ele>
        <time>2022-05-02T19:56:52Z</time>
      </trkpt>
      <trkpt lat="42.89386" lon="2.5117">
        <ele>532</ele>
        <time>2022-05-02T19:57:01Z</time>
      </trkpt>
      <trkpt lat="42.89378" lon="2.51187">
        <ele>531</ele>
        <time>2022-05-02T19:57:04Z</time>
      </trkpt>
      <trkpt lat="42.8936" lon="2.51244">
        <ele>533</ele>
        <time>2022-05-02T19:57:12Z</time>
      </trkpt>
      <trkpt lat="42.89352" lon="2.51275">
        <ele>533</ele>
        <time>2022-05-02T19:57:16Z</time>
      </trkpt>
      <trkpt lat="42.89351" lon="2.51289">
        <ele>534</ele>
        <time>2022-05-02T19:57:18Z</time>
      </trkpt>
      <trkpt lat="42.89351" lon="2.51304">
        <ele>535</ele>
        <time>2022-05-02T19:57:20Z</time>
      </trkpt>
      <trkpt lat="42.89355" lon="2.51332">
        <ele>539</ele>
        <time>2022-05-02T19:57:24Z</time>
      </trkpt>
      <trkpt lat="42.89359" lon="2.51347">
        <ele>539</ele>
        <time>2022-05-02T19:57:26Z</time>
      </trkpt>
      <trkpt lat="42.8941" lon="2.51445">
        <ele>542</ele>
        <time>2022-05-02T19:57:42Z</time>
      </trkpt>
      <trkpt lat="42.89415" lon="2.51449">
        <ele>543</ele>
        <time>2022-05-02T19:57:43Z</time>
      </trkpt>
      <trkpt lat="42.89421" lon="2.51451">
        <ele>542</ele>
        <time>2022-05-02T19:57:44Z</time>
      </trkpt>
      <trkpt lat="42.89426" lon="2.5145">
        <ele>542</ele>
        <time>2022-05-02T19:57:45Z</time>
      </trkpt>
      <trkpt lat="42.89433" lon="2.51445">
        <ele>542</ele>
        <time>2022-05-02T19:57:46Z</time>
      </trkpt>
      <trkpt lat="42.89494" lon="2.51373">
        <ele>556</ele>
        <time>2022-05-02T19:58:01Z</time>
      </trkpt>
      <trkpt lat="42.89514" lon="2.51354">
        <ele>561</ele>
        <time>2022-05-02T19:58:05Z</time>
      </trkpt>
      <trkpt lat="42.89558" lon="2.51324">
        <ele>569</ele>
        <time>2022-05-02T19:58:14Z</time>
      </trkpt>
      <trkpt lat="42.89589" lon="2.51315">
        <ele>573</ele>
        <time>2022-05-02T19:58:19Z</time>
      </trkpt>
      <trkpt lat="42.89601" lon="2.51315">
        <ele>574</ele>
        <time>2022-05-02T19:58:21Z</time>
      </trkpt>
      <trkpt lat="42.89645" lon="2.51322">
        <ele>574</ele>
        <time>2022-05-02T19:58:29Z</time>
      </trkpt>
      <trkpt lat="42.89667" lon="2.51322">
        <ele>575</ele>
        <time>2022-05-02T19:58:33Z</time>
      </trkpt>
      <trkpt lat="42.89681" lon="2.5132">
        <ele>575</ele>
        <time>2022-05-02T19:58:36Z</time>
      </trkpt>
      <trkpt lat="42.89706" lon="2.5131">
        <ele>578</ele>
        <time>2022-05-02T19:58:40Z</time>
      </trkpt>
      <trkpt lat="42.89855" lon="2.512">
        <ele>595</ele>
        <time>2022-05-02T19:59:10Z</time>
      </trkpt>
      <trkpt lat="42.89869" lon="2.5118">
        <ele>598</ele>
        <time>2022-05-02T19:59:14Z</time>
      </trkpt>
      <trkpt lat="42.89877" lon="2.51161">
        <ele>602</ele>
        <time>2022-05-02T19:59:17Z</time>
      </trkpt>
      <trkpt lat="42.89882" lon="2.51153">
        <ele>604</ele>
        <time>2022-05-02T19:59:18Z</time>
      </trkpt>
      <trkpt lat="42.89889" lon="2.51149">
        <ele>604</ele>
        <time>2022-05-02T19:59:20Z</time>
      </trkpt>
      <trkpt lat="42.89906" lon="2.51144">
        <ele>604</ele>
        <time>2022-05-02T19:59:23Z</time>
      </trkpt>
      <trkpt lat="42.8997" lon="2.51133">
        <ele>609</ele>
        <time>2022-05-02T19:59:34Z</time>
      </trkpt>
      <trkpt lat="42.90063" lon="2.51104">
        <ele>626</ele>
        <time>2022-05-02T19:59:51Z</time>
      </trkpt>
      <trkpt lat="42.90095" lon="2.51092">
        <ele>629</ele>
        <time>2022-05-02T19:59:57Z</time>
      </trkpt>
      <trkpt lat="42.90119" lon="2.51078">
        <ele>632</ele>
        <time>2022-05-02T20:00:02Z</time>
      </trkpt>
      <trkpt lat="42.90161" lon="2.51048">
        <ele>637</ele>
        <time>2022-05-02T20:00:10Z</time>
      </trkpt>
      <trkpt lat="42.90175" lon="2.51042">
        <ele>638</ele>
        <time>2022-05-02T20:00:13Z</time>
      </trkpt>
      <trkpt lat="42.90203" lon="2.51035">
        <ele>639</ele>
        <time>2022-05-02T20:00:18Z</time>
      </trkpt>
      <trkpt lat="42.9021" lon="2.51031">
        <ele>639</ele>
        <time>2022-05-02T20:00:19Z</time>
      </trkpt>
      <trkpt lat="42.90231" lon="2.51006">
        <ele>638</ele>
        <time>2022-05-02T20:00:24Z</time>
      </trkpt>
      <trkpt lat="42.90238" lon="2.50996">
        <ele>638</ele>
        <time>2022-05-02T20:00:26Z</time>
      </trkpt>
      <trkpt lat="42.90256" lon="2.5096">
        <ele>643</ele>
        <time>2022-05-02T20:00:32Z</time>
      </trkpt>
      <trkpt lat="42.9026" lon="2.50945">
        <ele>645</ele>
        <time>2022-05-02T20:00:34Z</time>
      </trkpt>
      <trkpt lat="42.90262" lon="2.50932">
        <ele>647</ele>
        <time>2022-05-02T20:00:35Z</time>
      </trkpt>
      <trkpt lat="42.90262" lon="2.50921">
        <ele>648</ele>
        <time>2022-05-02T20:00:37Z</time>
      </trkpt>
      <trkpt lat="42.90259" lon="2.50873">
        <ele>656</ele>
        <time>2022-05-02T20:00:43Z</time>
      </trkpt>
      <trkpt lat="42.90261" lon="2.50865">
        <ele>658</ele>
        <time>2022-05-02T20:00:44Z</time>
      </trkpt>
      <trkpt lat="42.90264" lon="2.50859">
        <ele>659</ele>
        <time>2022-05-02T20:00:45Z</time>
      </trkpt>
      <trkpt lat="42.90276" lon="2.50848">
        <ele>660</ele>
        <time>2022-05-02T20:00:48Z</time>
      </trkpt>
      <trkpt lat="42.90286" lon="2.50844">
        <ele>660</ele>
        <time>2022-05-02T20:00:50Z</time>
      </trkpt>
      <trkpt lat="42.90323" lon="2.50838">
        <ele>658</ele>
        <time>2022-05-02T20:00:56Z</time>
      </trkpt>
      <trkpt lat="42.90334" lon="2.50834">
        <ele>658</ele>
        <time>2022-05-02T20:00:58Z</time>
      </trkpt>
      <trkpt lat="42.90354" lon="2.50822">
        <ele>664</ele>
        <time>2022-05-02T20:01:02Z</time>
      </trkpt>
      <trkpt lat="42.90368" lon="2.50807">
        <ele>669</ele>
        <time>2022-05-02T20:01:05Z</time>
      </trkpt>
      <trkpt lat="42.9038" lon="2.50792">
        <ele>672</ele>
        <time>2022-05-02T20:01:08Z</time>
      </trkpt>
      <trkpt lat="42.90421" lon="2.50715">
        <ele>678</ele>
        <time>2022-05-02T20:01:21Z</time>
      </trkpt>
      <trkpt lat="42.90448" lon="2.50696">
        <ele>683</ele>
        <time>2022-05-02T20:01:26Z</time>
      </trkpt>
      <trkpt lat="42.90454" lon="2.50689">
        <ele>683</ele>
        <time>2022-05-02T20:01:27Z</time>
      </trkpt>
      <trkpt lat="42.90491" lon="2.50629">
        <ele>683</ele>
        <time>2022-05-02T20:01:38Z</time>
      </trkpt>
      <trkpt lat="42.90505" lon="2.50613">
        <ele>682</ele>
        <time>2022-05-02T20:01:41Z</time>
      </trkpt>
      <trkpt lat="42.90519" lon="2.50599">
        <ele>682</ele>
        <time>2022-05-02T20:01:44Z</time>
      </trkpt>
      <trkpt lat="42.9054" lon="2.50586">
        <ele>681</ele>
        <time>2022-05-02T20:01:48Z</time>
      </trkpt>
      <trkpt lat="42.90556" lon="2.50579">
        <ele>682</ele>
        <time>2022-05-02T20:01:51Z</time>
      </trkpt>
      <trkpt lat="42.90577" lon="2.50577">
        <ele>681</ele>
        <time>2022-05-02T20:01:55Z</time>
      </trkpt>
      <trkpt lat="42.9059" lon="2.50579">
        <ele>682</ele>
        <time>2022-05-02T20:01:57Z</time>
      </trkpt>
      <trkpt lat="42.90608" lon="2.50586">
        <ele>683</ele>
        <time>2022-05-02T20:02:01Z</time>
      </trkpt>
      <trkpt lat="42.90624" lon="2.50599">
        <ele>685</ele>
        <time>2022-05-02T20:02:04Z</time>
      </trkpt>
      <trkpt lat="42.90635" lon="2.50613">
        <ele>687</ele>
        <time>2022-05-02T20:02:07Z</time>
      </trkpt>
      <trkpt lat="42.90662" lon="2.50652">
        <ele>687</ele>
        <time>2022-05-02T20:02:14Z</time>
      </trkpt>
      <trkpt lat="42.90673" lon="2.50679">
        <ele>688</ele>
        <time>2022-05-02T20:02:18Z</time>
      </trkpt>
      <trkpt lat="42.90703" lon="2.50761">
        <ele>695</ele>
        <time>2022-05-02T20:02:29Z</time>
      </trkpt>
      <trkpt lat="42.90729" lon="2.50842">
        <ele>700</ele>
        <time>2022-05-02T20:02:41Z</time>
      </trkpt>
      <trkpt lat="42.90744" lon="2.5092">
        <ele>700</ele>
        <time>2022-05-02T20:02:52Z</time>
      </trkpt>
      <trkpt lat="42.90748" lon="2.50932">
        <ele>700</ele>
        <time>2022-05-02T20:02:53Z</time>
      </trkpt>
      <trkpt lat="42.90753" lon="2.5094">
        <ele>700</ele>
        <time>2022-05-02T20:02:55Z</time>
      </trkpt>
      <trkpt lat="42.90761" lon="2.50944">
        <ele>700</ele>
        <time>2022-05-02T20:02:56Z</time>
      </trkpt>
      <trkpt lat="42.90767" lon="2.50941">
        <ele>701</ele>
        <time>2022-05-02T20:02:57Z</time>
      </trkpt>
      <trkpt lat="42.90772" lon="2.50934">
        <ele>701</ele>
        <time>2022-05-02T20:02:59Z</time>
      </trkpt>
      <trkpt lat="42.90776" lon="2.50921">
        <ele>701</ele>
        <time>2022-05-02T20:03:00Z</time>
      </trkpt>
      <trkpt lat="42.90777" lon="2.50906">
        <ele>701</ele>
        <time>2022-05-02T20:03:02Z</time>
      </trkpt>
      <trkpt lat="42.90775" lon="2.50893">
        <ele>701</ele>
        <time>2022-05-02T20:03:04Z</time>
      </trkpt>
      <trkpt lat="42.90767" lon="2.50856">
        <ele>700</ele>
        <time>2022-05-02T20:03:09Z</time>
      </trkpt>
      <trkpt lat="42.90764" lon="2.50839">
        <ele>700</ele>
        <time>2022-05-02T20:03:11Z</time>
      </trkpt>
      <trkpt lat="42.90763" lon="2.5082">
        <ele>699</ele>
        <time>2022-05-02T20:03:14Z</time>
      </trkpt>
      <trkpt lat="42.90763" lon="2.50771">
        <ele>697</ele>
        <time>2022-05-02T20:03:20Z</time>
      </trkpt>
      <trkpt lat="42.90754" lon="2.50723">
        <ele>697</ele>
        <time>2022-05-02T20:03:27Z</time>
      </trkpt>
      <trkpt lat="42.90755" lon="2.50711">
        <ele>697</ele>
        <time>2022-05-02T20:03:28Z</time>
      </trkpt>
      <trkpt lat="42.90758" lon="2.50704">
        <ele>697</ele>
        <time>2022-05-02T20:03:29Z</time>
      </trkpt>
      <trkpt lat="42.90765" lon="2.50701">
        <ele>697</ele>
        <time>2022-05-02T20:03:31Z</time>
      </trkpt>
      <trkpt lat="42.90772" lon="2.50702">
        <ele>697</ele>
        <time>2022-05-02T20:03:32Z</time>
      </trkpt>
      <trkpt lat="42.90779" lon="2.50708">
        <ele>697</ele>
        <time>2022-05-02T20:03:33Z</time>
      </trkpt>
      <trkpt lat="42.90783" lon="2.50722">
        <ele>697</ele>
        <time>2022-05-02T20:03:35Z</time>
      </trkpt>
      <trkpt lat="42.90786" lon="2.50735">
        <ele>697</ele>
        <time>2022-05-02T20:03:37Z</time>
      </trkpt>
      <trkpt lat="42.90788" lon="2.50744">
        <ele>697</ele>
        <time>2022-05-02T20:03:38Z</time>
      </trkpt>
      <trkpt lat="42.90797" lon="2.50759">
        <ele>698</ele>
        <time>2022-05-02T20:03:41Z</time>
      </trkpt>
      <trkpt lat="42.9081" lon="2.50771">
        <ele>700</ele>
        <time>2022-05-02T20:03:44Z</time>
      </trkpt>
      <trkpt lat="42.90831" lon="2.50778">
        <ele>702</ele>
        <time>2022-05-02T20:03:47Z</time>
      </trkpt>
      <trkpt lat="42.9087" lon="2.50786">
        <ele>697</ele>
        <time>2022-05-02T20:03:55Z</time>
      </trkpt>
      <trkpt lat="42.9088" lon="2.5079">
        <ele>695</ele>
        <time>2022-05-02T20:03:56Z</time>
      </trkpt>
      <trkpt lat="42.90888" lon="2.50795">
        <ele>694</ele>
        <time>2022-05-02T20:03:58Z</time>
      </trkpt>
      <trkpt lat="42.909" lon="2.50809">
        <ele>693</ele>
        <time>2022-05-02T20:04:01Z</time>
      </trkpt>
      <trkpt lat="42.90904" lon="2.50817">
        <ele>693</ele>
        <time>2022-05-02T20:04:02Z</time>
      </trkpt>
      <trkpt lat="42.90906" lon="2.50831">
        <ele>694</ele>
        <time>2022-05-02T20:04:04Z</time>
      </trkpt>
      <trkpt lat="42.90906" lon="2.50846">
        <ele>694</ele>
        <time>2022-05-02T20:04:06Z</time>
      </trkpt>
      <trkpt lat="42.90905" lon="2.5086">
        <ele>694</ele>
        <time>2022-05-02T20:04:08Z</time>
      </trkpt>
      <trkpt lat="42.90895" lon="2.50904">
        <ele>695</ele>
        <time>2022-05-02T20:04:14Z</time>
      </trkpt>
      <trkpt lat="42.90894" lon="2.5093">
        <ele>697</ele>
        <time>2022-05-02T20:04:17Z</time>
      </trkpt>
      <trkpt lat="42.90897" lon="2.50943">
        <ele>699</ele>
        <time>2022-05-02T20:04:19Z</time>
      </trkpt>
      <trkpt lat="42.90906" lon="2.50959">
        <ele>701</ele>
        <time>2022-05-02T20:04:21Z</time>
      </trkpt>
      <trkpt lat="42.90913" lon="2.50962">
        <ele>701</ele>
        <time>2022-05-02T20:04:23Z</time>
      </trkpt>
      <trkpt lat="42.9092" lon="2.50961">
        <ele>701</ele>
        <time>2022-05-02T20:04:24Z</time>
      </trkpt>
      <trkpt lat="42.90926" lon="2.50958">
        <ele>700</ele>
        <time>2022-05-02T20:04:25Z</time>
      </trkpt>
      <trkpt lat="42.90945" lon="2.50943">
        <ele>696</ele>
        <time>2022-05-02T20:04:29Z</time>
      </trkpt>
      <trkpt lat="42.90974" lon="2.50922">
        <ele>689</ele>
        <time>2022-05-02T20:04:35Z</time>
      </trkpt>
      <trkpt lat="42.91031" lon="2.5089">
        <ele>684</ele>
        <time>2022-05-02T20:04:46Z</time>
      </trkpt>
      <trkpt lat="42.91052" lon="2.50873">
        <ele>683</ele>
        <time>2022-05-02T20:04:50Z</time>
      </trkpt>
      <trkpt lat="42.91088" lon="2.50838">
        <ele>678</ele>
        <time>2022-05-02T20:04:58Z</time>
      </trkpt>
      <trkpt lat="42.91118" lon="2.50818">
        <ele>678</ele>
        <time>2022-05-02T20:05:04Z</time>
      </trkpt>
      <trkpt lat="42.91148" lon="2.50803">
        <ele>678</ele>
        <time>2022-05-02T20:05:10Z</time>
      </trkpt>
      <trkpt lat="42.91153" lon="2.50795">
        <ele>678</ele>
        <time>2022-05-02T20:05:11Z</time>
      </trkpt>
      <trkpt lat="42.91154" lon="2.50786">
        <ele>677</ele>
        <time>2022-05-02T20:05:12Z</time>
      </trkpt>
      <trkpt lat="42.91152" lon="2.50748">
        <ele>672</ele>
        <time>2022-05-02T20:05:17Z</time>
      </trkpt>
      <trkpt lat="42.91153" lon="2.50725">
        <ele>669</ele>
        <time>2022-05-02T20:05:20Z</time>
      </trkpt>
      <trkpt lat="42.91157" lon="2.50716">
        <ele>668</ele>
        <time>2022-05-02T20:05:22Z</time>
      </trkpt>
      <trkpt lat="42.91165" lon="2.50704">
        <ele>666</ele>
        <time>2022-05-02T20:05:24Z</time>
      </trkpt>
      <trkpt lat="42.91178" lon="2.50691">
        <ele>665</ele>
        <time>2022-05-02T20:05:27Z</time>
      </trkpt>
      <trkpt lat="42.91195" lon="2.5068">
        <ele>663</ele>
        <time>2022-05-02T20:05:30Z</time>
      </trkpt>
      <trkpt lat="42.91209" lon="2.50673">
        <ele>662</ele>
        <time>2022-05-02T20:05:33Z</time>
      </trkpt>
      <trkpt lat="42.91227" lon="2.50668">
        <ele>661</ele>
        <time>2022-05-02T20:05:36Z</time>
      </trkpt>
      <trkpt lat="42.91257" lon="2.50666">
        <ele>661</ele>
        <time>2022-05-02T20:05:41Z</time>
      </trkpt>
      <trkpt lat="42.91284" lon="2.50672">
        <ele>660</ele>
        <time>2022-05-02T20:05:46Z</time>
      </trkpt>
      <trkpt lat="42.91297" lon="2.50678">
        <ele>661</ele>
        <time>2022-05-02T20:05:48Z</time>
      </trkpt>
      <trkpt lat="42.91322" lon="2.50691">
        <ele>663</ele>
        <time>2022-05-02T20:05:53Z</time>
      </trkpt>
      <trkpt lat="42.91351" lon="2.50703">
        <ele>664</ele>
        <time>2022-05-02T20:05:59Z</time>
      </trkpt>
      <trkpt lat="42.91381" lon="2.50706">
        <ele>663</ele>
        <time>2022-05-02T20:06:04Z</time>
      </trkpt>
      <trkpt lat="42.91397" lon="2.50705">
        <ele>662</ele>
        <time>2022-05-02T20:06:07Z</time>
      </trkpt>
      <trkpt lat="42.91405" lon="2.50701">
        <ele>661</ele>
        <time>2022-05-02T20:06:08Z</time>
      </trkpt>
      <trkpt lat="42.91415" lon="2.50686">
        <ele>657</ele>
        <time>2022-05-02T20:06:11Z</time>
      </trkpt>
      <trkpt lat="42.91419" lon="2.5067">
        <ele>654</ele>
        <time>2022-05-02T20:06:13Z</time>
      </trkpt>
      <trkpt lat="42.91418" lon="2.50639">
        <ele>658</ele>
        <time>2022-05-02T20:06:17Z</time>
      </trkpt>
      <trkpt lat="42.91419" lon="2.5063">
        <ele>659</ele>
        <time>2022-05-02T20:06:18Z</time>
      </trkpt>
      <trkpt lat="42.91423" lon="2.50621">
        <ele>660</ele>
        <time>2022-05-02T20:06:20Z</time>
      </trkpt>
      <trkpt lat="42.9143" lon="2.50615">
        <ele>661</ele>
        <time>2022-05-02T20:06:21Z</time>
      </trkpt>
      <trkpt lat="42.91437" lon="2.50612">
        <ele>660</ele>
        <time>2022-05-02T20:06:23Z</time>
      </trkpt>
      <trkpt lat="42.91445" lon="2.50612">
        <ele>659</ele>
        <time>2022-05-02T20:06:24Z</time>
      </trkpt>
      <trkpt lat="42.9148" lon="2.50621">
        <ele>653</ele>
        <time>2022-05-02T20:06:30Z</time>
      </trkpt>
      <trkpt lat="42.91496" lon="2.50619">
        <ele>652</ele>
        <time>2022-05-02T20:06:33Z</time>
      </trkpt>
      <trkpt lat="42.91514" lon="2.50608">
        <ele>650</ele>
        <time>2022-05-02T20:06:37Z</time>
      </trkpt>
      <trkpt lat="42.91539" lon="2.50597">
        <ele>646</ele>
        <time>2022-05-02T20:06:41Z</time>
      </trkpt>
      <trkpt lat="42.91599" lon="2.50566">
        <ele>636</ele>
        <time>2022-05-02T20:06:53Z</time>
      </trkpt>
      <trkpt lat="42.91626" lon="2.50549">
        <ele>631</ele>
        <time>2022-05-02T20:06:58Z</time>
      </trkpt>
      <trkpt lat="42.91644" lon="2.5053">
        <ele>627</ele>
        <time>2022-05-02T20:07:02Z</time>
      </trkpt>
      <trkpt lat="42.9165" lon="2.50518">
        <ele>625</ele>
        <time>2022-05-02T20:07:04Z</time>
      </trkpt>
      <trkpt lat="42.91652" lon="2.5051">
        <ele>625</ele>
        <time>2022-05-02T20:07:05Z</time>
      </trkpt>
      <trkpt lat="42.9165" lon="2.50484">
        <ele>626</ele>
        <time>2022-05-02T20:07:09Z</time>
      </trkpt>
      <trkpt lat="42.9163" lon="2.50355">
        <ele>632</ele>
        <time>2022-05-02T20:07:26Z</time>
      </trkpt>
      <trkpt lat="42.91632" lon="2.50334">
        <ele>631</ele>
        <time>2022-05-02T20:07:28Z</time>
      </trkpt>
      <trkpt lat="42.91637" lon="2.50324">
        <ele>631</ele>
        <time>2022-05-02T20:07:30Z</time>
      </trkpt>
      <trkpt lat="42.91643" lon="2.50317">
        <ele>631</ele>
        <time>2022-05-02T20:07:31Z</time>
      </trkpt>
      <trkpt lat="42.9165" lon="2.50314">
        <ele>630</ele>
        <time>2022-05-02T20:07:33Z</time>
      </trkpt>
      <trkpt lat="42.91659" lon="2.50314">
        <ele>629</ele>
        <time>2022-05-02T20:07:34Z</time>
      </trkpt>
      <trkpt lat="42.91673" lon="2.50321">
        <ele>627</ele>
        <time>2022-05-02T20:07:37Z</time>
      </trkpt>
      <trkpt lat="42.9168" lon="2.50329">
        <ele>627</ele>
        <time>2022-05-02T20:07:39Z</time>
      </trkpt>
      <trkpt lat="42.91708" lon="2.50382">
        <ele>623</ele>
        <time>2022-05-02T20:07:47Z</time>
      </trkpt>
      <trkpt lat="42.91718" lon="2.50397">
        <ele>620</ele>
        <time>2022-05-02T20:07:50Z</time>
      </trkpt>
      <trkpt lat="42.9174" lon="2.5042">
        <ele>615</ele>
        <time>2022-05-02T20:07:55Z</time>
      </trkpt>
      <trkpt lat="42.91761" lon="2.50433">
        <ele>614</ele>
        <time>2022-05-02T20:07:59Z</time>
      </trkpt>
      <trkpt lat="42.91799" lon="2.50441">
        <ele>615</ele>
        <time>2022-05-02T20:08:06Z</time>
      </trkpt>
      <trkpt lat="42.91824" lon="2.50451">
        <ele>614</ele>
        <time>2022-05-02T20:08:10Z</time>
      </trkpt>
      <trkpt lat="42.91843" lon="2.50463">
        <ele>612</ele>
        <time>2022-05-02T20:08:14Z</time>
      </trkpt>
      <trkpt lat="42.91927" lon="2.50525">
        <ele>602</ele>
        <time>2022-05-02T20:08:31Z</time>
      </trkpt>
      <trkpt lat="42.9195" lon="2.50539">
        <ele>599</ele>
        <time>2022-05-02T20:08:35Z</time>
      </trkpt>
      <trkpt lat="42.9196" lon="2.50543">
        <ele>598</ele>
        <time>2022-05-02T20:08:37Z</time>
      </trkpt>
      <trkpt lat="42.91979" lon="2.50543">
        <ele>598</ele>
        <time>2022-05-02T20:08:41Z</time>
      </trkpt>
      <trkpt lat="42.92026" lon="2.50531">
        <ele>597</ele>
        <time>2022-05-02T20:08:49Z</time>
      </trkpt>
      <trkpt lat="42.92066" lon="2.50531">
        <ele>592</ele>
        <time>2022-05-02T20:08:56Z</time>
      </trkpt>
      <trkpt lat="42.92083" lon="2.50529">
        <ele>590</ele>
        <time>2022-05-02T20:08:59Z</time>
      </trkpt>
      <trkpt lat="42.92093" lon="2.50525">
        <ele>589</ele>
        <time>2022-05-02T20:09:01Z</time>
      </trkpt>
      <trkpt lat="42.92109" lon="2.50512">
        <ele>588</ele>
        <time>2022-05-02T20:09:05Z</time>
      </trkpt>
      <trkpt lat="42.92115" lon="2.50502">
        <ele>588</ele>
        <time>2022-05-02T20:09:06Z</time>
      </trkpt>
      <trkpt lat="42.92119" lon="2.50468">
        <ele>590</ele>
        <time>2022-05-02T20:09:11Z</time>
      </trkpt>
      <trkpt lat="42.92121" lon="2.50459">
        <ele>590</ele>
        <time>2022-05-02T20:09:12Z</time>
      </trkpt>
      <trkpt lat="42.92126" lon="2.50452">
        <ele>589</ele>
        <time>2022-05-02T20:09:13Z</time>
      </trkpt>
      <trkpt lat="42.92157" lon="2.5043">
        <ele>582</ele>
        <time>2022-05-02T20:09:19Z</time>
      </trkpt>
      <trkpt lat="42.92167" lon="2.50416">
        <ele>580</ele>
        <time>2022-05-02T20:09:22Z</time>
      </trkpt>
      <trkpt lat="42.922" lon="2.50341">
        <ele>580</ele>
        <time>2022-05-02T20:09:33Z</time>
      </trkpt>
      <trkpt lat="42.92207" lon="2.50306">
        <ele>578</ele>
        <time>2022-05-02T20:09:38Z</time>
      </trkpt>
      <trkpt lat="42.9221" lon="2.50224">
        <ele>575</ele>
        <time>2022-05-02T20:09:49Z</time>
      </trkpt>
      <trkpt lat="42.92216" lon="2.50176">
        <ele>572</ele>
        <time>2022-05-02T20:09:55Z</time>
      </trkpt>
      <trkpt lat="42.92217" lon="2.50157">
        <ele>571</ele>
        <time>2022-05-02T20:09:58Z</time>
      </trkpt>
      <trkpt lat="42.92214" lon="2.5013">
        <ele>571</ele>
        <time>2022-05-02T20:10:01Z</time>
      </trkpt>
      <trkpt lat="42.92213" lon="2.50126">
        <ele>570</ele>
        <time>2022-05-02T20:10:02Z</time>
      </trkpt>
      <trkpt lat="42.92208" lon="2.50109">
        <ele>570</ele>
        <time>2022-05-02T20:10:04Z</time>
      </trkpt>
      <trkpt lat="42.92202" lon="2.50084">
        <ele>569</ele>
        <time>2022-05-02T20:10:08Z</time>
      </trkpt>
      <trkpt lat="42.92202" lon="2.50075">
        <ele>569</ele>
        <time>2022-05-02T20:10:09Z</time>
      </trkpt>
      <trkpt lat="42.92204" lon="2.50066">
        <ele>570</ele>
        <time>2022-05-02T20:10:10Z</time>
      </trkpt>
      <trkpt lat="42.92208" lon="2.50058">
        <ele>570</ele>
        <time>2022-05-02T20:10:11Z</time>
      </trkpt>
      <trkpt lat="42.92222" lon="2.50049">
        <ele>570</ele>
        <time>2022-05-02T20:10:14Z</time>
      </trkpt>
      <trkpt lat="42.92248" lon="2.50042">
        <ele>569</ele>
        <time>2022-05-02T20:10:19Z</time>
      </trkpt>
      <trkpt lat="42.92264" lon="2.5003">
        <ele>571</ele>
        <time>2022-05-02T20:10:22Z</time>
      </trkpt>
      <trkpt lat="42.92272" lon="2.50021">
        <ele>573</ele>
        <time>2022-05-02T20:10:24Z</time>
      </trkpt>
      <trkpt lat="42.92298" lon="2.49985">
        <ele>577</ele>
        <time>2022-05-02T20:10:30Z</time>
      </trkpt>
      <trkpt lat="42.92302" lon="2.49978">
        <ele>578</ele>
        <time>2022-05-02T20:10:32Z</time>
      </trkpt>
      <trkpt lat="42.92303" lon="2.49968">
        <ele>578</ele>
        <time>2022-05-02T20:10:33Z</time>
      </trkpt>
      <trkpt lat="42.92307" lon="2.49927">
        <ele>577</ele>
        <time>2022-05-02T20:10:38Z</time>
      </trkpt>
      <trkpt lat="42.92305" lon="2.49873">
        <ele>577</ele>
        <time>2022-05-02T20:10:45Z</time>
      </trkpt>
      <trkpt lat="42.92307" lon="2.49859">
        <ele>577</ele>
        <time>2022-05-02T20:10:47Z</time>
      </trkpt>
      <trkpt lat="42.92315" lon="2.49838">
        <ele>574</ele>
        <time>2022-05-02T20:10:50Z</time>
      </trkpt>
      <trkpt lat="42.92321" lon="2.4983">
        <ele>572</ele>
        <time>2022-05-02T20:10:52Z</time>
      </trkpt>
      <trkpt lat="42.92395" lon="2.49758">
        <ele>567</ele>
        <time>2022-05-02T20:11:08Z</time>
      </trkpt>
      <trkpt lat="42.92408" lon="2.49753">
        <ele>563</ele>
        <time>2022-05-02T20:11:10Z</time>
      </trkpt>
      <trkpt lat="42.92432" lon="2.49749">
        <ele>558</ele>
        <time>2022-05-02T20:11:15Z</time>
      </trkpt>
      <trkpt lat="42.92445" lon="2.49742">
        <ele>558</ele>
        <time>2022-05-02T20:11:17Z</time>
      </trkpt>
      <trkpt lat="42.9245" lon="2.49736">
        <ele>558</ele>
        <time>2022-05-02T20:11:18Z</time>
      </trkpt>
      <trkpt lat="42.92463" lon="2.49707">
        <ele>556</ele>
        <time>2022-05-02T20:11:23Z</time>
      </trkpt>
      <trkpt lat="42.92481" lon="2.49686">
        <ele>549</ele>
        <time>2022-05-02T20:11:27Z</time>
      </trkpt>
      <trkpt lat="42.92483" lon="2.4968">
        <ele>548</ele>
        <time>2022-05-02T20:11:28Z</time>
      </trkpt>
      <trkpt lat="42.92484" lon="2.49665">
        <ele>546</ele>
        <time>2022-05-02T20:11:30Z</time>
      </trkpt>
      <trkpt lat="42.92476" lon="2.49612">
        <ele>545</ele>
        <time>2022-05-02T20:11:37Z</time>
      </trkpt>
      <trkpt lat="42.92457" lon="2.49535">
        <ele>545</ele>
        <time>2022-05-02T20:11:47Z</time>
      </trkpt>
      <trkpt lat="42.9246" lon="2.49517">
        <ele>541</ele>
        <time>2022-05-02T20:11:50Z</time>
      </trkpt>
      <trkpt lat="42.92484" lon="2.49435">
        <ele>526</ele>
        <time>2022-05-02T20:12:01Z</time>
      </trkpt>
      <trkpt lat="42.92485" lon="2.49415">
        <ele>524</ele>
        <time>2022-05-02T20:12:04Z</time>
      </trkpt>
      <trkpt lat="42.92482" lon="2.49395">
        <ele>523</ele>
        <time>2022-05-02T20:12:07Z</time>
      </trkpt>
      <trkpt lat="42.92467" lon="2.49361">
        <ele>522</ele>
        <time>2022-05-02T20:12:12Z</time>
      </trkpt>
      <trkpt lat="42.92448" lon="2.49314">
        <ele>520</ele>
        <time>2022-05-02T20:12:19Z</time>
      </trkpt>
      <trkpt lat="42.9244" lon="2.49298">
        <ele>520</ele>
        <time>2022-05-02T20:12:21Z</time>
      </trkpt>
      <trkpt lat="42.92432" lon="2.49289">
        <ele>520</ele>
        <time>2022-05-02T20:12:23Z</time>
      </trkpt>
      <trkpt lat="42.92398" lon="2.49268">
        <ele>520</ele>
        <time>2022-05-02T20:12:30Z</time>
      </trkpt>
      <trkpt lat="42.92392" lon="2.49262">
        <ele>520</ele>
        <time>2022-05-02T20:12:31Z</time>
      </trkpt>
      <trkpt lat="42.92389" lon="2.49254">
        <ele>519</ele>
        <time>2022-05-02T20:12:32Z</time>
      </trkpt>
      <trkpt lat="42.9239" lon="2.49245">
        <ele>519</ele>
        <time>2022-05-02T20:12:33Z</time>
      </trkpt>
      <trkpt lat="42.92394" lon="2.4923">
        <ele>521</ele>
        <time>2022-05-02T20:12:35Z</time>
      </trkpt>
      <trkpt lat="42.92397" lon="2.49222">
        <ele>522</ele>
        <time>2022-05-02T20:12:37Z</time>
      </trkpt>
      <trkpt lat="42.92401" lon="2.49219">
        <ele>523</ele>
        <time>2022-05-02T20:12:37Z</time>
      </trkpt>
      <trkpt lat="42.92405" lon="2.49217">
        <ele>523</ele>
        <time>2022-05-02T20:12:38Z</time>
      </trkpt>
      <trkpt lat="42.92419" lon="2.4922">
        <ele>523</ele>
        <time>2022-05-02T20:12:41Z</time>
      </trkpt>
      <trkpt lat="42.92472" lon="2.49245">
        <ele>515</ele>
        <time>2022-05-02T20:12:51Z</time>
      </trkpt>
      <trkpt lat="42.92499" lon="2.49251">
        <ele>512</ele>
        <time>2022-05-02T20:12:56Z</time>
      </trkpt>
      <trkpt lat="42.92594" lon="2.49257">
        <ele>511</ele>
        <time>2022-05-02T20:13:13Z</time>
      </trkpt>
      <trkpt lat="42.92626" lon="2.49264">
        <ele>510</ele>
        <time>2022-05-02T20:13:18Z</time>
      </trkpt>
      <trkpt lat="42.92659" lon="2.49276">
        <ele>510</ele>
        <time>2022-05-02T20:13:24Z</time>
      </trkpt>
      <trkpt lat="42.9268" lon="2.49291">
        <ele>512</ele>
        <time>2022-05-02T20:13:29Z</time>
      </trkpt>
      <trkpt lat="42.9276" lon="2.49378">
        <ele>521</ele>
        <time>2022-05-02T20:13:47Z</time>
      </trkpt>
      <trkpt lat="42.92767" lon="2.49394">
        <ele>522</ele>
        <time>2022-05-02T20:13:49Z</time>
      </trkpt>
      <trkpt lat="42.92781" lon="2.49438">
        <ele>522</ele>
        <time>2022-05-02T20:13:55Z</time>
      </trkpt>
      <trkpt lat="42.92789" lon="2.49458">
        <ele>522</ele>
        <time>2022-05-02T20:13:58Z</time>
      </trkpt>
      <trkpt lat="42.92795" lon="2.49466">
        <ele>522</ele>
        <time>2022-05-02T20:14:00Z</time>
      </trkpt>
      <trkpt lat="42.92808" lon="2.49471">
        <ele>526</ele>
        <time>2022-05-02T20:14:02Z</time>
      </trkpt>
      <trkpt lat="42.9286" lon="2.49503">
        <ele>524</ele>
        <time>2022-05-02T20:14:12Z</time>
      </trkpt>
      <trkpt lat="42.92868" lon="2.49504">
        <ele>524</ele>
        <time>2022-05-02T20:14:14Z</time>
      </trkpt>
      <trkpt lat="42.92904" lon="2.49506">
        <ele>523</ele>
        <time>2022-05-02T20:14:20Z</time>
      </trkpt>
      <trkpt lat="42.92936" lon="2.49516">
        <ele>515</ele>
        <time>2022-05-02T20:14:26Z</time>
      </trkpt>
      <trkpt lat="42.92942" lon="2.49514">
        <ele>514</ele>
        <time>2022-05-02T20:14:27Z</time>
      </trkpt>
      <trkpt lat="42.92947" lon="2.49509">
        <ele>514</ele>
        <time>2022-05-02T20:14:28Z</time>
      </trkpt>
      <trkpt lat="42.92955" lon="2.49496">
        <ele>516</ele>
        <time>2022-05-02T20:14:31Z</time>
      </trkpt>
      <trkpt lat="42.92989" lon="2.49401">
        <ele>542</ele>
        <time>2022-05-02T20:14:44Z</time>
      </trkpt>
      <trkpt lat="42.93015" lon="2.4936">
        <ele>545</ele>
        <time>2022-05-02T20:14:51Z</time>
      </trkpt>
      <trkpt lat="42.93023" lon="2.49342">
        <ele>548</ele>
        <time>2022-05-02T20:14:54Z</time>
      </trkpt>
      <trkpt lat="42.93037" lon="2.49302">
        <ele>552</ele>
        <time>2022-05-02T20:15:00Z</time>
      </trkpt>
      <trkpt lat="42.93065" lon="2.49258">
        <ele>550</ele>
        <time>2022-05-02T20:15:08Z</time>
      </trkpt>
      <trkpt lat="42.93084" lon="2.49234">
        <ele>547</ele>
        <time>2022-05-02T20:15:12Z</time>
      </trkpt>
      <trkpt lat="42.93097" lon="2.49224">
        <ele>548</ele>
        <time>2022-05-02T20:15:15Z</time>
      </trkpt>
      <trkpt lat="42.93108" lon="2.49221">
        <ele>549</ele>
        <time>2022-05-02T20:15:17Z</time>
      </trkpt>
      <trkpt lat="42.93121" lon="2.49221">
        <ele>549</ele>
        <time>2022-05-02T20:15:19Z</time>
      </trkpt>
      <trkpt lat="42.93137" lon="2.49232">
        <ele>549</ele>
        <time>2022-05-02T20:15:22Z</time>
      </trkpt>
      <trkpt lat="42.93142" lon="2.49236">
        <ele>549</ele>
        <time>2022-05-02T20:15:23Z</time>
      </trkpt>
      <trkpt lat="42.93156" lon="2.49245">
        <ele>548</ele>
        <time>2022-05-02T20:15:26Z</time>
      </trkpt>
      <trkpt lat="42.93162" lon="2.49246">
        <ele>548</ele>
        <time>2022-05-02T20:15:27Z</time>
      </trkpt>
      <trkpt lat="42.93171" lon="2.4924">
        <ele>548</ele>
        <time>2022-05-02T20:15:29Z</time>
      </trkpt>
      <trkpt lat="42.93183" lon="2.49226">
        <ele>546</ele>
        <time>2022-05-02T20:15:32Z</time>
      </trkpt>
      <trkpt lat="42.93197" lon="2.49201">
        <ele>544</ele>
        <time>2022-05-02T20:15:36Z</time>
      </trkpt>
      <trkpt lat="42.93234" lon="2.49097">
        <ele>543</ele>
        <time>2022-05-02T20:15:51Z</time>
      </trkpt>
      <trkpt lat="42.93238" lon="2.49088">
        <ele>544</ele>
        <time>2022-05-02T20:15:52Z</time>
      </trkpt>
      <trkpt lat="42.93257" lon="2.49065">
        <ele>538</ele>
        <time>2022-05-02T20:15:57Z</time>
      </trkpt>
      <trkpt lat="42.9326" lon="2.49057">
        <ele>536</ele>
        <time>2022-05-02T20:15:58Z</time>
      </trkpt>
      <trkpt lat="42.93263" lon="2.49052">
        <ele>535</ele>
        <time>2022-05-02T20:15:59Z</time>
      </trkpt>
      <trkpt lat="42.93261" lon="2.49042">
        <ele>534</ele>
        <time>2022-05-02T20:16:00Z</time>
      </trkpt>
      <trkpt lat="42.93253" lon="2.49036">
        <ele>534</ele>
        <time>2022-05-02T20:16:02Z</time>
      </trkpt>
      <trkpt lat="42.9323" lon="2.49028">
        <ele>535</ele>
        <time>2022-05-02T20:16:06Z</time>
      </trkpt>
      <trkpt lat="42.93211" lon="2.49016">
        <ele>534</ele>
        <time>2022-05-02T20:16:10Z</time>
      </trkpt>
      <trkpt lat="42.93178" lon="2.48999">
        <ele>531</ele>
        <time>2022-05-02T20:16:16Z</time>
      </trkpt>
      <trkpt lat="42.93097" lon="2.48981">
        <ele>526</ele>
        <time>2022-05-02T20:16:31Z</time>
      </trkpt>
      <trkpt lat="42.93074" lon="2.4898">
        <ele>524</ele>
        <time>2022-05-02T20:16:35Z</time>
      </trkpt>
      <trkpt lat="42.93068" lon="2.48982">
        <ele>525</ele>
        <time>2022-05-02T20:16:36Z</time>
      </trkpt>
      <trkpt lat="42.93034" lon="2.49007">
        <ele>529</ele>
        <time>2022-05-02T20:16:43Z</time>
      </trkpt>
      <trkpt lat="42.93024" lon="2.4901">
        <ele>529</ele>
        <time>2022-05-02T20:16:44Z</time>
      </trkpt>
      <trkpt lat="42.93011" lon="2.4901">
        <ele>527</ele>
        <time>2022-05-02T20:16:47Z</time>
      </trkpt>
      <trkpt lat="42.92987" lon="2.48998">
        <ele>525</ele>
        <time>2022-05-02T20:16:51Z</time>
      </trkpt>
      <trkpt lat="42.92927" lon="2.48956">
        <ele>522</ele>
        <time>2022-05-02T20:17:03Z</time>
      </trkpt>
      <trkpt lat="42.92903" lon="2.48934">
        <ele>522</ele>
        <time>2022-05-02T20:17:08Z</time>
      </trkpt>
      <trkpt lat="42.92871" lon="2.48898">
        <ele>522</ele>
        <time>2022-05-02T20:17:16Z</time>
      </trkpt>
      <trkpt lat="42.92826" lon="2.4884">
        <ele>516</ele>
        <time>2022-05-02T20:17:27Z</time>
      </trkpt>
      <trkpt lat="42.92771" lon="2.48767">
        <ele>513</ele>
        <time>2022-05-02T20:17:40Z</time>
      </trkpt>
      <trkpt lat="42.92747" lon="2.48745">
        <ele>513</ele>
        <time>2022-05-02T20:17:46Z</time>
      </trkpt>
      <trkpt lat="42.92728" lon="2.48724">
        <ele>516</ele>
        <time>2022-05-02T20:17:50Z</time>
      </trkpt>
      <trkpt lat="42.92721" lon="2.48714">
        <ele>516</ele>
        <time>2022-05-02T20:17:52Z</time>
      </trkpt>
      <trkpt lat="42.92714" lon="2.48699">
        <ele>515</ele>
        <time>2022-05-02T20:17:54Z</time>
      </trkpt>
      <trkpt lat="42.92708" lon="2.48682">
        <ele>513</ele>
        <time>2022-05-02T20:17:57Z</time>
      </trkpt>
      <trkpt lat="42.92684" lon="2.48595">
        <ele>500</ele>
        <time>2022-05-02T20:18:09Z</time>
      </trkpt>
      <trkpt lat="42.92678" lon="2.48577">
        <ele>498</ele>
        <time>2022-05-02T20:18:11Z</time>
      </trkpt>
      <trkpt lat="42.92644" lon="2.48501">
        <ele>498</ele>
        <time>2022-05-02T20:18:23Z</time>
      </trkpt>
      <trkpt lat="42.92634" lon="2.48483">
        <ele>498</ele>
        <time>2022-05-02T20:18:26Z</time>
      </trkpt>
      <trkpt lat="42.92629" lon="2.48476">
        <ele>498</ele>
        <time>2022-05-02T20:18:27Z</time>
      </trkpt>
      <trkpt lat="42.9261" lon="2.48457">
        <ele>500</ele>
        <time>2022-05-02T20:18:31Z</time>
      </trkpt>
      <trkpt lat="42.92599" lon="2.48441">
        <ele>499</ele>
        <time>2022-05-02T20:18:34Z</time>
      </trkpt>
      <trkpt lat="42.92592" lon="2.48426">
        <ele>498</ele>
        <time>2022-05-02T20:18:36Z</time>
      </trkpt>
      <trkpt lat="42.92589" lon="2.48409">
        <ele>495</ele>
        <time>2022-05-02T20:18:39Z</time>
      </trkpt>
      <trkpt lat="42.9259" lon="2.48364">
        <ele>487</ele>
        <time>2022-05-02T20:18:45Z</time>
      </trkpt>
      <trkpt lat="42.92588" lon="2.48354">
        <ele>486</ele>
        <time>2022-05-02T20:18:46Z</time>
      </trkpt>
      <trkpt lat="42.92584" lon="2.48346">
        <ele>486</ele>
        <time>2022-05-02T20:18:47Z</time>
      </trkpt>
      <trkpt lat="42.92572" lon="2.48334">
        <ele>488</ele>
        <time>2022-05-02T20:18:50Z</time>
      </trkpt>
      <trkpt lat="42.92542" lon="2.4832">
        <ele>497</ele>
        <time>2022-05-02T20:18:55Z</time>
      </trkpt>
      <trkpt lat="42.92537" lon="2.48314">
        <ele>498</ele>
        <time>2022-05-02T20:18:57Z</time>
      </trkpt>
      <trkpt lat="42.92533" lon="2.48307">
        <ele>499</ele>
        <time>2022-05-02T20:18:58Z</time>
      </trkpt>
      <trkpt lat="42.92531" lon="2.48298">
        <ele>498</ele>
        <time>2022-05-02T20:18:59Z</time>
      </trkpt>
      <trkpt lat="42.92531" lon="2.48273">
        <ele>496</ele>
        <time>2022-05-02T20:19:02Z</time>
      </trkpt>
      <trkpt lat="42.92542" lon="2.48206">
        <ele>481</ele>
        <time>2022-05-02T20:19:11Z</time>
      </trkpt>
      <trkpt lat="42.92542" lon="2.48184">
        <ele>478</ele>
        <time>2022-05-02T20:19:14Z</time>
      </trkpt>
      <trkpt lat="42.92534" lon="2.4816">
        <ele>477</ele>
        <time>2022-05-02T20:19:18Z</time>
      </trkpt>
      <trkpt lat="42.9251" lon="2.48119">
        <ele>477</ele>
        <time>2022-05-02T20:19:24Z</time>
      </trkpt>
      <trkpt lat="42.92485" lon="2.48066">
        <ele>473</ele>
        <time>2022-05-02T20:19:33Z</time>
      </trkpt>
      <trkpt lat="42.9248" lon="2.4806">
        <ele>473</ele>
        <time>2022-05-02T20:19:34Z</time>
      </trkpt>
      <trkpt lat="42.92456" lon="2.48044">
        <ele>476</ele>
        <time>2022-05-02T20:19:39Z</time>
      </trkpt>
      <trkpt lat="42.92454" lon="2.48039">
        <ele>475</ele>
        <time>2022-05-02T20:19:39Z</time>
      </trkpt>
      <trkpt lat="42.92446" lon="2.48004">
        <ele>468</ele>
        <time>2022-05-02T20:19:44Z</time>
      </trkpt>
      <trkpt lat="42.92443" lon="2.47998">
        <ele>467</ele>
        <time>2022-05-02T20:19:45Z</time>
      </trkpt>
      <trkpt lat="42.92437" lon="2.47992">
        <ele>466</ele>
        <time>2022-05-02T20:19:46Z</time>
      </trkpt>
      <trkpt lat="42.92424" lon="2.47984">
        <ele>467</ele>
        <time>2022-05-02T20:19:49Z</time>
      </trkpt>
      <trkpt lat="42.92407" lon="2.47981">
        <ele>469</ele>
        <time>2022-05-02T20:19:52Z</time>
      </trkpt>
      <trkpt lat="42.92397" lon="2.47977">
        <ele>469</ele>
        <time>2022-05-02T20:19:54Z</time>
      </trkpt>
      <trkpt lat="42.92391" lon="2.47974">
        <ele>469</ele>
        <time>2022-05-02T20:19:55Z</time>
      </trkpt>
      <trkpt lat="42.92373" lon="2.47953">
        <ele>463</ele>
        <time>2022-05-02T20:19:59Z</time>
      </trkpt>
      <trkpt lat="42.92365" lon="2.47946">
        <ele>461</ele>
        <time>2022-05-02T20:20:01Z</time>
      </trkpt>
      <trkpt lat="42.92358" lon="2.47943">
        <ele>460</ele>
        <time>2022-05-02T20:20:02Z</time>
      </trkpt>
      <trkpt lat="42.9235" lon="2.47943">
        <ele>461</ele>
        <time>2022-05-02T20:20:04Z</time>
      </trkpt>
      <trkpt lat="42.92324" lon="2.47948">
        <ele>467</ele>
        <time>2022-05-02T20:20:08Z</time>
      </trkpt>
      <trkpt lat="42.92312" lon="2.47948">
        <ele>470</ele>
        <time>2022-05-02T20:20:10Z</time>
      </trkpt>
      <trkpt lat="42.92307" lon="2.47944">
        <ele>469</ele>
        <time>2022-05-02T20:20:11Z</time>
      </trkpt>
      <trkpt lat="42.92303" lon="2.47937">
        <ele>468</ele>
        <time>2022-05-02T20:20:13Z</time>
      </trkpt>
      <trkpt lat="42.92296" lon="2.47909">
        <ele>460</ele>
        <time>2022-05-02T20:20:16Z</time>
      </trkpt>
      <trkpt lat="42.92288" lon="2.47895">
        <ele>459</ele>
        <time>2022-05-02T20:20:19Z</time>
      </trkpt>
      <trkpt lat="42.92273" lon="2.47884">
        <ele>459</ele>
        <time>2022-05-02T20:20:22Z</time>
      </trkpt>
      <trkpt lat="42.92266" lon="2.4788">
        <ele>460</ele>
        <time>2022-05-02T20:20:23Z</time>
      </trkpt>
      <trkpt lat="42.92192" lon="2.47841">
        <ele>455</ele>
        <time>2022-05-02T20:20:37Z</time>
      </trkpt>
      <trkpt lat="42.92165" lon="2.47821">
        <ele>454</ele>
        <time>2022-05-02T20:20:43Z</time>
      </trkpt>
      <trkpt lat="42.92148" lon="2.47813">
        <ele>455</ele>
        <time>2022-05-02T20:20:46Z</time>
      </trkpt>
      <trkpt lat="42.92132" lon="2.47813">
        <ele>455</ele>
        <time>2022-05-02T20:20:49Z</time>
      </trkpt>
      <trkpt lat="42.92113" lon="2.47819">
        <ele>455</ele>
        <time>2022-05-02T20:20:52Z</time>
      </trkpt>
      <trkpt lat="42.92106" lon="2.47819">
        <ele>455</ele>
        <time>2022-05-02T20:20:53Z</time>
      </trkpt>
      <trkpt lat="42.92092" lon="2.47814">
        <ele>456</ele>
        <time>2022-05-02T20:20:56Z</time>
      </trkpt>
      <trkpt lat="42.9208" lon="2.47794">
        <ele>459</ele>
        <time>2022-05-02T20:20:59Z</time>
      </trkpt>
      <trkpt lat="42.92081" lon="2.47785">
        <ele>460</ele>
        <time>2022-05-02T20:21:01Z</time>
      </trkpt>
      <trkpt lat="42.92083" lon="2.47777">
        <ele>460</ele>
        <time>2022-05-02T20:21:02Z</time>
      </trkpt>
      <trkpt lat="42.92089" lon="2.47773">
        <ele>460</ele>
        <time>2022-05-02T20:21:03Z</time>
      </trkpt>
      <trkpt lat="42.92107" lon="2.47769">
        <ele>459</ele>
        <time>2022-05-02T20:21:06Z</time>
      </trkpt>
      <trkpt lat="42.92173" lon="2.47763">
        <ele>455</ele>
        <time>2022-05-02T20:21:18Z</time>
      </trkpt>
      <trkpt lat="42.92183" lon="2.47764">
        <ele>455</ele>
        <time>2022-05-02T20:21:20Z</time>
      </trkpt>
      <trkpt lat="42.92228" lon="2.47779">
        <ele>455</ele>
        <time>2022-05-02T20:21:28Z</time>
      </trkpt>
      <trkpt lat="42.92332" lon="2.47786">
        <ele>446</ele>
        <time>2022-05-02T20:21:46Z</time>
      </trkpt>
      <trkpt lat="42.92454" lon="2.4781">
        <ele>426</ele>
        <time>2022-05-02T20:22:08Z</time>
      </trkpt>
      <trkpt lat="42.92468" lon="2.47806">
        <ele>424</ele>
        <time>2022-05-02T20:22:11Z</time>
      </trkpt>
      <trkpt lat="42.92495" lon="2.47789">
        <ele>420</ele>
        <time>2022-05-02T20:22:16Z</time>
      </trkpt>
      <trkpt lat="42.92507" lon="2.47781">
        <ele>420</ele>
        <time>2022-05-02T20:22:19Z</time>
      </trkpt>
      <trkpt lat="42.92555" lon="2.47747">
        <ele>426</ele>
        <time>2022-05-02T20:22:28Z</time>
      </trkpt>
      <trkpt lat="42.9269" lon="2.47996">
        <ele>425</ele>
        <time>2022-05-02T20:23:09Z</time>
      </trkpt>
      <trkpt lat="42.92713" lon="2.48041">
        <ele>426</ele>
        <time>2022-05-02T20:23:16Z</time>
      </trkpt>
      <trkpt lat="42.92721" lon="2.4806">
        <ele>426</ele>
        <time>2022-05-02T20:23:19Z</time>
      </trkpt>
      <trkpt lat="42.92724" lon="2.48077">
        <ele>426</ele>
        <time>2022-05-02T20:23:21Z</time>
      </trkpt>
      <trkpt lat="42.9273" lon="2.48132">
        <ele>424</ele>
        <time>2022-05-02T20:23:28Z</time>
      </trkpt>
      <trkpt lat="42.92735" lon="2.48151">
        <ele>423</ele>
        <time>2022-05-02T20:23:31Z</time>
      </trkpt>
      <trkpt lat="42.92744" lon="2.4817">
        <ele>422</ele>
        <time>2022-05-02T20:23:34Z</time>
      </trkpt>
      <trkpt lat="42.92869" lon="2.48376">
        <ele>428</ele>
        <time>2022-05-02T20:24:09Z</time>
      </trkpt>
      <trkpt lat="42.92912" lon="2.48417">
        <ele>421</ele>
        <time>2022-05-02T20:24:18Z</time>
      </trkpt>
      <trkpt lat="42.92961" lon="2.48474">
        <ele>430</ele>
        <time>2022-05-02T20:24:29Z</time>
      </trkpt>
      <trkpt lat="42.92975" lon="2.48495">
        <ele>430</ele>
        <time>2022-05-02T20:24:33Z</time>
      </trkpt>
      <trkpt lat="42.92981" lon="2.48517">
        <ele>429</ele>
        <time>2022-05-02T20:24:36Z</time>
      </trkpt>
      <trkpt lat="42.92987" lon="2.48549">
        <ele>427</ele>
        <time>2022-05-02T20:24:40Z</time>
      </trkpt>
      <trkpt lat="42.92992" lon="2.48563">
        <ele>425</ele>
        <time>2022-05-02T20:24:42Z</time>
      </trkpt>
      <trkpt lat="42.93006" lon="2.48578">
        <ele>423</ele>
        <time>2022-05-02T20:24:46Z</time>
      </trkpt>
      <trkpt lat="42.93023" lon="2.4859">
        <ele>423</ele>
        <time>2022-05-02T20:24:49Z</time>
      </trkpt>
      <trkpt lat="42.93046" lon="2.48599">
        <ele>424</ele>
        <time>2022-05-02T20:24:53Z</time>
      </trkpt>
      <trkpt lat="42.93076" lon="2.48606">
        <ele>424</ele>
        <time>2022-05-02T20:24:59Z</time>
      </trkpt>
      <trkpt lat="42.93177" lon="2.48626">
        <ele>422</ele>
        <time>2022-05-02T20:25:17Z</time>
      </trkpt>
      <trkpt lat="42.933" lon="2.48641">
        <ele>419</ele>
        <time>2022-05-02T20:25:39Z</time>
      </trkpt>
      <trkpt lat="42.93305" lon="2.48644">
        <ele>419</ele>
        <time>2022-05-02T20:25:40Z</time>
      </trkpt>
      <trkpt lat="42.93309" lon="2.4865">
        <ele>418</ele>
        <time>2022-05-02T20:25:41Z</time>
      </trkpt>
      <trkpt lat="42.93312" lon="2.48659">
        <ele>416</ele>
        <time>2022-05-02T20:25:42Z</time>
      </trkpt>
      <trkpt lat="42.93309" lon="2.48702">
        <ele>420</ele>
        <time>2022-05-02T20:25:48Z</time>
      </trkpt>
      <trkpt lat="42.93312" lon="2.48715">
        <ele>422</ele>
        <time>2022-05-02T20:25:49Z</time>
      </trkpt>
      <trkpt lat="42.93318" lon="2.48724">
        <ele>422</ele>
        <time>2022-05-02T20:25:51Z</time>
      </trkpt>
      <trkpt lat="42.93332" lon="2.48728">
        <ele>421</ele>
        <time>2022-05-02T20:25:54Z</time>
      </trkpt>
      <trkpt lat="42.93408" lon="2.48731">
        <ele>418</ele>
        <time>2022-05-02T20:26:07Z</time>
      </trkpt>
      <trkpt lat="42.93434" lon="2.48734">
        <ele>417</ele>
        <time>2022-05-02T20:26:12Z</time>
      </trkpt>
      <trkpt lat="42.93544" lon="2.48757">
        <ele>413</ele>
        <time>2022-05-02T20:26:32Z</time>
      </trkpt>
      <trkpt lat="42.93561" lon="2.48765">
        <ele>413</ele>
        <time>2022-05-02T20:26:35Z</time>
      </trkpt>
      <trkpt lat="42.93572" lon="2.48774">
        <ele>413</ele>
        <time>2022-05-02T20:26:37Z</time>
      </trkpt>
      <trkpt lat="42.9359" lon="2.48802">
        <ele>414</ele>
        <time>2022-05-02T20:26:42Z</time>
      </trkpt>
      <trkpt lat="42.93686" lon="2.48999">
        <ele>417</ele>
        <time>2022-05-02T20:27:13Z</time>
      </trkpt>
      <trkpt lat="42.93742" lon="2.49131">
        <ele>417</ele>
        <time>2022-05-02T20:27:33Z</time>
      </trkpt>
      <trkpt lat="42.93766" lon="2.49168">
        <ele>418</ele>
        <time>2022-05-02T20:27:39Z</time>
      </trkpt>
      <trkpt lat="42.93803" lon="2.4922">
        <ele>419</ele>
        <time>2022-05-02T20:27:48Z</time>
      </trkpt>
      <trkpt lat="42.93814" lon="2.49233">
        <ele>418</ele>
        <time>2022-05-02T20:27:51Z</time>
      </trkpt>
      <trkpt lat="42.93845" lon="2.49257">
        <ele>414</ele>
        <time>2022-05-02T20:27:57Z</time>
      </trkpt>
      <trkpt lat="42.93901" lon="2.4929">
        <ele>407</ele>
        <time>2022-05-02T20:28:08Z</time>
      </trkpt>
      <trkpt lat="42.93917" lon="2.49301">
        <ele>404</ele>
        <time>2022-05-02T20:28:11Z</time>
      </trkpt>
      <trkpt lat="42.93932" lon="2.49318">
        <ele>403</ele>
        <time>2022-05-02T20:28:15Z</time>
      </trkpt>
      <trkpt lat="42.9409" lon="2.49472">
        <ele>403</ele>
        <time>2022-05-02T20:28:49Z</time>
      </trkpt>
      <trkpt lat="42.94104" lon="2.4948">
        <ele>406</ele>
        <time>2022-05-02T20:28:52Z</time>
      </trkpt>
      <trkpt lat="42.94114" lon="2.49478">
        <ele>408</ele>
        <time>2022-05-02T20:28:54Z</time>
      </trkpt>
      <trkpt lat="42.9412" lon="2.49471">
        <ele>408</ele>
        <time>2022-05-02T20:28:55Z</time>
      </trkpt>
      <trkpt lat="42.9414" lon="2.4944">
        <ele>408</ele>
        <time>2022-05-02T20:29:01Z</time>
      </trkpt>
      <trkpt lat="42.9422" lon="2.49323">
        <ele>405</ele>
        <time>2022-05-02T20:29:22Z</time>
      </trkpt>
      <trkpt lat="42.94233" lon="2.49313">
        <ele>404</ele>
        <time>2022-05-02T20:29:24Z</time>
      </trkpt>
      <trkpt lat="42.94262" lon="2.49297">
        <ele>403</ele>
        <time>2022-05-02T20:29:30Z</time>
      </trkpt>
      <trkpt lat="42.94271" lon="2.49289">
        <ele>403</ele>
        <time>2022-05-02T20:29:32Z</time>
      </trkpt>
      <trkpt lat="42.94284" lon="2.4927">
        <ele>400</ele>
        <time>2022-05-02T20:29:35Z</time>
      </trkpt>
      <trkpt lat="42.94295" lon="2.49259">
        <ele>399</ele>
        <time>2022-05-02T20:29:38Z</time>
      </trkpt>
      <trkpt lat="42.94326" lon="2.49238">
        <ele>398</ele>
        <time>2022-05-02T20:29:44Z</time>
      </trkpt>
      <trkpt lat="42.94342" lon="2.49224">
        <ele>397</ele>
        <time>2022-05-02T20:29:47Z</time>
      </trkpt>
      <trkpt lat="42.94356" lon="2.49222">
        <ele>397</ele>
        <time>2022-05-02T20:29:50Z</time>
      </trkpt>
      <trkpt lat="42.94364" lon="2.49226">
        <ele>397</ele>
        <time>2022-05-02T20:29:51Z</time>
      </trkpt>
      <trkpt lat="42.9438" lon="2.49245">
        <ele>397</ele>
        <time>2022-05-02T20:29:55Z</time>
      </trkpt>
      <trkpt lat="42.94407" lon="2.49267">
        <ele>399</ele>
        <time>2022-05-02T20:30:00Z</time>
      </trkpt>
      <trkpt lat="42.94458" lon="2.49289">
        <ele>400</ele>
        <time>2022-05-02T20:30:10Z</time>
      </trkpt>
      <trkpt lat="42.94487" lon="2.49317">
        <ele>401</ele>
        <time>2022-05-02T20:30:16Z</time>
      </trkpt>
      <trkpt lat="42.9452" lon="2.49333">
        <ele>398</ele>
        <time>2022-05-02T20:30:23Z</time>
      </trkpt>
      <trkpt lat="42.94529" lon="2.49342">
        <ele>398</ele>
        <time>2022-05-02T20:30:25Z</time>
      </trkpt>
      <trkpt lat="42.94535" lon="2.49352">
        <ele>398</ele>
        <time>2022-05-02T20:30:26Z</time>
      </trkpt>
      <trkpt lat="42.9455" lon="2.49385">
        <ele>398</ele>
        <time>2022-05-02T20:30:31Z</time>
      </trkpt>
      <trkpt lat="42.94572" lon="2.49421">
        <ele>396</ele>
        <time>2022-05-02T20:30:37Z</time>
      </trkpt>
      <trkpt lat="42.9458" lon="2.49432">
        <ele>395</ele>
        <time>2022-05-02T20:30:39Z</time>
      </trkpt>
      <trkpt lat="42.94608" lon="2.49456">
        <ele>395</ele>
        <time>2022-05-02T20:30:45Z</time>
      </trkpt>
      <trkpt lat="42.94617" lon="2.49471">
        <ele>395</ele>
        <time>2022-05-02T20:30:48Z</time>
      </trkpt>
      <trkpt lat="42.94626" lon="2.4949">
        <ele>395</ele>
        <time>2022-05-02T20:30:51Z</time>
      </trkpt>
      <trkpt lat="42.94646" lon="2.49541">
        <ele>392</ele>
        <time>2022-05-02T20:30:58Z</time>
      </trkpt>
      <trkpt lat="42.9465" lon="2.49553">
        <ele>392</ele>
        <time>2022-05-02T20:31:00Z</time>
      </trkpt>
      <trkpt lat="42.94657" lon="2.49619">
        <ele>392</ele>
        <time>2022-05-02T20:31:09Z</time>
      </trkpt>
      <trkpt lat="42.94661" lon="2.49743">
        <ele>403</ele>
        <time>2022-05-02T20:31:25Z</time>
      </trkpt>
      <trkpt lat="42.94664" lon="2.49754">
        <ele>403</ele>
        <time>2022-05-02T20:31:26Z</time>
      </trkpt>
      <trkpt lat="42.94667" lon="2.49763">
        <ele>404</ele>
        <time>2022-05-02T20:31:28Z</time>
      </trkpt>
      <trkpt lat="42.94678" lon="2.49775">
        <ele>405</ele>
        <time>2022-05-02T20:31:30Z</time>
      </trkpt>
      <trkpt lat="42.94687" lon="2.4978">
        <ele>404</ele>
        <time>2022-05-02T20:31:32Z</time>
      </trkpt>
      <trkpt lat="42.94699" lon="2.4978">
        <ele>401</ele>
        <time>2022-05-02T20:31:34Z</time>
      </trkpt>
      <trkpt lat="42.94707" lon="2.49773">
        <ele>399</ele>
        <time>2022-05-02T20:31:36Z</time>
      </trkpt>
      <trkpt lat="42.94732" lon="2.49751">
        <ele>393</ele>
        <time>2022-05-02T20:31:41Z</time>
      </trkpt>
      <trkpt lat="42.94737" lon="2.4975">
        <ele>393</ele>
        <time>2022-05-02T20:31:42Z</time>
      </trkpt>
      <trkpt lat="42.94747" lon="2.49756">
        <ele>391</ele>
        <time>2022-05-02T20:31:44Z</time>
      </trkpt>
      <trkpt lat="42.94772" lon="2.49794">
        <ele>391</ele>
        <time>2022-05-02T20:31:51Z</time>
      </trkpt>
      <trkpt lat="42.94792" lon="2.49818">
        <ele>390</ele>
        <time>2022-05-02T20:31:55Z</time>
      </trkpt>
      <trkpt lat="42.94796" lon="2.49821">
        <ele>390</ele>
        <time>2022-05-02T20:31:56Z</time>
      </trkpt>
      <trkpt lat="42.94834" lon="2.49823">
        <ele>391</ele>
        <time>2022-05-02T20:32:03Z</time>
      </trkpt>
      <trkpt lat="42.94846" lon="2.49816">
        <ele>392</ele>
        <time>2022-05-02T20:32:05Z</time>
      </trkpt>
      <trkpt lat="42.94858" lon="2.49802">
        <ele>394</ele>
        <time>2022-05-02T20:32:08Z</time>
      </trkpt>
      <trkpt lat="42.94864" lon="2.49791">
        <ele>395</ele>
        <time>2022-05-02T20:32:10Z</time>
      </trkpt>
      <trkpt lat="42.94874" lon="2.49764">
        <ele>397</ele>
        <time>2022-05-02T20:32:14Z</time>
      </trkpt>
      <trkpt lat="42.94879" lon="2.49755">
        <ele>397</ele>
        <time>2022-05-02T20:32:15Z</time>
      </trkpt>
      <trkpt lat="42.94887" lon="2.49748">
        <ele>397</ele>
        <time>2022-05-02T20:32:17Z</time>
      </trkpt>
      <trkpt lat="42.94915" lon="2.49734">
        <ele>399</ele>
        <time>2022-05-02T20:32:22Z</time>
      </trkpt>
      <trkpt lat="42.94943" lon="2.49731">
        <ele>399</ele>
        <time>2022-05-02T20:32:27Z</time>
      </trkpt>
      <trkpt lat="42.94976" lon="2.49735">
        <ele>396</ele>
        <time>2022-05-02T20:32:33Z</time>
      </trkpt>
      <trkpt lat="42.95023" lon="2.49724">
        <ele>398</ele>
        <time>2022-05-02T20:32:42Z</time>
      </trkpt>
      <trkpt lat="42.95062" lon="2.4972">
        <ele>397</ele>
        <time>2022-05-02T20:32:48Z</time>
      </trkpt>
      <trkpt lat="42.95071" lon="2.49716">
        <ele>397</ele>
        <time>2022-05-02T20:32:50Z</time>
      </trkpt>
      <trkpt lat="42.95097" lon="2.49698">
        <ele>399</ele>
        <time>2022-05-02T20:32:55Z</time>
      </trkpt>
      <trkpt lat="42.95145" lon="2.49652">
        <ele>401</ele>
        <time>2022-05-02T20:33:06Z</time>
      </trkpt>
      <trkpt lat="42.95155" lon="2.49647">
        <ele>401</ele>
        <time>2022-05-02T20:33:08Z</time>
      </trkpt>
      <trkpt lat="42.95165" lon="2.49645">
        <ele>400</ele>
        <time>2022-05-02T20:33:09Z</time>
      </trkpt>
      <trkpt lat="42.95198" lon="2.49659">
        <ele>392</ele>
        <time>2022-05-02T20:33:16Z</time>
      </trkpt>
      <trkpt lat="42.95251" lon="2.49656">
        <ele>390</ele>
        <time>2022-05-02T20:33:25Z</time>
      </trkpt>
      <trkpt lat="42.95268" lon="2.4966">
        <ele>390</ele>
        <time>2022-05-02T20:33:28Z</time>
      </trkpt>
      <trkpt lat="42.95286" lon="2.49674">
        <ele>389</ele>
        <time>2022-05-02T20:33:32Z</time>
      </trkpt>
      <trkpt lat="42.95324" lon="2.49727">
        <ele>383</ele>
        <time>2022-05-02T20:33:41Z</time>
      </trkpt>
      <trkpt lat="42.95361" lon="2.49753">
        <ele>377</ele>
        <time>2022-05-02T20:33:49Z</time>
      </trkpt>
      <trkpt lat="42.95383" lon="2.49761">
        <ele>376</ele>
        <time>2022-05-02T20:33:53Z</time>
      </trkpt>
      <trkpt lat="42.95411" lon="2.49763">
        <ele>373</ele>
        <time>2022-05-02T20:33:58Z</time>
      </trkpt>
      <trkpt lat="42.95425" lon="2.49751">
        <ele>373</ele>
        <time>2022-05-02T20:34:01Z</time>
      </trkpt>
      <trkpt lat="42.95429" lon="2.4973">
        <ele>373</ele>
        <time>2022-05-02T20:34:04Z</time>
      </trkpt>
      <trkpt lat="42.95425" lon="2.49708">
        <ele>374</ele>
        <time>2022-05-02T20:34:07Z</time>
      </trkpt>
      <trkpt lat="42.95398" lon="2.49601">
        <ele>379</ele>
        <time>2022-05-02T20:34:21Z</time>
      </trkpt>
      <trkpt lat="42.95396" lon="2.49563">
        <ele>385</ele>
        <time>2022-05-02T20:34:26Z</time>
      </trkpt>
      <trkpt lat="42.95404" lon="2.49543">
        <ele>389</ele>
        <time>2022-05-02T20:34:29Z</time>
      </trkpt>
      <trkpt lat="42.95468" lon="2.49504">
        <ele>381</ele>
        <time>2022-05-02T20:34:42Z</time>
      </trkpt>
      <trkpt lat="42.95479" lon="2.49494">
        <ele>380</ele>
        <time>2022-05-02T20:34:44Z</time>
      </trkpt>
      <trkpt lat="42.9549" lon="2.49476">
        <ele>383</ele>
        <time>2022-05-02T20:34:47Z</time>
      </trkpt>
      <trkpt lat="42.95505" lon="2.49462">
        <ele>383</ele>
        <time>2022-05-02T20:34:50Z</time>
      </trkpt>
      <trkpt lat="42.95529" lon="2.49458">
        <ele>378</ele>
        <time>2022-05-02T20:34:55Z</time>
      </trkpt>
      <trkpt lat="42.95533" lon="2.49452">
        <ele>378</ele>
        <time>2022-05-02T20:34:56Z</time>
      </trkpt>
      <trkpt lat="42.9554" lon="2.49445">
        <ele>377</ele>
        <time>2022-05-02T20:34:57Z</time>
      </trkpt>
      <trkpt lat="42.95585" lon="2.49414">
        <ele>364</ele>
        <time>2022-05-02T20:35:06Z</time>
      </trkpt>
      <trkpt lat="42.95593" lon="2.49403">
        <ele>365</ele>
        <time>2022-05-02T20:35:08Z</time>
      </trkpt>
      <trkpt lat="42.95595" lon="2.49394">
        <ele>365</ele>
        <time>2022-05-02T20:35:10Z</time>
      </trkpt>
      <trkpt lat="42.95595" lon="2.49381">
        <ele>366</ele>
        <time>2022-05-02T20:35:11Z</time>
      </trkpt>
      <trkpt lat="42.95591" lon="2.49365">
        <ele>367</ele>
        <time>2022-05-02T20:35:13Z</time>
      </trkpt>
      <trkpt lat="42.95577" lon="2.49325">
        <ele>372</ele>
        <time>2022-05-02T20:35:19Z</time>
      </trkpt>
      <trkpt lat="42.95562" lon="2.49292">
        <ele>379</ele>
        <time>2022-05-02T20:35:24Z</time>
      </trkpt>
      <trkpt lat="42.95547" lon="2.49267">
        <ele>384</ele>
        <time>2022-05-02T20:35:28Z</time>
      </trkpt>
      <trkpt lat="42.95517" lon="2.49225">
        <ele>392</ele>
        <time>2022-05-02T20:35:36Z</time>
      </trkpt>
      <trkpt lat="42.95505" lon="2.49186">
        <ele>390</ele>
        <time>2022-05-02T20:35:42Z</time>
      </trkpt>
      <trkpt lat="42.955" lon="2.49124">
        <ele>386</ele>
        <time>2022-05-02T20:35:50Z</time>
      </trkpt>
      <trkpt lat="42.955" lon="2.4907">
        <ele>385</ele>
        <time>2022-05-02T20:35:57Z</time>
      </trkpt>
      <trkpt lat="42.95488" lon="2.49">
        <ele>392</ele>
        <time>2022-05-02T20:36:06Z</time>
      </trkpt>
      <trkpt lat="42.95485" lon="2.48973">
        <ele>393</ele>
        <time>2022-05-02T20:36:10Z</time>
      </trkpt>
      <trkpt lat="42.95492" lon="2.48915">
        <ele>391</ele>
        <time>2022-05-02T20:36:17Z</time>
      </trkpt>
      <trkpt lat="42.95495" lon="2.48862">
        <ele>392</ele>
        <time>2022-05-02T20:36:24Z</time>
      </trkpt>
      <trkpt lat="42.95497" lon="2.48851">
        <ele>392</ele>
        <time>2022-05-02T20:36:26Z</time>
      </trkpt>
      <trkpt lat="42.95519" lon="2.48781">
        <ele>395</ele>
        <time>2022-05-02T20:36:36Z</time>
      </trkpt>
      <trkpt lat="42.95526" lon="2.4874">
        <ele>396</ele>
        <time>2022-05-02T20:36:41Z</time>
      </trkpt>
      <trkpt lat="42.9553" lon="2.48707">
        <ele>395</ele>
        <time>2022-05-02T20:36:46Z</time>
      </trkpt>
      <trkpt lat="42.95532" lon="2.48655">
        <ele>395</ele>
        <time>2022-05-02T20:36:52Z</time>
      </trkpt>
      <trkpt lat="42.95528" lon="2.48631">
        <ele>396</ele>
        <time>2022-05-02T20:36:55Z</time>
      </trkpt>
      <trkpt lat="42.95527" lon="2.48605">
        <ele>397</ele>
        <time>2022-05-02T20:36:59Z</time>
      </trkpt>
      <trkpt lat="42.95542" lon="2.4848">
        <ele>398</ele>
        <time>2022-05-02T20:37:15Z</time>
      </trkpt>
      <trkpt lat="42.95541" lon="2.48467">
        <ele>398</ele>
        <time>2022-05-02T20:37:17Z</time>
      </trkpt>
      <trkpt lat="42.95545" lon="2.48445">
        <ele>398</ele>
        <time>2022-05-02T20:37:20Z</time>
      </trkpt>
      <trkpt lat="42.95543" lon="2.48425">
        <ele>398</ele>
        <time>2022-05-02T20:37:23Z</time>
      </trkpt>
      <trkpt lat="42.95536" lon="2.48402">
        <ele>399</ele>
        <time>2022-05-02T20:37:26Z</time>
      </trkpt>
      <trkpt lat="42.95528" lon="2.4839">
        <ele>399</ele>
        <time>2022-05-02T20:37:28Z</time>
      </trkpt>
      <trkpt lat="42.9552" lon="2.48384">
        <ele>400</ele>
        <time>2022-05-02T20:37:30Z</time>
      </trkpt>
      <trkpt lat="42.95474" lon="2.4836">
        <ele>403</ele>
        <time>2022-05-02T20:37:38Z</time>
      </trkpt>
      <trkpt lat="42.9541" lon="2.48317">
        <ele>406</ele>
        <time>2022-05-02T20:37:51Z</time>
      </trkpt>
      <trkpt lat="42.95397" lon="2.48304">
        <ele>409</ele>
        <time>2022-05-02T20:37:54Z</time>
      </trkpt>
      <trkpt lat="42.9538" lon="2.48279">
        <ele>413</ele>
        <time>2022-05-02T20:37:58Z</time>
      </trkpt>
      <trkpt lat="42.95369" lon="2.48253">
        <ele>414</ele>
        <time>2022-05-02T20:38:02Z</time>
      </trkpt>
      <trkpt lat="42.95328" lon="2.48124">
        <ele>413</ele>
        <time>2022-05-02T20:38:21Z</time>
      </trkpt>
      <trkpt lat="42.95315" lon="2.48096">
        <ele>414</ele>
        <time>2022-05-02T20:38:25Z</time>
      </trkpt>
      <trkpt lat="42.95292" lon="2.48058">
        <ele>418</ele>
        <time>2022-05-02T20:38:31Z</time>
      </trkpt>
      <trkpt lat="42.95282" lon="2.48047">
        <ele>419</ele>
        <time>2022-05-02T20:38:34Z</time>
      </trkpt>
      <trkpt lat="42.95266" lon="2.48035">
        <ele>419</ele>
        <time>2022-05-02T20:38:37Z</time>
      </trkpt>
      <trkpt lat="42.95255" lon="2.48031">
        <ele>420</ele>
        <time>2022-05-02T20:38:39Z</time>
      </trkpt>
      <trkpt lat="42.95245" lon="2.48031">
        <ele>420</ele>
        <time>2022-05-02T20:38:41Z</time>
      </trkpt>
      <trkpt lat="42.95205" lon="2.48041">
        <ele>424</ele>
        <time>2022-05-02T20:38:48Z</time>
      </trkpt>
      <trkpt lat="42.95198" lon="2.48041">
        <ele>425</ele>
        <time>2022-05-02T20:38:49Z</time>
      </trkpt>
      <trkpt lat="42.95168" lon="2.4803">
        <ele>426</ele>
        <time>2022-05-02T20:38:55Z</time>
      </trkpt>
      <trkpt lat="42.9516" lon="2.48032">
        <ele>428</ele>
        <time>2022-05-02T20:38:56Z</time>
      </trkpt>
      <trkpt lat="42.95153" lon="2.48039">
        <ele>429</ele>
        <time>2022-05-02T20:38:58Z</time>
      </trkpt>
      <trkpt lat="42.95148" lon="2.48048">
        <ele>430</ele>
        <time>2022-05-02T20:38:59Z</time>
      </trkpt>
      <trkpt lat="42.95131" lon="2.48084">
        <ele>429</ele>
        <time>2022-05-02T20:39:05Z</time>
      </trkpt>
      <trkpt lat="42.95088" lon="2.48141">
        <ele>431</ele>
        <time>2022-05-02T20:39:15Z</time>
      </trkpt>
      <trkpt lat="42.9508" lon="2.48149">
        <ele>430</ele>
        <time>2022-05-02T20:39:17Z</time>
      </trkpt>
      <trkpt lat="42.95073" lon="2.48152">
        <ele>430</ele>
        <time>2022-05-02T20:39:18Z</time>
      </trkpt>
      <trkpt lat="42.95058" lon="2.48149">
        <ele>431</ele>
        <time>2022-05-02T20:39:21Z</time>
      </trkpt>
      <trkpt lat="42.95028" lon="2.48128">
        <ele>434</ele>
        <time>2022-05-02T20:39:27Z</time>
      </trkpt>
      <trkpt lat="42.95019" lon="2.48125">
        <ele>436</ele>
        <time>2022-05-02T20:39:29Z</time>
      </trkpt>
      <trkpt lat="42.95009" lon="2.48127">
        <ele>436</ele>
        <time>2022-05-02T20:39:31Z</time>
      </trkpt>
      <trkpt lat="42.94974" lon="2.48148">
        <ele>432</ele>
        <time>2022-05-02T20:39:37Z</time>
      </trkpt>
      <trkpt lat="42.94966" lon="2.48151">
        <ele>432</ele>
        <time>2022-05-02T20:39:39Z</time>
      </trkpt>
      <trkpt lat="42.9495" lon="2.48148">
        <ele>432</ele>
        <time>2022-05-02T20:39:42Z</time>
      </trkpt>
      <trkpt lat="42.94931" lon="2.48137">
        <ele>434</ele>
        <time>2022-05-02T20:39:45Z</time>
      </trkpt>
      <trkpt lat="42.94923" lon="2.4813">
        <ele>435</ele>
        <time>2022-05-02T20:39:47Z</time>
      </trkpt>
      <trkpt lat="42.94905" lon="2.48107">
        <ele>437</ele>
        <time>2022-05-02T20:39:52Z</time>
      </trkpt>
      <trkpt lat="42.94886" lon="2.48093">
        <ele>436</ele>
        <time>2022-05-02T20:39:55Z</time>
      </trkpt>
      <trkpt lat="42.94872" lon="2.4809">
        <ele>435</ele>
        <time>2022-05-02T20:39:58Z</time>
      </trkpt>
      <trkpt lat="42.94836" lon="2.48087">
        <ele>431</ele>
        <time>2022-05-02T20:40:04Z</time>
      </trkpt>
      <trkpt lat="42.94829" lon="2.48084">
        <ele>430</ele>
        <time>2022-05-02T20:40:06Z</time>
      </trkpt>
      <trkpt lat="42.94823" lon="2.48079">
        <ele>430</ele>
        <time>2022-05-02T20:40:07Z</time>
      </trkpt>
      <trkpt lat="42.94818" lon="2.48071">
        <ele>431</ele>
        <time>2022-05-02T20:40:08Z</time>
      </trkpt>
      <trkpt lat="42.94814" lon="2.48059">
        <ele>432</ele>
        <time>2022-05-02T20:40:10Z</time>
      </trkpt>
      <trkpt lat="42.94812" lon="2.4805">
        <ele>432</ele>
        <time>2022-05-02T20:40:11Z</time>
      </trkpt>
      <trkpt lat="42.94813" lon="2.48041">
        <ele>433</ele>
        <time>2022-05-02T20:40:12Z</time>
      </trkpt>
      <trkpt lat="42.94816" lon="2.48032">
        <ele>433</ele>
        <time>2022-05-02T20:40:14Z</time>
      </trkpt>
      <trkpt lat="42.94845" lon="2.47993">
        <ele>437</ele>
        <time>2022-05-02T20:40:21Z</time>
      </trkpt>
      <trkpt lat="42.94849" lon="2.47983">
        <ele>439</ele>
        <time>2022-05-02T20:40:22Z</time>
      </trkpt>
      <trkpt lat="42.94851" lon="2.47968">
        <ele>441</ele>
        <time>2022-05-02T20:40:24Z</time>
      </trkpt>
      <trkpt lat="42.94849" lon="2.47957">
        <ele>442</ele>
        <time>2022-05-02T20:40:26Z</time>
      </trkpt>
      <trkpt lat="42.94844" lon="2.47949">
        <ele>442</ele>
        <time>2022-05-02T20:40:27Z</time>
      </trkpt>
      <trkpt lat="42.94837" lon="2.47944">
        <ele>441</ele>
        <time>2022-05-02T20:40:29Z</time>
      </trkpt>
      <trkpt lat="42.94829" lon="2.47942">
        <ele>442</ele>
        <time>2022-05-02T20:40:30Z</time>
      </trkpt>
      <trkpt lat="42.94818" lon="2.47945">
        <ele>444</ele>
        <time>2022-05-02T20:40:32Z</time>
      </trkpt>
      <trkpt lat="42.94809" lon="2.47952">
        <ele>444</ele>
        <time>2022-05-02T20:40:34Z</time>
      </trkpt>
      <trkpt lat="42.94791" lon="2.47976">
        <ele>442</ele>
        <time>2022-05-02T20:40:38Z</time>
      </trkpt>
      <trkpt lat="42.94783" lon="2.47983">
        <ele>441</ele>
        <time>2022-05-02T20:40:40Z</time>
      </trkpt>
      <trkpt lat="42.94774" lon="2.47987">
        <ele>441</ele>
        <time>2022-05-02T20:40:42Z</time>
      </trkpt>
      <trkpt lat="42.94762" lon="2.47988">
        <ele>442</ele>
        <time>2022-05-02T20:40:44Z</time>
      </trkpt>
      <trkpt lat="42.94696" lon="2.47966">
        <ele>450</ele>
        <time>2022-05-02T20:40:56Z</time>
      </trkpt>
      <trkpt lat="42.94678" lon="2.47957">
        <ele>452</ele>
        <time>2022-05-02T20:40:59Z</time>
      </trkpt>
      <trkpt lat="42.94643" lon="2.47924">
        <ele>458</ele>
        <time>2022-05-02T20:41:07Z</time>
      </trkpt>
      <trkpt lat="42.94588" lon="2.47859">
        <ele>460</ele>
        <time>2022-05-02T20:41:20Z</time>
      </trkpt>
      <trkpt lat="42.94573" lon="2.47844">
        <ele>462</ele>
        <time>2022-05-02T20:41:23Z</time>
      </trkpt>
      <trkpt lat="42.94549" lon="2.47828">
        <ele>464</ele>
        <time>2022-05-02T20:41:28Z</time>
      </trkpt>
      <trkpt lat="42.94529" lon="2.4781">
        <ele>466</ele>
        <time>2022-05-02T20:41:32Z</time>
      </trkpt>
      <trkpt lat="42.94513" lon="2.47793">
        <ele>467</ele>
        <time>2022-05-02T20:41:36Z</time>
      </trkpt>
      <trkpt lat="42.94488" lon="2.4776">
        <ele>470</ele>
        <time>2022-05-02T20:41:42Z</time>
      </trkpt>
      <trkpt lat="42.94478" lon="2.47742">
        <ele>472</ele>
        <time>2022-05-02T20:41:45Z</time>
      </trkpt>
      <trkpt lat="42.94473" lon="2.47728">
        <ele>473</ele>
        <time>2022-05-02T20:41:47Z</time>
      </trkpt>
      <trkpt lat="42.94468" lon="2.47714">
        <ele>474</ele>
        <time>2022-05-02T20:41:49Z</time>
      </trkpt>
      <trkpt lat="42.94465" lon="2.477">
        <ele>475</ele>
        <time>2022-05-02T20:41:51Z</time>
      </trkpt>
      <trkpt lat="42.9445" lon="2.47527">
        <ele>479</ele>
        <time>2022-05-02T20:42:14Z</time>
      </trkpt>
      <trkpt lat="42.94452" lon="2.47483">
        <ele>479</ele>
        <time>2022-05-02T20:42:19Z</time>
      </trkpt>
      <trkpt lat="42.94463" lon="2.47346">
        <ele>481</ele>
        <time>2022-05-02T20:42:37Z</time>
      </trkpt>
      <trkpt lat="42.94464" lon="2.47325">
        <ele>482</ele>
        <time>2022-05-02T20:42:40Z</time>
      </trkpt>
      <trkpt lat="42.94463" lon="2.47312">
        <ele>483</ele>
        <time>2022-05-02T20:42:42Z</time>
      </trkpt>
      <trkpt lat="42.94456" lon="2.47276">
        <ele>483</ele>
        <time>2022-05-02T20:42:47Z</time>
      </trkpt>
      <trkpt lat="42.94444" lon="2.47242">
        <ele>484</ele>
        <time>2022-05-02T20:42:51Z</time>
      </trkpt>
      <trkpt lat="42.94439" lon="2.47217">
        <ele>484</ele>
        <time>2022-05-02T20:42:55Z</time>
      </trkpt>
      <trkpt lat="42.94437" lon="2.47188">
        <ele>485</ele>
        <time>2022-05-02T20:42:59Z</time>
      </trkpt>
      <trkpt lat="42.94443" lon="2.47125">
        <ele>487</ele>
        <time>2022-05-02T20:43:07Z</time>
      </trkpt>
      <trkpt lat="42.94443" lon="2.47104">
        <ele>487</ele>
        <time>2022-05-02T20:43:10Z</time>
      </trkpt>
      <trkpt lat="42.94438" lon="2.47084">
        <ele>486</ele>
        <time>2022-05-02T20:43:12Z</time>
      </trkpt>
      <trkpt lat="42.94427" lon="2.4705">
        <ele>486</ele>
        <time>2022-05-02T20:43:17Z</time>
      </trkpt>
      <trkpt lat="42.94425" lon="2.47035">
        <ele>486</ele>
        <time>2022-05-02T20:43:19Z</time>
      </trkpt>
      <trkpt lat="42.94425" lon="2.47015">
        <ele>487</ele>
        <time>2022-05-02T20:43:22Z</time>
      </trkpt>
      <trkpt lat="42.94428" lon="2.46986">
        <ele>489</ele>
        <time>2022-05-02T20:43:26Z</time>
      </trkpt>
      <trkpt lat="42.94429" lon="2.46951">
        <ele>490</ele>
        <time>2022-05-02T20:43:30Z</time>
      </trkpt>
      <trkpt lat="42.94425" lon="2.46921">
        <ele>491</ele>
        <time>2022-05-02T20:43:34Z</time>
      </trkpt>
      <trkpt lat="42.94396" lon="2.46807">
        <ele>497</ele>
        <time>2022-05-02T20:43:50Z</time>
      </trkpt>
      <trkpt lat="42.94383" lon="2.46739">
        <ele>497</ele>
        <time>2022-05-02T20:43:59Z</time>
      </trkpt>
      <trkpt lat="42.94382" lon="2.46721">
        <ele>497</ele>
        <time>2022-05-02T20:44:01Z</time>
      </trkpt>
      <trkpt lat="42.94383" lon="2.46705">
        <ele>497</ele>
        <time>2022-05-02T20:44:04Z</time>
      </trkpt>
      <trkpt lat="42.94387" lon="2.46686">
        <ele>497</ele>
        <time>2022-05-02T20:44:06Z</time>
      </trkpt>
      <trkpt lat="42.94422" lon="2.46577">
        <ele>497</ele>
        <time>2022-05-02T20:44:22Z</time>
      </trkpt>
      <trkpt lat="42.94427" lon="2.46556">
        <ele>497</ele>
        <time>2022-05-02T20:44:24Z</time>
      </trkpt>
      <trkpt lat="42.9443" lon="2.46529">
        <ele>497</ele>
        <time>2022-05-02T20:44:28Z</time>
      </trkpt>
      <trkpt lat="42.9443" lon="2.46502">
        <ele>496</ele>
        <time>2022-05-02T20:44:32Z</time>
      </trkpt>
      <trkpt lat="42.94428" lon="2.46476">
        <ele>497</ele>
        <time>2022-05-02T20:44:35Z</time>
      </trkpt>
      <trkpt lat="42.94419" lon="2.46427">
        <ele>499</ele>
        <time>2022-05-02T20:44:42Z</time>
      </trkpt>
      <trkpt lat="42.94393" lon="2.46357">
        <ele>504</ele>
        <time>2022-05-02T20:44:52Z</time>
      </trkpt>
      <trkpt lat="42.94362" lon="2.46312">
        <ele>503</ele>
        <time>2022-05-02T20:45:00Z</time>
      </trkpt>
      <trkpt lat="42.94354" lon="2.46296">
        <ele>503</ele>
        <time>2022-05-02T20:45:02Z</time>
      </trkpt>
      <trkpt lat="42.9435" lon="2.46284">
        <ele>503</ele>
        <time>2022-05-02T20:45:04Z</time>
      </trkpt>
      <trkpt lat="42.94349" lon="2.46268">
        <ele>503</ele>
        <time>2022-05-02T20:45:06Z</time>
      </trkpt>
      <trkpt lat="42.9435" lon="2.46258">
        <ele>503</ele>
        <time>2022-05-02T20:45:07Z</time>
      </trkpt>
      <trkpt lat="42.94353" lon="2.46248">
        <ele>503</ele>
        <time>2022-05-02T20:45:09Z</time>
      </trkpt>
      <trkpt lat="42.94373" lon="2.46197">
        <ele>506</ele>
        <time>2022-05-02T20:45:16Z</time>
      </trkpt>
      <trkpt lat="42.94378" lon="2.46172">
        <ele>508</ele>
        <time>2022-05-02T20:45:20Z</time>
      </trkpt>
      <trkpt lat="42.94377" lon="2.46161">
        <ele>508</ele>
        <time>2022-05-02T20:45:21Z</time>
      </trkpt>
      <trkpt lat="42.94374" lon="2.4615">
        <ele>508</ele>
        <time>2022-05-02T20:45:23Z</time>
      </trkpt>
      <trkpt lat="42.94365" lon="2.46132">
        <ele>508</ele>
        <time>2022-05-02T20:45:26Z</time>
      </trkpt>
      <trkpt lat="42.94329" lon="2.46098">
        <ele>505</ele>
        <time>2022-05-02T20:45:33Z</time>
      </trkpt>
      <trkpt lat="42.94322" lon="2.46087">
        <ele>506</ele>
        <time>2022-05-02T20:45:35Z</time>
      </trkpt>
      <trkpt lat="42.94318" lon="2.46077">
        <ele>506</ele>
        <time>2022-05-02T20:45:37Z</time>
      </trkpt>
      <trkpt lat="42.94316" lon="2.46064">
        <ele>507</ele>
        <time>2022-05-02T20:45:38Z</time>
      </trkpt>
      <trkpt lat="42.94305" lon="2.45997">
        <ele>510</ele>
        <time>2022-05-02T20:45:47Z</time>
      </trkpt>
      <trkpt lat="42.94303" lon="2.45973">
        <ele>512</ele>
        <time>2022-05-02T20:45:51Z</time>
      </trkpt>
      <trkpt lat="42.94306" lon="2.45948">
        <ele>513</ele>
        <time>2022-05-02T20:45:54Z</time>
      </trkpt>
      <trkpt lat="42.94318" lon="2.45913">
        <ele>512</ele>
        <time>2022-05-02T20:45:59Z</time>
      </trkpt>
      <trkpt lat="42.94352" lon="2.45845">
        <ele>515</ele>
        <time>2022-05-02T20:46:10Z</time>
      </trkpt>
      <trkpt lat="42.94367" lon="2.45807">
        <ele>518</ele>
        <time>2022-05-02T20:46:15Z</time>
      </trkpt>
      <trkpt lat="42.94391" lon="2.4571">
        <ele>520</ele>
        <time>2022-05-02T20:46:29Z</time>
      </trkpt>
      <trkpt lat="42.94443" lon="2.45489">
        <ele>525</ele>
        <time>2022-05-02T20:46:59Z</time>
      </trkpt>
      <trkpt lat="42.94447" lon="2.45466">
        <ele>525</ele>
        <time>2022-05-02T20:47:02Z</time>
      </trkpt>
      <trkpt lat="42.94447" lon="2.45445">
        <ele>526</ele>
        <time>2022-05-02T20:47:05Z</time>
      </trkpt>
      <trkpt lat="42.94446" lon="2.45429">
        <ele>527</ele>
        <time>2022-05-02T20:47:07Z</time>
      </trkpt>
      <trkpt lat="42.94437" lon="2.45394">
        <ele>530</ele>
        <time>2022-05-02T20:47:12Z</time>
      </trkpt>
      <trkpt lat="42.94396" lon="2.4528">
        <ele>534</ele>
        <time>2022-05-02T20:47:28Z</time>
      </trkpt>
      <trkpt lat="42.94369" lon="2.45215">
        <ele>538</ele>
        <time>2022-05-02T20:47:38Z</time>
      </trkpt>
      <trkpt lat="42.9436" lon="2.45198">
        <ele>540</ele>
        <time>2022-05-02T20:47:41Z</time>
      </trkpt>
      <trkpt lat="42.94346" lon="2.4518">
        <ele>543</ele>
        <time>2022-05-02T20:47:44Z</time>
      </trkpt>
      <trkpt lat="42.94326" lon="2.45157">
        <ele>548</ele>
        <time>2022-05-02T20:47:49Z</time>
      </trkpt>
      <trkpt lat="42.94317" lon="2.45139">
        <ele>550</ele>
        <time>2022-05-02T20:47:51Z</time>
      </trkpt>
      <trkpt lat="42.94315" lon="2.45128">
        <ele>551</ele>
        <time>2022-05-02T20:47:53Z</time>
      </trkpt>
      <trkpt lat="42.94317" lon="2.45104">
        <ele>551</ele>
        <time>2022-05-02T20:47:56Z</time>
      </trkpt>
      <trkpt lat="42.94334" lon="2.4503">
        <ele>550</ele>
        <time>2022-05-02T20:48:06Z</time>
      </trkpt>
      <trkpt lat="42.94339" lon="2.45003">
        <ele>551</ele>
        <time>2022-05-02T20:48:10Z</time>
      </trkpt>
      <trkpt lat="42.94343" lon="2.44942">
        <ele>552</ele>
        <time>2022-05-02T20:48:18Z</time>
      </trkpt>
      <trkpt lat="42.94342" lon="2.44914">
        <ele>554</ele>
        <time>2022-05-02T20:48:21Z</time>
      </trkpt>
      <trkpt lat="42.94339" lon="2.44884">
        <ele>556</ele>
        <time>2022-05-02T20:48:25Z</time>
      </trkpt>
      <trkpt lat="42.94336" lon="2.44872">
        <ele>557</ele>
        <time>2022-05-02T20:48:27Z</time>
      </trkpt>
      <trkpt lat="42.94321" lon="2.44835">
        <ele>561</ele>
        <time>2022-05-02T20:48:33Z</time>
      </trkpt>
      <trkpt lat="42.94318" lon="2.44822">
        <ele>562</ele>
        <time>2022-05-02T20:48:34Z</time>
      </trkpt>
      <trkpt lat="42.94318" lon="2.44807">
        <ele>563</ele>
        <time>2022-05-02T20:48:36Z</time>
      </trkpt>
      <trkpt lat="42.94319" lon="2.44795">
        <ele>564</ele>
        <time>2022-05-02T20:48:38Z</time>
      </trkpt>
      <trkpt lat="42.94337" lon="2.44748">
        <ele>563</ele>
        <time>2022-05-02T20:48:45Z</time>
      </trkpt>
      <trkpt lat="42.9434" lon="2.44735">
        <ele>563</ele>
        <time>2022-05-02T20:48:47Z</time>
      </trkpt>
      <trkpt lat="42.9434" lon="2.44722">
        <ele>563</ele>
        <time>2022-05-02T20:48:48Z</time>
      </trkpt>
      <trkpt lat="42.94337" lon="2.44705">
        <ele>563</ele>
        <time>2022-05-02T20:48:51Z</time>
      </trkpt>
      <trkpt lat="42.94312" lon="2.44662">
        <ele>567</ele>
        <time>2022-05-02T20:48:58Z</time>
      </trkpt>
      <trkpt lat="42.94307" lon="2.44652">
        <ele>569</ele>
        <time>2022-05-02T20:48:59Z</time>
      </trkpt>
      <trkpt lat="42.94305" lon="2.44641">
        <ele>569</ele>
        <time>2022-05-02T20:49:01Z</time>
      </trkpt>
      <trkpt lat="42.94304" lon="2.44629">
        <ele>570</ele>
        <time>2022-05-02T20:49:02Z</time>
      </trkpt>
      <trkpt lat="42.94306" lon="2.44613">
        <ele>570</ele>
        <time>2022-05-02T20:49:04Z</time>
      </trkpt>
      <trkpt lat="42.94343" lon="2.44493">
        <ele>570</ele>
        <time>2022-05-02T20:49:21Z</time>
      </trkpt>
      <trkpt lat="42.94347" lon="2.44472">
        <ele>571</ele>
        <time>2022-05-02T20:49:24Z</time>
      </trkpt>
      <trkpt lat="42.94347" lon="2.44458">
        <ele>571</ele>
        <time>2022-05-02T20:49:26Z</time>
      </trkpt>
      <trkpt lat="42.94345" lon="2.44446">
        <ele>572</ele>
        <time>2022-05-02T20:49:28Z</time>
      </trkpt>
      <trkpt lat="42.94315" lon="2.4438">
        <ele>576</ele>
        <time>2022-05-02T20:49:38Z</time>
      </trkpt>
      <trkpt lat="42.94307" lon="2.44348">
        <ele>577</ele>
        <time>2022-05-02T20:49:42Z</time>
      </trkpt>
      <trkpt lat="42.94304" lon="2.44325">
        <ele>578</ele>
        <time>2022-05-02T20:49:45Z</time>
      </trkpt>
      <trkpt lat="42.94275" lon="2.43874">
        <ele>605</ele>
        <time>2022-05-02T20:50:44Z</time>
      </trkpt>
      <trkpt lat="42.94278" lon="2.43843">
        <ele>608</ele>
        <time>2022-05-02T20:50:48Z</time>
      </trkpt>
      <trkpt lat="42.94303" lon="2.43776">
        <ele>609</ele>
        <time>2022-05-02T20:50:58Z</time>
      </trkpt>
      <trkpt lat="42.94333" lon="2.43703">
        <ele>610</ele>
        <time>2022-05-02T20:51:09Z</time>
      </trkpt>
      <trkpt lat="42.9434" lon="2.43671">
        <ele>613</ele>
        <time>2022-05-02T20:51:13Z</time>
      </trkpt>
      <trkpt lat="42.94346" lon="2.43587">
        <ele>618</ele>
        <time>2022-05-02T20:51:24Z</time>
      </trkpt>
      <trkpt lat="42.9435" lon="2.43564">
        <ele>619</ele>
        <time>2022-05-02T20:51:27Z</time>
      </trkpt>
      <trkpt lat="42.94366" lon="2.43513">
        <ele>617</ele>
        <time>2022-05-02T20:51:35Z</time>
      </trkpt>
      <trkpt lat="42.94369" lon="2.43488">
        <ele>618</ele>
        <time>2022-05-02T20:51:38Z</time>
      </trkpt>
      <trkpt lat="42.94371" lon="2.43393">
        <ele>626</ele>
        <time>2022-05-02T20:51:50Z</time>
      </trkpt>
      <trkpt lat="42.94375" lon="2.43354">
        <ele>629</ele>
        <time>2022-05-02T20:51:55Z</time>
      </trkpt>
      <trkpt lat="42.94383" lon="2.43328">
        <ele>630</ele>
        <time>2022-05-02T20:51:59Z</time>
      </trkpt>
      <trkpt lat="42.94393" lon="2.43305">
        <ele>630</ele>
        <time>2022-05-02T20:52:03Z</time>
      </trkpt>
      <trkpt lat="42.94441" lon="2.43231">
        <ele>634</ele>
        <time>2022-05-02T20:52:15Z</time>
      </trkpt>
      <trkpt lat="42.94449" lon="2.43206">
        <ele>635</ele>
        <time>2022-05-02T20:52:19Z</time>
      </trkpt>
      <trkpt lat="42.94453" lon="2.43172">
        <ele>637</ele>
        <time>2022-05-02T20:52:23Z</time>
      </trkpt>
      <trkpt lat="42.9446" lon="2.43146">
        <ele>636</ele>
        <time>2022-05-02T20:52:27Z</time>
      </trkpt>
      <trkpt lat="42.94499" lon="2.43039">
        <ele>628</ele>
        <time>2022-05-02T20:52:43Z</time>
      </trkpt>
      <trkpt lat="42.94518" lon="2.43012">
        <ele>627</ele>
        <time>2022-05-02T20:52:48Z</time>
      </trkpt>
      <trkpt lat="42.94536" lon="2.43001">
        <ele>627</ele>
        <time>2022-05-02T20:52:51Z</time>
      </trkpt>
      <trkpt lat="42.94578" lon="2.4299">
        <ele>629</ele>
        <time>2022-05-02T20:52:59Z</time>
      </trkpt>
      <trkpt lat="42.94608" lon="2.42976">
        <ele>628</ele>
        <time>2022-05-02T20:53:04Z</time>
      </trkpt>
      <trkpt lat="42.94648" lon="2.42938">
        <ele>626</ele>
        <time>2022-05-02T20:53:13Z</time>
      </trkpt>
      <trkpt lat="42.94692" lon="2.42891">
        <ele>623</ele>
        <time>2022-05-02T20:53:23Z</time>
      </trkpt>
      <trkpt lat="42.94704" lon="2.42863">
        <ele>622</ele>
        <time>2022-05-02T20:53:27Z</time>
      </trkpt>
      <trkpt lat="42.94706" lon="2.42829">
        <ele>621</ele>
        <time>2022-05-02T20:53:32Z</time>
      </trkpt>
      <trkpt lat="42.94699" lon="2.42809">
        <ele>620</ele>
        <time>2022-05-02T20:53:34Z</time>
      </trkpt>
      <trkpt lat="42.94691" lon="2.42793">
        <ele>620</ele>
        <time>2022-05-02T20:53:37Z</time>
      </trkpt>
      <trkpt lat="42.94677" lon="2.4278">
        <ele>619</ele>
        <time>2022-05-02T20:53:40Z</time>
      </trkpt>
      <trkpt lat="42.94649" lon="2.42766">
        <ele>617</ele>
        <time>2022-05-02T20:53:45Z</time>
      </trkpt>
      <trkpt lat="42.94553" lon="2.42724">
        <ele>611</ele>
        <time>2022-05-02T20:54:03Z</time>
      </trkpt>
      <trkpt lat="42.9454" lon="2.42713">
        <ele>609</ele>
        <time>2022-05-02T20:54:06Z</time>
      </trkpt>
      <trkpt lat="42.94527" lon="2.42698">
        <ele>608</ele>
        <time>2022-05-02T20:54:09Z</time>
      </trkpt>
      <trkpt lat="42.94512" lon="2.42664">
        <ele>606</ele>
        <time>2022-05-02T20:54:14Z</time>
      </trkpt>
      <trkpt lat="42.94512" lon="2.4263">
        <ele>602</ele>
        <time>2022-05-02T20:54:19Z</time>
      </trkpt>
      <trkpt lat="42.94521" lon="2.42599">
        <ele>600</ele>
        <time>2022-05-02T20:54:23Z</time>
      </trkpt>
      <trkpt lat="42.94534" lon="2.42578">
        <ele>599</ele>
        <time>2022-05-02T20:54:26Z</time>
      </trkpt>
      <trkpt lat="42.94552" lon="2.42559">
        <ele>598</ele>
        <time>2022-05-02T20:54:31Z</time>
      </trkpt>
      <trkpt lat="42.94601" lon="2.42517">
        <ele>595</ele>
        <time>2022-05-02T20:54:41Z</time>
      </trkpt>
      <trkpt lat="42.94632" lon="2.42495">
        <ele>593</ele>
        <time>2022-05-02T20:54:47Z</time>
      </trkpt>
      <trkpt lat="42.94644" lon="2.42491">
        <ele>592</ele>
        <time>2022-05-02T20:54:49Z</time>
      </trkpt>
      <trkpt lat="42.94679" lon="2.42481">
        <ele>591</ele>
        <time>2022-05-02T20:54:56Z</time>
      </trkpt>
      <trkpt lat="42.94692" lon="2.42481">
        <ele>589</ele>
        <time>2022-05-02T20:54:58Z</time>
      </trkpt>
      <trkpt lat="42.94719" lon="2.42491">
        <ele>588</ele>
        <time>2022-05-02T20:55:03Z</time>
      </trkpt>
      <trkpt lat="42.94763" lon="2.42519">
        <ele>589</ele>
        <time>2022-05-02T20:55:12Z</time>
      </trkpt>
      <trkpt lat="42.94775" lon="2.42523">
        <ele>589</ele>
        <time>2022-05-02T20:55:14Z</time>
      </trkpt>
      <trkpt lat="42.94803" lon="2.42525">
        <ele>587</ele>
        <time>2022-05-02T20:55:19Z</time>
      </trkpt>
      <trkpt lat="42.94845" lon="2.42519">
        <ele>584</ele>
        <time>2022-05-02T20:55:26Z</time>
      </trkpt>
      <trkpt lat="42.94856" lon="2.42515">
        <ele>585</ele>
        <time>2022-05-02T20:55:28Z</time>
      </trkpt>
      <trkpt lat="42.94865" lon="2.4251">
        <ele>586</ele>
        <time>2022-05-02T20:55:30Z</time>
      </trkpt>
      <trkpt lat="42.94872" lon="2.42503">
        <ele>586</ele>
        <time>2022-05-02T20:55:32Z</time>
      </trkpt>
      <trkpt lat="42.94877" lon="2.42494">
        <ele>586</ele>
        <time>2022-05-02T20:55:33Z</time>
      </trkpt>
      <trkpt lat="42.9488" lon="2.42482">
        <ele>586</ele>
        <time>2022-05-02T20:55:35Z</time>
      </trkpt>
      <trkpt lat="42.94882" lon="2.42469">
        <ele>586</ele>
        <time>2022-05-02T20:55:36Z</time>
      </trkpt>
      <trkpt lat="42.9488" lon="2.42457">
        <ele>585</ele>
        <time>2022-05-02T20:55:38Z</time>
      </trkpt>
      <trkpt lat="42.94877" lon="2.42443">
        <ele>584</ele>
        <time>2022-05-02T20:55:40Z</time>
      </trkpt>
      <trkpt lat="42.94807" lon="2.42275">
        <ele>567</ele>
        <time>2022-05-02T20:56:05Z</time>
      </trkpt>
      <trkpt lat="42.94803" lon="2.42258">
        <ele>566</ele>
        <time>2022-05-02T20:56:07Z</time>
      </trkpt>
      <trkpt lat="42.94801" lon="2.42227">
        <ele>564</ele>
        <time>2022-05-02T20:56:11Z</time>
      </trkpt>
      <trkpt lat="42.94802" lon="2.42211">
        <ele>564</ele>
        <time>2022-05-02T20:56:14Z</time>
      </trkpt>
      <trkpt lat="42.94813" lon="2.42151">
        <ele>563</ele>
        <time>2022-05-02T20:56:22Z</time>
      </trkpt>
      <trkpt lat="42.94814" lon="2.42135">
        <ele>562</ele>
        <time>2022-05-02T20:56:24Z</time>
      </trkpt>
      <trkpt lat="42.94812" lon="2.42114">
        <ele>561</ele>
        <time>2022-05-02T20:56:26Z</time>
      </trkpt>
      <trkpt lat="42.94796" lon="2.42062">
        <ele>555</ele>
        <time>2022-05-02T20:56:34Z</time>
      </trkpt>
      <trkpt lat="42.94767" lon="2.41981">
        <ele>545</ele>
        <time>2022-05-02T20:56:46Z</time>
      </trkpt>
      <trkpt lat="42.94761" lon="2.41957">
        <ele>543</ele>
        <time>2022-05-02T20:56:49Z</time>
      </trkpt>
      <trkpt lat="42.94759" lon="2.41939">
        <ele>541</ele>
        <time>2022-05-02T20:56:51Z</time>
      </trkpt>
      <trkpt lat="42.94762" lon="2.41921">
        <ele>541</ele>
        <time>2022-05-02T20:56:54Z</time>
      </trkpt>
      <trkpt lat="42.94768" lon="2.41903">
        <ele>540</ele>
        <time>2022-05-02T20:56:56Z</time>
      </trkpt>
      <trkpt lat="42.9478" lon="2.41883">
        <ele>539</ele>
        <time>2022-05-02T20:57:00Z</time>
      </trkpt>
      <trkpt lat="42.94793" lon="2.41868">
        <ele>539</ele>
        <time>2022-05-02T20:57:03Z</time>
      </trkpt>
      <trkpt lat="42.94826" lon="2.41844">
        <ele>540</ele>
        <time>2022-05-02T20:57:09Z</time>
      </trkpt>
      <trkpt lat="42.94838" lon="2.41831">
        <ele>539</ele>
        <time>2022-05-02T20:57:12Z</time>
      </trkpt>
      <trkpt lat="42.94844" lon="2.41822">
        <ele>539</ele>
        <time>2022-05-02T20:57:14Z</time>
      </trkpt>
      <trkpt lat="42.94848" lon="2.41811">
        <ele>539</ele>
        <time>2022-05-02T20:57:15Z</time>
      </trkpt>
      <trkpt lat="42.94855" lon="2.4178">
        <ele>537</ele>
        <time>2022-05-02T20:57:19Z</time>
      </trkpt>
      <trkpt lat="42.94861" lon="2.41742">
        <ele>536</ele>
        <time>2022-05-02T20:57:24Z</time>
      </trkpt>
      <trkpt lat="42.94861" lon="2.41728">
        <ele>536</ele>
        <time>2022-05-02T20:57:26Z</time>
      </trkpt>
      <trkpt lat="42.94857" lon="2.41692">
        <ele>534</ele>
        <time>2022-05-02T20:57:31Z</time>
      </trkpt>
      <trkpt lat="42.94852" lon="2.41671">
        <ele>532</ele>
        <time>2022-05-02T20:57:34Z</time>
      </trkpt>
      <trkpt lat="42.94847" lon="2.41654">
        <ele>532</ele>
        <time>2022-05-02T20:57:36Z</time>
      </trkpt>
      <trkpt lat="42.94805" lon="2.41559">
        <ele>525</ele>
        <time>2022-05-02T20:57:51Z</time>
      </trkpt>
      <trkpt lat="42.94802" lon="2.41546">
        <ele>525</ele>
        <time>2022-05-02T20:57:52Z</time>
      </trkpt>
      <trkpt lat="42.94802" lon="2.41531">
        <ele>526</ele>
        <time>2022-05-02T20:57:54Z</time>
      </trkpt>
      <trkpt lat="42.94807" lon="2.41499">
        <ele>529</ele>
        <time>2022-05-02T20:57:59Z</time>
      </trkpt>
      <trkpt lat="42.94808" lon="2.41481">
        <ele>529</ele>
        <time>2022-05-02T20:58:01Z</time>
      </trkpt>
      <trkpt lat="42.94807" lon="2.41463">
        <ele>529</ele>
        <time>2022-05-02T20:58:03Z</time>
      </trkpt>
      <trkpt lat="42.94804" lon="2.41443">
        <ele>528</ele>
        <time>2022-05-02T20:58:06Z</time>
      </trkpt>
      <trkpt lat="42.94787" lon="2.41386">
        <ele>523</ele>
        <time>2022-05-02T20:58:14Z</time>
      </trkpt>
      <trkpt lat="42.94775" lon="2.4132">
        <ele>520</ele>
        <time>2022-05-02T20:58:23Z</time>
      </trkpt>
      <trkpt lat="42.94769" lon="2.41293">
        <ele>520</ele>
        <time>2022-05-02T20:58:27Z</time>
      </trkpt>
      <trkpt lat="42.94755" lon="2.41253">
        <ele>517</ele>
        <time>2022-05-02T20:58:32Z</time>
      </trkpt>
      <trkpt lat="42.94738" lon="2.41177">
        <ele>511</ele>
        <time>2022-05-02T20:58:43Z</time>
      </trkpt>
      <trkpt lat="42.94736" lon="2.41151">
        <ele>509</ele>
        <time>2022-05-02T20:58:46Z</time>
      </trkpt>
      <trkpt lat="42.94739" lon="2.41141">
        <ele>509</ele>
        <time>2022-05-02T20:58:48Z</time>
      </trkpt>
      <trkpt lat="42.94754" lon="2.41112">
        <ele>513</ele>
        <time>2022-05-02T20:58:52Z</time>
      </trkpt>
      <trkpt lat="42.94758" lon="2.41093">
        <ele>512</ele>
        <time>2022-05-02T20:58:55Z</time>
      </trkpt>
      <trkpt lat="42.94757" lon="2.4107">
        <ele>510</ele>
        <time>2022-05-02T20:58:58Z</time>
      </trkpt>
      <trkpt lat="42.94748" lon="2.41027">
        <ele>504</ele>
        <time>2022-05-02T20:59:04Z</time>
      </trkpt>
      <trkpt lat="42.94746" lon="2.41005">
        <ele>501</ele>
        <time>2022-05-02T20:59:06Z</time>
      </trkpt>
      <trkpt lat="42.94756" lon="2.40872">
        <ele>489</ele>
        <time>2022-05-02T20:59:24Z</time>
      </trkpt>
      <trkpt lat="42.9476" lon="2.4086">
        <ele>488</ele>
        <time>2022-05-02T20:59:26Z</time>
      </trkpt>
      <trkpt lat="42.9477" lon="2.40846">
        <ele>487</ele>
        <time>2022-05-02T20:59:28Z</time>
      </trkpt>
      <trkpt lat="42.94786" lon="2.40838">
        <ele>489</ele>
        <time>2022-05-02T20:59:31Z</time>
      </trkpt>
      <trkpt lat="42.94824" lon="2.40829">
        <ele>494</ele>
        <time>2022-05-02T20:59:38Z</time>
      </trkpt>
      <trkpt lat="42.94833" lon="2.40825">
        <ele>495</ele>
        <time>2022-05-02T20:59:40Z</time>
      </trkpt>
      <trkpt lat="42.94841" lon="2.40816">
        <ele>495</ele>
        <time>2022-05-02T20:59:42Z</time>
      </trkpt>
      <trkpt lat="42.94847" lon="2.40806">
        <ele>494</ele>
        <time>2022-05-02T20:59:43Z</time>
      </trkpt>
      <trkpt lat="42.94849" lon="2.40797">
        <ele>493</ele>
        <time>2022-05-02T20:59:44Z</time>
      </trkpt>
      <trkpt lat="42.9485" lon="2.4076">
        <ele>490</ele>
        <time>2022-05-02T20:59:49Z</time>
      </trkpt>
      <trkpt lat="42.94852" lon="2.4075">
        <ele>489</ele>
        <time>2022-05-02T20:59:51Z</time>
      </trkpt>
      <trkpt lat="42.94856" lon="2.40739">
        <ele>488</ele>
        <time>2022-05-02T20:59:52Z</time>
      </trkpt>
      <trkpt lat="42.94881" lon="2.40708">
        <ele>485</ele>
        <time>2022-05-02T20:59:58Z</time>
      </trkpt>
      <trkpt lat="42.94886" lon="2.40698">
        <ele>485</ele>
        <time>2022-05-02T21:00:00Z</time>
      </trkpt>
      <trkpt lat="42.94889" lon="2.40686">
        <ele>484</ele>
        <time>2022-05-02T21:00:01Z</time>
      </trkpt>
      <trkpt lat="42.9489" lon="2.40657">
        <ele>481</ele>
        <time>2022-05-02T21:00:05Z</time>
      </trkpt>
      <trkpt lat="42.94888" lon="2.40642">
        <ele>480</ele>
        <time>2022-05-02T21:00:07Z</time>
      </trkpt>
      <trkpt lat="42.9488" lon="2.40612">
        <ele>476</ele>
        <time>2022-05-02T21:00:11Z</time>
      </trkpt>
      <trkpt lat="42.94878" lon="2.40592">
        <ele>475</ele>
        <time>2022-05-02T21:00:14Z</time>
      </trkpt>
      <trkpt lat="42.94879" lon="2.40565">
        <ele>472</ele>
        <time>2022-05-02T21:00:18Z</time>
      </trkpt>
      <trkpt lat="42.94888" lon="2.4054">
        <ele>470</ele>
        <time>2022-05-02T21:00:21Z</time>
      </trkpt>
      <trkpt lat="42.94894" lon="2.40532">
        <ele>470</ele>
        <time>2022-05-02T21:00:23Z</time>
      </trkpt>
      <trkpt lat="42.94907" lon="2.4052">
        <ele>470</ele>
        <time>2022-05-02T21:00:25Z</time>
      </trkpt>
      <trkpt lat="42.94964" lon="2.40499">
        <ele>473</ele>
        <time>2022-05-02T21:00:36Z</time>
      </trkpt>
      <trkpt lat="42.94996" lon="2.40479">
        <ele>473</ele>
        <time>2022-05-02T21:00:42Z</time>
      </trkpt>
      <trkpt lat="42.95006" lon="2.40468">
        <ele>473</ele>
        <time>2022-05-02T21:00:45Z</time>
      </trkpt>
      <trkpt lat="42.95011" lon="2.40456">
        <ele>472</ele>
        <time>2022-05-02T21:00:46Z</time>
      </trkpt>
      <trkpt lat="42.95015" lon="2.40442">
        <ele>471</ele>
        <time>2022-05-02T21:00:48Z</time>
      </trkpt>
      <trkpt lat="42.95016" lon="2.40409">
        <ele>468</ele>
        <time>2022-05-02T21:00:53Z</time>
      </trkpt>
      <trkpt lat="42.95021" lon="2.40368">
        <ele>465</ele>
        <time>2022-05-02T21:00:58Z</time>
      </trkpt>
      <trkpt lat="42.95025" lon="2.40356">
        <ele>465</ele>
        <time>2022-05-02T21:01:00Z</time>
      </trkpt>
      <trkpt lat="42.9503" lon="2.40346">
        <ele>464</ele>
        <time>2022-05-02T21:01:01Z</time>
      </trkpt>
      <trkpt lat="42.95058" lon="2.40319">
        <ele>465</ele>
        <time>2022-05-02T21:01:07Z</time>
      </trkpt>
      <trkpt lat="42.9507" lon="2.40303">
        <ele>465</ele>
        <time>2022-05-02T21:01:10Z</time>
      </trkpt>
      <trkpt lat="42.95105" lon="2.4022">
        <ele>457</ele>
        <time>2022-05-02T21:01:23Z</time>
      </trkpt>
      <trkpt lat="42.95111" lon="2.40211">
        <ele>456</ele>
        <time>2022-05-02T21:01:24Z</time>
      </trkpt>
      <trkpt lat="42.95123" lon="2.40197">
        <ele>457</ele>
        <time>2022-05-02T21:01:27Z</time>
      </trkpt>
      <trkpt lat="42.95132" lon="2.40184">
        <ele>457</ele>
        <time>2022-05-02T21:01:30Z</time>
      </trkpt>
      <trkpt lat="42.95135" lon="2.40174">
        <ele>457</ele>
        <time>2022-05-02T21:01:31Z</time>
      </trkpt>
      <trkpt lat="42.95137" lon="2.4016">
        <ele>456</ele>
        <time>2022-05-02T21:01:33Z</time>
      </trkpt>
      <trkpt lat="42.95133" lon="2.40123">
        <ele>453</ele>
        <time>2022-05-02T21:01:38Z</time>
      </trkpt>
      <trkpt lat="42.95133" lon="2.40098">
        <ele>452</ele>
        <time>2022-05-02T21:01:41Z</time>
      </trkpt>
      <trkpt lat="42.95137" lon="2.40084">
        <ele>452</ele>
        <time>2022-05-02T21:01:43Z</time>
      </trkpt>
      <trkpt lat="42.95152" lon="2.40048">
        <ele>451</ele>
        <time>2022-05-02T21:01:48Z</time>
      </trkpt>
      <trkpt lat="42.95163" lon="2.39997">
        <ele>447</ele>
        <time>2022-05-02T21:01:55Z</time>
      </trkpt>
      <trkpt lat="42.95181" lon="2.39938">
        <ele>443</ele>
        <time>2022-05-02T21:02:04Z</time>
      </trkpt>
      <trkpt lat="42.95183" lon="2.3992">
        <ele>442</ele>
        <time>2022-05-02T21:02:06Z</time>
      </trkpt>
      <trkpt lat="42.95184" lon="2.39855">
        <ele>437</ele>
        <time>2022-05-02T21:02:14Z</time>
      </trkpt>
      <trkpt lat="42.95187" lon="2.39846">
        <ele>437</ele>
        <time>2022-05-02T21:02:16Z</time>
      </trkpt>
      <trkpt lat="42.95212" lon="2.39815">
        <ele>437</ele>
        <time>2022-05-02T21:02:22Z</time>
      </trkpt>
      <trkpt lat="42.95219" lon="2.39802">
        <ele>436</ele>
        <time>2022-05-02T21:02:24Z</time>
      </trkpt>
      <trkpt lat="42.95226" lon="2.39778">
        <ele>435</ele>
        <time>2022-05-02T21:02:27Z</time>
      </trkpt>
      <trkpt lat="42.95236" lon="2.39723">
        <ele>429</ele>
        <time>2022-05-02T21:02:35Z</time>
      </trkpt>
      <trkpt lat="42.95241" lon="2.39713">
        <ele>429</ele>
        <time>2022-05-02T21:02:36Z</time>
      </trkpt>
      <trkpt lat="42.95257" lon="2.39694">
        <ele>427</ele>
        <time>2022-05-02T21:02:40Z</time>
      </trkpt>
      <trkpt lat="42.95331" lon="2.39633">
        <ele>418</ele>
        <time>2022-05-02T21:02:55Z</time>
      </trkpt>
      <trkpt lat="42.95338" lon="2.39631">
        <ele>417</ele>
        <time>2022-05-02T21:02:57Z</time>
      </trkpt>
      <trkpt lat="42.95343" lon="2.39632">
        <ele>417</ele>
        <time>2022-05-02T21:02:57Z</time>
      </trkpt>
      <trkpt lat="42.95347" lon="2.39637">
        <ele>418</ele>
        <time>2022-05-02T21:02:58Z</time>
      </trkpt>
      <trkpt lat="42.95349" lon="2.39643">
        <ele>419</ele>
        <time>2022-05-02T21:02:59Z</time>
      </trkpt>
      <trkpt lat="42.95345" lon="2.39713">
        <ele>429</ele>
        <time>2022-05-02T21:03:08Z</time>
      </trkpt>
      <trkpt lat="42.95345" lon="2.39755">
        <ele>433</ele>
        <time>2022-05-02T21:03:14Z</time>
      </trkpt>
      <trkpt lat="42.95347" lon="2.39769">
        <ele>434</ele>
        <time>2022-05-02T21:03:16Z</time>
      </trkpt>
      <trkpt lat="42.95351" lon="2.39779">
        <ele>434</ele>
        <time>2022-05-02T21:03:17Z</time>
      </trkpt>
      <trkpt lat="42.95356" lon="2.39785">
        <ele>434</ele>
        <time>2022-05-02T21:03:18Z</time>
      </trkpt>
      <trkpt lat="42.95365" lon="2.39785">
        <ele>434</ele>
        <time>2022-05-02T21:03:20Z</time>
      </trkpt>
      <trkpt lat="42.95371" lon="2.39783">
        <ele>433</ele>
        <time>2022-05-02T21:03:21Z</time>
      </trkpt>
      <trkpt lat="42.9539" lon="2.39755">
        <ele>430</ele>
        <time>2022-05-02T21:03:26Z</time>
      </trkpt>
      <trkpt lat="42.95416" lon="2.39722">
        <ele>423</ele>
        <time>2022-05-02T21:03:32Z</time>
      </trkpt>
      <trkpt lat="42.95431" lon="2.397">
        <ele>422</ele>
        <time>2022-05-02T21:03:36Z</time>
      </trkpt>
      <trkpt lat="42.95441" lon="2.39676">
        <ele>420</ele>
        <time>2022-05-02T21:03:40Z</time>
      </trkpt>
      <trkpt lat="42.95456" lon="2.39621">
        <ele>413</ele>
        <time>2022-05-02T21:03:48Z</time>
      </trkpt>
      <trkpt lat="42.95466" lon="2.39599">
        <ele>411</ele>
        <time>2022-05-02T21:03:51Z</time>
      </trkpt>
      <trkpt lat="42.95473" lon="2.3959">
        <ele>410</ele>
        <time>2022-05-02T21:03:53Z</time>
      </trkpt>
      <trkpt lat="42.95481" lon="2.39583">
        <ele>410</ele>
        <time>2022-05-02T21:03:54Z</time>
      </trkpt>
      <trkpt lat="42.95497" lon="2.39578">
        <ele>411</ele>
        <time>2022-05-02T21:03:57Z</time>
      </trkpt>
      <trkpt lat="42.95531" lon="2.39584">
        <ele>415</ele>
        <time>2022-05-02T21:04:03Z</time>
      </trkpt>
      <trkpt lat="42.95543" lon="2.39581">
        <ele>416</ele>
        <time>2022-05-02T21:04:06Z</time>
      </trkpt>
      <trkpt lat="42.95555" lon="2.39575">
        <ele>417</ele>
        <time>2022-05-02T21:04:08Z</time>
      </trkpt>
      <trkpt lat="42.95567" lon="2.39564">
        <ele>419</ele>
        <time>2022-05-02T21:04:10Z</time>
      </trkpt>
      <trkpt lat="42.95571" lon="2.39554">
        <ele>420</ele>
        <time>2022-05-02T21:04:12Z</time>
      </trkpt>
      <trkpt lat="42.95573" lon="2.39546">
        <ele>420</ele>
        <time>2022-05-02T21:04:13Z</time>
      </trkpt>
      <trkpt lat="42.95572" lon="2.39539">
        <ele>420</ele>
        <time>2022-05-02T21:04:14Z</time>
      </trkpt>
      <trkpt lat="42.9556" lon="2.39515">
        <ele>418</ele>
        <time>2022-05-02T21:04:18Z</time>
      </trkpt>
      <trkpt lat="42.9554" lon="2.39494">
        <ele>415</ele>
        <time>2022-05-02T21:04:22Z</time>
      </trkpt>
      <trkpt lat="42.95508" lon="2.39472">
        <ele>411</ele>
        <time>2022-05-02T21:04:29Z</time>
      </trkpt>
      <trkpt lat="42.95488" lon="2.39467">
        <ele>408</ele>
        <time>2022-05-02T21:04:32Z</time>
      </trkpt>
      <trkpt lat="42.95477" lon="2.39468">
        <ele>406</ele>
        <time>2022-05-02T21:04:34Z</time>
      </trkpt>
      <trkpt lat="42.95466" lon="2.39471">
        <ele>405</ele>
        <time>2022-05-02T21:04:36Z</time>
      </trkpt>
      <trkpt lat="42.95438" lon="2.39486">
        <ele>400</ele>
        <time>2022-05-02T21:04:41Z</time>
      </trkpt>
      <trkpt lat="42.95425" lon="2.3949">
        <ele>398</ele>
        <time>2022-05-02T21:04:44Z</time>
      </trkpt>
      <trkpt lat="42.95416" lon="2.39486">
        <ele>397</ele>
        <time>2022-05-02T21:04:45Z</time>
      </trkpt>
      <trkpt lat="42.95413" lon="2.39481">
        <ele>397</ele>
        <time>2022-05-02T21:04:46Z</time>
      </trkpt>
      <trkpt lat="42.95411" lon="2.39473">
        <ele>398</ele>
        <time>2022-05-02T21:04:47Z</time>
      </trkpt>
      <trkpt lat="42.9541" lon="2.39459">
        <ele>398</ele>
        <time>2022-05-02T21:04:49Z</time>
      </trkpt>
      <trkpt lat="42.95411" lon="2.39333">
        <ele>400</ele>
        <time>2022-05-02T21:05:06Z</time>
      </trkpt>
      <trkpt lat="42.9541" lon="2.39313">
        <ele>400</ele>
        <time>2022-05-02T21:05:08Z</time>
      </trkpt>
      <trkpt lat="42.95406" lon="2.39295">
        <ele>400</ele>
        <time>2022-05-02T21:05:11Z</time>
      </trkpt>
      <trkpt lat="42.95403" lon="2.39283">
        <ele>400</ele>
        <time>2022-05-02T21:05:12Z</time>
      </trkpt>
      <trkpt lat="42.95351" lon="2.39196">
        <ele>391</ele>
        <time>2022-05-02T21:05:27Z</time>
      </trkpt>
      <trkpt lat="42.95342" lon="2.39157">
        <ele>388</ele>
        <time>2022-05-02T21:05:32Z</time>
      </trkpt>
      <trkpt lat="42.95342" lon="2.39127">
        <ele>387</ele>
        <time>2022-05-02T21:05:36Z</time>
      </trkpt>
      <trkpt lat="42.95343" lon="2.39109">
        <ele>387</ele>
        <time>2022-05-02T21:05:39Z</time>
      </trkpt>
      <trkpt lat="42.95362" lon="2.39037">
        <ele>389</ele>
        <time>2022-05-02T21:05:49Z</time>
      </trkpt>
      <trkpt lat="42.95387" lon="2.3896">
        <ele>389</ele>
        <time>2022-05-02T21:06:00Z</time>
      </trkpt>
      <trkpt lat="42.95398" lon="2.38939">
        <ele>388</ele>
        <time>2022-05-02T21:06:03Z</time>
      </trkpt>
      <trkpt lat="42.9543" lon="2.38897">
        <ele>387</ele>
        <time>2022-05-02T21:06:11Z</time>
      </trkpt>
      <trkpt lat="42.9544" lon="2.38873">
        <ele>390</ele>
        <time>2022-05-02T21:06:14Z</time>
      </trkpt>
      <trkpt lat="42.95441" lon="2.38851">
        <ele>389</ele>
        <time>2022-05-02T21:06:17Z</time>
      </trkpt>
      <trkpt lat="42.95439" lon="2.38833">
        <ele>388</ele>
        <time>2022-05-02T21:06:20Z</time>
      </trkpt>
      <trkpt lat="42.95424" lon="2.3873">
        <ele>388</ele>
        <time>2022-05-02T21:06:33Z</time>
      </trkpt>
      <trkpt lat="42.95418" lon="2.38706">
        <ele>387</ele>
        <time>2022-05-02T21:06:37Z</time>
      </trkpt>
      <trkpt lat="42.95405" lon="2.3868">
        <ele>387</ele>
        <time>2022-05-02T21:06:41Z</time>
      </trkpt>
      <trkpt lat="42.95367" lon="2.38631">
        <ele>383</ele>
        <time>2022-05-02T21:06:50Z</time>
      </trkpt>
      <trkpt lat="42.95356" lon="2.38614">
        <ele>381</ele>
        <time>2022-05-02T21:06:53Z</time>
      </trkpt>
      <trkpt lat="42.95346" lon="2.38585">
        <ele>378</ele>
        <time>2022-05-02T21:06:57Z</time>
      </trkpt>
      <trkpt lat="42.95332" lon="2.38505">
        <ele>375</ele>
        <time>2022-05-02T21:07:08Z</time>
      </trkpt>
      <trkpt lat="42.95321" lon="2.38458">
        <ele>375</ele>
        <time>2022-05-02T21:07:14Z</time>
      </trkpt>
      <trkpt lat="42.95311" lon="2.3844">
        <ele>375</ele>
        <time>2022-05-02T21:07:17Z</time>
      </trkpt>
      <trkpt lat="42.95287" lon="2.38411">
        <ele>372</ele>
        <time>2022-05-02T21:07:23Z</time>
      </trkpt>
      <trkpt lat="42.95272" lon="2.38373">
        <ele>369</ele>
        <time>2022-05-02T21:07:29Z</time>
      </trkpt>
      <trkpt lat="42.95267" lon="2.38351">
        <ele>368</ele>
        <time>2022-05-02T21:07:32Z</time>
      </trkpt>
      <trkpt lat="42.95266" lon="2.38346">
        <ele>368</ele>
        <time>2022-05-02T21:07:32Z</time>
      </trkpt>
      <trkpt lat="42.9526" lon="2.38317">
        <ele>367</ele>
        <time>2022-05-02T21:07:36Z</time>
      </trkpt>
      <trkpt lat="42.95258" lon="2.38302">
        <ele>367</ele>
        <time>2022-05-02T21:07:38Z</time>
      </trkpt>
      <trkpt lat="42.95257" lon="2.38252">
        <ele>367</ele>
        <time>2022-05-02T21:07:45Z</time>
      </trkpt>
      <trkpt lat="42.95254" lon="2.3823">
        <ele>368</ele>
        <time>2022-05-02T21:07:48Z</time>
      </trkpt>
      <trkpt lat="42.9525" lon="2.38213">
        <ele>368</ele>
        <time>2022-05-02T21:07:50Z</time>
      </trkpt>
      <trkpt lat="42.9522" lon="2.38128">
        <ele>368</ele>
        <time>2022-05-02T21:08:02Z</time>
      </trkpt>
      <trkpt lat="42.95204" lon="2.38072">
        <ele>366</ele>
        <time>2022-05-02T21:08:10Z</time>
      </trkpt>
      <trkpt lat="42.95201" lon="2.38053">
        <ele>365</ele>
        <time>2022-05-02T21:08:13Z</time>
      </trkpt>
      <trkpt lat="42.95198" lon="2.38028">
        <ele>364</ele>
        <time>2022-05-02T21:08:16Z</time>
      </trkpt>
      <trkpt lat="42.95197" lon="2.37969">
        <ele>364</ele>
        <time>2022-05-02T21:08:24Z</time>
      </trkpt>
      <trkpt lat="42.95206" lon="2.37963">
        <ele>365</ele>
        <time>2022-05-02T21:08:25Z</time>
      </trkpt>
      <trkpt lat="42.95223" lon="2.37943">
        <ele>366</ele>
        <time>2022-05-02T21:08:29Z</time>
      </trkpt>
      <trkpt lat="42.95231" lon="2.37921">
        <ele>367</ele>
        <time>2022-05-02T21:08:32Z</time>
      </trkpt>
      <trkpt lat="42.95234" lon="2.37888">
        <ele>367</ele>
        <time>2022-05-02T21:08:37Z</time>
      </trkpt>
      <trkpt lat="42.95235" lon="2.37847">
        <ele>368</ele>
        <time>2022-05-02T21:08:42Z</time>
      </trkpt>
      <trkpt lat="42.95223" lon="2.37761">
        <ele>366</ele>
        <time>2022-05-02T21:08:54Z</time>
      </trkpt>
      <trkpt lat="42.95216" lon="2.37708">
        <ele>365</ele>
        <time>2022-05-02T21:09:01Z</time>
      </trkpt>
      <trkpt lat="42.95219" lon="2.37699">
        <ele>365</ele>
        <time>2022-05-02T21:09:02Z</time>
      </trkpt>
      <trkpt lat="42.95222" lon="2.37679">
        <ele>365</ele>
        <time>2022-05-02T21:09:05Z</time>
      </trkpt>
      <trkpt lat="42.9524" lon="2.37632">
        <ele>365</ele>
        <time>2022-05-02T21:09:11Z</time>
      </trkpt>
      <trkpt lat="42.95253" lon="2.37642">
        <ele>366</ele>
        <time>2022-05-02T21:09:14Z</time>
      </trkpt>
      <trkpt lat="42.95254" lon="2.37653">
        <ele>366</ele>
        <time>2022-05-02T21:09:16Z</time>
      </trkpt>
      <trkpt lat="42.95259" lon="2.37659">
        <ele>367</ele>
        <time>2022-05-02T21:09:17Z</time>
      </trkpt>
      <trkpt lat="42.95284" lon="2.37669">
        <ele>367</ele>
        <time>2022-05-02T21:09:21Z</time>
      </trkpt>
      <trkpt lat="42.95285" lon="2.37678">
        <ele>367</ele>
        <time>2022-05-02T21:09:23Z</time>
      </trkpt>
      <trkpt lat="42.95289" lon="2.37692">
        <ele>367</ele>
        <time>2022-05-02T21:09:24Z</time>
      </trkpt>
      <trkpt lat="42.95344" lon="2.37758">
        <ele>371</ele>
        <time>2022-05-02T21:09:38Z</time>
      </trkpt>
      <trkpt lat="42.95373" lon="2.37791">
        <ele>376</ele>
        <time>2022-05-02T21:09:44Z</time>
      </trkpt>
      <trkpt lat="42.95381" lon="2.37797">
        <ele>378</ele>
        <time>2022-05-02T21:09:46Z</time>
      </trkpt>
      <trkpt lat="42.95388" lon="2.37798">
        <ele>379</ele>
        <time>2022-05-02T21:09:47Z</time>
      </trkpt>
      <trkpt lat="42.95395" lon="2.37794">
        <ele>379</ele>
        <time>2022-05-02T21:09:48Z</time>
      </trkpt>
      <trkpt lat="42.954" lon="2.37787">
        <ele>380</ele>
        <time>2022-05-02T21:09:50Z</time>
      </trkpt>
      <trkpt lat="42.95405" lon="2.37774">
        <ele>379</ele>
        <time>2022-05-02T21:09:52Z</time>
      </trkpt>
      <trkpt lat="42.95407" lon="2.3775">
        <ele>378</ele>
        <time>2022-05-02T21:09:55Z</time>
      </trkpt>
      <trkpt lat="42.9541" lon="2.37739">
        <ele>378</ele>
        <time>2022-05-02T21:09:56Z</time>
      </trkpt>
      <trkpt lat="42.95437" lon="2.37707">
        <ele>379</ele>
        <time>2022-05-02T21:10:03Z</time>
      </trkpt>
      <trkpt lat="42.95455" lon="2.37674">
        <ele>379</ele>
        <time>2022-05-02T21:10:08Z</time>
      </trkpt>
      <trkpt lat="42.95461" lon="2.37667">
        <ele>379</ele>
        <time>2022-05-02T21:10:09Z</time>
      </trkpt>
      <trkpt lat="42.9552" lon="2.37641">
        <ele>379</ele>
        <time>2022-05-02T21:10:20Z</time>
      </trkpt>
      <trkpt lat="42.95532" lon="2.37641">
        <ele>379</ele>
        <time>2022-05-02T21:10:23Z</time>
      </trkpt>
      <trkpt lat="42.95558" lon="2.37664">
        <ele>379</ele>
        <time>2022-05-02T21:10:28Z</time>
      </trkpt>
      <trkpt lat="42.9556" lon="2.37671">
        <ele>380</ele>
        <time>2022-05-02T21:10:29Z</time>
      </trkpt>
      <trkpt lat="42.95559" lon="2.37682">
        <ele>381</ele>
        <time>2022-05-02T21:10:31Z</time>
      </trkpt>
      <trkpt lat="42.9555" lon="2.37724">
        <ele>386</ele>
        <time>2022-05-02T21:10:36Z</time>
      </trkpt>
      <trkpt lat="42.95547" lon="2.37745">
        <ele>388</ele>
        <time>2022-05-02T21:10:39Z</time>
      </trkpt>
      <trkpt lat="42.95546" lon="2.37765">
        <ele>390</ele>
        <time>2022-05-02T21:10:42Z</time>
      </trkpt>
      <trkpt lat="42.9555" lon="2.37801">
        <ele>393</ele>
        <time>2022-05-02T21:10:46Z</time>
      </trkpt>
      <trkpt lat="42.95556" lon="2.37816">
        <ele>395</ele>
        <time>2022-05-02T21:10:49Z</time>
      </trkpt>
      <trkpt lat="42.9556" lon="2.3782">
        <ele>395</ele>
        <time>2022-05-02T21:10:49Z</time>
      </trkpt>
      <trkpt lat="42.9558" lon="2.37819">
        <ele>394</ele>
        <time>2022-05-02T21:10:53Z</time>
      </trkpt>
      <trkpt lat="42.95589" lon="2.37826">
        <ele>395</ele>
        <time>2022-05-02T21:10:55Z</time>
      </trkpt>
      <trkpt lat="42.95592" lon="2.37836">
        <ele>396</ele>
        <time>2022-05-02T21:10:56Z</time>
      </trkpt>
      <trkpt lat="42.95591" lon="2.37866">
        <ele>400</ele>
        <time>2022-05-02T21:11:00Z</time>
      </trkpt>
      <trkpt lat="42.95593" lon="2.37875">
        <ele>401</ele>
        <time>2022-05-02T21:11:01Z</time>
      </trkpt>
      <trkpt lat="42.95603" lon="2.37892">
        <ele>402</ele>
        <time>2022-05-02T21:11:04Z</time>
      </trkpt>
      <trkpt lat="42.95609" lon="2.37905">
        <ele>403</ele>
        <time>2022-05-02T21:11:06Z</time>
      </trkpt>
      <trkpt lat="42.95615" lon="2.37945">
        <ele>407</ele>
        <time>2022-05-02T21:11:12Z</time>
      </trkpt>
      <trkpt lat="42.9562" lon="2.37956">
        <ele>408</ele>
        <time>2022-05-02T21:11:13Z</time>
      </trkpt>
      <trkpt lat="42.95627" lon="2.37964">
        <ele>409</ele>
        <time>2022-05-02T21:11:15Z</time>
      </trkpt>
      <trkpt lat="42.95656" lon="2.37977">
        <ele>411</ele>
        <time>2022-05-02T21:11:20Z</time>
      </trkpt>
      <trkpt lat="42.95666" lon="2.37978">
        <ele>412</ele>
        <time>2022-05-02T21:11:22Z</time>
      </trkpt>
      <trkpt lat="42.95705" lon="2.37973">
        <ele>415</ele>
        <time>2022-05-02T21:11:29Z</time>
      </trkpt>
      <trkpt lat="42.95716" lon="2.37966">
        <ele>416</ele>
        <time>2022-05-02T21:11:31Z</time>
      </trkpt>
      <trkpt lat="42.95749" lon="2.37953">
        <ele>418</ele>
        <time>2022-05-02T21:11:37Z</time>
      </trkpt>
      <trkpt lat="42.95771" lon="2.37937">
        <ele>421</ele>
        <time>2022-05-02T21:11:42Z</time>
      </trkpt>
      <trkpt lat="42.95778" lon="2.37926">
        <ele>422</ele>
        <time>2022-05-02T21:11:44Z</time>
      </trkpt>
      <trkpt lat="42.95783" lon="2.37913">
        <ele>422</ele>
        <time>2022-05-02T21:11:46Z</time>
      </trkpt>
      <trkpt lat="42.95788" lon="2.37888">
        <ele>423</ele>
        <time>2022-05-02T21:11:49Z</time>
      </trkpt>
      <trkpt lat="42.95787" lon="2.37878">
        <ele>423</ele>
        <time>2022-05-02T21:11:50Z</time>
      </trkpt>
      <trkpt lat="42.95783" lon="2.37866">
        <ele>422</ele>
        <time>2022-05-02T21:11:52Z</time>
      </trkpt>
      <trkpt lat="42.9577" lon="2.37836">
        <ele>420</ele>
        <time>2022-05-02T21:11:57Z</time>
      </trkpt>
      <trkpt lat="42.95769" lon="2.37769">
        <ele>417</ele>
        <time>2022-05-02T21:12:05Z</time>
      </trkpt>
      <trkpt lat="42.95771" lon="2.37752">
        <ele>416</ele>
        <time>2022-05-02T21:12:08Z</time>
      </trkpt>
      <trkpt lat="42.95775" lon="2.3774">
        <ele>415</ele>
        <time>2022-05-02T21:12:09Z</time>
      </trkpt>
      <trkpt lat="42.95783" lon="2.37732">
        <ele>415</ele>
        <time>2022-05-02T21:12:11Z</time>
      </trkpt>
      <trkpt lat="42.95809" lon="2.37718">
        <ele>415</ele>
        <time>2022-05-02T21:12:16Z</time>
      </trkpt>
      <trkpt lat="42.95816" lon="2.37719">
        <ele>416</ele>
        <time>2022-05-02T21:12:17Z</time>
      </trkpt>
      <trkpt lat="42.95823" lon="2.37725">
        <ele>417</ele>
        <time>2022-05-02T21:12:19Z</time>
      </trkpt>
      <trkpt lat="42.9583" lon="2.37739">
        <ele>420</ele>
        <time>2022-05-02T21:12:21Z</time>
      </trkpt>
      <trkpt lat="42.95837" lon="2.37772">
        <ele>424</ele>
        <time>2022-05-02T21:12:25Z</time>
      </trkpt>
      <trkpt lat="42.95841" lon="2.37825">
        <ele>430</ele>
        <time>2022-05-02T21:12:32Z</time>
      </trkpt>
      <trkpt lat="42.95835" lon="2.37879">
        <ele>432</ele>
        <time>2022-05-02T21:12:39Z</time>
      </trkpt>
      <trkpt lat="42.95835" lon="2.37896">
        <ele>433</ele>
        <time>2022-05-02T21:12:42Z</time>
      </trkpt>
      <trkpt lat="42.95838" lon="2.37913">
        <ele>433</ele>
        <time>2022-05-02T21:12:44Z</time>
      </trkpt>
      <trkpt lat="42.95843" lon="2.37926">
        <ele>434</ele>
        <time>2022-05-02T21:12:46Z</time>
      </trkpt>
      <trkpt lat="42.9585" lon="2.37935">
        <ele>435</ele>
        <time>2022-05-02T21:12:48Z</time>
      </trkpt>
      <trkpt lat="42.9586" lon="2.37941">
        <ele>436</ele>
        <time>2022-05-02T21:12:49Z</time>
      </trkpt>
      <trkpt lat="42.95894" lon="2.3795">
        <ele>440</ele>
        <time>2022-05-02T21:12:56Z</time>
      </trkpt>
      <trkpt lat="42.95936" lon="2.37941">
        <ele>443</ele>
        <time>2022-05-02T21:13:03Z</time>
      </trkpt>
      <trkpt lat="42.95959" lon="2.37947">
        <ele>445</ele>
        <time>2022-05-02T21:13:07Z</time>
      </trkpt>
      <trkpt lat="42.95967" lon="2.37947">
        <ele>446</ele>
        <time>2022-05-02T21:13:09Z</time>
      </trkpt>
      <trkpt lat="42.95991" lon="2.37938">
        <ele>447</ele>
        <time>2022-05-02T21:13:13Z</time>
      </trkpt>
      <trkpt lat="42.95997" lon="2.37942">
        <ele>448</ele>
        <time>2022-05-02T21:13:14Z</time>
      </trkpt>
      <trkpt lat="42.96002" lon="2.3795">
        <ele>449</ele>
        <time>2022-05-02T21:13:16Z</time>
      </trkpt>
      <trkpt lat="42.96003" lon="2.3796">
        <ele>451</ele>
        <time>2022-05-02T21:13:17Z</time>
      </trkpt>
      <trkpt lat="42.95999" lon="2.37974">
        <ele>453</ele>
        <time>2022-05-02T21:13:19Z</time>
      </trkpt>
      <trkpt lat="42.95982" lon="2.37979">
        <ele>452</ele>
        <time>2022-05-02T21:13:22Z</time>
      </trkpt>
      <trkpt lat="42.95962" lon="2.37982">
        <ele>451</ele>
        <time>2022-05-02T21:13:26Z</time>
      </trkpt>
      <trkpt lat="42.95955" lon="2.37987">
        <ele>451</ele>
        <time>2022-05-02T21:13:27Z</time>
      </trkpt>
      <trkpt lat="42.95947" lon="2.38">
        <ele>452</ele>
        <time>2022-05-02T21:13:29Z</time>
      </trkpt>
      <trkpt lat="42.95898" lon="2.38091">
        <ele>456</ele>
        <time>2022-05-02T21:13:44Z</time>
      </trkpt>
      <trkpt lat="42.95892" lon="2.38129">
        <ele>459</ele>
        <time>2022-05-02T21:13:49Z</time>
      </trkpt>
      <trkpt lat="42.95886" lon="2.38145">
        <ele>460</ele>
        <time>2022-05-02T21:13:51Z</time>
      </trkpt>
      <trkpt lat="42.95833" lon="2.38226">
        <ele>463</ele>
        <time>2022-05-02T21:14:06Z</time>
      </trkpt>
      <trkpt lat="42.95801" lon="2.38278">
        <ele>462</ele>
        <time>2022-05-02T21:14:14Z</time>
      </trkpt>
      <trkpt lat="42.95795" lon="2.38297">
        <ele>463</ele>
        <time>2022-05-02T21:14:17Z</time>
      </trkpt>
      <trkpt lat="42.95793" lon="2.38311">
        <ele>463</ele>
        <time>2022-05-02T21:14:19Z</time>
      </trkpt>
      <trkpt lat="42.95792" lon="2.3832">
        <ele>463</ele>
        <time>2022-05-02T21:14:20Z</time>
      </trkpt>
      <trkpt lat="42.95794" lon="2.38332">
        <ele>464</ele>
        <time>2022-05-02T21:14:22Z</time>
      </trkpt>
      <trkpt lat="42.95798" lon="2.38341">
        <ele>464</ele>
        <time>2022-05-02T21:14:23Z</time>
      </trkpt>
      <trkpt lat="42.95806" lon="2.38353">
        <ele>465</ele>
        <time>2022-05-02T21:14:25Z</time>
      </trkpt>
      <trkpt lat="42.95827" lon="2.3837">
        <ele>468</ele>
        <time>2022-05-02T21:14:30Z</time>
      </trkpt>
      <trkpt lat="42.95837" lon="2.38375">
        <ele>470</ele>
        <time>2022-05-02T21:14:32Z</time>
      </trkpt>
      <trkpt lat="42.95847" lon="2.38376">
        <ele>471</ele>
        <time>2022-05-02T21:14:33Z</time>
      </trkpt>
      <trkpt lat="42.95881" lon="2.38386">
        <ele>474</ele>
        <time>2022-05-02T21:14:39Z</time>
      </trkpt>
      <trkpt lat="42.95893" lon="2.38387">
        <ele>475</ele>
        <time>2022-05-02T21:14:42Z</time>
      </trkpt>
      <trkpt lat="42.95941" lon="2.38374">
        <ele>481</ele>
        <time>2022-05-02T21:14:50Z</time>
      </trkpt>
      <trkpt lat="42.95954" lon="2.38376">
        <ele>482</ele>
        <time>2022-05-02T21:14:53Z</time>
      </trkpt>
      <trkpt lat="42.95983" lon="2.38399">
        <ele>483</ele>
        <time>2022-05-02T21:14:59Z</time>
      </trkpt>
      <trkpt lat="42.95994" lon="2.38402">
        <ele>484</ele>
        <time>2022-05-02T21:15:01Z</time>
      </trkpt>
      <trkpt lat="42.96014" lon="2.38402">
        <ele>486</ele>
        <time>2022-05-02T21:15:04Z</time>
      </trkpt>
      <trkpt lat="42.96056" lon="2.3839">
        <ele>493</ele>
        <time>2022-05-02T21:15:12Z</time>
      </trkpt>
      <trkpt lat="42.96074" lon="2.38391">
        <ele>495</ele>
        <time>2022-05-02T21:15:15Z</time>
      </trkpt>
      <trkpt lat="42.96093" lon="2.38399">
        <ele>496</ele>
        <time>2022-05-02T21:15:19Z</time>
      </trkpt>
      <trkpt lat="42.9611" lon="2.3841">
        <ele>496</ele>
        <time>2022-05-02T21:15:22Z</time>
      </trkpt>
      <trkpt lat="42.96152" lon="2.38427">
        <ele>498</ele>
        <time>2022-05-02T21:15:30Z</time>
      </trkpt>
      <trkpt lat="42.96179" lon="2.38435">
        <ele>499</ele>
        <time>2022-05-02T21:15:35Z</time>
      </trkpt>
      <trkpt lat="42.96195" lon="2.38436">
        <ele>501</ele>
        <time>2022-05-02T21:15:37Z</time>
      </trkpt>
      <trkpt lat="42.9621" lon="2.38432">
        <ele>503</ele>
        <time>2022-05-02T21:15:40Z</time>
      </trkpt>
      <trkpt lat="42.96229" lon="2.38423">
        <ele>506</ele>
        <time>2022-05-02T21:15:44Z</time>
      </trkpt>
      <trkpt lat="42.96243" lon="2.38421">
        <ele>508</ele>
        <time>2022-05-02T21:15:46Z</time>
      </trkpt>
      <trkpt lat="42.96255" lon="2.38422">
        <ele>509</ele>
        <time>2022-05-02T21:15:48Z</time>
      </trkpt>
      <trkpt lat="42.96266" lon="2.38426">
        <ele>510</ele>
        <time>2022-05-02T21:15:50Z</time>
      </trkpt>
      <trkpt lat="42.96287" lon="2.3844">
        <ele>511</ele>
        <time>2022-05-02T21:15:55Z</time>
      </trkpt>
      <trkpt lat="42.96313" lon="2.38447">
        <ele>514</ele>
        <time>2022-05-02T21:15:59Z</time>
      </trkpt>
      <trkpt lat="42.96325" lon="2.38453">
        <ele>516</ele>
        <time>2022-05-02T21:16:02Z</time>
      </trkpt>
      <trkpt lat="42.96332" lon="2.3846">
        <ele>516</ele>
        <time>2022-05-02T21:16:03Z</time>
      </trkpt>
      <trkpt lat="42.96352" lon="2.38494">
        <ele>515</ele>
        <time>2022-05-02T21:16:09Z</time>
      </trkpt>
      <trkpt lat="42.96389" lon="2.38566">
        <ele>516</ele>
        <time>2022-05-02T21:16:20Z</time>
      </trkpt>
      <trkpt lat="42.96394" lon="2.38572">
        <ele>517</ele>
        <time>2022-05-02T21:16:21Z</time>
      </trkpt>
      <trkpt lat="42.9642" lon="2.38576">
        <ele>520</ele>
        <time>2022-05-02T21:16:26Z</time>
      </trkpt>
      <trkpt lat="42.96522" lon="2.38567">
        <ele>526</ele>
        <time>2022-05-02T21:16:44Z</time>
      </trkpt>
      <trkpt lat="42.9655" lon="2.3857">
        <ele>526</ele>
        <time>2022-05-02T21:16:49Z</time>
      </trkpt>
      <trkpt lat="42.96577" lon="2.38569">
        <ele>527</ele>
        <time>2022-05-02T21:16:54Z</time>
      </trkpt>
      <trkpt lat="42.96588" lon="2.38559">
        <ele>529</ele>
        <time>2022-05-02T21:16:56Z</time>
      </trkpt>
      <trkpt lat="42.96599" lon="2.38542">
        <ele>531</ele>
        <time>2022-05-02T21:16:59Z</time>
      </trkpt>
      <trkpt lat="42.96607" lon="2.38526">
        <ele>534</ele>
        <time>2022-05-02T21:17:02Z</time>
      </trkpt>
      <trkpt lat="42.96624" lon="2.38485">
        <ele>539</ele>
        <time>2022-05-02T21:17:08Z</time>
      </trkpt>
      <trkpt lat="42.96632" lon="2.38474">
        <ele>540</ele>
        <time>2022-05-02T21:17:10Z</time>
      </trkpt>
      <trkpt lat="42.96642" lon="2.38464">
        <ele>541</ele>
        <time>2022-05-02T21:17:12Z</time>
      </trkpt>
      <trkpt lat="42.96651" lon="2.38458">
        <ele>542</ele>
        <time>2022-05-02T21:17:14Z</time>
      </trkpt>
      <trkpt lat="42.96662" lon="2.38456">
        <ele>542</ele>
        <time>2022-05-02T21:17:16Z</time>
      </trkpt>
      <trkpt lat="42.96687" lon="2.38459">
        <ele>543</ele>
        <time>2022-05-02T21:17:20Z</time>
      </trkpt>
      <trkpt lat="42.96748" lon="2.38449">
        <ele>547</ele>
        <time>2022-05-02T21:17:31Z</time>
      </trkpt>
      <trkpt lat="42.96759" lon="2.38445">
        <ele>549</ele>
        <time>2022-05-02T21:17:33Z</time>
      </trkpt>
      <trkpt lat="42.96769" lon="2.38437">
        <ele>550</ele>
        <time>2022-05-02T21:17:36Z</time>
      </trkpt>
      <trkpt lat="42.96775" lon="2.38434">
        <ele>551</ele>
        <time>2022-05-02T21:17:37Z</time>
      </trkpt>
      <trkpt lat="42.96786" lon="2.38434">
        <ele>552</ele>
        <time>2022-05-02T21:17:39Z</time>
      </trkpt>
      <trkpt lat="42.96792" lon="2.38438">
        <ele>552</ele>
        <time>2022-05-02T21:17:40Z</time>
      </trkpt>
      <trkpt lat="42.96807" lon="2.38457">
        <ele>553</ele>
        <time>2022-05-02T21:17:43Z</time>
      </trkpt>
      <trkpt lat="42.96818" lon="2.38459">
        <ele>554</ele>
        <time>2022-05-02T21:17:45Z</time>
      </trkpt>
      <trkpt lat="42.9683" lon="2.38453">
        <ele>555</ele>
        <time>2022-05-02T21:17:48Z</time>
      </trkpt>
      <trkpt lat="42.96852" lon="2.38435">
        <ele>558</ele>
        <time>2022-05-02T21:17:52Z</time>
      </trkpt>
      <trkpt lat="42.96898" lon="2.38422">
        <ele>562</ele>
        <time>2022-05-02T21:18:01Z</time>
      </trkpt>
      <trkpt lat="42.9691" lon="2.38422">
        <ele>563</ele>
        <time>2022-05-02T21:18:03Z</time>
      </trkpt>
      <trkpt lat="42.96918" lon="2.38426">
        <ele>563</ele>
        <time>2022-05-02T21:18:04Z</time>
      </trkpt>
      <trkpt lat="42.96924" lon="2.38434">
        <ele>564</ele>
        <time>2022-05-02T21:18:06Z</time>
      </trkpt>
      <trkpt lat="42.96926" lon="2.38447">
        <ele>565</ele>
        <time>2022-05-02T21:18:07Z</time>
      </trkpt>
      <trkpt lat="42.96924" lon="2.38463">
        <ele>564</ele>
        <time>2022-05-02T21:18:10Z</time>
      </trkpt>
      <trkpt lat="42.96912" lon="2.38507">
        <ele>562</ele>
        <time>2022-05-02T21:18:16Z</time>
      </trkpt>
      <trkpt lat="42.96904" lon="2.38523">
        <ele>561</ele>
        <time>2022-05-02T21:18:18Z</time>
      </trkpt>
      <trkpt lat="42.969" lon="2.38538">
        <ele>561</ele>
        <time>2022-05-02T21:18:20Z</time>
      </trkpt>
      <trkpt lat="42.96898" lon="2.38565">
        <ele>562</ele>
        <time>2022-05-02T21:18:24Z</time>
      </trkpt>
      <trkpt lat="42.96893" lon="2.38585">
        <ele>561</ele>
        <time>2022-05-02T21:18:27Z</time>
      </trkpt>
      <trkpt lat="42.96891" lon="2.38598">
        <ele>561</ele>
        <time>2022-05-02T21:18:28Z</time>
      </trkpt>
      <trkpt lat="42.96894" lon="2.38612">
        <ele>562</ele>
        <time>2022-05-02T21:18:30Z</time>
      </trkpt>
      <trkpt lat="42.96898" lon="2.38625">
        <ele>563</ele>
        <time>2022-05-02T21:18:32Z</time>
      </trkpt>
      <trkpt lat="42.96905" lon="2.38637">
        <ele>564</ele>
        <time>2022-05-02T21:18:34Z</time>
      </trkpt>
      <trkpt lat="42.96924" lon="2.38654">
        <ele>569</ele>
        <time>2022-05-02T21:18:38Z</time>
      </trkpt>
      <trkpt lat="42.9693" lon="2.38662">
        <ele>570</ele>
        <time>2022-05-02T21:18:40Z</time>
      </trkpt>
      <trkpt lat="42.96936" lon="2.38674">
        <ele>572</ele>
        <time>2022-05-02T21:18:41Z</time>
      </trkpt>
      <trkpt lat="42.96941" lon="2.38703">
        <ele>572</ele>
        <time>2022-05-02T21:18:45Z</time>
      </trkpt>
      <trkpt lat="42.96944" lon="2.3871">
        <ele>573</ele>
        <time>2022-05-02T21:18:46Z</time>
      </trkpt>
      <trkpt lat="42.96949" lon="2.38716">
        <ele>574</ele>
        <time>2022-05-02T21:18:48Z</time>
      </trkpt>
      <trkpt lat="42.96969" lon="2.38722">
        <ele>578</ele>
        <time>2022-05-02T21:18:51Z</time>
      </trkpt>
      <trkpt lat="42.96978" lon="2.3873">
        <ele>580</ele>
        <time>2022-05-02T21:18:53Z</time>
      </trkpt>
      <trkpt lat="42.9699" lon="2.38746">
        <ele>583</ele>
        <time>2022-05-02T21:18:56Z</time>
      </trkpt>
      <trkpt lat="42.96999" lon="2.38761">
        <ele>586</ele>
        <time>2022-05-02T21:18:59Z</time>
      </trkpt>
      <trkpt lat="42.97002" lon="2.38774">
        <ele>588</ele>
        <time>2022-05-02T21:19:00Z</time>
      </trkpt>
      <trkpt lat="42.97001" lon="2.3878">
        <ele>588</ele>
        <time>2022-05-02T21:19:01Z</time>
      </trkpt>
      <trkpt lat="42.9699" lon="2.38813">
        <ele>588</ele>
        <time>2022-05-02T21:19:06Z</time>
      </trkpt>
      <trkpt lat="42.96982" lon="2.38845">
        <ele>587</ele>
        <time>2022-05-02T21:19:10Z</time>
      </trkpt>
      <trkpt lat="42.96981" lon="2.38873">
        <ele>588</ele>
        <time>2022-05-02T21:19:14Z</time>
      </trkpt>
      <trkpt lat="42.96982" lon="2.38903">
        <ele>588</ele>
        <time>2022-05-02T21:19:18Z</time>
      </trkpt>
      <trkpt lat="42.96987" lon="2.3894">
        <ele>590</ele>
        <time>2022-05-02T21:19:23Z</time>
      </trkpt>
      <trkpt lat="42.96993" lon="2.38969">
        <ele>591</ele>
        <time>2022-05-02T21:19:27Z</time>
      </trkpt>
      <trkpt lat="42.97015" lon="2.39022">
        <ele>596</ele>
        <time>2022-05-02T21:19:35Z</time>
      </trkpt>
      <trkpt lat="42.97024" lon="2.39039">
        <ele>599</ele>
        <time>2022-05-02T21:19:37Z</time>
      </trkpt>
      <trkpt lat="42.9703" lon="2.39059">
        <ele>600</ele>
        <time>2022-05-02T21:19:40Z</time>
      </trkpt>
      <trkpt lat="42.97033" lon="2.39083">
        <ele>601</ele>
        <time>2022-05-02T21:19:43Z</time>
      </trkpt>
      <trkpt lat="42.9704" lon="2.39107">
        <ele>603</ele>
        <time>2022-05-02T21:19:47Z</time>
      </trkpt>
      <trkpt lat="42.97062" lon="2.39161">
        <ele>605</ele>
        <time>2022-05-02T21:19:55Z</time>
      </trkpt>
      <trkpt lat="42.97074" lon="2.39176">
        <ele>607</ele>
        <time>2022-05-02T21:19:58Z</time>
      </trkpt>
      <trkpt lat="42.97098" lon="2.39191">
        <ele>611</ele>
        <time>2022-05-02T21:20:02Z</time>
      </trkpt>
      <trkpt lat="42.97135" lon="2.39223">
        <ele>620</ele>
        <time>2022-05-02T21:20:10Z</time>
      </trkpt>
      <trkpt lat="42.97125" lon="2.3924">
        <ele>617</ele>
        <time>2022-05-02T21:20:13Z</time>
      </trkpt>
      <trkpt lat="42.97122" lon="2.39261">
        <ele>616</ele>
        <time>2022-05-02T21:20:16Z</time>
      </trkpt>
      <trkpt lat="42.97126" lon="2.39289">
        <ele>616</ele>
        <time>2022-05-02T21:20:20Z</time>
      </trkpt>
      <trkpt lat="42.97132" lon="2.39304">
        <ele>618</ele>
        <time>2022-05-02T21:20:22Z</time>
      </trkpt>
      <trkpt lat="42.97191" lon="2.39404">
        <ele>629</ele>
        <time>2022-05-02T21:20:38Z</time>
      </trkpt>
      <trkpt lat="42.97194" lon="2.39417">
        <ele>630</ele>
        <time>2022-05-02T21:20:40Z</time>
      </trkpt>
      <trkpt lat="42.97194" lon="2.39429">
        <ele>631</ele>
        <time>2022-05-02T21:20:42Z</time>
      </trkpt>
      <trkpt lat="42.97189" lon="2.39441">
        <ele>631</ele>
        <time>2022-05-02T21:20:44Z</time>
      </trkpt>
      <trkpt lat="42.97182" lon="2.39449">
        <ele>629</ele>
        <time>2022-05-02T21:20:45Z</time>
      </trkpt>
      <trkpt lat="42.97151" lon="2.39467">
        <ele>623</ele>
        <time>2022-05-02T21:20:51Z</time>
      </trkpt>
      <trkpt lat="42.97145" lon="2.39475">
        <ele>623</ele>
        <time>2022-05-02T21:20:53Z</time>
      </trkpt>
      <trkpt lat="42.97141" lon="2.39486">
        <ele>623</ele>
        <time>2022-05-02T21:20:54Z</time>
      </trkpt>
      <trkpt lat="42.97139" lon="2.39509">
        <ele>624</ele>
        <time>2022-05-02T21:20:57Z</time>
      </trkpt>
      <trkpt lat="42.97141" lon="2.39564">
        <ele>628</ele>
        <time>2022-05-02T21:21:04Z</time>
      </trkpt>
      <trkpt lat="42.97146" lon="2.3959">
        <ele>630</ele>
        <time>2022-05-02T21:21:08Z</time>
      </trkpt>
      <trkpt lat="42.97156" lon="2.39621">
        <ele>631</ele>
        <time>2022-05-02T21:21:12Z</time>
      </trkpt>
      <trkpt lat="42.97175" lon="2.39672">
        <ele>633</ele>
        <time>2022-05-02T21:21:20Z</time>
      </trkpt>
      <trkpt lat="42.97202" lon="2.39734">
        <ele>634</ele>
        <time>2022-05-02T21:21:29Z</time>
      </trkpt>
      <trkpt lat="42.97213" lon="2.39751">
        <ele>634</ele>
        <time>2022-05-02T21:21:32Z</time>
      </trkpt>
      <trkpt lat="42.97227" lon="2.39759">
        <ele>636</ele>
        <time>2022-05-02T21:21:35Z</time>
      </trkpt>
      <trkpt lat="42.97265" lon="2.39756">
        <ele>644</ele>
        <time>2022-05-02T21:21:42Z</time>
      </trkpt>
      <trkpt lat="42.97273" lon="2.39759">
        <ele>646</ele>
        <time>2022-05-02T21:21:43Z</time>
      </trkpt>
      <trkpt lat="42.9728" lon="2.39766">
        <ele>647</ele>
        <time>2022-05-02T21:21:45Z</time>
      </trkpt>
      <trkpt lat="42.97285" lon="2.39791">
        <ele>646</ele>
        <time>2022-05-02T21:21:48Z</time>
      </trkpt>
      <trkpt lat="42.97288" lon="2.3985">
        <ele>640</ele>
        <time>2022-05-02T21:21:56Z</time>
      </trkpt>
      <trkpt lat="42.97292" lon="2.39868">
        <ele>639</ele>
        <time>2022-05-02T21:21:58Z</time>
      </trkpt>
      <trkpt lat="42.973" lon="2.39881">
        <ele>639</ele>
        <time>2022-05-02T21:22:00Z</time>
      </trkpt>
      <trkpt lat="42.9731" lon="2.39883">
        <ele>640</ele>
        <time>2022-05-02T21:22:02Z</time>
      </trkpt>
      <trkpt lat="42.97327" lon="2.39879">
        <ele>645</ele>
        <time>2022-05-02T21:22:05Z</time>
      </trkpt>
      <trkpt lat="42.97377" lon="2.39872">
        <ele>658</ele>
        <time>2022-05-02T21:22:14Z</time>
      </trkpt>
      <trkpt lat="42.97389" lon="2.39873">
        <ele>660</ele>
        <time>2022-05-02T21:22:16Z</time>
      </trkpt>
      <trkpt lat="42.97395" lon="2.39877">
        <ele>661</ele>
        <time>2022-05-02T21:22:18Z</time>
      </trkpt>
      <trkpt lat="42.97398" lon="2.39882">
        <ele>661</ele>
        <time>2022-05-02T21:22:18Z</time>
      </trkpt>
      <trkpt lat="42.97399" lon="2.39892">
        <ele>660</ele>
        <time>2022-05-02T21:22:20Z</time>
      </trkpt>
      <trkpt lat="42.97382" lon="2.39954">
        <ele>653</ele>
        <time>2022-05-02T21:22:28Z</time>
      </trkpt>
      <trkpt lat="42.97354" lon="2.40145">
        <ele>649</ele>
        <time>2022-05-02T21:22:54Z</time>
      </trkpt>
      <trkpt lat="42.97352" lon="2.40189">
        <ele>647</ele>
        <time>2022-05-02T21:22:59Z</time>
      </trkpt>
      <trkpt lat="42.97354" lon="2.40196">
        <ele>647</ele>
        <time>2022-05-02T21:23:00Z</time>
      </trkpt>
      <trkpt lat="42.97359" lon="2.40203">
        <ele>648</ele>
        <time>2022-05-02T21:23:02Z</time>
      </trkpt>
      <trkpt lat="42.97365" lon="2.40205">
        <ele>649</ele>
        <time>2022-05-02T21:23:03Z</time>
      </trkpt>
      <trkpt lat="42.97399" lon="2.40203">
        <ele>658</ele>
        <time>2022-05-02T21:23:09Z</time>
      </trkpt>
      <trkpt lat="42.97419" lon="2.4021">
        <ele>663</ele>
        <time>2022-05-02T21:23:13Z</time>
      </trkpt>
      <trkpt lat="42.97438" lon="2.4023">
        <ele>664</ele>
        <time>2022-05-02T21:23:17Z</time>
      </trkpt>
      <trkpt lat="42.97449" lon="2.40245">
        <ele>664</ele>
        <time>2022-05-02T21:23:20Z</time>
      </trkpt>
      <trkpt lat="42.97455" lon="2.40248">
        <ele>664</ele>
        <time>2022-05-02T21:23:21Z</time>
      </trkpt>
      <trkpt lat="42.97462" lon="2.40248">
        <ele>665</ele>
        <time>2022-05-02T21:23:22Z</time>
      </trkpt>
      <trkpt lat="42.97469" lon="2.40242">
        <ele>667</ele>
        <time>2022-05-02T21:23:23Z</time>
      </trkpt>
      <trkpt lat="42.9748" lon="2.40225">
        <ele>670</ele>
        <time>2022-05-02T21:23:26Z</time>
      </trkpt>
      <trkpt lat="42.97488" lon="2.40217">
        <ele>672</ele>
        <time>2022-05-02T21:23:28Z</time>
      </trkpt>
      <trkpt lat="42.97496" lon="2.40217">
        <ele>673</ele>
        <time>2022-05-02T21:23:30Z</time>
      </trkpt>
      <trkpt lat="42.97502" lon="2.4022">
        <ele>674</ele>
        <time>2022-05-02T21:23:31Z</time>
      </trkpt>
      <trkpt lat="42.97506" lon="2.40228">
        <ele>674</ele>
        <time>2022-05-02T21:23:32Z</time>
      </trkpt>
      <trkpt lat="42.97506" lon="2.40242">
        <ele>673</ele>
        <time>2022-05-02T21:23:34Z</time>
      </trkpt>
      <trkpt lat="42.97502" lon="2.40259">
        <ele>671</ele>
        <time>2022-05-02T21:23:36Z</time>
      </trkpt>
      <trkpt lat="42.97497" lon="2.40274">
        <ele>671</ele>
        <time>2022-05-02T21:23:38Z</time>
      </trkpt>
      <trkpt lat="42.97486" lon="2.40294">
        <ele>671</ele>
        <time>2022-05-02T21:23:41Z</time>
      </trkpt>
      <trkpt lat="42.97465" lon="2.40323">
        <ele>666</ele>
        <time>2022-05-02T21:23:47Z</time>
      </trkpt>
      <trkpt lat="42.97451" lon="2.40348">
        <ele>664</ele>
        <time>2022-05-02T21:23:51Z</time>
      </trkpt>
      <trkpt lat="42.97424" lon="2.40417">
        <ele>664</ele>
        <time>2022-05-02T21:24:01Z</time>
      </trkpt>
      <trkpt lat="42.97419" lon="2.40436">
        <ele>664</ele>
        <time>2022-05-02T21:24:04Z</time>
      </trkpt>
      <trkpt lat="42.97419" lon="2.40444">
        <ele>664</ele>
        <time>2022-05-02T21:24:05Z</time>
      </trkpt>
      <trkpt lat="42.97423" lon="2.40453">
        <ele>665</ele>
        <time>2022-05-02T21:24:06Z</time>
      </trkpt>
      <trkpt lat="42.97435" lon="2.40468">
        <ele>666</ele>
        <time>2022-05-02T21:24:09Z</time>
      </trkpt>
      <trkpt lat="42.97449" lon="2.40471">
        <ele>667</ele>
        <time>2022-05-02T21:24:12Z</time>
      </trkpt>
      <trkpt lat="42.97535" lon="2.40448">
        <ele>681</ele>
        <time>2022-05-02T21:24:27Z</time>
      </trkpt>
      <trkpt lat="42.97546" lon="2.40453">
        <ele>683</ele>
        <time>2022-05-02T21:24:29Z</time>
      </trkpt>
      <trkpt lat="42.9755" lon="2.4046">
        <ele>683</ele>
        <time>2022-05-02T21:24:30Z</time>
      </trkpt>
      <trkpt lat="42.97552" lon="2.40469">
        <ele>682</ele>
        <time>2022-05-02T21:24:32Z</time>
      </trkpt>
      <trkpt lat="42.97551" lon="2.40479">
        <ele>681</ele>
        <time>2022-05-02T21:24:33Z</time>
      </trkpt>
      <trkpt lat="42.97545" lon="2.4049">
        <ele>679</ele>
        <time>2022-05-02T21:24:35Z</time>
      </trkpt>
      <trkpt lat="42.97543" lon="2.405">
        <ele>677</ele>
        <time>2022-05-02T21:24:36Z</time>
      </trkpt>
      <trkpt lat="42.97543" lon="2.4051">
        <ele>677</ele>
        <time>2022-05-02T21:24:37Z</time>
      </trkpt>
      <trkpt lat="42.97547" lon="2.40521">
        <ele>677</ele>
        <time>2022-05-02T21:24:39Z</time>
      </trkpt>
      <trkpt lat="42.97554" lon="2.40527">
        <ele>678</ele>
        <time>2022-05-02T21:24:40Z</time>
      </trkpt>
      <trkpt lat="42.97572" lon="2.40539">
        <ele>680</ele>
        <time>2022-05-02T21:24:44Z</time>
      </trkpt>
      <trkpt lat="42.97581" lon="2.40549">
        <ele>682</ele>
        <time>2022-05-02T21:24:46Z</time>
      </trkpt>
      <trkpt lat="42.97585" lon="2.40559">
        <ele>682</ele>
        <time>2022-05-02T21:24:48Z</time>
      </trkpt>
      <trkpt lat="42.97586" lon="2.40575">
        <ele>681</ele>
        <time>2022-05-02T21:24:50Z</time>
      </trkpt>
      <trkpt lat="42.97582" lon="2.40621">
        <ele>678</ele>
        <time>2022-05-02T21:24:56Z</time>
      </trkpt>
      <trkpt lat="42.97584" lon="2.40639">
        <ele>678</ele>
        <time>2022-05-02T21:24:58Z</time>
      </trkpt>
      <trkpt lat="42.97591" lon="2.40663">
        <ele>678</ele>
        <time>2022-05-02T21:25:01Z</time>
      </trkpt>
      <trkpt lat="42.97609" lon="2.40685">
        <ele>677</ele>
        <time>2022-05-02T21:25:06Z</time>
      </trkpt>
      <trkpt lat="42.97623" lon="2.40695">
        <ele>677</ele>
        <time>2022-05-02T21:25:08Z</time>
      </trkpt>
      <trkpt lat="42.97638" lon="2.40699">
        <ele>678</ele>
        <time>2022-05-02T21:25:11Z</time>
      </trkpt>
      <trkpt lat="42.97656" lon="2.40699">
        <ele>680</ele>
        <time>2022-05-02T21:25:14Z</time>
      </trkpt>
      <trkpt lat="42.97681" lon="2.40688">
        <ele>682</ele>
        <time>2022-05-02T21:25:19Z</time>
      </trkpt>
      <trkpt lat="42.97697" lon="2.40677">
        <ele>683</ele>
        <time>2022-05-02T21:25:22Z</time>
      </trkpt>
      <trkpt lat="42.9771" lon="2.40663">
        <ele>683</ele>
        <time>2022-05-02T21:25:25Z</time>
      </trkpt>
      <trkpt lat="42.9772" lon="2.40646">
        <ele>685</ele>
        <time>2022-05-02T21:25:28Z</time>
      </trkpt>
      <trkpt lat="42.9775" lon="2.40563">
        <ele>694</ele>
        <time>2022-05-02T21:25:40Z</time>
      </trkpt>
      <trkpt lat="42.97786" lon="2.40415">
        <ele>705</ele>
        <time>2022-05-02T21:26:00Z</time>
      </trkpt>
      <trkpt lat="42.97793" lon="2.40402">
        <ele>706</ele>
        <time>2022-05-02T21:26:02Z</time>
      </trkpt>
      <trkpt lat="42.97803" lon="2.40391">
        <ele>707</ele>
        <time>2022-05-02T21:26:05Z</time>
      </trkpt>
      <trkpt lat="42.97814" lon="2.40384">
        <ele>708</ele>
        <time>2022-05-02T21:26:07Z</time>
      </trkpt>
      <trkpt lat="42.97825" lon="2.40384">
        <ele>708</ele>
        <time>2022-05-02T21:26:09Z</time>
      </trkpt>
      <trkpt lat="42.97835" lon="2.40387">
        <ele>708</ele>
        <time>2022-05-02T21:26:11Z</time>
      </trkpt>
      <trkpt lat="42.97844" lon="2.40393">
        <ele>709</ele>
        <time>2022-05-02T21:26:12Z</time>
      </trkpt>
      <trkpt lat="42.97855" lon="2.40407">
        <ele>709</ele>
        <time>2022-05-02T21:26:15Z</time>
      </trkpt>
      <trkpt lat="42.9787" lon="2.40431">
        <ele>709</ele>
        <time>2022-05-02T21:26:19Z</time>
      </trkpt>
      <trkpt lat="42.97874" lon="2.40443">
        <ele>709</ele>
        <time>2022-05-02T21:26:21Z</time>
      </trkpt>
      <trkpt lat="42.97875" lon="2.40464">
        <ele>708</ele>
        <time>2022-05-02T21:26:24Z</time>
      </trkpt>
      <trkpt lat="42.9787" lon="2.4049">
        <ele>706</ele>
        <time>2022-05-02T21:26:27Z</time>
      </trkpt>
      <trkpt lat="42.97869" lon="2.40508">
        <ele>705</ele>
        <time>2022-05-02T21:26:30Z</time>
      </trkpt>
      <trkpt lat="42.97878" lon="2.40558">
        <ele>704</ele>
        <time>2022-05-02T21:26:36Z</time>
      </trkpt>
      <trkpt lat="42.97887" lon="2.40582">
        <ele>704</ele>
        <time>2022-05-02T21:26:40Z</time>
      </trkpt>
      <trkpt lat="42.97898" lon="2.40599">
        <ele>706</ele>
        <time>2022-05-02T21:26:43Z</time>
      </trkpt>
      <trkpt lat="42.97909" lon="2.40607">
        <ele>708</ele>
        <time>2022-05-02T21:26:45Z</time>
      </trkpt>
      <trkpt lat="42.97933" lon="2.40615">
        <ele>715</ele>
        <time>2022-05-02T21:26:49Z</time>
      </trkpt>
      <trkpt lat="42.97948" lon="2.40631">
        <ele>719</ele>
        <time>2022-05-02T21:26:53Z</time>
      </trkpt>
      <trkpt lat="42.9795" lon="2.4064">
        <ele>718</ele>
        <time>2022-05-02T21:26:54Z</time>
      </trkpt>
      <trkpt lat="42.9795" lon="2.40648">
        <ele>718</ele>
        <time>2022-05-02T21:26:55Z</time>
      </trkpt>
      <trkpt lat="42.97941" lon="2.40678">
        <ele>714</ele>
        <time>2022-05-02T21:26:59Z</time>
      </trkpt>
      <trkpt lat="42.97938" lon="2.4069">
        <ele>714</ele>
        <time>2022-05-02T21:27:01Z</time>
      </trkpt>
      <trkpt lat="42.97937" lon="2.40703">
        <ele>714</ele>
        <time>2022-05-02T21:27:03Z</time>
      </trkpt>
      <trkpt lat="42.97941" lon="2.40761">
        <ele>718</ele>
        <time>2022-05-02T21:27:10Z</time>
      </trkpt>
      <trkpt lat="42.97939" lon="2.40772">
        <ele>718</ele>
        <time>2022-05-02T21:27:12Z</time>
      </trkpt>
      <trkpt lat="42.97935" lon="2.40781">
        <ele>718</ele>
        <time>2022-05-02T21:27:13Z</time>
      </trkpt>
      <trkpt lat="42.97928" lon="2.40788">
        <ele>716</ele>
        <time>2022-05-02T21:27:15Z</time>
      </trkpt>
      <trkpt lat="42.9792" lon="2.40791">
        <ele>715</ele>
        <time>2022-05-02T21:27:16Z</time>
      </trkpt>
      <trkpt lat="42.97892" lon="2.4078">
        <ele>709</ele>
        <time>2022-05-02T21:27:21Z</time>
      </trkpt>
      <trkpt lat="42.97882" lon="2.40778">
        <ele>707</ele>
        <time>2022-05-02T21:27:23Z</time>
      </trkpt>
      <trkpt lat="42.97871" lon="2.4078">
        <ele>705</ele>
        <time>2022-05-02T21:27:25Z</time>
      </trkpt>
      <trkpt lat="42.9786" lon="2.40788">
        <ele>704</ele>
        <time>2022-05-02T21:27:27Z</time>
      </trkpt>
      <trkpt lat="42.97851" lon="2.408">
        <ele>705</ele>
        <time>2022-05-02T21:27:29Z</time>
      </trkpt>
      <trkpt lat="42.97834" lon="2.4083">
        <ele>707</ele>
        <time>2022-05-02T21:27:34Z</time>
      </trkpt>
      <trkpt lat="42.97827" lon="2.40849">
        <ele>706</ele>
        <time>2022-05-02T21:27:37Z</time>
      </trkpt>
      <trkpt lat="42.97823" lon="2.40873">
        <ele>704</ele>
        <time>2022-05-02T21:27:40Z</time>
      </trkpt>
      <trkpt lat="42.97823" lon="2.40894">
        <ele>704</ele>
        <time>2022-05-02T21:27:43Z</time>
      </trkpt>
      <trkpt lat="42.97829" lon="2.40922">
        <ele>705</ele>
        <time>2022-05-02T21:27:47Z</time>
      </trkpt>
      <trkpt lat="42.97842" lon="2.40944">
        <ele>704</ele>
        <time>2022-05-02T21:27:51Z</time>
      </trkpt>
      <trkpt lat="42.97851" lon="2.40951">
        <ele>704</ele>
        <time>2022-05-02T21:27:52Z</time>
      </trkpt>
      <trkpt lat="42.97859" lon="2.40953">
        <ele>705</ele>
        <time>2022-05-02T21:27:54Z</time>
      </trkpt>
      <trkpt lat="42.97881" lon="2.40944">
        <ele>709</ele>
        <time>2022-05-02T21:27:58Z</time>
      </trkpt>
      <trkpt lat="42.97888" lon="2.40944">
        <ele>709</ele>
        <time>2022-05-02T21:27:59Z</time>
      </trkpt>
      <trkpt lat="42.97894" lon="2.40947">
        <ele>709</ele>
        <time>2022-05-02T21:28:00Z</time>
      </trkpt>
      <trkpt lat="42.97914" lon="2.40962">
        <ele>709</ele>
        <time>2022-05-02T21:28:04Z</time>
      </trkpt>
      <trkpt lat="42.97924" lon="2.40963">
        <ele>709</ele>
        <time>2022-05-02T21:28:06Z</time>
      </trkpt>
      <trkpt lat="42.97944" lon="2.40958">
        <ele>712</ele>
        <time>2022-05-02T21:28:10Z</time>
      </trkpt>
      <trkpt lat="42.97978" lon="2.40933">
        <ele>719</ele>
        <time>2022-05-02T21:28:17Z</time>
      </trkpt>
      <trkpt lat="42.97995" lon="2.40925">
        <ele>721</ele>
        <time>2022-05-02T21:28:20Z</time>
      </trkpt>
      <trkpt lat="42.98013" lon="2.4092">
        <ele>725</ele>
        <time>2022-05-02T21:28:23Z</time>
      </trkpt>
      <trkpt lat="42.98045" lon="2.4092">
        <ele>731</ele>
        <time>2022-05-02T21:28:29Z</time>
      </trkpt>
      <trkpt lat="42.98056" lon="2.40926">
        <ele>732</ele>
        <time>2022-05-02T21:28:31Z</time>
      </trkpt>
      <trkpt lat="42.98069" lon="2.40937">
        <ele>733</ele>
        <time>2022-05-02T21:28:34Z</time>
      </trkpt>
      <trkpt lat="42.98074" lon="2.4095">
        <ele>733</ele>
        <time>2022-05-02T21:28:36Z</time>
      </trkpt>
      <trkpt lat="42.98076" lon="2.40961">
        <ele>732</ele>
        <time>2022-05-02T21:28:37Z</time>
      </trkpt>
      <trkpt lat="42.98074" lon="2.40975">
        <ele>730</ele>
        <time>2022-05-02T21:28:39Z</time>
      </trkpt>
      <trkpt lat="42.9807" lon="2.4099">
        <ele>728</ele>
        <time>2022-05-02T21:28:41Z</time>
      </trkpt>
      <trkpt lat="42.9805" lon="2.41029">
        <ele>724</ele>
        <time>2022-05-02T21:28:47Z</time>
      </trkpt>
      <trkpt lat="42.98041" lon="2.41042">
        <ele>722</ele>
        <time>2022-05-02T21:28:50Z</time>
      </trkpt>
      <trkpt lat="42.98024" lon="2.41059">
        <ele>719</ele>
        <time>2022-05-02T21:28:53Z</time>
      </trkpt>
      <trkpt lat="42.97968" lon="2.41108">
        <ele>713</ele>
        <time>2022-05-02T21:29:05Z</time>
      </trkpt>
      <trkpt lat="42.97948" lon="2.41136">
        <ele>713</ele>
        <time>2022-05-02T21:29:10Z</time>
      </trkpt>
      <trkpt lat="42.97936" lon="2.41165">
        <ele>715</ele>
        <time>2022-05-02T21:29:15Z</time>
      </trkpt>
      <trkpt lat="42.97932" lon="2.4118">
        <ele>714</ele>
        <time>2022-05-02T21:29:17Z</time>
      </trkpt>
      <trkpt lat="42.97931" lon="2.41196">
        <ele>714</ele>
        <time>2022-05-02T21:29:19Z</time>
      </trkpt>
      <trkpt lat="42.97932" lon="2.41207">
        <ele>714</ele>
        <time>2022-05-02T21:29:20Z</time>
      </trkpt>
      <trkpt lat="42.97937" lon="2.41221">
        <ele>715</ele>
        <time>2022-05-02T21:29:22Z</time>
      </trkpt>
      <trkpt lat="42.97946" lon="2.41233">
        <ele>714</ele>
        <time>2022-05-02T21:29:24Z</time>
      </trkpt>
      <trkpt lat="42.97954" lon="2.41239">
        <ele>714</ele>
        <time>2022-05-02T21:29:26Z</time>
      </trkpt>
      <trkpt lat="42.97966" lon="2.41243">
        <ele>714</ele>
        <time>2022-05-02T21:29:28Z</time>
      </trkpt>
      <trkpt lat="42.97987" lon="2.41242">
        <ele>713</ele>
        <time>2022-05-02T21:29:32Z</time>
      </trkpt>
      <trkpt lat="42.98043" lon="2.4123">
        <ele>711</ele>
        <time>2022-05-02T21:29:42Z</time>
      </trkpt>
      <trkpt lat="42.98055" lon="2.41224">
        <ele>712</ele>
        <time>2022-05-02T21:29:44Z</time>
      </trkpt>
      <trkpt lat="42.98066" lon="2.41209">
        <ele>714</ele>
        <time>2022-05-02T21:29:47Z</time>
      </trkpt>
      <trkpt lat="42.98101" lon="2.41174">
        <ele>721</ele>
        <time>2022-05-02T21:29:55Z</time>
      </trkpt>
      <trkpt lat="42.98114" lon="2.41165">
        <ele>723</ele>
        <time>2022-05-02T21:29:57Z</time>
      </trkpt>
      <trkpt lat="42.98126" lon="2.4116">
        <ele>724</ele>
        <time>2022-05-02T21:30:00Z</time>
      </trkpt>
      <trkpt lat="42.98142" lon="2.41158">
        <ele>726</ele>
        <time>2022-05-02T21:30:02Z</time>
      </trkpt>
      <trkpt lat="42.98167" lon="2.41168">
        <ele>725</ele>
        <time>2022-05-02T21:30:07Z</time>
      </trkpt>
      <trkpt lat="42.98172" lon="2.41175">
        <ele>726</ele>
        <time>2022-05-02T21:30:08Z</time>
      </trkpt>
      <trkpt lat="42.98173" lon="2.41182">
        <ele>726</ele>
        <time>2022-05-02T21:30:09Z</time>
      </trkpt>
      <trkpt lat="42.98161" lon="2.41266">
        <ele>720</ele>
        <time>2022-05-02T21:30:20Z</time>
      </trkpt>
      <trkpt lat="42.98152" lon="2.41301">
        <ele>719</ele>
        <time>2022-05-02T21:30:25Z</time>
      </trkpt>
      <trkpt lat="42.98151" lon="2.41318">
        <ele>719</ele>
        <time>2022-05-02T21:30:27Z</time>
      </trkpt>
      <trkpt lat="42.98153" lon="2.41337">
        <ele>720</ele>
        <time>2022-05-02T21:30:30Z</time>
      </trkpt>
      <trkpt lat="42.98165" lon="2.41395">
        <ele>723</ele>
        <time>2022-05-02T21:30:38Z</time>
      </trkpt>
      <trkpt lat="42.98165" lon="2.4141">
        <ele>724</ele>
        <time>2022-05-02T21:30:40Z</time>
      </trkpt>
      <trkpt lat="42.98164" lon="2.41422">
        <ele>724</ele>
        <time>2022-05-02T21:30:41Z</time>
      </trkpt>
      <trkpt lat="42.98159" lon="2.41442">
        <ele>723</ele>
        <time>2022-05-02T21:30:44Z</time>
      </trkpt>
      <trkpt lat="42.98153" lon="2.41457">
        <ele>723</ele>
        <time>2022-05-02T21:30:46Z</time>
      </trkpt>
      <trkpt lat="42.98152" lon="2.41466">
        <ele>723</ele>
        <time>2022-05-02T21:30:48Z</time>
      </trkpt>
      <trkpt lat="42.98154" lon="2.41474">
        <ele>723</ele>
        <time>2022-05-02T21:30:49Z</time>
      </trkpt>
      <trkpt lat="42.98158" lon="2.41481">
        <ele>723</ele>
        <time>2022-05-02T21:30:50Z</time>
      </trkpt>
      <trkpt lat="42.98163" lon="2.41486">
        <ele>722</ele>
        <time>2022-05-02T21:30:51Z</time>
      </trkpt>
      <trkpt lat="42.98172" lon="2.41488">
        <ele>722</ele>
        <time>2022-05-02T21:30:53Z</time>
      </trkpt>
      <trkpt lat="42.98186" lon="2.41482">
        <ele>721</ele>
        <time>2022-05-02T21:30:55Z</time>
      </trkpt>
      <trkpt lat="42.98193" lon="2.41474">
        <ele>721</ele>
        <time>2022-05-02T21:30:57Z</time>
      </trkpt>
      <trkpt lat="42.98216" lon="2.41426">
        <ele>728</ele>
        <time>2022-05-02T21:31:04Z</time>
      </trkpt>
      <trkpt lat="42.98223" lon="2.4142">
        <ele>729</ele>
        <time>2022-05-02T21:31:06Z</time>
      </trkpt>
      <trkpt lat="42.98237" lon="2.41416">
        <ele>732</ele>
        <time>2022-05-02T21:31:08Z</time>
      </trkpt>
      <trkpt lat="42.98261" lon="2.41425">
        <ele>733</ele>
        <time>2022-05-02T21:31:13Z</time>
      </trkpt>
      <trkpt lat="42.98269" lon="2.41424">
        <ele>735</ele>
        <time>2022-05-02T21:31:14Z</time>
      </trkpt>
      <trkpt lat="42.98284" lon="2.4142">
        <ele>739</ele>
        <time>2022-05-02T21:31:17Z</time>
      </trkpt>
      <trkpt lat="42.98302" lon="2.41423">
        <ele>741</ele>
        <time>2022-05-02T21:31:20Z</time>
      </trkpt>
      <trkpt lat="42.98321" lon="2.41434">
        <ele>741</ele>
        <time>2022-05-02T21:31:24Z</time>
      </trkpt>
      <trkpt lat="42.98334" lon="2.41453">
        <ele>737</ele>
        <time>2022-05-02T21:31:27Z</time>
      </trkpt>
      <trkpt lat="42.9834" lon="2.41465">
        <ele>736</ele>
        <time>2022-05-02T21:31:29Z</time>
      </trkpt>
      <trkpt lat="42.98344" lon="2.41479">
        <ele>732</ele>
        <time>2022-05-02T21:31:31Z</time>
      </trkpt>
      <trkpt lat="42.98346" lon="2.41506">
        <ele>727</ele>
        <time>2022-05-02T21:31:34Z</time>
      </trkpt>
      <trkpt lat="42.98342" lon="2.41519">
        <ele>725</ele>
        <time>2022-05-02T21:31:36Z</time>
      </trkpt>
      <trkpt lat="42.98329" lon="2.41545">
        <ele>722</ele>
        <time>2022-05-02T21:31:40Z</time>
      </trkpt>
      <trkpt lat="42.98302" lon="2.41613">
        <ele>717</ele>
        <time>2022-05-02T21:31:50Z</time>
      </trkpt>
      <trkpt lat="42.98278" lon="2.41647">
        <ele>712</ele>
        <time>2022-05-02T21:31:57Z</time>
      </trkpt>
      <trkpt lat="42.9827" lon="2.41664">
        <ele>711</ele>
        <time>2022-05-02T21:31:59Z</time>
      </trkpt>
      <trkpt lat="42.98266" lon="2.41679">
        <ele>709</ele>
        <time>2022-05-02T21:32:01Z</time>
      </trkpt>
      <trkpt lat="42.98261" lon="2.4171">
        <ele>707</ele>
        <time>2022-05-02T21:32:05Z</time>
      </trkpt>
      <trkpt lat="42.9826" lon="2.4174">
        <ele>705</ele>
        <time>2022-05-02T21:32:09Z</time>
      </trkpt>
      <trkpt lat="42.98265" lon="2.41792">
        <ele>702</ele>
        <time>2022-05-02T21:32:16Z</time>
      </trkpt>
      <trkpt lat="42.98269" lon="2.41817">
        <ele>701</ele>
        <time>2022-05-02T21:32:20Z</time>
      </trkpt>
      <trkpt lat="42.98285" lon="2.41878">
        <ele>698</ele>
        <time>2022-05-02T21:32:28Z</time>
      </trkpt>
      <trkpt lat="42.98291" lon="2.41938">
        <ele>694</ele>
        <time>2022-05-02T21:32:36Z</time>
      </trkpt>
      <trkpt lat="42.98296" lon="2.41956">
        <ele>694</ele>
        <time>2022-05-02T21:32:38Z</time>
      </trkpt>
      <trkpt lat="42.98302" lon="2.41965">
        <ele>694</ele>
        <time>2022-05-02T21:32:40Z</time>
      </trkpt>
      <trkpt lat="42.98309" lon="2.4197">
        <ele>695</ele>
        <time>2022-05-02T21:32:41Z</time>
      </trkpt>
      <trkpt lat="42.98319" lon="2.41971">
        <ele>696</ele>
        <time>2022-05-02T21:32:43Z</time>
      </trkpt>
      <trkpt lat="42.98328" lon="2.41965">
        <ele>698</ele>
        <time>2022-05-02T21:32:45Z</time>
      </trkpt>
      <trkpt lat="42.98347" lon="2.41937">
        <ele>698</ele>
        <time>2022-05-02T21:32:50Z</time>
      </trkpt>
      <trkpt lat="42.98355" lon="2.41917">
        <ele>699</ele>
        <time>2022-05-02T21:32:53Z</time>
      </trkpt>
      <trkpt lat="42.98367" lon="2.41861">
        <ele>705</ele>
        <time>2022-05-02T21:33:00Z</time>
      </trkpt>
      <trkpt lat="42.98372" lon="2.41848">
        <ele>706</ele>
        <time>2022-05-02T21:33:02Z</time>
      </trkpt>
      <trkpt lat="42.98381" lon="2.41839">
        <ele>707</ele>
        <time>2022-05-02T21:33:04Z</time>
      </trkpt>
      <trkpt lat="42.9839" lon="2.41832">
        <ele>707</ele>
        <time>2022-05-02T21:33:06Z</time>
      </trkpt>
      <trkpt lat="42.98401" lon="2.4183">
        <ele>707</ele>
        <time>2022-05-02T21:33:08Z</time>
      </trkpt>
      <trkpt lat="42.98409" lon="2.41832">
        <ele>706</ele>
        <time>2022-05-02T21:33:10Z</time>
      </trkpt>
      <trkpt lat="42.98436" lon="2.41847">
        <ele>703</ele>
        <time>2022-05-02T21:33:15Z</time>
      </trkpt>
      <trkpt lat="42.98444" lon="2.41848">
        <ele>703</ele>
        <time>2022-05-02T21:33:16Z</time>
      </trkpt>
      <trkpt lat="42.98462" lon="2.41841">
        <ele>706</ele>
        <time>2022-05-02T21:33:20Z</time>
      </trkpt>
      <trkpt lat="42.98476" lon="2.41839">
        <ele>707</ele>
        <time>2022-05-02T21:33:22Z</time>
      </trkpt>
      <trkpt lat="42.98498" lon="2.41841">
        <ele>708</ele>
        <time>2022-05-02T21:33:26Z</time>
      </trkpt>
      <trkpt lat="42.98513" lon="2.4185">
        <ele>710</ele>
        <time>2022-05-02T21:33:29Z</time>
      </trkpt>
      <trkpt lat="42.98521" lon="2.4186">
        <ele>710</ele>
        <time>2022-05-02T21:33:31Z</time>
      </trkpt>
      <trkpt lat="42.98527" lon="2.41875">
        <ele>709</ele>
        <time>2022-05-02T21:33:33Z</time>
      </trkpt>
      <trkpt lat="42.98528" lon="2.41901">
        <ele>702</ele>
        <time>2022-05-02T21:33:36Z</time>
      </trkpt>
      <trkpt lat="42.98517" lon="2.41973">
        <ele>689</ele>
        <time>2022-05-02T21:33:46Z</time>
      </trkpt>
      <trkpt lat="42.98517" lon="2.41997">
        <ele>686</ele>
        <time>2022-05-02T21:33:49Z</time>
      </trkpt>
      <trkpt lat="42.9852" lon="2.42005">
        <ele>686</ele>
        <time>2022-05-02T21:33:50Z</time>
      </trkpt>
      <trkpt lat="42.98528" lon="2.42016">
        <ele>687</ele>
        <time>2022-05-02T21:33:52Z</time>
      </trkpt>
      <trkpt lat="42.98575" lon="2.42068">
        <ele>691</ele>
        <time>2022-05-02T21:34:03Z</time>
      </trkpt>
      <trkpt lat="42.98582" lon="2.4208">
        <ele>690</ele>
        <time>2022-05-02T21:34:05Z</time>
      </trkpt>
      <trkpt lat="42.98584" lon="2.42088">
        <ele>690</ele>
        <time>2022-05-02T21:34:06Z</time>
      </trkpt>
      <trkpt lat="42.98584" lon="2.42095">
        <ele>689</ele>
        <time>2022-05-02T21:34:07Z</time>
      </trkpt>
      <trkpt lat="42.98572" lon="2.42156">
        <ele>682</ele>
        <time>2022-05-02T21:34:15Z</time>
      </trkpt>
      <trkpt lat="42.98571" lon="2.42168">
        <ele>681</ele>
        <time>2022-05-02T21:34:17Z</time>
      </trkpt>
      <trkpt lat="42.98578" lon="2.42186">
        <ele>682</ele>
        <time>2022-05-02T21:34:20Z</time>
      </trkpt>
      <trkpt lat="42.98604" lon="2.42224">
        <ele>687</ele>
        <time>2022-05-02T21:34:26Z</time>
      </trkpt>
      <trkpt lat="42.9861" lon="2.42235">
        <ele>689</ele>
        <time>2022-05-02T21:34:28Z</time>
      </trkpt>
      <trkpt lat="42.98612" lon="2.42245">
        <ele>689</ele>
        <time>2022-05-02T21:34:29Z</time>
      </trkpt>
      <trkpt lat="42.98612" lon="2.42261">
        <ele>689</ele>
        <time>2022-05-02T21:34:32Z</time>
      </trkpt>
      <trkpt lat="42.98608" lon="2.42269">
        <ele>688</ele>
        <time>2022-05-02T21:34:33Z</time>
      </trkpt>
      <trkpt lat="42.986" lon="2.42277">
        <ele>686</ele>
        <time>2022-05-02T21:34:35Z</time>
      </trkpt>
      <trkpt lat="42.98583" lon="2.42289">
        <ele>682</ele>
        <time>2022-05-02T21:34:38Z</time>
      </trkpt>
      <trkpt lat="42.98575" lon="2.42297">
        <ele>680</ele>
        <time>2022-05-02T21:34:40Z</time>
      </trkpt>
      <trkpt lat="42.98567" lon="2.42311">
        <ele>679</ele>
        <time>2022-05-02T21:34:42Z</time>
      </trkpt>
      <trkpt lat="42.9856" lon="2.42332">
        <ele>679</ele>
        <time>2022-05-02T21:34:45Z</time>
      </trkpt>
      <trkpt lat="42.98555" lon="2.42351">
        <ele>680</ele>
        <time>2022-05-02T21:34:48Z</time>
      </trkpt>
      <trkpt lat="42.98555" lon="2.42388">
        <ele>685</ele>
        <time>2022-05-02T21:34:52Z</time>
      </trkpt>
      <trkpt lat="42.98558" lon="2.42428">
        <ele>691</ele>
        <time>2022-05-02T21:34:58Z</time>
      </trkpt>
      <trkpt lat="42.98556" lon="2.42522">
        <ele>696</ele>
        <time>2022-05-02T21:35:10Z</time>
      </trkpt>
      <trkpt lat="42.98554" lon="2.42547">
        <ele>697</ele>
        <time>2022-05-02T21:35:13Z</time>
      </trkpt>
      <trkpt lat="42.98549" lon="2.42574">
        <ele>698</ele>
        <time>2022-05-02T21:35:17Z</time>
      </trkpt>
      <trkpt lat="42.98532" lon="2.42642">
        <ele>699</ele>
        <time>2022-05-02T21:35:26Z</time>
      </trkpt>
      <trkpt lat="42.98527" lon="2.4267">
        <ele>700</ele>
        <time>2022-05-02T21:35:30Z</time>
      </trkpt>
      <trkpt lat="42.98526" lon="2.42699">
        <ele>702</ele>
        <time>2022-05-02T21:35:34Z</time>
      </trkpt>
      <trkpt lat="42.98528" lon="2.4272">
        <ele>703</ele>
        <time>2022-05-02T21:35:36Z</time>
      </trkpt>
      <trkpt lat="42.98541" lon="2.42773">
        <ele>709</ele>
        <time>2022-05-02T21:35:44Z</time>
      </trkpt>
      <trkpt lat="42.98544" lon="2.42795">
        <ele>710</ele>
        <time>2022-05-02T21:35:47Z</time>
      </trkpt>
      <trkpt lat="42.98548" lon="2.42868">
        <ele>711</ele>
        <time>2022-05-02T21:35:56Z</time>
      </trkpt>
      <trkpt lat="42.9855" lon="2.42881">
        <ele>710</ele>
        <time>2022-05-02T21:35:58Z</time>
      </trkpt>
      <trkpt lat="42.98557" lon="2.42894">
        <ele>711</ele>
        <time>2022-05-02T21:36:00Z</time>
      </trkpt>
      <trkpt lat="42.98566" lon="2.42901">
        <ele>711</ele>
        <time>2022-05-02T21:36:02Z</time>
      </trkpt>
      <trkpt lat="42.98582" lon="2.42908">
        <ele>713</ele>
        <time>2022-05-02T21:36:05Z</time>
      </trkpt>
      <trkpt lat="42.98573" lon="2.42895">
        <ele>713</ele>
        <time>2022-05-02T21:36:07Z</time>
      </trkpt>
      <trkpt lat="42.98566" lon="2.4288">
        <ele>713</ele>
        <time>2022-05-02T21:36:10Z</time>
      </trkpt>
      <trkpt lat="42.98562" lon="2.42853">
        <ele>714</ele>
        <time>2022-05-02T21:36:13Z</time>
      </trkpt>
      <trkpt lat="42.9856" lon="2.42796">
        <ele>713</ele>
        <time>2022-05-02T21:36:21Z</time>
      </trkpt>
      <trkpt lat="42.98565" lon="2.42747">
        <ele>713</ele>
        <time>2022-05-02T21:36:27Z</time>
      </trkpt>
      <trkpt lat="42.98575" lon="2.42711">
        <ele>714</ele>
        <time>2022-05-02T21:36:32Z</time>
      </trkpt>
      <trkpt lat="42.98614" lon="2.4262">
        <ele>718</ele>
        <time>2022-05-02T21:36:46Z</time>
      </trkpt>
      <trkpt lat="42.98629" lon="2.4256">
        <ele>717</ele>
        <time>2022-05-02T21:36:54Z</time>
      </trkpt>
      <trkpt lat="42.98639" lon="2.42543">
        <ele>718</ele>
        <time>2022-05-02T21:36:57Z</time>
      </trkpt>
      <trkpt lat="42.98649" lon="2.42531">
        <ele>719</ele>
        <time>2022-05-02T21:36:59Z</time>
      </trkpt>
      <trkpt lat="42.98686" lon="2.42498">
        <ele>720</ele>
        <time>2022-05-02T21:37:07Z</time>
      </trkpt>
      <trkpt lat="42.98707" lon="2.42486">
        <ele>719</ele>
        <time>2022-05-02T21:37:11Z</time>
      </trkpt>
      <trkpt lat="42.98724" lon="2.4248">
        <ele>718</ele>
        <time>2022-05-02T21:37:14Z</time>
      </trkpt>
      <trkpt lat="42.98746" lon="2.42477">
        <ele>718</ele>
        <time>2022-05-02T21:37:18Z</time>
      </trkpt>
      <trkpt lat="42.98764" lon="2.42479">
        <ele>717</ele>
        <time>2022-05-02T21:37:21Z</time>
      </trkpt>
      <trkpt lat="42.98773" lon="2.42484">
        <ele>718</ele>
        <time>2022-05-02T21:37:23Z</time>
      </trkpt>
      <trkpt lat="42.98868" lon="2.42565">
        <ele>720</ele>
        <time>2022-05-02T21:37:43Z</time>
      </trkpt>
      <trkpt lat="42.98905" lon="2.42613">
        <ele>719</ele>
        <time>2022-05-02T21:37:52Z</time>
      </trkpt>
      <trkpt lat="42.98937" lon="2.42645">
        <ele>720</ele>
        <time>2022-05-02T21:37:59Z</time>
      </trkpt>
      <trkpt lat="42.98954" lon="2.42674">
        <ele>720</ele>
        <time>2022-05-02T21:38:04Z</time>
      </trkpt>
      <trkpt lat="42.98969" lon="2.42709">
        <ele>721</ele>
        <time>2022-05-02T21:38:09Z</time>
      </trkpt>
      <trkpt lat="42.98981" lon="2.4273">
        <ele>721</ele>
        <time>2022-05-02T21:38:13Z</time>
      </trkpt>
      <trkpt lat="42.99001" lon="2.42754">
        <ele>721</ele>
        <time>2022-05-02T21:38:17Z</time>
      </trkpt>
      <trkpt lat="42.99031" lon="2.42777">
        <ele>724</ele>
        <time>2022-05-02T21:38:24Z</time>
      </trkpt>
      <trkpt lat="42.99048" lon="2.42787">
        <ele>725</ele>
        <time>2022-05-02T21:38:27Z</time>
      </trkpt>
      <trkpt lat="42.99058" lon="2.42789">
        <ele>725</ele>
        <time>2022-05-02T21:38:29Z</time>
      </trkpt>
      <trkpt lat="42.99066" lon="2.42788">
        <ele>725</ele>
        <time>2022-05-02T21:38:30Z</time>
      </trkpt>
      <trkpt lat="42.99074" lon="2.42785">
        <ele>725</ele>
        <time>2022-05-02T21:38:32Z</time>
      </trkpt>
      <trkpt lat="42.99126" lon="2.42744">
        <ele>728</ele>
        <time>2022-05-02T21:38:42Z</time>
      </trkpt>
      <trkpt lat="42.99142" lon="2.42735">
        <ele>730</ele>
        <time>2022-05-02T21:38:45Z</time>
      </trkpt>
      <trkpt lat="42.99163" lon="2.42728">
        <ele>733</ele>
        <time>2022-05-02T21:38:49Z</time>
      </trkpt>
      <trkpt lat="42.99188" lon="2.42725">
        <ele>734</ele>
        <time>2022-05-02T21:38:54Z</time>
      </trkpt>
      <trkpt lat="42.99237" lon="2.42734">
        <ele>736</ele>
        <time>2022-05-02T21:39:02Z</time>
      </trkpt>
      <trkpt lat="42.99258" lon="2.4274">
        <ele>738</ele>
        <time>2022-05-02T21:39:06Z</time>
      </trkpt>
      <trkpt lat="42.99276" lon="2.42741">
        <ele>739</ele>
        <time>2022-05-02T21:39:09Z</time>
      </trkpt>
      <trkpt lat="42.99302" lon="2.42736">
        <ele>739</ele>
        <time>2022-05-02T21:39:14Z</time>
      </trkpt>
      <trkpt lat="42.99365" lon="2.42718">
        <ele>738</ele>
        <time>2022-05-02T21:39:26Z</time>
      </trkpt>
      <trkpt lat="42.99389" lon="2.42714">
        <ele>738</ele>
        <time>2022-05-02T21:39:30Z</time>
      </trkpt>
      <trkpt lat="42.99405" lon="2.42719">
        <ele>739</ele>
        <time>2022-05-02T21:39:33Z</time>
      </trkpt>
      <trkpt lat="42.99447" lon="2.42739">
        <ele>739</ele>
        <time>2022-05-02T21:39:41Z</time>
      </trkpt>
      <trkpt lat="42.99482" lon="2.42767">
        <ele>738</ele>
        <time>2022-05-02T21:39:48Z</time>
      </trkpt>
      <trkpt lat="42.99491" lon="2.42788">
        <ele>739</ele>
        <time>2022-05-02T21:39:51Z</time>
      </trkpt>
      <trkpt lat="42.99504" lon="2.42828">
        <ele>742</ele>
        <time>2022-05-02T21:39:57Z</time>
      </trkpt>
      <trkpt lat="42.99512" lon="2.42842">
        <ele>744</ele>
        <time>2022-05-02T21:39:59Z</time>
      </trkpt>
      <trkpt lat="42.9952" lon="2.42848">
        <ele>745</ele>
        <time>2022-05-02T21:40:01Z</time>
      </trkpt>
      <trkpt lat="42.99533" lon="2.42847">
        <ele>745</ele>
        <time>2022-05-02T21:40:03Z</time>
      </trkpt>
      <trkpt lat="42.99547" lon="2.42839">
        <ele>744</ele>
        <time>2022-05-02T21:40:06Z</time>
      </trkpt>
      <trkpt lat="42.9956" lon="2.4282">
        <ele>743</ele>
        <time>2022-05-02T21:40:09Z</time>
      </trkpt>
      <trkpt lat="42.99572" lon="2.42805">
        <ele>742</ele>
        <time>2022-05-02T21:40:12Z</time>
      </trkpt>
      <trkpt lat="42.99594" lon="2.42795">
        <ele>742</ele>
        <time>2022-05-02T21:40:16Z</time>
      </trkpt>
      <trkpt lat="42.99609" lon="2.42797">
        <ele>744</ele>
        <time>2022-05-02T21:40:19Z</time>
      </trkpt>
      <trkpt lat="42.99646" lon="2.42809">
        <ele>748</ele>
        <time>2022-05-02T21:40:26Z</time>
      </trkpt>
      <trkpt lat="42.99657" lon="2.42806">
        <ele>749</ele>
        <time>2022-05-02T21:40:28Z</time>
      </trkpt>
      <trkpt lat="42.99664" lon="2.42798">
        <ele>750</ele>
        <time>2022-05-02T21:40:29Z</time>
      </trkpt>
      <trkpt lat="42.9967" lon="2.42785">
        <ele>751</ele>
        <time>2022-05-02T21:40:31Z</time>
      </trkpt>
      <trkpt lat="42.99676" lon="2.42683">
        <ele>754</ele>
        <time>2022-05-02T21:40:45Z</time>
      </trkpt>
      <trkpt lat="42.99667" lon="2.42621">
        <ele>755</ele>
        <time>2022-05-02T21:40:53Z</time>
      </trkpt>
      <trkpt lat="42.99659" lon="2.42593">
        <ele>757</ele>
        <time>2022-05-02T21:40:57Z</time>
      </trkpt>
      <trkpt lat="42.99649" lon="2.42571">
        <ele>757</ele>
        <time>2022-05-02T21:41:00Z</time>
      </trkpt>
      <trkpt lat="42.9964" lon="2.42557">
        <ele>757</ele>
        <time>2022-05-02T21:41:02Z</time>
      </trkpt>
      <trkpt lat="42.9963" lon="2.4255">
        <ele>757</ele>
        <time>2022-05-02T21:41:04Z</time>
      </trkpt>
      <trkpt lat="42.99591" lon="2.42537">
        <ele>753</ele>
        <time>2022-05-02T21:41:12Z</time>
      </trkpt>
      <trkpt lat="42.9958" lon="2.4253">
        <ele>752</ele>
        <time>2022-05-02T21:41:14Z</time>
      </trkpt>
      <trkpt lat="42.99572" lon="2.42518">
        <ele>752</ele>
        <time>2022-05-02T21:41:16Z</time>
      </trkpt>
      <trkpt lat="42.99569" lon="2.42502">
        <ele>752</ele>
        <time>2022-05-02T21:41:18Z</time>
      </trkpt>
      <trkpt lat="42.99568" lon="2.42485">
        <ele>751</ele>
        <time>2022-05-02T21:41:20Z</time>
      </trkpt>
      <trkpt lat="42.99571" lon="2.42466">
        <ele>751</ele>
        <time>2022-05-02T21:41:23Z</time>
      </trkpt>
      <trkpt lat="42.9958" lon="2.42439">
        <ele>752</ele>
        <time>2022-05-02T21:41:27Z</time>
      </trkpt>
      <trkpt lat="42.99604" lon="2.42394">
        <ele>755</ele>
        <time>2022-05-02T21:41:34Z</time>
      </trkpt>
      <trkpt lat="42.9967" lon="2.42261">
        <ele>758</ele>
        <time>2022-05-02T21:41:55Z</time>
      </trkpt>
      <trkpt lat="42.99681" lon="2.42244">
        <ele>758</ele>
        <time>2022-05-02T21:41:58Z</time>
      </trkpt>
      <trkpt lat="42.99696" lon="2.42231">
        <ele>757</ele>
        <time>2022-05-02T21:42:01Z</time>
      </trkpt>
      <trkpt lat="42.99709" lon="2.42229">
        <ele>756</ele>
        <time>2022-05-02T21:42:03Z</time>
      </trkpt>
      <trkpt lat="42.99722" lon="2.42234">
        <ele>756</ele>
        <time>2022-05-02T21:42:06Z</time>
      </trkpt>
      <trkpt lat="42.99738" lon="2.42253">
        <ele>756</ele>
        <time>2022-05-02T21:42:09Z</time>
      </trkpt>
      <trkpt lat="42.9975" lon="2.42272">
        <ele>757</ele>
        <time>2022-05-02T21:42:13Z</time>
      </trkpt>
      <trkpt lat="42.99762" lon="2.42302">
        <ele>755</ele>
        <time>2022-05-02T21:42:17Z</time>
      </trkpt>
      <trkpt lat="42.9978" lon="2.42355">
        <ele>757</ele>
        <time>2022-05-02T21:42:25Z</time>
      </trkpt>
      <trkpt lat="42.99791" lon="2.42378">
        <ele>758</ele>
        <time>2022-05-02T21:42:28Z</time>
      </trkpt>
      <trkpt lat="42.99805" lon="2.42399">
        <ele>758</ele>
        <time>2022-05-02T21:42:32Z</time>
      </trkpt>
      <trkpt lat="42.9982" lon="2.42414">
        <ele>758</ele>
        <time>2022-05-02T21:42:35Z</time>
      </trkpt>
      <trkpt lat="42.99835" lon="2.42422">
        <ele>758</ele>
        <time>2022-05-02T21:42:38Z</time>
      </trkpt>
      <trkpt lat="42.9985" lon="2.42428">
        <ele>758</ele>
        <time>2022-05-02T21:42:41Z</time>
      </trkpt>
      <trkpt lat="42.99884" lon="2.42428">
        <ele>755</ele>
        <time>2022-05-02T21:42:47Z</time>
      </trkpt>
      <trkpt lat="42.99951" lon="2.42414">
        <ele>745</ele>
        <time>2022-05-02T21:42:59Z</time>
      </trkpt>
      <trkpt lat="42.99966" lon="2.42415">
        <ele>745</ele>
        <time>2022-05-02T21:43:02Z</time>
      </trkpt>
      <trkpt lat="42.99999" lon="2.4243">
        <ele>749</ele>
        <time>2022-05-02T21:43:08Z</time>
      </trkpt>
      <trkpt lat="43.00042" lon="2.42444">
        <ele>746</ele>
        <time>2022-05-02T21:43:16Z</time>
      </trkpt>
      <trkpt lat="43.00058" lon="2.42453">
        <ele>746</ele>
        <time>2022-05-02T21:43:19Z</time>
      </trkpt>
      <trkpt lat="43.0008" lon="2.42459">
        <ele>744</ele>
        <time>2022-05-02T21:43:23Z</time>
      </trkpt>
      <trkpt lat="43.00122" lon="2.42469">
        <ele>741</ele>
        <time>2022-05-02T21:43:30Z</time>
      </trkpt>
      <trkpt lat="43.00157" lon="2.42471">
        <ele>737</ele>
        <time>2022-05-02T21:43:37Z</time>
      </trkpt>
      <trkpt lat="43.00163" lon="2.42473">
        <ele>736</ele>
        <time>2022-05-02T21:43:38Z</time>
      </trkpt>
      <trkpt lat="43.00185" lon="2.42494">
        <ele>742</ele>
        <time>2022-05-02T21:43:43Z</time>
      </trkpt>
      <trkpt lat="43.00193" lon="2.42497">
        <ele>742</ele>
        <time>2022-05-02T21:43:44Z</time>
      </trkpt>
      <trkpt lat="43.00199" lon="2.42496">
        <ele>742</ele>
        <time>2022-05-02T21:43:45Z</time>
      </trkpt>
      <trkpt lat="43.00249" lon="2.42462">
        <ele>732</ele>
        <time>2022-05-02T21:43:55Z</time>
      </trkpt>
      <trkpt lat="43.0027" lon="2.4245">
        <ele>726</ele>
        <time>2022-05-02T21:43:59Z</time>
      </trkpt>
      <trkpt lat="43.00277" lon="2.42449">
        <ele>726</ele>
        <time>2022-05-02T21:44:00Z</time>
      </trkpt>
      <trkpt lat="43.00284" lon="2.4245">
        <ele>725</ele>
        <time>2022-05-02T21:44:02Z</time>
      </trkpt>
      <trkpt lat="43.00289" lon="2.42454">
        <ele>726</ele>
        <time>2022-05-02T21:44:03Z</time>
      </trkpt>
      <trkpt lat="43.00303" lon="2.42475">
        <ele>730</ele>
        <time>2022-05-02T21:44:06Z</time>
      </trkpt>
      <trkpt lat="43.0031" lon="2.4248">
        <ele>731</ele>
        <time>2022-05-02T21:44:08Z</time>
      </trkpt>
      <trkpt lat="43.00319" lon="2.42484">
        <ele>731</ele>
        <time>2022-05-02T21:44:09Z</time>
      </trkpt>
      <trkpt lat="43.00427" lon="2.42491">
        <ele>722</ele>
        <time>2022-05-02T21:44:29Z</time>
      </trkpt>
      <trkpt lat="43.00453" lon="2.42486">
        <ele>719</ele>
        <time>2022-05-02T21:44:33Z</time>
      </trkpt>
      <trkpt lat="43.00465" lon="2.4248">
        <ele>718</ele>
        <time>2022-05-02T21:44:36Z</time>
      </trkpt>
      <trkpt lat="43.00475" lon="2.4247">
        <ele>718</ele>
        <time>2022-05-02T21:44:38Z</time>
      </trkpt>
      <trkpt lat="43.00483" lon="2.42456">
        <ele>717</ele>
        <time>2022-05-02T21:44:40Z</time>
      </trkpt>
      <trkpt lat="43.00486" lon="2.42449">
        <ele>718</ele>
        <time>2022-05-02T21:44:41Z</time>
      </trkpt>
      <trkpt lat="43.00486" lon="2.42439">
        <ele>718</ele>
        <time>2022-05-02T21:44:42Z</time>
      </trkpt>
      <trkpt lat="43.00459" lon="2.42339">
        <ele>710</ele>
        <time>2022-05-02T21:44:56Z</time>
      </trkpt>
      <trkpt lat="43.00454" lon="2.42312">
        <ele>706</ele>
        <time>2022-05-02T21:45:00Z</time>
      </trkpt>
      <trkpt lat="43.00453" lon="2.423">
        <ele>705</ele>
        <time>2022-05-02T21:45:02Z</time>
      </trkpt>
      <trkpt lat="43.00455" lon="2.42279">
        <ele>704</ele>
        <time>2022-05-02T21:45:04Z</time>
      </trkpt>
      <trkpt lat="43.00482" lon="2.42165">
        <ele>702</ele>
        <time>2022-05-02T21:45:20Z</time>
      </trkpt>
      <trkpt lat="43.00483" lon="2.42115">
        <ele>699</ele>
        <time>2022-05-02T21:45:26Z</time>
      </trkpt>
      <trkpt lat="43.00485" lon="2.42102">
        <ele>699</ele>
        <time>2022-05-02T21:45:28Z</time>
      </trkpt>
      <trkpt lat="43.00488" lon="2.4209">
        <ele>699</ele>
        <time>2022-05-02T21:45:30Z</time>
      </trkpt>
      <trkpt lat="43.00502" lon="2.42058">
        <ele>702</ele>
        <time>2022-05-02T21:45:35Z</time>
      </trkpt>
      <trkpt lat="43.00504" lon="2.42047">
        <ele>702</ele>
        <time>2022-05-02T21:45:36Z</time>
      </trkpt>
      <trkpt lat="43.00501" lon="2.42019">
        <ele>700</ele>
        <time>2022-05-02T21:45:40Z</time>
      </trkpt>
      <trkpt lat="43.00494" lon="2.41994">
        <ele>697</ele>
        <time>2022-05-02T21:45:43Z</time>
      </trkpt>
      <trkpt lat="43.00481" lon="2.41954">
        <ele>693</ele>
        <time>2022-05-02T21:45:49Z</time>
      </trkpt>
      <trkpt lat="43.00477" lon="2.41937">
        <ele>692</ele>
        <time>2022-05-02T21:45:51Z</time>
      </trkpt>
      <trkpt lat="43.00474" lon="2.41915">
        <ele>690</ele>
        <time>2022-05-02T21:45:54Z</time>
      </trkpt>
      <trkpt lat="43.00477" lon="2.41865">
        <ele>686</ele>
        <time>2022-05-02T21:46:01Z</time>
      </trkpt>
      <trkpt lat="43.00484" lon="2.41834">
        <ele>684</ele>
        <time>2022-05-02T21:46:05Z</time>
      </trkpt>
      <trkpt lat="43.00514" lon="2.41724">
        <ele>674</ele>
        <time>2022-05-02T21:46:20Z</time>
      </trkpt>
      <trkpt lat="43.00531" lon="2.41702">
        <ele>673</ele>
        <time>2022-05-02T21:46:24Z</time>
      </trkpt>
      <trkpt lat="43.00559" lon="2.41679">
        <ele>673</ele>
        <time>2022-05-02T21:46:30Z</time>
      </trkpt>
      <trkpt lat="43.00573" lon="2.41672">
        <ele>673</ele>
        <time>2022-05-02T21:46:33Z</time>
      </trkpt>
      <trkpt lat="43.00593" lon="2.4167">
        <ele>675</ele>
        <time>2022-05-02T21:46:36Z</time>
      </trkpt>
      <trkpt lat="43.00629" lon="2.41684">
        <ele>682</ele>
        <time>2022-05-02T21:46:43Z</time>
      </trkpt>
      <trkpt lat="43.00641" lon="2.41684">
        <ele>684</ele>
        <time>2022-05-02T21:46:45Z</time>
      </trkpt>
      <trkpt lat="43.00649" lon="2.4168">
        <ele>684</ele>
        <time>2022-05-02T21:46:47Z</time>
      </trkpt>
      <trkpt lat="43.00656" lon="2.41672">
        <ele>683</ele>
        <time>2022-05-02T21:46:48Z</time>
      </trkpt>
      <trkpt lat="43.00663" lon="2.41654">
        <ele>681</ele>
        <time>2022-05-02T21:46:51Z</time>
      </trkpt>
      <trkpt lat="43.00669" lon="2.41632">
        <ele>679</ele>
        <time>2022-05-02T21:46:54Z</time>
      </trkpt>
      <trkpt lat="43.00672" lon="2.41609">
        <ele>677</ele>
        <time>2022-05-02T21:46:57Z</time>
      </trkpt>
      <trkpt lat="43.00671" lon="2.41594">
        <ele>674</ele>
        <time>2022-05-02T21:46:59Z</time>
      </trkpt>
      <trkpt lat="43.00668" lon="2.41568">
        <ele>669</ele>
        <time>2022-05-02T21:47:02Z</time>
      </trkpt>
      <trkpt lat="43.0067" lon="2.4155">
        <ele>668</ele>
        <time>2022-05-02T21:47:05Z</time>
      </trkpt>
      <trkpt lat="43.00685" lon="2.41524">
        <ele>670</ele>
        <time>2022-05-02T21:47:09Z</time>
      </trkpt>
      <trkpt lat="43.0069" lon="2.41514">
        <ele>670</ele>
        <time>2022-05-02T21:47:11Z</time>
      </trkpt>
      <trkpt lat="43.00693" lon="2.41462">
        <ele>665</ele>
        <time>2022-05-02T21:47:18Z</time>
      </trkpt>
      <trkpt lat="43.00698" lon="2.41444">
        <ele>665</ele>
        <time>2022-05-02T21:47:20Z</time>
      </trkpt>
      <trkpt lat="43.0071" lon="2.41415">
        <ele>665</ele>
        <time>2022-05-02T21:47:24Z</time>
      </trkpt>
      <trkpt lat="43.00736" lon="2.41362">
        <ele>662</ele>
        <time>2022-05-02T21:47:33Z</time>
      </trkpt>
      <trkpt lat="43.00768" lon="2.41311">
        <ele>658</ele>
        <time>2022-05-02T21:47:41Z</time>
      </trkpt>
      <trkpt lat="43.00792" lon="2.41284">
        <ele>657</ele>
        <time>2022-05-02T21:47:47Z</time>
      </trkpt>
      <trkpt lat="43.00889" lon="2.41215">
        <ele>653</ele>
        <time>2022-05-02T21:48:06Z</time>
      </trkpt>
      <trkpt lat="43.00907" lon="2.41197">
        <ele>652</ele>
        <time>2022-05-02T21:48:10Z</time>
      </trkpt>
      <trkpt lat="43.00932" lon="2.41158">
        <ele>648</ele>
        <time>2022-05-02T21:48:17Z</time>
      </trkpt>
      <trkpt lat="43.00947" lon="2.41138">
        <ele>648</ele>
        <time>2022-05-02T21:48:21Z</time>
      </trkpt>
      <trkpt lat="43.0096" lon="2.41128">
        <ele>648</ele>
        <time>2022-05-02T21:48:24Z</time>
      </trkpt>
      <trkpt lat="43.00978" lon="2.4112">
        <ele>650</ele>
        <time>2022-05-02T21:48:27Z</time>
      </trkpt>
      <trkpt lat="43.00986" lon="2.41114">
        <ele>650</ele>
        <time>2022-05-02T21:48:28Z</time>
      </trkpt>
      <trkpt lat="43.00991" lon="2.41104">
        <ele>651</ele>
        <time>2022-05-02T21:48:30Z</time>
      </trkpt>
      <trkpt lat="43.00993" lon="2.41095">
        <ele>650</ele>
        <time>2022-05-02T21:48:31Z</time>
      </trkpt>
      <trkpt lat="43.00992" lon="2.41075">
        <ele>649</ele>
        <time>2022-05-02T21:48:34Z</time>
      </trkpt>
      <trkpt lat="43.00984" lon="2.41011">
        <ele>644</ele>
        <time>2022-05-02T21:48:42Z</time>
      </trkpt>
      <trkpt lat="43.00984" lon="2.40993">
        <ele>643</ele>
        <time>2022-05-02T21:48:45Z</time>
      </trkpt>
      <trkpt lat="43.00988" lon="2.40975">
        <ele>642</ele>
        <time>2022-05-02T21:48:47Z</time>
      </trkpt>
      <trkpt lat="43.01016" lon="2.40907">
        <ele>639</ele>
        <time>2022-05-02T21:48:57Z</time>
      </trkpt>
      <trkpt lat="43.01046" lon="2.40847">
        <ele>638</ele>
        <time>2022-05-02T21:49:07Z</time>
      </trkpt>
      <trkpt lat="43.01091" lon="2.40771">
        <ele>635</ele>
        <time>2022-05-02T21:49:19Z</time>
      </trkpt>
      <trkpt lat="43.01103" lon="2.40743">
        <ele>634</ele>
        <time>2022-05-02T21:49:24Z</time>
      </trkpt>
      <trkpt lat="43.0111" lon="2.40712">
        <ele>632</ele>
        <time>2022-05-02T21:49:28Z</time>
      </trkpt>
      <trkpt lat="43.0111" lon="2.40689">
        <ele>630</ele>
        <time>2022-05-02T21:49:31Z</time>
      </trkpt>
      <trkpt lat="43.01106" lon="2.40647">
        <ele>625</ele>
        <time>2022-05-02T21:49:36Z</time>
      </trkpt>
      <trkpt lat="43.01107" lon="2.40637">
        <ele>624</ele>
        <time>2022-05-02T21:49:38Z</time>
      </trkpt>
      <trkpt lat="43.01114" lon="2.40617">
        <ele>622</ele>
        <time>2022-05-02T21:49:41Z</time>
      </trkpt>
      <trkpt lat="43.01124" lon="2.40602">
        <ele>621</ele>
        <time>2022-05-02T21:49:43Z</time>
      </trkpt>
      <trkpt lat="43.01142" lon="2.40589">
        <ele>620</ele>
        <time>2022-05-02T21:49:47Z</time>
      </trkpt>
      <trkpt lat="43.01155" lon="2.40586">
        <ele>619</ele>
        <time>2022-05-02T21:49:49Z</time>
      </trkpt>
      <trkpt lat="43.01198" lon="2.40581">
        <ele>619</ele>
        <time>2022-05-02T21:49:57Z</time>
      </trkpt>
      <trkpt lat="43.01228" lon="2.4057">
        <ele>618</ele>
        <time>2022-05-02T21:50:02Z</time>
      </trkpt>
      <trkpt lat="43.01262" lon="2.40545">
        <ele>614</ele>
        <time>2022-05-02T21:50:09Z</time>
      </trkpt>
      <trkpt lat="43.0129" lon="2.40519">
        <ele>611</ele>
        <time>2022-05-02T21:50:15Z</time>
      </trkpt>
      <trkpt lat="43.01304" lon="2.40509">
        <ele>609</ele>
        <time>2022-05-02T21:50:18Z</time>
      </trkpt>
      <trkpt lat="43.01319" lon="2.40505">
        <ele>608</ele>
        <time>2022-05-02T21:50:21Z</time>
      </trkpt>
      <trkpt lat="43.0134" lon="2.40505">
        <ele>608</ele>
        <time>2022-05-02T21:50:25Z</time>
      </trkpt>
      <trkpt lat="43.01368" lon="2.40508">
        <ele>608</ele>
        <time>2022-05-02T21:50:30Z</time>
      </trkpt>
      <trkpt lat="43.01388" lon="2.40506">
        <ele>607</ele>
        <time>2022-05-02T21:50:33Z</time>
      </trkpt>
      <trkpt lat="43.01402" lon="2.40503">
        <ele>606</ele>
        <time>2022-05-02T21:50:36Z</time>
      </trkpt>
      <trkpt lat="43.01418" lon="2.40494">
        <ele>604</ele>
        <time>2022-05-02T21:50:39Z</time>
      </trkpt>
      <trkpt lat="43.01482" lon="2.40447">
        <ele>602</ele>
        <time>2022-05-02T21:50:52Z</time>
      </trkpt>
      <trkpt lat="43.01507" lon="2.40437">
        <ele>602</ele>
        <time>2022-05-02T21:50:56Z</time>
      </trkpt>
      <trkpt lat="43.0152" lon="2.40429">
        <ele>603</ele>
        <time>2022-05-02T21:50:59Z</time>
      </trkpt>
      <trkpt lat="43.01531" lon="2.40417">
        <ele>602</ele>
        <time>2022-05-02T21:51:01Z</time>
      </trkpt>
      <trkpt lat="43.01558" lon="2.40377">
        <ele>600</ele>
        <time>2022-05-02T21:51:08Z</time>
      </trkpt>
      <trkpt lat="43.01591" lon="2.40334">
        <ele>599</ele>
        <time>2022-05-02T21:51:17Z</time>
      </trkpt>
      <trkpt lat="43.01596" lon="2.40323">
        <ele>599</ele>
        <time>2022-05-02T21:51:18Z</time>
      </trkpt>
      <trkpt lat="43.01599" lon="2.40308">
        <ele>599</ele>
        <time>2022-05-02T21:51:20Z</time>
      </trkpt>
      <trkpt lat="43.01595" lon="2.40243">
        <ele>593</ele>
        <time>2022-05-02T21:51:29Z</time>
      </trkpt>
      <trkpt lat="43.01595" lon="2.40205">
        <ele>591</ele>
        <time>2022-05-02T21:51:34Z</time>
      </trkpt>
      <trkpt lat="43.01597" lon="2.40179">
        <ele>590</ele>
        <time>2022-05-02T21:51:37Z</time>
      </trkpt>
      <trkpt lat="43.01618" lon="2.40087">
        <ele>588</ele>
        <time>2022-05-02T21:51:50Z</time>
      </trkpt>
      <trkpt lat="43.01633" lon="2.40051">
        <ele>587</ele>
        <time>2022-05-02T21:51:55Z</time>
      </trkpt>
      <trkpt lat="43.01706" lon="2.39921">
        <ele>584</ele>
        <time>2022-05-02T21:52:16Z</time>
      </trkpt>
      <trkpt lat="43.01754" lon="2.39841">
        <ele>580</ele>
        <time>2022-05-02T21:52:30Z</time>
      </trkpt>
      <trkpt lat="43.01784" lon="2.39783">
        <ele>581</ele>
        <time>2022-05-02T21:52:39Z</time>
      </trkpt>
      <trkpt lat="43.01849" lon="2.39672">
        <ele>570</ele>
        <time>2022-05-02T21:52:58Z</time>
      </trkpt>
      <trkpt lat="43.01859" lon="2.39648">
        <ele>570</ele>
        <time>2022-05-02T21:53:01Z</time>
      </trkpt>
      <trkpt lat="43.01862" lon="2.39637">
        <ele>570</ele>
        <time>2022-05-02T21:53:03Z</time>
      </trkpt>
      <trkpt lat="43.01862" lon="2.39618">
        <ele>569</ele>
        <time>2022-05-02T21:53:05Z</time>
      </trkpt>
      <trkpt lat="43.01854" lon="2.39573">
        <ele>567</ele>
        <time>2022-05-02T21:53:11Z</time>
      </trkpt>
      <trkpt lat="43.01852" lon="2.39548">
        <ele>565</ele>
        <time>2022-05-02T21:53:14Z</time>
      </trkpt>
      <trkpt lat="43.01854" lon="2.3951">
        <ele>563</ele>
        <time>2022-05-02T21:53:19Z</time>
      </trkpt>
      <trkpt lat="43.01857" lon="2.3949">
        <ele>562</ele>
        <time>2022-05-02T21:53:22Z</time>
      </trkpt>
      <trkpt lat="43.01865" lon="2.39457">
        <ele>561</ele>
        <time>2022-05-02T21:53:27Z</time>
      </trkpt>
      <trkpt lat="43.01879" lon="2.3942">
        <ele>559</ele>
        <time>2022-05-02T21:53:32Z</time>
      </trkpt>
      <trkpt lat="43.0189" lon="2.39395">
        <ele>558</ele>
        <time>2022-05-02T21:53:36Z</time>
      </trkpt>
      <trkpt lat="43.01909" lon="2.39364">
        <ele>556</ele>
        <time>2022-05-02T21:53:41Z</time>
      </trkpt>
      <trkpt lat="43.01916" lon="2.39359">
        <ele>555</ele>
        <time>2022-05-02T21:53:42Z</time>
      </trkpt>
      <trkpt lat="43.0195" lon="2.3931">
        <ele>555</ele>
        <time>2022-05-02T21:53:51Z</time>
      </trkpt>
      <trkpt lat="43.01961" lon="2.39287">
        <ele>554</ele>
        <time>2022-05-02T21:53:55Z</time>
      </trkpt>
      <trkpt lat="43.01975" lon="2.39249">
        <ele>550</ele>
        <time>2022-05-02T21:54:00Z</time>
      </trkpt>
      <trkpt lat="43.01995" lon="2.39187">
        <ele>547</ele>
        <time>2022-05-02T21:54:09Z</time>
      </trkpt>
      <trkpt lat="43.01999" lon="2.3918">
        <ele>547</ele>
        <time>2022-05-02T21:54:10Z</time>
      </trkpt>
      <trkpt lat="43.02007" lon="2.39182">
        <ele>546</ele>
        <time>2022-05-02T21:54:12Z</time>
      </trkpt>
      <trkpt lat="43.02024" lon="2.39182">
        <ele>545</ele>
        <time>2022-05-02T21:54:15Z</time>
      </trkpt>
      <trkpt lat="43.02039" lon="2.39188">
        <ele>544</ele>
        <time>2022-05-02T21:54:18Z</time>
      </trkpt>
      <trkpt lat="43.02046" lon="2.39196">
        <ele>545</ele>
        <time>2022-05-02T21:54:19Z</time>
      </trkpt>
      <trkpt lat="43.02053" lon="2.3921">
        <ele>545</ele>
        <time>2022-05-02T21:54:21Z</time>
      </trkpt>
      <trkpt lat="43.02065" lon="2.39304">
        <ele>554</ele>
        <time>2022-05-02T21:54:34Z</time>
      </trkpt>
      <trkpt lat="43.02069" lon="2.39316">
        <ele>556</ele>
        <time>2022-05-02T21:54:36Z</time>
      </trkpt>
      <trkpt lat="43.02075" lon="2.39325">
        <ele>556</ele>
        <time>2022-05-02T21:54:37Z</time>
      </trkpt>
      <trkpt lat="43.02079" lon="2.39328">
        <ele>557</ele>
        <time>2022-05-02T21:54:38Z</time>
      </trkpt>
      <trkpt lat="43.02092" lon="2.39332">
        <ele>556</ele>
        <time>2022-05-02T21:54:40Z</time>
      </trkpt>
      <trkpt lat="43.02112" lon="2.39334">
        <ele>556</ele>
        <time>2022-05-02T21:54:44Z</time>
      </trkpt>
      <trkpt lat="43.02118" lon="2.39338">
        <ele>556</ele>
        <time>2022-05-02T21:54:45Z</time>
      </trkpt>
      <trkpt lat="43.02156" lon="2.39396">
        <ele>561</ele>
        <time>2022-05-02T21:54:55Z</time>
      </trkpt>
      <trkpt lat="43.02162" lon="2.39417">
        <ele>563</ele>
        <time>2022-05-02T21:54:58Z</time>
      </trkpt>
      <trkpt lat="43.02171" lon="2.39537">
        <ele>578</ele>
        <time>2022-05-02T21:55:14Z</time>
      </trkpt>
      <trkpt lat="43.02176" lon="2.39559">
        <ele>581</ele>
        <time>2022-05-02T21:55:17Z</time>
      </trkpt>
      <trkpt lat="43.02209" lon="2.39666">
        <ele>594</ele>
        <time>2022-05-02T21:55:32Z</time>
      </trkpt>
      <trkpt lat="43.02236" lon="2.39736">
        <ele>598</ele>
        <time>2022-05-02T21:55:42Z</time>
      </trkpt>
      <trkpt lat="43.0225" lon="2.39767">
        <ele>599</ele>
        <time>2022-05-02T21:55:47Z</time>
      </trkpt>
      <trkpt lat="43.02253" lon="2.39771">
        <ele>601</ele>
        <time>2022-05-02T21:55:48Z</time>
      </trkpt>
      <trkpt lat="43.0226" lon="2.39775">
        <ele>603</ele>
        <time>2022-05-02T21:55:49Z</time>
      </trkpt>
      <trkpt lat="43.02267" lon="2.39774">
        <ele>604</ele>
        <time>2022-05-02T21:55:50Z</time>
      </trkpt>
      <trkpt lat="43.02274" lon="2.3977">
        <ele>605</ele>
        <time>2022-05-02T21:55:52Z</time>
      </trkpt>
      <trkpt lat="43.02279" lon="2.39761">
        <ele>605</ele>
        <time>2022-05-02T21:55:53Z</time>
      </trkpt>
      <trkpt lat="43.02286" lon="2.39726">
        <ele>605</ele>
        <time>2022-05-02T21:55:58Z</time>
      </trkpt>
      <trkpt lat="43.02291" lon="2.39717">
        <ele>606</ele>
        <time>2022-05-02T21:55:59Z</time>
      </trkpt>
      <trkpt lat="43.023" lon="2.39716">
        <ele>608</ele>
        <time>2022-05-02T21:56:01Z</time>
      </trkpt>
      <trkpt lat="43.02309" lon="2.39725">
        <ele>610</ele>
        <time>2022-05-02T21:56:03Z</time>
      </trkpt>
      <trkpt lat="43.02311" lon="2.39736">
        <ele>611</ele>
        <time>2022-05-02T21:56:04Z</time>
      </trkpt>
      <trkpt lat="43.0231" lon="2.39754">
        <ele>611</ele>
        <time>2022-05-02T21:56:07Z</time>
      </trkpt>
      <trkpt lat="43.02289" lon="2.39882">
        <ele>616</ele>
        <time>2022-05-02T21:56:24Z</time>
      </trkpt>
      <trkpt lat="43.0229" lon="2.39932">
        <ele>615</ele>
        <time>2022-05-02T21:56:30Z</time>
      </trkpt>
      <trkpt lat="43.02295" lon="2.39948">
        <ele>613</ele>
        <time>2022-05-02T21:56:33Z</time>
      </trkpt>
      <trkpt lat="43.023" lon="2.39958">
        <ele>612</ele>
        <time>2022-05-02T21:56:34Z</time>
      </trkpt>
      <trkpt lat="43.02329" lon="2.39977">
        <ele>609</ele>
        <time>2022-05-02T21:56:40Z</time>
      </trkpt>
      <trkpt lat="43.0234" lon="2.39989">
        <ele>608</ele>
        <time>2022-05-02T21:56:42Z</time>
      </trkpt>
      <trkpt lat="43.02352" lon="2.40008">
        <ele>605</ele>
        <time>2022-05-02T21:56:46Z</time>
      </trkpt>
      <trkpt lat="43.02378" lon="2.40064">
        <ele>596</ele>
        <time>2022-05-02T21:56:54Z</time>
      </trkpt>
      <trkpt lat="43.02395" lon="2.40094">
        <ele>594</ele>
        <time>2022-05-02T21:56:59Z</time>
      </trkpt>
      <trkpt lat="43.02399" lon="2.40109">
        <ele>594</ele>
        <time>2022-05-02T21:57:01Z</time>
      </trkpt>
      <trkpt lat="43.02399" lon="2.40124">
        <ele>592</ele>
        <time>2022-05-02T21:57:03Z</time>
      </trkpt>
      <trkpt lat="43.02393" lon="2.40159">
        <ele>587</ele>
        <time>2022-05-02T21:57:08Z</time>
      </trkpt>
      <trkpt lat="43.02395" lon="2.40208">
        <ele>583</ele>
        <time>2022-05-02T21:57:14Z</time>
      </trkpt>
      <trkpt lat="43.02398" lon="2.4022">
        <ele>583</ele>
        <time>2022-05-02T21:57:16Z</time>
      </trkpt>
      <trkpt lat="43.02418" lon="2.40268">
        <ele>582</ele>
        <time>2022-05-02T21:57:23Z</time>
      </trkpt>
      <trkpt lat="43.02429" lon="2.40329">
        <ele>576</ele>
        <time>2022-05-02T21:57:31Z</time>
      </trkpt>
      <trkpt lat="43.02432" lon="2.40337">
        <ele>575</ele>
        <time>2022-05-02T21:57:32Z</time>
      </trkpt>
      <trkpt lat="43.02436" lon="2.40342">
        <ele>576</ele>
        <time>2022-05-02T21:57:33Z</time>
      </trkpt>
      <trkpt lat="43.02453" lon="2.40351">
        <ele>580</ele>
        <time>2022-05-02T21:57:37Z</time>
      </trkpt>
      <trkpt lat="43.0246" lon="2.4036">
        <ele>581</ele>
        <time>2022-05-02T21:57:38Z</time>
      </trkpt>
      <trkpt lat="43.02474" lon="2.40386">
        <ele>581</ele>
        <time>2022-05-02T21:57:43Z</time>
      </trkpt>
      <trkpt lat="43.02483" lon="2.40419">
        <ele>580</ele>
        <time>2022-05-02T21:57:47Z</time>
      </trkpt>
      <trkpt lat="43.02486" lon="2.40457">
        <ele>578</ele>
        <time>2022-05-02T21:57:52Z</time>
      </trkpt>
      <trkpt lat="43.02484" lon="2.40514">
        <ele>573</ele>
        <time>2022-05-02T21:58:00Z</time>
      </trkpt>
      <trkpt lat="43.02492" lon="2.40561">
        <ele>572</ele>
        <time>2022-05-02T21:58:06Z</time>
      </trkpt>
      <trkpt lat="43.02506" lon="2.40604">
        <ele>572</ele>
        <time>2022-05-02T21:58:12Z</time>
      </trkpt>
      <trkpt lat="43.02534" lon="2.40678">
        <ele>573</ele>
        <time>2022-05-02T21:58:23Z</time>
      </trkpt>
      <trkpt lat="43.02549" lon="2.40703">
        <ele>575</ele>
        <time>2022-05-02T21:58:27Z</time>
      </trkpt>
      <trkpt lat="43.02554" lon="2.40719">
        <ele>575</ele>
        <time>2022-05-02T21:58:29Z</time>
      </trkpt>
      <trkpt lat="43.02559" lon="2.40761">
        <ele>569</ele>
        <time>2022-05-02T21:58:35Z</time>
      </trkpt>
      <trkpt lat="43.02583" lon="2.40855">
        <ele>560</ele>
        <time>2022-05-02T21:58:48Z</time>
      </trkpt>
      <trkpt lat="43.02596" lon="2.40864">
        <ele>556</ele>
        <time>2022-05-02T21:58:50Z</time>
      </trkpt>
      <trkpt lat="43.02603" lon="2.40863">
        <ele>554</ele>
        <time>2022-05-02T21:58:52Z</time>
      </trkpt>
      <trkpt lat="43.02611" lon="2.40857">
        <ele>555</ele>
        <time>2022-05-02T21:58:53Z</time>
      </trkpt>
      <trkpt lat="43.02638" lon="2.40814">
        <ele>563</ele>
        <time>2022-05-02T21:59:01Z</time>
      </trkpt>
      <trkpt lat="43.02652" lon="2.40798">
        <ele>567</ele>
        <time>2022-05-02T21:59:04Z</time>
      </trkpt>
      <trkpt lat="43.02664" lon="2.40793">
        <ele>568</ele>
        <time>2022-05-02T21:59:06Z</time>
      </trkpt>
      <trkpt lat="43.02675" lon="2.40798">
        <ele>565</ele>
        <time>2022-05-02T21:59:08Z</time>
      </trkpt>
      <trkpt lat="43.02702" lon="2.40833">
        <ele>551</ele>
        <time>2022-05-02T21:59:15Z</time>
      </trkpt>
      <trkpt lat="43.02716" lon="2.40838">
        <ele>547</ele>
        <time>2022-05-02T21:59:17Z</time>
      </trkpt>
      <trkpt lat="43.02734" lon="2.40838">
        <ele>546</ele>
        <time>2022-05-02T21:59:21Z</time>
      </trkpt>
      <trkpt lat="43.02767" lon="2.4083">
        <ele>548</ele>
        <time>2022-05-02T21:59:26Z</time>
      </trkpt>
      <trkpt lat="43.02784" lon="2.40819">
        <ele>552</ele>
        <time>2022-05-02T21:59:30Z</time>
      </trkpt>
      <trkpt lat="43.02801" lon="2.408">
        <ele>559</ele>
        <time>2022-05-02T21:59:34Z</time>
      </trkpt>
      <trkpt lat="43.02817" lon="2.40797">
        <ele>560</ele>
        <time>2022-05-02T21:59:37Z</time>
      </trkpt>
      <trkpt lat="43.0283" lon="2.40803">
        <ele>557</ele>
        <time>2022-05-02T21:59:39Z</time>
      </trkpt>
      <trkpt lat="43.02841" lon="2.40816">
        <ele>550</ele>
        <time>2022-05-02T21:59:42Z</time>
      </trkpt>
      <trkpt lat="43.02858" lon="2.40847">
        <ele>535</ele>
        <time>2022-05-02T21:59:47Z</time>
      </trkpt>
      <trkpt lat="43.02866" lon="2.40856">
        <ele>531</ele>
        <time>2022-05-02T21:59:49Z</time>
      </trkpt>
      <trkpt lat="43.02876" lon="2.40863">
        <ele>527</ele>
        <time>2022-05-02T21:59:51Z</time>
      </trkpt>
      <trkpt lat="43.02888" lon="2.40861">
        <ele>528</ele>
        <time>2022-05-02T21:59:53Z</time>
      </trkpt>
      <trkpt lat="43.02912" lon="2.40822">
        <ele>538</ele>
        <time>2022-05-02T21:59:59Z</time>
      </trkpt>
      <trkpt lat="43.02934" lon="2.40759">
        <ele>548</ele>
        <time>2022-05-02T22:00:08Z</time>
      </trkpt>
      <trkpt lat="43.02938" lon="2.4073">
        <ele>555</ele>
        <time>2022-05-02T22:00:12Z</time>
      </trkpt>
      <trkpt lat="43.02943" lon="2.40713">
        <ele>559</ele>
        <time>2022-05-02T22:00:15Z</time>
      </trkpt>
      <trkpt lat="43.02951" lon="2.40704">
        <ele>559</ele>
        <time>2022-05-02T22:00:16Z</time>
      </trkpt>
      <trkpt lat="43.02961" lon="2.40706">
        <ele>556</ele>
        <time>2022-05-02T22:00:18Z</time>
      </trkpt>
      <trkpt lat="43.02973" lon="2.4072">
        <ele>549</ele>
        <time>2022-05-02T22:00:21Z</time>
      </trkpt>
      <trkpt lat="43.03031" lon="2.40801">
        <ele>523</ele>
        <time>2022-05-02T22:00:36Z</time>
      </trkpt>
      <trkpt lat="43.03045" lon="2.40809">
        <ele>522</ele>
        <time>2022-05-02T22:00:38Z</time>
      </trkpt>
      <trkpt lat="43.03056" lon="2.40822">
        <ele>521</ele>
        <time>2022-05-02T22:00:41Z</time>
      </trkpt>
      <trkpt lat="43.03059" lon="2.40836">
        <ele>519</ele>
        <time>2022-05-02T22:00:43Z</time>
      </trkpt>
      <trkpt lat="43.03051" lon="2.40841">
        <ele>518</ele>
        <time>2022-05-02T22:00:45Z</time>
      </trkpt>
      <trkpt lat="43.03038" lon="2.4084">
        <ele>518</ele>
        <time>2022-05-02T22:00:47Z</time>
      </trkpt>
      <trkpt lat="43.03033" lon="2.40836">
        <ele>518</ele>
        <time>2022-05-02T22:00:48Z</time>
      </trkpt>
      <trkpt lat="43.03014" lon="2.40795">
        <ele>524</ele>
        <time>2022-05-02T22:00:54Z</time>
      </trkpt>
      <trkpt lat="43.03002" lon="2.40781">
        <ele>527</ele>
        <time>2022-05-02T22:00:57Z</time>
      </trkpt>
      <trkpt lat="43.0297" lon="2.40737">
        <ele>545</ele>
        <time>2022-05-02T22:01:05Z</time>
      </trkpt>
      <trkpt lat="43.0296" lon="2.40731">
        <ele>549</ele>
        <time>2022-05-02T22:01:07Z</time>
      </trkpt>
      <trkpt lat="43.02955" lon="2.40734">
        <ele>550</ele>
        <time>2022-05-02T22:01:08Z</time>
      </trkpt>
      <trkpt lat="43.0295" lon="2.40741">
        <ele>549</ele>
        <time>2022-05-02T22:01:09Z</time>
      </trkpt>
      <trkpt lat="43.02943" lon="2.40792">
        <ele>538</ele>
        <time>2022-05-02T22:01:16Z</time>
      </trkpt>
      <trkpt lat="43.02916" lon="2.40879">
        <ele>521</ele>
        <time>2022-05-02T22:01:28Z</time>
      </trkpt>
      <trkpt lat="43.02908" lon="2.409">
        <ele>515</ele>
        <time>2022-05-02T22:01:31Z</time>
      </trkpt>
      <trkpt lat="43.02898" lon="2.40919">
        <ele>508</ele>
        <time>2022-05-02T22:01:34Z</time>
      </trkpt>
      <trkpt lat="43.0289" lon="2.40925">
        <ele>506</ele>
        <time>2022-05-02T22:01:36Z</time>
      </trkpt>
      <trkpt lat="43.02883" lon="2.40925">
        <ele>505</ele>
        <time>2022-05-02T22:01:37Z</time>
      </trkpt>
      <trkpt lat="43.02874" lon="2.40922">
        <ele>505</ele>
        <time>2022-05-02T22:01:39Z</time>
      </trkpt>
      <trkpt lat="43.02855" lon="2.40906">
        <ele>509</ele>
        <time>2022-05-02T22:01:43Z</time>
      </trkpt>
      <trkpt lat="43.02828" lon="2.40874">
        <ele>524</ele>
        <time>2022-05-02T22:01:49Z</time>
      </trkpt>
      <trkpt lat="43.02821" lon="2.4087">
        <ele>526</ele>
        <time>2022-05-02T22:01:51Z</time>
      </trkpt>
      <trkpt lat="43.02815" lon="2.4087">
        <ele>526</ele>
        <time>2022-05-02T22:01:52Z</time>
      </trkpt>
      <trkpt lat="43.02805" lon="2.40881">
        <ele>521</ele>
        <time>2022-05-02T22:01:54Z</time>
      </trkpt>
      <trkpt lat="43.02793" lon="2.40889">
        <ele>518</ele>
        <time>2022-05-02T22:01:56Z</time>
      </trkpt>
      <trkpt lat="43.02744" lon="2.40907">
        <ele>512</ele>
        <time>2022-05-02T22:02:05Z</time>
      </trkpt>
      <trkpt lat="43.0271" lon="2.40931">
        <ele>509</ele>
        <time>2022-05-02T22:02:12Z</time>
      </trkpt>
      <trkpt lat="43.02698" lon="2.40933">
        <ele>510</ele>
        <time>2022-05-02T22:02:14Z</time>
      </trkpt>
      <trkpt lat="43.0268" lon="2.40928">
        <ele>514</ele>
        <time>2022-05-02T22:02:18Z</time>
      </trkpt>
      <trkpt lat="43.02669" lon="2.40928">
        <ele>516</ele>
        <time>2022-05-02T22:02:20Z</time>
      </trkpt>
      <trkpt lat="43.0265" lon="2.40935">
        <ele>519</ele>
        <time>2022-05-02T22:02:23Z</time>
      </trkpt>
      <trkpt lat="43.02639" lon="2.40944">
        <ele>520</ele>
        <time>2022-05-02T22:02:25Z</time>
      </trkpt>
      <trkpt lat="43.02627" lon="2.40958">
        <ele>519</ele>
        <time>2022-05-02T22:02:28Z</time>
      </trkpt>
      <trkpt lat="43.02616" lon="2.40981">
        <ele>515</ele>
        <time>2022-05-02T22:02:32Z</time>
      </trkpt>
      <trkpt lat="43.02607" lon="2.41007">
        <ele>512</ele>
        <time>2022-05-02T22:02:35Z</time>
      </trkpt>
      <trkpt lat="43.02602" lon="2.41046">
        <ele>510</ele>
        <time>2022-05-02T22:02:41Z</time>
      </trkpt>
      <trkpt lat="43.02601" lon="2.41057">
        <ele>510</ele>
        <time>2022-05-02T22:02:42Z</time>
      </trkpt>
      <trkpt lat="43.02608" lon="2.4107">
        <ele>508</ele>
        <time>2022-05-02T22:02:44Z</time>
      </trkpt>
      <trkpt lat="43.02629" lon="2.41078">
        <ele>504</ele>
        <time>2022-05-02T22:02:48Z</time>
      </trkpt>
      <trkpt lat="43.02642" lon="2.41076">
        <ele>502</ele>
        <time>2022-05-02T22:02:50Z</time>
      </trkpt>
      <trkpt lat="43.02662" lon="2.41067">
        <ele>499</ele>
        <time>2022-05-02T22:02:54Z</time>
      </trkpt>
      <trkpt lat="43.02702" lon="2.41029">
        <ele>494</ele>
        <time>2022-05-02T22:03:03Z</time>
      </trkpt>
      <trkpt lat="43.02735" lon="2.41015">
        <ele>490</ele>
        <time>2022-05-02T22:03:09Z</time>
      </trkpt>
      <trkpt lat="43.02754" lon="2.41009">
        <ele>487</ele>
        <time>2022-05-02T22:03:12Z</time>
      </trkpt>
      <trkpt lat="43.02771" lon="2.41008">
        <ele>485</ele>
        <time>2022-05-02T22:03:15Z</time>
      </trkpt>
      <trkpt lat="43.02784" lon="2.4101">
        <ele>484</ele>
        <time>2022-05-02T22:03:18Z</time>
      </trkpt>
      <trkpt lat="43.02795" lon="2.41016">
        <ele>484</ele>
        <time>2022-05-02T22:03:20Z</time>
      </trkpt>
      <trkpt lat="43.02806" lon="2.41024">
        <ele>483</ele>
        <time>2022-05-02T22:03:22Z</time>
      </trkpt>
      <trkpt lat="43.02849" lon="2.41075">
        <ele>479</ele>
        <time>2022-05-02T22:03:32Z</time>
      </trkpt>
      <trkpt lat="43.02883" lon="2.41123">
        <ele>476</ele>
        <time>2022-05-02T22:03:41Z</time>
      </trkpt>
      <trkpt lat="43.0291" lon="2.41169">
        <ele>466</ele>
        <time>2022-05-02T22:03:49Z</time>
      </trkpt>
      <trkpt lat="43.02927" lon="2.41224">
        <ele>467</ele>
        <time>2022-05-02T22:03:56Z</time>
      </trkpt>
      <trkpt lat="43.02945" lon="2.41293">
        <ele>467</ele>
        <time>2022-05-02T22:04:06Z</time>
      </trkpt>
      <trkpt lat="43.02958" lon="2.41335">
        <ele>464</ele>
        <time>2022-05-02T22:04:12Z</time>
      </trkpt>
      <trkpt lat="43.02986" lon="2.41406">
        <ele>454</ele>
        <time>2022-05-02T22:04:22Z</time>
      </trkpt>
      <trkpt lat="43.03023" lon="2.41536">
        <ele>439</ele>
        <time>2022-05-02T22:04:40Z</time>
      </trkpt>
      <trkpt lat="43.03031" lon="2.41558">
        <ele>435</ele>
        <time>2022-05-02T22:04:44Z</time>
      </trkpt>
      <trkpt lat="43.03049" lon="2.41559">
        <ele>433</ele>
        <time>2022-05-02T22:04:47Z</time>
      </trkpt>
      <trkpt lat="43.03075" lon="2.4156">
        <ele>431</ele>
        <time>2022-05-02T22:04:51Z</time>
      </trkpt>
      <trkpt lat="43.03089" lon="2.41552">
        <ele>431</ele>
        <time>2022-05-02T22:04:54Z</time>
      </trkpt>
      <trkpt lat="43.03108" lon="2.41536">
        <ele>433</ele>
        <time>2022-05-02T22:04:58Z</time>
      </trkpt>
      <trkpt lat="43.03216" lon="2.41487">
        <ele>438</ele>
        <time>2022-05-02T22:05:18Z</time>
      </trkpt>
      <trkpt lat="43.03321" lon="2.41462">
        <ele>439</ele>
        <time>2022-05-02T22:05:37Z</time>
      </trkpt>
      <trkpt lat="43.03341" lon="2.41459">
        <ele>438</ele>
        <time>2022-05-02T22:05:41Z</time>
      </trkpt>
      <trkpt lat="43.03358" lon="2.41461">
        <ele>437</ele>
        <time>2022-05-02T22:05:44Z</time>
      </trkpt>
      <trkpt lat="43.03371" lon="2.41465">
        <ele>436</ele>
        <time>2022-05-02T22:05:46Z</time>
      </trkpt>
      <trkpt lat="43.0343" lon="2.41497">
        <ele>423</ele>
        <time>2022-05-02T22:05:58Z</time>
      </trkpt>
      <trkpt lat="43.0344" lon="2.415">
        <ele>422</ele>
        <time>2022-05-02T22:05:59Z</time>
      </trkpt>
      <trkpt lat="43.03492" lon="2.41502">
        <ele>422</ele>
        <time>2022-05-02T22:06:09Z</time>
      </trkpt>
      <trkpt lat="43.0351" lon="2.41507">
        <ele>422</ele>
        <time>2022-05-02T22:06:12Z</time>
      </trkpt>
      <trkpt lat="43.03552" lon="2.41523">
        <ele>422</ele>
        <time>2022-05-02T22:06:20Z</time>
      </trkpt>
      <trkpt lat="43.03564" lon="2.41529">
        <ele>421</ele>
        <time>2022-05-02T22:06:22Z</time>
      </trkpt>
      <trkpt lat="43.0357" lon="2.41534">
        <ele>420</ele>
        <time>2022-05-02T22:06:23Z</time>
      </trkpt>
      <trkpt lat="43.03589" lon="2.41561">
        <ele>416</ele>
        <time>2022-05-02T22:06:28Z</time>
      </trkpt>
      <trkpt lat="43.03595" lon="2.41567">
        <ele>415</ele>
        <time>2022-05-02T22:06:29Z</time>
      </trkpt>
      <trkpt lat="43.03607" lon="2.41569">
        <ele>414</ele>
        <time>2022-05-02T22:06:32Z</time>
      </trkpt>
      <trkpt lat="43.03641" lon="2.41566">
        <ele>414</ele>
        <time>2022-05-02T22:06:38Z</time>
      </trkpt>
      <trkpt lat="43.03669" lon="2.41567">
        <ele>414</ele>
        <time>2022-05-02T22:06:43Z</time>
      </trkpt>
      <trkpt lat="43.03685" lon="2.41574">
        <ele>416</ele>
        <time>2022-05-02T22:06:46Z</time>
      </trkpt>
      <trkpt lat="43.03702" lon="2.41588">
        <ele>417</ele>
        <time>2022-05-02T22:06:49Z</time>
      </trkpt>
      <trkpt lat="43.03713" lon="2.41602">
        <ele>418</ele>
        <time>2022-05-02T22:06:52Z</time>
      </trkpt>
      <trkpt lat="43.03723" lon="2.41641">
        <ele>415</ele>
        <time>2022-05-02T22:06:57Z</time>
      </trkpt>
      <trkpt lat="43.03725" lon="2.41659">
        <ele>414</ele>
        <time>2022-05-02T22:07:00Z</time>
      </trkpt>
      <trkpt lat="43.03725" lon="2.41669">
        <ele>412</ele>
        <time>2022-05-02T22:07:01Z</time>
      </trkpt>
      <trkpt lat="43.03724" lon="2.41683">
        <ele>412</ele>
        <time>2022-05-02T22:07:03Z</time>
      </trkpt>
      <trkpt lat="43.03713" lon="2.41736">
        <ele>409</ele>
        <time>2022-05-02T22:07:10Z</time>
      </trkpt>
      <trkpt lat="43.037" lon="2.41775">
        <ele>408</ele>
        <time>2022-05-02T22:07:15Z</time>
      </trkpt>
      <trkpt lat="43.03698" lon="2.41785">
        <ele>407</ele>
        <time>2022-05-02T22:07:17Z</time>
      </trkpt>
      <trkpt lat="43.03699" lon="2.41798">
        <ele>407</ele>
        <time>2022-05-02T22:07:18Z</time>
      </trkpt>
      <trkpt lat="43.03711" lon="2.41859">
        <ele>403</ele>
        <time>2022-05-02T22:07:27Z</time>
      </trkpt>
      <trkpt lat="43.03715" lon="2.41872">
        <ele>402</ele>
        <time>2022-05-02T22:07:29Z</time>
      </trkpt>
      <trkpt lat="43.0372" lon="2.41879">
        <ele>401</ele>
        <time>2022-05-02T22:07:30Z</time>
      </trkpt>
      <trkpt lat="43.03726" lon="2.41884">
        <ele>400</ele>
        <time>2022-05-02T22:07:31Z</time>
      </trkpt>
      <trkpt lat="43.03732" lon="2.41888">
        <ele>399</ele>
        <time>2022-05-02T22:07:32Z</time>
      </trkpt>
      <trkpt lat="43.038" lon="2.41883">
        <ele>394</ele>
        <time>2022-05-02T22:07:44Z</time>
      </trkpt>
      <trkpt lat="43.03807" lon="2.41879">
        <ele>394</ele>
        <time>2022-05-02T22:07:46Z</time>
      </trkpt>
      <trkpt lat="43.03814" lon="2.41866">
        <ele>394</ele>
        <time>2022-05-02T22:07:48Z</time>
      </trkpt>
      <trkpt lat="43.03817" lon="2.41857">
        <ele>394</ele>
        <time>2022-05-02T22:07:49Z</time>
      </trkpt>
      <trkpt lat="43.03819" lon="2.41827">
        <ele>395</ele>
        <time>2022-05-02T22:07:53Z</time>
      </trkpt>
      <trkpt lat="43.03825" lon="2.41804">
        <ele>398</ele>
        <time>2022-05-02T22:07:56Z</time>
      </trkpt>
      <trkpt lat="43.03833" lon="2.41793">
        <ele>399</ele>
        <time>2022-05-02T22:07:58Z</time>
      </trkpt>
      <trkpt lat="43.0384" lon="2.41786">
        <ele>400</ele>
        <time>2022-05-02T22:08:00Z</time>
      </trkpt>
      <trkpt lat="43.03851" lon="2.41781">
        <ele>402</ele>
        <time>2022-05-02T22:08:02Z</time>
      </trkpt>
      <trkpt lat="43.03862" lon="2.41781">
        <ele>402</ele>
        <time>2022-05-02T22:08:04Z</time>
      </trkpt>
      <trkpt lat="43.03875" lon="2.41792">
        <ele>401</ele>
        <time>2022-05-02T22:08:07Z</time>
      </trkpt>
      <trkpt lat="43.03895" lon="2.41809">
        <ele>401</ele>
        <time>2022-05-02T22:08:11Z</time>
      </trkpt>
      <trkpt lat="43.03918" lon="2.41834">
        <ele>400</ele>
        <time>2022-05-02T22:08:16Z</time>
      </trkpt>
      <trkpt lat="43.03928" lon="2.41857">
        <ele>402</ele>
        <time>2022-05-02T22:08:19Z</time>
      </trkpt>
      <trkpt lat="43.03932" lon="2.41876">
        <ele>402</ele>
        <time>2022-05-02T22:08:22Z</time>
      </trkpt>
      <trkpt lat="43.03933" lon="2.4189">
        <ele>401</ele>
        <time>2022-05-02T22:08:24Z</time>
      </trkpt>
      <trkpt lat="43.0392" lon="2.4196">
        <ele>394</ele>
        <time>2022-05-02T22:08:33Z</time>
      </trkpt>
      <trkpt lat="43.03918" lon="2.41973">
        <ele>393</ele>
        <time>2022-05-02T22:08:35Z</time>
      </trkpt>
      <trkpt lat="43.03918" lon="2.41983">
        <ele>393</ele>
        <time>2022-05-02T22:08:36Z</time>
      </trkpt>
      <trkpt lat="43.03923" lon="2.41996">
        <ele>393</ele>
        <time>2022-05-02T22:08:38Z</time>
      </trkpt>
      <trkpt lat="43.0393" lon="2.42005">
        <ele>394</ele>
        <time>2022-05-02T22:08:40Z</time>
      </trkpt>
      <trkpt lat="43.03947" lon="2.42017">
        <ele>395</ele>
        <time>2022-05-02T22:08:43Z</time>
      </trkpt>
      <trkpt lat="43.0398" lon="2.42034">
        <ele>395</ele>
        <time>2022-05-02T22:08:50Z</time>
      </trkpt>
      <trkpt lat="43.03998" lon="2.42038">
        <ele>393</ele>
        <time>2022-05-02T22:08:53Z</time>
      </trkpt>
      <trkpt lat="43.04075" lon="2.42044">
        <ele>388</ele>
        <time>2022-05-02T22:09:06Z</time>
      </trkpt>
      <trkpt lat="43.04089" lon="2.42041">
        <ele>388</ele>
        <time>2022-05-02T22:09:09Z</time>
      </trkpt>
      <trkpt lat="43.04111" lon="2.42027">
        <ele>387</ele>
        <time>2022-05-02T22:09:13Z</time>
      </trkpt>
      <trkpt lat="43.0418" lon="2.41997">
        <ele>382</ele>
        <time>2022-05-02T22:09:26Z</time>
      </trkpt>
      <trkpt lat="43.04215" lon="2.41989">
        <ele>383</ele>
        <time>2022-05-02T22:09:33Z</time>
      </trkpt>
      <trkpt lat="43.04225" lon="2.4199">
        <ele>383</ele>
        <time>2022-05-02T22:09:34Z</time>
      </trkpt>
      <trkpt lat="43.04241" lon="2.41995">
        <ele>381</ele>
        <time>2022-05-02T22:09:37Z</time>
      </trkpt>
      <trkpt lat="43.04265" lon="2.42008">
        <ele>381</ele>
        <time>2022-05-02T22:09:42Z</time>
      </trkpt>
      <trkpt lat="43.04285" lon="2.42012">
        <ele>381</ele>
        <time>2022-05-02T22:09:45Z</time>
      </trkpt>
      <trkpt lat="43.04317" lon="2.42014">
        <ele>382</ele>
        <time>2022-05-02T22:09:51Z</time>
      </trkpt>
      <trkpt lat="43.04347" lon="2.42008">
        <ele>382</ele>
        <time>2022-05-02T22:09:57Z</time>
      </trkpt>
      <trkpt lat="43.04386" lon="2.42011">
        <ele>381</ele>
        <time>2022-05-02T22:10:03Z</time>
      </trkpt>
      <trkpt lat="43.04406" lon="2.42019">
        <ele>380</ele>
        <time>2022-05-02T22:10:07Z</time>
      </trkpt>
      <trkpt lat="43.04448" lon="2.42039">
        <ele>381</ele>
        <time>2022-05-02T22:10:15Z</time>
      </trkpt>
      <trkpt lat="43.04461" lon="2.42047">
        <ele>381</ele>
        <time>2022-05-02T22:10:18Z</time>
      </trkpt>
      <trkpt lat="43.04471" lon="2.42056">
        <ele>380</ele>
        <time>2022-05-02T22:10:20Z</time>
      </trkpt>
      <trkpt lat="43.04476" lon="2.42066">
        <ele>378</ele>
        <time>2022-05-02T22:10:21Z</time>
      </trkpt>
      <trkpt lat="43.04481" lon="2.42079">
        <ele>376</ele>
        <time>2022-05-02T22:10:23Z</time>
      </trkpt>
      <trkpt lat="43.04484" lon="2.42096">
        <ele>375</ele>
        <time>2022-05-02T22:10:26Z</time>
      </trkpt>
      <trkpt lat="43.04485" lon="2.421">
        <ele>375</ele>
        <time>2022-05-02T22:10:26Z</time>
      </trkpt>
      <trkpt lat="43.04493" lon="2.42115">
        <ele>375</ele>
        <time>2022-05-02T22:10:28Z</time>
      </trkpt>
      <trkpt lat="43.04502" lon="2.42125">
        <ele>374</ele>
        <time>2022-05-02T22:10:31Z</time>
      </trkpt>
      <trkpt lat="43.04514" lon="2.42135">
        <ele>373</ele>
        <time>2022-05-02T22:10:33Z</time>
      </trkpt>
      <trkpt lat="43.04531" lon="2.42137">
        <ele>373</ele>
        <time>2022-05-02T22:10:36Z</time>
      </trkpt>
      <trkpt lat="43.04537" lon="2.42135">
        <ele>373</ele>
        <time>2022-05-02T22:10:37Z</time>
      </trkpt>
      <trkpt lat="43.04546" lon="2.42126">
        <ele>373</ele>
        <time>2022-05-02T22:10:39Z</time>
      </trkpt>
      <trkpt lat="43.04574" lon="2.42089">
        <ele>370</ele>
        <time>2022-05-02T22:10:46Z</time>
      </trkpt>
      <trkpt lat="43.04583" lon="2.42084">
        <ele>369</ele>
        <time>2022-05-02T22:10:48Z</time>
      </trkpt>
      <trkpt lat="43.04593" lon="2.42085">
        <ele>369</ele>
        <time>2022-05-02T22:10:50Z</time>
      </trkpt>
      <trkpt lat="43.04598" lon="2.42085">
        <ele>370</ele>
        <time>2022-05-02T22:10:50Z</time>
      </trkpt>
      <trkpt lat="43.04611" lon="2.42085">
        <ele>370</ele>
        <time>2022-05-02T22:10:53Z</time>
      </trkpt>
      <trkpt lat="43.04621" lon="2.42088">
        <ele>371</ele>
        <time>2022-05-02T22:10:55Z</time>
      </trkpt>
      <trkpt lat="43.04629" lon="2.42084">
        <ele>371</ele>
        <time>2022-05-02T22:10:56Z</time>
      </trkpt>
      <trkpt lat="43.04634" lon="2.42078">
        <ele>371</ele>
        <time>2022-05-02T22:10:57Z</time>
      </trkpt>
      <trkpt lat="43.0466" lon="2.42036">
        <ele>372</ele>
        <time>2022-05-02T22:11:04Z</time>
      </trkpt>
      <trkpt lat="43.0467" lon="2.42021">
        <ele>372</ele>
        <time>2022-05-02T22:11:07Z</time>
      </trkpt>
      <trkpt lat="43.04699" lon="2.41992">
        <ele>378</ele>
        <time>2022-05-02T22:11:13Z</time>
      </trkpt>
      <trkpt lat="43.04712" lon="2.41982">
        <ele>380</ele>
        <time>2022-05-02T22:11:16Z</time>
      </trkpt>
      <trkpt lat="43.04708" lon="2.41993">
        <ele>380</ele>
        <time>2022-05-02T22:11:18Z</time>
      </trkpt>
      <trkpt lat="43.04685" lon="2.42017">
        <ele>376</ele>
        <time>2022-05-02T22:11:23Z</time>
      </trkpt>
      <trkpt lat="43.04679" lon="2.42029">
        <ele>375</ele>
        <time>2022-05-02T22:11:25Z</time>
      </trkpt>
      <trkpt lat="43.04675" lon="2.42057">
        <ele>374</ele>
        <time>2022-05-02T22:11:28Z</time>
      </trkpt>
      <trkpt lat="43.04675" lon="2.4208">
        <ele>374</ele>
        <time>2022-05-02T22:11:31Z</time>
      </trkpt>
      <trkpt lat="43.04677" lon="2.42093">
        <ele>375</ele>
        <time>2022-05-02T22:11:33Z</time>
      </trkpt>
      <trkpt lat="43.04681" lon="2.42104">
        <ele>376</ele>
        <time>2022-05-02T22:11:35Z</time>
      </trkpt>
      <trkpt lat="43.04687" lon="2.42115">
        <ele>378</ele>
        <time>2022-05-02T22:11:37Z</time>
      </trkpt>
      <trkpt lat="43.04695" lon="2.42125">
        <ele>379</ele>
        <time>2022-05-02T22:11:39Z</time>
      </trkpt>
      <trkpt lat="43.04805" lon="2.42231">
        <ele>393</ele>
        <time>2022-05-02T22:12:02Z</time>
      </trkpt>
      <trkpt lat="43.04816" lon="2.42245">
        <ele>394</ele>
        <time>2022-05-02T22:12:05Z</time>
      </trkpt>
      <trkpt lat="43.0484" lon="2.42277">
        <ele>395</ele>
        <time>2022-05-02T22:12:11Z</time>
      </trkpt>
      <trkpt lat="43.04846" lon="2.42291">
        <ele>395</ele>
        <time>2022-05-02T22:12:13Z</time>
      </trkpt>
      <trkpt lat="43.0486" lon="2.42333">
        <ele>391</ele>
        <time>2022-05-02T22:12:19Z</time>
      </trkpt>
      <trkpt lat="43.04865" lon="2.42341">
        <ele>391</ele>
        <time>2022-05-02T22:12:21Z</time>
      </trkpt>
      <trkpt lat="43.04886" lon="2.42359">
        <ele>395</ele>
        <time>2022-05-02T22:12:25Z</time>
      </trkpt>
      <trkpt lat="43.04893" lon="2.42367">
        <ele>396</ele>
        <time>2022-05-02T22:12:27Z</time>
      </trkpt>
      <trkpt lat="43.04899" lon="2.42378">
        <ele>395</ele>
        <time>2022-05-02T22:12:28Z</time>
      </trkpt>
      <trkpt lat="43.04909" lon="2.42407">
        <ele>392</ele>
        <time>2022-05-02T22:12:33Z</time>
      </trkpt>
      <trkpt lat="43.04918" lon="2.42422">
        <ele>392</ele>
        <time>2022-05-02T22:12:35Z</time>
      </trkpt>
      <trkpt lat="43.04945" lon="2.42455">
        <ele>397</ele>
        <time>2022-05-02T22:12:42Z</time>
      </trkpt>
      <trkpt lat="43.04968" lon="2.42493">
        <ele>396</ele>
        <time>2022-05-02T22:12:48Z</time>
      </trkpt>
      <trkpt lat="43.04978" lon="2.42502">
        <ele>397</ele>
        <time>2022-05-02T22:12:50Z</time>
      </trkpt>
      <trkpt lat="43.04988" lon="2.42505">
        <ele>399</ele>
        <time>2022-05-02T22:12:52Z</time>
      </trkpt>
      <trkpt lat="43.05" lon="2.42506">
        <ele>401</ele>
        <time>2022-05-02T22:12:54Z</time>
      </trkpt>
      <trkpt lat="43.05014" lon="2.42504">
        <ele>404</ele>
        <time>2022-05-02T22:12:57Z</time>
      </trkpt>
      <trkpt lat="43.05069" lon="2.4248">
        <ele>418</ele>
        <time>2022-05-02T22:13:07Z</time>
      </trkpt>
      <trkpt lat="43.05077" lon="2.42482">
        <ele>419</ele>
        <time>2022-05-02T22:13:08Z</time>
      </trkpt>
      <trkpt lat="43.05082" lon="2.42487">
        <ele>418</ele>
        <time>2022-05-02T22:13:09Z</time>
      </trkpt>
      <trkpt lat="43.05085" lon="2.42498">
        <ele>415</ele>
        <time>2022-05-02T22:13:11Z</time>
      </trkpt>
      <trkpt lat="43.05083" lon="2.4251">
        <ele>414</ele>
        <time>2022-05-02T22:13:12Z</time>
      </trkpt>
      <trkpt lat="43.05064" lon="2.42537">
        <ele>411</ele>
        <time>2022-05-02T22:13:17Z</time>
      </trkpt>
      <trkpt lat="43.0506" lon="2.42545">
        <ele>410</ele>
        <time>2022-05-02T22:13:19Z</time>
      </trkpt>
      <trkpt lat="43.05048" lon="2.42595">
        <ele>406</ele>
        <time>2022-05-02T22:13:25Z</time>
      </trkpt>
      <trkpt lat="43.05048" lon="2.42608">
        <ele>406</ele>
        <time>2022-05-02T22:13:27Z</time>
      </trkpt>
      <trkpt lat="43.05052" lon="2.4262">
        <ele>408</ele>
        <time>2022-05-02T22:13:29Z</time>
      </trkpt>
      <trkpt lat="43.05066" lon="2.42639">
        <ele>413</ele>
        <time>2022-05-02T22:13:32Z</time>
      </trkpt>
      <trkpt lat="43.0507" lon="2.42651">
        <ele>415</ele>
        <time>2022-05-02T22:13:34Z</time>
      </trkpt>
      <trkpt lat="43.05076" lon="2.42689">
        <ele>420</ele>
        <time>2022-05-02T22:13:39Z</time>
      </trkpt>
      <trkpt lat="43.05076" lon="2.42702">
        <ele>421</ele>
        <time>2022-05-02T22:13:41Z</time>
      </trkpt>
      <trkpt lat="43.05074" lon="2.42712">
        <ele>422</ele>
        <time>2022-05-02T22:13:42Z</time>
      </trkpt>
      <trkpt lat="43.05053" lon="2.42742">
        <ele>416</ele>
        <time>2022-05-02T22:13:48Z</time>
      </trkpt>
      <trkpt lat="43.05047" lon="2.42759">
        <ele>415</ele>
        <time>2022-05-02T22:13:50Z</time>
      </trkpt>
      <trkpt lat="43.05043" lon="2.42777">
        <ele>414</ele>
        <time>2022-05-02T22:13:52Z</time>
      </trkpt>
      <trkpt lat="43.05043" lon="2.42794">
        <ele>414</ele>
        <time>2022-05-02T22:13:55Z</time>
      </trkpt>
      <trkpt lat="43.05051" lon="2.42842">
        <ele>419</ele>
        <time>2022-05-02T22:14:01Z</time>
      </trkpt>
      <trkpt lat="43.05058" lon="2.42868">
        <ele>419</ele>
        <time>2022-05-02T22:14:05Z</time>
      </trkpt>
      <trkpt lat="43.05068" lon="2.42891">
        <ele>420</ele>
        <time>2022-05-02T22:14:08Z</time>
      </trkpt>
      <trkpt lat="43.05093" lon="2.42935">
        <ele>425</ele>
        <time>2022-05-02T22:14:15Z</time>
      </trkpt>
      <trkpt lat="43.05125" lon="2.42987">
        <ele>433</ele>
        <time>2022-05-02T22:14:24Z</time>
      </trkpt>
      <trkpt lat="43.0513" lon="2.42997">
        <ele>434</ele>
        <time>2022-05-02T22:14:26Z</time>
      </trkpt>
      <trkpt lat="43.05134" lon="2.43033">
        <ele>428</ele>
        <time>2022-05-02T22:14:31Z</time>
      </trkpt>
      <trkpt lat="43.05145" lon="2.43046">
        <ele>429</ele>
        <time>2022-05-02T22:14:33Z</time>
      </trkpt>
      <trkpt lat="43.05187" lon="2.43062">
        <ele>435</ele>
        <time>2022-05-02T22:14:41Z</time>
      </trkpt>
      <trkpt lat="43.05216" lon="2.43096">
        <ele>432</ele>
        <time>2022-05-02T22:14:48Z</time>
      </trkpt>
      <trkpt lat="43.05227" lon="2.43103">
        <ele>433</ele>
        <time>2022-05-02T22:14:50Z</time>
      </trkpt>
      <trkpt lat="43.05255" lon="2.43101">
        <ele>438</ele>
        <time>2022-05-02T22:14:55Z</time>
      </trkpt>
      <trkpt lat="43.05265" lon="2.43096">
        <ele>438</ele>
        <time>2022-05-02T22:14:57Z</time>
      </trkpt>
      <trkpt lat="43.05274" lon="2.43083">
        <ele>440</ele>
        <time>2022-05-02T22:14:59Z</time>
      </trkpt>
      <trkpt lat="43.05338" lon="2.4292">
        <ele>462</ele>
        <time>2022-05-02T22:15:23Z</time>
      </trkpt>
      <trkpt lat="43.05345" lon="2.4291">
        <ele>464</ele>
        <time>2022-05-02T22:15:25Z</time>
      </trkpt>
      <trkpt lat="43.05356" lon="2.42907">
        <ele>466</ele>
        <time>2022-05-02T22:15:27Z</time>
      </trkpt>
      <trkpt lat="43.05364" lon="2.42909">
        <ele>466</ele>
        <time>2022-05-02T22:15:28Z</time>
      </trkpt>
      <trkpt lat="43.05376" lon="2.42925">
        <ele>464</ele>
        <time>2022-05-02T22:15:31Z</time>
      </trkpt>
      <trkpt lat="43.05388" lon="2.42967">
        <ele>460</ele>
        <time>2022-05-02T22:15:37Z</time>
      </trkpt>
      <trkpt lat="43.05393" lon="2.43022">
        <ele>457</ele>
        <time>2022-05-02T22:15:44Z</time>
      </trkpt>
      <trkpt lat="43.05398" lon="2.43034">
        <ele>458</ele>
        <time>2022-05-02T22:15:46Z</time>
      </trkpt>
      <trkpt lat="43.0541" lon="2.43054">
        <ele>461</ele>
        <time>2022-05-02T22:15:50Z</time>
      </trkpt>
      <trkpt lat="43.05413" lon="2.43064">
        <ele>462</ele>
        <time>2022-05-02T22:15:51Z</time>
      </trkpt>
      <trkpt lat="43.05412" lon="2.43077">
        <ele>462</ele>
        <time>2022-05-02T22:15:53Z</time>
      </trkpt>
      <trkpt lat="43.05403" lon="2.43102">
        <ele>458</ele>
        <time>2022-05-02T22:15:56Z</time>
      </trkpt>
      <trkpt lat="43.05402" lon="2.43118">
        <ele>457</ele>
        <time>2022-05-02T22:15:58Z</time>
      </trkpt>
      <trkpt lat="43.05404" lon="2.43133">
        <ele>457</ele>
        <time>2022-05-02T22:16:00Z</time>
      </trkpt>
      <trkpt lat="43.05414" lon="2.43165">
        <ele>459</ele>
        <time>2022-05-02T22:16:05Z</time>
      </trkpt>
      <trkpt lat="43.05425" lon="2.43189">
        <ele>459</ele>
        <time>2022-05-02T22:16:09Z</time>
      </trkpt>
      <trkpt lat="43.05451" lon="2.4323">
        <ele>460</ele>
        <time>2022-05-02T22:16:16Z</time>
      </trkpt>
      <trkpt lat="43.05466" lon="2.43259">
        <ele>459</ele>
        <time>2022-05-02T22:16:20Z</time>
      </trkpt>
      <trkpt lat="43.05472" lon="2.43267">
        <ele>459</ele>
        <time>2022-05-02T22:16:22Z</time>
      </trkpt>
      <trkpt lat="43.05479" lon="2.43271">
        <ele>461</ele>
        <time>2022-05-02T22:16:23Z</time>
      </trkpt>
      <trkpt lat="43.05501" lon="2.43273">
        <ele>468</ele>
        <time>2022-05-02T22:16:27Z</time>
      </trkpt>
      <trkpt lat="43.05529" lon="2.43285">
        <ele>468</ele>
        <time>2022-05-02T22:16:32Z</time>
      </trkpt>
      <trkpt lat="43.05537" lon="2.43285">
        <ele>469</ele>
        <time>2022-05-02T22:16:34Z</time>
      </trkpt>
      <trkpt lat="43.05545" lon="2.43279">
        <ele>471</ele>
        <time>2022-05-02T22:16:35Z</time>
      </trkpt>
      <trkpt lat="43.05568" lon="2.43244">
        <ele>474</ele>
        <time>2022-05-02T22:16:41Z</time>
      </trkpt>
      <trkpt lat="43.05591" lon="2.43193">
        <ele>481</ele>
        <time>2022-05-02T22:16:49Z</time>
      </trkpt>
      <trkpt lat="43.05619" lon="2.43139">
        <ele>488</ele>
        <time>2022-05-02T22:16:58Z</time>
      </trkpt>
      <trkpt lat="43.05667" lon="2.4308">
        <ele>486</ele>
        <time>2022-05-02T22:17:09Z</time>
      </trkpt>
      <trkpt lat="43.0567" lon="2.43071">
        <ele>487</ele>
        <time>2022-05-02T22:17:11Z</time>
      </trkpt>
      <trkpt lat="43.0567" lon="2.43062">
        <ele>488</ele>
        <time>2022-05-02T22:17:12Z</time>
      </trkpt>
      <trkpt lat="43.05668" lon="2.43051">
        <ele>489</ele>
        <time>2022-05-02T22:17:13Z</time>
      </trkpt>
      <trkpt lat="43.05664" lon="2.43044">
        <ele>489</ele>
        <time>2022-05-02T22:17:14Z</time>
      </trkpt>
      <trkpt lat="43.05658" lon="2.4304">
        <ele>491</ele>
        <time>2022-05-02T22:17:16Z</time>
      </trkpt>
      <trkpt lat="43.05652" lon="2.4304">
        <ele>492</ele>
        <time>2022-05-02T22:17:17Z</time>
      </trkpt>
      <trkpt lat="43.05645" lon="2.43042">
        <ele>492</ele>
        <time>2022-05-02T22:17:18Z</time>
      </trkpt>
      <trkpt lat="43.05641" lon="2.43047">
        <ele>493</ele>
        <time>2022-05-02T22:17:19Z</time>
      </trkpt>
      <trkpt lat="43.05639" lon="2.43055">
        <ele>492</ele>
        <time>2022-05-02T22:17:20Z</time>
      </trkpt>
      <trkpt lat="43.05637" lon="2.43085">
        <ele>490</ele>
        <time>2022-05-02T22:17:24Z</time>
      </trkpt>
      <trkpt lat="43.05635" lon="2.43093">
        <ele>490</ele>
        <time>2022-05-02T22:17:25Z</time>
      </trkpt>
      <trkpt lat="43.05631" lon="2.43098">
        <ele>490</ele>
        <time>2022-05-02T22:17:26Z</time>
      </trkpt>
      <trkpt lat="43.05626" lon="2.431">
        <ele>491</ele>
        <time>2022-05-02T22:17:27Z</time>
      </trkpt>
      <trkpt lat="43.05605" lon="2.43101">
        <ele>493</ele>
        <time>2022-05-02T22:17:31Z</time>
      </trkpt>
      <trkpt lat="43.056" lon="2.43104">
        <ele>493</ele>
        <time>2022-05-02T22:17:32Z</time>
      </trkpt>
      <trkpt lat="43.05583" lon="2.43134">
        <ele>489</ele>
        <time>2022-05-02T22:17:37Z</time>
      </trkpt>
      <trkpt lat="43.05522" lon="2.43208">
        <ele>480</ele>
        <time>2022-05-02T22:17:51Z</time>
      </trkpt>
      <trkpt lat="43.05515" lon="2.43212">
        <ele>480</ele>
        <time>2022-05-02T22:17:52Z</time>
      </trkpt>
      <trkpt lat="43.05508" lon="2.43212">
        <ele>480</ele>
        <time>2022-05-02T22:17:54Z</time>
      </trkpt>
      <trkpt lat="43.05502" lon="2.43207">
        <ele>481</ele>
        <time>2022-05-02T22:17:55Z</time>
      </trkpt>
      <trkpt lat="43.05497" lon="2.43197">
        <ele>482</ele>
        <time>2022-05-02T22:17:56Z</time>
      </trkpt>
      <trkpt lat="43.05496" lon="2.43185">
        <ele>484</ele>
        <time>2022-05-02T22:17:58Z</time>
      </trkpt>
      <trkpt lat="43.05497" lon="2.43177">
        <ele>486</ele>
        <time>2022-05-02T22:17:59Z</time>
      </trkpt>
      <trkpt lat="43.055" lon="2.43171">
        <ele>488</ele>
        <time>2022-05-02T22:18:00Z</time>
      </trkpt>
      <trkpt lat="43.05506" lon="2.43166">
        <ele>489</ele>
        <time>2022-05-02T22:18:01Z</time>
      </trkpt>
      <trkpt lat="43.05526" lon="2.43154">
        <ele>489</ele>
        <time>2022-05-02T22:18:05Z</time>
      </trkpt>
      <trkpt lat="43.05537" lon="2.4314">
        <ele>490</ele>
        <time>2022-05-02T22:18:08Z</time>
      </trkpt>
      <trkpt lat="43.05543" lon="2.4313">
        <ele>491</ele>
        <time>2022-05-02T22:18:10Z</time>
      </trkpt>
      <trkpt lat="43.05562" lon="2.43078">
        <ele>497</ele>
        <time>2022-05-02T22:18:17Z</time>
      </trkpt>
      <trkpt lat="43.05586" lon="2.43032">
        <ele>503</ele>
        <time>2022-05-02T22:18:24Z</time>
      </trkpt>
      <trkpt lat="43.0559" lon="2.43022">
        <ele>503</ele>
        <time>2022-05-02T22:18:26Z</time>
      </trkpt>
      <trkpt lat="43.05591" lon="2.43011">
        <ele>504</ele>
        <time>2022-05-02T22:18:27Z</time>
      </trkpt>
      <trkpt lat="43.0559" lon="2.43">
        <ele>506</ele>
        <time>2022-05-02T22:18:29Z</time>
      </trkpt>
      <trkpt lat="43.05567" lon="2.42911">
        <ele>509</ele>
        <time>2022-05-02T22:18:41Z</time>
      </trkpt>
      <trkpt lat="43.05568" lon="2.42901">
        <ele>510</ele>
        <time>2022-05-02T22:18:42Z</time>
      </trkpt>
      <trkpt lat="43.0557" lon="2.42891">
        <ele>512</ele>
        <time>2022-05-02T22:18:44Z</time>
      </trkpt>
      <trkpt lat="43.05576" lon="2.4288">
        <ele>515</ele>
        <time>2022-05-02T22:18:46Z</time>
      </trkpt>
      <trkpt lat="43.05593" lon="2.42855">
        <ele>520</ele>
        <time>2022-05-02T22:18:50Z</time>
      </trkpt>
      <trkpt lat="43.05599" lon="2.4285">
        <ele>521</ele>
        <time>2022-05-02T22:18:51Z</time>
      </trkpt>
      <trkpt lat="43.05607" lon="2.4285">
        <ele>521</ele>
        <time>2022-05-02T22:18:53Z</time>
      </trkpt>
      <trkpt lat="43.05639" lon="2.42854">
        <ele>520</ele>
        <time>2022-05-02T22:18:58Z</time>
      </trkpt>
      <trkpt lat="43.05755" lon="2.42848">
        <ele>521</ele>
        <time>2022-05-02T22:19:19Z</time>
      </trkpt>
      <trkpt lat="43.05767" lon="2.42849">
        <ele>522</ele>
        <time>2022-05-02T22:19:21Z</time>
      </trkpt>
      <trkpt lat="43.05777" lon="2.42854">
        <ele>522</ele>
        <time>2022-05-02T22:19:23Z</time>
      </trkpt>
      <trkpt lat="43.05815" lon="2.42877">
        <ele>523</ele>
        <time>2022-05-02T22:19:30Z</time>
      </trkpt>
      <trkpt lat="43.05819" lon="2.42883">
        <ele>523</ele>
        <time>2022-05-02T22:19:31Z</time>
      </trkpt>
      <trkpt lat="43.05823" lon="2.42891">
        <ele>523</ele>
        <time>2022-05-02T22:19:33Z</time>
      </trkpt>
      <trkpt lat="43.05825" lon="2.42911">
        <ele>523</ele>
        <time>2022-05-02T22:19:35Z</time>
      </trkpt>
      <trkpt lat="43.05824" lon="2.42966">
        <ele>522</ele>
        <time>2022-05-02T22:19:43Z</time>
      </trkpt>
      <trkpt lat="43.05821" lon="2.43017">
        <ele>520</ele>
        <time>2022-05-02T22:19:49Z</time>
      </trkpt>
      <trkpt lat="43.05823" lon="2.43032">
        <ele>520</ele>
        <time>2022-05-02T22:19:51Z</time>
      </trkpt>
      <trkpt lat="43.05842" lon="2.43067">
        <ele>523</ele>
        <time>2022-05-02T22:19:57Z</time>
      </trkpt>
      <trkpt lat="43.05868" lon="2.43099">
        <ele>526</ele>
        <time>2022-05-02T22:20:03Z</time>
      </trkpt>
      <trkpt lat="43.05875" lon="2.43112">
        <ele>527</ele>
        <time>2022-05-02T22:20:05Z</time>
      </trkpt>
      <trkpt lat="43.05877" lon="2.43122">
        <ele>528</ele>
        <time>2022-05-02T22:20:06Z</time>
      </trkpt>
      <trkpt lat="43.05886" lon="2.43177">
        <ele>528</ele>
        <time>2022-05-02T22:20:14Z</time>
      </trkpt>
      <trkpt lat="43.05892" lon="2.43194">
        <ele>528</ele>
        <time>2022-05-02T22:20:16Z</time>
      </trkpt>
      <trkpt lat="43.05897" lon="2.43203">
        <ele>528</ele>
        <time>2022-05-02T22:20:18Z</time>
      </trkpt>
      <trkpt lat="43.05904" lon="2.43209">
        <ele>528</ele>
        <time>2022-05-02T22:20:19Z</time>
      </trkpt>
      <trkpt lat="43.05912" lon="2.43214">
        <ele>528</ele>
        <time>2022-05-02T22:20:21Z</time>
      </trkpt>
      <trkpt lat="43.05932" lon="2.4322">
        <ele>529</ele>
        <time>2022-05-02T22:20:24Z</time>
      </trkpt>
      <trkpt lat="43.05942" lon="2.43229">
        <ele>530</ele>
        <time>2022-05-02T22:20:27Z</time>
      </trkpt>
      <trkpt lat="43.05948" lon="2.43243">
        <ele>531</ele>
        <time>2022-05-02T22:20:29Z</time>
      </trkpt>
      <trkpt lat="43.05949" lon="2.43253">
        <ele>531</ele>
        <time>2022-05-02T22:20:30Z</time>
      </trkpt>
      <trkpt lat="43.05948" lon="2.43276">
        <ele>530</ele>
        <time>2022-05-02T22:20:33Z</time>
      </trkpt>
      <trkpt lat="43.0595" lon="2.43286">
        <ele>530</ele>
        <time>2022-05-02T22:20:34Z</time>
      </trkpt>
      <trkpt lat="43.05957" lon="2.43297">
        <ele>531</ele>
        <time>2022-05-02T22:20:36Z</time>
      </trkpt>
      <trkpt lat="43.05967" lon="2.43299">
        <ele>533</ele>
        <time>2022-05-02T22:20:38Z</time>
      </trkpt>
      <trkpt lat="43.05983" lon="2.43293">
        <ele>535</ele>
        <time>2022-05-02T22:20:41Z</time>
      </trkpt>
      <trkpt lat="43.05991" lon="2.43294">
        <ele>537</ele>
        <time>2022-05-02T22:20:42Z</time>
      </trkpt>
      <trkpt lat="43.05995" lon="2.43296">
        <ele>537</ele>
        <time>2022-05-02T22:20:43Z</time>
      </trkpt>
      <trkpt lat="43.06" lon="2.43303">
        <ele>538</ele>
        <time>2022-05-02T22:20:44Z</time>
      </trkpt>
      <trkpt lat="43.06001" lon="2.4331">
        <ele>538</ele>
        <time>2022-05-02T22:20:45Z</time>
      </trkpt>
      <trkpt lat="43.06002" lon="2.43318">
        <ele>538</ele>
        <time>2022-05-02T22:20:46Z</time>
      </trkpt>
      <trkpt lat="43.05998" lon="2.43332">
        <ele>538</ele>
        <time>2022-05-02T22:20:48Z</time>
      </trkpt>
      <trkpt lat="43.05979" lon="2.43354">
        <ele>536</ele>
        <time>2022-05-02T22:20:53Z</time>
      </trkpt>
      <trkpt lat="43.05972" lon="2.43367">
        <ele>536</ele>
        <time>2022-05-02T22:20:55Z</time>
      </trkpt>
      <trkpt lat="43.05934" lon="2.43491">
        <ele>537</ele>
        <time>2022-05-02T22:21:12Z</time>
      </trkpt>
      <trkpt lat="43.05933" lon="2.43503">
        <ele>538</ele>
        <time>2022-05-02T22:21:14Z</time>
      </trkpt>
      <trkpt lat="43.05934" lon="2.43514">
        <ele>537</ele>
        <time>2022-05-02T22:21:15Z</time>
      </trkpt>
      <trkpt lat="43.05937" lon="2.43522">
        <ele>537</ele>
        <time>2022-05-02T22:21:17Z</time>
      </trkpt>
      <trkpt lat="43.0594" lon="2.43528">
        <ele>537</ele>
        <time>2022-05-02T22:21:17Z</time>
      </trkpt>
      <trkpt lat="43.05946" lon="2.4353">
        <ele>537</ele>
        <time>2022-05-02T22:21:19Z</time>
      </trkpt>
      <trkpt lat="43.06007" lon="2.43526">
        <ele>543</ele>
        <time>2022-05-02T22:21:29Z</time>
      </trkpt>
      <trkpt lat="43.06019" lon="2.43527">
        <ele>545</ele>
        <time>2022-05-02T22:21:32Z</time>
      </trkpt>
      <trkpt lat="43.06027" lon="2.43534">
        <ele>544</ele>
        <time>2022-05-02T22:21:33Z</time>
      </trkpt>
      <trkpt lat="43.06039" lon="2.43556">
        <ele>541</ele>
        <time>2022-05-02T22:21:37Z</time>
      </trkpt>
      <trkpt lat="43.06043" lon="2.43561">
        <ele>541</ele>
        <time>2022-05-02T22:21:38Z</time>
      </trkpt>
      <trkpt lat="43.06049" lon="2.43563">
        <ele>541</ele>
        <time>2022-05-02T22:21:39Z</time>
      </trkpt>
      <trkpt lat="43.06106" lon="2.43558">
        <ele>550</ele>
        <time>2022-05-02T22:21:49Z</time>
      </trkpt>
      <trkpt lat="43.06113" lon="2.43556">
        <ele>552</ele>
        <time>2022-05-02T22:21:50Z</time>
      </trkpt>
      <trkpt lat="43.06144" lon="2.43538">
        <ele>558</ele>
        <time>2022-05-02T22:21:56Z</time>
      </trkpt>
      <trkpt lat="43.06154" lon="2.4354">
        <ele>559</ele>
        <time>2022-05-02T22:21:58Z</time>
      </trkpt>
      <trkpt lat="43.06161" lon="2.43548">
        <ele>558</ele>
        <time>2022-05-02T22:22:00Z</time>
      </trkpt>
      <trkpt lat="43.06162" lon="2.43555">
        <ele>557</ele>
        <time>2022-05-02T22:22:01Z</time>
      </trkpt>
      <trkpt lat="43.06161" lon="2.43565">
        <ele>556</ele>
        <time>2022-05-02T22:22:02Z</time>
      </trkpt>
      <trkpt lat="43.06144" lon="2.43626">
        <ele>550</ele>
        <time>2022-05-02T22:22:10Z</time>
      </trkpt>
      <trkpt lat="43.06143" lon="2.43648">
        <ele>549</ele>
        <time>2022-05-02T22:22:13Z</time>
      </trkpt>
      <trkpt lat="43.06148" lon="2.43669">
        <ele>550</ele>
        <time>2022-05-02T22:22:16Z</time>
      </trkpt>
      <trkpt lat="43.06167" lon="2.43717">
        <ele>551</ele>
        <time>2022-05-02T22:22:23Z</time>
      </trkpt>
      <trkpt lat="43.06184" lon="2.4378">
        <ele>553</ele>
        <time>2022-05-02T22:22:32Z</time>
      </trkpt>
      <trkpt lat="43.06186" lon="2.4379">
        <ele>554</ele>
        <time>2022-05-02T22:22:33Z</time>
      </trkpt>
      <trkpt lat="43.06186" lon="2.4383">
        <ele>553</ele>
        <time>2022-05-02T22:22:39Z</time>
      </trkpt>
      <trkpt lat="43.06189" lon="2.43872">
        <ele>554</ele>
        <time>2022-05-02T22:22:44Z</time>
      </trkpt>
      <trkpt lat="43.06191" lon="2.43886">
        <ele>555</ele>
        <time>2022-05-02T22:22:46Z</time>
      </trkpt>
      <trkpt lat="43.06209" lon="2.4398">
        <ele>562</ele>
        <time>2022-05-02T22:22:59Z</time>
      </trkpt>
      <trkpt lat="43.06211" lon="2.43997">
        <ele>563</ele>
        <time>2022-05-02T22:23:01Z</time>
      </trkpt>
      <trkpt lat="43.06209" lon="2.44017">
        <ele>562</ele>
        <time>2022-05-02T22:23:03Z</time>
      </trkpt>
      <trkpt lat="43.062" lon="2.44067">
        <ele>562</ele>
        <time>2022-05-02T22:23:10Z</time>
      </trkpt>
      <trkpt lat="43.06177" lon="2.44218">
        <ele>556</ele>
        <time>2022-05-02T22:23:30Z</time>
      </trkpt>
      <trkpt lat="43.06172" lon="2.44238">
        <ele>555</ele>
        <time>2022-05-02T22:23:33Z</time>
      </trkpt>
      <trkpt lat="43.0614" lon="2.44317">
        <ele>552</ele>
        <time>2022-05-02T22:23:45Z</time>
      </trkpt>
      <trkpt lat="43.06109" lon="2.4437">
        <ele>552</ele>
        <time>2022-05-02T22:23:54Z</time>
      </trkpt>
      <trkpt lat="43.06098" lon="2.444">
        <ele>550</ele>
        <time>2022-05-02T22:23:58Z</time>
      </trkpt>
      <trkpt lat="43.06081" lon="2.44487">
        <ele>545</ele>
        <time>2022-05-02T22:24:10Z</time>
      </trkpt>
      <trkpt lat="43.06084" lon="2.44555">
        <ele>542</ele>
        <time>2022-05-02T22:24:18Z</time>
      </trkpt>
      <trkpt lat="43.06084" lon="2.44577">
        <ele>541</ele>
        <time>2022-05-02T22:24:21Z</time>
      </trkpt>
      <trkpt lat="43.0608" lon="2.446">
        <ele>540</ele>
        <time>2022-05-02T22:24:24Z</time>
      </trkpt>
      <trkpt lat="43.06071" lon="2.44613">
        <ele>539</ele>
        <time>2022-05-02T22:24:27Z</time>
      </trkpt>
      <trkpt lat="43.06048" lon="2.4466">
        <ele>535</ele>
        <time>2022-05-02T22:24:34Z</time>
      </trkpt>
      <trkpt lat="43.06032" lon="2.44795">
        <ele>531</ele>
        <time>2022-05-02T22:24:52Z</time>
      </trkpt>
      <trkpt lat="43.06033" lon="2.44811">
        <ele>530</ele>
        <time>2022-05-02T22:24:54Z</time>
      </trkpt>
      <trkpt lat="43.06042" lon="2.44837">
        <ele>529</ele>
        <time>2022-05-02T22:24:58Z</time>
      </trkpt>
      <trkpt lat="43.06044" lon="2.44853">
        <ele>529</ele>
        <time>2022-05-02T22:25:00Z</time>
      </trkpt>
      <trkpt lat="43.06055" lon="2.44967">
        <ele>527</ele>
        <time>2022-05-02T22:25:15Z</time>
      </trkpt>
      <trkpt lat="43.06055" lon="2.44986">
        <ele>527</ele>
        <time>2022-05-02T22:25:17Z</time>
      </trkpt>
      <trkpt lat="43.06052" lon="2.45003">
        <ele>527</ele>
        <time>2022-05-02T22:25:19Z</time>
      </trkpt>
      <trkpt lat="43.06039" lon="2.45042">
        <ele>524</ele>
        <time>2022-05-02T22:25:25Z</time>
      </trkpt>
      <trkpt lat="43.06039" lon="2.45054">
        <ele>523</ele>
        <time>2022-05-02T22:25:27Z</time>
      </trkpt>
      <trkpt lat="43.06043" lon="2.45096">
        <ele>520</ele>
        <time>2022-05-02T22:25:32Z</time>
      </trkpt>
      <trkpt lat="43.06046" lon="2.45104">
        <ele>519</ele>
        <time>2022-05-02T22:25:33Z</time>
      </trkpt>
      <trkpt lat="43.06062" lon="2.45122">
        <ele>519</ele>
        <time>2022-05-02T22:25:37Z</time>
      </trkpt>
      <trkpt lat="43.06071" lon="2.45137">
        <ele>518</ele>
        <time>2022-05-02T22:25:39Z</time>
      </trkpt>
      <trkpt lat="43.06115" lon="2.45236">
        <ele>514</ele>
        <time>2022-05-02T22:25:55Z</time>
      </trkpt>
      <trkpt lat="43.06118" lon="2.45254">
        <ele>513</ele>
        <time>2022-05-02T22:25:57Z</time>
      </trkpt>
      <trkpt lat="43.06117" lon="2.45262">
        <ele>512</ele>
        <time>2022-05-02T22:25:58Z</time>
      </trkpt>
      <trkpt lat="43.06114" lon="2.4527">
        <ele>512</ele>
        <time>2022-05-02T22:25:59Z</time>
      </trkpt>
      <trkpt lat="43.06107" lon="2.45276">
        <ele>511</ele>
        <time>2022-05-02T22:26:01Z</time>
      </trkpt>
      <trkpt lat="43.06101" lon="2.45278">
        <ele>510</ele>
        <time>2022-05-02T22:26:02Z</time>
      </trkpt>
      <trkpt lat="43.06095" lon="2.45276">
        <ele>509</ele>
        <time>2022-05-02T22:26:03Z</time>
      </trkpt>
      <trkpt lat="43.06089" lon="2.45271">
        <ele>508</ele>
        <time>2022-05-02T22:26:04Z</time>
      </trkpt>
      <trkpt lat="43.06084" lon="2.45262">
        <ele>507</ele>
        <time>2022-05-02T22:26:06Z</time>
      </trkpt>
      <trkpt lat="43.06073" lon="2.45223">
        <ele>508</ele>
        <time>2022-05-02T22:26:11Z</time>
      </trkpt>
      <trkpt lat="43.06044" lon="2.45151">
        <ele>511</ele>
        <time>2022-05-02T22:26:22Z</time>
      </trkpt>
      <trkpt lat="43.06013" lon="2.45111">
        <ele>513</ele>
        <time>2022-05-02T22:26:29Z</time>
      </trkpt>
      <trkpt lat="43.06002" lon="2.45105">
        <ele>512</ele>
        <time>2022-05-02T22:26:31Z</time>
      </trkpt>
      <trkpt lat="43.05976" lon="2.45108">
        <ele>514</ele>
        <time>2022-05-02T22:26:36Z</time>
      </trkpt>
      <trkpt lat="43.05962" lon="2.45111">
        <ele>515</ele>
        <time>2022-05-02T22:26:39Z</time>
      </trkpt>
      <trkpt lat="43.05955" lon="2.45115">
        <ele>516</ele>
        <time>2022-05-02T22:26:40Z</time>
      </trkpt>
      <trkpt lat="43.05951" lon="2.45122">
        <ele>516</ele>
        <time>2022-05-02T22:26:41Z</time>
      </trkpt>
      <trkpt lat="43.05948" lon="2.45129">
        <ele>515</ele>
        <time>2022-05-02T22:26:42Z</time>
      </trkpt>
      <trkpt lat="43.05953" lon="2.45171">
        <ele>511</ele>
        <time>2022-05-02T22:26:48Z</time>
      </trkpt>
      <trkpt lat="43.05954" lon="2.4522">
        <ele>509</ele>
        <time>2022-05-02T22:26:54Z</time>
      </trkpt>
      <trkpt lat="43.05956" lon="2.45236">
        <ele>507</ele>
        <time>2022-05-02T22:26:56Z</time>
      </trkpt>
      <trkpt lat="43.05966" lon="2.45272">
        <ele>502</ele>
        <time>2022-05-02T22:27:01Z</time>
      </trkpt>
      <trkpt lat="43.05968" lon="2.45288">
        <ele>500</ele>
        <time>2022-05-02T22:27:03Z</time>
      </trkpt>
      <trkpt lat="43.05975" lon="2.45408">
        <ele>489</ele>
        <time>2022-05-02T22:27:19Z</time>
      </trkpt>
      <trkpt lat="43.05959" lon="2.45522">
        <ele>488</ele>
        <time>2022-05-02T22:27:34Z</time>
      </trkpt>
      <trkpt lat="43.05956" lon="2.45599">
        <ele>477</ele>
        <time>2022-05-02T22:27:44Z</time>
      </trkpt>
      <trkpt lat="43.05951" lon="2.45611">
        <ele>475</ele>
        <time>2022-05-02T22:27:46Z</time>
      </trkpt>
      <trkpt lat="43.05942" lon="2.45616">
        <ele>476</ele>
        <time>2022-05-02T22:27:48Z</time>
      </trkpt>
      <trkpt lat="43.0592" lon="2.45611">
        <ele>485</ele>
        <time>2022-05-02T22:27:51Z</time>
      </trkpt>
      <trkpt lat="43.05909" lon="2.45612">
        <ele>487</ele>
        <time>2022-05-02T22:27:53Z</time>
      </trkpt>
      <trkpt lat="43.05905" lon="2.45621">
        <ele>485</ele>
        <time>2022-05-02T22:27:55Z</time>
      </trkpt>
      <trkpt lat="43.05904" lon="2.45631">
        <ele>481</ele>
        <time>2022-05-02T22:27:56Z</time>
      </trkpt>
      <trkpt lat="43.0591" lon="2.45636">
        <ele>478</ele>
        <time>2022-05-02T22:27:57Z</time>
      </trkpt>
      <trkpt lat="43.05922" lon="2.45637">
        <ele>476</ele>
        <time>2022-05-02T22:28:00Z</time>
      </trkpt>
      <trkpt lat="43.05962" lon="2.45627">
        <ele>468</ele>
        <time>2022-05-02T22:28:07Z</time>
      </trkpt>
      <trkpt lat="43.05969" lon="2.45619">
        <ele>468</ele>
        <time>2022-05-02T22:28:08Z</time>
      </trkpt>
      <trkpt lat="43.05973" lon="2.45608">
        <ele>469</ele>
        <time>2022-05-02T22:28:10Z</time>
      </trkpt>
      <trkpt lat="43.05985" lon="2.45516">
        <ele>478</ele>
        <time>2022-05-02T22:28:22Z</time>
      </trkpt>
      <trkpt lat="43.05991" lon="2.45501">
        <ele>477</ele>
        <time>2022-05-02T22:28:24Z</time>
      </trkpt>
      <trkpt lat="43.06001" lon="2.45495">
        <ele>474</ele>
        <time>2022-05-02T22:28:26Z</time>
      </trkpt>
      <trkpt lat="43.06009" lon="2.45502">
        <ele>474</ele>
        <time>2022-05-02T22:28:28Z</time>
      </trkpt>
      <trkpt lat="43.06017" lon="2.45593">
        <ele>464</ele>
        <time>2022-05-02T22:28:40Z</time>
      </trkpt>
      <trkpt lat="43.06022" lon="2.45614">
        <ele>461</ele>
        <time>2022-05-02T22:28:43Z</time>
      </trkpt>
      <trkpt lat="43.06032" lon="2.45634">
        <ele>458</ele>
        <time>2022-05-02T22:28:46Z</time>
      </trkpt>
      <trkpt lat="43.06049" lon="2.45644">
        <ele>457</ele>
        <time>2022-05-02T22:28:49Z</time>
      </trkpt>
      <trkpt lat="43.06061" lon="2.4565">
        <ele>457</ele>
        <time>2022-05-02T22:28:51Z</time>
      </trkpt>
      <trkpt lat="43.06069" lon="2.45659">
        <ele>456</ele>
        <time>2022-05-02T22:28:53Z</time>
      </trkpt>
      <trkpt lat="43.06078" lon="2.45678">
        <ele>451</ele>
        <time>2022-05-02T22:28:56Z</time>
      </trkpt>
      <trkpt lat="43.06091" lon="2.45712">
        <ele>442</ele>
        <time>2022-05-02T22:29:01Z</time>
      </trkpt>
      <trkpt lat="43.061" lon="2.45727">
        <ele>439</ele>
        <time>2022-05-02T22:29:04Z</time>
      </trkpt>
      <trkpt lat="43.06108" lon="2.45734">
        <ele>439</ele>
        <time>2022-05-02T22:29:05Z</time>
      </trkpt>
      <trkpt lat="43.06122" lon="2.45742">
        <ele>439</ele>
        <time>2022-05-02T22:29:08Z</time>
      </trkpt>
      <trkpt lat="43.06149" lon="2.45746">
        <ele>444</ele>
        <time>2022-05-02T22:29:13Z</time>
      </trkpt>
      <trkpt lat="43.06263" lon="2.45788">
        <ele>437</ele>
        <time>2022-05-02T22:29:34Z</time>
      </trkpt>
      <trkpt lat="43.06332" lon="2.45819">
        <ele>430</ele>
        <time>2022-05-02T22:29:47Z</time>
      </trkpt>
      <trkpt lat="43.0643" lon="2.45893">
        <ele>427</ele>
        <time>2022-05-02T22:30:07Z</time>
      </trkpt>
      <trkpt lat="43.06456" lon="2.4592">
        <ele>424</ele>
        <time>2022-05-02T22:30:13Z</time>
      </trkpt>
      <trkpt lat="43.06472" lon="2.45946">
        <ele>419</ele>
        <time>2022-05-02T22:30:17Z</time>
      </trkpt>
      <trkpt lat="43.06492" lon="2.45989">
        <ele>409</ele>
        <time>2022-05-02T22:30:24Z</time>
      </trkpt>
      <trkpt lat="43.06512" lon="2.46013">
        <ele>408</ele>
        <time>2022-05-02T22:30:28Z</time>
      </trkpt>
      <trkpt lat="43.06546" lon="2.46034">
        <ele>414</ele>
        <time>2022-05-02T22:30:35Z</time>
      </trkpt>
      <trkpt lat="43.06596" lon="2.46095">
        <ele>405</ele>
        <time>2022-05-02T22:30:47Z</time>
      </trkpt>
      <trkpt lat="43.067" lon="2.46205">
        <ele>394</ele>
        <time>2022-05-02T22:31:10Z</time>
      </trkpt>
      <trkpt lat="43.06763" lon="2.46282">
        <ele>387</ele>
        <time>2022-05-02T22:31:25Z</time>
      </trkpt>
      <trkpt lat="43.06816" lon="2.46336">
        <ele>377</ele>
        <time>2022-05-02T22:31:37Z</time>
      </trkpt>
      <trkpt lat="43.06894" lon="2.4645">
        <ele>366</ele>
        <time>2022-05-02T22:31:57Z</time>
      </trkpt>
      <trkpt lat="43.06905" lon="2.46464">
        <ele>365</ele>
        <time>2022-05-02T22:32:00Z</time>
      </trkpt>
      <trkpt lat="43.06983" lon="2.46543">
        <ele>362</ele>
        <time>2022-05-02T22:32:17Z</time>
      </trkpt>
      <trkpt lat="43.06984" lon="2.46553">
        <ele>359</ele>
        <time>2022-05-02T22:32:19Z</time>
      </trkpt>
      <trkpt lat="43.06981" lon="2.46562">
        <ele>356</ele>
        <time>2022-05-02T22:32:20Z</time>
      </trkpt>
      <trkpt lat="43.06973" lon="2.46563">
        <ele>354</ele>
        <time>2022-05-02T22:32:21Z</time>
      </trkpt>
      <trkpt lat="43.06968" lon="2.46561">
        <ele>353</ele>
        <time>2022-05-02T22:32:22Z</time>
      </trkpt>
      <trkpt lat="43.06944" lon="2.46538">
        <ele>353</ele>
        <time>2022-05-02T22:32:28Z</time>
      </trkpt>
      <trkpt lat="43.06884" lon="2.46494">
        <ele>348</ele>
        <time>2022-05-02T22:32:40Z</time>
      </trkpt>
      <trkpt lat="43.06857" lon="2.46468">
        <ele>347</ele>
        <time>2022-05-02T22:32:46Z</time>
      </trkpt>
      <trkpt lat="43.06816" lon="2.46435">
        <ele>344</ele>
        <time>2022-05-02T22:32:54Z</time>
      </trkpt>
      <trkpt lat="43.06795" lon="2.46423">
        <ele>343</ele>
        <time>2022-05-02T22:32:58Z</time>
      </trkpt>
      <trkpt lat="43.06725" lon="2.46391">
        <ele>335</ele>
        <time>2022-05-02T22:33:11Z</time>
      </trkpt>
      <trkpt lat="43.06675" lon="2.46346">
        <ele>333</ele>
        <time>2022-05-02T22:33:22Z</time>
      </trkpt>
      <trkpt lat="43.06647" lon="2.46331">
        <ele>329</ele>
        <time>2022-05-02T22:33:27Z</time>
      </trkpt>
      <trkpt lat="43.06631" lon="2.46304">
        <ele>333</ele>
        <time>2022-05-02T22:33:32Z</time>
      </trkpt>
      <trkpt lat="43.06596" lon="2.46274">
        <ele>332</ele>
        <time>2022-05-02T22:33:39Z</time>
      </trkpt>
      <trkpt lat="43.06505" lon="2.46222">
        <ele>327</ele>
        <time>2022-05-02T22:33:57Z</time>
      </trkpt>
      <trkpt lat="43.06496" lon="2.46228">
        <ele>323</ele>
        <time>2022-05-02T22:33:58Z</time>
      </trkpt>
      <trkpt lat="43.06497" lon="2.46244">
        <ele>318</ele>
        <time>2022-05-02T22:34:00Z</time>
      </trkpt>
      <trkpt lat="43.06538" lon="2.4627">
        <ele>320</ele>
        <time>2022-05-02T22:34:08Z</time>
      </trkpt>
      <trkpt lat="43.06561" lon="2.46297">
        <ele>317</ele>
        <time>2022-05-02T22:34:14Z</time>
      </trkpt>
      <trkpt lat="43.06615" lon="2.46374">
        <ele>308</ele>
        <time>2022-05-02T22:34:28Z</time>
      </trkpt>
      <trkpt lat="43.06645" lon="2.46407">
        <ele>307</ele>
        <time>2022-05-02T22:34:35Z</time>
      </trkpt>
      <trkpt lat="43.06695" lon="2.46475">
        <ele>300</ele>
        <time>2022-05-02T22:34:47Z</time>
      </trkpt>
      <trkpt lat="43.06767" lon="2.46596">
        <ele>290</ele>
        <time>2022-05-02T22:35:07Z</time>
      </trkpt>
      <trkpt lat="43.06847" lon="2.46687">
        <ele>287</ele>
        <time>2022-05-02T22:35:26Z</time>
      </trkpt>
      <trkpt lat="43.06872" lon="2.46712">
        <ele>285</ele>
        <time>2022-05-02T22:35:31Z</time>
      </trkpt>
      <trkpt lat="43.06893" lon="2.46727">
        <ele>283</ele>
        <time>2022-05-02T22:35:36Z</time>
      </trkpt>
      <trkpt lat="43.06908" lon="2.46734">
        <ele>282</ele>
        <time>2022-05-02T22:35:38Z</time>
      </trkpt>
      <trkpt lat="43.06925" lon="2.46738">
        <ele>282</ele>
        <time>2022-05-02T22:35:42Z</time>
      </trkpt>
      <trkpt lat="43.0697" lon="2.4674">
        <ele>283</ele>
        <time>2022-05-02T22:35:50Z</time>
      </trkpt>
      <trkpt lat="43.06982" lon="2.46748">
        <ele>280</ele>
        <time>2022-05-02T22:35:52Z</time>
      </trkpt>
      <trkpt lat="43.07064" lon="2.46816">
        <ele>275</ele>
        <time>2022-05-02T22:36:09Z</time>
      </trkpt>
      <trkpt lat="43.07096" lon="2.46847">
        <ele>271</ele>
        <time>2022-05-02T22:36:16Z</time>
      </trkpt>
      <trkpt lat="43.07139" lon="2.46894">
        <ele>267</ele>
        <time>2022-05-02T22:36:26Z</time>
      </trkpt>
      <trkpt lat="43.07158" lon="2.46902">
        <ele>266</ele>
        <time>2022-05-02T22:36:29Z</time>
      </trkpt>
      <trkpt lat="43.07219" lon="2.46899">
        <ele>264</ele>
        <time>2022-05-02T22:36:40Z</time>
      </trkpt>
      <trkpt lat="43.07287" lon="2.46907">
        <ele>262</ele>
        <time>2022-05-02T22:36:52Z</time>
      </trkpt>
      <trkpt lat="43.073" lon="2.46914">
        <ele>261</ele>
        <time>2022-05-02T22:36:55Z</time>
      </trkpt>
      <trkpt lat="43.07324" lon="2.46951">
        <ele>258</ele>
        <time>2022-05-02T22:37:01Z</time>
      </trkpt>
      <trkpt lat="43.07338" lon="2.46982">
        <ele>256</ele>
        <time>2022-05-02T22:37:06Z</time>
      </trkpt>
      <trkpt lat="43.07344" lon="2.47004">
        <ele>255</ele>
        <time>2022-05-02T22:37:09Z</time>
      </trkpt>
      <trkpt lat="43.07355" lon="2.47072">
        <ele>253</ele>
        <time>2022-05-02T22:37:18Z</time>
      </trkpt>
      <trkpt lat="43.07366" lon="2.47116">
        <ele>253</ele>
        <time>2022-05-02T22:37:24Z</time>
      </trkpt>
      <trkpt lat="43.07382" lon="2.47158">
        <ele>252</ele>
        <time>2022-05-02T22:37:30Z</time>
      </trkpt>
      <trkpt lat="43.0739" lon="2.47168">
        <ele>251</ele>
        <time>2022-05-02T22:37:32Z</time>
      </trkpt>
      <trkpt lat="43.07405" lon="2.47182">
        <ele>251</ele>
        <time>2022-05-02T22:37:35Z</time>
      </trkpt>
      <trkpt lat="43.07419" lon="2.472">
        <ele>251</ele>
        <time>2022-05-02T22:37:39Z</time>
      </trkpt>
      <trkpt lat="43.07429" lon="2.4721">
        <ele>251</ele>
        <time>2022-05-02T22:37:41Z</time>
      </trkpt>
      <trkpt lat="43.07448" lon="2.47216">
        <ele>251</ele>
        <time>2022-05-02T22:37:45Z</time>
      </trkpt>
      <trkpt lat="43.07473" lon="2.4722">
        <ele>250</ele>
        <time>2022-05-02T22:37:49Z</time>
      </trkpt>
      <trkpt lat="43.07487" lon="2.47225">
        <ele>250</ele>
        <time>2022-05-02T22:37:52Z</time>
      </trkpt>
      <trkpt lat="43.07516" lon="2.47256">
        <ele>247</ele>
        <time>2022-05-02T22:37:58Z</time>
      </trkpt>
      <trkpt lat="43.07551" lon="2.47281">
        <ele>248</ele>
        <time>2022-05-02T22:38:05Z</time>
      </trkpt>
      <trkpt lat="43.07561" lon="2.47293">
        <ele>247</ele>
        <time>2022-05-02T22:38:07Z</time>
      </trkpt>
      <trkpt lat="43.07571" lon="2.4731">
        <ele>246</ele>
        <time>2022-05-02T22:38:10Z</time>
      </trkpt>
      <trkpt lat="43.07586" lon="2.47324">
        <ele>245</ele>
        <time>2022-05-02T22:38:14Z</time>
      </trkpt>
      <trkpt lat="43.07621" lon="2.47338">
        <ele>244</ele>
        <time>2022-05-02T22:38:20Z</time>
      </trkpt>
      <trkpt lat="43.07709" lon="2.47337">
        <ele>243</ele>
        <time>2022-05-02T22:38:36Z</time>
      </trkpt>
      <trkpt lat="43.07735" lon="2.47339">
        <ele>242</ele>
        <time>2022-05-02T22:38:40Z</time>
      </trkpt>
      <trkpt lat="43.07747" lon="2.47353">
        <ele>241</ele>
        <time>2022-05-02T22:38:43Z</time>
      </trkpt>
      <trkpt lat="43.07759" lon="2.47381">
        <ele>239</ele>
        <time>2022-05-02T22:38:47Z</time>
      </trkpt>
      <trkpt lat="43.0777" lon="2.47432">
        <ele>237</ele>
        <time>2022-05-02T22:38:54Z</time>
      </trkpt>
      <trkpt lat="43.07778" lon="2.47453">
        <ele>237</ele>
        <time>2022-05-02T22:38:57Z</time>
      </trkpt>
      <trkpt lat="43.07785" lon="2.47467">
        <ele>236</ele>
        <time>2022-05-02T22:39:00Z</time>
      </trkpt>
      <trkpt lat="43.07821" lon="2.47511">
        <ele>234</ele>
        <time>2022-05-02T22:39:08Z</time>
      </trkpt>
      <trkpt lat="43.07846" lon="2.47539">
        <ele>233</ele>
        <time>2022-05-02T22:39:14Z</time>
      </trkpt>
      <trkpt lat="43.07861" lon="2.47547">
        <ele>232</ele>
        <time>2022-05-02T22:39:17Z</time>
      </trkpt>
      <trkpt lat="43.07908" lon="2.47547">
        <ele>231</ele>
        <time>2022-05-02T22:39:25Z</time>
      </trkpt>
      <trkpt lat="43.07925" lon="2.47547">
        <ele>231</ele>
        <time>2022-05-02T22:39:28Z</time>
      </trkpt>
      <trkpt lat="43.07934" lon="2.47552">
        <ele>231</ele>
        <time>2022-05-02T22:39:30Z</time>
      </trkpt>
      <trkpt lat="43.07945" lon="2.47563">
        <ele>231</ele>
        <time>2022-05-02T22:39:32Z</time>
      </trkpt>
      <trkpt lat="43.07991" lon="2.47629">
        <ele>232</ele>
        <time>2022-05-02T22:39:44Z</time>
      </trkpt>
      <trkpt lat="43.08044" lon="2.47691">
        <ele>231</ele>
        <time>2022-05-02T22:39:57Z</time>
      </trkpt>
      <trkpt lat="43.08109" lon="2.47754">
        <ele>229</ele>
        <time>2022-05-02T22:40:11Z</time>
      </trkpt>
      <trkpt lat="43.08123" lon="2.47761">
        <ele>229</ele>
        <time>2022-05-02T22:40:13Z</time>
      </trkpt>
      <trkpt lat="43.08145" lon="2.47762">
        <ele>230</ele>
        <time>2022-05-02T22:40:17Z</time>
      </trkpt>
      <trkpt lat="43.08159" lon="2.47767">
        <ele>230</ele>
        <time>2022-05-02T22:40:20Z</time>
      </trkpt>
      <trkpt lat="43.08208" lon="2.47797">
        <ele>228</ele>
        <time>2022-05-02T22:40:29Z</time>
      </trkpt>
      <trkpt lat="43.08226" lon="2.47806">
        <ele>228</ele>
        <time>2022-05-02T22:40:33Z</time>
      </trkpt>
      <trkpt lat="43.08274" lon="2.47842">
        <ele>228</ele>
        <time>2022-05-02T22:40:43Z</time>
      </trkpt>
      <trkpt lat="43.08295" lon="2.4786">
        <ele>228</ele>
        <time>2022-05-02T22:40:47Z</time>
      </trkpt>
      <trkpt lat="43.08299" lon="2.47872">
        <ele>228</ele>
        <time>2022-05-02T22:40:49Z</time>
      </trkpt>
      <trkpt lat="43.083" lon="2.4789">
        <ele>227</ele>
        <time>2022-05-02T22:40:51Z</time>
      </trkpt>
      <trkpt lat="43.08295" lon="2.4792">
        <ele>227</ele>
        <time>2022-05-02T22:40:55Z</time>
      </trkpt>
      <trkpt lat="43.08296" lon="2.47937">
        <ele>227</ele>
        <time>2022-05-02T22:40:57Z</time>
      </trkpt>
      <trkpt lat="43.08301" lon="2.47951">
        <ele>227</ele>
        <time>2022-05-02T22:40:59Z</time>
      </trkpt>
      <trkpt lat="43.08354" lon="2.48011">
        <ele>226</ele>
        <time>2022-05-02T22:41:12Z</time>
      </trkpt>
      <trkpt lat="43.0836" lon="2.48019">
        <ele>226</ele>
        <time>2022-05-02T22:41:13Z</time>
      </trkpt>
      <trkpt lat="43.08371" lon="2.48041">
        <ele>226</ele>
        <time>2022-05-02T22:41:16Z</time>
      </trkpt>
      <trkpt lat="43.08374" lon="2.48056">
        <ele>226</ele>
        <time>2022-05-02T22:41:18Z</time>
      </trkpt>
      <trkpt lat="43.0837" lon="2.48164">
        <ele>223</ele>
        <time>2022-05-02T22:41:33Z</time>
      </trkpt>
      <trkpt lat="43.08371" lon="2.48188">
        <ele>223</ele>
        <time>2022-05-02T22:41:36Z</time>
      </trkpt>
      <trkpt lat="43.08378" lon="2.48216">
        <ele>223</ele>
        <time>2022-05-02T22:41:40Z</time>
      </trkpt>
      <trkpt lat="43.08385" lon="2.48236">
        <ele>223</ele>
        <time>2022-05-02T22:41:42Z</time>
      </trkpt>
      <trkpt lat="43.08457" lon="2.48385">
        <ele>222</ele>
        <time>2022-05-02T22:42:06Z</time>
      </trkpt>
      <trkpt lat="43.08469" lon="2.48419">
        <ele>222</ele>
        <time>2022-05-02T22:42:11Z</time>
      </trkpt>
      <trkpt lat="43.08487" lon="2.48584">
        <ele>220</ele>
        <time>2022-05-02T22:42:32Z</time>
      </trkpt>
      <trkpt lat="43.08488" lon="2.48609">
        <ele>220</ele>
        <time>2022-05-02T22:42:35Z</time>
      </trkpt>
      <trkpt lat="43.08486" lon="2.48675">
        <ele>220</ele>
        <time>2022-05-02T22:42:44Z</time>
      </trkpt>
      <trkpt lat="43.08489" lon="2.48937">
        <ele>215</ele>
        <time>2022-05-02T22:43:18Z</time>
      </trkpt>
      <trkpt lat="43.08491" lon="2.48965">
        <ele>214</ele>
        <time>2022-05-02T22:43:22Z</time>
      </trkpt>
      <trkpt lat="43.08495" lon="2.48987">
        <ele>213</ele>
        <time>2022-05-02T22:43:25Z</time>
      </trkpt>
      <trkpt lat="43.08511" lon="2.49102">
        <ele>214</ele>
        <time>2022-05-02T22:43:40Z</time>
      </trkpt>
      <trkpt lat="43.08509" lon="2.49132">
        <ele>214</ele>
        <time>2022-05-02T22:43:44Z</time>
      </trkpt>
      <trkpt lat="43.08506" lon="2.49154">
        <ele>214</ele>
        <time>2022-05-02T22:43:47Z</time>
      </trkpt>
      <trkpt lat="43.08498" lon="2.49195">
        <ele>214</ele>
        <time>2022-05-02T22:43:52Z</time>
      </trkpt>
      <trkpt lat="43.0847" lon="2.4927">
        <ele>213</ele>
        <time>2022-05-02T22:44:03Z</time>
      </trkpt>
      <trkpt lat="43.08464" lon="2.493">
        <ele>213</ele>
        <time>2022-05-02T22:44:07Z</time>
      </trkpt>
      <trkpt lat="43.08448" lon="2.49468">
        <ele>211</ele>
        <time>2022-05-02T22:44:29Z</time>
      </trkpt>
      <trkpt lat="43.08419" lon="2.49611">
        <ele>210</ele>
        <time>2022-05-02T22:44:49Z</time>
      </trkpt>
      <trkpt lat="43.0839" lon="2.49788">
        <ele>211</ele>
        <time>2022-05-02T22:45:12Z</time>
      </trkpt>
      <trkpt lat="43.08362" lon="2.50002">
        <ele>207</ele>
        <time>2022-05-02T22:45:40Z</time>
      </trkpt>
      <trkpt lat="43.08359" lon="2.50047">
        <ele>207</ele>
        <time>2022-05-02T22:45:46Z</time>
      </trkpt>
      <trkpt lat="43.08358" lon="2.50112">
        <ele>207</ele>
        <time>2022-05-02T22:45:55Z</time>
      </trkpt>
      <trkpt lat="43.08362" lon="2.50152">
        <ele>207</ele>
        <time>2022-05-02T22:46:00Z</time>
      </trkpt>
      <trkpt lat="43.08398" lon="2.50338">
        <ele>205</ele>
        <time>2022-05-02T22:46:25Z</time>
      </trkpt>
      <trkpt lat="43.084" lon="2.50355">
        <ele>205</ele>
        <time>2022-05-02T22:46:27Z</time>
      </trkpt>
      <trkpt lat="43.084" lon="2.50374">
        <ele>205</ele>
        <time>2022-05-02T22:46:30Z</time>
      </trkpt>
      <trkpt lat="43.08398" lon="2.50393">
        <ele>205</ele>
        <time>2022-05-02T22:46:32Z</time>
      </trkpt>
      <trkpt lat="43.08386" lon="2.50441">
        <ele>205</ele>
        <time>2022-05-02T22:46:39Z</time>
      </trkpt>
      <trkpt lat="43.08384" lon="2.50487">
        <ele>203</ele>
        <time>2022-05-02T22:46:45Z</time>
      </trkpt>
      <trkpt lat="43.08397" lon="2.50755">
        <ele>202</ele>
        <time>2022-05-02T22:47:20Z</time>
      </trkpt>
      <trkpt lat="43.08401" lon="2.50777">
        <ele>202</ele>
        <time>2022-05-02T22:47:23Z</time>
      </trkpt>
      <trkpt lat="43.08516" lon="2.51045">
        <ele>199</ele>
        <time>2022-05-02T22:48:03Z</time>
      </trkpt>
      <trkpt lat="43.08529" lon="2.51079">
        <ele>198</ele>
        <time>2022-05-02T22:48:08Z</time>
      </trkpt>
      <trkpt lat="43.08533" lon="2.51103">
        <ele>198</ele>
        <time>2022-05-02T22:48:11Z</time>
      </trkpt>
      <trkpt lat="43.08533" lon="2.51162">
        <ele>198</ele>
        <time>2022-05-02T22:48:19Z</time>
      </trkpt>
      <trkpt lat="43.08536" lon="2.51189">
        <ele>198</ele>
        <time>2022-05-02T22:48:22Z</time>
      </trkpt>
      <trkpt lat="43.08549" lon="2.51224">
        <ele>197</ele>
        <time>2022-05-02T22:48:27Z</time>
      </trkpt>
      <trkpt lat="43.08618" lon="2.51387">
        <ele>197</ele>
        <time>2022-05-02T22:48:52Z</time>
      </trkpt>
      <trkpt lat="43.08633" lon="2.51413">
        <ele>198</ele>
        <time>2022-05-02T22:48:56Z</time>
      </trkpt>
      <trkpt lat="43.0873" lon="2.51535">
        <ele>197</ele>
        <time>2022-05-02T22:49:20Z</time>
      </trkpt>
      <trkpt lat="43.08755" lon="2.51556">
        <ele>197</ele>
        <time>2022-05-02T22:49:25Z</time>
      </trkpt>
      <trkpt lat="43.0877" lon="2.51566">
        <ele>197</ele>
        <time>2022-05-02T22:49:28Z</time>
      </trkpt>
      <trkpt lat="43.08797" lon="2.51586">
        <ele>198</ele>
        <time>2022-05-02T22:49:33Z</time>
      </trkpt>
      <trkpt lat="43.08823" lon="2.51607">
        <ele>199</ele>
        <time>2022-05-02T22:49:39Z</time>
      </trkpt>
      <trkpt lat="43.08834" lon="2.51622">
        <ele>200</ele>
        <time>2022-05-02T22:49:41Z</time>
      </trkpt>
      <trkpt lat="43.08844" lon="2.5164">
        <ele>200</ele>
        <time>2022-05-02T22:49:44Z</time>
      </trkpt>
      <trkpt lat="43.08854" lon="2.51667">
        <ele>201</ele>
        <time>2022-05-02T22:49:48Z</time>
      </trkpt>
      <trkpt lat="43.08858" lon="2.51683">
        <ele>202</ele>
        <time>2022-05-02T22:49:51Z</time>
      </trkpt>
      <trkpt lat="43.08864" lon="2.5171">
        <ele>203</ele>
        <time>2022-05-02T22:49:54Z</time>
      </trkpt>
      <trkpt lat="43.08868" lon="2.51758">
        <ele>205</ele>
        <time>2022-05-02T22:50:00Z</time>
      </trkpt>
      <trkpt lat="43.08871" lon="2.51815">
        <ele>207</ele>
        <time>2022-05-02T22:50:08Z</time>
      </trkpt>
      <trkpt lat="43.08869" lon="2.51821">
        <ele>207</ele>
        <time>2022-05-02T22:50:09Z</time>
      </trkpt>
      <trkpt lat="43.08855" lon="2.51859">
        <ele>207</ele>
        <time>2022-05-02T22:50:14Z</time>
      </trkpt>
      <trkpt lat="43.08853" lon="2.51865">
        <ele>207</ele>
        <time>2022-05-02T22:50:15Z</time>
      </trkpt>
      <trkpt lat="43.0885" lon="2.51876">
        <ele>207</ele>
        <time>2022-05-02T22:50:17Z</time>
      </trkpt>
      <trkpt lat="43.08835" lon="2.51923">
        <ele>208</ele>
        <time>2022-05-02T22:50:23Z</time>
      </trkpt>
      <trkpt lat="43.08829" lon="2.51945">
        <ele>208</ele>
        <time>2022-05-02T22:50:26Z</time>
      </trkpt>
      <trkpt lat="43.08822" lon="2.51965">
        <ele>208</ele>
        <time>2022-05-02T22:50:29Z</time>
      </trkpt>
      <trkpt lat="43.08803" lon="2.52038">
        <ele>207</ele>
        <time>2022-05-02T22:50:39Z</time>
      </trkpt>
      <trkpt lat="43.08803" lon="2.52056">
        <ele>207</ele>
        <time>2022-05-02T22:50:42Z</time>
      </trkpt>
      <trkpt lat="43.08802" lon="2.52063">
        <ele>206</ele>
        <time>2022-05-02T22:50:43Z</time>
      </trkpt>
      <trkpt lat="43.08801" lon="2.52085">
        <ele>206</ele>
        <time>2022-05-02T22:50:45Z</time>
      </trkpt>
      <trkpt lat="43.08797" lon="2.52125">
        <ele>205</ele>
        <time>2022-05-02T22:50:51Z</time>
      </trkpt>
      <trkpt lat="43.08791" lon="2.52146">
        <ele>204</ele>
        <time>2022-05-02T22:50:54Z</time>
      </trkpt>
      <trkpt lat="43.08798" lon="2.52143">
        <ele>204</ele>
        <time>2022-05-02T22:50:55Z</time>
      </trkpt>
      <trkpt lat="43.08807" lon="2.52141">
        <ele>205</ele>
        <time>2022-05-02T22:50:57Z</time>
      </trkpt>
      <trkpt lat="43.08812" lon="2.52157">
        <ele>205</ele>
        <time>2022-05-02T22:50:59Z</time>
      </trkpt>
      <trkpt lat="43.08814" lon="2.52173">
        <ele>204</ele>
        <time>2022-05-02T22:51:01Z</time>
      </trkpt>
      <trkpt lat="43.08809" lon="2.5219">
        <ele>204</ele>
        <time>2022-05-02T22:51:03Z</time>
      </trkpt>
      <trkpt lat="43.08714" lon="2.52188">
        <ele>201</ele>
        <time>2022-05-02T22:51:20Z</time>
      </trkpt>
      <trkpt lat="43.08711" lon="2.52182">
        <ele>201</ele>
        <time>2022-05-02T22:51:21Z</time>
      </trkpt>
      <trkpt lat="43.08697" lon="2.52186">
        <ele>201</ele>
        <time>2022-05-02T22:51:24Z</time>
      </trkpt>
      <trkpt lat="43.08671" lon="2.522">
        <ele>201</ele>
        <time>2022-05-02T22:51:29Z</time>
      </trkpt>
      <trkpt lat="43.08609" lon="2.52244">
        <ele>202</ele>
        <time>2022-05-02T22:51:41Z</time>
      </trkpt>
      <trkpt lat="43.0858" lon="2.52254">
        <ele>202</ele>
        <time>2022-05-02T22:51:46Z</time>
      </trkpt>
      <trkpt lat="43.0856" lon="2.52254">
        <ele>203</ele>
        <time>2022-05-02T22:51:50Z</time>
      </trkpt>
      <trkpt lat="43.08487" lon="2.52246">
        <ele>202</ele>
        <time>2022-05-02T22:52:03Z</time>
      </trkpt>
      <trkpt lat="43.08467" lon="2.52249">
        <ele>200</ele>
        <time>2022-05-02T22:52:07Z</time>
      </trkpt>
      <trkpt lat="43.08458" lon="2.52256">
        <ele>200</ele>
        <time>2022-05-02T22:52:08Z</time>
      </trkpt>
      <trkpt lat="43.08441" lon="2.52278">
        <ele>199</ele>
        <time>2022-05-02T22:52:13Z</time>
      </trkpt>
      <trkpt lat="43.08428" lon="2.5232">
        <ele>200</ele>
        <time>2022-05-02T22:52:19Z</time>
      </trkpt>
      <trkpt lat="43.08418" lon="2.52341">
        <ele>199</ele>
        <time>2022-05-02T22:52:22Z</time>
      </trkpt>
      <trkpt lat="43.08412" lon="2.5235">
        <ele>199</ele>
        <time>2022-05-02T22:52:23Z</time>
      </trkpt>
      <trkpt lat="43.08395" lon="2.52362">
        <ele>198</ele>
        <time>2022-05-02T22:52:27Z</time>
      </trkpt>
      <trkpt lat="43.08379" lon="2.52365">
        <ele>197</ele>
        <time>2022-05-02T22:52:30Z</time>
      </trkpt>
      <trkpt lat="43.08326" lon="2.52369">
        <ele>194</ele>
        <time>2022-05-02T22:52:39Z</time>
      </trkpt>
      <trkpt lat="43.08309" lon="2.52378">
        <ele>194</ele>
        <time>2022-05-02T22:52:42Z</time>
      </trkpt>
      <trkpt lat="43.083" lon="2.52389">
        <ele>194</ele>
        <time>2022-05-02T22:52:44Z</time>
      </trkpt>
      <trkpt lat="43.08279" lon="2.52452">
        <ele>194</ele>
        <time>2022-05-02T22:52:53Z</time>
      </trkpt>
      <trkpt lat="43.0826" lon="2.52538">
        <ele>194</ele>
        <time>2022-05-02T22:53:05Z</time>
      </trkpt>
      <trkpt lat="43.08238" lon="2.52658">
        <ele>197</ele>
        <time>2022-05-02T22:53:21Z</time>
      </trkpt>
      <trkpt lat="43.08205" lon="2.52857">
        <ele>193</ele>
        <time>2022-05-02T22:53:48Z</time>
      </trkpt>
      <trkpt lat="43.08198" lon="2.52876">
        <ele>192</ele>
        <time>2022-05-02T22:53:51Z</time>
      </trkpt>
      <trkpt lat="43.08179" lon="2.52915">
        <ele>189</ele>
        <time>2022-05-02T22:53:57Z</time>
      </trkpt>
      <trkpt lat="43.0817" lon="2.52928">
        <ele>188</ele>
        <time>2022-05-02T22:53:59Z</time>
      </trkpt>
      <trkpt lat="43.08132" lon="2.52967">
        <ele>187</ele>
        <time>2022-05-02T22:54:07Z</time>
      </trkpt>
      <trkpt lat="43.08127" lon="2.52981">
        <ele>186</ele>
        <time>2022-05-02T22:54:09Z</time>
      </trkpt>
      <trkpt lat="43.08124" lon="2.53002">
        <ele>186</ele>
        <time>2022-05-02T22:54:12Z</time>
      </trkpt>
      <trkpt lat="43.08122" lon="2.53037">
        <ele>187</ele>
        <time>2022-05-02T22:54:17Z</time>
      </trkpt>
      <trkpt lat="43.08133" lon="2.53037">
        <ele>187</ele>
        <time>2022-05-02T22:54:19Z</time>
      </trkpt>
      <trkpt lat="43.08143" lon="2.53071">
        <ele>188</ele>
        <time>2022-05-02T22:54:23Z</time>
      </trkpt>
      <trkpt lat="43.08133" lon="2.53037">
        <ele>187</ele>
        <time>2022-05-02T22:54:28Z</time>
      </trkpt>
      <trkpt lat="43.08122" lon="2.53037">
        <ele>187</ele>
        <time>2022-05-02T22:54:30Z</time>
      </trkpt>
      <trkpt lat="43.08121" lon="2.5306">
        <ele>187</ele>
        <time>2022-05-02T22:54:33Z</time>
      </trkpt>
      <trkpt lat="43.08119" lon="2.53077">
        <ele>187</ele>
        <time>2022-05-02T22:54:35Z</time>
      </trkpt>
      <trkpt lat="43.08112" lon="2.53092">
        <ele>186</ele>
        <time>2022-05-02T22:54:38Z</time>
      </trkpt>
      <trkpt lat="43.08105" lon="2.53101">
        <ele>186</ele>
        <time>2022-05-02T22:54:39Z</time>
      </trkpt>
      <trkpt lat="43.08093" lon="2.53121">
        <ele>185</ele>
        <time>2022-05-02T22:54:43Z</time>
      </trkpt>
      <trkpt lat="43.08074" lon="2.5315">
        <ele>184</ele>
        <time>2022-05-02T22:54:48Z</time>
      </trkpt>
      <trkpt lat="43.08045" lon="2.53199">
        <ele>184</ele>
        <time>2022-05-02T22:54:56Z</time>
      </trkpt>
      <trkpt lat="43.0801" lon="2.53255">
        <ele>183</ele>
        <time>2022-05-02T22:55:06Z</time>
      </trkpt>
      <trkpt lat="43.07995" lon="2.53284">
        <ele>185</ele>
        <time>2022-05-02T22:55:10Z</time>
      </trkpt>
      <trkpt lat="43.0799" lon="2.53303">
        <ele>186</ele>
        <time>2022-05-02T22:55:13Z</time>
      </trkpt>
      <trkpt lat="43.0799" lon="2.53328">
        <ele>187</ele>
        <time>2022-05-02T22:55:16Z</time>
      </trkpt>
      <trkpt lat="43.08022" lon="2.53425">
        <ele>189</ele>
        <time>2022-05-02T22:55:30Z</time>
      </trkpt>
      <trkpt lat="43.08032" lon="2.53449">
        <ele>188</ele>
        <time>2022-05-02T22:55:34Z</time>
      </trkpt>
      <trkpt lat="43.08034" lon="2.53466">
        <ele>188</ele>
        <time>2022-05-02T22:55:36Z</time>
      </trkpt>
      <trkpt lat="43.08034" lon="2.53476">
        <ele>188</ele>
        <time>2022-05-02T22:55:37Z</time>
      </trkpt>
      <trkpt lat="43.08031" lon="2.53487">
        <ele>188</ele>
        <time>2022-05-02T22:55:39Z</time>
      </trkpt>
      <trkpt lat="43.08024" lon="2.53496">
        <ele>189</ele>
        <time>2022-05-02T22:55:40Z</time>
      </trkpt>
      <trkpt lat="43.08009" lon="2.53506">
        <ele>190</ele>
        <time>2022-05-02T22:55:43Z</time>
      </trkpt>
      <trkpt lat="43.07988" lon="2.53526">
        <ele>192</ele>
        <time>2022-05-02T22:55:48Z</time>
      </trkpt>
      <trkpt lat="43.07955" lon="2.53575">
        <ele>191</ele>
        <time>2022-05-02T22:55:57Z</time>
      </trkpt>
      <trkpt lat="43.07943" lon="2.53593">
        <ele>191</ele>
        <time>2022-05-02T22:56:00Z</time>
      </trkpt>
      <trkpt lat="43.07938" lon="2.53599">
        <ele>192</ele>
        <time>2022-05-02T22:56:01Z</time>
      </trkpt>
      <trkpt lat="43.07922" lon="2.53601">
        <ele>193</ele>
        <time>2022-05-02T22:56:04Z</time>
      </trkpt>
      <trkpt lat="43.07904" lon="2.53596">
        <ele>193</ele>
        <time>2022-05-02T22:56:07Z</time>
      </trkpt>
      <trkpt lat="43.07894" lon="2.53596">
        <ele>193</ele>
        <time>2022-05-02T22:56:09Z</time>
      </trkpt>
      <trkpt lat="43.07883" lon="2.53599">
        <ele>193</ele>
        <time>2022-05-02T22:56:11Z</time>
      </trkpt>
      <trkpt lat="43.07856" lon="2.53617">
        <ele>194</ele>
        <time>2022-05-02T22:56:16Z</time>
      </trkpt>
      <trkpt lat="43.07751" lon="2.5373">
        <ele>195</ele>
        <time>2022-05-02T22:56:40Z</time>
      </trkpt>
      <trkpt lat="43.07741" lon="2.53738">
        <ele>196</ele>
        <time>2022-05-02T22:56:42Z</time>
      </trkpt>
      <trkpt lat="43.077" lon="2.53761">
        <ele>197</ele>
        <time>2022-05-02T22:56:50Z</time>
      </trkpt>
      <trkpt lat="43.07692" lon="2.53768">
        <ele>197</ele>
        <time>2022-05-02T22:56:52Z</time>
      </trkpt>
      <trkpt lat="43.07684" lon="2.53778">
        <ele>198</ele>
        <time>2022-05-02T22:56:53Z</time>
      </trkpt>
      <trkpt lat="43.07678" lon="2.53792">
        <ele>198</ele>
        <time>2022-05-02T22:56:56Z</time>
      </trkpt>
      <trkpt lat="43.07645" lon="2.53901">
        <ele>204</ele>
        <time>2022-05-02T22:57:11Z</time>
      </trkpt>
      <trkpt lat="43.07636" lon="2.53924">
        <ele>205</ele>
        <time>2022-05-02T22:57:14Z</time>
      </trkpt>
      <trkpt lat="43.07629" lon="2.53936">
        <ele>205</ele>
        <time>2022-05-02T22:57:16Z</time>
      </trkpt>
      <trkpt lat="43.07621" lon="2.53945">
        <ele>205</ele>
        <time>2022-05-02T22:57:18Z</time>
      </trkpt>
      <trkpt lat="43.07611" lon="2.5395">
        <ele>205</ele>
        <time>2022-05-02T22:57:20Z</time>
      </trkpt>
      <trkpt lat="43.07597" lon="2.5395">
        <ele>204</ele>
        <time>2022-05-02T22:57:23Z</time>
      </trkpt>
      <trkpt lat="43.07555" lon="2.53945">
        <ele>204</ele>
        <time>2022-05-02T22:57:30Z</time>
      </trkpt>
      <trkpt lat="43.07541" lon="2.53946">
        <ele>205</ele>
        <time>2022-05-02T22:57:33Z</time>
      </trkpt>
      <trkpt lat="43.07529" lon="2.53952">
        <ele>206</ele>
        <time>2022-05-02T22:57:35Z</time>
      </trkpt>
      <trkpt lat="43.07516" lon="2.53966">
        <ele>207</ele>
        <time>2022-05-02T22:57:38Z</time>
      </trkpt>
      <trkpt lat="43.07499" lon="2.54001">
        <ele>208</ele>
        <time>2022-05-02T22:57:43Z</time>
      </trkpt>
      <trkpt lat="43.07491" lon="2.54016">
        <ele>209</ele>
        <time>2022-05-02T22:57:46Z</time>
      </trkpt>
      <trkpt lat="43.07475" lon="2.54033">
        <ele>210</ele>
        <time>2022-05-02T22:57:49Z</time>
      </trkpt>
      <trkpt lat="43.07436" lon="2.54063">
        <ele>212</ele>
        <time>2022-05-02T22:57:57Z</time>
      </trkpt>
      <trkpt lat="43.07414" lon="2.54083">
        <ele>213</ele>
        <time>2022-05-02T22:58:02Z</time>
      </trkpt>
      <trkpt lat="43.074" lon="2.54102">
        <ele>215</ele>
        <time>2022-05-02T22:58:05Z</time>
      </trkpt>
      <trkpt lat="43.07395" lon="2.54122">
        <ele>217</ele>
        <time>2022-05-02T22:58:08Z</time>
      </trkpt>
      <trkpt lat="43.07394" lon="2.5419">
        <ele>221</ele>
        <time>2022-05-02T22:58:17Z</time>
      </trkpt>
      <trkpt lat="43.0739" lon="2.54233">
        <ele>224</ele>
        <time>2022-05-02T22:58:23Z</time>
      </trkpt>
      <trkpt lat="43.07383" lon="2.54266">
        <ele>226</ele>
        <time>2022-05-02T22:58:27Z</time>
      </trkpt>
      <trkpt lat="43.07338" lon="2.54398">
        <ele>228</ele>
        <time>2022-05-02T22:58:46Z</time>
      </trkpt>
      <trkpt lat="43.07337" lon="2.54411">
        <ele>228</ele>
        <time>2022-05-02T22:58:48Z</time>
      </trkpt>
      <trkpt lat="43.07341" lon="2.54426">
        <ele>230</ele>
        <time>2022-05-02T22:58:50Z</time>
      </trkpt>
      <trkpt lat="43.07348" lon="2.54441">
        <ele>231</ele>
        <time>2022-05-02T22:58:52Z</time>
      </trkpt>
      <trkpt lat="43.07354" lon="2.54451">
        <ele>233</ele>
        <time>2022-05-02T22:58:54Z</time>
      </trkpt>
      <trkpt lat="43.07364" lon="2.54459">
        <ele>234</ele>
        <time>2022-05-02T22:58:56Z</time>
      </trkpt>
      <trkpt lat="43.07375" lon="2.54462">
        <ele>235</ele>
        <time>2022-05-02T22:58:58Z</time>
      </trkpt>
      <trkpt lat="43.07391" lon="2.54462">
        <ele>236</ele>
        <time>2022-05-02T22:59:01Z</time>
      </trkpt>
      <trkpt lat="43.07407" lon="2.54456">
        <ele>237</ele>
        <time>2022-05-02T22:59:04Z</time>
      </trkpt>
      <trkpt lat="43.07421" lon="2.54455">
        <ele>238</ele>
        <time>2022-05-02T22:59:06Z</time>
      </trkpt>
      <trkpt lat="43.0743" lon="2.5446">
        <ele>240</ele>
        <time>2022-05-02T22:59:08Z</time>
      </trkpt>
      <trkpt lat="43.07434" lon="2.54468">
        <ele>241</ele>
        <time>2022-05-02T22:59:09Z</time>
      </trkpt>
      <trkpt lat="43.07435" lon="2.54476">
        <ele>241</ele>
        <time>2022-05-02T22:59:10Z</time>
      </trkpt>
      <trkpt lat="43.0743" lon="2.54494">
        <ele>242</ele>
        <time>2022-05-02T22:59:13Z</time>
      </trkpt>
      <trkpt lat="43.07398" lon="2.54519">
        <ele>241</ele>
        <time>2022-05-02T22:59:19Z</time>
      </trkpt>
      <trkpt lat="43.07377" lon="2.54562">
        <ele>243</ele>
        <time>2022-05-02T22:59:26Z</time>
      </trkpt>
      <trkpt lat="43.0737" lon="2.5457">
        <ele>244</ele>
        <time>2022-05-02T22:59:28Z</time>
      </trkpt>
      <trkpt lat="43.0735" lon="2.54582">
        <ele>244</ele>
        <time>2022-05-02T22:59:31Z</time>
      </trkpt>
      <trkpt lat="43.07342" lon="2.54591">
        <ele>244</ele>
        <time>2022-05-02T22:59:33Z</time>
      </trkpt>
      <trkpt lat="43.07337" lon="2.54604">
        <ele>245</ele>
        <time>2022-05-02T22:59:35Z</time>
      </trkpt>
      <trkpt lat="43.0733" lon="2.54666">
        <ele>252</ele>
        <time>2022-05-02T22:59:43Z</time>
      </trkpt>
      <trkpt lat="43.07323" lon="2.54681">
        <ele>253</ele>
        <time>2022-05-02T22:59:46Z</time>
      </trkpt>
      <trkpt lat="43.07312" lon="2.54699">
        <ele>253</ele>
        <time>2022-05-02T22:59:49Z</time>
      </trkpt>
      <trkpt lat="43.07305" lon="2.54708">
        <ele>253</ele>
        <time>2022-05-02T22:59:50Z</time>
      </trkpt>
      <trkpt lat="43.07296" lon="2.54711">
        <ele>254</ele>
        <time>2022-05-02T22:59:52Z</time>
      </trkpt>
      <trkpt lat="43.07281" lon="2.54712">
        <ele>254</ele>
        <time>2022-05-02T22:59:55Z</time>
      </trkpt>
      <trkpt lat="43.07274" lon="2.54716">
        <ele>254</ele>
        <time>2022-05-02T22:59:56Z</time>
      </trkpt>
      <trkpt lat="43.07268" lon="2.54721">
        <ele>254</ele>
        <time>2022-05-02T22:59:57Z</time>
      </trkpt>
      <trkpt lat="43.07264" lon="2.54729">
        <ele>254</ele>
        <time>2022-05-02T22:59:59Z</time>
      </trkpt>
      <trkpt lat="43.07263" lon="2.54737">
        <ele>255</ele>
        <time>2022-05-02T23:00:00Z</time>
      </trkpt>
      <trkpt lat="43.0727" lon="2.54768">
        <ele>255</ele>
        <time>2022-05-02T23:00:04Z</time>
      </trkpt>
      <trkpt lat="43.07267" lon="2.54785">
        <ele>255</ele>
        <time>2022-05-02T23:00:06Z</time>
      </trkpt>
      <trkpt lat="43.0726" lon="2.54799">
        <ele>255</ele>
        <time>2022-05-02T23:00:08Z</time>
      </trkpt>
      <trkpt lat="43.07193" lon="2.54912">
        <ele>259</ele>
        <time>2022-05-02T23:00:27Z</time>
      </trkpt>
      <trkpt lat="43.07174" lon="2.54952">
        <ele>258</ele>
        <time>2022-05-02T23:00:33Z</time>
      </trkpt>
      <trkpt lat="43.07158" lon="2.54972">
        <ele>258</ele>
        <time>2022-05-02T23:00:37Z</time>
      </trkpt>
      <trkpt lat="43.0713" lon="2.54992">
        <ele>260</ele>
        <time>2022-05-02T23:00:43Z</time>
      </trkpt>
      <trkpt lat="43.07119" lon="2.55004">
        <ele>260</ele>
        <time>2022-05-02T23:00:45Z</time>
      </trkpt>
      <trkpt lat="43.07086" lon="2.55095">
        <ele>261</ele>
        <time>2022-05-02T23:00:59Z</time>
      </trkpt>
      <trkpt lat="43.07076" lon="2.55147">
        <ele>261</ele>
        <time>2022-05-02T23:01:06Z</time>
      </trkpt>
      <trkpt lat="43.07062" lon="2.55261">
        <ele>257</ele>
        <time>2022-05-02T23:01:21Z</time>
      </trkpt>
      <trkpt lat="43.0706" lon="2.55271">
        <ele>257</ele>
        <time>2022-05-02T23:01:22Z</time>
      </trkpt>
      <trkpt lat="43.07054" lon="2.55283">
        <ele>257</ele>
        <time>2022-05-02T23:01:24Z</time>
      </trkpt>
      <trkpt lat="43.07045" lon="2.55291">
        <ele>256</ele>
        <time>2022-05-02T23:01:26Z</time>
      </trkpt>
      <trkpt lat="43.07026" lon="2.55304">
        <ele>256</ele>
        <time>2022-05-02T23:01:30Z</time>
      </trkpt>
      <trkpt lat="43.06966" lon="2.55333">
        <ele>253</ele>
        <time>2022-05-02T23:01:41Z</time>
      </trkpt>
      <trkpt lat="43.06957" lon="2.55333">
        <ele>252</ele>
        <time>2022-05-02T23:01:43Z</time>
      </trkpt>
      <trkpt lat="43.06931" lon="2.55329">
        <ele>251</ele>
        <time>2022-05-02T23:01:47Z</time>
      </trkpt>
      <trkpt lat="43.06894" lon="2.55339">
        <ele>246</ele>
        <time>2022-05-02T23:01:54Z</time>
      </trkpt>
      <trkpt lat="43.06886" lon="2.55335">
        <ele>245</ele>
        <time>2022-05-02T23:01:55Z</time>
      </trkpt>
      <trkpt lat="43.06869" lon="2.5532">
        <ele>244</ele>
        <time>2022-05-02T23:01:59Z</time>
      </trkpt>
      <trkpt lat="43.06862" lon="2.55318">
        <ele>243</ele>
        <time>2022-05-02T23:02:00Z</time>
      </trkpt>
      <trkpt lat="43.06855" lon="2.55321">
        <ele>241</ele>
        <time>2022-05-02T23:02:02Z</time>
      </trkpt>
      <trkpt lat="43.0685" lon="2.5533">
        <ele>239</ele>
        <time>2022-05-02T23:02:03Z</time>
      </trkpt>
      <trkpt lat="43.06848" lon="2.5534">
        <ele>238</ele>
        <time>2022-05-02T23:02:04Z</time>
      </trkpt>
      <trkpt lat="43.0685" lon="2.55349">
        <ele>238</ele>
        <time>2022-05-02T23:02:06Z</time>
      </trkpt>
      <trkpt lat="43.06854" lon="2.55356">
        <ele>239</ele>
        <time>2022-05-02T23:02:07Z</time>
      </trkpt>
      <trkpt lat="43.06869" lon="2.5537">
        <ele>241</ele>
        <time>2022-05-02T23:02:10Z</time>
      </trkpt>
      <trkpt lat="43.06873" lon="2.55377">
        <ele>241</ele>
        <time>2022-05-02T23:02:11Z</time>
      </trkpt>
      <trkpt lat="43.06877" lon="2.55397">
        <ele>241</ele>
        <time>2022-05-02T23:02:14Z</time>
      </trkpt>
      <trkpt lat="43.06876" lon="2.55406">
        <ele>241</ele>
        <time>2022-05-02T23:02:15Z</time>
      </trkpt>
      <trkpt lat="43.06873" lon="2.55416">
        <ele>240</ele>
        <time>2022-05-02T23:02:16Z</time>
      </trkpt>
      <trkpt lat="43.06868" lon="2.55423">
        <ele>240</ele>
        <time>2022-05-02T23:02:18Z</time>
      </trkpt>
      <trkpt lat="43.06862" lon="2.5543">
        <ele>240</ele>
        <time>2022-05-02T23:02:19Z</time>
      </trkpt>
      <trkpt lat="43.06855" lon="2.55434">
        <ele>239</ele>
        <time>2022-05-02T23:02:20Z</time>
      </trkpt>
      <trkpt lat="43.06811" lon="2.55441">
        <ele>235</ele>
        <time>2022-05-02T23:02:28Z</time>
      </trkpt>
      <trkpt lat="43.06794" lon="2.55441">
        <ele>234</ele>
        <time>2022-05-02T23:02:31Z</time>
      </trkpt>
      <trkpt lat="43.06651" lon="2.55426">
        <ele>222</ele>
        <time>2022-05-02T23:02:57Z</time>
      </trkpt>
      <trkpt lat="43.06508" lon="2.55415">
        <ele>213</ele>
        <time>2022-05-02T23:03:22Z</time>
      </trkpt>
      <trkpt lat="43.06489" lon="2.55417">
        <ele>212</ele>
        <time>2022-05-02T23:03:26Z</time>
      </trkpt>
      <trkpt lat="43.06449" lon="2.55431">
        <ele>211</ele>
        <time>2022-05-02T23:03:33Z</time>
      </trkpt>
      <trkpt lat="43.06404" lon="2.55443">
        <ele>210</ele>
        <time>2022-05-02T23:03:41Z</time>
      </trkpt>
      <trkpt lat="43.06388" lon="2.55446">
        <ele>209</ele>
        <time>2022-05-02T23:03:44Z</time>
      </trkpt>
      <trkpt lat="43.06319" lon="2.55449">
        <ele>205</ele>
        <time>2022-05-02T23:03:56Z</time>
      </trkpt>
      <trkpt lat="43.06314" lon="2.55451">
        <ele>205</ele>
        <time>2022-05-02T23:03:57Z</time>
      </trkpt>
      <trkpt lat="43.06309" lon="2.55458">
        <ele>204</ele>
        <time>2022-05-02T23:03:59Z</time>
      </trkpt>
      <trkpt lat="43.06308" lon="2.5547">
        <ele>204</ele>
        <time>2022-05-02T23:04:00Z</time>
      </trkpt>
      <trkpt lat="43.06309" lon="2.55483">
        <ele>204</ele>
        <time>2022-05-02T23:04:02Z</time>
      </trkpt>
      <trkpt lat="43.06314" lon="2.55499">
        <ele>204</ele>
        <time>2022-05-02T23:04:04Z</time>
      </trkpt>
      <trkpt lat="43.06344" lon="2.55566">
        <ele>203</ele>
        <time>2022-05-02T23:04:14Z</time>
      </trkpt>
      <trkpt lat="43.06351" lon="2.55591">
        <ele>203</ele>
        <time>2022-05-02T23:04:18Z</time>
      </trkpt>
      <trkpt lat="43.06357" lon="2.55634">
        <ele>202</ele>
        <time>2022-05-02T23:04:24Z</time>
      </trkpt>
      <trkpt lat="43.06362" lon="2.55703">
        <ele>199</ele>
        <time>2022-05-02T23:04:33Z</time>
      </trkpt>
      <trkpt lat="43.06367" lon="2.55728">
        <ele>198</ele>
        <time>2022-05-02T23:04:36Z</time>
      </trkpt>
      <trkpt lat="43.06374" lon="2.55749">
        <ele>198</ele>
        <time>2022-05-02T23:04:39Z</time>
      </trkpt>
      <trkpt lat="43.06388" lon="2.55777">
        <ele>198</ele>
        <time>2022-05-02T23:04:43Z</time>
      </trkpt>
      <trkpt lat="43.06397" lon="2.55803">
        <ele>197</ele>
        <time>2022-05-02T23:04:47Z</time>
      </trkpt>
      <trkpt lat="43.06402" lon="2.55831">
        <ele>195</ele>
        <time>2022-05-02T23:04:51Z</time>
      </trkpt>
      <trkpt lat="43.06412" lon="2.55857">
        <ele>194</ele>
        <time>2022-05-02T23:04:55Z</time>
      </trkpt>
      <trkpt lat="43.06439" lon="2.55893">
        <ele>194</ele>
        <time>2022-05-02T23:05:01Z</time>
      </trkpt>
      <trkpt lat="43.06445" lon="2.55908">
        <ele>194</ele>
        <time>2022-05-02T23:05:04Z</time>
      </trkpt>
      <trkpt lat="43.06454" lon="2.55945">
        <ele>193</ele>
        <time>2022-05-02T23:05:09Z</time>
      </trkpt>
      <trkpt lat="43.06475" lon="2.56063">
        <ele>194</ele>
        <time>2022-05-02T23:05:24Z</time>
      </trkpt>
      <trkpt lat="43.06477" lon="2.56079">
        <ele>194</ele>
        <time>2022-05-02T23:05:27Z</time>
      </trkpt>
      <trkpt lat="43.06476" lon="2.56101">
        <ele>193</ele>
        <time>2022-05-02T23:05:29Z</time>
      </trkpt>
      <trkpt lat="43.06473" lon="2.56133">
        <ele>192</ele>
        <time>2022-05-02T23:05:34Z</time>
      </trkpt>
      <trkpt lat="43.06474" lon="2.56164">
        <ele>192</ele>
        <time>2022-05-02T23:05:38Z</time>
      </trkpt>
      <trkpt lat="43.06477" lon="2.56186">
        <ele>191</ele>
        <time>2022-05-02T23:05:41Z</time>
      </trkpt>
      <trkpt lat="43.06483" lon="2.56213">
        <ele>190</ele>
        <time>2022-05-02T23:05:44Z</time>
      </trkpt>
      <trkpt lat="43.06497" lon="2.56244">
        <ele>188</ele>
        <time>2022-05-02T23:05:49Z</time>
      </trkpt>
      <trkpt lat="43.06532" lon="2.56294">
        <ele>188</ele>
        <time>2022-05-02T23:05:58Z</time>
      </trkpt>
      <trkpt lat="43.06537" lon="2.56308">
        <ele>188</ele>
        <time>2022-05-02T23:06:00Z</time>
      </trkpt>
      <trkpt lat="43.06564" lon="2.56418">
        <ele>186</ele>
        <time>2022-05-02T23:06:15Z</time>
      </trkpt>
      <trkpt lat="43.06619" lon="2.56671">
        <ele>184</ele>
        <time>2022-05-02T23:06:49Z</time>
      </trkpt>
      <trkpt lat="43.06629" lon="2.56692">
        <ele>185</ele>
        <time>2022-05-02T23:06:53Z</time>
      </trkpt>
      <trkpt lat="43.06771" lon="2.56907">
        <ele>179</ele>
        <time>2022-05-02T23:07:30Z</time>
      </trkpt>
      <trkpt lat="43.06785" lon="2.56932">
        <ele>179</ele>
        <time>2022-05-02T23:07:34Z</time>
      </trkpt>
      <trkpt lat="43.06793" lon="2.56949">
        <ele>180</ele>
        <time>2022-05-02T23:07:37Z</time>
      </trkpt>
      <trkpt lat="43.0695" lon="2.57656">
        <ele>169</ele>
        <time>2022-05-02T23:09:13Z</time>
      </trkpt>
      <trkpt lat="43.06979" lon="2.57832">
        <ele>169</ele>
        <time>2022-05-02T23:09:37Z</time>
      </trkpt>
      <trkpt lat="43.06981" lon="2.57888">
        <ele>169</ele>
        <time>2022-05-02T23:09:44Z</time>
      </trkpt>
      <trkpt lat="43.06988" lon="2.57929">
        <ele>169</ele>
        <time>2022-05-02T23:09:49Z</time>
      </trkpt>
      <trkpt lat="43.06994" lon="2.57952">
        <ele>168</ele>
        <time>2022-05-02T23:09:52Z</time>
      </trkpt>
      <trkpt lat="43.07016" lon="2.57992">
        <ele>170</ele>
        <time>2022-05-02T23:09:59Z</time>
      </trkpt>
      <trkpt lat="43.07024" lon="2.58012">
        <ele>171</ele>
        <time>2022-05-02T23:10:02Z</time>
      </trkpt>
      <trkpt lat="43.07036" lon="2.58073">
        <ele>172</ele>
        <time>2022-05-02T23:10:10Z</time>
      </trkpt>
      <trkpt lat="43.07037" lon="2.58122">
        <ele>171</ele>
        <time>2022-05-02T23:10:17Z</time>
      </trkpt>
      <trkpt lat="43.0703" lon="2.58252">
        <ele>166</ele>
        <time>2022-05-02T23:10:33Z</time>
      </trkpt>
      <trkpt lat="43.07033" lon="2.58274">
        <ele>166</ele>
        <time>2022-05-02T23:10:36Z</time>
      </trkpt>
      <trkpt lat="43.07065" lon="2.58339">
        <ele>164</ele>
        <time>2022-05-02T23:10:47Z</time>
      </trkpt>
      <trkpt lat="43.07069" lon="2.58351">
        <ele>164</ele>
        <time>2022-05-02T23:10:48Z</time>
      </trkpt>
      <trkpt lat="43.07069" lon="2.5837">
        <ele>163</ele>
        <time>2022-05-02T23:10:51Z</time>
      </trkpt>
      <trkpt lat="43.07063" lon="2.584">
        <ele>161</ele>
        <time>2022-05-02T23:10:55Z</time>
      </trkpt>
      <trkpt lat="43.07052" lon="2.58432">
        <ele>161</ele>
        <time>2022-05-02T23:10:59Z</time>
      </trkpt>
      <trkpt lat="43.07036" lon="2.58463">
        <ele>160</ele>
        <time>2022-05-02T23:11:04Z</time>
      </trkpt>
      <trkpt lat="43.07017" lon="2.58506">
        <ele>158</ele>
        <time>2022-05-02T23:11:11Z</time>
      </trkpt>
      <trkpt lat="43.07013" lon="2.58528">
        <ele>158</ele>
        <time>2022-05-02T23:11:14Z</time>
      </trkpt>
      <trkpt lat="43.07013" lon="2.58567">
        <ele>157</ele>
        <time>2022-05-02T23:11:19Z</time>
      </trkpt>
      <trkpt lat="43.07016" lon="2.58594">
        <ele>157</ele>
        <time>2022-05-02T23:11:22Z</time>
      </trkpt>
      <trkpt lat="43.07038" lon="2.58685">
        <ele>156</ele>
        <time>2022-05-02T23:11:35Z</time>
      </trkpt>
      <trkpt lat="43.0704" lon="2.58703">
        <ele>156</ele>
        <time>2022-05-02T23:11:37Z</time>
      </trkpt>
      <trkpt lat="43.0704" lon="2.58719">
        <ele>156</ele>
        <time>2022-05-02T23:11:39Z</time>
      </trkpt>
      <trkpt lat="43.07034" lon="2.58761">
        <ele>155</ele>
        <time>2022-05-02T23:11:45Z</time>
      </trkpt>
      <trkpt lat="43.07036" lon="2.58783">
        <ele>155</ele>
        <time>2022-05-02T23:11:48Z</time>
      </trkpt>
      <trkpt lat="43.07049" lon="2.5885">
        <ele>155</ele>
        <time>2022-05-02T23:11:57Z</time>
      </trkpt>
      <trkpt lat="43.07057" lon="2.58872">
        <ele>155</ele>
        <time>2022-05-02T23:12:00Z</time>
      </trkpt>
      <trkpt lat="43.0708" lon="2.58909">
        <ele>156</ele>
        <time>2022-05-02T23:12:06Z</time>
      </trkpt>
      <trkpt lat="43.07088" lon="2.58925">
        <ele>157</ele>
        <time>2022-05-02T23:12:09Z</time>
      </trkpt>
      <trkpt lat="43.07092" lon="2.58942">
        <ele>158</ele>
        <time>2022-05-02T23:12:11Z</time>
      </trkpt>
      <trkpt lat="43.07094" lon="2.58966">
        <ele>159</ele>
        <time>2022-05-02T23:12:14Z</time>
      </trkpt>
      <trkpt lat="43.0708" lon="2.59172">
        <ele>157</ele>
        <time>2022-05-02T23:12:41Z</time>
      </trkpt>
      <trkpt lat="43.0708" lon="2.59217">
        <ele>156</ele>
        <time>2022-05-02T23:12:47Z</time>
      </trkpt>
      <trkpt lat="43.07077" lon="2.59252">
        <ele>156</ele>
        <time>2022-05-02T23:12:52Z</time>
      </trkpt>
      <trkpt lat="43.07074" lon="2.59261">
        <ele>156</ele>
        <time>2022-05-02T23:12:53Z</time>
      </trkpt>
      <trkpt lat="43.07067" lon="2.59281">
        <ele>156</ele>
        <time>2022-05-02T23:12:56Z</time>
      </trkpt>
      <trkpt lat="43.07058" lon="2.59302">
        <ele>157</ele>
        <time>2022-05-02T23:12:59Z</time>
      </trkpt>
      <trkpt lat="43.0705" lon="2.59328">
        <ele>157</ele>
        <time>2022-05-02T23:13:03Z</time>
      </trkpt>
      <trkpt lat="43.07046" lon="2.59345">
        <ele>157</ele>
        <time>2022-05-02T23:13:05Z</time>
      </trkpt>
      <trkpt lat="43.07044" lon="2.59362">
        <ele>157</ele>
        <time>2022-05-02T23:13:07Z</time>
      </trkpt>
      <trkpt lat="43.07045" lon="2.59407">
        <ele>158</ele>
        <time>2022-05-02T23:13:13Z</time>
      </trkpt>
      <trkpt lat="43.0705" lon="2.59599">
        <ele>160</ele>
        <time>2022-05-02T23:13:38Z</time>
      </trkpt>
      <trkpt lat="43.07052" lon="2.59613">
        <ele>161</ele>
        <time>2022-05-02T23:13:40Z</time>
      </trkpt>
      <trkpt lat="43.07057" lon="2.59629">
        <ele>161</ele>
        <time>2022-05-02T23:13:42Z</time>
      </trkpt>
      <trkpt lat="43.07066" lon="2.59645">
        <ele>163</ele>
        <time>2022-05-02T23:13:45Z</time>
      </trkpt>
      <trkpt lat="43.0709" lon="2.59677">
        <ele>165</ele>
        <time>2022-05-02T23:13:51Z</time>
      </trkpt>
      <trkpt lat="43.07101" lon="2.59692">
        <ele>165</ele>
        <time>2022-05-02T23:13:53Z</time>
      </trkpt>
      <trkpt lat="43.07211" lon="2.59846">
        <ele>170</ele>
        <time>2022-05-02T23:14:21Z</time>
      </trkpt>
      <trkpt lat="43.07219" lon="2.5986">
        <ele>170</ele>
        <time>2022-05-02T23:14:24Z</time>
      </trkpt>
      <trkpt lat="43.07225" lon="2.59885">
        <ele>171</ele>
        <time>2022-05-02T23:14:27Z</time>
      </trkpt>
      <trkpt lat="43.07232" lon="2.59923">
        <ele>171</ele>
        <time>2022-05-02T23:14:32Z</time>
      </trkpt>
      <trkpt lat="43.07234" lon="2.59938">
        <ele>171</ele>
        <time>2022-05-02T23:14:34Z</time>
      </trkpt>
      <trkpt lat="43.07238" lon="2.59954">
        <ele>170</ele>
        <time>2022-05-02T23:14:36Z</time>
      </trkpt>
      <trkpt lat="43.07245" lon="2.59955">
        <ele>170</ele>
        <time>2022-05-02T23:14:38Z</time>
      </trkpt>
      <trkpt lat="43.07254" lon="2.59962">
        <ele>169</ele>
        <time>2022-05-02T23:14:40Z</time>
      </trkpt>
      <trkpt lat="43.07262" lon="2.59974">
        <ele>168</ele>
        <time>2022-05-02T23:14:42Z</time>
      </trkpt>
      <trkpt lat="43.07265" lon="2.59996">
        <ele>167</ele>
        <time>2022-05-02T23:14:45Z</time>
      </trkpt>
      <trkpt lat="43.07259" lon="2.60022">
        <ele>166</ele>
        <time>2022-05-02T23:14:48Z</time>
      </trkpt>
      <trkpt lat="43.07234" lon="2.60069">
        <ele>164</ele>
        <time>2022-05-02T23:14:56Z</time>
      </trkpt>
      <trkpt lat="43.07222" lon="2.60082">
        <ele>164</ele>
        <time>2022-05-02T23:14:58Z</time>
      </trkpt>
      <trkpt lat="43.07215" lon="2.60097">
        <ele>163</ele>
        <time>2022-05-02T23:15:01Z</time>
      </trkpt>
      <trkpt lat="43.07217" lon="2.60111">
        <ele>161</ele>
        <time>2022-05-02T23:15:03Z</time>
      </trkpt>
      <trkpt lat="43.07227" lon="2.60124">
        <ele>157</ele>
        <time>2022-05-02T23:15:05Z</time>
      </trkpt>
      <trkpt lat="43.07239" lon="2.60121">
        <ele>156</ele>
        <time>2022-05-02T23:15:07Z</time>
      </trkpt>
      <trkpt lat="43.07273" lon="2.60092">
        <ele>155</ele>
        <time>2022-05-02T23:15:14Z</time>
      </trkpt>
      <trkpt lat="43.07287" lon="2.60068">
        <ele>156</ele>
        <time>2022-05-02T23:15:18Z</time>
      </trkpt>
      <trkpt lat="43.07303" lon="2.60028">
        <ele>159</ele>
        <time>2022-05-02T23:15:24Z</time>
      </trkpt>
      <trkpt lat="43.07318" lon="2.60017">
        <ele>159</ele>
        <time>2022-05-02T23:15:27Z</time>
      </trkpt>
      <trkpt lat="43.07335" lon="2.60022">
        <ele>156</ele>
        <time>2022-05-02T23:15:30Z</time>
      </trkpt>
      <trkpt lat="43.07352" lon="2.60031">
        <ele>153</ele>
        <time>2022-05-02T23:15:34Z</time>
      </trkpt>
      <trkpt lat="43.07371" lon="2.60024">
        <ele>153</ele>
        <time>2022-05-02T23:15:37Z</time>
      </trkpt>
      <trkpt lat="43.07402" lon="2.60006">
        <ele>155</ele>
        <time>2022-05-02T23:15:43Z</time>
      </trkpt>
      <trkpt lat="43.07499" lon="2.59998">
        <ele>152</ele>
        <time>2022-05-02T23:16:00Z</time>
      </trkpt>
      <trkpt lat="43.07524" lon="2.60012">
        <ele>149</ele>
        <time>2022-05-02T23:16:05Z</time>
      </trkpt>
      <trkpt lat="43.07541" lon="2.60013">
        <ele>149</ele>
        <time>2022-05-02T23:16:08Z</time>
      </trkpt>
      <trkpt lat="43.07573" lon="2.6">
        <ele>151</ele>
        <time>2022-05-02T23:16:14Z</time>
      </trkpt>
      <trkpt lat="43.07583" lon="2.6">
        <ele>151</ele>
        <time>2022-05-02T23:16:16Z</time>
      </trkpt>
      <trkpt lat="43.07641" lon="2.60016">
        <ele>151</ele>
        <time>2022-05-02T23:16:26Z</time>
      </trkpt>
      <trkpt lat="43.07652" lon="2.60022">
        <ele>151</ele>
        <time>2022-05-02T23:16:29Z</time>
      </trkpt>
      <trkpt lat="43.0767" lon="2.60037">
        <ele>150</ele>
        <time>2022-05-02T23:16:32Z</time>
      </trkpt>
      <trkpt lat="43.07678" lon="2.60049">
        <ele>150</ele>
        <time>2022-05-02T23:16:34Z</time>
      </trkpt>
      <trkpt lat="43.07683" lon="2.60061">
        <ele>149</ele>
        <time>2022-05-02T23:16:36Z</time>
      </trkpt>
      <trkpt lat="43.07697" lon="2.60111">
        <ele>144</ele>
        <time>2022-05-02T23:16:43Z</time>
      </trkpt>
      <trkpt lat="43.07703" lon="2.60118">
        <ele>144</ele>
        <time>2022-05-02T23:16:45Z</time>
      </trkpt>
      <trkpt lat="43.0771" lon="2.60121">
        <ele>144</ele>
        <time>2022-05-02T23:16:46Z</time>
      </trkpt>
      <trkpt lat="43.07722" lon="2.60126">
        <ele>145</ele>
        <time>2022-05-02T23:16:48Z</time>
      </trkpt>
      <trkpt lat="43.07741" lon="2.60133">
        <ele>145</ele>
        <time>2022-05-02T23:16:52Z</time>
      </trkpt>
      <trkpt lat="43.07768" lon="2.60155">
        <ele>144</ele>
        <time>2022-05-02T23:16:57Z</time>
      </trkpt>
      <trkpt lat="43.07786" lon="2.60186">
        <ele>142</ele>
        <time>2022-05-02T23:17:02Z</time>
      </trkpt>
      <trkpt lat="43.07793" lon="2.60193">
        <ele>142</ele>
        <time>2022-05-02T23:17:04Z</time>
      </trkpt>
      <trkpt lat="43.0782" lon="2.60211">
        <ele>143</ele>
        <time>2022-05-02T23:17:09Z</time>
      </trkpt>
      <trkpt lat="43.07835" lon="2.60225">
        <ele>143</ele>
        <time>2022-05-02T23:17:12Z</time>
      </trkpt>
      <trkpt lat="43.07854" lon="2.6025">
        <ele>144</ele>
        <time>2022-05-02T23:17:17Z</time>
      </trkpt>
      <trkpt lat="43.0787" lon="2.60277">
        <ele>145</ele>
        <time>2022-05-02T23:17:22Z</time>
      </trkpt>
      <trkpt lat="43.07895" lon="2.60305">
        <ele>145</ele>
        <time>2022-05-02T23:17:27Z</time>
      </trkpt>
      <trkpt lat="43.07946" lon="2.60383">
        <ele>143</ele>
        <time>2022-05-02T23:17:41Z</time>
      </trkpt>
      <trkpt lat="43.07967" lon="2.60409">
        <ele>143</ele>
        <time>2022-05-02T23:17:46Z</time>
      </trkpt>
      <trkpt lat="43.07973" lon="2.60423">
        <ele>143</ele>
        <time>2022-05-02T23:17:48Z</time>
      </trkpt>
      <trkpt lat="43.07977" lon="2.6044">
        <ele>142</ele>
        <time>2022-05-02T23:17:50Z</time>
      </trkpt>
      <trkpt lat="43.07979" lon="2.60467">
        <ele>139</ele>
        <time>2022-05-02T23:17:54Z</time>
      </trkpt>
      <trkpt lat="43.07983" lon="2.60483">
        <ele>138</ele>
        <time>2022-05-02T23:17:56Z</time>
      </trkpt>
      <trkpt lat="43.0799" lon="2.60495">
        <ele>138</ele>
        <time>2022-05-02T23:17:58Z</time>
      </trkpt>
      <trkpt lat="43.07999" lon="2.60506">
        <ele>137</ele>
        <time>2022-05-02T23:18:00Z</time>
      </trkpt>
      <trkpt lat="43.08016" lon="2.6052">
        <ele>140</ele>
        <time>2022-05-02T23:18:04Z</time>
      </trkpt>
      <trkpt lat="43.08024" lon="2.6053">
        <ele>141</ele>
        <time>2022-05-02T23:18:06Z</time>
      </trkpt>
      <trkpt lat="43.08029" lon="2.60542">
        <ele>141</ele>
        <time>2022-05-02T23:18:08Z</time>
      </trkpt>
      <trkpt lat="43.0803" lon="2.60549">
        <ele>141</ele>
        <time>2022-05-02T23:18:09Z</time>
      </trkpt>
      <trkpt lat="43.08032" lon="2.60562">
        <ele>140</ele>
        <time>2022-05-02T23:18:10Z</time>
      </trkpt>
      <trkpt lat="43.08041" lon="2.60668">
        <ele>137</ele>
        <time>2022-05-02T23:18:24Z</time>
      </trkpt>
      <trkpt lat="43.08047" lon="2.60691">
        <ele>138</ele>
        <time>2022-05-02T23:18:27Z</time>
      </trkpt>
      <trkpt lat="43.08059" lon="2.60704">
        <ele>139</ele>
        <time>2022-05-02T23:18:30Z</time>
      </trkpt>
      <trkpt lat="43.08077" lon="2.60706">
        <ele>141</ele>
        <time>2022-05-02T23:18:33Z</time>
      </trkpt>
      <trkpt lat="43.08105" lon="2.60701">
        <ele>144</ele>
        <time>2022-05-02T23:18:38Z</time>
      </trkpt>
      <trkpt lat="43.08112" lon="2.607">
        <ele>145</ele>
        <time>2022-05-02T23:18:40Z</time>
      </trkpt>
      <trkpt lat="43.08118" lon="2.60699">
        <ele>146</ele>
        <time>2022-05-02T23:18:41Z</time>
      </trkpt>
      <trkpt lat="43.08121" lon="2.60698">
        <ele>146</ele>
        <time>2022-05-02T23:18:41Z</time>
      </trkpt>
      <trkpt lat="43.08127" lon="2.60699">
        <ele>147</ele>
        <time>2022-05-02T23:18:42Z</time>
      </trkpt>
      <trkpt lat="43.08129" lon="2.607">
        <ele>147</ele>
        <time>2022-05-02T23:18:43Z</time>
      </trkpt>
      <trkpt lat="43.08134" lon="2.60708">
        <ele>147</ele>
        <time>2022-05-02T23:18:44Z</time>
      </trkpt>
      <trkpt lat="43.08136" lon="2.6072">
        <ele>147</ele>
        <time>2022-05-02T23:18:46Z</time>
      </trkpt>
      <trkpt lat="43.08135" lon="2.60745">
        <ele>147</ele>
        <time>2022-05-02T23:18:49Z</time>
      </trkpt>
      <trkpt lat="43.08139" lon="2.60767">
        <ele>146</ele>
        <time>2022-05-02T23:18:52Z</time>
      </trkpt>
      <trkpt lat="43.08172" lon="2.60835">
        <ele>146</ele>
        <time>2022-05-02T23:19:02Z</time>
      </trkpt>
      <trkpt lat="43.08189" lon="2.60861">
        <ele>146</ele>
        <time>2022-05-02T23:19:07Z</time>
      </trkpt>
      <trkpt lat="43.08219" lon="2.60887">
        <ele>148</ele>
        <time>2022-05-02T23:19:13Z</time>
      </trkpt>
      <trkpt lat="43.08237" lon="2.60912">
        <ele>147</ele>
        <time>2022-05-02T23:19:18Z</time>
      </trkpt>
      <trkpt lat="43.08269" lon="2.60967">
        <ele>144</ele>
        <time>2022-05-02T23:19:27Z</time>
      </trkpt>
      <trkpt lat="43.08297" lon="2.61017">
        <ele>140</ele>
        <time>2022-05-02T23:19:35Z</time>
      </trkpt>
      <trkpt lat="43.0831" lon="2.6103">
        <ele>140</ele>
        <time>2022-05-02T23:19:38Z</time>
      </trkpt>
      <trkpt lat="43.08337" lon="2.61039">
        <ele>141</ele>
        <time>2022-05-02T23:19:43Z</time>
      </trkpt>
      <trkpt lat="43.08401" lon="2.61116">
        <ele>147</ele>
        <time>2022-05-02T23:19:58Z</time>
      </trkpt>
      <trkpt lat="43.0841" lon="2.61139">
        <ele>145</ele>
        <time>2022-05-02T23:20:01Z</time>
      </trkpt>
      <trkpt lat="43.08414" lon="2.61166">
        <ele>141</ele>
        <time>2022-05-02T23:20:05Z</time>
      </trkpt>
      <trkpt lat="43.08423" lon="2.61177">
        <ele>141</ele>
        <time>2022-05-02T23:20:07Z</time>
      </trkpt>
      <trkpt lat="43.08465" lon="2.61211">
        <ele>145</ele>
        <time>2022-05-02T23:20:16Z</time>
      </trkpt>
      <trkpt lat="43.08484" lon="2.61244">
        <ele>144</ele>
        <time>2022-05-02T23:20:21Z</time>
      </trkpt>
      <trkpt lat="43.08498" lon="2.61259">
        <ele>144</ele>
        <time>2022-05-02T23:20:24Z</time>
      </trkpt>
      <trkpt lat="43.08585" lon="2.61328">
        <ele>146</ele>
        <time>2022-05-02T23:20:42Z</time>
      </trkpt>
      <trkpt lat="43.08597" lon="2.61341">
        <ele>145</ele>
        <time>2022-05-02T23:20:45Z</time>
      </trkpt>
      <trkpt lat="43.08611" lon="2.61361">
        <ele>143</ele>
        <time>2022-05-02T23:20:49Z</time>
      </trkpt>
      <trkpt lat="43.08648" lon="2.61434">
        <ele>138</ele>
        <time>2022-05-02T23:21:00Z</time>
      </trkpt>
      <trkpt lat="43.08654" lon="2.61441">
        <ele>138</ele>
        <time>2022-05-02T23:21:02Z</time>
      </trkpt>
      <trkpt lat="43.08662" lon="2.61444">
        <ele>138</ele>
        <time>2022-05-02T23:21:03Z</time>
      </trkpt>
      <trkpt lat="43.08703" lon="2.6144">
        <ele>141</ele>
        <time>2022-05-02T23:21:10Z</time>
      </trkpt>
      <trkpt lat="43.08738" lon="2.61441">
        <ele>142</ele>
        <time>2022-05-02T23:21:17Z</time>
      </trkpt>
      <trkpt lat="43.08753" lon="2.61443">
        <ele>142</ele>
        <time>2022-05-02T23:21:19Z</time>
      </trkpt>
      <trkpt lat="43.08784" lon="2.61456">
        <ele>144</ele>
        <time>2022-05-02T23:21:25Z</time>
      </trkpt>
      <trkpt lat="43.08807" lon="2.61466">
        <ele>144</ele>
        <time>2022-05-02T23:21:29Z</time>
      </trkpt>
      <trkpt lat="43.08817" lon="2.61474">
        <ele>144</ele>
        <time>2022-05-02T23:21:31Z</time>
      </trkpt>
      <trkpt lat="43.08852" lon="2.61509">
        <ele>140</ele>
        <time>2022-05-02T23:21:39Z</time>
      </trkpt>
      <trkpt lat="43.08891" lon="2.61525">
        <ele>140</ele>
        <time>2022-05-02T23:21:46Z</time>
      </trkpt>
      <trkpt lat="43.08928" lon="2.61535">
        <ele>141</ele>
        <time>2022-05-02T23:21:53Z</time>
      </trkpt>
      <trkpt lat="43.08938" lon="2.6154">
        <ele>141</ele>
        <time>2022-05-02T23:21:55Z</time>
      </trkpt>
      <trkpt lat="43.08971" lon="2.61561">
        <ele>138</ele>
        <time>2022-05-02T23:22:02Z</time>
      </trkpt>
      <trkpt lat="43.09025" lon="2.61589">
        <ele>137</ele>
        <time>2022-05-02T23:22:12Z</time>
      </trkpt>
      <trkpt lat="43.09035" lon="2.61596">
        <ele>137</ele>
        <time>2022-05-02T23:22:14Z</time>
      </trkpt>
      <trkpt lat="43.09076" lon="2.61625">
        <ele>138</ele>
        <time>2022-05-02T23:22:22Z</time>
      </trkpt>
      <trkpt lat="43.091" lon="2.61636">
        <ele>138</ele>
        <time>2022-05-02T23:22:26Z</time>
      </trkpt>
      <trkpt lat="43.09102" lon="2.6164">
        <ele>137</ele>
        <time>2022-05-02T23:22:27Z</time>
      </trkpt>
      <trkpt lat="43.09107" lon="2.61667">
        <ele>133</ele>
        <time>2022-05-02T23:22:31Z</time>
      </trkpt>
      <trkpt lat="43.09113" lon="2.61698">
        <ele>131</ele>
        <time>2022-05-02T23:22:35Z</time>
      </trkpt>
      <trkpt lat="43.09117" lon="2.61707">
        <ele>130</ele>
        <time>2022-05-02T23:22:36Z</time>
      </trkpt>
      <trkpt lat="43.09119" lon="2.6171">
        <ele>130</ele>
        <time>2022-05-02T23:22:37Z</time>
      </trkpt>
      <trkpt lat="43.09134" lon="2.61726">
        <ele>129</ele>
        <time>2022-05-02T23:22:40Z</time>
      </trkpt>
      <trkpt lat="43.09143" lon="2.61728">
        <ele>129</ele>
        <time>2022-05-02T23:22:42Z</time>
      </trkpt>
      <trkpt lat="43.09156" lon="2.61725">
        <ele>130</ele>
        <time>2022-05-02T23:22:44Z</time>
      </trkpt>
      <trkpt lat="43.09168" lon="2.61729">
        <ele>130</ele>
        <time>2022-05-02T23:22:46Z</time>
      </trkpt>
      <trkpt lat="43.092" lon="2.61759">
        <ele>127</ele>
        <time>2022-05-02T23:22:53Z</time>
      </trkpt>
      <trkpt lat="43.09218" lon="2.61789">
        <ele>126</ele>
        <time>2022-05-02T23:22:58Z</time>
      </trkpt>
      <trkpt lat="43.09237" lon="2.61811">
        <ele>125</ele>
        <time>2022-05-02T23:23:03Z</time>
      </trkpt>
      <trkpt lat="43.09242" lon="2.61812">
        <ele>125</ele>
        <time>2022-05-02T23:23:04Z</time>
      </trkpt>
      <trkpt lat="43.09262" lon="2.6181">
        <ele>125</ele>
        <time>2022-05-02T23:23:07Z</time>
      </trkpt>
      <trkpt lat="43.09286" lon="2.61796">
        <ele>124</ele>
        <time>2022-05-02T23:23:12Z</time>
      </trkpt>
      <trkpt lat="43.09292" lon="2.61795">
        <ele>124</ele>
        <time>2022-05-02T23:23:13Z</time>
      </trkpt>
      <trkpt lat="43.09303" lon="2.61792">
        <ele>123</ele>
        <time>2022-05-02T23:23:15Z</time>
      </trkpt>
      <trkpt lat="43.09309" lon="2.61814">
        <ele>122</ele>
        <time>2022-05-02T23:23:18Z</time>
      </trkpt>
      <trkpt lat="43.09312" lon="2.61848">
        <ele>122</ele>
        <time>2022-05-02T23:23:22Z</time>
      </trkpt>
      <trkpt lat="43.0931" lon="2.61863">
        <ele>122</ele>
        <time>2022-05-02T23:23:24Z</time>
      </trkpt>
      <trkpt lat="43.09269" lon="2.6198">
        <ele>126</ele>
        <time>2022-05-02T23:23:41Z</time>
      </trkpt>
      <trkpt lat="43.09258" lon="2.61999">
        <ele>127</ele>
        <time>2022-05-02T23:23:44Z</time>
      </trkpt>
      <trkpt lat="43.09236" lon="2.62026">
        <ele>128</ele>
        <time>2022-05-02T23:23:50Z</time>
      </trkpt>
      <trkpt lat="43.09214" lon="2.62048">
        <ele>128</ele>
        <time>2022-05-02T23:23:55Z</time>
      </trkpt>
      <trkpt lat="43.09179" lon="2.6208">
        <ele>129</ele>
        <time>2022-05-02T23:24:02Z</time>
      </trkpt>
      <trkpt lat="43.09171" lon="2.62085">
        <ele>129</ele>
        <time>2022-05-02T23:24:04Z</time>
      </trkpt>
      <trkpt lat="43.09153" lon="2.62091">
        <ele>129</ele>
        <time>2022-05-02T23:24:07Z</time>
      </trkpt>
      <trkpt lat="43.09125" lon="2.62088">
        <ele>129</ele>
        <time>2022-05-02T23:24:12Z</time>
      </trkpt>
      <trkpt lat="43.09102" lon="2.62082">
        <ele>130</ele>
        <time>2022-05-02T23:24:16Z</time>
      </trkpt>
      <trkpt lat="43.09094" lon="2.62136">
        <ele>130</ele>
        <time>2022-05-02T23:24:23Z</time>
      </trkpt>
      <trkpt lat="43.09091" lon="2.62194">
        <ele>130</ele>
        <time>2022-05-02T23:24:31Z</time>
      </trkpt>
      <trkpt lat="43.09058" lon="2.62219">
        <ele>131</ele>
        <time>2022-05-02T23:24:37Z</time>
      </trkpt>
      <trkpt lat="43.09041" lon="2.62221">
        <ele>131</ele>
        <time>2022-05-02T23:24:40Z</time>
      </trkpt>
      <trkpt lat="43.09042" lon="2.62175">
        <ele>131</ele>
        <time>2022-05-02T23:24:46Z</time>
      </trkpt>
    </trkseg>
  </trk>
  <trk>
    <name><![CDATA[Lagrasse-110km]]></name>
    <extensions>
      <line xmlns="http://www.topografix.com/GPX/gpx_style/0/2">
        <color>000000</color>
        <width>7</width>
          <extensions>
            <sens>1</sens>
          </extensions>
      </line>
    </extensions>
    <trkseg>
      <trkpt lat="43.09042" lon="2.62175">
        <ele>131</ele>
        <time>2022-05-02T17:52:31Z</time>
      </trkpt>
      <trkpt lat="43.09041" lon="2.62221">
        <ele>131</ele>
        <time>2022-05-02T17:52:37Z</time>
      </trkpt>
      <trkpt lat="43.0901" lon="2.62223">
        <ele>132</ele>
        <time>2022-05-02T17:52:43Z</time>
      </trkpt>
      <trkpt lat="43.08993" lon="2.62233">
        <ele>133</ele>
        <time>2022-05-02T17:52:46Z</time>
      </trkpt>
      <trkpt lat="43.08989" lon="2.6222">
        <ele>134</ele>
        <time>2022-05-02T17:52:48Z</time>
      </trkpt>
      <trkpt lat="43.08987" lon="2.62213">
        <ele>134</ele>
        <time>2022-05-02T17:52:49Z</time>
      </trkpt>
      <trkpt lat="43.08971" lon="2.62154">
        <ele>135</ele>
        <time>2022-05-02T17:52:57Z</time>
      </trkpt>
      <trkpt lat="43.08969" lon="2.62125">
        <ele>135</ele>
        <time>2022-05-02T17:53:01Z</time>
      </trkpt>
      <trkpt lat="43.08969" lon="2.62093">
        <ele>136</ele>
        <time>2022-05-02T17:53:05Z</time>
      </trkpt>
      <trkpt lat="43.08971" lon="2.62062">
        <ele>136</ele>
        <time>2022-05-02T17:53:09Z</time>
      </trkpt>
      <trkpt lat="43.08975" lon="2.62042">
        <ele>136</ele>
        <time>2022-05-02T17:53:11Z</time>
      </trkpt>
      <trkpt lat="43.08968" lon="2.62037">
        <ele>137</ele>
        <time>2022-05-02T17:53:13Z</time>
      </trkpt>
      <trkpt lat="43.08965" lon="2.62035">
        <ele>137</ele>
        <time>2022-05-02T17:53:13Z</time>
      </trkpt>
      <trkpt lat="43.08959" lon="2.6203">
        <ele>137</ele>
        <time>2022-05-02T17:53:15Z</time>
      </trkpt>
      <trkpt lat="43.08919" lon="2.61996">
        <ele>139</ele>
        <time>2022-05-02T17:53:23Z</time>
      </trkpt>
      <trkpt lat="43.08901" lon="2.61983">
        <ele>139</ele>
        <time>2022-05-02T17:53:27Z</time>
      </trkpt>
      <trkpt lat="43.08877" lon="2.61965">
        <ele>140</ele>
        <time>2022-05-02T17:53:32Z</time>
      </trkpt>
      <trkpt lat="43.08826" lon="2.61923">
        <ele>139</ele>
        <time>2022-05-02T17:53:42Z</time>
      </trkpt>
      <trkpt lat="43.08794" lon="2.61905">
        <ele>137</ele>
        <time>2022-05-02T17:53:48Z</time>
      </trkpt>
      <trkpt lat="43.08713" lon="2.61885">
        <ele>139</ele>
        <time>2022-05-02T17:54:03Z</time>
      </trkpt>
      <trkpt lat="43.08684" lon="2.61872">
        <ele>140</ele>
        <time>2022-05-02T17:54:08Z</time>
      </trkpt>
      <trkpt lat="43.08656" lon="2.61856">
        <ele>139</ele>
        <time>2022-05-02T17:54:14Z</time>
      </trkpt>
      <trkpt lat="43.08515" lon="2.61764">
        <ele>139</ele>
        <time>2022-05-02T17:54:42Z</time>
      </trkpt>
      <trkpt lat="43.08491" lon="2.61741">
        <ele>139</ele>
        <time>2022-05-02T17:54:47Z</time>
      </trkpt>
      <trkpt lat="43.08418" lon="2.61644">
        <ele>137</ele>
        <time>2022-05-02T17:55:05Z</time>
      </trkpt>
      <trkpt lat="43.08378" lon="2.61593">
        <ele>137</ele>
        <time>2022-05-02T17:55:15Z</time>
      </trkpt>
      <trkpt lat="43.08349" lon="2.61568">
        <ele>137</ele>
        <time>2022-05-02T17:55:21Z</time>
      </trkpt>
      <trkpt lat="43.08265" lon="2.61512">
        <ele>137</ele>
        <time>2022-05-02T17:55:37Z</time>
      </trkpt>
      <trkpt lat="43.08169" lon="2.61429">
        <ele>139</ele>
        <time>2022-05-02T17:55:58Z</time>
      </trkpt>
      <trkpt lat="43.08147" lon="2.61406">
        <ele>140</ele>
        <time>2022-05-02T17:56:02Z</time>
      </trkpt>
      <trkpt lat="43.08134" lon="2.61384">
        <ele>140</ele>
        <time>2022-05-02T17:56:06Z</time>
      </trkpt>
      <trkpt lat="43.08114" lon="2.61321">
        <ele>138</ele>
        <time>2022-05-02T17:56:15Z</time>
      </trkpt>
      <trkpt lat="43.08105" lon="2.61302">
        <ele>136</ele>
        <time>2022-05-02T17:56:18Z</time>
      </trkpt>
      <trkpt lat="43.08098" lon="2.61295">
        <ele>136</ele>
        <time>2022-05-02T17:56:20Z</time>
      </trkpt>
      <trkpt lat="43.08091" lon="2.61289">
        <ele>136</ele>
        <time>2022-05-02T17:56:21Z</time>
      </trkpt>
      <trkpt lat="43.08073" lon="2.61278">
        <ele>137</ele>
        <time>2022-05-02T17:56:25Z</time>
      </trkpt>
      <trkpt lat="43.07995" lon="2.61247">
        <ele>140</ele>
        <time>2022-05-02T17:56:39Z</time>
      </trkpt>
      <trkpt lat="43.07981" lon="2.61235">
        <ele>140</ele>
        <time>2022-05-02T17:56:42Z</time>
      </trkpt>
      <trkpt lat="43.07976" lon="2.61228">
        <ele>139</ele>
        <time>2022-05-02T17:56:43Z</time>
      </trkpt>
      <trkpt lat="43.07969" lon="2.61215">
        <ele>139</ele>
        <time>2022-05-02T17:56:45Z</time>
      </trkpt>
      <trkpt lat="43.07965" lon="2.61203">
        <ele>139</ele>
        <time>2022-05-02T17:56:47Z</time>
      </trkpt>
      <trkpt lat="43.07961" lon="2.61182">
        <ele>138</ele>
        <time>2022-05-02T17:56:50Z</time>
      </trkpt>
      <trkpt lat="43.07958" lon="2.61168">
        <ele>137</ele>
        <time>2022-05-02T17:56:52Z</time>
      </trkpt>
      <trkpt lat="43.07951" lon="2.61138">
        <ele>137</ele>
        <time>2022-05-02T17:56:56Z</time>
      </trkpt>
      <trkpt lat="43.07945" lon="2.61123">
        <ele>137</ele>
        <time>2022-05-02T17:56:58Z</time>
      </trkpt>
      <trkpt lat="43.07899" lon="2.61037">
        <ele>139</ele>
        <time>2022-05-02T17:57:12Z</time>
      </trkpt>
      <trkpt lat="43.07884" lon="2.61002">
        <ele>141</ele>
        <time>2022-05-02T17:57:17Z</time>
      </trkpt>
      <trkpt lat="43.07879" lon="2.60986">
        <ele>142</ele>
        <time>2022-05-02T17:57:19Z</time>
      </trkpt>
      <trkpt lat="43.07869" lon="2.60937">
        <ele>143</ele>
        <time>2022-05-02T17:57:26Z</time>
      </trkpt>
      <trkpt lat="43.07843" lon="2.60767">
        <ele>139</ele>
        <time>2022-05-02T17:57:49Z</time>
      </trkpt>
      <trkpt lat="43.07837" lon="2.60729">
        <ele>138</ele>
        <time>2022-05-02T17:57:54Z</time>
      </trkpt>
      <trkpt lat="43.07832" lon="2.60708">
        <ele>137</ele>
        <time>2022-05-02T17:57:57Z</time>
      </trkpt>
      <trkpt lat="43.07825" lon="2.60687">
        <ele>138</ele>
        <time>2022-05-02T17:58:00Z</time>
      </trkpt>
      <trkpt lat="43.07815" lon="2.60665">
        <ele>139</ele>
        <time>2022-05-02T17:58:03Z</time>
      </trkpt>
      <trkpt lat="43.07713" lon="2.60459">
        <ele>137</ele>
        <time>2022-05-02T17:58:35Z</time>
      </trkpt>
      <trkpt lat="43.07695" lon="2.60436">
        <ele>137</ele>
        <time>2022-05-02T17:58:40Z</time>
      </trkpt>
      <trkpt lat="43.07674" lon="2.60419">
        <ele>137</ele>
        <time>2022-05-02T17:58:44Z</time>
      </trkpt>
      <trkpt lat="43.07654" lon="2.60415">
        <ele>136</ele>
        <time>2022-05-02T17:58:48Z</time>
      </trkpt>
      <trkpt lat="43.0764" lon="2.60416">
        <ele>135</ele>
        <time>2022-05-02T17:58:50Z</time>
      </trkpt>
      <trkpt lat="43.07626" lon="2.60421">
        <ele>135</ele>
        <time>2022-05-02T17:58:53Z</time>
      </trkpt>
      <trkpt lat="43.07465" lon="2.60559">
        <ele>142</ele>
        <time>2022-05-02T17:59:26Z</time>
      </trkpt>
      <trkpt lat="43.0738" lon="2.60647">
        <ele>145</ele>
        <time>2022-05-02T17:59:45Z</time>
      </trkpt>
      <trkpt lat="43.0737" lon="2.60659">
        <ele>145</ele>
        <time>2022-05-02T17:59:48Z</time>
      </trkpt>
      <trkpt lat="43.0736" lon="2.60682">
        <ele>145</ele>
        <time>2022-05-02T17:59:51Z</time>
      </trkpt>
      <trkpt lat="43.07355" lon="2.60711">
        <ele>147</ele>
        <time>2022-05-02T17:59:55Z</time>
      </trkpt>
      <trkpt lat="43.07341" lon="2.60902">
        <ele>146</ele>
        <time>2022-05-02T18:00:20Z</time>
      </trkpt>
      <trkpt lat="43.07336" lon="2.60928">
        <ele>146</ele>
        <time>2022-05-02T18:00:24Z</time>
      </trkpt>
      <trkpt lat="43.07327" lon="2.60953">
        <ele>145</ele>
        <time>2022-05-02T18:00:27Z</time>
      </trkpt>
      <trkpt lat="43.07316" lon="2.60974">
        <ele>144</ele>
        <time>2022-05-02T18:00:31Z</time>
      </trkpt>
      <trkpt lat="43.0731" lon="2.60983">
        <ele>144</ele>
        <time>2022-05-02T18:00:32Z</time>
      </trkpt>
      <trkpt lat="43.07304" lon="2.60992">
        <ele>144</ele>
        <time>2022-05-02T18:00:34Z</time>
      </trkpt>
      <trkpt lat="43.07291" lon="2.61008">
        <ele>143</ele>
        <time>2022-05-02T18:00:37Z</time>
      </trkpt>
      <trkpt lat="43.07276" lon="2.61023">
        <ele>143</ele>
        <time>2022-05-02T18:00:40Z</time>
      </trkpt>
      <trkpt lat="43.07263" lon="2.61033">
        <ele>142</ele>
        <time>2022-05-02T18:00:43Z</time>
      </trkpt>
      <trkpt lat="43.07249" lon="2.61039">
        <ele>141</ele>
        <time>2022-05-02T18:00:45Z</time>
      </trkpt>
      <trkpt lat="43.0722" lon="2.61046">
        <ele>142</ele>
        <time>2022-05-02T18:00:51Z</time>
      </trkpt>
      <trkpt lat="43.0717" lon="2.61057">
        <ele>142</ele>
        <time>2022-05-02T18:01:00Z</time>
      </trkpt>
      <trkpt lat="43.07157" lon="2.61059">
        <ele>143</ele>
        <time>2022-05-02T18:01:02Z</time>
      </trkpt>
      <trkpt lat="43.07137" lon="2.61063">
        <ele>145</ele>
        <time>2022-05-02T18:01:06Z</time>
      </trkpt>
      <trkpt lat="43.07126" lon="2.61062">
        <ele>146</ele>
        <time>2022-05-02T18:01:08Z</time>
      </trkpt>
      <trkpt lat="43.07112" lon="2.61058">
        <ele>148</ele>
        <time>2022-05-02T18:01:10Z</time>
      </trkpt>
      <trkpt lat="43.07005" lon="2.60956">
        <ele>146</ele>
        <time>2022-05-02T18:01:33Z</time>
      </trkpt>
      <trkpt lat="43.06995" lon="2.60947">
        <ele>146</ele>
        <time>2022-05-02T18:01:35Z</time>
      </trkpt>
      <trkpt lat="43.06937" lon="2.60889">
        <ele>150</ele>
        <time>2022-05-02T18:01:48Z</time>
      </trkpt>
      <trkpt lat="43.06926" lon="2.60874">
        <ele>150</ele>
        <time>2022-05-02T18:01:51Z</time>
      </trkpt>
      <trkpt lat="43.06902" lon="2.60824">
        <ele>146</ele>
        <time>2022-05-02T18:01:59Z</time>
      </trkpt>
      <trkpt lat="43.06895" lon="2.60813">
        <ele>145</ele>
        <time>2022-05-02T18:02:01Z</time>
      </trkpt>
      <trkpt lat="43.06887" lon="2.60805">
        <ele>145</ele>
        <time>2022-05-02T18:02:02Z</time>
      </trkpt>
      <trkpt lat="43.06878" lon="2.60799">
        <ele>145</ele>
        <time>2022-05-02T18:02:04Z</time>
      </trkpt>
      <trkpt lat="43.06869" lon="2.60797">
        <ele>145</ele>
        <time>2022-05-02T18:02:06Z</time>
      </trkpt>
      <trkpt lat="43.06857" lon="2.60797">
        <ele>146</ele>
        <time>2022-05-02T18:02:08Z</time>
      </trkpt>
      <trkpt lat="43.06848" lon="2.60799">
        <ele>146</ele>
        <time>2022-05-02T18:02:10Z</time>
      </trkpt>
      <trkpt lat="43.06839" lon="2.60804">
        <ele>147</ele>
        <time>2022-05-02T18:02:11Z</time>
      </trkpt>
      <trkpt lat="43.06812" lon="2.60827">
        <ele>151</ele>
        <time>2022-05-02T18:02:17Z</time>
      </trkpt>
      <trkpt lat="43.06796" lon="2.60834">
        <ele>151</ele>
        <time>2022-05-02T18:02:20Z</time>
      </trkpt>
      <trkpt lat="43.06785" lon="2.60835">
        <ele>151</ele>
        <time>2022-05-02T18:02:22Z</time>
      </trkpt>
      <trkpt lat="43.06748" lon="2.60829">
        <ele>150</ele>
        <time>2022-05-02T18:02:29Z</time>
      </trkpt>
      <trkpt lat="43.06733" lon="2.60832">
        <ele>150</ele>
        <time>2022-05-02T18:02:31Z</time>
      </trkpt>
      <trkpt lat="43.06693" lon="2.6085">
        <ele>150</ele>
        <time>2022-05-02T18:02:39Z</time>
      </trkpt>
      <trkpt lat="43.06673" lon="2.6085">
        <ele>149</ele>
        <time>2022-05-02T18:02:42Z</time>
      </trkpt>
      <trkpt lat="43.06662" lon="2.60846">
        <ele>149</ele>
        <time>2022-05-02T18:02:44Z</time>
      </trkpt>
      <trkpt lat="43.06642" lon="2.60833">
        <ele>151</ele>
        <time>2022-05-02T18:02:48Z</time>
      </trkpt>
      <trkpt lat="43.06624" lon="2.60821">
        <ele>153</ele>
        <time>2022-05-02T18:02:52Z</time>
      </trkpt>
      <trkpt lat="43.06617" lon="2.6081">
        <ele>154</ele>
        <time>2022-05-02T18:02:54Z</time>
      </trkpt>
      <trkpt lat="43.06612" lon="2.60799">
        <ele>154</ele>
        <time>2022-05-02T18:02:55Z</time>
      </trkpt>
      <trkpt lat="43.06593" lon="2.6073">
        <ele>156</ele>
        <time>2022-05-02T18:03:05Z</time>
      </trkpt>
      <trkpt lat="43.06584" lon="2.60708">
        <ele>157</ele>
        <time>2022-05-02T18:03:08Z</time>
      </trkpt>
      <trkpt lat="43.06577" lon="2.60696">
        <ele>157</ele>
        <time>2022-05-02T18:03:10Z</time>
      </trkpt>
      <trkpt lat="43.06519" lon="2.60634">
        <ele>159</ele>
        <time>2022-05-02T18:03:23Z</time>
      </trkpt>
      <trkpt lat="43.06511" lon="2.60619">
        <ele>160</ele>
        <time>2022-05-02T18:03:26Z</time>
      </trkpt>
      <trkpt lat="43.06499" lon="2.60582">
        <ele>160</ele>
        <time>2022-05-02T18:03:31Z</time>
      </trkpt>
      <trkpt lat="43.06487" lon="2.60528">
        <ele>161</ele>
        <time>2022-05-02T18:03:38Z</time>
      </trkpt>
      <trkpt lat="43.06477" lon="2.60499">
        <ele>162</ele>
        <time>2022-05-02T18:03:42Z</time>
      </trkpt>
      <trkpt lat="43.06405" lon="2.60383">
        <ele>164</ele>
        <time>2022-05-02T18:04:02Z</time>
      </trkpt>
      <trkpt lat="43.06327" lon="2.6025">
        <ele>162</ele>
        <time>2022-05-02T18:04:24Z</time>
      </trkpt>
      <trkpt lat="43.06314" lon="2.60245">
        <ele>160</ele>
        <time>2022-05-02T18:04:27Z</time>
      </trkpt>
      <trkpt lat="43.06293" lon="2.60248">
        <ele>160</ele>
        <time>2022-05-02T18:04:31Z</time>
      </trkpt>
      <trkpt lat="43.06267" lon="2.60261">
        <ele>161</ele>
        <time>2022-05-02T18:04:36Z</time>
      </trkpt>
      <trkpt lat="43.06248" lon="2.60258">
        <ele>160</ele>
        <time>2022-05-02T18:04:39Z</time>
      </trkpt>
      <trkpt lat="43.0621" lon="2.6024">
        <ele>154</ele>
        <time>2022-05-02T18:04:46Z</time>
      </trkpt>
      <trkpt lat="43.0619" lon="2.60241">
        <ele>153</ele>
        <time>2022-05-02T18:04:50Z</time>
      </trkpt>
      <trkpt lat="43.06164" lon="2.60257">
        <ele>154</ele>
        <time>2022-05-02T18:04:55Z</time>
      </trkpt>
      <trkpt lat="43.06141" lon="2.6029">
        <ele>156</ele>
        <time>2022-05-02T18:05:01Z</time>
      </trkpt>
      <trkpt lat="43.0604" lon="2.60404">
        <ele>153</ele>
        <time>2022-05-02T18:05:24Z</time>
      </trkpt>
      <trkpt lat="43.06003" lon="2.60443">
        <ele>151</ele>
        <time>2022-05-02T18:05:32Z</time>
      </trkpt>
      <trkpt lat="43.05967" lon="2.60472">
        <ele>151</ele>
        <time>2022-05-02T18:05:40Z</time>
      </trkpt>
      <trkpt lat="43.05942" lon="2.60476">
        <ele>149</ele>
        <time>2022-05-02T18:05:44Z</time>
      </trkpt>
      <trkpt lat="43.05927" lon="2.60482">
        <ele>148</ele>
        <time>2022-05-02T18:05:47Z</time>
      </trkpt>
      <trkpt lat="43.05893" lon="2.60513">
        <ele>149</ele>
        <time>2022-05-02T18:05:54Z</time>
      </trkpt>
      <trkpt lat="43.05881" lon="2.60503">
        <ele>149</ele>
        <time>2022-05-02T18:05:57Z</time>
      </trkpt>
      <trkpt lat="43.05873" lon="2.60496">
        <ele>149</ele>
        <time>2022-05-02T18:05:58Z</time>
      </trkpt>
      <trkpt lat="43.05837" lon="2.60471">
        <ele>151</ele>
        <time>2022-05-02T18:06:06Z</time>
      </trkpt>
      <trkpt lat="43.05846" lon="2.60412">
        <ele>153</ele>
        <time>2022-05-02T18:06:13Z</time>
      </trkpt>
      <trkpt lat="43.05851" lon="2.6039">
        <ele>152</ele>
        <time>2022-05-02T18:06:16Z</time>
      </trkpt>
      <trkpt lat="43.05852" lon="2.60371">
        <ele>152</ele>
        <time>2022-05-02T18:06:19Z</time>
      </trkpt>
      <trkpt lat="43.0585" lon="2.60348">
        <ele>152</ele>
        <time>2022-05-02T18:06:22Z</time>
      </trkpt>
      <trkpt lat="43.05839" lon="2.60303">
        <ele>150</ele>
        <time>2022-05-02T18:06:28Z</time>
      </trkpt>
      <trkpt lat="43.05814" lon="2.60278">
        <ele>151</ele>
        <time>2022-05-02T18:06:34Z</time>
      </trkpt>
      <trkpt lat="43.05793" lon="2.6026">
        <ele>152</ele>
        <time>2022-05-02T18:06:38Z</time>
      </trkpt>
      <trkpt lat="43.05778" lon="2.6025">
        <ele>153</ele>
        <time>2022-05-02T18:06:41Z</time>
      </trkpt>
      <trkpt lat="43.05725" lon="2.60224">
        <ele>158</ele>
        <time>2022-05-02T18:06:51Z</time>
      </trkpt>
      <trkpt lat="43.05714" lon="2.6021">
        <ele>158</ele>
        <time>2022-05-02T18:06:54Z</time>
      </trkpt>
      <trkpt lat="43.05682" lon="2.60145">
        <ele>157</ele>
        <time>2022-05-02T18:07:04Z</time>
      </trkpt>
      <trkpt lat="43.05668" lon="2.601">
        <ele>156</ele>
        <time>2022-05-02T18:07:10Z</time>
      </trkpt>
      <trkpt lat="43.0566" lon="2.60082">
        <ele>155</ele>
        <time>2022-05-02T18:07:13Z</time>
      </trkpt>
      <trkpt lat="43.05654" lon="2.60075">
        <ele>156</ele>
        <time>2022-05-02T18:07:14Z</time>
      </trkpt>
      <trkpt lat="43.05627" lon="2.60059">
        <ele>161</ele>
        <time>2022-05-02T18:07:20Z</time>
      </trkpt>
      <trkpt lat="43.05619" lon="2.60052">
        <ele>162</ele>
        <time>2022-05-02T18:07:21Z</time>
      </trkpt>
      <trkpt lat="43.05614" lon="2.60044">
        <ele>163</ele>
        <time>2022-05-02T18:07:23Z</time>
      </trkpt>
      <trkpt lat="43.0561" lon="2.60024">
        <ele>163</ele>
        <time>2022-05-02T18:07:25Z</time>
      </trkpt>
      <trkpt lat="43.05611" lon="2.60004">
        <ele>162</ele>
        <time>2022-05-02T18:07:28Z</time>
      </trkpt>
      <trkpt lat="43.05613" lon="2.59975">
        <ele>161</ele>
        <time>2022-05-02T18:07:32Z</time>
      </trkpt>
      <trkpt lat="43.05619" lon="2.59947">
        <ele>159</ele>
        <time>2022-05-02T18:07:36Z</time>
      </trkpt>
      <trkpt lat="43.05619" lon="2.59925">
        <ele>159</ele>
        <time>2022-05-02T18:07:38Z</time>
      </trkpt>
      <trkpt lat="43.05614" lon="2.59901">
        <ele>161</ele>
        <time>2022-05-02T18:07:42Z</time>
      </trkpt>
      <trkpt lat="43.05611" lon="2.59891">
        <ele>162</ele>
        <time>2022-05-02T18:07:43Z</time>
      </trkpt>
      <trkpt lat="43.05601" lon="2.59871">
        <ele>165</ele>
        <time>2022-05-02T18:07:46Z</time>
      </trkpt>
      <trkpt lat="43.05597" lon="2.59851">
        <ele>167</ele>
        <time>2022-05-02T18:07:49Z</time>
      </trkpt>
      <trkpt lat="43.05605" lon="2.5974">
        <ele>167</ele>
        <time>2022-05-02T18:08:03Z</time>
      </trkpt>
      <trkpt lat="43.05605" lon="2.59729">
        <ele>167</ele>
        <time>2022-05-02T18:08:05Z</time>
      </trkpt>
      <trkpt lat="43.05598" lon="2.59668">
        <ele>170</ele>
        <time>2022-05-02T18:08:13Z</time>
      </trkpt>
      <trkpt lat="43.05597" lon="2.59657">
        <ele>171</ele>
        <time>2022-05-02T18:08:14Z</time>
      </trkpt>
      <trkpt lat="43.05604" lon="2.59595">
        <ele>170</ele>
        <time>2022-05-02T18:08:22Z</time>
      </trkpt>
      <trkpt lat="43.05604" lon="2.5953">
        <ele>173</ele>
        <time>2022-05-02T18:08:31Z</time>
      </trkpt>
      <trkpt lat="43.05617" lon="2.5946">
        <ele>174</ele>
        <time>2022-05-02T18:08:40Z</time>
      </trkpt>
      <trkpt lat="43.05621" lon="2.59425">
        <ele>175</ele>
        <time>2022-05-02T18:08:45Z</time>
      </trkpt>
      <trkpt lat="43.05632" lon="2.59382">
        <ele>172</ele>
        <time>2022-05-02T18:08:51Z</time>
      </trkpt>
      <trkpt lat="43.05635" lon="2.59347">
        <ele>172</ele>
        <time>2022-05-02T18:08:55Z</time>
      </trkpt>
      <trkpt lat="43.05631" lon="2.59206">
        <ele>169</ele>
        <time>2022-05-02T18:09:14Z</time>
      </trkpt>
      <trkpt lat="43.05629" lon="2.59195">
        <ele>169</ele>
        <time>2022-05-02T18:09:15Z</time>
      </trkpt>
      <trkpt lat="43.05623" lon="2.59188">
        <ele>169</ele>
        <time>2022-05-02T18:09:17Z</time>
      </trkpt>
      <trkpt lat="43.05615" lon="2.59186">
        <ele>171</ele>
        <time>2022-05-02T18:09:18Z</time>
      </trkpt>
      <trkpt lat="43.05578" lon="2.59187">
        <ele>177</ele>
        <time>2022-05-02T18:09:25Z</time>
      </trkpt>
      <trkpt lat="43.05556" lon="2.59176">
        <ele>177</ele>
        <time>2022-05-02T18:09:29Z</time>
      </trkpt>
      <trkpt lat="43.05531" lon="2.59156">
        <ele>175</ele>
        <time>2022-05-02T18:09:34Z</time>
      </trkpt>
      <trkpt lat="43.05494" lon="2.59141">
        <ele>176</ele>
        <time>2022-05-02T18:09:41Z</time>
      </trkpt>
      <trkpt lat="43.05461" lon="2.59134">
        <ele>183</ele>
        <time>2022-05-02T18:09:47Z</time>
      </trkpt>
      <trkpt lat="43.05455" lon="2.59128">
        <ele>183</ele>
        <time>2022-05-02T18:09:48Z</time>
      </trkpt>
      <trkpt lat="43.05422" lon="2.59062">
        <ele>179</ele>
        <time>2022-05-02T18:09:58Z</time>
      </trkpt>
      <trkpt lat="43.05416" lon="2.59047">
        <ele>177</ele>
        <time>2022-05-02T18:10:01Z</time>
      </trkpt>
      <trkpt lat="43.05409" lon="2.58993">
        <ele>170</ele>
        <time>2022-05-02T18:10:08Z</time>
      </trkpt>
      <trkpt lat="43.05395" lon="2.5895">
        <ele>172</ele>
        <time>2022-05-02T18:10:14Z</time>
      </trkpt>
      <trkpt lat="43.05393" lon="2.58938">
        <ele>172</ele>
        <time>2022-05-02T18:10:16Z</time>
      </trkpt>
      <trkpt lat="43.05393" lon="2.5888">
        <ele>170</ele>
        <time>2022-05-02T18:10:23Z</time>
      </trkpt>
      <trkpt lat="43.05392" lon="2.5886">
        <ele>171</ele>
        <time>2022-05-02T18:10:26Z</time>
      </trkpt>
      <trkpt lat="43.0538" lon="2.58792">
        <ele>173</ele>
        <time>2022-05-02T18:10:35Z</time>
      </trkpt>
      <trkpt lat="43.05357" lon="2.5873">
        <ele>173</ele>
        <time>2022-05-02T18:10:44Z</time>
      </trkpt>
      <trkpt lat="43.05351" lon="2.58717">
        <ele>172</ele>
        <time>2022-05-02T18:10:46Z</time>
      </trkpt>
      <trkpt lat="43.05329" lon="2.58688">
        <ele>169</ele>
        <time>2022-05-02T18:10:51Z</time>
      </trkpt>
      <trkpt lat="43.05307" lon="2.58666">
        <ele>166</ele>
        <time>2022-05-02T18:10:56Z</time>
      </trkpt>
      <trkpt lat="43.05296" lon="2.58658">
        <ele>167</ele>
        <time>2022-05-02T18:10:58Z</time>
      </trkpt>
      <trkpt lat="43.05279" lon="2.58653">
        <ele>167</ele>
        <time>2022-05-02T18:11:01Z</time>
      </trkpt>
      <trkpt lat="43.05265" lon="2.58656">
        <ele>167</ele>
        <time>2022-05-02T18:11:04Z</time>
      </trkpt>
      <trkpt lat="43.0521" lon="2.58684">
        <ele>168</ele>
        <time>2022-05-02T18:11:14Z</time>
      </trkpt>
      <trkpt lat="43.05154" lon="2.58715">
        <ele>170</ele>
        <time>2022-05-02T18:11:25Z</time>
      </trkpt>
      <trkpt lat="43.05034" lon="2.58789">
        <ele>169</ele>
        <time>2022-05-02T18:11:49Z</time>
      </trkpt>
      <trkpt lat="43.05004" lon="2.58809">
        <ele>167</ele>
        <time>2022-05-02T18:11:55Z</time>
      </trkpt>
      <trkpt lat="43.04961" lon="2.58837">
        <ele>168</ele>
        <time>2022-05-02T18:12:03Z</time>
      </trkpt>
      <trkpt lat="43.04952" lon="2.58846">
        <ele>169</ele>
        <time>2022-05-02T18:12:05Z</time>
      </trkpt>
      <trkpt lat="43.04937" lon="2.58871">
        <ele>172</ele>
        <time>2022-05-02T18:12:09Z</time>
      </trkpt>
      <trkpt lat="43.04891" lon="2.5892">
        <ele>172</ele>
        <time>2022-05-02T18:12:20Z</time>
      </trkpt>
      <trkpt lat="43.04826" lon="2.58979">
        <ele>178</ele>
        <time>2022-05-02T18:12:33Z</time>
      </trkpt>
      <trkpt lat="43.04802" lon="2.58991">
        <ele>180</ele>
        <time>2022-05-02T18:12:38Z</time>
      </trkpt>
      <trkpt lat="43.04788" lon="2.58994">
        <ele>180</ele>
        <time>2022-05-02T18:12:40Z</time>
      </trkpt>
      <trkpt lat="43.04759" lon="2.58992">
        <ele>177</ele>
        <time>2022-05-02T18:12:46Z</time>
      </trkpt>
      <trkpt lat="43.04734" lon="2.58982">
        <ele>180</ele>
        <time>2022-05-02T18:12:50Z</time>
      </trkpt>
      <trkpt lat="43.04727" lon="2.58977">
        <ele>182</ele>
        <time>2022-05-02T18:12:52Z</time>
      </trkpt>
      <trkpt lat="43.04701" lon="2.58951">
        <ele>184</ele>
        <time>2022-05-02T18:12:57Z</time>
      </trkpt>
      <trkpt lat="43.04691" lon="2.58933">
        <ele>183</ele>
        <time>2022-05-02T18:13:00Z</time>
      </trkpt>
      <trkpt lat="43.04686" lon="2.58909">
        <ele>180</ele>
        <time>2022-05-02T18:13:04Z</time>
      </trkpt>
      <trkpt lat="43.0468" lon="2.58843">
        <ele>180</ele>
        <time>2022-05-02T18:13:12Z</time>
      </trkpt>
      <trkpt lat="43.0468" lon="2.58816">
        <ele>182</ele>
        <time>2022-05-02T18:13:16Z</time>
      </trkpt>
      <trkpt lat="43.04686" lon="2.58777">
        <ele>185</ele>
        <time>2022-05-02T18:13:21Z</time>
      </trkpt>
      <trkpt lat="43.04692" lon="2.58759">
        <ele>186</ele>
        <time>2022-05-02T18:13:24Z</time>
      </trkpt>
      <trkpt lat="43.04707" lon="2.5873">
        <ele>186</ele>
        <time>2022-05-02T18:13:28Z</time>
      </trkpt>
      <trkpt lat="43.04735" lon="2.58694">
        <ele>182</ele>
        <time>2022-05-02T18:13:35Z</time>
      </trkpt>
      <trkpt lat="43.04837" lon="2.58579">
        <ele>178</ele>
        <time>2022-05-02T18:13:58Z</time>
      </trkpt>
      <trkpt lat="43.04845" lon="2.58565">
        <ele>180</ele>
        <time>2022-05-02T18:14:01Z</time>
      </trkpt>
      <trkpt lat="43.04855" lon="2.58541">
        <ele>183</ele>
        <time>2022-05-02T18:14:04Z</time>
      </trkpt>
      <trkpt lat="43.04869" lon="2.58443">
        <ele>184</ele>
        <time>2022-05-02T18:14:17Z</time>
      </trkpt>
      <trkpt lat="43.0487" lon="2.58413">
        <ele>183</ele>
        <time>2022-05-02T18:14:21Z</time>
      </trkpt>
      <trkpt lat="43.04867" lon="2.58399">
        <ele>182</ele>
        <time>2022-05-02T18:14:23Z</time>
      </trkpt>
      <trkpt lat="43.04859" lon="2.58382">
        <ele>180</ele>
        <time>2022-05-02T18:14:26Z</time>
      </trkpt>
      <trkpt lat="43.0485" lon="2.58365">
        <ele>178</ele>
        <time>2022-05-02T18:14:29Z</time>
      </trkpt>
      <trkpt lat="43.04839" lon="2.5835">
        <ele>176</ele>
        <time>2022-05-02T18:14:31Z</time>
      </trkpt>
      <trkpt lat="43.04825" lon="2.58337">
        <ele>174</ele>
        <time>2022-05-02T18:14:34Z</time>
      </trkpt>
      <trkpt lat="43.04797" lon="2.5832">
        <ele>176</ele>
        <time>2022-05-02T18:14:40Z</time>
      </trkpt>
      <trkpt lat="43.04688" lon="2.58284">
        <ele>177</ele>
        <time>2022-05-02T18:15:00Z</time>
      </trkpt>
      <trkpt lat="43.04605" lon="2.58261">
        <ele>175</ele>
        <time>2022-05-02T18:15:15Z</time>
      </trkpt>
      <trkpt lat="43.04566" lon="2.58259">
        <ele>174</ele>
        <time>2022-05-02T18:15:22Z</time>
      </trkpt>
      <trkpt lat="43.04506" lon="2.58282">
        <ele>179</ele>
        <time>2022-05-02T18:15:33Z</time>
      </trkpt>
      <trkpt lat="43.04461" lon="2.5831">
        <ele>185</ele>
        <time>2022-05-02T18:15:42Z</time>
      </trkpt>
      <trkpt lat="43.04432" lon="2.58315">
        <ele>186</ele>
        <time>2022-05-02T18:15:47Z</time>
      </trkpt>
      <trkpt lat="43.04402" lon="2.58311">
        <ele>186</ele>
        <time>2022-05-02T18:15:52Z</time>
      </trkpt>
      <trkpt lat="43.04379" lon="2.58303">
        <ele>186</ele>
        <time>2022-05-02T18:15:56Z</time>
      </trkpt>
      <trkpt lat="43.04362" lon="2.58295">
        <ele>187</ele>
        <time>2022-05-02T18:16:00Z</time>
      </trkpt>
      <trkpt lat="43.04355" lon="2.58289">
        <ele>186</ele>
        <time>2022-05-02T18:16:01Z</time>
      </trkpt>
      <trkpt lat="43.04349" lon="2.5828">
        <ele>186</ele>
        <time>2022-05-02T18:16:03Z</time>
      </trkpt>
      <trkpt lat="43.04343" lon="2.58259">
        <ele>183</ele>
        <time>2022-05-02T18:16:06Z</time>
      </trkpt>
      <trkpt lat="43.04338" lon="2.58205">
        <ele>181</ele>
        <time>2022-05-02T18:16:13Z</time>
      </trkpt>
      <trkpt lat="43.04331" lon="2.58154">
        <ele>181</ele>
        <time>2022-05-02T18:16:19Z</time>
      </trkpt>
      <trkpt lat="43.04331" lon="2.58127">
        <ele>180</ele>
        <time>2022-05-02T18:16:23Z</time>
      </trkpt>
      <trkpt lat="43.04336" lon="2.58081">
        <ele>178</ele>
        <time>2022-05-02T18:16:29Z</time>
      </trkpt>
      <trkpt lat="43.04334" lon="2.58034">
        <ele>180</ele>
        <time>2022-05-02T18:16:35Z</time>
      </trkpt>
      <trkpt lat="43.04337" lon="2.57955">
        <ele>182</ele>
        <time>2022-05-02T18:16:45Z</time>
      </trkpt>
      <trkpt lat="43.04325" lon="2.57859">
        <ele>181</ele>
        <time>2022-05-02T18:16:58Z</time>
      </trkpt>
      <trkpt lat="43.04313" lon="2.57812">
        <ele>183</ele>
        <time>2022-05-02T18:17:05Z</time>
      </trkpt>
      <trkpt lat="43.04279" lon="2.57724">
        <ele>186</ele>
        <time>2022-05-02T18:17:17Z</time>
      </trkpt>
      <trkpt lat="43.04259" lon="2.57663">
        <ele>183</ele>
        <time>2022-05-02T18:17:26Z</time>
      </trkpt>
      <trkpt lat="43.04253" lon="2.57651">
        <ele>182</ele>
        <time>2022-05-02T18:17:28Z</time>
      </trkpt>
      <trkpt lat="43.04194" lon="2.57556">
        <ele>185</ele>
        <time>2022-05-02T18:17:44Z</time>
      </trkpt>
      <trkpt lat="43.0417" lon="2.57528">
        <ele>182</ele>
        <time>2022-05-02T18:17:50Z</time>
      </trkpt>
      <trkpt lat="43.04145" lon="2.57502">
        <ele>178</ele>
        <time>2022-05-02T18:17:55Z</time>
      </trkpt>
      <trkpt lat="43.04135" lon="2.57494">
        <ele>178</ele>
        <time>2022-05-02T18:17:58Z</time>
      </trkpt>
      <trkpt lat="43.04113" lon="2.57482">
        <ele>178</ele>
        <time>2022-05-02T18:18:02Z</time>
      </trkpt>
      <trkpt lat="43.04093" lon="2.5744">
        <ele>176</ele>
        <time>2022-05-02T18:18:08Z</time>
      </trkpt>
      <trkpt lat="43.04062" lon="2.57363">
        <ele>179</ele>
        <time>2022-05-02T18:18:20Z</time>
      </trkpt>
      <trkpt lat="43.03974" lon="2.57192">
        <ele>189</ele>
        <time>2022-05-02T18:18:47Z</time>
      </trkpt>
      <trkpt lat="43.03964" lon="2.57166">
        <ele>189</ele>
        <time>2022-05-02T18:18:51Z</time>
      </trkpt>
      <trkpt lat="43.03952" lon="2.57127">
        <ele>192</ele>
        <time>2022-05-02T18:18:56Z</time>
      </trkpt>
      <trkpt lat="43.03937" lon="2.57037">
        <ele>192</ele>
        <time>2022-05-02T18:19:08Z</time>
      </trkpt>
      <trkpt lat="43.03936" lon="2.57004">
        <ele>191</ele>
        <time>2022-05-02T18:19:12Z</time>
      </trkpt>
      <trkpt lat="43.03942" lon="2.56951">
        <ele>191</ele>
        <time>2022-05-02T18:19:19Z</time>
      </trkpt>
      <trkpt lat="43.03948" lon="2.56927">
        <ele>191</ele>
        <time>2022-05-02T18:19:23Z</time>
      </trkpt>
      <trkpt lat="43.03955" lon="2.56911">
        <ele>190</ele>
        <time>2022-05-02T18:19:25Z</time>
      </trkpt>
      <trkpt lat="43.03963" lon="2.569">
        <ele>190</ele>
        <time>2022-05-02T18:19:27Z</time>
      </trkpt>
      <trkpt lat="43.03989" lon="2.56871">
        <ele>187</ele>
        <time>2022-05-02T18:19:33Z</time>
      </trkpt>
      <trkpt lat="43.03996" lon="2.5686">
        <ele>186</ele>
        <time>2022-05-02T18:19:35Z</time>
      </trkpt>
      <trkpt lat="43.04005" lon="2.56837">
        <ele>187</ele>
        <time>2022-05-02T18:19:38Z</time>
      </trkpt>
      <trkpt lat="43.0401" lon="2.56828">
        <ele>188</ele>
        <time>2022-05-02T18:19:40Z</time>
      </trkpt>
      <trkpt lat="43.04017" lon="2.56821">
        <ele>188</ele>
        <time>2022-05-02T18:19:41Z</time>
      </trkpt>
      <trkpt lat="43.0409" lon="2.56778">
        <ele>187</ele>
        <time>2022-05-02T18:19:56Z</time>
      </trkpt>
      <trkpt lat="43.04126" lon="2.56764">
        <ele>186</ele>
        <time>2022-05-02T18:20:02Z</time>
      </trkpt>
      <trkpt lat="43.04155" lon="2.56744">
        <ele>184</ele>
        <time>2022-05-02T18:20:08Z</time>
      </trkpt>
      <trkpt lat="43.04176" lon="2.56719">
        <ele>185</ele>
        <time>2022-05-02T18:20:13Z</time>
      </trkpt>
      <trkpt lat="43.04194" lon="2.56692">
        <ele>187</ele>
        <time>2022-05-02T18:20:18Z</time>
      </trkpt>
      <trkpt lat="43.04223" lon="2.56659">
        <ele>186</ele>
        <time>2022-05-02T18:20:24Z</time>
      </trkpt>
      <trkpt lat="43.04253" lon="2.56632">
        <ele>184</ele>
        <time>2022-05-02T18:20:31Z</time>
      </trkpt>
      <trkpt lat="43.04263" lon="2.5662">
        <ele>184</ele>
        <time>2022-05-02T18:20:33Z</time>
      </trkpt>
      <trkpt lat="43.0428" lon="2.56585">
        <ele>184</ele>
        <time>2022-05-02T18:20:39Z</time>
      </trkpt>
      <trkpt lat="43.04282" lon="2.56574">
        <ele>184</ele>
        <time>2022-05-02T18:20:40Z</time>
      </trkpt>
      <trkpt lat="43.04283" lon="2.56561">
        <ele>184</ele>
        <time>2022-05-02T18:20:42Z</time>
      </trkpt>
      <trkpt lat="43.04282" lon="2.56548">
        <ele>184</ele>
        <time>2022-05-02T18:20:44Z</time>
      </trkpt>
      <trkpt lat="43.04278" lon="2.56537">
        <ele>184</ele>
        <time>2022-05-02T18:20:45Z</time>
      </trkpt>
      <trkpt lat="43.04266" lon="2.56515">
        <ele>184</ele>
        <time>2022-05-02T18:20:49Z</time>
      </trkpt>
      <trkpt lat="43.04257" lon="2.56505">
        <ele>184</ele>
        <time>2022-05-02T18:20:51Z</time>
      </trkpt>
      <trkpt lat="43.04241" lon="2.56492">
        <ele>184</ele>
        <time>2022-05-02T18:20:54Z</time>
      </trkpt>
      <trkpt lat="43.04207" lon="2.56474">
        <ele>184</ele>
        <time>2022-05-02T18:21:01Z</time>
      </trkpt>
      <trkpt lat="43.04175" lon="2.56466">
        <ele>183</ele>
        <time>2022-05-02T18:21:06Z</time>
      </trkpt>
      <trkpt lat="43.04128" lon="2.56465">
        <ele>183</ele>
        <time>2022-05-02T18:21:15Z</time>
      </trkpt>
      <trkpt lat="43.04094" lon="2.56466">
        <ele>184</ele>
        <time>2022-05-02T18:21:21Z</time>
      </trkpt>
      <trkpt lat="43.0408" lon="2.5647">
        <ele>184</ele>
        <time>2022-05-02T18:21:23Z</time>
      </trkpt>
      <trkpt lat="43.0406" lon="2.56483">
        <ele>185</ele>
        <time>2022-05-02T18:21:27Z</time>
      </trkpt>
      <trkpt lat="43.04051" lon="2.56494">
        <ele>184</ele>
        <time>2022-05-02T18:21:29Z</time>
      </trkpt>
      <trkpt lat="43.04024" lon="2.56561">
        <ele>187</ele>
        <time>2022-05-02T18:21:39Z</time>
      </trkpt>
      <trkpt lat="43.04003" lon="2.56596">
        <ele>187</ele>
        <time>2022-05-02T18:21:45Z</time>
      </trkpt>
      <trkpt lat="43.03993" lon="2.56609">
        <ele>188</ele>
        <time>2022-05-02T18:21:48Z</time>
      </trkpt>
      <trkpt lat="43.03962" lon="2.56638">
        <ele>188</ele>
        <time>2022-05-02T18:21:54Z</time>
      </trkpt>
      <trkpt lat="43.03948" lon="2.56657">
        <ele>188</ele>
        <time>2022-05-02T18:21:58Z</time>
      </trkpt>
      <trkpt lat="43.03918" lon="2.56692">
        <ele>189</ele>
        <time>2022-05-02T18:22:05Z</time>
      </trkpt>
      <trkpt lat="43.03906" lon="2.56704">
        <ele>191</ele>
        <time>2022-05-02T18:22:08Z</time>
      </trkpt>
      <trkpt lat="43.03895" lon="2.5671">
        <ele>191</ele>
        <time>2022-05-02T18:22:10Z</time>
      </trkpt>
      <trkpt lat="43.03883" lon="2.56714">
        <ele>191</ele>
        <time>2022-05-02T18:22:12Z</time>
      </trkpt>
      <trkpt lat="43.03803" lon="2.56719">
        <ele>191</ele>
        <time>2022-05-02T18:22:26Z</time>
      </trkpt>
      <trkpt lat="43.03785" lon="2.56714">
        <ele>191</ele>
        <time>2022-05-02T18:22:29Z</time>
      </trkpt>
      <trkpt lat="43.03731" lon="2.56686">
        <ele>190</ele>
        <time>2022-05-02T18:22:40Z</time>
      </trkpt>
      <trkpt lat="43.03723" lon="2.56678">
        <ele>189</ele>
        <time>2022-05-02T18:22:41Z</time>
      </trkpt>
      <trkpt lat="43.03684" lon="2.56609">
        <ele>187</ele>
        <time>2022-05-02T18:22:53Z</time>
      </trkpt>
      <trkpt lat="43.03678" lon="2.56594">
        <ele>187</ele>
        <time>2022-05-02T18:22:55Z</time>
      </trkpt>
      <trkpt lat="43.03668" lon="2.56542">
        <ele>185</ele>
        <time>2022-05-02T18:23:02Z</time>
      </trkpt>
      <trkpt lat="43.03635" lon="2.56475">
        <ele>189</ele>
        <time>2022-05-02T18:23:13Z</time>
      </trkpt>
      <trkpt lat="43.03625" lon="2.5646">
        <ele>190</ele>
        <time>2022-05-02T18:23:15Z</time>
      </trkpt>
      <trkpt lat="43.0357" lon="2.56385">
        <ele>194</ele>
        <time>2022-05-02T18:23:29Z</time>
      </trkpt>
      <trkpt lat="43.03552" lon="2.56356">
        <ele>199</ele>
        <time>2022-05-02T18:23:34Z</time>
      </trkpt>
      <trkpt lat="43.03546" lon="2.56341">
        <ele>200</ele>
        <time>2022-05-02T18:23:36Z</time>
      </trkpt>
      <trkpt lat="43.03541" lon="2.56322">
        <ele>202</ele>
        <time>2022-05-02T18:23:39Z</time>
      </trkpt>
      <trkpt lat="43.03535" lon="2.56283">
        <ele>204</ele>
        <time>2022-05-02T18:23:44Z</time>
      </trkpt>
      <trkpt lat="43.03533" lon="2.5624">
        <ele>204</ele>
        <time>2022-05-02T18:23:50Z</time>
      </trkpt>
      <trkpt lat="43.03534" lon="2.56223">
        <ele>204</ele>
        <time>2022-05-02T18:23:52Z</time>
      </trkpt>
      <trkpt lat="43.03545" lon="2.56152">
        <ele>202</ele>
        <time>2022-05-02T18:24:01Z</time>
      </trkpt>
      <trkpt lat="43.03553" lon="2.56123">
        <ele>201</ele>
        <time>2022-05-02T18:24:05Z</time>
      </trkpt>
      <trkpt lat="43.03558" lon="2.5611">
        <ele>201</ele>
        <time>2022-05-02T18:24:07Z</time>
      </trkpt>
      <trkpt lat="43.03564" lon="2.56099">
        <ele>199</ele>
        <time>2022-05-02T18:24:09Z</time>
      </trkpt>
      <trkpt lat="43.03595" lon="2.56061">
        <ele>197</ele>
        <time>2022-05-02T18:24:16Z</time>
      </trkpt>
      <trkpt lat="43.03612" lon="2.56045">
        <ele>198</ele>
        <time>2022-05-02T18:24:20Z</time>
      </trkpt>
      <trkpt lat="43.03626" lon="2.56034">
        <ele>198</ele>
        <time>2022-05-02T18:24:23Z</time>
      </trkpt>
      <trkpt lat="43.03671" lon="2.56016">
        <ele>193</ele>
        <time>2022-05-02T18:24:31Z</time>
      </trkpt>
      <trkpt lat="43.03681" lon="2.5601">
        <ele>193</ele>
        <time>2022-05-02T18:24:33Z</time>
      </trkpt>
      <trkpt lat="43.03691" lon="2.55998">
        <ele>193</ele>
        <time>2022-05-02T18:24:36Z</time>
      </trkpt>
      <trkpt lat="43.03708" lon="2.55971">
        <ele>193</ele>
        <time>2022-05-02T18:24:40Z</time>
      </trkpt>
      <trkpt lat="43.03718" lon="2.55945">
        <ele>192</ele>
        <time>2022-05-02T18:24:44Z</time>
      </trkpt>
      <trkpt lat="43.03719" lon="2.55932">
        <ele>191</ele>
        <time>2022-05-02T18:24:46Z</time>
      </trkpt>
      <trkpt lat="43.03718" lon="2.55919">
        <ele>191</ele>
        <time>2022-05-02T18:24:47Z</time>
      </trkpt>
      <trkpt lat="43.03715" lon="2.55909">
        <ele>191</ele>
        <time>2022-05-02T18:24:49Z</time>
      </trkpt>
      <trkpt lat="43.0371" lon="2.55899">
        <ele>192</ele>
        <time>2022-05-02T18:24:50Z</time>
      </trkpt>
      <trkpt lat="43.03699" lon="2.55887">
        <ele>192</ele>
        <time>2022-05-02T18:24:53Z</time>
      </trkpt>
      <trkpt lat="43.0368" lon="2.55871">
        <ele>193</ele>
        <time>2022-05-02T18:24:57Z</time>
      </trkpt>
      <trkpt lat="43.03626" lon="2.55836">
        <ele>198</ele>
        <time>2022-05-02T18:25:07Z</time>
      </trkpt>
      <trkpt lat="43.03614" lon="2.55825">
        <ele>199</ele>
        <time>2022-05-02T18:25:10Z</time>
      </trkpt>
      <trkpt lat="43.03574" lon="2.55771">
        <ele>197</ele>
        <time>2022-05-02T18:25:20Z</time>
      </trkpt>
      <trkpt lat="43.03569" lon="2.55759">
        <ele>196</ele>
        <time>2022-05-02T18:25:22Z</time>
      </trkpt>
      <trkpt lat="43.03564" lon="2.55744">
        <ele>194</ele>
        <time>2022-05-02T18:25:24Z</time>
      </trkpt>
      <trkpt lat="43.03544" lon="2.55636">
        <ele>193</ele>
        <time>2022-05-02T18:25:38Z</time>
      </trkpt>
      <trkpt lat="43.03535" lon="2.55503">
        <ele>195</ele>
        <time>2022-05-02T18:25:56Z</time>
      </trkpt>
      <trkpt lat="43.0353" lon="2.55481">
        <ele>195</ele>
        <time>2022-05-02T18:25:59Z</time>
      </trkpt>
      <trkpt lat="43.03523" lon="2.55463">
        <ele>194</ele>
        <time>2022-05-02T18:26:01Z</time>
      </trkpt>
      <trkpt lat="43.03513" lon="2.55445">
        <ele>193</ele>
        <time>2022-05-02T18:26:04Z</time>
      </trkpt>
      <trkpt lat="43.03503" lon="2.55432">
        <ele>192</ele>
        <time>2022-05-02T18:26:07Z</time>
      </trkpt>
      <trkpt lat="43.03488" lon="2.55422">
        <ele>192</ele>
        <time>2022-05-02T18:26:10Z</time>
      </trkpt>
      <trkpt lat="43.03474" lon="2.55415">
        <ele>192</ele>
        <time>2022-05-02T18:26:13Z</time>
      </trkpt>
      <trkpt lat="43.0345" lon="2.55412">
        <ele>192</ele>
        <time>2022-05-02T18:26:17Z</time>
      </trkpt>
      <trkpt lat="43.03429" lon="2.55416">
        <ele>193</ele>
        <time>2022-05-02T18:26:21Z</time>
      </trkpt>
      <trkpt lat="43.03413" lon="2.55422">
        <ele>194</ele>
        <time>2022-05-02T18:26:24Z</time>
      </trkpt>
      <trkpt lat="43.03384" lon="2.55444">
        <ele>199</ele>
        <time>2022-05-02T18:26:29Z</time>
      </trkpt>
      <trkpt lat="43.03376" lon="2.55449">
        <ele>201</ele>
        <time>2022-05-02T18:26:31Z</time>
      </trkpt>
      <trkpt lat="43.03369" lon="2.5545">
        <ele>201</ele>
        <time>2022-05-02T18:26:32Z</time>
      </trkpt>
      <trkpt lat="43.03352" lon="2.55446">
        <ele>202</ele>
        <time>2022-05-02T18:26:35Z</time>
      </trkpt>
      <trkpt lat="43.03337" lon="2.55436">
        <ele>201</ele>
        <time>2022-05-02T18:26:38Z</time>
      </trkpt>
      <trkpt lat="43.03293" lon="2.55399">
        <ele>203</ele>
        <time>2022-05-02T18:26:47Z</time>
      </trkpt>
      <trkpt lat="43.03286" lon="2.55387">
        <ele>202</ele>
        <time>2022-05-02T18:26:49Z</time>
      </trkpt>
      <trkpt lat="43.03273" lon="2.55335">
        <ele>197</ele>
        <time>2022-05-02T18:26:57Z</time>
      </trkpt>
      <trkpt lat="43.03266" lon="2.55319">
        <ele>197</ele>
        <time>2022-05-02T18:26:59Z</time>
      </trkpt>
      <trkpt lat="43.03248" lon="2.55286">
        <ele>195</ele>
        <time>2022-05-02T18:27:04Z</time>
      </trkpt>
      <trkpt lat="43.03238" lon="2.55275">
        <ele>196</ele>
        <time>2022-05-02T18:27:07Z</time>
      </trkpt>
      <trkpt lat="43.03224" lon="2.55266">
        <ele>197</ele>
        <time>2022-05-02T18:27:09Z</time>
      </trkpt>
      <trkpt lat="43.03199" lon="2.55258">
        <ele>198</ele>
        <time>2022-05-02T18:27:14Z</time>
      </trkpt>
      <trkpt lat="43.03181" lon="2.55249">
        <ele>199</ele>
        <time>2022-05-02T18:27:17Z</time>
      </trkpt>
      <trkpt lat="43.03148" lon="2.5521">
        <ele>202</ele>
        <time>2022-05-02T18:27:25Z</time>
      </trkpt>
      <trkpt lat="43.03122" lon="2.55171">
        <ele>204</ele>
        <time>2022-05-02T18:27:32Z</time>
      </trkpt>
      <trkpt lat="43.03109" lon="2.55154">
        <ele>206</ele>
        <time>2022-05-02T18:27:35Z</time>
      </trkpt>
      <trkpt lat="43.03091" lon="2.55136">
        <ele>207</ele>
        <time>2022-05-02T18:27:39Z</time>
      </trkpt>
      <trkpt lat="43.03078" lon="2.55117">
        <ele>207</ele>
        <time>2022-05-02T18:27:43Z</time>
      </trkpt>
      <trkpt lat="43.03069" lon="2.551">
        <ele>209</ele>
        <time>2022-05-02T18:27:45Z</time>
      </trkpt>
      <trkpt lat="43.03054" lon="2.55039">
        <ele>209</ele>
        <time>2022-05-02T18:27:54Z</time>
      </trkpt>
      <trkpt lat="43.03048" lon="2.55022">
        <ele>209</ele>
        <time>2022-05-02T18:27:56Z</time>
      </trkpt>
      <trkpt lat="43.0302" lon="2.54976">
        <ele>209</ele>
        <time>2022-05-02T18:28:04Z</time>
      </trkpt>
      <trkpt lat="43.0301" lon="2.54963">
        <ele>208</ele>
        <time>2022-05-02T18:28:06Z</time>
      </trkpt>
      <trkpt lat="43.0298" lon="2.54941">
        <ele>212</ele>
        <time>2022-05-02T18:28:12Z</time>
      </trkpt>
      <trkpt lat="43.0297" lon="2.54932">
        <ele>213</ele>
        <time>2022-05-02T18:28:15Z</time>
      </trkpt>
      <trkpt lat="43.02943" lon="2.54897">
        <ele>216</ele>
        <time>2022-05-02T18:28:21Z</time>
      </trkpt>
      <trkpt lat="43.02933" lon="2.54881">
        <ele>215</ele>
        <time>2022-05-02T18:28:24Z</time>
      </trkpt>
      <trkpt lat="43.0291" lon="2.54817">
        <ele>207</ele>
        <time>2022-05-02T18:28:33Z</time>
      </trkpt>
      <trkpt lat="43.02894" lon="2.54796">
        <ele>211</ele>
        <time>2022-05-02T18:28:37Z</time>
      </trkpt>
      <trkpt lat="43.02838" lon="2.54744">
        <ele>207</ele>
        <time>2022-05-02T18:28:49Z</time>
      </trkpt>
      <trkpt lat="43.02768" lon="2.54697">
        <ele>206</ele>
        <time>2022-05-02T18:29:03Z</time>
      </trkpt>
      <trkpt lat="43.02747" lon="2.54687">
        <ele>204</ele>
        <time>2022-05-02T18:29:07Z</time>
      </trkpt>
      <trkpt lat="43.02701" lon="2.54678">
        <ele>204</ele>
        <time>2022-05-02T18:29:15Z</time>
      </trkpt>
      <trkpt lat="43.02694" lon="2.54674">
        <ele>203</ele>
        <time>2022-05-02T18:29:17Z</time>
      </trkpt>
      <trkpt lat="43.02686" lon="2.54659">
        <ele>202</ele>
        <time>2022-05-02T18:29:19Z</time>
      </trkpt>
      <trkpt lat="43.02672" lon="2.546">
        <ele>205</ele>
        <time>2022-05-02T18:29:27Z</time>
      </trkpt>
      <trkpt lat="43.02667" lon="2.54591">
        <ele>205</ele>
        <time>2022-05-02T18:29:29Z</time>
      </trkpt>
      <trkpt lat="43.02654" lon="2.54584">
        <ele>206</ele>
        <time>2022-05-02T18:29:31Z</time>
      </trkpt>
      <trkpt lat="43.02644" lon="2.54585">
        <ele>207</ele>
        <time>2022-05-02T18:29:33Z</time>
      </trkpt>
      <trkpt lat="43.0259" lon="2.54602">
        <ele>210</ele>
        <time>2022-05-02T18:29:43Z</time>
      </trkpt>
      <trkpt lat="43.02469" lon="2.54624">
        <ele>213</ele>
        <time>2022-05-02T18:30:04Z</time>
      </trkpt>
      <trkpt lat="43.02453" lon="2.54633">
        <ele>213</ele>
        <time>2022-05-02T18:30:08Z</time>
      </trkpt>
      <trkpt lat="43.0243" lon="2.5464">
        <ele>213</ele>
        <time>2022-05-02T18:30:12Z</time>
      </trkpt>
      <trkpt lat="43.02399" lon="2.54656">
        <ele>216</ele>
        <time>2022-05-02T18:30:18Z</time>
      </trkpt>
      <trkpt lat="43.02385" lon="2.5467">
        <ele>217</ele>
        <time>2022-05-02T18:30:21Z</time>
      </trkpt>
      <trkpt lat="43.02361" lon="2.54701">
        <ele>219</ele>
        <time>2022-05-02T18:30:27Z</time>
      </trkpt>
      <trkpt lat="43.02344" lon="2.5472">
        <ele>219</ele>
        <time>2022-05-02T18:30:30Z</time>
      </trkpt>
      <trkpt lat="43.02334" lon="2.54736">
        <ele>218</ele>
        <time>2022-05-02T18:30:33Z</time>
      </trkpt>
      <trkpt lat="43.02315" lon="2.54777">
        <ele>217</ele>
        <time>2022-05-02T18:30:40Z</time>
      </trkpt>
      <trkpt lat="43.02295" lon="2.54833">
        <ele>212</ele>
        <time>2022-05-02T18:30:48Z</time>
      </trkpt>
      <trkpt lat="43.02289" lon="2.54848">
        <ele>212</ele>
        <time>2022-05-02T18:30:50Z</time>
      </trkpt>
      <trkpt lat="43.02278" lon="2.54859">
        <ele>212</ele>
        <time>2022-05-02T18:30:52Z</time>
      </trkpt>
      <trkpt lat="43.02263" lon="2.54863">
        <ele>213</ele>
        <time>2022-05-02T18:30:55Z</time>
      </trkpt>
      <trkpt lat="43.0224" lon="2.54866">
        <ele>215</ele>
        <time>2022-05-02T18:30:59Z</time>
      </trkpt>
      <trkpt lat="43.02184" lon="2.54867">
        <ele>219</ele>
        <time>2022-05-02T18:31:09Z</time>
      </trkpt>
      <trkpt lat="43.02122" lon="2.5488">
        <ele>220</ele>
        <time>2022-05-02T18:31:20Z</time>
      </trkpt>
      <trkpt lat="43.02107" lon="2.54878">
        <ele>222</ele>
        <time>2022-05-02T18:31:23Z</time>
      </trkpt>
      <trkpt lat="43.02081" lon="2.54869">
        <ele>227</ele>
        <time>2022-05-02T18:31:28Z</time>
      </trkpt>
      <trkpt lat="43.02067" lon="2.54868">
        <ele>228</ele>
        <time>2022-05-02T18:31:30Z</time>
      </trkpt>
      <trkpt lat="43.02035" lon="2.54899">
        <ele>222</ele>
        <time>2022-05-02T18:31:37Z</time>
      </trkpt>
      <trkpt lat="43.02016" lon="2.54907">
        <ele>223</ele>
        <time>2022-05-02T18:31:41Z</time>
      </trkpt>
      <trkpt lat="43.01982" lon="2.54938">
        <ele>218</ele>
        <time>2022-05-02T18:31:48Z</time>
      </trkpt>
      <trkpt lat="43.0197" lon="2.5494">
        <ele>217</ele>
        <time>2022-05-02T18:31:50Z</time>
      </trkpt>
      <trkpt lat="43.01956" lon="2.54936">
        <ele>217</ele>
        <time>2022-05-02T18:31:53Z</time>
      </trkpt>
      <trkpt lat="43.01948" lon="2.5493">
        <ele>217</ele>
        <time>2022-05-02T18:31:54Z</time>
      </trkpt>
      <trkpt lat="43.01939" lon="2.5492">
        <ele>218</ele>
        <time>2022-05-02T18:31:56Z</time>
      </trkpt>
      <trkpt lat="43.01928" lon="2.54891">
        <ele>221</ele>
        <time>2022-05-02T18:32:01Z</time>
      </trkpt>
      <trkpt lat="43.0191" lon="2.54833">
        <ele>228</ele>
        <time>2022-05-02T18:32:09Z</time>
      </trkpt>
      <trkpt lat="43.01907" lon="2.54814">
        <ele>227</ele>
        <time>2022-05-02T18:32:11Z</time>
      </trkpt>
      <trkpt lat="43.01907" lon="2.54802">
        <ele>226</ele>
        <time>2022-05-02T18:32:13Z</time>
      </trkpt>
      <trkpt lat="43.0191" lon="2.54787">
        <ele>226</ele>
        <time>2022-05-02T18:32:15Z</time>
      </trkpt>
      <trkpt lat="43.01963" lon="2.54674">
        <ele>223</ele>
        <time>2022-05-02T18:32:32Z</time>
      </trkpt>
      <trkpt lat="43.01971" lon="2.54644">
        <ele>222</ele>
        <time>2022-05-02T18:32:37Z</time>
      </trkpt>
      <trkpt lat="43.01972" lon="2.54618">
        <ele>222</ele>
        <time>2022-05-02T18:32:40Z</time>
      </trkpt>
      <trkpt lat="43.01969" lon="2.5455">
        <ele>220</ele>
        <time>2022-05-02T18:32:49Z</time>
      </trkpt>
      <trkpt lat="43.01969" lon="2.5454">
        <ele>220</ele>
        <time>2022-05-02T18:32:50Z</time>
      </trkpt>
      <trkpt lat="43.01972" lon="2.5453">
        <ele>220</ele>
        <time>2022-05-02T18:32:51Z</time>
      </trkpt>
      <trkpt lat="43.01977" lon="2.54521">
        <ele>220</ele>
        <time>2022-05-02T18:32:53Z</time>
      </trkpt>
      <trkpt lat="43.0199" lon="2.54506">
        <ele>221</ele>
        <time>2022-05-02T18:32:56Z</time>
      </trkpt>
      <trkpt lat="43.02001" lon="2.545">
        <ele>221</ele>
        <time>2022-05-02T18:32:58Z</time>
      </trkpt>
      <trkpt lat="43.02051" lon="2.54488">
        <ele>225</ele>
        <time>2022-05-02T18:33:07Z</time>
      </trkpt>
      <trkpt lat="43.02067" lon="2.5448">
        <ele>226</ele>
        <time>2022-05-02T18:33:10Z</time>
      </trkpt>
      <trkpt lat="43.02079" lon="2.54464">
        <ele>227</ele>
        <time>2022-05-02T18:33:13Z</time>
      </trkpt>
      <trkpt lat="43.02083" lon="2.54449">
        <ele>227</ele>
        <time>2022-05-02T18:33:15Z</time>
      </trkpt>
      <trkpt lat="43.02084" lon="2.54438">
        <ele>227</ele>
        <time>2022-05-02T18:33:17Z</time>
      </trkpt>
      <trkpt lat="43.02083" lon="2.54428">
        <ele>226</ele>
        <time>2022-05-02T18:33:18Z</time>
      </trkpt>
      <trkpt lat="43.02076" lon="2.54411">
        <ele>226</ele>
        <time>2022-05-02T18:33:20Z</time>
      </trkpt>
      <trkpt lat="43.02064" lon="2.54396">
        <ele>227</ele>
        <time>2022-05-02T18:33:23Z</time>
      </trkpt>
      <trkpt lat="43.02057" lon="2.54392">
        <ele>228</ele>
        <time>2022-05-02T18:33:25Z</time>
      </trkpt>
      <trkpt lat="43.02051" lon="2.5439">
        <ele>228</ele>
        <time>2022-05-02T18:33:26Z</time>
      </trkpt>
      <trkpt lat="43.01926" lon="2.54408">
        <ele>227</ele>
        <time>2022-05-02T18:33:48Z</time>
      </trkpt>
      <trkpt lat="43.01906" lon="2.54405">
        <ele>227</ele>
        <time>2022-05-02T18:33:52Z</time>
      </trkpt>
      <trkpt lat="43.0189" lon="2.54401">
        <ele>227</ele>
        <time>2022-05-02T18:33:55Z</time>
      </trkpt>
      <trkpt lat="43.01759" lon="2.54326">
        <ele>229</ele>
        <time>2022-05-02T18:34:20Z</time>
      </trkpt>
      <trkpt lat="43.01748" lon="2.54318">
        <ele>229</ele>
        <time>2022-05-02T18:34:22Z</time>
      </trkpt>
      <trkpt lat="43.01741" lon="2.54309">
        <ele>229</ele>
        <time>2022-05-02T18:34:24Z</time>
      </trkpt>
      <trkpt lat="43.01735" lon="2.54296">
        <ele>229</ele>
        <time>2022-05-02T18:34:26Z</time>
      </trkpt>
      <trkpt lat="43.01732" lon="2.54284">
        <ele>230</ele>
        <time>2022-05-02T18:34:28Z</time>
      </trkpt>
      <trkpt lat="43.01735" lon="2.5399">
        <ele>238</ele>
        <time>2022-05-02T18:35:06Z</time>
      </trkpt>
      <trkpt lat="43.01742" lon="2.53964">
        <ele>236</ele>
        <time>2022-05-02T18:35:09Z</time>
      </trkpt>
      <trkpt lat="43.01758" lon="2.53925">
        <ele>237</ele>
        <time>2022-05-02T18:35:15Z</time>
      </trkpt>
      <trkpt lat="43.01774" lon="2.53874">
        <ele>241</ele>
        <time>2022-05-02T18:35:22Z</time>
      </trkpt>
      <trkpt lat="43.01777" lon="2.53853">
        <ele>242</ele>
        <time>2022-05-02T18:35:25Z</time>
      </trkpt>
      <trkpt lat="43.01777" lon="2.53831">
        <ele>241</ele>
        <time>2022-05-02T18:35:28Z</time>
      </trkpt>
      <trkpt lat="43.01769" lon="2.53791">
        <ele>241</ele>
        <time>2022-05-02T18:35:33Z</time>
      </trkpt>
      <trkpt lat="43.01756" lon="2.53761">
        <ele>238</ele>
        <time>2022-05-02T18:35:38Z</time>
      </trkpt>
      <trkpt lat="43.01733" lon="2.53728">
        <ele>237</ele>
        <time>2022-05-02T18:35:44Z</time>
      </trkpt>
      <trkpt lat="43.01675" lon="2.53656">
        <ele>237</ele>
        <time>2022-05-02T18:35:58Z</time>
      </trkpt>
      <trkpt lat="43.01663" lon="2.53647">
        <ele>238</ele>
        <time>2022-05-02T18:36:00Z</time>
      </trkpt>
      <trkpt lat="43.01653" lon="2.53646">
        <ele>239</ele>
        <time>2022-05-02T18:36:02Z</time>
      </trkpt>
      <trkpt lat="43.01643" lon="2.53649">
        <ele>239</ele>
        <time>2022-05-02T18:36:04Z</time>
      </trkpt>
      <trkpt lat="43.01566" lon="2.53713">
        <ele>234</ele>
        <time>2022-05-02T18:36:20Z</time>
      </trkpt>
      <trkpt lat="43.01488" lon="2.53783">
        <ele>231</ele>
        <time>2022-05-02T18:36:37Z</time>
      </trkpt>
      <trkpt lat="43.01485" lon="2.5379">
        <ele>230</ele>
        <time>2022-05-02T18:36:38Z</time>
      </trkpt>
      <trkpt lat="43.01484" lon="2.53805">
        <ele>227</ele>
        <time>2022-05-02T18:36:40Z</time>
      </trkpt>
      <trkpt lat="43.01484" lon="2.53819">
        <ele>225</ele>
        <time>2022-05-02T18:36:41Z</time>
      </trkpt>
      <trkpt lat="43.01489" lon="2.5385">
        <ele>226</ele>
        <time>2022-05-02T18:36:45Z</time>
      </trkpt>
      <trkpt lat="43.01491" lon="2.53859">
        <ele>229</ele>
        <time>2022-05-02T18:36:47Z</time>
      </trkpt>
      <trkpt lat="43.01491" lon="2.53869">
        <ele>232</ele>
        <time>2022-05-02T18:36:48Z</time>
      </trkpt>
      <trkpt lat="43.01502" lon="2.53866">
        <ele>231</ele>
        <time>2022-05-02T18:36:50Z</time>
      </trkpt>
      <trkpt lat="43.01514" lon="2.53866">
        <ele>230</ele>
        <time>2022-05-02T18:36:52Z</time>
      </trkpt>
      <trkpt lat="43.0156" lon="2.53879">
        <ele>231</ele>
        <time>2022-05-02T18:37:01Z</time>
      </trkpt>
      <trkpt lat="43.01592" lon="2.53891">
        <ele>230</ele>
        <time>2022-05-02T18:37:06Z</time>
      </trkpt>
      <trkpt lat="43.016" lon="2.539">
        <ele>230</ele>
        <time>2022-05-02T18:37:08Z</time>
      </trkpt>
      <trkpt lat="43.01604" lon="2.53911">
        <ele>231</ele>
        <time>2022-05-02T18:37:10Z</time>
      </trkpt>
      <trkpt lat="43.01607" lon="2.53958">
        <ele>235</ele>
        <time>2022-05-02T18:37:16Z</time>
      </trkpt>
      <trkpt lat="43.01605" lon="2.53974">
        <ele>237</ele>
        <time>2022-05-02T18:37:18Z</time>
      </trkpt>
      <trkpt lat="43.01595" lon="2.54022">
        <ele>241</ele>
        <time>2022-05-02T18:37:25Z</time>
      </trkpt>
      <trkpt lat="43.01577" lon="2.54085">
        <ele>242</ele>
        <time>2022-05-02T18:37:33Z</time>
      </trkpt>
      <trkpt lat="43.01565" lon="2.54145">
        <ele>243</ele>
        <time>2022-05-02T18:37:41Z</time>
      </trkpt>
      <trkpt lat="43.01548" lon="2.54263">
        <ele>246</ele>
        <time>2022-05-02T18:37:57Z</time>
      </trkpt>
      <trkpt lat="43.01547" lon="2.54277">
        <ele>246</ele>
        <time>2022-05-02T18:37:59Z</time>
      </trkpt>
      <trkpt lat="43.01555" lon="2.54332">
        <ele>239</ele>
        <time>2022-05-02T18:38:06Z</time>
      </trkpt>
      <trkpt lat="43.01556" lon="2.54348">
        <ele>236</ele>
        <time>2022-05-02T18:38:08Z</time>
      </trkpt>
      <trkpt lat="43.01551" lon="2.54363">
        <ele>235</ele>
        <time>2022-05-02T18:38:10Z</time>
      </trkpt>
      <trkpt lat="43.01543" lon="2.54372">
        <ele>237</ele>
        <time>2022-05-02T18:38:12Z</time>
      </trkpt>
      <trkpt lat="43.01487" lon="2.54409">
        <ele>245</ele>
        <time>2022-05-02T18:38:23Z</time>
      </trkpt>
      <trkpt lat="43.01437" lon="2.54454">
        <ele>244</ele>
        <time>2022-05-02T18:38:34Z</time>
      </trkpt>
      <trkpt lat="43.01425" lon="2.54462">
        <ele>245</ele>
        <time>2022-05-02T18:38:36Z</time>
      </trkpt>
      <trkpt lat="43.01412" lon="2.54465">
        <ele>246</ele>
        <time>2022-05-02T18:38:39Z</time>
      </trkpt>
      <trkpt lat="43.01353" lon="2.54481">
        <ele>244</ele>
        <time>2022-05-02T18:38:49Z</time>
      </trkpt>
      <trkpt lat="43.01343" lon="2.5448">
        <ele>244</ele>
        <time>2022-05-02T18:38:51Z</time>
      </trkpt>
      <trkpt lat="43.01336" lon="2.54478">
        <ele>244</ele>
        <time>2022-05-02T18:38:53Z</time>
      </trkpt>
      <trkpt lat="43.01326" lon="2.54471">
        <ele>245</ele>
        <time>2022-05-02T18:38:55Z</time>
      </trkpt>
      <trkpt lat="43.01306" lon="2.54438">
        <ele>248</ele>
        <time>2022-05-02T18:39:00Z</time>
      </trkpt>
      <trkpt lat="43.01298" lon="2.54431">
        <ele>249</ele>
        <time>2022-05-02T18:39:02Z</time>
      </trkpt>
      <trkpt lat="43.01288" lon="2.54426">
        <ele>250</ele>
        <time>2022-05-02T18:39:04Z</time>
      </trkpt>
      <trkpt lat="43.01267" lon="2.54424">
        <ele>251</ele>
        <time>2022-05-02T18:39:07Z</time>
      </trkpt>
      <trkpt lat="43.01254" lon="2.54427">
        <ele>251</ele>
        <time>2022-05-02T18:39:10Z</time>
      </trkpt>
      <trkpt lat="43.01216" lon="2.5444">
        <ele>252</ele>
        <time>2022-05-02T18:39:17Z</time>
      </trkpt>
      <trkpt lat="43.01209" lon="2.54446">
        <ele>252</ele>
        <time>2022-05-02T18:39:18Z</time>
      </trkpt>
      <trkpt lat="43.01202" lon="2.54456">
        <ele>251</ele>
        <time>2022-05-02T18:39:20Z</time>
      </trkpt>
      <trkpt lat="43.01175" lon="2.54524">
        <ele>243</ele>
        <time>2022-05-02T18:39:30Z</time>
      </trkpt>
      <trkpt lat="43.0117" lon="2.54533">
        <ele>242</ele>
        <time>2022-05-02T18:39:32Z</time>
      </trkpt>
      <trkpt lat="43.01159" lon="2.54543">
        <ele>241</ele>
        <time>2022-05-02T18:39:34Z</time>
      </trkpt>
      <trkpt lat="43.0113" lon="2.54553">
        <ele>241</ele>
        <time>2022-05-02T18:39:39Z</time>
      </trkpt>
      <trkpt lat="43.01114" lon="2.54563">
        <ele>240</ele>
        <time>2022-05-02T18:39:42Z</time>
      </trkpt>
      <trkpt lat="43.01094" lon="2.54584">
        <ele>238</ele>
        <time>2022-05-02T18:39:47Z</time>
      </trkpt>
      <trkpt lat="43.01083" lon="2.54588">
        <ele>239</ele>
        <time>2022-05-02T18:39:49Z</time>
      </trkpt>
      <trkpt lat="43.01076" lon="2.54585">
        <ele>238</ele>
        <time>2022-05-02T18:39:50Z</time>
      </trkpt>
      <trkpt lat="43.0107" lon="2.54579">
        <ele>239</ele>
        <time>2022-05-02T18:39:52Z</time>
      </trkpt>
      <trkpt lat="43.0105" lon="2.54544">
        <ele>244</ele>
        <time>2022-05-02T18:39:57Z</time>
      </trkpt>
      <trkpt lat="43.01039" lon="2.54532">
        <ele>245</ele>
        <time>2022-05-02T18:40:00Z</time>
      </trkpt>
      <trkpt lat="43.01019" lon="2.5452">
        <ele>248</ele>
        <time>2022-05-02T18:40:04Z</time>
      </trkpt>
      <trkpt lat="43.01001" lon="2.54517">
        <ele>248</ele>
        <time>2022-05-02T18:40:07Z</time>
      </trkpt>
      <trkpt lat="43.00987" lon="2.54517">
        <ele>251</ele>
        <time>2022-05-02T18:40:09Z</time>
      </trkpt>
      <trkpt lat="43.00968" lon="2.54524">
        <ele>254</ele>
        <time>2022-05-02T18:40:13Z</time>
      </trkpt>
      <trkpt lat="43.00955" lon="2.54538">
        <ele>255</ele>
        <time>2022-05-02T18:40:16Z</time>
      </trkpt>
      <trkpt lat="43.00944" lon="2.54563">
        <ele>252</ele>
        <time>2022-05-02T18:40:20Z</time>
      </trkpt>
      <trkpt lat="43.00942" lon="2.54574">
        <ele>250</ele>
        <time>2022-05-02T18:40:21Z</time>
      </trkpt>
      <trkpt lat="43.00931" lon="2.54622">
        <ele>247</ele>
        <time>2022-05-02T18:40:28Z</time>
      </trkpt>
      <trkpt lat="43.00932" lon="2.54654">
        <ele>244</ele>
        <time>2022-05-02T18:40:32Z</time>
      </trkpt>
      <trkpt lat="43.00936" lon="2.54687">
        <ele>245</ele>
        <time>2022-05-02T18:40:36Z</time>
      </trkpt>
      <trkpt lat="43.00966" lon="2.54761">
        <ele>245</ele>
        <time>2022-05-02T18:40:47Z</time>
      </trkpt>
      <trkpt lat="43.00976" lon="2.548">
        <ele>245</ele>
        <time>2022-05-02T18:40:53Z</time>
      </trkpt>
      <trkpt lat="43.00976" lon="2.54822">
        <ele>246</ele>
        <time>2022-05-02T18:40:55Z</time>
      </trkpt>
      <trkpt lat="43.00972" lon="2.54832">
        <ele>248</ele>
        <time>2022-05-02T18:40:57Z</time>
      </trkpt>
      <trkpt lat="43.00947" lon="2.54853">
        <ele>252</ele>
        <time>2022-05-02T18:41:02Z</time>
      </trkpt>
      <trkpt lat="43.00937" lon="2.54864">
        <ele>253</ele>
        <time>2022-05-02T18:41:04Z</time>
      </trkpt>
      <trkpt lat="43.00845" lon="2.55007">
        <ele>258</ele>
        <time>2022-05-02T18:41:29Z</time>
      </trkpt>
      <trkpt lat="43.00838" lon="2.55022">
        <ele>256</ele>
        <time>2022-05-02T18:41:32Z</time>
      </trkpt>
      <trkpt lat="43.00821" lon="2.55064">
        <ele>253</ele>
        <time>2022-05-02T18:41:38Z</time>
      </trkpt>
      <trkpt lat="43.00812" lon="2.55112">
        <ele>253</ele>
        <time>2022-05-02T18:41:44Z</time>
      </trkpt>
      <trkpt lat="43.0081" lon="2.55117">
        <ele>253</ele>
        <time>2022-05-02T18:41:45Z</time>
      </trkpt>
      <trkpt lat="43.00806" lon="2.55119">
        <ele>253</ele>
        <time>2022-05-02T18:41:46Z</time>
      </trkpt>
      <trkpt lat="43.00771" lon="2.55124">
        <ele>255</ele>
        <time>2022-05-02T18:41:52Z</time>
      </trkpt>
      <trkpt lat="43.00755" lon="2.55123">
        <ele>256</ele>
        <time>2022-05-02T18:41:55Z</time>
      </trkpt>
      <trkpt lat="43.00729" lon="2.55103">
        <ele>259</ele>
        <time>2022-05-02T18:42:00Z</time>
      </trkpt>
      <trkpt lat="43.00703" lon="2.55095">
        <ele>261</ele>
        <time>2022-05-02T18:42:05Z</time>
      </trkpt>
      <trkpt lat="43.00627" lon="2.55097">
        <ele>265</ele>
        <time>2022-05-02T18:42:18Z</time>
      </trkpt>
      <trkpt lat="43.00614" lon="2.55103">
        <ele>265</ele>
        <time>2022-05-02T18:42:21Z</time>
      </trkpt>
      <trkpt lat="43.00599" lon="2.55117">
        <ele>264</ele>
        <time>2022-05-02T18:42:24Z</time>
      </trkpt>
      <trkpt lat="43.00587" lon="2.5512">
        <ele>264</ele>
        <time>2022-05-02T18:42:26Z</time>
      </trkpt>
      <trkpt lat="43.00575" lon="2.55121">
        <ele>265</ele>
        <time>2022-05-02T18:42:28Z</time>
      </trkpt>
      <trkpt lat="43.00554" lon="2.55107">
        <ele>268</ele>
        <time>2022-05-02T18:42:33Z</time>
      </trkpt>
      <trkpt lat="43.00539" lon="2.55088">
        <ele>271</ele>
        <time>2022-05-02T18:42:36Z</time>
      </trkpt>
      <trkpt lat="43.00529" lon="2.5508">
        <ele>272</ele>
        <time>2022-05-02T18:42:38Z</time>
      </trkpt>
      <trkpt lat="43.00526" lon="2.55078">
        <ele>272</ele>
        <time>2022-05-02T18:42:39Z</time>
      </trkpt>
      <trkpt lat="43.00517" lon="2.5508">
        <ele>272</ele>
        <time>2022-05-02T18:42:40Z</time>
      </trkpt>
      <trkpt lat="43.00511" lon="2.55086">
        <ele>272</ele>
        <time>2022-05-02T18:42:42Z</time>
      </trkpt>
      <trkpt lat="43.00503" lon="2.55112">
        <ele>270</ele>
        <time>2022-05-02T18:42:45Z</time>
      </trkpt>
      <trkpt lat="43.005" lon="2.55118">
        <ele>270</ele>
        <time>2022-05-02T18:42:46Z</time>
      </trkpt>
      <trkpt lat="43.00495" lon="2.55122">
        <ele>270</ele>
        <time>2022-05-02T18:42:47Z</time>
      </trkpt>
      <trkpt lat="43.00468" lon="2.55132">
        <ele>273</ele>
        <time>2022-05-02T18:42:52Z</time>
      </trkpt>
      <trkpt lat="43.0045" lon="2.55143">
        <ele>274</ele>
        <time>2022-05-02T18:42:56Z</time>
      </trkpt>
      <trkpt lat="43.00437" lon="2.55162">
        <ele>274</ele>
        <time>2022-05-02T18:42:59Z</time>
      </trkpt>
      <trkpt lat="43.00418" lon="2.55195">
        <ele>276</ele>
        <time>2022-05-02T18:43:05Z</time>
      </trkpt>
      <trkpt lat="43.00396" lon="2.55242">
        <ele>278</ele>
        <time>2022-05-02T18:43:12Z</time>
      </trkpt>
      <trkpt lat="43.0039" lon="2.55248">
        <ele>279</ele>
        <time>2022-05-02T18:43:13Z</time>
      </trkpt>
      <trkpt lat="43.00383" lon="2.55251">
        <ele>279</ele>
        <time>2022-05-02T18:43:15Z</time>
      </trkpt>
      <trkpt lat="43.00348" lon="2.55248">
        <ele>281</ele>
        <time>2022-05-02T18:43:21Z</time>
      </trkpt>
      <trkpt lat="43.00347" lon="2.55249">
        <ele>281</ele>
        <time>2022-05-02T18:43:21Z</time>
      </trkpt>
      <trkpt lat="43.00329" lon="2.55284">
        <ele>287</ele>
        <time>2022-05-02T18:43:27Z</time>
      </trkpt>
      <trkpt lat="43.00327" lon="2.55292">
        <ele>289</ele>
        <time>2022-05-02T18:43:28Z</time>
      </trkpt>
      <trkpt lat="43.00329" lon="2.553">
        <ele>290</ele>
        <time>2022-05-02T18:43:29Z</time>
      </trkpt>
      <trkpt lat="43.0034" lon="2.5532">
        <ele>292</ele>
        <time>2022-05-02T18:43:32Z</time>
      </trkpt>
      <trkpt lat="43.00346" lon="2.55326">
        <ele>293</ele>
        <time>2022-05-02T18:43:33Z</time>
      </trkpt>
      <trkpt lat="43.00356" lon="2.5533">
        <ele>293</ele>
        <time>2022-05-02T18:43:35Z</time>
      </trkpt>
      <trkpt lat="43.00408" lon="2.55329">
        <ele>292</ele>
        <time>2022-05-02T18:43:45Z</time>
      </trkpt>
      <trkpt lat="43.0042" lon="2.55323">
        <ele>291</ele>
        <time>2022-05-02T18:43:47Z</time>
      </trkpt>
      <trkpt lat="43.00462" lon="2.5528">
        <ele>279</ele>
        <time>2022-05-02T18:43:56Z</time>
      </trkpt>
      <trkpt lat="43.0047" lon="2.55279">
        <ele>278</ele>
        <time>2022-05-02T18:43:58Z</time>
      </trkpt>
      <trkpt lat="43.00478" lon="2.55282">
        <ele>278</ele>
        <time>2022-05-02T18:43:59Z</time>
      </trkpt>
      <trkpt lat="43.00482" lon="2.55289">
        <ele>279</ele>
        <time>2022-05-02T18:44:00Z</time>
      </trkpt>
      <trkpt lat="43.00483" lon="2.55299">
        <ele>280</ele>
        <time>2022-05-02T18:44:02Z</time>
      </trkpt>
      <trkpt lat="43.00482" lon="2.55308">
        <ele>282</ele>
        <time>2022-05-02T18:44:03Z</time>
      </trkpt>
      <trkpt lat="43.00478" lon="2.55317">
        <ele>284</ele>
        <time>2022-05-02T18:44:04Z</time>
      </trkpt>
      <trkpt lat="43.00458" lon="2.55343">
        <ele>290</ele>
        <time>2022-05-02T18:44:09Z</time>
      </trkpt>
      <trkpt lat="43.0045" lon="2.55365">
        <ele>295</ele>
        <time>2022-05-02T18:44:12Z</time>
      </trkpt>
      <trkpt lat="43.00451" lon="2.55376">
        <ele>297</ele>
        <time>2022-05-02T18:44:14Z</time>
      </trkpt>
      <trkpt lat="43.00455" lon="2.55396">
        <ele>300</ele>
        <time>2022-05-02T18:44:16Z</time>
      </trkpt>
      <trkpt lat="43.00462" lon="2.55411">
        <ele>301</ele>
        <time>2022-05-02T18:44:19Z</time>
      </trkpt>
      <trkpt lat="43.00473" lon="2.55429">
        <ele>303</ele>
        <time>2022-05-02T18:44:22Z</time>
      </trkpt>
      <trkpt lat="43.00504" lon="2.55465">
        <ele>306</ele>
        <time>2022-05-02T18:44:29Z</time>
      </trkpt>
      <trkpt lat="43.00517" lon="2.55494">
        <ele>310</ele>
        <time>2022-05-02T18:44:33Z</time>
      </trkpt>
      <trkpt lat="43.00519" lon="2.55509">
        <ele>311</ele>
        <time>2022-05-02T18:44:35Z</time>
      </trkpt>
      <trkpt lat="43.00519" lon="2.55529">
        <ele>314</ele>
        <time>2022-05-02T18:44:38Z</time>
      </trkpt>
      <trkpt lat="43.00518" lon="2.55542">
        <ele>316</ele>
        <time>2022-05-02T18:44:40Z</time>
      </trkpt>
      <trkpt lat="43.00494" lon="2.55608">
        <ele>329</ele>
        <time>2022-05-02T18:44:49Z</time>
      </trkpt>
      <trkpt lat="43.00484" lon="2.5562">
        <ele>333</ele>
        <time>2022-05-02T18:44:52Z</time>
      </trkpt>
      <trkpt lat="43.00477" lon="2.55625">
        <ele>335</ele>
        <time>2022-05-02T18:44:53Z</time>
      </trkpt>
      <trkpt lat="43.00461" lon="2.55635">
        <ele>340</ele>
        <time>2022-05-02T18:44:56Z</time>
      </trkpt>
      <trkpt lat="43.00456" lon="2.55639">
        <ele>340</ele>
        <time>2022-05-02T18:44:57Z</time>
      </trkpt>
      <trkpt lat="43.00451" lon="2.55647">
        <ele>341</ele>
        <time>2022-05-02T18:44:59Z</time>
      </trkpt>
      <trkpt lat="43.00448" lon="2.55657">
        <ele>340</ele>
        <time>2022-05-02T18:45:00Z</time>
      </trkpt>
      <trkpt lat="43.00424" lon="2.55751">
        <ele>330</ele>
        <time>2022-05-02T18:45:13Z</time>
      </trkpt>
      <trkpt lat="43.00417" lon="2.55781">
        <ele>330</ele>
        <time>2022-05-02T18:45:17Z</time>
      </trkpt>
      <trkpt lat="43.00416" lon="2.55801">
        <ele>331</ele>
        <time>2022-05-02T18:45:20Z</time>
      </trkpt>
      <trkpt lat="43.00419" lon="2.55823">
        <ele>331</ele>
        <time>2022-05-02T18:45:23Z</time>
      </trkpt>
      <trkpt lat="43.00426" lon="2.55839">
        <ele>332</ele>
        <time>2022-05-02T18:45:25Z</time>
      </trkpt>
      <trkpt lat="43.00434" lon="2.55854">
        <ele>335</ele>
        <time>2022-05-02T18:45:27Z</time>
      </trkpt>
      <trkpt lat="43.00444" lon="2.5586">
        <ele>335</ele>
        <time>2022-05-02T18:45:29Z</time>
      </trkpt>
      <trkpt lat="43.00459" lon="2.55865">
        <ele>335</ele>
        <time>2022-05-02T18:45:32Z</time>
      </trkpt>
      <trkpt lat="43.005" lon="2.55864">
        <ele>332</ele>
        <time>2022-05-02T18:45:39Z</time>
      </trkpt>
      <trkpt lat="43.00507" lon="2.55867">
        <ele>335</ele>
        <time>2022-05-02T18:45:41Z</time>
      </trkpt>
      <trkpt lat="43.00511" lon="2.55872">
        <ele>337</ele>
        <time>2022-05-02T18:45:42Z</time>
      </trkpt>
      <trkpt lat="43.00516" lon="2.55886">
        <ele>338</ele>
        <time>2022-05-02T18:45:44Z</time>
      </trkpt>
      <trkpt lat="43.00517" lon="2.55904">
        <ele>339</ele>
        <time>2022-05-02T18:45:46Z</time>
      </trkpt>
      <trkpt lat="43.00514" lon="2.5593">
        <ele>337</ele>
        <time>2022-05-02T18:45:49Z</time>
      </trkpt>
      <trkpt lat="43.00489" lon="2.55991">
        <ele>334</ele>
        <time>2022-05-02T18:45:59Z</time>
      </trkpt>
      <trkpt lat="43.00475" lon="2.56043">
        <ele>337</ele>
        <time>2022-05-02T18:46:06Z</time>
      </trkpt>
      <trkpt lat="43.00471" lon="2.56071">
        <ele>337</ele>
        <time>2022-05-02T18:46:09Z</time>
      </trkpt>
      <trkpt lat="43.00472" lon="2.56114">
        <ele>335</ele>
        <time>2022-05-02T18:46:15Z</time>
      </trkpt>
      <trkpt lat="43.0047" lon="2.56148">
        <ele>333</ele>
        <time>2022-05-02T18:46:19Z</time>
      </trkpt>
      <trkpt lat="43.00469" lon="2.56187">
        <ele>334</ele>
        <time>2022-05-02T18:46:25Z</time>
      </trkpt>
      <trkpt lat="43.00465" lon="2.56198">
        <ele>335</ele>
        <time>2022-05-02T18:46:26Z</time>
      </trkpt>
      <trkpt lat="43.00457" lon="2.56202">
        <ele>336</ele>
        <time>2022-05-02T18:46:28Z</time>
      </trkpt>
      <trkpt lat="43.00445" lon="2.56203">
        <ele>336</ele>
        <time>2022-05-02T18:46:30Z</time>
      </trkpt>
      <trkpt lat="43.00412" lon="2.562">
        <ele>337</ele>
        <time>2022-05-02T18:46:36Z</time>
      </trkpt>
      <trkpt lat="43.00397" lon="2.56195">
        <ele>338</ele>
        <time>2022-05-02T18:46:38Z</time>
      </trkpt>
      <trkpt lat="43.00382" lon="2.56185">
        <ele>338</ele>
        <time>2022-05-02T18:46:41Z</time>
      </trkpt>
      <trkpt lat="43.00366" lon="2.5617">
        <ele>337</ele>
        <time>2022-05-02T18:46:45Z</time>
      </trkpt>
      <trkpt lat="43.00357" lon="2.56157">
        <ele>337</ele>
        <time>2022-05-02T18:46:47Z</time>
      </trkpt>
      <trkpt lat="43.00353" lon="2.5614">
        <ele>337</ele>
        <time>2022-05-02T18:46:50Z</time>
      </trkpt>
      <trkpt lat="43.00354" lon="2.56123">
        <ele>338</ele>
        <time>2022-05-02T18:46:52Z</time>
      </trkpt>
      <trkpt lat="43.00365" lon="2.56071">
        <ele>342</ele>
        <time>2022-05-02T18:46:59Z</time>
      </trkpt>
      <trkpt lat="43.00368" lon="2.56049">
        <ele>344</ele>
        <time>2022-05-02T18:47:02Z</time>
      </trkpt>
      <trkpt lat="43.00364" lon="2.56013">
        <ele>346</ele>
        <time>2022-05-02T18:47:06Z</time>
      </trkpt>
      <trkpt lat="43.00356" lon="2.55977">
        <ele>345</ele>
        <time>2022-05-02T18:47:11Z</time>
      </trkpt>
      <trkpt lat="43.00346" lon="2.55952">
        <ele>345</ele>
        <time>2022-05-02T18:47:15Z</time>
      </trkpt>
      <trkpt lat="43.00333" lon="2.5593">
        <ele>344</ele>
        <time>2022-05-02T18:47:19Z</time>
      </trkpt>
      <trkpt lat="43.00312" lon="2.55903">
        <ele>348</ele>
        <time>2022-05-02T18:47:24Z</time>
      </trkpt>
      <trkpt lat="43.00302" lon="2.55895">
        <ele>350</ele>
        <time>2022-05-02T18:47:26Z</time>
      </trkpt>
      <trkpt lat="43.00239" lon="2.55881">
        <ele>354</ele>
        <time>2022-05-02T18:47:37Z</time>
      </trkpt>
      <trkpt lat="43.00224" lon="2.55883">
        <ele>354</ele>
        <time>2022-05-02T18:47:40Z</time>
      </trkpt>
      <trkpt lat="43.00195" lon="2.55896">
        <ele>351</ele>
        <time>2022-05-02T18:47:45Z</time>
      </trkpt>
      <trkpt lat="43.00175" lon="2.55902">
        <ele>350</ele>
        <time>2022-05-02T18:47:49Z</time>
      </trkpt>
      <trkpt lat="43.0013" lon="2.55889">
        <ele>353</ele>
        <time>2022-05-02T18:47:57Z</time>
      </trkpt>
      <trkpt lat="43.00122" lon="2.55889">
        <ele>352</ele>
        <time>2022-05-02T18:47:59Z</time>
      </trkpt>
      <trkpt lat="43.00119" lon="2.55892">
        <ele>352</ele>
        <time>2022-05-02T18:47:59Z</time>
      </trkpt>
      <trkpt lat="43.00106" lon="2.55922">
        <ele>346</ele>
        <time>2022-05-02T18:48:04Z</time>
      </trkpt>
      <trkpt lat="43.00103" lon="2.55933">
        <ele>347</ele>
        <time>2022-05-02T18:48:05Z</time>
      </trkpt>
      <trkpt lat="43.00099" lon="2.5595">
        <ele>348</ele>
        <time>2022-05-02T18:48:08Z</time>
      </trkpt>
      <trkpt lat="43.00097" lon="2.55995">
        <ele>352</ele>
        <time>2022-05-02T18:48:14Z</time>
      </trkpt>
      <trkpt lat="43.00103" lon="2.56035">
        <ele>357</ele>
        <time>2022-05-02T18:48:19Z</time>
      </trkpt>
      <trkpt lat="43.00103" lon="2.56055">
        <ele>358</ele>
        <time>2022-05-02T18:48:21Z</time>
      </trkpt>
      <trkpt lat="43.00099" lon="2.56074">
        <ele>358</ele>
        <time>2022-05-02T18:48:24Z</time>
      </trkpt>
      <trkpt lat="43.00091" lon="2.56092">
        <ele>354</ele>
        <time>2022-05-02T18:48:27Z</time>
      </trkpt>
      <trkpt lat="43.00083" lon="2.56105">
        <ele>351</ele>
        <time>2022-05-02T18:48:29Z</time>
      </trkpt>
      <trkpt lat="43.00074" lon="2.56118">
        <ele>352</ele>
        <time>2022-05-02T18:48:31Z</time>
      </trkpt>
      <trkpt lat="43.0006" lon="2.56134">
        <ele>353</ele>
        <time>2022-05-02T18:48:35Z</time>
      </trkpt>
      <trkpt lat="43.00049" lon="2.56145">
        <ele>353</ele>
        <time>2022-05-02T18:48:37Z</time>
      </trkpt>
      <trkpt lat="43.00029" lon="2.56159">
        <ele>353</ele>
        <time>2022-05-02T18:48:41Z</time>
      </trkpt>
      <trkpt lat="43.00024" lon="2.56174">
        <ele>353</ele>
        <time>2022-05-02T18:48:43Z</time>
      </trkpt>
      <trkpt lat="43.00018" lon="2.56204">
        <ele>352</ele>
        <time>2022-05-02T18:48:47Z</time>
      </trkpt>
      <trkpt lat="43.00017" lon="2.56209">
        <ele>352</ele>
        <time>2022-05-02T18:48:48Z</time>
      </trkpt>
      <trkpt lat="43.00018" lon="2.56243">
        <ele>351</ele>
        <time>2022-05-02T18:48:52Z</time>
      </trkpt>
      <trkpt lat="43.00023" lon="2.56277">
        <ele>351</ele>
        <time>2022-05-02T18:48:57Z</time>
      </trkpt>
      <trkpt lat="43.00032" lon="2.56299">
        <ele>353</ele>
        <time>2022-05-02T18:49:00Z</time>
      </trkpt>
      <trkpt lat="43.00047" lon="2.56339">
        <ele>355</ele>
        <time>2022-05-02T18:49:06Z</time>
      </trkpt>
      <trkpt lat="43.00054" lon="2.56358">
        <ele>355</ele>
        <time>2022-05-02T18:49:09Z</time>
      </trkpt>
      <trkpt lat="43.00059" lon="2.56379">
        <ele>354</ele>
        <time>2022-05-02T18:49:12Z</time>
      </trkpt>
      <trkpt lat="43.00077" lon="2.56459">
        <ele>353</ele>
        <time>2022-05-02T18:49:22Z</time>
      </trkpt>
      <trkpt lat="43.00086" lon="2.56509">
        <ele>356</ele>
        <time>2022-05-02T18:49:29Z</time>
      </trkpt>
      <trkpt lat="43.00095" lon="2.5652">
        <ele>360</ele>
        <time>2022-05-02T18:49:31Z</time>
      </trkpt>
      <trkpt lat="43.00119" lon="2.56539">
        <ele>367</ele>
        <time>2022-05-02T18:49:36Z</time>
      </trkpt>
      <trkpt lat="43.00195" lon="2.5658">
        <ele>380</ele>
        <time>2022-05-02T18:49:51Z</time>
      </trkpt>
      <trkpt lat="43.00203" lon="2.56587">
        <ele>382</ele>
        <time>2022-05-02T18:49:52Z</time>
      </trkpt>
      <trkpt lat="43.0021" lon="2.56597">
        <ele>384</ele>
        <time>2022-05-02T18:49:54Z</time>
      </trkpt>
      <trkpt lat="43.00215" lon="2.56618">
        <ele>386</ele>
        <time>2022-05-02T18:49:57Z</time>
      </trkpt>
      <trkpt lat="43.00219" lon="2.56654">
        <ele>386</ele>
        <time>2022-05-02T18:50:02Z</time>
      </trkpt>
      <trkpt lat="43.00219" lon="2.56691">
        <ele>388</ele>
        <time>2022-05-02T18:50:07Z</time>
      </trkpt>
      <trkpt lat="43.00217" lon="2.56715">
        <ele>390</ele>
        <time>2022-05-02T18:50:10Z</time>
      </trkpt>
      <trkpt lat="43.00214" lon="2.5673">
        <ele>391</ele>
        <time>2022-05-02T18:50:12Z</time>
      </trkpt>
      <trkpt lat="43.00208" lon="2.56739">
        <ele>391</ele>
        <time>2022-05-02T18:50:13Z</time>
      </trkpt>
      <trkpt lat="43.00195" lon="2.56754">
        <ele>392</ele>
        <time>2022-05-02T18:50:16Z</time>
      </trkpt>
      <trkpt lat="43.00191" lon="2.56766">
        <ele>392</ele>
        <time>2022-05-02T18:50:18Z</time>
      </trkpt>
      <trkpt lat="43.00189" lon="2.5678">
        <ele>393</ele>
        <time>2022-05-02T18:50:20Z</time>
      </trkpt>
      <trkpt lat="43.00192" lon="2.56878">
        <ele>397</ele>
        <time>2022-05-02T18:50:33Z</time>
      </trkpt>
      <trkpt lat="43.0019" lon="2.56907">
        <ele>398</ele>
        <time>2022-05-02T18:50:37Z</time>
      </trkpt>
      <trkpt lat="43.00184" lon="2.56928">
        <ele>398</ele>
        <time>2022-05-02T18:50:40Z</time>
      </trkpt>
      <trkpt lat="43.00153" lon="2.57011">
        <ele>401</ele>
        <time>2022-05-02T18:50:52Z</time>
      </trkpt>
      <trkpt lat="43.0014" lon="2.57049">
        <ele>406</ele>
        <time>2022-05-02T18:50:57Z</time>
      </trkpt>
      <trkpt lat="43.00123" lon="2.57093">
        <ele>411</ele>
        <time>2022-05-02T18:51:04Z</time>
      </trkpt>
      <trkpt lat="43.0011" lon="2.57159">
        <ele>413</ele>
        <time>2022-05-02T18:51:12Z</time>
      </trkpt>
      <trkpt lat="43.00102" lon="2.57175">
        <ele>413</ele>
        <time>2022-05-02T18:51:15Z</time>
      </trkpt>
      <trkpt lat="43.00086" lon="2.57201">
        <ele>412</ele>
        <time>2022-05-02T18:51:19Z</time>
      </trkpt>
      <trkpt lat="43.00072" lon="2.57241">
        <ele>414</ele>
        <time>2022-05-02T18:51:25Z</time>
      </trkpt>
      <trkpt lat="43.00058" lon="2.57305">
        <ele>418</ele>
        <time>2022-05-02T18:51:34Z</time>
      </trkpt>
      <trkpt lat="43.00045" lon="2.5733">
        <ele>419</ele>
        <time>2022-05-02T18:51:38Z</time>
      </trkpt>
      <trkpt lat="43.00021" lon="2.5737">
        <ele>423</ele>
        <time>2022-05-02T18:51:45Z</time>
      </trkpt>
      <trkpt lat="43.00008" lon="2.57425">
        <ele>424</ele>
        <time>2022-05-02T18:51:52Z</time>
      </trkpt>
      <trkpt lat="42.99997" lon="2.57464">
        <ele>427</ele>
        <time>2022-05-02T18:51:58Z</time>
      </trkpt>
      <trkpt lat="42.99987" lon="2.57484">
        <ele>431</ele>
        <time>2022-05-02T18:52:01Z</time>
      </trkpt>
      <trkpt lat="42.9998" lon="2.57517">
        <ele>435</ele>
        <time>2022-05-02T18:52:05Z</time>
      </trkpt>
      <trkpt lat="42.99971" lon="2.57547">
        <ele>437</ele>
        <time>2022-05-02T18:52:09Z</time>
      </trkpt>
      <trkpt lat="42.99924" lon="2.57638">
        <ele>445</ele>
        <time>2022-05-02T18:52:24Z</time>
      </trkpt>
      <trkpt lat="42.9991" lon="2.57657">
        <ele>447</ele>
        <time>2022-05-02T18:52:27Z</time>
      </trkpt>
      <trkpt lat="42.99903" lon="2.57671">
        <ele>449</ele>
        <time>2022-05-02T18:52:30Z</time>
      </trkpt>
      <trkpt lat="42.99902" lon="2.57678">
        <ele>450</ele>
        <time>2022-05-02T18:52:31Z</time>
      </trkpt>
      <trkpt lat="42.99903" lon="2.57684">
        <ele>450</ele>
        <time>2022-05-02T18:52:31Z</time>
      </trkpt>
      <trkpt lat="42.99906" lon="2.5769">
        <ele>450</ele>
        <time>2022-05-02T18:52:32Z</time>
      </trkpt>
      <trkpt lat="42.99916" lon="2.5769">
        <ele>448</ele>
        <time>2022-05-02T18:52:34Z</time>
      </trkpt>
      <trkpt lat="42.99926" lon="2.57686">
        <ele>448</ele>
        <time>2022-05-02T18:52:36Z</time>
      </trkpt>
      <trkpt lat="42.99936" lon="2.5768">
        <ele>447</ele>
        <time>2022-05-02T18:52:38Z</time>
      </trkpt>
      <trkpt lat="42.99971" lon="2.57645">
        <ele>442</ele>
        <time>2022-05-02T18:52:46Z</time>
      </trkpt>
      <trkpt lat="42.99987" lon="2.57635">
        <ele>440</ele>
        <time>2022-05-02T18:52:49Z</time>
      </trkpt>
      <trkpt lat="42.99994" lon="2.57633">
        <ele>439</ele>
        <time>2022-05-02T18:52:50Z</time>
      </trkpt>
      <trkpt lat="43.00001" lon="2.57634">
        <ele>439</ele>
        <time>2022-05-02T18:52:51Z</time>
      </trkpt>
      <trkpt lat="43.0001" lon="2.57639">
        <ele>442</ele>
        <time>2022-05-02T18:52:53Z</time>
      </trkpt>
      <trkpt lat="43.00021" lon="2.57649">
        <ele>446</ele>
        <time>2022-05-02T18:52:55Z</time>
      </trkpt>
      <trkpt lat="43.00033" lon="2.57665">
        <ele>451</ele>
        <time>2022-05-02T18:52:58Z</time>
      </trkpt>
      <trkpt lat="43.0004" lon="2.57667">
        <ele>453</ele>
        <time>2022-05-02T18:53:00Z</time>
      </trkpt>
      <trkpt lat="43.00047" lon="2.57665">
        <ele>455</ele>
        <time>2022-05-02T18:53:01Z</time>
      </trkpt>
      <trkpt lat="43.00052" lon="2.57661">
        <ele>455</ele>
        <time>2022-05-02T18:53:02Z</time>
      </trkpt>
      <trkpt lat="43.00056" lon="2.57653">
        <ele>456</ele>
        <time>2022-05-02T18:53:03Z</time>
      </trkpt>
      <trkpt lat="43.0006" lon="2.5763">
        <ele>455</ele>
        <time>2022-05-02T18:53:06Z</time>
      </trkpt>
      <trkpt lat="43.00059" lon="2.57613">
        <ele>453</ele>
        <time>2022-05-02T18:53:08Z</time>
      </trkpt>
      <trkpt lat="43.00052" lon="2.57572">
        <ele>448</ele>
        <time>2022-05-02T18:53:14Z</time>
      </trkpt>
      <trkpt lat="43.00052" lon="2.57558">
        <ele>447</ele>
        <time>2022-05-02T18:53:16Z</time>
      </trkpt>
      <trkpt lat="43.00059" lon="2.57535">
        <ele>447</ele>
        <time>2022-05-02T18:53:19Z</time>
      </trkpt>
      <trkpt lat="43.00072" lon="2.57507">
        <ele>449</ele>
        <time>2022-05-02T18:53:23Z</time>
      </trkpt>
      <trkpt lat="43.0011" lon="2.57441">
        <ele>449</ele>
        <time>2022-05-02T18:53:34Z</time>
      </trkpt>
      <trkpt lat="43.00166" lon="2.57371">
        <ele>456</ele>
        <time>2022-05-02T18:53:48Z</time>
      </trkpt>
      <trkpt lat="43.00172" lon="2.57366">
        <ele>455</ele>
        <time>2022-05-02T18:53:49Z</time>
      </trkpt>
      <trkpt lat="43.00186" lon="2.57366">
        <ele>456</ele>
        <time>2022-05-02T18:53:51Z</time>
      </trkpt>
      <trkpt lat="43.00224" lon="2.57393">
        <ele>465</ele>
        <time>2022-05-02T18:53:59Z</time>
      </trkpt>
      <trkpt lat="43.00239" lon="2.57401">
        <ele>468</ele>
        <time>2022-05-02T18:54:02Z</time>
      </trkpt>
      <trkpt lat="43.00285" lon="2.57421">
        <ele>471</ele>
        <time>2022-05-02T18:54:11Z</time>
      </trkpt>
      <trkpt lat="43.00292" lon="2.57428">
        <ele>471</ele>
        <time>2022-05-02T18:54:12Z</time>
      </trkpt>
      <trkpt lat="43.00296" lon="2.57437">
        <ele>471</ele>
        <time>2022-05-02T18:54:13Z</time>
      </trkpt>
      <trkpt lat="43.00295" lon="2.57448">
        <ele>470</ele>
        <time>2022-05-02T18:54:15Z</time>
      </trkpt>
      <trkpt lat="43.00291" lon="2.57459">
        <ele>471</ele>
        <time>2022-05-02T18:54:16Z</time>
      </trkpt>
      <trkpt lat="43.00267" lon="2.57497">
        <ele>475</ele>
        <time>2022-05-02T18:54:23Z</time>
      </trkpt>
      <trkpt lat="43.00255" lon="2.57507">
        <ele>475</ele>
        <time>2022-05-02T18:54:26Z</time>
      </trkpt>
      <trkpt lat="43.00243" lon="2.5751">
        <ele>476</ele>
        <time>2022-05-02T18:54:28Z</time>
      </trkpt>
      <trkpt lat="43.00217" lon="2.57511">
        <ele>477</ele>
        <time>2022-05-02T18:54:32Z</time>
      </trkpt>
      <trkpt lat="43.00203" lon="2.57513">
        <ele>477</ele>
        <time>2022-05-02T18:54:35Z</time>
      </trkpt>
      <trkpt lat="43.00194" lon="2.57519">
        <ele>477</ele>
        <time>2022-05-02T18:54:37Z</time>
      </trkpt>
      <trkpt lat="43.00183" lon="2.57533">
        <ele>477</ele>
        <time>2022-05-02T18:54:39Z</time>
      </trkpt>
      <trkpt lat="43.00174" lon="2.57546">
        <ele>477</ele>
        <time>2022-05-02T18:54:42Z</time>
      </trkpt>
      <trkpt lat="43.00169" lon="2.57562">
        <ele>478</ele>
        <time>2022-05-02T18:54:44Z</time>
      </trkpt>
      <trkpt lat="43.00157" lon="2.57617">
        <ele>475</ele>
        <time>2022-05-02T18:54:51Z</time>
      </trkpt>
      <trkpt lat="43.00135" lon="2.57683">
        <ele>470</ele>
        <time>2022-05-02T18:55:01Z</time>
      </trkpt>
      <trkpt lat="43.00122" lon="2.57729">
        <ele>470</ele>
        <time>2022-05-02T18:55:07Z</time>
      </trkpt>
      <trkpt lat="43.00111" lon="2.57762">
        <ele>473</ele>
        <time>2022-05-02T18:55:12Z</time>
      </trkpt>
      <trkpt lat="43.00096" lon="2.57794">
        <ele>481</ele>
        <time>2022-05-02T18:55:17Z</time>
      </trkpt>
      <trkpt lat="43.00045" lon="2.57867">
        <ele>498</ele>
        <time>2022-05-02T18:55:30Z</time>
      </trkpt>
      <trkpt lat="43.00039" lon="2.57872">
        <ele>499</ele>
        <time>2022-05-02T18:55:31Z</time>
      </trkpt>
      <trkpt lat="43.00027" lon="2.57873">
        <ele>498</ele>
        <time>2022-05-02T18:55:33Z</time>
      </trkpt>
      <trkpt lat="43.00021" lon="2.57868">
        <ele>497</ele>
        <time>2022-05-02T18:55:35Z</time>
      </trkpt>
      <trkpt lat="42.99999" lon="2.57823">
        <ele>486</ele>
        <time>2022-05-02T18:55:42Z</time>
      </trkpt>
      <trkpt lat="42.99991" lon="2.57817">
        <ele>484</ele>
        <time>2022-05-02T18:55:43Z</time>
      </trkpt>
      <trkpt lat="42.99982" lon="2.57815">
        <ele>483</ele>
        <time>2022-05-02T18:55:45Z</time>
      </trkpt>
      <trkpt lat="42.99974" lon="2.57815">
        <ele>482</ele>
        <time>2022-05-02T18:55:46Z</time>
      </trkpt>
      <trkpt lat="42.99963" lon="2.5782">
        <ele>483</ele>
        <time>2022-05-02T18:55:48Z</time>
      </trkpt>
      <trkpt lat="42.9995" lon="2.5783">
        <ele>485</ele>
        <time>2022-05-02T18:55:51Z</time>
      </trkpt>
      <trkpt lat="42.99938" lon="2.57845">
        <ele>488</ele>
        <time>2022-05-02T18:55:54Z</time>
      </trkpt>
      <trkpt lat="42.99914" lon="2.57887">
        <ele>495</ele>
        <time>2022-05-02T18:56:01Z</time>
      </trkpt>
      <trkpt lat="42.99906" lon="2.57897">
        <ele>495</ele>
        <time>2022-05-02T18:56:03Z</time>
      </trkpt>
      <trkpt lat="42.99881" lon="2.57919">
        <ele>493</ele>
        <time>2022-05-02T18:56:08Z</time>
      </trkpt>
      <trkpt lat="42.99875" lon="2.57927">
        <ele>493</ele>
        <time>2022-05-02T18:56:10Z</time>
      </trkpt>
      <trkpt lat="42.99869" lon="2.57937">
        <ele>494</ele>
        <time>2022-05-02T18:56:11Z</time>
      </trkpt>
      <trkpt lat="42.99856" lon="2.57978">
        <ele>500</ele>
        <time>2022-05-02T18:56:17Z</time>
      </trkpt>
      <trkpt lat="42.99851" lon="2.57986">
        <ele>501</ele>
        <time>2022-05-02T18:56:18Z</time>
      </trkpt>
      <trkpt lat="42.99844" lon="2.57993">
        <ele>501</ele>
        <time>2022-05-02T18:56:20Z</time>
      </trkpt>
      <trkpt lat="42.99822" lon="2.58006">
        <ele>499</ele>
        <time>2022-05-02T18:56:24Z</time>
      </trkpt>
      <trkpt lat="42.99811" lon="2.58016">
        <ele>498</ele>
        <time>2022-05-02T18:56:27Z</time>
      </trkpt>
      <trkpt lat="42.99789" lon="2.58043">
        <ele>499</ele>
        <time>2022-05-02T18:56:32Z</time>
      </trkpt>
      <trkpt lat="42.99781" lon="2.58059">
        <ele>500</ele>
        <time>2022-05-02T18:56:34Z</time>
      </trkpt>
      <trkpt lat="42.99778" lon="2.5807">
        <ele>501</ele>
        <time>2022-05-02T18:56:36Z</time>
      </trkpt>
      <trkpt lat="42.99776" lon="2.58126">
        <ele>512</ele>
        <time>2022-05-02T18:56:43Z</time>
      </trkpt>
      <trkpt lat="42.99769" lon="2.58139">
        <ele>513</ele>
        <time>2022-05-02T18:56:45Z</time>
      </trkpt>
      <trkpt lat="42.99763" lon="2.58142">
        <ele>513</ele>
        <time>2022-05-02T18:56:46Z</time>
      </trkpt>
      <trkpt lat="42.99753" lon="2.58143">
        <ele>512</ele>
        <time>2022-05-02T18:56:48Z</time>
      </trkpt>
      <trkpt lat="42.99734" lon="2.58136">
        <ele>510</ele>
        <time>2022-05-02T18:56:52Z</time>
      </trkpt>
      <trkpt lat="42.99714" lon="2.58123">
        <ele>506</ele>
        <time>2022-05-02T18:56:56Z</time>
      </trkpt>
      <trkpt lat="42.99693" lon="2.58114">
        <ele>504</ele>
        <time>2022-05-02T18:57:00Z</time>
      </trkpt>
      <trkpt lat="42.99684" lon="2.58113">
        <ele>504</ele>
        <time>2022-05-02T18:57:01Z</time>
      </trkpt>
      <trkpt lat="42.99673" lon="2.58116">
        <ele>504</ele>
        <time>2022-05-02T18:57:03Z</time>
      </trkpt>
      <trkpt lat="42.99663" lon="2.58122">
        <ele>506</ele>
        <time>2022-05-02T18:57:05Z</time>
      </trkpt>
      <trkpt lat="42.9965" lon="2.58135">
        <ele>508</ele>
        <time>2022-05-02T18:57:08Z</time>
      </trkpt>
      <trkpt lat="42.99626" lon="2.58163">
        <ele>513</ele>
        <time>2022-05-02T18:57:14Z</time>
      </trkpt>
      <trkpt lat="42.99609" lon="2.58178">
        <ele>513</ele>
        <time>2022-05-02T18:57:17Z</time>
      </trkpt>
      <trkpt lat="42.9959" lon="2.58189">
        <ele>512</ele>
        <time>2022-05-02T18:57:21Z</time>
      </trkpt>
      <trkpt lat="42.99572" lon="2.58197">
        <ele>512</ele>
        <time>2022-05-02T18:57:24Z</time>
      </trkpt>
      <trkpt lat="42.99554" lon="2.58199">
        <ele>513</ele>
        <time>2022-05-02T18:57:28Z</time>
      </trkpt>
      <trkpt lat="42.99539" lon="2.58196">
        <ele>513</ele>
        <time>2022-05-02T18:57:30Z</time>
      </trkpt>
      <trkpt lat="42.99524" lon="2.58188">
        <ele>514</ele>
        <time>2022-05-02T18:57:33Z</time>
      </trkpt>
      <trkpt lat="42.99511" lon="2.58174">
        <ele>515</ele>
        <time>2022-05-02T18:57:36Z</time>
      </trkpt>
      <trkpt lat="42.99487" lon="2.58136">
        <ele>516</ele>
        <time>2022-05-02T18:57:43Z</time>
      </trkpt>
      <trkpt lat="42.9945" lon="2.58079">
        <ele>514</ele>
        <time>2022-05-02T18:57:52Z</time>
      </trkpt>
      <trkpt lat="42.99439" lon="2.58063">
        <ele>515</ele>
        <time>2022-05-02T18:57:55Z</time>
      </trkpt>
      <trkpt lat="42.99425" lon="2.58046">
        <ele>516</ele>
        <time>2022-05-02T18:57:59Z</time>
      </trkpt>
      <trkpt lat="42.99389" lon="2.58011">
        <ele>515</ele>
        <time>2022-05-02T18:58:07Z</time>
      </trkpt>
      <trkpt lat="42.99325" lon="2.57975">
        <ele>511</ele>
        <time>2022-05-02T18:58:19Z</time>
      </trkpt>
      <trkpt lat="42.99298" lon="2.57956">
        <ele>510</ele>
        <time>2022-05-02T18:58:24Z</time>
      </trkpt>
      <trkpt lat="42.99272" lon="2.57946">
        <ele>507</ele>
        <time>2022-05-02T18:58:29Z</time>
      </trkpt>
      <trkpt lat="42.99258" lon="2.57939">
        <ele>505</ele>
        <time>2022-05-02T18:58:32Z</time>
      </trkpt>
      <trkpt lat="42.99248" lon="2.5793">
        <ele>505</ele>
        <time>2022-05-02T18:58:34Z</time>
      </trkpt>
      <trkpt lat="42.99224" lon="2.57893">
        <ele>504</ele>
        <time>2022-05-02T18:58:40Z</time>
      </trkpt>
      <trkpt lat="42.99217" lon="2.57872">
        <ele>506</ele>
        <time>2022-05-02T18:58:43Z</time>
      </trkpt>
      <trkpt lat="42.99211" lon="2.57848">
        <ele>508</ele>
        <time>2022-05-02T18:58:47Z</time>
      </trkpt>
      <trkpt lat="42.99206" lon="2.57839">
        <ele>509</ele>
        <time>2022-05-02T18:58:48Z</time>
      </trkpt>
      <trkpt lat="42.99201" lon="2.57836">
        <ele>508</ele>
        <time>2022-05-02T18:58:49Z</time>
      </trkpt>
      <trkpt lat="42.99194" lon="2.57837">
        <ele>507</ele>
        <time>2022-05-02T18:58:50Z</time>
      </trkpt>
      <trkpt lat="42.99177" lon="2.57852">
        <ele>501</ele>
        <time>2022-05-02T18:58:54Z</time>
      </trkpt>
      <trkpt lat="42.99164" lon="2.5786">
        <ele>497</ele>
        <time>2022-05-02T18:58:56Z</time>
      </trkpt>
      <trkpt lat="42.99155" lon="2.57861">
        <ele>495</ele>
        <time>2022-05-02T18:58:58Z</time>
      </trkpt>
      <trkpt lat="42.99148" lon="2.5786">
        <ele>494</ele>
        <time>2022-05-02T18:58:59Z</time>
      </trkpt>
      <trkpt lat="42.99137" lon="2.57856">
        <ele>492</ele>
        <time>2022-05-02T18:59:01Z</time>
      </trkpt>
      <trkpt lat="42.99125" lon="2.57847">
        <ele>491</ele>
        <time>2022-05-02T18:59:04Z</time>
      </trkpt>
      <trkpt lat="42.9909" lon="2.57811">
        <ele>490</ele>
        <time>2022-05-02T18:59:12Z</time>
      </trkpt>
      <trkpt lat="42.99081" lon="2.57796">
        <ele>491</ele>
        <time>2022-05-02T18:59:14Z</time>
      </trkpt>
      <trkpt lat="42.99075" lon="2.57782">
        <ele>491</ele>
        <time>2022-05-02T18:59:16Z</time>
      </trkpt>
      <trkpt lat="42.99043" lon="2.57689">
        <ele>494</ele>
        <time>2022-05-02T18:59:30Z</time>
      </trkpt>
      <trkpt lat="42.99036" lon="2.57677">
        <ele>494</ele>
        <time>2022-05-02T18:59:32Z</time>
      </trkpt>
      <trkpt lat="42.99028" lon="2.57668">
        <ele>493</ele>
        <time>2022-05-02T18:59:33Z</time>
      </trkpt>
      <trkpt lat="42.99017" lon="2.57661">
        <ele>492</ele>
        <time>2022-05-02T18:59:36Z</time>
      </trkpt>
      <trkpt lat="42.98999" lon="2.57656">
        <ele>488</ele>
        <time>2022-05-02T18:59:39Z</time>
      </trkpt>
      <trkpt lat="42.98962" lon="2.5765">
        <ele>481</ele>
        <time>2022-05-02T18:59:45Z</time>
      </trkpt>
      <trkpt lat="42.98944" lon="2.57642">
        <ele>479</ele>
        <time>2022-05-02T18:59:49Z</time>
      </trkpt>
      <trkpt lat="42.9893" lon="2.57631">
        <ele>479</ele>
        <time>2022-05-02T18:59:52Z</time>
      </trkpt>
      <trkpt lat="42.9891" lon="2.57611">
        <ele>481</ele>
        <time>2022-05-02T18:59:56Z</time>
      </trkpt>
      <trkpt lat="42.98899" lon="2.57602">
        <ele>481</ele>
        <time>2022-05-02T18:59:58Z</time>
      </trkpt>
      <trkpt lat="42.98821" lon="2.57582">
        <ele>470</ele>
        <time>2022-05-02T19:00:12Z</time>
      </trkpt>
      <trkpt lat="42.98801" lon="2.57574">
        <ele>469</ele>
        <time>2022-05-02T19:00:16Z</time>
      </trkpt>
      <trkpt lat="42.98778" lon="2.57562">
        <ele>467</ele>
        <time>2022-05-02T19:00:21Z</time>
      </trkpt>
      <trkpt lat="42.98753" lon="2.57535">
        <ele>466</ele>
        <time>2022-05-02T19:00:26Z</time>
      </trkpt>
      <trkpt lat="42.98714" lon="2.57478">
        <ele>466</ele>
        <time>2022-05-02T19:00:36Z</time>
      </trkpt>
      <trkpt lat="42.98679" lon="2.57439">
        <ele>463</ele>
        <time>2022-05-02T19:00:44Z</time>
      </trkpt>
      <trkpt lat="42.98659" lon="2.57424">
        <ele>461</ele>
        <time>2022-05-02T19:00:48Z</time>
      </trkpt>
      <trkpt lat="42.98645" lon="2.57419">
        <ele>460</ele>
        <time>2022-05-02T19:00:51Z</time>
      </trkpt>
      <trkpt lat="42.98633" lon="2.5742">
        <ele>460</ele>
        <time>2022-05-02T19:00:53Z</time>
      </trkpt>
      <trkpt lat="42.98622" lon="2.57428">
        <ele>458</ele>
        <time>2022-05-02T19:00:55Z</time>
      </trkpt>
      <trkpt lat="42.98613" lon="2.57444">
        <ele>456</ele>
        <time>2022-05-02T19:00:58Z</time>
      </trkpt>
      <trkpt lat="42.98608" lon="2.57459">
        <ele>455</ele>
        <time>2022-05-02T19:01:00Z</time>
      </trkpt>
      <trkpt lat="42.98602" lon="2.57474">
        <ele>454</ele>
        <time>2022-05-02T19:01:02Z</time>
      </trkpt>
      <trkpt lat="42.98579" lon="2.57503">
        <ele>451</ele>
        <time>2022-05-02T19:01:08Z</time>
      </trkpt>
      <trkpt lat="42.98562" lon="2.5752">
        <ele>448</ele>
        <time>2022-05-02T19:01:12Z</time>
      </trkpt>
      <trkpt lat="42.98555" lon="2.57522">
        <ele>447</ele>
        <time>2022-05-02T19:01:13Z</time>
      </trkpt>
      <trkpt lat="42.98542" lon="2.57521">
        <ele>447</ele>
        <time>2022-05-02T19:01:15Z</time>
      </trkpt>
      <trkpt lat="42.98513" lon="2.57512">
        <ele>447</ele>
        <time>2022-05-02T19:01:21Z</time>
      </trkpt>
      <trkpt lat="42.98504" lon="2.57507">
        <ele>447</ele>
        <time>2022-05-02T19:01:22Z</time>
      </trkpt>
      <trkpt lat="42.98492" lon="2.57494">
        <ele>447</ele>
        <time>2022-05-02T19:01:25Z</time>
      </trkpt>
      <trkpt lat="42.98459" lon="2.5744">
        <ele>447</ele>
        <time>2022-05-02T19:01:34Z</time>
      </trkpt>
      <trkpt lat="42.98447" lon="2.57426">
        <ele>448</ele>
        <time>2022-05-02T19:01:37Z</time>
      </trkpt>
      <trkpt lat="42.98429" lon="2.57411">
        <ele>447</ele>
        <time>2022-05-02T19:01:41Z</time>
      </trkpt>
      <trkpt lat="42.98397" lon="2.57395">
        <ele>446</ele>
        <time>2022-05-02T19:01:47Z</time>
      </trkpt>
      <trkpt lat="42.98379" lon="2.57393">
        <ele>446</ele>
        <time>2022-05-02T19:01:50Z</time>
      </trkpt>
      <trkpt lat="42.98361" lon="2.57395">
        <ele>446</ele>
        <time>2022-05-02T19:01:53Z</time>
      </trkpt>
      <trkpt lat="42.98349" lon="2.574">
        <ele>445</ele>
        <time>2022-05-02T19:01:55Z</time>
      </trkpt>
      <trkpt lat="42.98336" lon="2.57411">
        <ele>444</ele>
        <time>2022-05-02T19:01:58Z</time>
      </trkpt>
      <trkpt lat="42.9831" lon="2.57446">
        <ele>440</ele>
        <time>2022-05-02T19:02:05Z</time>
      </trkpt>
      <trkpt lat="42.98303" lon="2.57453">
        <ele>440</ele>
        <time>2022-05-02T19:02:06Z</time>
      </trkpt>
      <trkpt lat="42.983" lon="2.57455">
        <ele>440</ele>
        <time>2022-05-02T19:02:07Z</time>
      </trkpt>
      <trkpt lat="42.98276" lon="2.57469">
        <ele>441</ele>
        <time>2022-05-02T19:02:11Z</time>
      </trkpt>
      <trkpt lat="42.98268" lon="2.57479">
        <ele>441</ele>
        <time>2022-05-02T19:02:13Z</time>
      </trkpt>
      <trkpt lat="42.98243" lon="2.57526">
        <ele>439</ele>
        <time>2022-05-02T19:02:21Z</time>
      </trkpt>
      <trkpt lat="42.98204" lon="2.57593">
        <ele>432</ele>
        <time>2022-05-02T19:02:32Z</time>
      </trkpt>
      <trkpt lat="42.98192" lon="2.57601">
        <ele>431</ele>
        <time>2022-05-02T19:02:34Z</time>
      </trkpt>
      <trkpt lat="42.98151" lon="2.57607">
        <ele>430</ele>
        <time>2022-05-02T19:02:42Z</time>
      </trkpt>
      <trkpt lat="42.98134" lon="2.57613">
        <ele>428</ele>
        <time>2022-05-02T19:02:45Z</time>
      </trkpt>
      <trkpt lat="42.9813" lon="2.57615">
        <ele>427</ele>
        <time>2022-05-02T19:02:46Z</time>
      </trkpt>
      <trkpt lat="42.98124" lon="2.57618">
        <ele>426</ele>
        <time>2022-05-02T19:02:47Z</time>
      </trkpt>
      <trkpt lat="42.98108" lon="2.57629">
        <ele>425</ele>
        <time>2022-05-02T19:02:50Z</time>
      </trkpt>
      <trkpt lat="42.98084" lon="2.57652">
        <ele>424</ele>
        <time>2022-05-02T19:02:55Z</time>
      </trkpt>
      <trkpt lat="42.98078" lon="2.57657">
        <ele>425</ele>
        <time>2022-05-02T19:02:56Z</time>
      </trkpt>
      <trkpt lat="42.98059" lon="2.57668">
        <ele>425</ele>
        <time>2022-05-02T19:03:00Z</time>
      </trkpt>
      <trkpt lat="42.97977" lon="2.57704">
        <ele>438</ele>
        <time>2022-05-02T19:03:15Z</time>
      </trkpt>
      <trkpt lat="42.97963" lon="2.57706">
        <ele>440</ele>
        <time>2022-05-02T19:03:18Z</time>
      </trkpt>
      <trkpt lat="42.97941" lon="2.57704">
        <ele>443</ele>
        <time>2022-05-02T19:03:22Z</time>
      </trkpt>
      <trkpt lat="42.9793" lon="2.577">
        <ele>444</ele>
        <time>2022-05-02T19:03:24Z</time>
      </trkpt>
      <trkpt lat="42.97872" lon="2.57666">
        <ele>442</ele>
        <time>2022-05-02T19:03:35Z</time>
      </trkpt>
      <trkpt lat="42.97853" lon="2.57658">
        <ele>443</ele>
        <time>2022-05-02T19:03:39Z</time>
      </trkpt>
      <trkpt lat="42.9782" lon="2.57649">
        <ele>446</ele>
        <time>2022-05-02T19:03:45Z</time>
      </trkpt>
      <trkpt lat="42.97806" lon="2.57651">
        <ele>449</ele>
        <time>2022-05-02T19:03:47Z</time>
      </trkpt>
      <trkpt lat="42.97755" lon="2.57674">
        <ele>460</ele>
        <time>2022-05-02T19:03:57Z</time>
      </trkpt>
      <trkpt lat="42.97748" lon="2.57673">
        <ele>461</ele>
        <time>2022-05-02T19:03:58Z</time>
      </trkpt>
      <trkpt lat="42.97742" lon="2.57668">
        <ele>462</ele>
        <time>2022-05-02T19:03:59Z</time>
      </trkpt>
      <trkpt lat="42.97739" lon="2.57661">
        <ele>462</ele>
        <time>2022-05-02T19:04:00Z</time>
      </trkpt>
      <trkpt lat="42.97738" lon="2.57651">
        <ele>462</ele>
        <time>2022-05-02T19:04:02Z</time>
      </trkpt>
      <trkpt lat="42.97742" lon="2.57639">
        <ele>461</ele>
        <time>2022-05-02T19:04:03Z</time>
      </trkpt>
      <trkpt lat="42.97768" lon="2.57582">
        <ele>452</ele>
        <time>2022-05-02T19:04:12Z</time>
      </trkpt>
      <trkpt lat="42.97772" lon="2.57567">
        <ele>449</ele>
        <time>2022-05-02T19:04:14Z</time>
      </trkpt>
      <trkpt lat="42.97772" lon="2.57558">
        <ele>449</ele>
        <time>2022-05-02T19:04:15Z</time>
      </trkpt>
      <trkpt lat="42.97766" lon="2.57533">
        <ele>449</ele>
        <time>2022-05-02T19:04:19Z</time>
      </trkpt>
      <trkpt lat="42.97746" lon="2.57484">
        <ele>451</ele>
        <time>2022-05-02T19:04:26Z</time>
      </trkpt>
      <trkpt lat="42.97735" lon="2.57467">
        <ele>448</ele>
        <time>2022-05-02T19:04:29Z</time>
      </trkpt>
      <trkpt lat="42.97718" lon="2.57453">
        <ele>446</ele>
        <time>2022-05-02T19:04:33Z</time>
      </trkpt>
      <trkpt lat="42.97706" lon="2.57453">
        <ele>447</ele>
        <time>2022-05-02T19:04:35Z</time>
      </trkpt>
      <trkpt lat="42.97695" lon="2.57458">
        <ele>448</ele>
        <time>2022-05-02T19:04:37Z</time>
      </trkpt>
      <trkpt lat="42.97668" lon="2.57484">
        <ele>457</ele>
        <time>2022-05-02T19:04:43Z</time>
      </trkpt>
      <trkpt lat="42.97662" lon="2.57488">
        <ele>458</ele>
        <time>2022-05-02T19:04:44Z</time>
      </trkpt>
      <trkpt lat="42.97654" lon="2.57491">
        <ele>458</ele>
        <time>2022-05-02T19:04:45Z</time>
      </trkpt>
      <trkpt lat="42.97622" lon="2.57486">
        <ele>452</ele>
        <time>2022-05-02T19:04:51Z</time>
      </trkpt>
      <trkpt lat="42.9761" lon="2.57489">
        <ele>451</ele>
        <time>2022-05-02T19:04:53Z</time>
      </trkpt>
      <trkpt lat="42.97602" lon="2.57497">
        <ele>452</ele>
        <time>2022-05-02T19:04:55Z</time>
      </trkpt>
      <trkpt lat="42.97597" lon="2.57514">
        <ele>456</ele>
        <time>2022-05-02T19:04:57Z</time>
      </trkpt>
      <trkpt lat="42.97592" lon="2.57522">
        <ele>458</ele>
        <time>2022-05-02T19:04:59Z</time>
      </trkpt>
      <trkpt lat="42.97575" lon="2.57537">
        <ele>460</ele>
        <time>2022-05-02T19:05:02Z</time>
      </trkpt>
      <trkpt lat="42.97561" lon="2.57559">
        <ele>464</ele>
        <time>2022-05-02T19:05:06Z</time>
      </trkpt>
      <trkpt lat="42.97542" lon="2.5757">
        <ele>463</ele>
        <time>2022-05-02T19:05:10Z</time>
      </trkpt>
      <trkpt lat="42.97528" lon="2.5758">
        <ele>463</ele>
        <time>2022-05-02T19:05:13Z</time>
      </trkpt>
      <trkpt lat="42.97493" lon="2.57612">
        <ele>468</ele>
        <time>2022-05-02T19:05:20Z</time>
      </trkpt>
      <trkpt lat="42.97486" lon="2.57614">
        <ele>468</ele>
        <time>2022-05-02T19:05:21Z</time>
      </trkpt>
      <trkpt lat="42.97456" lon="2.57615">
        <ele>464</ele>
        <time>2022-05-02T19:05:27Z</time>
      </trkpt>
      <trkpt lat="42.97441" lon="2.5762">
        <ele>464</ele>
        <time>2022-05-02T19:05:29Z</time>
      </trkpt>
      <trkpt lat="42.97418" lon="2.57646">
        <ele>470</ele>
        <time>2022-05-02T19:05:35Z</time>
      </trkpt>
      <trkpt lat="42.97392" lon="2.5767">
        <ele>469</ele>
        <time>2022-05-02T19:05:40Z</time>
      </trkpt>
      <trkpt lat="42.9739" lon="2.57676">
        <ele>469</ele>
        <time>2022-05-02T19:05:41Z</time>
      </trkpt>
      <trkpt lat="42.97385" lon="2.57718">
        <ele>476</ele>
        <time>2022-05-02T19:05:47Z</time>
      </trkpt>
      <trkpt lat="42.97346" lon="2.57873">
        <ele>481</ele>
        <time>2022-05-02T19:06:08Z</time>
      </trkpt>
      <trkpt lat="42.97338" lon="2.57914">
        <ele>481</ele>
        <time>2022-05-02T19:06:14Z</time>
      </trkpt>
      <trkpt lat="42.97338" lon="2.57925">
        <ele>481</ele>
        <time>2022-05-02T19:06:15Z</time>
      </trkpt>
      <trkpt lat="42.97342" lon="2.57947">
        <ele>482</ele>
        <time>2022-05-02T19:06:18Z</time>
      </trkpt>
      <trkpt lat="42.97376" lon="2.58006">
        <ele>489</ele>
        <time>2022-05-02T19:06:28Z</time>
      </trkpt>
      <trkpt lat="42.97379" lon="2.58015">
        <ele>490</ele>
        <time>2022-05-02T19:06:29Z</time>
      </trkpt>
      <trkpt lat="42.9738" lon="2.58027">
        <ele>490</ele>
        <time>2022-05-02T19:06:31Z</time>
      </trkpt>
      <trkpt lat="42.97377" lon="2.58047">
        <ele>489</ele>
        <time>2022-05-02T19:06:33Z</time>
      </trkpt>
      <trkpt lat="42.97362" lon="2.58076">
        <ele>488</ele>
        <time>2022-05-02T19:06:38Z</time>
      </trkpt>
      <trkpt lat="42.97351" lon="2.58066">
        <ele>486</ele>
        <time>2022-05-02T19:06:40Z</time>
      </trkpt>
      <trkpt lat="42.97338" lon="2.58059">
        <ele>484</ele>
        <time>2022-05-02T19:06:43Z</time>
      </trkpt>
      <trkpt lat="42.9732" lon="2.58055">
        <ele>482</ele>
        <time>2022-05-02T19:06:46Z</time>
      </trkpt>
      <trkpt lat="42.97294" lon="2.58057">
        <ele>481</ele>
        <time>2022-05-02T19:06:51Z</time>
      </trkpt>
      <trkpt lat="42.97153" lon="2.58108">
        <ele>479</ele>
        <time>2022-05-02T19:07:17Z</time>
      </trkpt>
      <trkpt lat="42.97129" lon="2.58112">
        <ele>481</ele>
        <time>2022-05-02T19:07:21Z</time>
      </trkpt>
      <trkpt lat="42.97112" lon="2.58108">
        <ele>480</ele>
        <time>2022-05-02T19:07:24Z</time>
      </trkpt>
      <trkpt lat="42.97075" lon="2.58087">
        <ele>475</ele>
        <time>2022-05-02T19:07:31Z</time>
      </trkpt>
      <trkpt lat="42.97061" lon="2.58084">
        <ele>474</ele>
        <time>2022-05-02T19:07:34Z</time>
      </trkpt>
      <trkpt lat="42.97043" lon="2.58086">
        <ele>474</ele>
        <time>2022-05-02T19:07:37Z</time>
      </trkpt>
      <trkpt lat="42.97001" lon="2.5811">
        <ele>478</ele>
        <time>2022-05-02T19:07:45Z</time>
      </trkpt>
      <trkpt lat="42.96993" lon="2.58113">
        <ele>478</ele>
        <time>2022-05-02T19:07:46Z</time>
      </trkpt>
      <trkpt lat="42.96978" lon="2.58114">
        <ele>477</ele>
        <time>2022-05-02T19:07:49Z</time>
      </trkpt>
      <trkpt lat="42.96969" lon="2.58112">
        <ele>476</ele>
        <time>2022-05-02T19:07:51Z</time>
      </trkpt>
      <trkpt lat="42.96935" lon="2.58083">
        <ele>468</ele>
        <time>2022-05-02T19:07:58Z</time>
      </trkpt>
      <trkpt lat="42.9692" lon="2.58076">
        <ele>465</ele>
        <time>2022-05-02T19:08:01Z</time>
      </trkpt>
      <trkpt lat="42.96912" lon="2.58076">
        <ele>464</ele>
        <time>2022-05-02T19:08:02Z</time>
      </trkpt>
      <trkpt lat="42.96894" lon="2.58084">
        <ele>464</ele>
        <time>2022-05-02T19:08:05Z</time>
      </trkpt>
      <trkpt lat="42.96876" lon="2.58102">
        <ele>465</ele>
        <time>2022-05-02T19:08:09Z</time>
      </trkpt>
      <trkpt lat="42.9686" lon="2.58128">
        <ele>467</ele>
        <time>2022-05-02T19:08:14Z</time>
      </trkpt>
      <trkpt lat="42.96847" lon="2.58141">
        <ele>467</ele>
        <time>2022-05-02T19:08:17Z</time>
      </trkpt>
      <trkpt lat="42.96839" lon="2.58146">
        <ele>467</ele>
        <time>2022-05-02T19:08:18Z</time>
      </trkpt>
      <trkpt lat="42.96824" lon="2.58151">
        <ele>467</ele>
        <time>2022-05-02T19:08:21Z</time>
      </trkpt>
      <trkpt lat="42.96812" lon="2.5815">
        <ele>467</ele>
        <time>2022-05-02T19:08:23Z</time>
      </trkpt>
      <trkpt lat="42.96802" lon="2.58148">
        <ele>468</ele>
        <time>2022-05-02T19:08:25Z</time>
      </trkpt>
      <trkpt lat="42.96731" lon="2.58102">
        <ele>461</ele>
        <time>2022-05-02T19:08:39Z</time>
      </trkpt>
      <trkpt lat="42.96669" lon="2.58068">
        <ele>460</ele>
        <time>2022-05-02T19:08:51Z</time>
      </trkpt>
      <trkpt lat="42.9666" lon="2.58058">
        <ele>459</ele>
        <time>2022-05-02T19:08:53Z</time>
      </trkpt>
      <trkpt lat="42.96627" lon="2.57989">
        <ele>453</ele>
        <time>2022-05-02T19:09:04Z</time>
      </trkpt>
      <trkpt lat="42.96607" lon="2.57957">
        <ele>450</ele>
        <time>2022-05-02T19:09:09Z</time>
      </trkpt>
      <trkpt lat="42.96595" lon="2.57946">
        <ele>450</ele>
        <time>2022-05-02T19:09:12Z</time>
      </trkpt>
      <trkpt lat="42.96577" lon="2.57934">
        <ele>450</ele>
        <time>2022-05-02T19:09:15Z</time>
      </trkpt>
      <trkpt lat="42.96553" lon="2.57926">
        <ele>450</ele>
        <time>2022-05-02T19:09:20Z</time>
      </trkpt>
      <trkpt lat="42.96517" lon="2.57917">
        <ele>451</ele>
        <time>2022-05-02T19:09:26Z</time>
      </trkpt>
      <trkpt lat="42.96503" lon="2.57909">
        <ele>452</ele>
        <time>2022-05-02T19:09:29Z</time>
      </trkpt>
      <trkpt lat="42.96493" lon="2.57897">
        <ele>453</ele>
        <time>2022-05-02T19:09:31Z</time>
      </trkpt>
      <trkpt lat="42.96486" lon="2.57881">
        <ele>453</ele>
        <time>2022-05-02T19:09:34Z</time>
      </trkpt>
      <trkpt lat="42.96475" lon="2.57821">
        <ele>450</ele>
        <time>2022-05-02T19:09:42Z</time>
      </trkpt>
      <trkpt lat="42.96467" lon="2.57798">
        <ele>449</ele>
        <time>2022-05-02T19:09:45Z</time>
      </trkpt>
      <trkpt lat="42.96443" lon="2.57744">
        <ele>445</ele>
        <time>2022-05-02T19:09:53Z</time>
      </trkpt>
      <trkpt lat="42.96429" lon="2.57726">
        <ele>445</ele>
        <time>2022-05-02T19:09:57Z</time>
      </trkpt>
      <trkpt lat="42.96413" lon="2.57711">
        <ele>445</ele>
        <time>2022-05-02T19:10:00Z</time>
      </trkpt>
      <trkpt lat="42.96405" lon="2.57699">
        <ele>443</ele>
        <time>2022-05-02T19:10:02Z</time>
      </trkpt>
      <trkpt lat="42.96399" lon="2.57686">
        <ele>442</ele>
        <time>2022-05-02T19:10:04Z</time>
      </trkpt>
      <trkpt lat="42.96376" lon="2.57586">
        <ele>444</ele>
        <time>2022-05-02T19:10:18Z</time>
      </trkpt>
      <trkpt lat="42.96353" lon="2.5751">
        <ele>443</ele>
        <time>2022-05-02T19:10:29Z</time>
      </trkpt>
      <trkpt lat="42.96346" lon="2.5749">
        <ele>443</ele>
        <time>2022-05-02T19:10:31Z</time>
      </trkpt>
      <trkpt lat="42.96311" lon="2.5742">
        <ele>444</ele>
        <time>2022-05-02T19:10:42Z</time>
      </trkpt>
      <trkpt lat="42.96277" lon="2.57316">
        <ele>448</ele>
        <time>2022-05-02T19:10:57Z</time>
      </trkpt>
      <trkpt lat="42.96204" lon="2.57087">
        <ele>445</ele>
        <time>2022-05-02T19:11:30Z</time>
      </trkpt>
      <trkpt lat="42.96197" lon="2.57072">
        <ele>446</ele>
        <time>2022-05-02T19:11:32Z</time>
      </trkpt>
      <trkpt lat="42.9619" lon="2.57063">
        <ele>446</ele>
        <time>2022-05-02T19:11:34Z</time>
      </trkpt>
      <trkpt lat="42.96181" lon="2.57058">
        <ele>446</ele>
        <time>2022-05-02T19:11:36Z</time>
      </trkpt>
      <trkpt lat="42.96171" lon="2.57054">
        <ele>447</ele>
        <time>2022-05-02T19:11:37Z</time>
      </trkpt>
      <trkpt lat="42.96162" lon="2.57054">
        <ele>447</ele>
        <time>2022-05-02T19:11:39Z</time>
      </trkpt>
      <trkpt lat="42.96135" lon="2.57062">
        <ele>448</ele>
        <time>2022-05-02T19:11:44Z</time>
      </trkpt>
      <trkpt lat="42.96106" lon="2.57081">
        <ele>450</ele>
        <time>2022-05-02T19:11:50Z</time>
      </trkpt>
      <trkpt lat="42.96062" lon="2.57134">
        <ele>456</ele>
        <time>2022-05-02T19:12:00Z</time>
      </trkpt>
      <trkpt lat="42.96046" lon="2.57145">
        <ele>456</ele>
        <time>2022-05-02T19:12:03Z</time>
      </trkpt>
      <trkpt lat="42.9603" lon="2.57147">
        <ele>455</ele>
        <time>2022-05-02T19:12:06Z</time>
      </trkpt>
      <trkpt lat="42.96019" lon="2.57145">
        <ele>454</ele>
        <time>2022-05-02T19:12:08Z</time>
      </trkpt>
      <trkpt lat="42.95999" lon="2.57136">
        <ele>451</ele>
        <time>2022-05-02T19:12:12Z</time>
      </trkpt>
      <trkpt lat="42.95991" lon="2.5713">
        <ele>452</ele>
        <time>2022-05-02T19:12:14Z</time>
      </trkpt>
      <trkpt lat="42.95975" lon="2.57114">
        <ele>453</ele>
        <time>2022-05-02T19:12:17Z</time>
      </trkpt>
      <trkpt lat="42.95961" lon="2.57094">
        <ele>453</ele>
        <time>2022-05-02T19:12:21Z</time>
      </trkpt>
      <trkpt lat="42.95886" lon="2.56976">
        <ele>455</ele>
        <time>2022-05-02T19:12:41Z</time>
      </trkpt>
      <trkpt lat="42.95858" lon="2.56948">
        <ele>455</ele>
        <time>2022-05-02T19:12:47Z</time>
      </trkpt>
      <trkpt lat="42.95832" lon="2.56915">
        <ele>450</ele>
        <time>2022-05-02T19:12:53Z</time>
      </trkpt>
      <trkpt lat="42.95824" lon="2.56899">
        <ele>451</ele>
        <time>2022-05-02T19:12:56Z</time>
      </trkpt>
      <trkpt lat="42.95798" lon="2.56829">
        <ele>454</ele>
        <time>2022-05-02T19:13:06Z</time>
      </trkpt>
      <trkpt lat="42.95783" lon="2.56754">
        <ele>456</ele>
        <time>2022-05-02T19:13:16Z</time>
      </trkpt>
      <trkpt lat="42.95776" lon="2.56739">
        <ele>457</ele>
        <time>2022-05-02T19:13:19Z</time>
      </trkpt>
      <trkpt lat="42.95774" lon="2.56724">
        <ele>458</ele>
        <time>2022-05-02T19:13:21Z</time>
      </trkpt>
      <trkpt lat="42.95766" lon="2.56704">
        <ele>459</ele>
        <time>2022-05-02T19:13:24Z</time>
      </trkpt>
      <trkpt lat="42.95769" lon="2.56702">
        <ele>459</ele>
        <time>2022-05-02T19:13:24Z</time>
      </trkpt>
      <trkpt lat="42.95772" lon="2.56694">
        <ele>460</ele>
        <time>2022-05-02T19:13:25Z</time>
      </trkpt>
      <trkpt lat="42.95773" lon="2.56686">
        <ele>460</ele>
        <time>2022-05-02T19:13:26Z</time>
      </trkpt>
      <trkpt lat="42.9575" lon="2.56668">
        <ele>460</ele>
        <time>2022-05-02T19:13:31Z</time>
      </trkpt>
      <trkpt lat="42.95734" lon="2.56663">
        <ele>462</ele>
        <time>2022-05-02T19:13:34Z</time>
      </trkpt>
      <trkpt lat="42.95722" lon="2.5666">
        <ele>463</ele>
        <time>2022-05-02T19:13:36Z</time>
      </trkpt>
      <trkpt lat="42.9572" lon="2.5666">
        <ele>463</ele>
        <time>2022-05-02T19:13:37Z</time>
      </trkpt>
      <trkpt lat="42.95713" lon="2.5666">
        <ele>463</ele>
        <time>2022-05-02T19:13:38Z</time>
      </trkpt>
      <trkpt lat="42.95699" lon="2.56665">
        <ele>464</ele>
        <time>2022-05-02T19:13:40Z</time>
      </trkpt>
      <trkpt lat="42.95692" lon="2.5666">
        <ele>464</ele>
        <time>2022-05-02T19:13:42Z</time>
      </trkpt>
      <trkpt lat="42.95683" lon="2.56646">
        <ele>465</ele>
        <time>2022-05-02T19:13:44Z</time>
      </trkpt>
      <trkpt lat="42.95668" lon="2.56625">
        <ele>466</ele>
        <time>2022-05-02T19:13:48Z</time>
      </trkpt>
      <trkpt lat="42.95666" lon="2.56621">
        <ele>466</ele>
        <time>2022-05-02T19:13:49Z</time>
      </trkpt>
      <trkpt lat="42.9564" lon="2.56556">
        <ele>466</ele>
        <time>2022-05-02T19:13:58Z</time>
      </trkpt>
      <trkpt lat="42.95638" lon="2.56531">
        <ele>464</ele>
        <time>2022-05-02T19:14:02Z</time>
      </trkpt>
      <trkpt lat="42.95638" lon="2.56514">
        <ele>463</ele>
        <time>2022-05-02T19:14:04Z</time>
      </trkpt>
      <trkpt lat="42.95633" lon="2.56454">
        <ele>460</ele>
        <time>2022-05-02T19:14:12Z</time>
      </trkpt>
      <trkpt lat="42.95632" lon="2.56422">
        <ele>459</ele>
        <time>2022-05-02T19:14:16Z</time>
      </trkpt>
      <trkpt lat="42.95626" lon="2.56416">
        <ele>459</ele>
        <time>2022-05-02T19:14:17Z</time>
      </trkpt>
      <trkpt lat="42.9562" lon="2.56415">
        <ele>459</ele>
        <time>2022-05-02T19:14:18Z</time>
      </trkpt>
      <trkpt lat="42.95593" lon="2.56425">
        <ele>459</ele>
        <time>2022-05-02T19:14:23Z</time>
      </trkpt>
      <trkpt lat="42.9562" lon="2.56415">
        <ele>459</ele>
        <time>2022-05-02T19:14:28Z</time>
      </trkpt>
      <trkpt lat="42.95626" lon="2.56416">
        <ele>459</ele>
        <time>2022-05-02T19:14:29Z</time>
      </trkpt>
      <trkpt lat="42.95632" lon="2.56422">
        <ele>459</ele>
        <time>2022-05-02T19:14:31Z</time>
      </trkpt>
      <trkpt lat="42.95635" lon="2.56412">
        <ele>459</ele>
        <time>2022-05-02T19:14:32Z</time>
      </trkpt>
      <trkpt lat="42.95635" lon="2.56396">
        <ele>459</ele>
        <time>2022-05-02T19:14:34Z</time>
      </trkpt>
      <trkpt lat="42.95616" lon="2.56355">
        <ele>460</ele>
        <time>2022-05-02T19:14:40Z</time>
      </trkpt>
      <trkpt lat="42.95615" lon="2.56352">
        <ele>461</ele>
        <time>2022-05-02T19:14:41Z</time>
      </trkpt>
      <trkpt lat="42.95609" lon="2.56355">
        <ele>460</ele>
        <time>2022-05-02T19:14:42Z</time>
      </trkpt>
      <trkpt lat="42.95594" lon="2.56371">
        <ele>460</ele>
        <time>2022-05-02T19:14:45Z</time>
      </trkpt>
      <trkpt lat="42.95582" lon="2.5639">
        <ele>460</ele>
        <time>2022-05-02T19:14:49Z</time>
      </trkpt>
      <trkpt lat="42.95572" lon="2.5641">
        <ele>460</ele>
        <time>2022-05-02T19:14:52Z</time>
      </trkpt>
      <trkpt lat="42.95567" lon="2.56425">
        <ele>460</ele>
        <time>2022-05-02T19:14:54Z</time>
      </trkpt>
      <trkpt lat="42.95566" lon="2.5643">
        <ele>460</ele>
        <time>2022-05-02T19:14:55Z</time>
      </trkpt>
      <trkpt lat="42.95557" lon="2.56422">
        <ele>460</ele>
        <time>2022-05-02T19:14:57Z</time>
      </trkpt>
      <trkpt lat="42.95521" lon="2.56397">
        <ele>461</ele>
        <time>2022-05-02T19:15:04Z</time>
      </trkpt>
      <trkpt lat="42.95507" lon="2.56391">
        <ele>461</ele>
        <time>2022-05-02T19:15:06Z</time>
      </trkpt>
      <trkpt lat="42.95495" lon="2.5639">
        <ele>462</ele>
        <time>2022-05-02T19:15:08Z</time>
      </trkpt>
      <trkpt lat="42.95469" lon="2.56392">
        <ele>467</ele>
        <time>2022-05-02T19:15:13Z</time>
      </trkpt>
      <trkpt lat="42.9546" lon="2.5639">
        <ele>468</ele>
        <time>2022-05-02T19:15:15Z</time>
      </trkpt>
      <trkpt lat="42.95448" lon="2.56383">
        <ele>470</ele>
        <time>2022-05-02T19:15:17Z</time>
      </trkpt>
      <trkpt lat="42.9544" lon="2.56373">
        <ele>470</ele>
        <time>2022-05-02T19:15:19Z</time>
      </trkpt>
      <trkpt lat="42.9542" lon="2.5633">
        <ele>467</ele>
        <time>2022-05-02T19:15:26Z</time>
      </trkpt>
      <trkpt lat="42.95412" lon="2.56319">
        <ele>467</ele>
        <time>2022-05-02T19:15:28Z</time>
      </trkpt>
      <trkpt lat="42.95383" lon="2.56285">
        <ele>463</ele>
        <time>2022-05-02T19:15:34Z</time>
      </trkpt>
      <trkpt lat="42.9537" lon="2.56274">
        <ele>462</ele>
        <time>2022-05-02T19:15:37Z</time>
      </trkpt>
      <trkpt lat="42.95354" lon="2.56266">
        <ele>461</ele>
        <time>2022-05-02T19:15:40Z</time>
      </trkpt>
      <trkpt lat="42.95346" lon="2.56266">
        <ele>461</ele>
        <time>2022-05-02T19:15:42Z</time>
      </trkpt>
      <trkpt lat="42.95321" lon="2.56277">
        <ele>463</ele>
        <time>2022-05-02T19:15:46Z</time>
      </trkpt>
      <trkpt lat="42.95291" lon="2.56309">
        <ele>467</ele>
        <time>2022-05-02T19:15:53Z</time>
      </trkpt>
      <trkpt lat="42.95274" lon="2.56322">
        <ele>468</ele>
        <time>2022-05-02T19:15:57Z</time>
      </trkpt>
      <trkpt lat="42.9526" lon="2.56331">
        <ele>468</ele>
        <time>2022-05-02T19:15:59Z</time>
      </trkpt>
      <trkpt lat="42.95247" lon="2.5634">
        <ele>468</ele>
        <time>2022-05-02T19:16:02Z</time>
      </trkpt>
      <trkpt lat="42.95212" lon="2.56393">
        <ele>471</ele>
        <time>2022-05-02T19:16:11Z</time>
      </trkpt>
      <trkpt lat="42.9519" lon="2.56417">
        <ele>470</ele>
        <time>2022-05-02T19:16:16Z</time>
      </trkpt>
      <trkpt lat="42.95179" lon="2.56426">
        <ele>470</ele>
        <time>2022-05-02T19:16:18Z</time>
      </trkpt>
      <trkpt lat="42.9517" lon="2.56429">
        <ele>470</ele>
        <time>2022-05-02T19:16:20Z</time>
      </trkpt>
      <trkpt lat="42.95162" lon="2.56429">
        <ele>470</ele>
        <time>2022-05-02T19:16:22Z</time>
      </trkpt>
      <trkpt lat="42.95116" lon="2.56411">
        <ele>472</ele>
        <time>2022-05-02T19:16:30Z</time>
      </trkpt>
      <trkpt lat="42.95097" lon="2.5641">
        <ele>473</ele>
        <time>2022-05-02T19:16:33Z</time>
      </trkpt>
      <trkpt lat="42.9509" lon="2.56411">
        <ele>474</ele>
        <time>2022-05-02T19:16:35Z</time>
      </trkpt>
      <trkpt lat="42.95075" lon="2.5642">
        <ele>475</ele>
        <time>2022-05-02T19:16:38Z</time>
      </trkpt>
      <trkpt lat="42.95042" lon="2.56452">
        <ele>481</ele>
        <time>2022-05-02T19:16:45Z</time>
      </trkpt>
      <trkpt lat="42.95028" lon="2.56457">
        <ele>482</ele>
        <time>2022-05-02T19:16:47Z</time>
      </trkpt>
      <trkpt lat="42.95022" lon="2.56457">
        <ele>483</ele>
        <time>2022-05-02T19:16:48Z</time>
      </trkpt>
      <trkpt lat="42.95017" lon="2.56455">
        <ele>482</ele>
        <time>2022-05-02T19:16:49Z</time>
      </trkpt>
      <trkpt lat="42.95001" lon="2.56446">
        <ele>482</ele>
        <time>2022-05-02T19:16:52Z</time>
      </trkpt>
      <trkpt lat="42.94981" lon="2.5644">
        <ele>482</ele>
        <time>2022-05-02T19:16:56Z</time>
      </trkpt>
      <trkpt lat="42.9496" lon="2.56442">
        <ele>483</ele>
        <time>2022-05-02T19:17:00Z</time>
      </trkpt>
      <trkpt lat="42.94933" lon="2.56454">
        <ele>486</ele>
        <time>2022-05-02T19:17:05Z</time>
      </trkpt>
      <trkpt lat="42.94912" lon="2.56466">
        <ele>488</ele>
        <time>2022-05-02T19:17:09Z</time>
      </trkpt>
      <trkpt lat="42.94849" lon="2.56512">
        <ele>490</ele>
        <time>2022-05-02T19:17:22Z</time>
      </trkpt>
      <trkpt lat="42.94799" lon="2.56569">
        <ele>497</ele>
        <time>2022-05-02T19:17:33Z</time>
      </trkpt>
      <trkpt lat="42.94786" lon="2.5658">
        <ele>497</ele>
        <time>2022-05-02T19:17:36Z</time>
      </trkpt>
      <trkpt lat="42.94774" lon="2.56584">
        <ele>497</ele>
        <time>2022-05-02T19:17:38Z</time>
      </trkpt>
      <trkpt lat="42.94704" lon="2.56596">
        <ele>501</ele>
        <time>2022-05-02T19:17:51Z</time>
      </trkpt>
      <trkpt lat="42.94646" lon="2.56588">
        <ele>502</ele>
        <time>2022-05-02T19:18:01Z</time>
      </trkpt>
      <trkpt lat="42.9461" lon="2.56585">
        <ele>505</ele>
        <time>2022-05-02T19:18:07Z</time>
      </trkpt>
      <trkpt lat="42.9456" lon="2.56586">
        <ele>509</ele>
        <time>2022-05-02T19:18:16Z</time>
      </trkpt>
      <trkpt lat="42.94534" lon="2.56591">
        <ele>512</ele>
        <time>2022-05-02T19:18:21Z</time>
      </trkpt>
      <trkpt lat="42.94522" lon="2.56591">
        <ele>512</ele>
        <time>2022-05-02T19:18:23Z</time>
      </trkpt>
      <trkpt lat="42.94483" lon="2.56582">
        <ele>510</ele>
        <time>2022-05-02T19:18:30Z</time>
      </trkpt>
      <trkpt lat="42.94467" lon="2.56582">
        <ele>510</ele>
        <time>2022-05-02T19:18:33Z</time>
      </trkpt>
      <trkpt lat="42.9439" lon="2.56607">
        <ele>512</ele>
        <time>2022-05-02T19:18:47Z</time>
      </trkpt>
      <trkpt lat="42.94373" lon="2.5662">
        <ele>513</ele>
        <time>2022-05-02T19:18:51Z</time>
      </trkpt>
      <trkpt lat="42.94361" lon="2.56631">
        <ele>513</ele>
        <time>2022-05-02T19:18:53Z</time>
      </trkpt>
      <trkpt lat="42.94354" lon="2.5664">
        <ele>513</ele>
        <time>2022-05-02T19:18:55Z</time>
      </trkpt>
      <trkpt lat="42.9435" lon="2.5665">
        <ele>513</ele>
        <time>2022-05-02T19:18:56Z</time>
      </trkpt>
      <trkpt lat="42.94337" lon="2.56765">
        <ele>518</ele>
        <time>2022-05-02T19:19:12Z</time>
      </trkpt>
      <trkpt lat="42.94334" lon="2.56778">
        <ele>518</ele>
        <time>2022-05-02T19:19:13Z</time>
      </trkpt>
      <trkpt lat="42.94321" lon="2.56806">
        <ele>521</ele>
        <time>2022-05-02T19:19:18Z</time>
      </trkpt>
      <trkpt lat="42.94319" lon="2.56814">
        <ele>522</ele>
        <time>2022-05-02T19:19:19Z</time>
      </trkpt>
      <trkpt lat="42.94319" lon="2.56822">
        <ele>523</ele>
        <time>2022-05-02T19:19:20Z</time>
      </trkpt>
      <trkpt lat="42.94326" lon="2.56861">
        <ele>528</ele>
        <time>2022-05-02T19:19:25Z</time>
      </trkpt>
      <trkpt lat="42.94325" lon="2.56871">
        <ele>529</ele>
        <time>2022-05-02T19:19:26Z</time>
      </trkpt>
      <trkpt lat="42.94321" lon="2.56877">
        <ele>531</ele>
        <time>2022-05-02T19:19:27Z</time>
      </trkpt>
      <trkpt lat="42.94308" lon="2.56879">
        <ele>533</ele>
        <time>2022-05-02T19:19:30Z</time>
      </trkpt>
      <trkpt lat="42.94302" lon="2.56873">
        <ele>533</ele>
        <time>2022-05-02T19:19:31Z</time>
      </trkpt>
      <trkpt lat="42.9429" lon="2.56843">
        <ele>528</ele>
        <time>2022-05-02T19:19:35Z</time>
      </trkpt>
      <trkpt lat="42.94281" lon="2.56831">
        <ele>526</ele>
        <time>2022-05-02T19:19:38Z</time>
      </trkpt>
      <trkpt lat="42.94237" lon="2.56807">
        <ele>527</ele>
        <time>2022-05-02T19:19:46Z</time>
      </trkpt>
      <trkpt lat="42.94206" lon="2.56797">
        <ele>533</ele>
        <time>2022-05-02T19:19:52Z</time>
      </trkpt>
      <trkpt lat="42.94199" lon="2.56792">
        <ele>534</ele>
        <time>2022-05-02T19:19:53Z</time>
      </trkpt>
      <trkpt lat="42.94171" lon="2.56753">
        <ele>526</ele>
        <time>2022-05-02T19:20:00Z</time>
      </trkpt>
      <trkpt lat="42.94165" lon="2.56747">
        <ele>526</ele>
        <time>2022-05-02T19:20:02Z</time>
      </trkpt>
      <trkpt lat="42.94151" lon="2.56737">
        <ele>529</ele>
        <time>2022-05-02T19:20:04Z</time>
      </trkpt>
      <trkpt lat="42.94138" lon="2.5673">
        <ele>532</ele>
        <time>2022-05-02T19:20:07Z</time>
      </trkpt>
      <trkpt lat="42.9411" lon="2.56722">
        <ele>537</ele>
        <time>2022-05-02T19:20:12Z</time>
      </trkpt>
      <trkpt lat="42.94101" lon="2.56717">
        <ele>538</ele>
        <time>2022-05-02T19:20:14Z</time>
      </trkpt>
      <trkpt lat="42.94092" lon="2.56709">
        <ele>538</ele>
        <time>2022-05-02T19:20:16Z</time>
      </trkpt>
      <trkpt lat="42.94059" lon="2.56668">
        <ele>532</ele>
        <time>2022-05-02T19:20:24Z</time>
      </trkpt>
      <trkpt lat="42.94033" lon="2.56651">
        <ele>537</ele>
        <time>2022-05-02T19:20:29Z</time>
      </trkpt>
      <trkpt lat="42.94028" lon="2.5665">
        <ele>538</ele>
        <time>2022-05-02T19:20:30Z</time>
      </trkpt>
      <trkpt lat="42.94022" lon="2.56652">
        <ele>538</ele>
        <time>2022-05-02T19:20:31Z</time>
      </trkpt>
      <trkpt lat="42.9401" lon="2.56674">
        <ele>539</ele>
        <time>2022-05-02T19:20:34Z</time>
      </trkpt>
      <trkpt lat="42.94005" lon="2.56687">
        <ele>542</ele>
        <time>2022-05-02T19:20:36Z</time>
      </trkpt>
      <trkpt lat="42.93999" lon="2.56716">
        <ele>547</ele>
        <time>2022-05-02T19:20:40Z</time>
      </trkpt>
      <trkpt lat="42.93991" lon="2.56734">
        <ele>551</ele>
        <time>2022-05-02T19:20:43Z</time>
      </trkpt>
      <trkpt lat="42.93979" lon="2.56751">
        <ele>555</ele>
        <time>2022-05-02T19:20:46Z</time>
      </trkpt>
      <trkpt lat="42.93972" lon="2.56756">
        <ele>558</ele>
        <time>2022-05-02T19:20:47Z</time>
      </trkpt>
      <trkpt lat="42.93962" lon="2.56755">
        <ele>559</ele>
        <time>2022-05-02T19:20:49Z</time>
      </trkpt>
      <trkpt lat="42.93955" lon="2.56749">
        <ele>559</ele>
        <time>2022-05-02T19:20:51Z</time>
      </trkpt>
      <trkpt lat="42.93951" lon="2.56736">
        <ele>560</ele>
        <time>2022-05-02T19:20:52Z</time>
      </trkpt>
      <trkpt lat="42.93951" lon="2.56725">
        <ele>560</ele>
        <time>2022-05-02T19:20:54Z</time>
      </trkpt>
      <trkpt lat="42.93975" lon="2.56637">
        <ele>555</ele>
        <time>2022-05-02T19:21:06Z</time>
      </trkpt>
      <trkpt lat="42.9399" lon="2.56595">
        <ele>554</ele>
        <time>2022-05-02T19:21:12Z</time>
      </trkpt>
      <trkpt lat="42.93997" lon="2.56581">
        <ele>552</ele>
        <time>2022-05-02T19:21:14Z</time>
      </trkpt>
      <trkpt lat="42.94009" lon="2.56547">
        <ele>553</ele>
        <time>2022-05-02T19:21:19Z</time>
      </trkpt>
      <trkpt lat="42.94009" lon="2.56537">
        <ele>554</ele>
        <time>2022-05-02T19:21:21Z</time>
      </trkpt>
      <trkpt lat="42.94003" lon="2.56511">
        <ele>558</ele>
        <time>2022-05-02T19:21:24Z</time>
      </trkpt>
      <trkpt lat="42.94003" lon="2.56482">
        <ele>559</ele>
        <time>2022-05-02T19:21:28Z</time>
      </trkpt>
      <trkpt lat="42.93997" lon="2.5643">
        <ele>558</ele>
        <time>2022-05-02T19:21:35Z</time>
      </trkpt>
      <trkpt lat="42.9399" lon="2.56414">
        <ele>559</ele>
        <time>2022-05-02T19:21:37Z</time>
      </trkpt>
      <trkpt lat="42.93985" lon="2.56408">
        <ele>560</ele>
        <time>2022-05-02T19:21:38Z</time>
      </trkpt>
      <trkpt lat="42.93964" lon="2.56394">
        <ele>563</ele>
        <time>2022-05-02T19:21:43Z</time>
      </trkpt>
      <trkpt lat="42.93957" lon="2.56392">
        <ele>563</ele>
        <time>2022-05-02T19:21:44Z</time>
      </trkpt>
      <trkpt lat="42.93949" lon="2.56393">
        <ele>564</ele>
        <time>2022-05-02T19:21:45Z</time>
      </trkpt>
      <trkpt lat="42.93944" lon="2.56397">
        <ele>564</ele>
        <time>2022-05-02T19:21:46Z</time>
      </trkpt>
      <trkpt lat="42.93927" lon="2.56414">
        <ele>566</ele>
        <time>2022-05-02T19:21:50Z</time>
      </trkpt>
      <trkpt lat="42.93913" lon="2.56423">
        <ele>570</ele>
        <time>2022-05-02T19:21:53Z</time>
      </trkpt>
      <trkpt lat="42.93896" lon="2.56426">
        <ele>571</ele>
        <time>2022-05-02T19:21:56Z</time>
      </trkpt>
      <trkpt lat="42.93859" lon="2.56423">
        <ele>572</ele>
        <time>2022-05-02T19:22:02Z</time>
      </trkpt>
      <trkpt lat="42.93843" lon="2.56427">
        <ele>574</ele>
        <time>2022-05-02T19:22:05Z</time>
      </trkpt>
      <trkpt lat="42.93831" lon="2.56423">
        <ele>574</ele>
        <time>2022-05-02T19:22:08Z</time>
      </trkpt>
      <trkpt lat="42.93815" lon="2.56405">
        <ele>572</ele>
        <time>2022-05-02T19:22:11Z</time>
      </trkpt>
      <trkpt lat="42.93809" lon="2.56402">
        <ele>572</ele>
        <time>2022-05-02T19:22:12Z</time>
      </trkpt>
      <trkpt lat="42.93774" lon="2.56401">
        <ele>574</ele>
        <time>2022-05-02T19:22:19Z</time>
      </trkpt>
      <trkpt lat="42.93763" lon="2.56394">
        <ele>574</ele>
        <time>2022-05-02T19:22:21Z</time>
      </trkpt>
      <trkpt lat="42.9375" lon="2.56392">
        <ele>575</ele>
        <time>2022-05-02T19:22:23Z</time>
      </trkpt>
      <trkpt lat="42.93741" lon="2.56395">
        <ele>575</ele>
        <time>2022-05-02T19:22:25Z</time>
      </trkpt>
      <trkpt lat="42.93708" lon="2.56417">
        <ele>578</ele>
        <time>2022-05-02T19:22:31Z</time>
      </trkpt>
      <trkpt lat="42.93701" lon="2.56423">
        <ele>579</ele>
        <time>2022-05-02T19:22:33Z</time>
      </trkpt>
      <trkpt lat="42.93687" lon="2.56442">
        <ele>583</ele>
        <time>2022-05-02T19:22:36Z</time>
      </trkpt>
      <trkpt lat="42.93676" lon="2.56463">
        <ele>588</ele>
        <time>2022-05-02T19:22:40Z</time>
      </trkpt>
      <trkpt lat="42.9367" lon="2.5647">
        <ele>589</ele>
        <time>2022-05-02T19:22:41Z</time>
      </trkpt>
      <trkpt lat="42.9364" lon="2.56484">
        <ele>591</ele>
        <time>2022-05-02T19:22:47Z</time>
      </trkpt>
      <trkpt lat="42.93596" lon="2.5652">
        <ele>596</ele>
        <time>2022-05-02T19:22:56Z</time>
      </trkpt>
      <trkpt lat="42.9359" lon="2.56523">
        <ele>596</ele>
        <time>2022-05-02T19:22:57Z</time>
      </trkpt>
      <trkpt lat="42.93584" lon="2.56523">
        <ele>596</ele>
        <time>2022-05-02T19:22:58Z</time>
      </trkpt>
      <trkpt lat="42.93578" lon="2.56519">
        <ele>596</ele>
        <time>2022-05-02T19:22:59Z</time>
      </trkpt>
      <trkpt lat="42.93573" lon="2.56511">
        <ele>595</ele>
        <time>2022-05-02T19:23:01Z</time>
      </trkpt>
      <trkpt lat="42.93571" lon="2.565">
        <ele>594</ele>
        <time>2022-05-02T19:23:02Z</time>
      </trkpt>
      <trkpt lat="42.9357" lon="2.56489">
        <ele>592</ele>
        <time>2022-05-02T19:23:04Z</time>
      </trkpt>
      <trkpt lat="42.9357" lon="2.56476">
        <ele>590</ele>
        <time>2022-05-02T19:23:05Z</time>
      </trkpt>
      <trkpt lat="42.93569" lon="2.56468">
        <ele>589</ele>
        <time>2022-05-02T19:23:06Z</time>
      </trkpt>
      <trkpt lat="42.93566" lon="2.5646">
        <ele>588</ele>
        <time>2022-05-02T19:23:07Z</time>
      </trkpt>
      <trkpt lat="42.93561" lon="2.56454">
        <ele>588</ele>
        <time>2022-05-02T19:23:09Z</time>
      </trkpt>
      <trkpt lat="42.93553" lon="2.56449">
        <ele>588</ele>
        <time>2022-05-02T19:23:10Z</time>
      </trkpt>
      <trkpt lat="42.93543" lon="2.56446">
        <ele>589</ele>
        <time>2022-05-02T19:23:12Z</time>
      </trkpt>
      <trkpt lat="42.93491" lon="2.56444">
        <ele>594</ele>
        <time>2022-05-02T19:23:21Z</time>
      </trkpt>
      <trkpt lat="42.93463" lon="2.56447">
        <ele>596</ele>
        <time>2022-05-02T19:23:26Z</time>
      </trkpt>
      <trkpt lat="42.93425" lon="2.5646">
        <ele>600</ele>
        <time>2022-05-02T19:23:33Z</time>
      </trkpt>
      <trkpt lat="42.93404" lon="2.56471">
        <ele>602</ele>
        <time>2022-05-02T19:23:37Z</time>
      </trkpt>
      <trkpt lat="42.93364" lon="2.565">
        <ele>604</ele>
        <time>2022-05-02T19:23:45Z</time>
      </trkpt>
      <trkpt lat="42.93353" lon="2.56512">
        <ele>605</ele>
        <time>2022-05-02T19:23:48Z</time>
      </trkpt>
      <trkpt lat="42.93346" lon="2.56522">
        <ele>606</ele>
        <time>2022-05-02T19:23:50Z</time>
      </trkpt>
      <trkpt lat="42.93345" lon="2.56524">
        <ele>607</ele>
        <time>2022-05-02T19:23:50Z</time>
      </trkpt>
      <trkpt lat="42.93331" lon="2.56552">
        <ele>610</ele>
        <time>2022-05-02T19:23:54Z</time>
      </trkpt>
      <trkpt lat="42.93307" lon="2.56609">
        <ele>618</ele>
        <time>2022-05-02T19:24:03Z</time>
      </trkpt>
      <trkpt lat="42.93302" lon="2.56615">
        <ele>618</ele>
        <time>2022-05-02T19:24:04Z</time>
      </trkpt>
      <trkpt lat="42.93293" lon="2.56624">
        <ele>619</ele>
        <time>2022-05-02T19:24:06Z</time>
      </trkpt>
      <trkpt lat="42.93283" lon="2.5663">
        <ele>619</ele>
        <time>2022-05-02T19:24:08Z</time>
      </trkpt>
      <trkpt lat="42.93257" lon="2.56641">
        <ele>619</ele>
        <time>2022-05-02T19:24:13Z</time>
      </trkpt>
      <trkpt lat="42.93246" lon="2.56651">
        <ele>621</ele>
        <time>2022-05-02T19:24:15Z</time>
      </trkpt>
      <trkpt lat="42.93235" lon="2.56665">
        <ele>623</ele>
        <time>2022-05-02T19:24:18Z</time>
      </trkpt>
      <trkpt lat="42.93226" lon="2.5668">
        <ele>625</ele>
        <time>2022-05-02T19:24:20Z</time>
      </trkpt>
      <trkpt lat="42.93214" lon="2.56702">
        <ele>626</ele>
        <time>2022-05-02T19:24:24Z</time>
      </trkpt>
      <trkpt lat="42.93202" lon="2.56724">
        <ele>626</ele>
        <time>2022-05-02T19:24:28Z</time>
      </trkpt>
      <trkpt lat="42.93173" lon="2.56767">
        <ele>624</ele>
        <time>2022-05-02T19:24:35Z</time>
      </trkpt>
      <trkpt lat="42.93166" lon="2.56775">
        <ele>623</ele>
        <time>2022-05-02T19:24:37Z</time>
      </trkpt>
      <trkpt lat="42.93159" lon="2.56778">
        <ele>623</ele>
        <time>2022-05-02T19:24:38Z</time>
      </trkpt>
      <trkpt lat="42.93121" lon="2.56781">
        <ele>621</ele>
        <time>2022-05-02T19:24:45Z</time>
      </trkpt>
      <trkpt lat="42.93077" lon="2.56799">
        <ele>616</ele>
        <time>2022-05-02T19:24:53Z</time>
      </trkpt>
      <trkpt lat="42.93062" lon="2.56801">
        <ele>614</ele>
        <time>2022-05-02T19:24:56Z</time>
      </trkpt>
      <trkpt lat="42.9305" lon="2.56795">
        <ele>613</ele>
        <time>2022-05-02T19:24:58Z</time>
      </trkpt>
      <trkpt lat="42.93043" lon="2.56786">
        <ele>615</ele>
        <time>2022-05-02T19:25:00Z</time>
      </trkpt>
      <trkpt lat="42.9303" lon="2.56764">
        <ele>618</ele>
        <time>2022-05-02T19:25:03Z</time>
      </trkpt>
      <trkpt lat="42.93027" lon="2.5676">
        <ele>618</ele>
        <time>2022-05-02T19:25:04Z</time>
      </trkpt>
      <trkpt lat="42.93023" lon="2.56758">
        <ele>618</ele>
        <time>2022-05-02T19:25:05Z</time>
      </trkpt>
      <trkpt lat="42.93016" lon="2.56757">
        <ele>617</ele>
        <time>2022-05-02T19:25:06Z</time>
      </trkpt>
      <trkpt lat="42.92971" lon="2.56779">
        <ele>608</ele>
        <time>2022-05-02T19:25:15Z</time>
      </trkpt>
      <trkpt lat="42.92962" lon="2.56781">
        <ele>606</ele>
        <time>2022-05-02T19:25:16Z</time>
      </trkpt>
      <trkpt lat="42.92935" lon="2.56781">
        <ele>603</ele>
        <time>2022-05-02T19:25:21Z</time>
      </trkpt>
      <trkpt lat="42.92922" lon="2.56776">
        <ele>603</ele>
        <time>2022-05-02T19:25:23Z</time>
      </trkpt>
      <trkpt lat="42.92915" lon="2.56765">
        <ele>604</ele>
        <time>2022-05-02T19:25:25Z</time>
      </trkpt>
      <trkpt lat="42.92911" lon="2.56752">
        <ele>606</ele>
        <time>2022-05-02T19:25:27Z</time>
      </trkpt>
      <trkpt lat="42.92908" lon="2.56735">
        <ele>609</ele>
        <time>2022-05-02T19:25:29Z</time>
      </trkpt>
      <trkpt lat="42.92905" lon="2.56729">
        <ele>610</ele>
        <time>2022-05-02T19:25:30Z</time>
      </trkpt>
      <trkpt lat="42.92903" lon="2.56725">
        <ele>611</ele>
        <time>2022-05-02T19:25:31Z</time>
      </trkpt>
      <trkpt lat="42.929" lon="2.56722">
        <ele>612</ele>
        <time>2022-05-02T19:25:32Z</time>
      </trkpt>
      <trkpt lat="42.92892" lon="2.56718">
        <ele>612</ele>
        <time>2022-05-02T19:25:33Z</time>
      </trkpt>
      <trkpt lat="42.92883" lon="2.5672">
        <ele>612</ele>
        <time>2022-05-02T19:25:35Z</time>
      </trkpt>
      <trkpt lat="42.92879" lon="2.56723">
        <ele>611</ele>
        <time>2022-05-02T19:25:36Z</time>
      </trkpt>
      <trkpt lat="42.92803" lon="2.56803">
        <ele>596</ele>
        <time>2022-05-02T19:25:53Z</time>
      </trkpt>
      <trkpt lat="42.92786" lon="2.56828">
        <ele>592</ele>
        <time>2022-05-02T19:25:57Z</time>
      </trkpt>
      <trkpt lat="42.92775" lon="2.56839">
        <ele>590</ele>
        <time>2022-05-02T19:26:00Z</time>
      </trkpt>
      <trkpt lat="42.92763" lon="2.56844">
        <ele>590</ele>
        <time>2022-05-02T19:26:02Z</time>
      </trkpt>
      <trkpt lat="42.92699" lon="2.56856">
        <ele>586</ele>
        <time>2022-05-02T19:26:13Z</time>
      </trkpt>
      <trkpt lat="42.92689" lon="2.5686">
        <ele>585</ele>
        <time>2022-05-02T19:26:15Z</time>
      </trkpt>
      <trkpt lat="42.92672" lon="2.56872">
        <ele>583</ele>
        <time>2022-05-02T19:26:19Z</time>
      </trkpt>
      <trkpt lat="42.92656" lon="2.56877">
        <ele>581</ele>
        <time>2022-05-02T19:26:22Z</time>
      </trkpt>
      <trkpt lat="42.9262" lon="2.5688">
        <ele>579</ele>
        <time>2022-05-02T19:26:28Z</time>
      </trkpt>
      <trkpt lat="42.92605" lon="2.56877">
        <ele>579</ele>
        <time>2022-05-02T19:26:31Z</time>
      </trkpt>
      <trkpt lat="42.92583" lon="2.56861">
        <ele>580</ele>
        <time>2022-05-02T19:26:35Z</time>
      </trkpt>
      <trkpt lat="42.92572" lon="2.56857">
        <ele>582</ele>
        <time>2022-05-02T19:26:37Z</time>
      </trkpt>
      <trkpt lat="42.92568" lon="2.56857">
        <ele>583</ele>
        <time>2022-05-02T19:26:38Z</time>
      </trkpt>
      <trkpt lat="42.92563" lon="2.56861">
        <ele>582</ele>
        <time>2022-05-02T19:26:39Z</time>
      </trkpt>
      <trkpt lat="42.9256" lon="2.56867">
        <ele>582</ele>
        <time>2022-05-02T19:26:40Z</time>
      </trkpt>
      <trkpt lat="42.92559" lon="2.56876">
        <ele>580</ele>
        <time>2022-05-02T19:26:41Z</time>
      </trkpt>
      <trkpt lat="42.9256" lon="2.56883">
        <ele>579</ele>
        <time>2022-05-02T19:26:42Z</time>
      </trkpt>
      <trkpt lat="42.92571" lon="2.5691">
        <ele>574</ele>
        <time>2022-05-02T19:26:46Z</time>
      </trkpt>
      <trkpt lat="42.92573" lon="2.56918">
        <ele>572</ele>
        <time>2022-05-02T19:26:47Z</time>
      </trkpt>
      <trkpt lat="42.92573" lon="2.56939">
        <ele>569</ele>
        <time>2022-05-02T19:26:50Z</time>
      </trkpt>
      <trkpt lat="42.9257" lon="2.56984">
        <ele>563</ele>
        <time>2022-05-02T19:26:56Z</time>
      </trkpt>
      <trkpt lat="42.92567" lon="2.56998">
        <ele>562</ele>
        <time>2022-05-02T19:26:58Z</time>
      </trkpt>
      <trkpt lat="42.92553" lon="2.57038">
        <ele>558</ele>
        <time>2022-05-02T19:27:03Z</time>
      </trkpt>
      <trkpt lat="42.92542" lon="2.57057">
        <ele>557</ele>
        <time>2022-05-02T19:27:06Z</time>
      </trkpt>
      <trkpt lat="42.92533" lon="2.57067">
        <ele>557</ele>
        <time>2022-05-02T19:27:09Z</time>
      </trkpt>
      <trkpt lat="42.92524" lon="2.57071">
        <ele>558</ele>
        <time>2022-05-02T19:27:10Z</time>
      </trkpt>
      <trkpt lat="42.92514" lon="2.57071">
        <ele>559</ele>
        <time>2022-05-02T19:27:12Z</time>
      </trkpt>
      <trkpt lat="42.92447" lon="2.57049">
        <ele>558</ele>
        <time>2022-05-02T19:27:24Z</time>
      </trkpt>
      <trkpt lat="42.9242" lon="2.57046">
        <ele>555</ele>
        <time>2022-05-02T19:27:29Z</time>
      </trkpt>
      <trkpt lat="42.92382" lon="2.57054">
        <ele>549</ele>
        <time>2022-05-02T19:27:36Z</time>
      </trkpt>
      <trkpt lat="42.92363" lon="2.57055">
        <ele>547</ele>
        <time>2022-05-02T19:27:39Z</time>
      </trkpt>
      <trkpt lat="42.92355" lon="2.57051">
        <ele>546</ele>
        <time>2022-05-02T19:27:41Z</time>
      </trkpt>
      <trkpt lat="42.92348" lon="2.57042">
        <ele>547</ele>
        <time>2022-05-02T19:27:43Z</time>
      </trkpt>
      <trkpt lat="42.92334" lon="2.5702">
        <ele>548</ele>
        <time>2022-05-02T19:27:46Z</time>
      </trkpt>
      <trkpt lat="42.9233" lon="2.57016">
        <ele>549</ele>
        <time>2022-05-02T19:27:47Z</time>
      </trkpt>
      <trkpt lat="42.92321" lon="2.57014">
        <ele>548</ele>
        <time>2022-05-02T19:27:49Z</time>
      </trkpt>
      <trkpt lat="42.92317" lon="2.57016">
        <ele>548</ele>
        <time>2022-05-02T19:27:50Z</time>
      </trkpt>
      <trkpt lat="42.9228" lon="2.57053">
        <ele>539</ele>
        <time>2022-05-02T19:27:58Z</time>
      </trkpt>
      <trkpt lat="42.92275" lon="2.57056">
        <ele>538</ele>
        <time>2022-05-02T19:27:59Z</time>
      </trkpt>
      <trkpt lat="42.9227" lon="2.57057">
        <ele>538</ele>
        <time>2022-05-02T19:28:00Z</time>
      </trkpt>
      <trkpt lat="42.92232" lon="2.57046">
        <ele>539</ele>
        <time>2022-05-02T19:28:07Z</time>
      </trkpt>
      <trkpt lat="42.92226" lon="2.57047">
        <ele>540</ele>
        <time>2022-05-02T19:28:08Z</time>
      </trkpt>
      <trkpt lat="42.92218" lon="2.57054">
        <ele>539</ele>
        <time>2022-05-02T19:28:09Z</time>
      </trkpt>
      <trkpt lat="42.92209" lon="2.57071">
        <ele>536</ele>
        <time>2022-05-02T19:28:12Z</time>
      </trkpt>
      <trkpt lat="42.92195" lon="2.57091">
        <ele>533</ele>
        <time>2022-05-02T19:28:16Z</time>
      </trkpt>
      <trkpt lat="42.92155" lon="2.57128">
        <ele>527</ele>
        <time>2022-05-02T19:28:24Z</time>
      </trkpt>
      <trkpt lat="42.92147" lon="2.57133">
        <ele>526</ele>
        <time>2022-05-02T19:28:26Z</time>
      </trkpt>
      <trkpt lat="42.92119" lon="2.57143">
        <ele>525</ele>
        <time>2022-05-02T19:28:31Z</time>
      </trkpt>
      <trkpt lat="42.92115" lon="2.57146">
        <ele>525</ele>
        <time>2022-05-02T19:28:32Z</time>
      </trkpt>
      <trkpt lat="42.92104" lon="2.57157">
        <ele>524</ele>
        <time>2022-05-02T19:28:34Z</time>
      </trkpt>
      <trkpt lat="42.92073" lon="2.572">
        <ele>517</ele>
        <time>2022-05-02T19:28:42Z</time>
      </trkpt>
      <trkpt lat="42.92052" lon="2.57225">
        <ele>512</ele>
        <time>2022-05-02T19:28:47Z</time>
      </trkpt>
      <trkpt lat="42.92036" lon="2.57238">
        <ele>510</ele>
        <time>2022-05-02T19:28:50Z</time>
      </trkpt>
      <trkpt lat="42.92028" lon="2.5724">
        <ele>510</ele>
        <time>2022-05-02T19:28:52Z</time>
      </trkpt>
      <trkpt lat="42.92021" lon="2.57239">
        <ele>510</ele>
        <time>2022-05-02T19:28:53Z</time>
      </trkpt>
      <trkpt lat="42.91981" lon="2.57214">
        <ele>511</ele>
        <time>2022-05-02T19:29:01Z</time>
      </trkpt>
      <trkpt lat="42.91976" lon="2.57204">
        <ele>511</ele>
        <time>2022-05-02T19:29:02Z</time>
      </trkpt>
      <trkpt lat="42.91969" lon="2.57182">
        <ele>512</ele>
        <time>2022-05-02T19:29:06Z</time>
      </trkpt>
      <trkpt lat="42.91963" lon="2.57176">
        <ele>512</ele>
        <time>2022-05-02T19:29:07Z</time>
      </trkpt>
      <trkpt lat="42.91956" lon="2.57174">
        <ele>511</ele>
        <time>2022-05-02T19:29:08Z</time>
      </trkpt>
      <trkpt lat="42.91948" lon="2.57175">
        <ele>510</ele>
        <time>2022-05-02T19:29:10Z</time>
      </trkpt>
      <trkpt lat="42.9194" lon="2.57179">
        <ele>509</ele>
        <time>2022-05-02T19:29:11Z</time>
      </trkpt>
      <trkpt lat="42.91933" lon="2.57189">
        <ele>507</ele>
        <time>2022-05-02T19:29:13Z</time>
      </trkpt>
      <trkpt lat="42.91929" lon="2.57211">
        <ele>505</ele>
        <time>2022-05-02T19:29:16Z</time>
      </trkpt>
      <trkpt lat="42.91925" lon="2.57282">
        <ele>496</ele>
        <time>2022-05-02T19:29:25Z</time>
      </trkpt>
      <trkpt lat="42.91928" lon="2.57293">
        <ele>495</ele>
        <time>2022-05-02T19:29:27Z</time>
      </trkpt>
      <trkpt lat="42.91933" lon="2.57301">
        <ele>494</ele>
        <time>2022-05-02T19:29:28Z</time>
      </trkpt>
      <trkpt lat="42.91949" lon="2.57309">
        <ele>494</ele>
        <time>2022-05-02T19:29:31Z</time>
      </trkpt>
      <trkpt lat="42.91954" lon="2.57314">
        <ele>493</ele>
        <time>2022-05-02T19:29:32Z</time>
      </trkpt>
      <trkpt lat="42.91956" lon="2.57323">
        <ele>492</ele>
        <time>2022-05-02T19:29:33Z</time>
      </trkpt>
      <trkpt lat="42.91955" lon="2.5733">
        <ele>491</ele>
        <time>2022-05-02T19:29:34Z</time>
      </trkpt>
      <trkpt lat="42.91951" lon="2.57334">
        <ele>490</ele>
        <time>2022-05-02T19:29:35Z</time>
      </trkpt>
      <trkpt lat="42.9192" lon="2.57337">
        <ele>488</ele>
        <time>2022-05-02T19:29:41Z</time>
      </trkpt>
      <trkpt lat="42.91901" lon="2.57337">
        <ele>485</ele>
        <time>2022-05-02T19:29:44Z</time>
      </trkpt>
      <trkpt lat="42.91889" lon="2.57334">
        <ele>483</ele>
        <time>2022-05-02T19:29:46Z</time>
      </trkpt>
      <trkpt lat="42.91877" lon="2.57324">
        <ele>482</ele>
        <time>2022-05-02T19:29:49Z</time>
      </trkpt>
      <trkpt lat="42.91874" lon="2.57317">
        <ele>482</ele>
        <time>2022-05-02T19:29:50Z</time>
      </trkpt>
      <trkpt lat="42.91874" lon="2.57308">
        <ele>483</ele>
        <time>2022-05-02T19:29:51Z</time>
      </trkpt>
      <trkpt lat="42.91881" lon="2.57284">
        <ele>488</ele>
        <time>2022-05-02T19:29:54Z</time>
      </trkpt>
      <trkpt lat="42.91881" lon="2.57277">
        <ele>489</ele>
        <time>2022-05-02T19:29:55Z</time>
      </trkpt>
      <trkpt lat="42.91879" lon="2.57268">
        <ele>489</ele>
        <time>2022-05-02T19:29:57Z</time>
      </trkpt>
      <trkpt lat="42.91846" lon="2.57232">
        <ele>485</ele>
        <time>2022-05-02T19:30:04Z</time>
      </trkpt>
      <trkpt lat="42.91839" lon="2.57217">
        <ele>484</ele>
        <time>2022-05-02T19:30:06Z</time>
      </trkpt>
      <trkpt lat="42.9183" lon="2.57192">
        <ele>484</ele>
        <time>2022-05-02T19:30:10Z</time>
      </trkpt>
      <trkpt lat="42.91824" lon="2.57164">
        <ele>485</ele>
        <time>2022-05-02T19:30:14Z</time>
      </trkpt>
      <trkpt lat="42.91824" lon="2.57144">
        <ele>486</ele>
        <time>2022-05-02T19:30:16Z</time>
      </trkpt>
      <trkpt lat="42.91822" lon="2.57126">
        <ele>487</ele>
        <time>2022-05-02T19:30:19Z</time>
      </trkpt>
      <trkpt lat="42.91795" lon="2.57018">
        <ele>490</ele>
        <time>2022-05-02T19:30:34Z</time>
      </trkpt>
      <trkpt lat="42.91788" lon="2.57014">
        <ele>489</ele>
        <time>2022-05-02T19:30:35Z</time>
      </trkpt>
      <trkpt lat="42.91782" lon="2.57014">
        <ele>488</ele>
        <time>2022-05-02T19:30:36Z</time>
      </trkpt>
      <trkpt lat="42.91774" lon="2.57021">
        <ele>486</ele>
        <time>2022-05-02T19:30:38Z</time>
      </trkpt>
      <trkpt lat="42.91772" lon="2.57029">
        <ele>486</ele>
        <time>2022-05-02T19:30:39Z</time>
      </trkpt>
      <trkpt lat="42.91774" lon="2.57036">
        <ele>486</ele>
        <time>2022-05-02T19:30:40Z</time>
      </trkpt>
      <trkpt lat="42.91789" lon="2.57061">
        <ele>487</ele>
        <time>2022-05-02T19:30:44Z</time>
      </trkpt>
      <trkpt lat="42.91794" lon="2.57079">
        <ele>487</ele>
        <time>2022-05-02T19:30:47Z</time>
      </trkpt>
      <trkpt lat="42.91798" lon="2.57108">
        <ele>485</ele>
        <time>2022-05-02T19:30:50Z</time>
      </trkpt>
      <trkpt lat="42.91797" lon="2.57139">
        <ele>482</ele>
        <time>2022-05-02T19:30:54Z</time>
      </trkpt>
      <trkpt lat="42.91788" lon="2.57191">
        <ele>477</ele>
        <time>2022-05-02T19:31:01Z</time>
      </trkpt>
      <trkpt lat="42.91789" lon="2.57204">
        <ele>477</ele>
        <time>2022-05-02T19:31:03Z</time>
      </trkpt>
      <trkpt lat="42.91795" lon="2.57238">
        <ele>476</ele>
        <time>2022-05-02T19:31:08Z</time>
      </trkpt>
      <trkpt lat="42.91798" lon="2.57247">
        <ele>476</ele>
        <time>2022-05-02T19:31:09Z</time>
      </trkpt>
      <trkpt lat="42.91792" lon="2.57262">
        <ele>474</ele>
        <time>2022-05-02T19:31:11Z</time>
      </trkpt>
      <trkpt lat="42.91785" lon="2.57238">
        <ele>475</ele>
        <time>2022-05-02T19:31:15Z</time>
      </trkpt>
      <trkpt lat="42.91769" lon="2.57219">
        <ele>473</ele>
        <time>2022-05-02T19:31:18Z</time>
      </trkpt>
      <trkpt lat="42.91743" lon="2.57191">
        <ele>471</ele>
        <time>2022-05-02T19:31:24Z</time>
      </trkpt>
      <trkpt lat="42.91685" lon="2.57137">
        <ele>469</ele>
        <time>2022-05-02T19:31:37Z</time>
      </trkpt>
      <trkpt lat="42.91678" lon="2.57124">
        <ele>468</ele>
        <time>2022-05-02T19:31:39Z</time>
      </trkpt>
      <trkpt lat="42.91674" lon="2.57112">
        <ele>468</ele>
        <time>2022-05-02T19:31:41Z</time>
      </trkpt>
      <trkpt lat="42.91667" lon="2.5702">
        <ele>470</ele>
        <time>2022-05-02T19:31:53Z</time>
      </trkpt>
      <trkpt lat="42.91669" lon="2.5699">
        <ele>472</ele>
        <time>2022-05-02T19:31:56Z</time>
      </trkpt>
      <trkpt lat="42.91667" lon="2.56971">
        <ele>472</ele>
        <time>2022-05-02T19:31:59Z</time>
      </trkpt>
      <trkpt lat="42.91658" lon="2.56941">
        <ele>472</ele>
        <time>2022-05-02T19:32:03Z</time>
      </trkpt>
      <trkpt lat="42.91616" lon="2.56819">
        <ele>475</ele>
        <time>2022-05-02T19:32:21Z</time>
      </trkpt>
      <trkpt lat="42.91607" lon="2.56807">
        <ele>475</ele>
        <time>2022-05-02T19:32:23Z</time>
      </trkpt>
      <trkpt lat="42.91589" lon="2.56792">
        <ele>473</ele>
        <time>2022-05-02T19:32:27Z</time>
      </trkpt>
      <trkpt lat="42.9158" lon="2.56782">
        <ele>473</ele>
        <time>2022-05-02T19:32:29Z</time>
      </trkpt>
      <trkpt lat="42.91576" lon="2.56774">
        <ele>473</ele>
        <time>2022-05-02T19:32:30Z</time>
      </trkpt>
      <trkpt lat="42.91553" lon="2.56693">
        <ele>478</ele>
        <time>2022-05-02T19:32:41Z</time>
      </trkpt>
      <trkpt lat="42.9155" lon="2.56674">
        <ele>478</ele>
        <time>2022-05-02T19:32:44Z</time>
      </trkpt>
      <trkpt lat="42.91545" lon="2.56568">
        <ele>479</ele>
        <time>2022-05-02T19:32:58Z</time>
      </trkpt>
      <trkpt lat="42.91538" lon="2.56488">
        <ele>479</ele>
        <time>2022-05-02T19:33:08Z</time>
      </trkpt>
      <trkpt lat="42.91535" lon="2.56474">
        <ele>480</ele>
        <time>2022-05-02T19:33:10Z</time>
      </trkpt>
      <trkpt lat="42.91528" lon="2.56457">
        <ele>481</ele>
        <time>2022-05-02T19:33:13Z</time>
      </trkpt>
      <trkpt lat="42.91487" lon="2.56394">
        <ele>485</ele>
        <time>2022-05-02T19:33:24Z</time>
      </trkpt>
      <trkpt lat="42.91477" lon="2.56376">
        <ele>486</ele>
        <time>2022-05-02T19:33:27Z</time>
      </trkpt>
      <trkpt lat="42.91473" lon="2.5636">
        <ele>487</ele>
        <time>2022-05-02T19:33:29Z</time>
      </trkpt>
      <trkpt lat="42.91479" lon="2.5632">
        <ele>491</ele>
        <time>2022-05-02T19:33:34Z</time>
      </trkpt>
      <trkpt lat="42.91484" lon="2.56304">
        <ele>493</ele>
        <time>2022-05-02T19:33:36Z</time>
      </trkpt>
      <trkpt lat="42.91486" lon="2.56265">
        <ele>494</ele>
        <time>2022-05-02T19:33:42Z</time>
      </trkpt>
      <trkpt lat="42.9148" lon="2.56127">
        <ele>504</ele>
        <time>2022-05-02T19:34:00Z</time>
      </trkpt>
      <trkpt lat="42.91478" lon="2.56103">
        <ele>507</ele>
        <time>2022-05-02T19:34:03Z</time>
      </trkpt>
      <trkpt lat="42.91464" lon="2.56065">
        <ele>510</ele>
        <time>2022-05-02T19:34:08Z</time>
      </trkpt>
      <trkpt lat="42.91443" lon="2.5602">
        <ele>510</ele>
        <time>2022-05-02T19:34:15Z</time>
      </trkpt>
      <trkpt lat="42.91417" lon="2.55971">
        <ele>507</ele>
        <time>2022-05-02T19:34:23Z</time>
      </trkpt>
      <trkpt lat="42.91398" lon="2.55942">
        <ele>513</ele>
        <time>2022-05-02T19:34:28Z</time>
      </trkpt>
      <trkpt lat="42.91391" lon="2.55936">
        <ele>513</ele>
        <time>2022-05-02T19:34:30Z</time>
      </trkpt>
      <trkpt lat="42.91375" lon="2.55932">
        <ele>511</ele>
        <time>2022-05-02T19:34:33Z</time>
      </trkpt>
      <trkpt lat="42.91368" lon="2.55928">
        <ele>510</ele>
        <time>2022-05-02T19:34:34Z</time>
      </trkpt>
      <trkpt lat="42.91363" lon="2.55922">
        <ele>509</ele>
        <time>2022-05-02T19:34:35Z</time>
      </trkpt>
      <trkpt lat="42.91344" lon="2.5589">
        <ele>508</ele>
        <time>2022-05-02T19:34:40Z</time>
      </trkpt>
      <trkpt lat="42.91339" lon="2.55886">
        <ele>507</ele>
        <time>2022-05-02T19:34:41Z</time>
      </trkpt>
      <trkpt lat="42.9133" lon="2.55886">
        <ele>505</ele>
        <time>2022-05-02T19:34:43Z</time>
      </trkpt>
      <trkpt lat="42.91319" lon="2.55891">
        <ele>505</ele>
        <time>2022-05-02T19:34:45Z</time>
      </trkpt>
      <trkpt lat="42.9131" lon="2.55893">
        <ele>505</ele>
        <time>2022-05-02T19:34:47Z</time>
      </trkpt>
      <trkpt lat="42.91303" lon="2.55894">
        <ele>505</ele>
        <time>2022-05-02T19:34:48Z</time>
      </trkpt>
      <trkpt lat="42.91287" lon="2.55885">
        <ele>505</ele>
        <time>2022-05-02T19:34:51Z</time>
      </trkpt>
      <trkpt lat="42.91201" lon="2.5582">
        <ele>505</ele>
        <time>2022-05-02T19:35:09Z</time>
      </trkpt>
      <trkpt lat="42.91192" lon="2.5581">
        <ele>505</ele>
        <time>2022-05-02T19:35:11Z</time>
      </trkpt>
      <trkpt lat="42.91184" lon="2.55791">
        <ele>506</ele>
        <time>2022-05-02T19:35:13Z</time>
      </trkpt>
      <trkpt lat="42.91157" lon="2.55689">
        <ele>506</ele>
        <time>2022-05-02T19:35:28Z</time>
      </trkpt>
      <trkpt lat="42.9115" lon="2.55677">
        <ele>507</ele>
        <time>2022-05-02T19:35:30Z</time>
      </trkpt>
      <trkpt lat="42.9114" lon="2.55669">
        <ele>508</ele>
        <time>2022-05-02T19:35:32Z</time>
      </trkpt>
      <trkpt lat="42.91091" lon="2.55644">
        <ele>514</ele>
        <time>2022-05-02T19:35:41Z</time>
      </trkpt>
      <trkpt lat="42.91074" lon="2.55633">
        <ele>517</ele>
        <time>2022-05-02T19:35:44Z</time>
      </trkpt>
      <trkpt lat="42.91059" lon="2.55613">
        <ele>519</ele>
        <time>2022-05-02T19:35:48Z</time>
      </trkpt>
      <trkpt lat="42.91003" lon="2.5551">
        <ele>520</ele>
        <time>2022-05-02T19:36:05Z</time>
      </trkpt>
      <trkpt lat="42.90971" lon="2.55464">
        <ele>525</ele>
        <time>2022-05-02T19:36:13Z</time>
      </trkpt>
      <trkpt lat="42.90966" lon="2.55453">
        <ele>525</ele>
        <time>2022-05-02T19:36:15Z</time>
      </trkpt>
      <trkpt lat="42.90964" lon="2.55445">
        <ele>525</ele>
        <time>2022-05-02T19:36:16Z</time>
      </trkpt>
      <trkpt lat="42.90968" lon="2.55422">
        <ele>522</ele>
        <time>2022-05-02T19:36:19Z</time>
      </trkpt>
      <trkpt lat="42.90971" lon="2.55412">
        <ele>521</ele>
        <time>2022-05-02T19:36:20Z</time>
      </trkpt>
      <trkpt lat="42.90971" lon="2.55401">
        <ele>521</ele>
        <time>2022-05-02T19:36:22Z</time>
      </trkpt>
      <trkpt lat="42.90967" lon="2.55387">
        <ele>521</ele>
        <time>2022-05-02T19:36:24Z</time>
      </trkpt>
      <trkpt lat="42.90943" lon="2.55363">
        <ele>523</ele>
        <time>2022-05-02T19:36:29Z</time>
      </trkpt>
      <trkpt lat="42.90935" lon="2.55358">
        <ele>524</ele>
        <time>2022-05-02T19:36:31Z</time>
      </trkpt>
      <trkpt lat="42.90911" lon="2.55356">
        <ele>528</ele>
        <time>2022-05-02T19:36:35Z</time>
      </trkpt>
      <trkpt lat="42.90901" lon="2.55348">
        <ele>529</ele>
        <time>2022-05-02T19:36:37Z</time>
      </trkpt>
      <trkpt lat="42.90889" lon="2.55324">
        <ele>529</ele>
        <time>2022-05-02T19:36:41Z</time>
      </trkpt>
      <trkpt lat="42.90877" lon="2.55309">
        <ele>530</ele>
        <time>2022-05-02T19:36:44Z</time>
      </trkpt>
      <trkpt lat="42.90843" lon="2.55281">
        <ele>533</ele>
        <time>2022-05-02T19:36:51Z</time>
      </trkpt>
      <trkpt lat="42.90824" lon="2.55263">
        <ele>535</ele>
        <time>2022-05-02T19:36:55Z</time>
      </trkpt>
      <trkpt lat="42.90793" lon="2.55226">
        <ele>537</ele>
        <time>2022-05-02T19:37:02Z</time>
      </trkpt>
      <trkpt lat="42.90784" lon="2.55212">
        <ele>538</ele>
        <time>2022-05-02T19:37:05Z</time>
      </trkpt>
      <trkpt lat="42.90765" lon="2.55159">
        <ele>539</ele>
        <time>2022-05-02T19:37:12Z</time>
      </trkpt>
      <trkpt lat="42.90733" lon="2.55084">
        <ele>540</ele>
        <time>2022-05-02T19:37:24Z</time>
      </trkpt>
      <trkpt lat="42.90726" lon="2.55069">
        <ele>540</ele>
        <time>2022-05-02T19:37:26Z</time>
      </trkpt>
      <trkpt lat="42.90715" lon="2.55056">
        <ele>541</ele>
        <time>2022-05-02T19:37:28Z</time>
      </trkpt>
      <trkpt lat="42.90659" lon="2.55004">
        <ele>550</ele>
        <time>2022-05-02T19:37:41Z</time>
      </trkpt>
      <trkpt lat="42.90653" lon="2.54996">
        <ele>551</ele>
        <time>2022-05-02T19:37:42Z</time>
      </trkpt>
      <trkpt lat="42.90633" lon="2.5496">
        <ele>553</ele>
        <time>2022-05-02T19:37:48Z</time>
      </trkpt>
      <trkpt lat="42.90625" lon="2.54949">
        <ele>554</ele>
        <time>2022-05-02T19:37:50Z</time>
      </trkpt>
      <trkpt lat="42.90609" lon="2.54933">
        <ele>556</ele>
        <time>2022-05-02T19:37:53Z</time>
      </trkpt>
      <trkpt lat="42.90584" lon="2.54916">
        <ele>561</ele>
        <time>2022-05-02T19:37:58Z</time>
      </trkpt>
      <trkpt lat="42.90575" lon="2.54906">
        <ele>562</ele>
        <time>2022-05-02T19:38:00Z</time>
      </trkpt>
      <trkpt lat="42.90567" lon="2.54894">
        <ele>563</ele>
        <time>2022-05-02T19:38:03Z</time>
      </trkpt>
      <trkpt lat="42.90554" lon="2.54868">
        <ele>563</ele>
        <time>2022-05-02T19:38:07Z</time>
      </trkpt>
      <trkpt lat="42.90545" lon="2.54855">
        <ele>564</ele>
        <time>2022-05-02T19:38:09Z</time>
      </trkpt>
      <trkpt lat="42.90516" lon="2.54833">
        <ele>569</ele>
        <time>2022-05-02T19:38:15Z</time>
      </trkpt>
      <trkpt lat="42.90511" lon="2.54827">
        <ele>570</ele>
        <time>2022-05-02T19:38:16Z</time>
      </trkpt>
      <trkpt lat="42.90506" lon="2.54818">
        <ele>570</ele>
        <time>2022-05-02T19:38:18Z</time>
      </trkpt>
      <trkpt lat="42.90482" lon="2.54735">
        <ele>568</ele>
        <time>2022-05-02T19:38:29Z</time>
      </trkpt>
      <trkpt lat="42.90469" lon="2.54707">
        <ele>571</ele>
        <time>2022-05-02T19:38:34Z</time>
      </trkpt>
      <trkpt lat="42.90362" lon="2.54501">
        <ele>581</ele>
        <time>2022-05-02T19:39:06Z</time>
      </trkpt>
      <trkpt lat="42.90294" lon="2.54409">
        <ele>589</ele>
        <time>2022-05-02T19:39:23Z</time>
      </trkpt>
      <trkpt lat="42.90288" lon="2.54395">
        <ele>590</ele>
        <time>2022-05-02T19:39:26Z</time>
      </trkpt>
      <trkpt lat="42.90276" lon="2.54346">
        <ele>590</ele>
        <time>2022-05-02T19:39:32Z</time>
      </trkpt>
      <trkpt lat="42.90266" lon="2.54327">
        <ele>592</ele>
        <time>2022-05-02T19:39:35Z</time>
      </trkpt>
      <trkpt lat="42.90241" lon="2.54278">
        <ele>601</ele>
        <time>2022-05-02T19:39:43Z</time>
      </trkpt>
      <trkpt lat="42.90236" lon="2.54268">
        <ele>601</ele>
        <time>2022-05-02T19:39:45Z</time>
      </trkpt>
      <trkpt lat="42.90223" lon="2.5425">
        <ele>603</ele>
        <time>2022-05-02T19:39:48Z</time>
      </trkpt>
      <trkpt lat="42.90216" lon="2.54246">
        <ele>604</ele>
        <time>2022-05-02T19:39:49Z</time>
      </trkpt>
      <trkpt lat="42.90208" lon="2.54245">
        <ele>604</ele>
        <time>2022-05-02T19:39:51Z</time>
      </trkpt>
      <trkpt lat="42.90198" lon="2.54249">
        <ele>603</ele>
        <time>2022-05-02T19:39:53Z</time>
      </trkpt>
      <trkpt lat="42.90195" lon="2.54255">
        <ele>603</ele>
        <time>2022-05-02T19:39:54Z</time>
      </trkpt>
      <trkpt lat="42.90187" lon="2.54267">
        <ele>601</ele>
        <time>2022-05-02T19:39:56Z</time>
      </trkpt>
      <trkpt lat="42.90173" lon="2.5429">
        <ele>599</ele>
        <time>2022-05-02T19:40:00Z</time>
      </trkpt>
      <trkpt lat="42.90149" lon="2.54329">
        <ele>595</ele>
        <time>2022-05-02T19:40:06Z</time>
      </trkpt>
      <trkpt lat="42.90142" lon="2.54337">
        <ele>595</ele>
        <time>2022-05-02T19:40:08Z</time>
      </trkpt>
      <trkpt lat="42.90135" lon="2.54342">
        <ele>594</ele>
        <time>2022-05-02T19:40:09Z</time>
      </trkpt>
      <trkpt lat="42.9009" lon="2.54354">
        <ele>593</ele>
        <time>2022-05-02T19:40:17Z</time>
      </trkpt>
      <trkpt lat="42.90076" lon="2.54354">
        <ele>592</ele>
        <time>2022-05-02T19:40:20Z</time>
      </trkpt>
      <trkpt lat="42.90055" lon="2.54347">
        <ele>589</ele>
        <time>2022-05-02T19:40:24Z</time>
      </trkpt>
      <trkpt lat="42.90046" lon="2.54341">
        <ele>588</ele>
        <time>2022-05-02T19:40:26Z</time>
      </trkpt>
      <trkpt lat="42.90039" lon="2.54331">
        <ele>588</ele>
        <time>2022-05-02T19:40:27Z</time>
      </trkpt>
      <trkpt lat="42.90036" lon="2.54314">
        <ele>588</ele>
        <time>2022-05-02T19:40:30Z</time>
      </trkpt>
      <trkpt lat="42.90035" lon="2.54285">
        <ele>590</ele>
        <time>2022-05-02T19:40:33Z</time>
      </trkpt>
      <trkpt lat="42.90032" lon="2.54274">
        <ele>590</ele>
        <time>2022-05-02T19:40:35Z</time>
      </trkpt>
      <trkpt lat="42.90021" lon="2.54249">
        <ele>589</ele>
        <time>2022-05-02T19:40:39Z</time>
      </trkpt>
      <trkpt lat="42.90013" lon="2.54191">
        <ele>590</ele>
        <time>2022-05-02T19:40:46Z</time>
      </trkpt>
      <trkpt lat="42.90002" lon="2.54167">
        <ele>588</ele>
        <time>2022-05-02T19:40:50Z</time>
      </trkpt>
      <trkpt lat="42.89991" lon="2.5415">
        <ele>586</ele>
        <time>2022-05-02T19:40:53Z</time>
      </trkpt>
      <trkpt lat="42.89981" lon="2.54127">
        <ele>584</ele>
        <time>2022-05-02T19:40:57Z</time>
      </trkpt>
      <trkpt lat="42.89971" lon="2.54086">
        <ele>584</ele>
        <time>2022-05-02T19:41:02Z</time>
      </trkpt>
      <trkpt lat="42.89957" lon="2.54047">
        <ele>584</ele>
        <time>2022-05-02T19:41:08Z</time>
      </trkpt>
      <trkpt lat="42.89944" lon="2.54023">
        <ele>582</ele>
        <time>2022-05-02T19:41:12Z</time>
      </trkpt>
      <trkpt lat="42.89894" lon="2.53955">
        <ele>573</ele>
        <time>2022-05-02T19:41:24Z</time>
      </trkpt>
      <trkpt lat="42.89889" lon="2.5394">
        <ele>572</ele>
        <time>2022-05-02T19:41:26Z</time>
      </trkpt>
      <trkpt lat="42.89889" lon="2.53918">
        <ele>574</ele>
        <time>2022-05-02T19:41:29Z</time>
      </trkpt>
      <trkpt lat="42.899" lon="2.53852">
        <ele>570</ele>
        <time>2022-05-02T19:41:38Z</time>
      </trkpt>
      <trkpt lat="42.89909" lon="2.53833">
        <ele>571</ele>
        <time>2022-05-02T19:41:41Z</time>
      </trkpt>
      <trkpt lat="42.89981" lon="2.53741">
        <ele>577</ele>
        <time>2022-05-02T19:41:59Z</time>
      </trkpt>
      <trkpt lat="42.89988" lon="2.53724">
        <ele>580</ele>
        <time>2022-05-02T19:42:01Z</time>
      </trkpt>
      <trkpt lat="42.89989" lon="2.53705">
        <ele>581</ele>
        <time>2022-05-02T19:42:04Z</time>
      </trkpt>
      <trkpt lat="42.89985" lon="2.53687">
        <ele>580</ele>
        <time>2022-05-02T19:42:06Z</time>
      </trkpt>
      <trkpt lat="42.89949" lon="2.5364">
        <ele>575</ele>
        <time>2022-05-02T19:42:15Z</time>
      </trkpt>
      <trkpt lat="42.89937" lon="2.53631">
        <ele>573</ele>
        <time>2022-05-02T19:42:17Z</time>
      </trkpt>
      <trkpt lat="42.8989" lon="2.53613">
        <ele>563</ele>
        <time>2022-05-02T19:42:26Z</time>
      </trkpt>
      <trkpt lat="42.89878" lon="2.53604">
        <ele>561</ele>
        <time>2022-05-02T19:42:29Z</time>
      </trkpt>
      <trkpt lat="42.89869" lon="2.53594">
        <ele>560</ele>
        <time>2022-05-02T19:42:31Z</time>
      </trkpt>
      <trkpt lat="42.89863" lon="2.53578">
        <ele>560</ele>
        <time>2022-05-02T19:42:33Z</time>
      </trkpt>
      <trkpt lat="42.89862" lon="2.5356">
        <ele>560</ele>
        <time>2022-05-02T19:42:35Z</time>
      </trkpt>
      <trkpt lat="42.89869" lon="2.53474">
        <ele>569</ele>
        <time>2022-05-02T19:42:47Z</time>
      </trkpt>
      <trkpt lat="42.89866" lon="2.53454">
        <ele>570</ele>
        <time>2022-05-02T19:42:49Z</time>
      </trkpt>
      <trkpt lat="42.89861" lon="2.53439">
        <ele>569</ele>
        <time>2022-05-02T19:42:51Z</time>
      </trkpt>
      <trkpt lat="42.89851" lon="2.53426">
        <ele>567</ele>
        <time>2022-05-02T19:42:54Z</time>
      </trkpt>
      <trkpt lat="42.89823" lon="2.53404">
        <ele>564</ele>
        <time>2022-05-02T19:43:00Z</time>
      </trkpt>
      <trkpt lat="42.89809" lon="2.534">
        <ele>565</ele>
        <time>2022-05-02T19:43:02Z</time>
      </trkpt>
      <trkpt lat="42.8979" lon="2.53403">
        <ele>564</ele>
        <time>2022-05-02T19:43:06Z</time>
      </trkpt>
      <trkpt lat="42.8976" lon="2.53417">
        <ele>559</ele>
        <time>2022-05-02T19:43:11Z</time>
      </trkpt>
      <trkpt lat="42.89721" lon="2.53444">
        <ele>556</ele>
        <time>2022-05-02T19:43:19Z</time>
      </trkpt>
      <trkpt lat="42.89699" lon="2.53463">
        <ele>555</ele>
        <time>2022-05-02T19:43:24Z</time>
      </trkpt>
      <trkpt lat="42.8962" lon="2.53548">
        <ele>544</ele>
        <time>2022-05-02T19:43:42Z</time>
      </trkpt>
      <trkpt lat="42.89607" lon="2.53558">
        <ele>543</ele>
        <time>2022-05-02T19:43:44Z</time>
      </trkpt>
      <trkpt lat="42.89594" lon="2.53564">
        <ele>544</ele>
        <time>2022-05-02T19:43:47Z</time>
      </trkpt>
      <trkpt lat="42.89571" lon="2.53571">
        <ele>542</ele>
        <time>2022-05-02T19:43:51Z</time>
      </trkpt>
      <trkpt lat="42.89557" lon="2.53571">
        <ele>540</ele>
        <time>2022-05-02T19:43:53Z</time>
      </trkpt>
      <trkpt lat="42.89543" lon="2.53564">
        <ele>539</ele>
        <time>2022-05-02T19:43:56Z</time>
      </trkpt>
      <trkpt lat="42.89531" lon="2.53553">
        <ele>538</ele>
        <time>2022-05-02T19:43:59Z</time>
      </trkpt>
      <trkpt lat="42.89525" lon="2.53542">
        <ele>537</ele>
        <time>2022-05-02T19:44:00Z</time>
      </trkpt>
      <trkpt lat="42.89521" lon="2.53526">
        <ele>538</ele>
        <time>2022-05-02T19:44:03Z</time>
      </trkpt>
      <trkpt lat="42.89517" lon="2.5337">
        <ele>547</ele>
        <time>2022-05-02T19:44:23Z</time>
      </trkpt>
      <trkpt lat="42.89515" lon="2.53356">
        <ele>548</ele>
        <time>2022-05-02T19:44:25Z</time>
      </trkpt>
      <trkpt lat="42.89511" lon="2.53345">
        <ele>548</ele>
        <time>2022-05-02T19:44:26Z</time>
      </trkpt>
      <trkpt lat="42.89508" lon="2.53338">
        <ele>547</ele>
        <time>2022-05-02T19:44:27Z</time>
      </trkpt>
      <trkpt lat="42.89494" lon="2.53329">
        <ele>547</ele>
        <time>2022-05-02T19:44:30Z</time>
      </trkpt>
      <trkpt lat="42.89468" lon="2.53326">
        <ele>547</ele>
        <time>2022-05-02T19:44:35Z</time>
      </trkpt>
      <trkpt lat="42.89456" lon="2.53334">
        <ele>545</ele>
        <time>2022-05-02T19:44:37Z</time>
      </trkpt>
      <trkpt lat="42.89434" lon="2.53364">
        <ele>539</ele>
        <time>2022-05-02T19:44:43Z</time>
      </trkpt>
      <trkpt lat="42.89425" lon="2.53371">
        <ele>537</ele>
        <time>2022-05-02T19:44:45Z</time>
      </trkpt>
      <trkpt lat="42.89402" lon="2.53382">
        <ele>533</ele>
        <time>2022-05-02T19:44:49Z</time>
      </trkpt>
      <trkpt lat="42.89384" lon="2.53386">
        <ele>531</ele>
        <time>2022-05-02T19:44:52Z</time>
      </trkpt>
      <trkpt lat="42.8936" lon="2.53384">
        <ele>530</ele>
        <time>2022-05-02T19:44:56Z</time>
      </trkpt>
      <trkpt lat="42.89329" lon="2.53369">
        <ele>529</ele>
        <time>2022-05-02T19:45:02Z</time>
      </trkpt>
      <trkpt lat="42.89322" lon="2.53359">
        <ele>529</ele>
        <time>2022-05-02T19:45:04Z</time>
      </trkpt>
      <trkpt lat="42.89314" lon="2.53345">
        <ele>529</ele>
        <time>2022-05-02T19:45:06Z</time>
      </trkpt>
      <trkpt lat="42.89306" lon="2.53329">
        <ele>529</ele>
        <time>2022-05-02T19:45:09Z</time>
      </trkpt>
      <trkpt lat="42.89299" lon="2.5331">
        <ele>530</ele>
        <time>2022-05-02T19:45:12Z</time>
      </trkpt>
      <trkpt lat="42.89292" lon="2.53254">
        <ele>536</ele>
        <time>2022-05-02T19:45:19Z</time>
      </trkpt>
      <trkpt lat="42.89288" lon="2.53245">
        <ele>536</ele>
        <time>2022-05-02T19:45:20Z</time>
      </trkpt>
      <trkpt lat="42.89279" lon="2.53236">
        <ele>536</ele>
        <time>2022-05-02T19:45:22Z</time>
      </trkpt>
      <trkpt lat="42.89272" lon="2.53234">
        <ele>536</ele>
        <time>2022-05-02T19:45:24Z</time>
      </trkpt>
      <trkpt lat="42.89263" lon="2.53235">
        <ele>534</ele>
        <time>2022-05-02T19:45:25Z</time>
      </trkpt>
      <trkpt lat="42.89208" lon="2.53253">
        <ele>527</ele>
        <time>2022-05-02T19:45:35Z</time>
      </trkpt>
      <trkpt lat="42.89188" lon="2.53255">
        <ele>525</ele>
        <time>2022-05-02T19:45:39Z</time>
      </trkpt>
      <trkpt lat="42.89174" lon="2.53253">
        <ele>525</ele>
        <time>2022-05-02T19:45:41Z</time>
      </trkpt>
      <trkpt lat="42.89134" lon="2.53229">
        <ele>523</ele>
        <time>2022-05-02T19:45:49Z</time>
      </trkpt>
      <trkpt lat="42.89076" lon="2.53186">
        <ele>522</ele>
        <time>2022-05-02T19:46:01Z</time>
      </trkpt>
      <trkpt lat="42.89064" lon="2.53182">
        <ele>522</ele>
        <time>2022-05-02T19:46:03Z</time>
      </trkpt>
      <trkpt lat="42.89028" lon="2.53179">
        <ele>518</ele>
        <time>2022-05-02T19:46:10Z</time>
      </trkpt>
      <trkpt lat="42.88998" lon="2.53167">
        <ele>516</ele>
        <time>2022-05-02T19:46:15Z</time>
      </trkpt>
      <trkpt lat="42.88957" lon="2.53164">
        <ele>510</ele>
        <time>2022-05-02T19:46:22Z</time>
      </trkpt>
      <trkpt lat="42.88949" lon="2.53162">
        <ele>509</ele>
        <time>2022-05-02T19:46:24Z</time>
      </trkpt>
      <trkpt lat="42.88939" lon="2.53155">
        <ele>508</ele>
        <time>2022-05-02T19:46:26Z</time>
      </trkpt>
      <trkpt lat="42.88924" lon="2.53139">
        <ele>507</ele>
        <time>2022-05-02T19:46:29Z</time>
      </trkpt>
      <trkpt lat="42.88918" lon="2.53127">
        <ele>507</ele>
        <time>2022-05-02T19:46:31Z</time>
      </trkpt>
      <trkpt lat="42.88916" lon="2.53112">
        <ele>508</ele>
        <time>2022-05-02T19:46:33Z</time>
      </trkpt>
      <trkpt lat="42.88918" lon="2.53096">
        <ele>509</ele>
        <time>2022-05-02T19:46:35Z</time>
      </trkpt>
      <trkpt lat="42.88922" lon="2.53078">
        <ele>511</ele>
        <time>2022-05-02T19:46:38Z</time>
      </trkpt>
      <trkpt lat="42.88932" lon="2.53054">
        <ele>512</ele>
        <time>2022-05-02T19:46:41Z</time>
      </trkpt>
      <trkpt lat="42.88934" lon="2.53041">
        <ele>512</ele>
        <time>2022-05-02T19:46:43Z</time>
      </trkpt>
      <trkpt lat="42.88934" lon="2.53018">
        <ele>511</ele>
        <time>2022-05-02T19:46:46Z</time>
      </trkpt>
      <trkpt lat="42.88932" lon="2.53007">
        <ele>511</ele>
        <time>2022-05-02T19:46:48Z</time>
      </trkpt>
      <trkpt lat="42.88927" lon="2.52996">
        <ele>510</ele>
        <time>2022-05-02T19:46:49Z</time>
      </trkpt>
      <trkpt lat="42.88903" lon="2.52955">
        <ele>507</ele>
        <time>2022-05-02T19:46:56Z</time>
      </trkpt>
      <trkpt lat="42.88858" lon="2.52857">
        <ele>503</ele>
        <time>2022-05-02T19:47:11Z</time>
      </trkpt>
      <trkpt lat="42.88828" lon="2.52774">
        <ele>501</ele>
        <time>2022-05-02T19:47:23Z</time>
      </trkpt>
      <trkpt lat="42.88821" lon="2.52757">
        <ele>500</ele>
        <time>2022-05-02T19:47:26Z</time>
      </trkpt>
      <trkpt lat="42.88809" lon="2.52735">
        <ele>500</ele>
        <time>2022-05-02T19:47:29Z</time>
      </trkpt>
      <trkpt lat="42.88764" lon="2.5266">
        <ele>496</ele>
        <time>2022-05-02T19:47:42Z</time>
      </trkpt>
      <trkpt lat="42.88728" lon="2.52589">
        <ele>493</ele>
        <time>2022-05-02T19:47:53Z</time>
      </trkpt>
      <trkpt lat="42.88717" lon="2.52557">
        <ele>490</ele>
        <time>2022-05-02T19:47:58Z</time>
      </trkpt>
      <trkpt lat="42.88716" lon="2.52544">
        <ele>489</ele>
        <time>2022-05-02T19:48:00Z</time>
      </trkpt>
      <trkpt lat="42.88723" lon="2.52488">
        <ele>489</ele>
        <time>2022-05-02T19:48:07Z</time>
      </trkpt>
      <trkpt lat="42.88738" lon="2.52421">
        <ele>487</ele>
        <time>2022-05-02T19:48:16Z</time>
      </trkpt>
      <trkpt lat="42.88734" lon="2.52392">
        <ele>483</ele>
        <time>2022-05-02T19:48:20Z</time>
      </trkpt>
      <trkpt lat="42.88734" lon="2.52376">
        <ele>481</ele>
        <time>2022-05-02T19:48:22Z</time>
      </trkpt>
      <trkpt lat="42.88735" lon="2.52357">
        <ele>480</ele>
        <time>2022-05-02T19:48:24Z</time>
      </trkpt>
      <trkpt lat="42.88737" lon="2.52346">
        <ele>480</ele>
        <time>2022-05-02T19:48:26Z</time>
      </trkpt>
      <trkpt lat="42.88746" lon="2.52318">
        <ele>483</ele>
        <time>2022-05-02T19:48:30Z</time>
      </trkpt>
      <trkpt lat="42.88747" lon="2.52307">
        <ele>483</ele>
        <time>2022-05-02T19:48:31Z</time>
      </trkpt>
      <trkpt lat="42.88747" lon="2.52296">
        <ele>483</ele>
        <time>2022-05-02T19:48:33Z</time>
      </trkpt>
      <trkpt lat="42.88742" lon="2.52281">
        <ele>481</ele>
        <time>2022-05-02T19:48:35Z</time>
      </trkpt>
      <trkpt lat="42.88741" lon="2.52269">
        <ele>480</ele>
        <time>2022-05-02T19:48:37Z</time>
      </trkpt>
      <trkpt lat="42.88742" lon="2.52256">
        <ele>480</ele>
        <time>2022-05-02T19:48:38Z</time>
      </trkpt>
      <trkpt lat="42.88751" lon="2.52225">
        <ele>478</ele>
        <time>2022-05-02T19:48:43Z</time>
      </trkpt>
      <trkpt lat="42.88757" lon="2.52212">
        <ele>476</ele>
        <time>2022-05-02T19:48:45Z</time>
      </trkpt>
      <trkpt lat="42.88766" lon="2.52203">
        <ele>474</ele>
        <time>2022-05-02T19:48:47Z</time>
      </trkpt>
      <trkpt lat="42.88775" lon="2.52199">
        <ele>473</ele>
        <time>2022-05-02T19:48:48Z</time>
      </trkpt>
      <trkpt lat="42.88785" lon="2.52201">
        <ele>474</ele>
        <time>2022-05-02T19:48:50Z</time>
      </trkpt>
      <trkpt lat="42.88817" lon="2.52215">
        <ele>477</ele>
        <time>2022-05-02T19:48:56Z</time>
      </trkpt>
      <trkpt lat="42.88834" lon="2.52229">
        <ele>481</ele>
        <time>2022-05-02T19:49:00Z</time>
      </trkpt>
      <trkpt lat="42.88842" lon="2.52231">
        <ele>481</ele>
        <time>2022-05-02T19:49:01Z</time>
      </trkpt>
      <trkpt lat="42.8886" lon="2.52232">
        <ele>480</ele>
        <time>2022-05-02T19:49:04Z</time>
      </trkpt>
      <trkpt lat="42.88913" lon="2.52241">
        <ele>479</ele>
        <time>2022-05-02T19:49:14Z</time>
      </trkpt>
      <trkpt lat="42.8894" lon="2.52241">
        <ele>480</ele>
        <time>2022-05-02T19:49:19Z</time>
      </trkpt>
      <trkpt lat="42.89024" lon="2.52221">
        <ele>483</ele>
        <time>2022-05-02T19:49:34Z</time>
      </trkpt>
      <trkpt lat="42.8903" lon="2.52217">
        <ele>483</ele>
        <time>2022-05-02T19:49:35Z</time>
      </trkpt>
      <trkpt lat="42.89035" lon="2.52207">
        <ele>484</ele>
        <time>2022-05-02T19:49:36Z</time>
      </trkpt>
      <trkpt lat="42.89036" lon="2.52198">
        <ele>484</ele>
        <time>2022-05-02T19:49:38Z</time>
      </trkpt>
      <trkpt lat="42.89034" lon="2.52192">
        <ele>483</ele>
        <time>2022-05-02T19:49:39Z</time>
      </trkpt>
      <trkpt lat="42.89021" lon="2.5218">
        <ele>480</ele>
        <time>2022-05-02T19:49:41Z</time>
      </trkpt>
      <trkpt lat="42.89005" lon="2.52172">
        <ele>477</ele>
        <time>2022-05-02T19:49:44Z</time>
      </trkpt>
      <trkpt lat="42.88968" lon="2.52164">
        <ele>471</ele>
        <time>2022-05-02T19:49:51Z</time>
      </trkpt>
      <trkpt lat="42.88963" lon="2.52157">
        <ele>470</ele>
        <time>2022-05-02T19:49:52Z</time>
      </trkpt>
      <trkpt lat="42.88962" lon="2.52144">
        <ele>470</ele>
        <time>2022-05-02T19:49:54Z</time>
      </trkpt>
      <trkpt lat="42.88964" lon="2.52131">
        <ele>469</ele>
        <time>2022-05-02T19:49:56Z</time>
      </trkpt>
      <trkpt lat="42.8897" lon="2.52119">
        <ele>470</ele>
        <time>2022-05-02T19:49:58Z</time>
      </trkpt>
      <trkpt lat="42.89011" lon="2.52071">
        <ele>474</ele>
        <time>2022-05-02T19:50:07Z</time>
      </trkpt>
      <trkpt lat="42.89014" lon="2.52063">
        <ele>475</ele>
        <time>2022-05-02T19:50:08Z</time>
      </trkpt>
      <trkpt lat="42.89014" lon="2.52051">
        <ele>475</ele>
        <time>2022-05-02T19:50:10Z</time>
      </trkpt>
      <trkpt lat="42.89009" lon="2.52037">
        <ele>474</ele>
        <time>2022-05-02T19:50:12Z</time>
      </trkpt>
      <trkpt lat="42.89002" lon="2.52028">
        <ele>474</ele>
        <time>2022-05-02T19:50:14Z</time>
      </trkpt>
      <trkpt lat="42.88994" lon="2.52024">
        <ele>474</ele>
        <time>2022-05-02T19:50:15Z</time>
      </trkpt>
      <trkpt lat="42.88986" lon="2.52026">
        <ele>475</ele>
        <time>2022-05-02T19:50:17Z</time>
      </trkpt>
      <trkpt lat="42.88917" lon="2.52064">
        <ele>470</ele>
        <time>2022-05-02T19:50:30Z</time>
      </trkpt>
      <trkpt lat="42.88849" lon="2.52084">
        <ele>467</ele>
        <time>2022-05-02T19:50:42Z</time>
      </trkpt>
      <trkpt lat="42.88812" lon="2.52088">
        <ele>467</ele>
        <time>2022-05-02T19:50:49Z</time>
      </trkpt>
      <trkpt lat="42.8867" lon="2.52094">
        <ele>463</ele>
        <time>2022-05-02T19:51:14Z</time>
      </trkpt>
      <trkpt lat="42.88641" lon="2.52099">
        <ele>464</ele>
        <time>2022-05-02T19:51:19Z</time>
      </trkpt>
      <trkpt lat="42.88617" lon="2.52109">
        <ele>463</ele>
        <time>2022-05-02T19:51:24Z</time>
      </trkpt>
      <trkpt lat="42.88597" lon="2.52122">
        <ele>462</ele>
        <time>2022-05-02T19:51:28Z</time>
      </trkpt>
      <trkpt lat="42.88578" lon="2.52146">
        <ele>457</ele>
        <time>2022-05-02T19:51:32Z</time>
      </trkpt>
      <trkpt lat="42.88572" lon="2.52159">
        <ele>454</ele>
        <time>2022-05-02T19:51:34Z</time>
      </trkpt>
      <trkpt lat="42.88569" lon="2.52172">
        <ele>452</ele>
        <time>2022-05-02T19:51:36Z</time>
      </trkpt>
      <trkpt lat="42.8856" lon="2.52236">
        <ele>445</ele>
        <time>2022-05-02T19:51:45Z</time>
      </trkpt>
      <trkpt lat="42.88557" lon="2.52245">
        <ele>444</ele>
        <time>2022-05-02T19:51:46Z</time>
      </trkpt>
      <trkpt lat="42.88552" lon="2.52251">
        <ele>443</ele>
        <time>2022-05-02T19:51:47Z</time>
      </trkpt>
      <trkpt lat="42.88539" lon="2.52251">
        <ele>443</ele>
        <time>2022-05-02T19:51:49Z</time>
      </trkpt>
      <trkpt lat="42.88531" lon="2.52247">
        <ele>444</ele>
        <time>2022-05-02T19:51:51Z</time>
      </trkpt>
      <trkpt lat="42.88511" lon="2.52228">
        <ele>446</ele>
        <time>2022-05-02T19:51:55Z</time>
      </trkpt>
      <trkpt lat="42.88502" lon="2.5221">
        <ele>448</ele>
        <time>2022-05-02T19:51:58Z</time>
      </trkpt>
      <trkpt lat="42.88466" lon="2.52067">
        <ele>444</ele>
        <time>2022-05-02T19:52:18Z</time>
      </trkpt>
      <trkpt lat="42.88465" lon="2.52055">
        <ele>443</ele>
        <time>2022-05-02T19:52:19Z</time>
      </trkpt>
      <trkpt lat="42.88467" lon="2.52042">
        <ele>443</ele>
        <time>2022-05-02T19:52:21Z</time>
      </trkpt>
      <trkpt lat="42.88471" lon="2.52029">
        <ele>443</ele>
        <time>2022-05-02T19:52:23Z</time>
      </trkpt>
      <trkpt lat="42.88486" lon="2.52001">
        <ele>445</ele>
        <time>2022-05-02T19:52:28Z</time>
      </trkpt>
      <trkpt lat="42.88497" lon="2.51984">
        <ele>445</ele>
        <time>2022-05-02T19:52:30Z</time>
      </trkpt>
      <trkpt lat="42.8852" lon="2.51959">
        <ele>447</ele>
        <time>2022-05-02T19:52:36Z</time>
      </trkpt>
      <trkpt lat="42.88565" lon="2.51917">
        <ele>449</ele>
        <time>2022-05-02T19:52:45Z</time>
      </trkpt>
      <trkpt lat="42.88612" lon="2.51854">
        <ele>447</ele>
        <time>2022-05-02T19:52:57Z</time>
      </trkpt>
      <trkpt lat="42.88624" lon="2.51848">
        <ele>447</ele>
        <time>2022-05-02T19:52:59Z</time>
      </trkpt>
      <trkpt lat="42.8866" lon="2.51842">
        <ele>450</ele>
        <time>2022-05-02T19:53:06Z</time>
      </trkpt>
      <trkpt lat="42.88674" lon="2.51837">
        <ele>451</ele>
        <time>2022-05-02T19:53:08Z</time>
      </trkpt>
      <trkpt lat="42.88685" lon="2.51832">
        <ele>453</ele>
        <time>2022-05-02T19:53:10Z</time>
      </trkpt>
      <trkpt lat="42.88692" lon="2.51826">
        <ele>454</ele>
        <time>2022-05-02T19:53:12Z</time>
      </trkpt>
      <trkpt lat="42.88718" lon="2.5179">
        <ele>456</ele>
        <time>2022-05-02T19:53:19Z</time>
      </trkpt>
      <trkpt lat="42.88744" lon="2.51738">
        <ele>454</ele>
        <time>2022-05-02T19:53:27Z</time>
      </trkpt>
      <trkpt lat="42.88749" lon="2.51727">
        <ele>455</ele>
        <time>2022-05-02T19:53:28Z</time>
      </trkpt>
      <trkpt lat="42.88754" lon="2.51726">
        <ele>456</ele>
        <time>2022-05-02T19:53:29Z</time>
      </trkpt>
      <trkpt lat="42.88798" lon="2.51689">
        <ele>465</ele>
        <time>2022-05-02T19:53:39Z</time>
      </trkpt>
      <trkpt lat="42.88806" lon="2.51679">
        <ele>466</ele>
        <time>2022-05-02T19:53:40Z</time>
      </trkpt>
      <trkpt lat="42.88811" lon="2.5167">
        <ele>466</ele>
        <time>2022-05-02T19:53:42Z</time>
      </trkpt>
      <trkpt lat="42.88843" lon="2.51601">
        <ele>471</ele>
        <time>2022-05-02T19:53:53Z</time>
      </trkpt>
      <trkpt lat="42.88854" lon="2.51588">
        <ele>472</ele>
        <time>2022-05-02T19:53:55Z</time>
      </trkpt>
      <trkpt lat="42.88885" lon="2.5158">
        <ele>475</ele>
        <time>2022-05-02T19:54:01Z</time>
      </trkpt>
      <trkpt lat="42.88912" lon="2.51566">
        <ele>478</ele>
        <time>2022-05-02T19:54:06Z</time>
      </trkpt>
      <trkpt lat="42.88963" lon="2.51522">
        <ele>483</ele>
        <time>2022-05-02T19:54:17Z</time>
      </trkpt>
      <trkpt lat="42.88971" lon="2.51518">
        <ele>483</ele>
        <time>2022-05-02T19:54:18Z</time>
      </trkpt>
      <trkpt lat="42.88986" lon="2.51519">
        <ele>482</ele>
        <time>2022-05-02T19:54:21Z</time>
      </trkpt>
      <trkpt lat="42.88993" lon="2.51524">
        <ele>482</ele>
        <time>2022-05-02T19:54:22Z</time>
      </trkpt>
      <trkpt lat="42.89018" lon="2.51553">
        <ele>484</ele>
        <time>2022-05-02T19:54:28Z</time>
      </trkpt>
      <trkpt lat="42.89034" lon="2.51564">
        <ele>484</ele>
        <time>2022-05-02T19:54:31Z</time>
      </trkpt>
      <trkpt lat="42.89043" lon="2.51567">
        <ele>484</ele>
        <time>2022-05-02T19:54:33Z</time>
      </trkpt>
      <trkpt lat="42.89053" lon="2.51568">
        <ele>484</ele>
        <time>2022-05-02T19:54:35Z</time>
      </trkpt>
      <trkpt lat="42.89067" lon="2.51562">
        <ele>484</ele>
        <time>2022-05-02T19:54:37Z</time>
      </trkpt>
      <trkpt lat="42.89084" lon="2.51552">
        <ele>484</ele>
        <time>2022-05-02T19:54:41Z</time>
      </trkpt>
      <trkpt lat="42.89094" lon="2.51541">
        <ele>485</ele>
        <time>2022-05-02T19:54:43Z</time>
      </trkpt>
      <trkpt lat="42.89125" lon="2.51505">
        <ele>485</ele>
        <time>2022-05-02T19:54:50Z</time>
      </trkpt>
      <trkpt lat="42.89133" lon="2.51493">
        <ele>486</ele>
        <time>2022-05-02T19:54:52Z</time>
      </trkpt>
      <trkpt lat="42.89143" lon="2.5147">
        <ele>488</ele>
        <time>2022-05-02T19:54:56Z</time>
      </trkpt>
      <trkpt lat="42.89192" lon="2.5134">
        <ele>501</ele>
        <time>2022-05-02T19:55:15Z</time>
      </trkpt>
      <trkpt lat="42.89203" lon="2.51319">
        <ele>503</ele>
        <time>2022-05-02T19:55:18Z</time>
      </trkpt>
      <trkpt lat="42.89216" lon="2.51301">
        <ele>505</ele>
        <time>2022-05-02T19:55:21Z</time>
      </trkpt>
      <trkpt lat="42.89233" lon="2.51287">
        <ele>505</ele>
        <time>2022-05-02T19:55:25Z</time>
      </trkpt>
      <trkpt lat="42.89248" lon="2.51268">
        <ele>505</ele>
        <time>2022-05-02T19:55:29Z</time>
      </trkpt>
      <trkpt lat="42.89274" lon="2.51218">
        <ele>512</ele>
        <time>2022-05-02T19:55:37Z</time>
      </trkpt>
      <trkpt lat="42.89282" lon="2.51195">
        <ele>513</ele>
        <time>2022-05-02T19:55:40Z</time>
      </trkpt>
      <trkpt lat="42.89303" lon="2.51171">
        <ele>514</ele>
        <time>2022-05-02T19:55:45Z</time>
      </trkpt>
      <trkpt lat="42.89326" lon="2.51149">
        <ele>514</ele>
        <time>2022-05-02T19:55:50Z</time>
      </trkpt>
      <trkpt lat="42.89331" lon="2.51141">
        <ele>513</ele>
        <time>2022-05-02T19:55:51Z</time>
      </trkpt>
      <trkpt lat="42.89333" lon="2.51133">
        <ele>513</ele>
        <time>2022-05-02T19:55:52Z</time>
      </trkpt>
      <trkpt lat="42.89332" lon="2.51126">
        <ele>513</ele>
        <time>2022-05-02T19:55:53Z</time>
      </trkpt>
      <trkpt lat="42.89324" lon="2.51107">
        <ele>515</ele>
        <time>2022-05-02T19:55:56Z</time>
      </trkpt>
      <trkpt lat="42.89324" lon="2.51093">
        <ele>515</ele>
        <time>2022-05-02T19:55:58Z</time>
      </trkpt>
      <trkpt lat="42.89327" lon="2.51077">
        <ele>515</ele>
        <time>2022-05-02T19:56:00Z</time>
      </trkpt>
      <trkpt lat="42.89329" lon="2.51053">
        <ele>516</ele>
        <time>2022-05-02T19:56:03Z</time>
      </trkpt>
      <trkpt lat="42.89329" lon="2.51035">
        <ele>517</ele>
        <time>2022-05-02T19:56:06Z</time>
      </trkpt>
      <trkpt lat="42.89325" lon="2.51007">
        <ele>519</ele>
        <time>2022-05-02T19:56:09Z</time>
      </trkpt>
      <trkpt lat="42.89322" lon="2.50997">
        <ele>520</ele>
        <time>2022-05-02T19:56:11Z</time>
      </trkpt>
      <trkpt lat="42.89307" lon="2.5097">
        <ele>526</ele>
        <time>2022-05-02T19:56:15Z</time>
      </trkpt>
      <trkpt lat="42.89306" lon="2.50962">
        <ele>527</ele>
        <time>2022-05-02T19:56:16Z</time>
      </trkpt>
      <trkpt lat="42.89308" lon="2.50952">
        <ele>528</ele>
        <time>2022-05-02T19:56:17Z</time>
      </trkpt>
      <trkpt lat="42.89314" lon="2.50942">
        <ele>528</ele>
        <time>2022-05-02T19:56:19Z</time>
      </trkpt>
      <trkpt lat="42.89321" lon="2.50938">
        <ele>528</ele>
        <time>2022-05-02T19:56:21Z</time>
      </trkpt>
      <trkpt lat="42.89331" lon="2.5094">
        <ele>527</ele>
        <time>2022-05-02T19:56:22Z</time>
      </trkpt>
      <trkpt lat="42.89336" lon="2.50944">
        <ele>528</ele>
        <time>2022-05-02T19:56:23Z</time>
      </trkpt>
      <trkpt lat="42.8934" lon="2.50951">
        <ele>528</ele>
        <time>2022-05-02T19:56:25Z</time>
      </trkpt>
      <trkpt lat="42.89366" lon="2.51016">
        <ele>529</ele>
        <time>2022-05-02T19:56:34Z</time>
      </trkpt>
      <trkpt lat="42.8937" lon="2.51028">
        <ele>529</ele>
        <time>2022-05-02T19:56:36Z</time>
      </trkpt>
      <trkpt lat="42.89375" lon="2.51059">
        <ele>528</ele>
        <time>2022-05-02T19:56:40Z</time>
      </trkpt>
      <trkpt lat="42.89378" lon="2.51068">
        <ele>528</ele>
        <time>2022-05-02T19:56:41Z</time>
      </trkpt>
      <trkpt lat="42.89382" lon="2.51073">
        <ele>528</ele>
        <time>2022-05-02T19:56:42Z</time>
      </trkpt>
      <trkpt lat="42.89411" lon="2.51083">
        <ele>535</ele>
        <time>2022-05-02T19:56:48Z</time>
      </trkpt>
      <trkpt lat="42.89417" lon="2.51088">
        <ele>537</ele>
        <time>2022-05-02T19:56:49Z</time>
      </trkpt>
      <trkpt lat="42.8942" lon="2.51096">
        <ele>539</ele>
        <time>2022-05-02T19:56:50Z</time>
      </trkpt>
      <trkpt lat="42.89421" lon="2.51106">
        <ele>540</ele>
        <time>2022-05-02T19:56:51Z</time>
      </trkpt>
      <trkpt lat="42.89418" lon="2.51115">
        <ele>539</ele>
        <time>2022-05-02T19:56:53Z</time>
      </trkpt>
      <trkpt lat="42.89386" lon="2.5117">
        <ele>532</ele>
        <time>2022-05-02T19:57:02Z</time>
      </trkpt>
      <trkpt lat="42.89378" lon="2.51187">
        <ele>531</ele>
        <time>2022-05-02T19:57:04Z</time>
      </trkpt>
      <trkpt lat="42.8936" lon="2.51244">
        <ele>533</ele>
        <time>2022-05-02T19:57:13Z</time>
      </trkpt>
      <trkpt lat="42.89352" lon="2.51275">
        <ele>533</ele>
        <time>2022-05-02T19:57:17Z</time>
      </trkpt>
      <trkpt lat="42.89351" lon="2.51289">
        <ele>534</ele>
        <time>2022-05-02T19:57:19Z</time>
      </trkpt>
      <trkpt lat="42.89351" lon="2.51304">
        <ele>535</ele>
        <time>2022-05-02T19:57:21Z</time>
      </trkpt>
      <trkpt lat="42.89355" lon="2.51332">
        <ele>539</ele>
        <time>2022-05-02T19:57:24Z</time>
      </trkpt>
      <trkpt lat="42.89359" lon="2.51347">
        <ele>539</ele>
        <time>2022-05-02T19:57:26Z</time>
      </trkpt>
      <trkpt lat="42.8941" lon="2.51445">
        <ele>542</ele>
        <time>2022-05-02T19:57:42Z</time>
      </trkpt>
      <trkpt lat="42.89415" lon="2.51449">
        <ele>543</ele>
        <time>2022-05-02T19:57:43Z</time>
      </trkpt>
      <trkpt lat="42.89421" lon="2.51451">
        <ele>542</ele>
        <time>2022-05-02T19:57:44Z</time>
      </trkpt>
      <trkpt lat="42.89426" lon="2.5145">
        <ele>542</ele>
        <time>2022-05-02T19:57:45Z</time>
      </trkpt>
      <trkpt lat="42.89433" lon="2.51445">
        <ele>542</ele>
        <time>2022-05-02T19:57:46Z</time>
      </trkpt>
      <trkpt lat="42.89494" lon="2.51373">
        <ele>556</ele>
        <time>2022-05-02T19:58:01Z</time>
      </trkpt>
      <trkpt lat="42.89514" lon="2.51354">
        <ele>561</ele>
        <time>2022-05-02T19:58:05Z</time>
      </trkpt>
      <trkpt lat="42.89558" lon="2.51324">
        <ele>569</ele>
        <time>2022-05-02T19:58:14Z</time>
      </trkpt>
      <trkpt lat="42.89589" lon="2.51315">
        <ele>573</ele>
        <time>2022-05-02T19:58:20Z</time>
      </trkpt>
      <trkpt lat="42.89601" lon="2.51315">
        <ele>574</ele>
        <time>2022-05-02T19:58:22Z</time>
      </trkpt>
      <trkpt lat="42.89645" lon="2.51322">
        <ele>574</ele>
        <time>2022-05-02T19:58:30Z</time>
      </trkpt>
      <trkpt lat="42.89667" lon="2.51322">
        <ele>575</ele>
        <time>2022-05-02T19:58:33Z</time>
      </trkpt>
      <trkpt lat="42.89681" lon="2.5132">
        <ele>575</ele>
        <time>2022-05-02T19:58:36Z</time>
      </trkpt>
      <trkpt lat="42.89706" lon="2.5131">
        <ele>578</ele>
        <time>2022-05-02T19:58:41Z</time>
      </trkpt>
      <trkpt lat="42.89855" lon="2.512">
        <ele>595</ele>
        <time>2022-05-02T19:59:11Z</time>
      </trkpt>
      <trkpt lat="42.89869" lon="2.5118">
        <ele>598</ele>
        <time>2022-05-02T19:59:14Z</time>
      </trkpt>
      <trkpt lat="42.89877" lon="2.51161">
        <ele>602</ele>
        <time>2022-05-02T19:59:17Z</time>
      </trkpt>
      <trkpt lat="42.89882" lon="2.51153">
        <ele>604</ele>
        <time>2022-05-02T19:59:19Z</time>
      </trkpt>
      <trkpt lat="42.89889" lon="2.51149">
        <ele>604</ele>
        <time>2022-05-02T19:59:20Z</time>
      </trkpt>
      <trkpt lat="42.89906" lon="2.51144">
        <ele>604</ele>
        <time>2022-05-02T19:59:23Z</time>
      </trkpt>
      <trkpt lat="42.8997" lon="2.51133">
        <ele>609</ele>
        <time>2022-05-02T19:59:35Z</time>
      </trkpt>
      <trkpt lat="42.90063" lon="2.51104">
        <ele>626</ele>
        <time>2022-05-02T19:59:52Z</time>
      </trkpt>
      <trkpt lat="42.90095" lon="2.51092">
        <ele>629</ele>
        <time>2022-05-02T19:59:57Z</time>
      </trkpt>
      <trkpt lat="42.90119" lon="2.51078">
        <ele>632</ele>
        <time>2022-05-02T20:00:02Z</time>
      </trkpt>
      <trkpt lat="42.90161" lon="2.51048">
        <ele>637</ele>
        <time>2022-05-02T20:00:10Z</time>
      </trkpt>
      <trkpt lat="42.90175" lon="2.51042">
        <ele>638</ele>
        <time>2022-05-02T20:00:13Z</time>
      </trkpt>
      <trkpt lat="42.90203" lon="2.51035">
        <ele>639</ele>
        <time>2022-05-02T20:00:18Z</time>
      </trkpt>
      <trkpt lat="42.9021" lon="2.51031">
        <ele>639</ele>
        <time>2022-05-02T20:00:20Z</time>
      </trkpt>
      <trkpt lat="42.90231" lon="2.51006">
        <ele>638</ele>
        <time>2022-05-02T20:00:24Z</time>
      </trkpt>
      <trkpt lat="42.90238" lon="2.50996">
        <ele>638</ele>
        <time>2022-05-02T20:00:26Z</time>
      </trkpt>
      <trkpt lat="42.90256" lon="2.5096">
        <ele>643</ele>
        <time>2022-05-02T20:00:32Z</time>
      </trkpt>
      <trkpt lat="42.9026" lon="2.50945">
        <ele>645</ele>
        <time>2022-05-02T20:00:34Z</time>
      </trkpt>
      <trkpt lat="42.90262" lon="2.50932">
        <ele>647</ele>
        <time>2022-05-02T20:00:36Z</time>
      </trkpt>
      <trkpt lat="42.90262" lon="2.50921">
        <ele>648</ele>
        <time>2022-05-02T20:00:37Z</time>
      </trkpt>
      <trkpt lat="42.90259" lon="2.50873">
        <ele>656</ele>
        <time>2022-05-02T20:00:43Z</time>
      </trkpt>
      <trkpt lat="42.90261" lon="2.50865">
        <ele>658</ele>
        <time>2022-05-02T20:00:45Z</time>
      </trkpt>
      <trkpt lat="42.90264" lon="2.50859">
        <ele>659</ele>
        <time>2022-05-02T20:00:46Z</time>
      </trkpt>
      <trkpt lat="42.90276" lon="2.50848">
        <ele>660</ele>
        <time>2022-05-02T20:00:48Z</time>
      </trkpt>
      <trkpt lat="42.90286" lon="2.50844">
        <ele>660</ele>
        <time>2022-05-02T20:00:50Z</time>
      </trkpt>
      <trkpt lat="42.90323" lon="2.50838">
        <ele>658</ele>
        <time>2022-05-02T20:00:57Z</time>
      </trkpt>
      <trkpt lat="42.90334" lon="2.50834">
        <ele>658</ele>
        <time>2022-05-02T20:00:59Z</time>
      </trkpt>
      <trkpt lat="42.90354" lon="2.50822">
        <ele>664</ele>
        <time>2022-05-02T20:01:02Z</time>
      </trkpt>
      <trkpt lat="42.90368" lon="2.50807">
        <ele>669</ele>
        <time>2022-05-02T20:01:06Z</time>
      </trkpt>
      <trkpt lat="42.9038" lon="2.50792">
        <ele>672</ele>
        <time>2022-05-02T20:01:09Z</time>
      </trkpt>
      <trkpt lat="42.90421" lon="2.50715">
        <ele>678</ele>
        <time>2022-05-02T20:01:21Z</time>
      </trkpt>
      <trkpt lat="42.90448" lon="2.50696">
        <ele>683</ele>
        <time>2022-05-02T20:01:26Z</time>
      </trkpt>
      <trkpt lat="42.90454" lon="2.50689">
        <ele>683</ele>
        <time>2022-05-02T20:01:28Z</time>
      </trkpt>
      <trkpt lat="42.90491" lon="2.50629">
        <ele>683</ele>
        <time>2022-05-02T20:01:38Z</time>
      </trkpt>
      <trkpt lat="42.90505" lon="2.50613">
        <ele>682</ele>
        <time>2022-05-02T20:01:41Z</time>
      </trkpt>
      <trkpt lat="42.90519" lon="2.50599">
        <ele>682</ele>
        <time>2022-05-02T20:01:44Z</time>
      </trkpt>
      <trkpt lat="42.9054" lon="2.50586">
        <ele>681</ele>
        <time>2022-05-02T20:01:48Z</time>
      </trkpt>
      <trkpt lat="42.90556" lon="2.50579">
        <ele>682</ele>
        <time>2022-05-02T20:01:51Z</time>
      </trkpt>
      <trkpt lat="42.90577" lon="2.50577">
        <ele>681</ele>
        <time>2022-05-02T20:01:55Z</time>
      </trkpt>
      <trkpt lat="42.9059" lon="2.50579">
        <ele>682</ele>
        <time>2022-05-02T20:01:57Z</time>
      </trkpt>
      <trkpt lat="42.90608" lon="2.50586">
        <ele>683</ele>
        <time>2022-05-02T20:02:01Z</time>
      </trkpt>
      <trkpt lat="42.90624" lon="2.50599">
        <ele>685</ele>
        <time>2022-05-02T20:02:04Z</time>
      </trkpt>
      <trkpt lat="42.90635" lon="2.50613">
        <ele>687</ele>
        <time>2022-05-02T20:02:07Z</time>
      </trkpt>
      <trkpt lat="42.90662" lon="2.50652">
        <ele>687</ele>
        <time>2022-05-02T20:02:14Z</time>
      </trkpt>
      <trkpt lat="42.90673" lon="2.50679">
        <ele>688</ele>
        <time>2022-05-02T20:02:18Z</time>
      </trkpt>
      <trkpt lat="42.90703" lon="2.50761">
        <ele>695</ele>
        <time>2022-05-02T20:02:30Z</time>
      </trkpt>
      <trkpt lat="42.90729" lon="2.50842">
        <ele>700</ele>
        <time>2022-05-02T20:02:41Z</time>
      </trkpt>
      <trkpt lat="42.90744" lon="2.5092">
        <ele>700</ele>
        <time>2022-05-02T20:02:52Z</time>
      </trkpt>
      <trkpt lat="42.90748" lon="2.50932">
        <ele>700</ele>
        <time>2022-05-02T20:02:54Z</time>
      </trkpt>
      <trkpt lat="42.90753" lon="2.5094">
        <ele>700</ele>
        <time>2022-05-02T20:02:55Z</time>
      </trkpt>
      <trkpt lat="42.90761" lon="2.50944">
        <ele>700</ele>
        <time>2022-05-02T20:02:56Z</time>
      </trkpt>
      <trkpt lat="42.90767" lon="2.50941">
        <ele>701</ele>
        <time>2022-05-02T20:02:58Z</time>
      </trkpt>
      <trkpt lat="42.90772" lon="2.50934">
        <ele>701</ele>
        <time>2022-05-02T20:02:59Z</time>
      </trkpt>
      <trkpt lat="42.90776" lon="2.50921">
        <ele>701</ele>
        <time>2022-05-02T20:03:01Z</time>
      </trkpt>
      <trkpt lat="42.90777" lon="2.50906">
        <ele>701</ele>
        <time>2022-05-02T20:03:03Z</time>
      </trkpt>
      <trkpt lat="42.90775" lon="2.50893">
        <ele>701</ele>
        <time>2022-05-02T20:03:04Z</time>
      </trkpt>
      <trkpt lat="42.90767" lon="2.50856">
        <ele>700</ele>
        <time>2022-05-02T20:03:09Z</time>
      </trkpt>
      <trkpt lat="42.90764" lon="2.50839">
        <ele>700</ele>
        <time>2022-05-02T20:03:12Z</time>
      </trkpt>
      <trkpt lat="42.90763" lon="2.5082">
        <ele>699</ele>
        <time>2022-05-02T20:03:14Z</time>
      </trkpt>
      <trkpt lat="42.90763" lon="2.50771">
        <ele>697</ele>
        <time>2022-05-02T20:03:21Z</time>
      </trkpt>
      <trkpt lat="42.90754" lon="2.50723">
        <ele>697</ele>
        <time>2022-05-02T20:03:27Z</time>
      </trkpt>
      <trkpt lat="42.90755" lon="2.50711">
        <ele>697</ele>
        <time>2022-05-02T20:03:29Z</time>
      </trkpt>
      <trkpt lat="42.90758" lon="2.50704">
        <ele>697</ele>
        <time>2022-05-02T20:03:30Z</time>
      </trkpt>
      <trkpt lat="42.90765" lon="2.50701">
        <ele>697</ele>
        <time>2022-05-02T20:03:31Z</time>
      </trkpt>
      <trkpt lat="42.90772" lon="2.50702">
        <ele>697</ele>
        <time>2022-05-02T20:03:32Z</time>
      </trkpt>
      <trkpt lat="42.90779" lon="2.50708">
        <ele>697</ele>
        <time>2022-05-02T20:03:34Z</time>
      </trkpt>
      <trkpt lat="42.90783" lon="2.50722">
        <ele>697</ele>
        <time>2022-05-02T20:03:36Z</time>
      </trkpt>
      <trkpt lat="42.90786" lon="2.50735">
        <ele>697</ele>
        <time>2022-05-02T20:03:37Z</time>
      </trkpt>
      <trkpt lat="42.90788" lon="2.50744">
        <ele>697</ele>
        <time>2022-05-02T20:03:39Z</time>
      </trkpt>
      <trkpt lat="42.90797" lon="2.50759">
        <ele>698</ele>
        <time>2022-05-02T20:03:41Z</time>
      </trkpt>
      <trkpt lat="42.9081" lon="2.50771">
        <ele>700</ele>
        <time>2022-05-02T20:03:44Z</time>
      </trkpt>
      <trkpt lat="42.90831" lon="2.50778">
        <ele>702</ele>
        <time>2022-05-02T20:03:48Z</time>
      </trkpt>
      <trkpt lat="42.9087" lon="2.50786">
        <ele>697</ele>
        <time>2022-05-02T20:03:55Z</time>
      </trkpt>
      <trkpt lat="42.9088" lon="2.5079">
        <ele>695</ele>
        <time>2022-05-02T20:03:57Z</time>
      </trkpt>
      <trkpt lat="42.90888" lon="2.50795">
        <ele>694</ele>
        <time>2022-05-02T20:03:58Z</time>
      </trkpt>
      <trkpt lat="42.909" lon="2.50809">
        <ele>693</ele>
        <time>2022-05-02T20:04:01Z</time>
      </trkpt>
      <trkpt lat="42.90904" lon="2.50817">
        <ele>693</ele>
        <time>2022-05-02T20:04:02Z</time>
      </trkpt>
      <trkpt lat="42.90906" lon="2.50831">
        <ele>694</ele>
        <time>2022-05-02T20:04:04Z</time>
      </trkpt>
      <trkpt lat="42.90906" lon="2.50846">
        <ele>694</ele>
        <time>2022-05-02T20:04:06Z</time>
      </trkpt>
      <trkpt lat="42.90905" lon="2.5086">
        <ele>694</ele>
        <time>2022-05-02T20:04:08Z</time>
      </trkpt>
      <trkpt lat="42.90895" lon="2.50904">
        <ele>695</ele>
        <time>2022-05-02T20:04:14Z</time>
      </trkpt>
      <trkpt lat="42.90894" lon="2.5093">
        <ele>697</ele>
        <time>2022-05-02T20:04:17Z</time>
      </trkpt>
      <trkpt lat="42.90897" lon="2.50943">
        <ele>699</ele>
        <time>2022-05-02T20:04:19Z</time>
      </trkpt>
      <trkpt lat="42.90906" lon="2.50959">
        <ele>701</ele>
        <time>2022-05-02T20:04:22Z</time>
      </trkpt>
      <trkpt lat="42.90913" lon="2.50962">
        <ele>701</ele>
        <time>2022-05-02T20:04:23Z</time>
      </trkpt>
      <trkpt lat="42.9092" lon="2.50961">
        <ele>701</ele>
        <time>2022-05-02T20:04:24Z</time>
      </trkpt>
      <trkpt lat="42.90926" lon="2.50958">
        <ele>700</ele>
        <time>2022-05-02T20:04:25Z</time>
      </trkpt>
      <trkpt lat="42.90945" lon="2.50943">
        <ele>696</ele>
        <time>2022-05-02T20:04:29Z</time>
      </trkpt>
      <trkpt lat="42.90974" lon="2.50922">
        <ele>689</ele>
        <time>2022-05-02T20:04:35Z</time>
      </trkpt>
      <trkpt lat="42.91031" lon="2.5089">
        <ele>684</ele>
        <time>2022-05-02T20:04:46Z</time>
      </trkpt>
      <trkpt lat="42.91052" lon="2.50873">
        <ele>683</ele>
        <time>2022-05-02T20:04:50Z</time>
      </trkpt>
      <trkpt lat="42.91088" lon="2.50838">
        <ele>678</ele>
        <time>2022-05-02T20:04:58Z</time>
      </trkpt>
      <trkpt lat="42.91118" lon="2.50818">
        <ele>678</ele>
        <time>2022-05-02T20:05:04Z</time>
      </trkpt>
      <trkpt lat="42.91127" lon="2.50813">
        <ele>678</ele>
        <time>2022-05-02T20:05:06Z</time>
      </trkpt>
      <trkpt lat="42.91148" lon="2.50803">
        <ele>678</ele>
        <time>2022-05-02T20:05:10Z</time>
      </trkpt>
      <trkpt lat="42.91153" lon="2.50795">
        <ele>678</ele>
        <time>2022-05-02T20:05:11Z</time>
      </trkpt>
      <trkpt lat="42.91154" lon="2.50786">
        <ele>677</ele>
        <time>2022-05-02T20:05:13Z</time>
      </trkpt>
      <trkpt lat="42.91152" lon="2.50748">
        <ele>672</ele>
        <time>2022-05-02T20:05:17Z</time>
      </trkpt>
      <trkpt lat="42.91153" lon="2.50725">
        <ele>669</ele>
        <time>2022-05-02T20:05:21Z</time>
      </trkpt>
      <trkpt lat="42.91157" lon="2.50716">
        <ele>668</ele>
        <time>2022-05-02T20:05:22Z</time>
      </trkpt>
      <trkpt lat="42.91165" lon="2.50704">
        <ele>666</ele>
        <time>2022-05-02T20:05:24Z</time>
      </trkpt>
      <trkpt lat="42.91178" lon="2.50691">
        <ele>665</ele>
        <time>2022-05-02T20:05:27Z</time>
      </trkpt>
      <trkpt lat="42.91195" lon="2.5068">
        <ele>663</ele>
        <time>2022-05-02T20:05:30Z</time>
      </trkpt>
      <trkpt lat="42.91209" lon="2.50673">
        <ele>662</ele>
        <time>2022-05-02T20:05:33Z</time>
      </trkpt>
      <trkpt lat="42.91227" lon="2.50668">
        <ele>661</ele>
        <time>2022-05-02T20:05:36Z</time>
      </trkpt>
      <trkpt lat="42.91257" lon="2.50666">
        <ele>661</ele>
        <time>2022-05-02T20:05:41Z</time>
      </trkpt>
      <trkpt lat="42.91284" lon="2.50672">
        <ele>660</ele>
        <time>2022-05-02T20:05:46Z</time>
      </trkpt>
      <trkpt lat="42.91297" lon="2.50678">
        <ele>661</ele>
        <time>2022-05-02T20:05:49Z</time>
      </trkpt>
      <trkpt lat="42.91322" lon="2.50691">
        <ele>663</ele>
        <time>2022-05-02T20:05:54Z</time>
      </trkpt>
      <trkpt lat="42.91351" lon="2.50703">
        <ele>664</ele>
        <time>2022-05-02T20:05:59Z</time>
      </trkpt>
      <trkpt lat="42.91381" lon="2.50706">
        <ele>663</ele>
        <time>2022-05-02T20:06:04Z</time>
      </trkpt>
      <trkpt lat="42.91397" lon="2.50705">
        <ele>662</ele>
        <time>2022-05-02T20:06:07Z</time>
      </trkpt>
      <trkpt lat="42.91405" lon="2.50701">
        <ele>661</ele>
        <time>2022-05-02T20:06:09Z</time>
      </trkpt>
      <trkpt lat="42.91415" lon="2.50686">
        <ele>657</ele>
        <time>2022-05-02T20:06:11Z</time>
      </trkpt>
      <trkpt lat="42.91419" lon="2.5067">
        <ele>654</ele>
        <time>2022-05-02T20:06:13Z</time>
      </trkpt>
      <trkpt lat="42.91418" lon="2.50639">
        <ele>658</ele>
        <time>2022-05-02T20:06:18Z</time>
      </trkpt>
      <trkpt lat="42.91419" lon="2.5063">
        <ele>659</ele>
        <time>2022-05-02T20:06:19Z</time>
      </trkpt>
      <trkpt lat="42.91423" lon="2.50621">
        <ele>660</ele>
        <time>2022-05-02T20:06:20Z</time>
      </trkpt>
      <trkpt lat="42.9143" lon="2.50615">
        <ele>661</ele>
        <time>2022-05-02T20:06:22Z</time>
      </trkpt>
      <trkpt lat="42.91437" lon="2.50612">
        <ele>660</ele>
        <time>2022-05-02T20:06:23Z</time>
      </trkpt>
      <trkpt lat="42.91445" lon="2.50612">
        <ele>659</ele>
        <time>2022-05-02T20:06:24Z</time>
      </trkpt>
      <trkpt lat="42.9148" lon="2.50621">
        <ele>653</ele>
        <time>2022-05-02T20:06:31Z</time>
      </trkpt>
      <trkpt lat="42.91496" lon="2.50619">
        <ele>652</ele>
        <time>2022-05-02T20:06:33Z</time>
      </trkpt>
      <trkpt lat="42.91514" lon="2.50608">
        <ele>650</ele>
        <time>2022-05-02T20:06:37Z</time>
      </trkpt>
      <trkpt lat="42.91539" lon="2.50597">
        <ele>646</ele>
        <time>2022-05-02T20:06:42Z</time>
      </trkpt>
      <trkpt lat="42.91599" lon="2.50566">
        <ele>636</ele>
        <time>2022-05-02T20:06:53Z</time>
      </trkpt>
      <trkpt lat="42.91626" lon="2.50549">
        <ele>631</ele>
        <time>2022-05-02T20:06:58Z</time>
      </trkpt>
      <trkpt lat="42.91644" lon="2.5053">
        <ele>627</ele>
        <time>2022-05-02T20:07:02Z</time>
      </trkpt>
      <trkpt lat="42.9165" lon="2.50518">
        <ele>625</ele>
        <time>2022-05-02T20:07:04Z</time>
      </trkpt>
      <trkpt lat="42.91652" lon="2.5051">
        <ele>625</ele>
        <time>2022-05-02T20:07:05Z</time>
      </trkpt>
      <trkpt lat="42.9165" lon="2.50484">
        <ele>626</ele>
        <time>2022-05-02T20:07:09Z</time>
      </trkpt>
      <trkpt lat="42.9163" lon="2.50355">
        <ele>632</ele>
        <time>2022-05-02T20:07:26Z</time>
      </trkpt>
      <trkpt lat="42.91632" lon="2.50334">
        <ele>631</ele>
        <time>2022-05-02T20:07:29Z</time>
      </trkpt>
      <trkpt lat="42.91637" lon="2.50324">
        <ele>631</ele>
        <time>2022-05-02T20:07:30Z</time>
      </trkpt>
      <trkpt lat="42.91643" lon="2.50317">
        <ele>631</ele>
        <time>2022-05-02T20:07:32Z</time>
      </trkpt>
      <trkpt lat="42.9165" lon="2.50314">
        <ele>630</ele>
        <time>2022-05-02T20:07:33Z</time>
      </trkpt>
      <trkpt lat="42.91659" lon="2.50314">
        <ele>629</ele>
        <time>2022-05-02T20:07:35Z</time>
      </trkpt>
      <trkpt lat="42.91673" lon="2.50321">
        <ele>627</ele>
        <time>2022-05-02T20:07:37Z</time>
      </trkpt>
      <trkpt lat="42.9168" lon="2.50329">
        <ele>627</ele>
        <time>2022-05-02T20:07:39Z</time>
      </trkpt>
      <trkpt lat="42.91708" lon="2.50382">
        <ele>623</ele>
        <time>2022-05-02T20:07:47Z</time>
      </trkpt>
      <trkpt lat="42.91718" lon="2.50397">
        <ele>620</ele>
        <time>2022-05-02T20:07:50Z</time>
      </trkpt>
      <trkpt lat="42.9174" lon="2.5042">
        <ele>615</ele>
        <time>2022-05-02T20:07:55Z</time>
      </trkpt>
      <trkpt lat="42.91761" lon="2.50433">
        <ele>614</ele>
        <time>2022-05-02T20:07:59Z</time>
      </trkpt>
      <trkpt lat="42.91799" lon="2.50441">
        <ele>615</ele>
        <time>2022-05-02T20:08:06Z</time>
      </trkpt>
      <trkpt lat="42.91824" lon="2.50451">
        <ele>614</ele>
        <time>2022-05-02T20:08:11Z</time>
      </trkpt>
      <trkpt lat="42.91843" lon="2.50463">
        <ele>612</ele>
        <time>2022-05-02T20:08:14Z</time>
      </trkpt>
      <trkpt lat="42.91927" lon="2.50525">
        <ele>602</ele>
        <time>2022-05-02T20:08:31Z</time>
      </trkpt>
      <trkpt lat="42.9195" lon="2.50539">
        <ele>599</ele>
        <time>2022-05-02T20:08:36Z</time>
      </trkpt>
      <trkpt lat="42.9196" lon="2.50543">
        <ele>598</ele>
        <time>2022-05-02T20:08:38Z</time>
      </trkpt>
      <trkpt lat="42.91979" lon="2.50543">
        <ele>598</ele>
        <time>2022-05-02T20:08:41Z</time>
      </trkpt>
      <trkpt lat="42.92026" lon="2.50531">
        <ele>597</ele>
        <time>2022-05-02T20:08:50Z</time>
      </trkpt>
      <trkpt lat="42.92066" lon="2.50531">
        <ele>592</ele>
        <time>2022-05-02T20:08:57Z</time>
      </trkpt>
      <trkpt lat="42.92083" lon="2.50529">
        <ele>590</ele>
        <time>2022-05-02T20:09:00Z</time>
      </trkpt>
      <trkpt lat="42.92093" lon="2.50525">
        <ele>589</ele>
        <time>2022-05-02T20:09:02Z</time>
      </trkpt>
      <trkpt lat="42.92109" lon="2.50512">
        <ele>588</ele>
        <time>2022-05-02T20:09:05Z</time>
      </trkpt>
      <trkpt lat="42.92115" lon="2.50502">
        <ele>588</ele>
        <time>2022-05-02T20:09:07Z</time>
      </trkpt>
      <trkpt lat="42.92119" lon="2.50468">
        <ele>590</ele>
        <time>2022-05-02T20:09:11Z</time>
      </trkpt>
      <trkpt lat="42.92121" lon="2.50459">
        <ele>590</ele>
        <time>2022-05-02T20:09:12Z</time>
      </trkpt>
      <trkpt lat="42.92126" lon="2.50452">
        <ele>589</ele>
        <time>2022-05-02T20:09:14Z</time>
      </trkpt>
      <trkpt lat="42.92157" lon="2.5043">
        <ele>582</ele>
        <time>2022-05-02T20:09:20Z</time>
      </trkpt>
      <trkpt lat="42.92167" lon="2.50416">
        <ele>580</ele>
        <time>2022-05-02T20:09:22Z</time>
      </trkpt>
      <trkpt lat="42.922" lon="2.50341">
        <ele>580</ele>
        <time>2022-05-02T20:09:34Z</time>
      </trkpt>
      <trkpt lat="42.92207" lon="2.50306">
        <ele>578</ele>
        <time>2022-05-02T20:09:38Z</time>
      </trkpt>
      <trkpt lat="42.9221" lon="2.50224">
        <ele>575</ele>
        <time>2022-05-02T20:09:49Z</time>
      </trkpt>
      <trkpt lat="42.92216" lon="2.50176">
        <ele>572</ele>
        <time>2022-05-02T20:09:55Z</time>
      </trkpt>
      <trkpt lat="42.92217" lon="2.50157">
        <ele>571</ele>
        <time>2022-05-02T20:09:58Z</time>
      </trkpt>
      <trkpt lat="42.92214" lon="2.5013">
        <ele>571</ele>
        <time>2022-05-02T20:10:02Z</time>
      </trkpt>
      <trkpt lat="42.92213" lon="2.50126">
        <ele>570</ele>
        <time>2022-05-02T20:10:02Z</time>
      </trkpt>
      <trkpt lat="42.92208" lon="2.50109">
        <ele>570</ele>
        <time>2022-05-02T20:10:04Z</time>
      </trkpt>
      <trkpt lat="42.92202" lon="2.50084">
        <ele>569</ele>
        <time>2022-05-02T20:10:08Z</time>
      </trkpt>
      <trkpt lat="42.92202" lon="2.50075">
        <ele>569</ele>
        <time>2022-05-02T20:10:09Z</time>
      </trkpt>
      <trkpt lat="42.92204" lon="2.50066">
        <ele>570</ele>
        <time>2022-05-02T20:10:10Z</time>
      </trkpt>
      <trkpt lat="42.92208" lon="2.50058">
        <ele>570</ele>
        <time>2022-05-02T20:10:12Z</time>
      </trkpt>
      <trkpt lat="42.92222" lon="2.50049">
        <ele>570</ele>
        <time>2022-05-02T20:10:14Z</time>
      </trkpt>
      <trkpt lat="42.92248" lon="2.50042">
        <ele>569</ele>
        <time>2022-05-02T20:10:19Z</time>
      </trkpt>
      <trkpt lat="42.92264" lon="2.5003">
        <ele>571</ele>
        <time>2022-05-02T20:10:22Z</time>
      </trkpt>
      <trkpt lat="42.92272" lon="2.50021">
        <ele>573</ele>
        <time>2022-05-02T20:10:24Z</time>
      </trkpt>
      <trkpt lat="42.92298" lon="2.49985">
        <ele>577</ele>
        <time>2022-05-02T20:10:31Z</time>
      </trkpt>
      <trkpt lat="42.92302" lon="2.49978">
        <ele>578</ele>
        <time>2022-05-02T20:10:32Z</time>
      </trkpt>
      <trkpt lat="42.92303" lon="2.49968">
        <ele>578</ele>
        <time>2022-05-02T20:10:33Z</time>
      </trkpt>
      <trkpt lat="42.92307" lon="2.49927">
        <ele>577</ele>
        <time>2022-05-02T20:10:39Z</time>
      </trkpt>
      <trkpt lat="42.92305" lon="2.49873">
        <ele>577</ele>
        <time>2022-05-02T20:10:46Z</time>
      </trkpt>
      <trkpt lat="42.92307" lon="2.49859">
        <ele>577</ele>
        <time>2022-05-02T20:10:47Z</time>
      </trkpt>
      <trkpt lat="42.92315" lon="2.49838">
        <ele>574</ele>
        <time>2022-05-02T20:10:51Z</time>
      </trkpt>
      <trkpt lat="42.92321" lon="2.4983">
        <ele>572</ele>
        <time>2022-05-02T20:10:52Z</time>
      </trkpt>
      <trkpt lat="42.92395" lon="2.49758">
        <ele>567</ele>
        <time>2022-05-02T20:11:08Z</time>
      </trkpt>
      <trkpt lat="42.92408" lon="2.49753">
        <ele>563</ele>
        <time>2022-05-02T20:11:11Z</time>
      </trkpt>
      <trkpt lat="42.92432" lon="2.49749">
        <ele>558</ele>
        <time>2022-05-02T20:11:15Z</time>
      </trkpt>
      <trkpt lat="42.92445" lon="2.49742">
        <ele>558</ele>
        <time>2022-05-02T20:11:17Z</time>
      </trkpt>
      <trkpt lat="42.9245" lon="2.49736">
        <ele>558</ele>
        <time>2022-05-02T20:11:19Z</time>
      </trkpt>
      <trkpt lat="42.92463" lon="2.49707">
        <ele>556</ele>
        <time>2022-05-02T20:11:23Z</time>
      </trkpt>
      <trkpt lat="42.92481" lon="2.49686">
        <ele>549</ele>
        <time>2022-05-02T20:11:27Z</time>
      </trkpt>
      <trkpt lat="42.92483" lon="2.4968">
        <ele>548</ele>
        <time>2022-05-02T20:11:28Z</time>
      </trkpt>
      <trkpt lat="42.92484" lon="2.49665">
        <ele>546</ele>
        <time>2022-05-02T20:11:30Z</time>
      </trkpt>
      <trkpt lat="42.92476" lon="2.49612">
        <ele>545</ele>
        <time>2022-05-02T20:11:37Z</time>
      </trkpt>
      <trkpt lat="42.92457" lon="2.49535">
        <ele>545</ele>
        <time>2022-05-02T20:11:48Z</time>
      </trkpt>
      <trkpt lat="42.9246" lon="2.49517">
        <ele>541</ele>
        <time>2022-05-02T20:11:50Z</time>
      </trkpt>
      <trkpt lat="42.92484" lon="2.49435">
        <ele>526</ele>
        <time>2022-05-02T20:12:02Z</time>
      </trkpt>
      <trkpt lat="42.92485" lon="2.49415">
        <ele>524</ele>
        <time>2022-05-02T20:12:04Z</time>
      </trkpt>
      <trkpt lat="42.92482" lon="2.49395">
        <ele>523</ele>
        <time>2022-05-02T20:12:07Z</time>
      </trkpt>
      <trkpt lat="42.92467" lon="2.49361">
        <ele>522</ele>
        <time>2022-05-02T20:12:12Z</time>
      </trkpt>
      <trkpt lat="42.92448" lon="2.49314">
        <ele>520</ele>
        <time>2022-05-02T20:12:19Z</time>
      </trkpt>
      <trkpt lat="42.9244" lon="2.49298">
        <ele>520</ele>
        <time>2022-05-02T20:12:22Z</time>
      </trkpt>
      <trkpt lat="42.92432" lon="2.49289">
        <ele>520</ele>
        <time>2022-05-02T20:12:23Z</time>
      </trkpt>
      <trkpt lat="42.92398" lon="2.49268">
        <ele>520</ele>
        <time>2022-05-02T20:12:30Z</time>
      </trkpt>
      <trkpt lat="42.92392" lon="2.49262">
        <ele>520</ele>
        <time>2022-05-02T20:12:31Z</time>
      </trkpt>
      <trkpt lat="42.92389" lon="2.49254">
        <ele>519</ele>
        <time>2022-05-02T20:12:33Z</time>
      </trkpt>
      <trkpt lat="42.9239" lon="2.49245">
        <ele>519</ele>
        <time>2022-05-02T20:12:34Z</time>
      </trkpt>
      <trkpt lat="42.92394" lon="2.4923">
        <ele>521</ele>
        <time>2022-05-02T20:12:36Z</time>
      </trkpt>
      <trkpt lat="42.92397" lon="2.49222">
        <ele>522</ele>
        <time>2022-05-02T20:12:37Z</time>
      </trkpt>
      <trkpt lat="42.92401" lon="2.49219">
        <ele>523</ele>
        <time>2022-05-02T20:12:38Z</time>
      </trkpt>
      <trkpt lat="42.92405" lon="2.49217">
        <ele>523</ele>
        <time>2022-05-02T20:12:39Z</time>
      </trkpt>
      <trkpt lat="42.92419" lon="2.4922">
        <ele>523</ele>
        <time>2022-05-02T20:12:41Z</time>
      </trkpt>
      <trkpt lat="42.92472" lon="2.49245">
        <ele>515</ele>
        <time>2022-05-02T20:12:51Z</time>
      </trkpt>
      <trkpt lat="42.92499" lon="2.49251">
        <ele>512</ele>
        <time>2022-05-02T20:12:56Z</time>
      </trkpt>
      <trkpt lat="42.92594" lon="2.49257">
        <ele>511</ele>
        <time>2022-05-02T20:13:13Z</time>
      </trkpt>
      <trkpt lat="42.92626" lon="2.49264">
        <ele>510</ele>
        <time>2022-05-02T20:13:19Z</time>
      </trkpt>
      <trkpt lat="42.92659" lon="2.49276">
        <ele>510</ele>
        <time>2022-05-02T20:13:25Z</time>
      </trkpt>
      <trkpt lat="42.9268" lon="2.49291">
        <ele>512</ele>
        <time>2022-05-02T20:13:29Z</time>
      </trkpt>
      <trkpt lat="42.9276" lon="2.49378">
        <ele>521</ele>
        <time>2022-05-02T20:13:47Z</time>
      </trkpt>
      <trkpt lat="42.92767" lon="2.49394">
        <ele>522</ele>
        <time>2022-05-02T20:13:49Z</time>
      </trkpt>
      <trkpt lat="42.92781" lon="2.49438">
        <ele>522</ele>
        <time>2022-05-02T20:13:56Z</time>
      </trkpt>
      <trkpt lat="42.92789" lon="2.49458">
        <ele>522</ele>
        <time>2022-05-02T20:13:59Z</time>
      </trkpt>
      <trkpt lat="42.92795" lon="2.49466">
        <ele>522</ele>
        <time>2022-05-02T20:14:00Z</time>
      </trkpt>
      <trkpt lat="42.92808" lon="2.49471">
        <ele>526</ele>
        <time>2022-05-02T20:14:03Z</time>
      </trkpt>
      <trkpt lat="42.9286" lon="2.49503">
        <ele>524</ele>
        <time>2022-05-02T20:14:13Z</time>
      </trkpt>
      <trkpt lat="42.92868" lon="2.49504">
        <ele>524</ele>
        <time>2022-05-02T20:14:14Z</time>
      </trkpt>
      <trkpt lat="42.92904" lon="2.49506">
        <ele>523</ele>
        <time>2022-05-02T20:14:21Z</time>
      </trkpt>
      <trkpt lat="42.92936" lon="2.49516">
        <ele>515</ele>
        <time>2022-05-02T20:14:26Z</time>
      </trkpt>
      <trkpt lat="42.92942" lon="2.49514">
        <ele>514</ele>
        <time>2022-05-02T20:14:28Z</time>
      </trkpt>
      <trkpt lat="42.92947" lon="2.49509">
        <ele>514</ele>
        <time>2022-05-02T20:14:29Z</time>
      </trkpt>
      <trkpt lat="42.92955" lon="2.49496">
        <ele>516</ele>
        <time>2022-05-02T20:14:31Z</time>
      </trkpt>
      <trkpt lat="42.92989" lon="2.49401">
        <ele>542</ele>
        <time>2022-05-02T20:14:45Z</time>
      </trkpt>
      <trkpt lat="42.93015" lon="2.4936">
        <ele>545</ele>
        <time>2022-05-02T20:14:52Z</time>
      </trkpt>
      <trkpt lat="42.93023" lon="2.49342">
        <ele>548</ele>
        <time>2022-05-02T20:14:54Z</time>
      </trkpt>
      <trkpt lat="42.93037" lon="2.49302">
        <ele>552</ele>
        <time>2022-05-02T20:15:00Z</time>
      </trkpt>
      <trkpt lat="42.93065" lon="2.49258">
        <ele>550</ele>
        <time>2022-05-02T20:15:08Z</time>
      </trkpt>
      <trkpt lat="42.93084" lon="2.49234">
        <ele>547</ele>
        <time>2022-05-02T20:15:12Z</time>
      </trkpt>
      <trkpt lat="42.93097" lon="2.49224">
        <ele>548</ele>
        <time>2022-05-02T20:15:15Z</time>
      </trkpt>
      <trkpt lat="42.93108" lon="2.49221">
        <ele>549</ele>
        <time>2022-05-02T20:15:17Z</time>
      </trkpt>
      <trkpt lat="42.93121" lon="2.49221">
        <ele>549</ele>
        <time>2022-05-02T20:15:19Z</time>
      </trkpt>
      <trkpt lat="42.93137" lon="2.49232">
        <ele>549</ele>
        <time>2022-05-02T20:15:23Z</time>
      </trkpt>
      <trkpt lat="42.93142" lon="2.49236">
        <ele>549</ele>
        <time>2022-05-02T20:15:24Z</time>
      </trkpt>
      <trkpt lat="42.93156" lon="2.49245">
        <ele>548</ele>
        <time>2022-05-02T20:15:26Z</time>
      </trkpt>
      <trkpt lat="42.93162" lon="2.49246">
        <ele>548</ele>
        <time>2022-05-02T20:15:27Z</time>
      </trkpt>
      <trkpt lat="42.93171" lon="2.4924">
        <ele>548</ele>
        <time>2022-05-02T20:15:29Z</time>
      </trkpt>
      <trkpt lat="42.93183" lon="2.49226">
        <ele>546</ele>
        <time>2022-05-02T20:15:32Z</time>
      </trkpt>
      <trkpt lat="42.93197" lon="2.49201">
        <ele>544</ele>
        <time>2022-05-02T20:15:36Z</time>
      </trkpt>
      <trkpt lat="42.93234" lon="2.49097">
        <ele>543</ele>
        <time>2022-05-02T20:15:51Z</time>
      </trkpt>
      <trkpt lat="42.93238" lon="2.49088">
        <ele>544</ele>
        <time>2022-05-02T20:15:53Z</time>
      </trkpt>
      <trkpt lat="42.93257" lon="2.49065">
        <ele>538</ele>
        <time>2022-05-02T20:15:57Z</time>
      </trkpt>
      <trkpt lat="42.9326" lon="2.49057">
        <ele>536</ele>
        <time>2022-05-02T20:15:58Z</time>
      </trkpt>
      <trkpt lat="42.93263" lon="2.49052">
        <ele>535</ele>
        <time>2022-05-02T20:15:59Z</time>
      </trkpt>
      <trkpt lat="42.93261" lon="2.49042">
        <ele>534</ele>
        <time>2022-05-02T20:16:00Z</time>
      </trkpt>
      <trkpt lat="42.93253" lon="2.49036">
        <ele>534</ele>
        <time>2022-05-02T20:16:02Z</time>
      </trkpt>
      <trkpt lat="42.9323" lon="2.49028">
        <ele>535</ele>
        <time>2022-05-02T20:16:06Z</time>
      </trkpt>
      <trkpt lat="42.93211" lon="2.49016">
        <ele>534</ele>
        <time>2022-05-02T20:16:10Z</time>
      </trkpt>
      <trkpt lat="42.93178" lon="2.48999">
        <ele>531</ele>
        <time>2022-05-02T20:16:16Z</time>
      </trkpt>
      <trkpt lat="42.93097" lon="2.48981">
        <ele>526</ele>
        <time>2022-05-02T20:16:31Z</time>
      </trkpt>
      <trkpt lat="42.93074" lon="2.4898">
        <ele>524</ele>
        <time>2022-05-02T20:16:35Z</time>
      </trkpt>
      <trkpt lat="42.93068" lon="2.48982">
        <ele>525</ele>
        <time>2022-05-02T20:16:36Z</time>
      </trkpt>
      <trkpt lat="42.93034" lon="2.49007">
        <ele>529</ele>
        <time>2022-05-02T20:16:43Z</time>
      </trkpt>
      <trkpt lat="42.93024" lon="2.4901">
        <ele>529</ele>
        <time>2022-05-02T20:16:45Z</time>
      </trkpt>
      <trkpt lat="42.93011" lon="2.4901">
        <ele>527</ele>
        <time>2022-05-02T20:16:47Z</time>
      </trkpt>
      <trkpt lat="42.92987" lon="2.48998">
        <ele>525</ele>
        <time>2022-05-02T20:16:52Z</time>
      </trkpt>
      <trkpt lat="42.92927" lon="2.48956">
        <ele>522</ele>
        <time>2022-05-02T20:17:04Z</time>
      </trkpt>
      <trkpt lat="42.92903" lon="2.48934">
        <ele>522</ele>
        <time>2022-05-02T20:17:09Z</time>
      </trkpt>
      <trkpt lat="42.92871" lon="2.48898">
        <ele>522</ele>
        <time>2022-05-02T20:17:16Z</time>
      </trkpt>
      <trkpt lat="42.92826" lon="2.4884">
        <ele>516</ele>
        <time>2022-05-02T20:17:27Z</time>
      </trkpt>
      <trkpt lat="42.92771" lon="2.48767">
        <ele>513</ele>
        <time>2022-05-02T20:17:41Z</time>
      </trkpt>
      <trkpt lat="42.92747" lon="2.48745">
        <ele>513</ele>
        <time>2022-05-02T20:17:46Z</time>
      </trkpt>
      <trkpt lat="42.92728" lon="2.48724">
        <ele>516</ele>
        <time>2022-05-02T20:17:50Z</time>
      </trkpt>
      <trkpt lat="42.92721" lon="2.48714">
        <ele>516</ele>
        <time>2022-05-02T20:17:52Z</time>
      </trkpt>
      <trkpt lat="42.92714" lon="2.48699">
        <ele>515</ele>
        <time>2022-05-02T20:17:54Z</time>
      </trkpt>
      <trkpt lat="42.92708" lon="2.48682">
        <ele>513</ele>
        <time>2022-05-02T20:17:57Z</time>
      </trkpt>
      <trkpt lat="42.92684" lon="2.48595">
        <ele>500</ele>
        <time>2022-05-02T20:18:09Z</time>
      </trkpt>
      <trkpt lat="42.92678" lon="2.48577">
        <ele>498</ele>
        <time>2022-05-02T20:18:12Z</time>
      </trkpt>
      <trkpt lat="42.92644" lon="2.48501">
        <ele>498</ele>
        <time>2022-05-02T20:18:23Z</time>
      </trkpt>
      <trkpt lat="42.92634" lon="2.48483">
        <ele>498</ele>
        <time>2022-05-02T20:18:26Z</time>
      </trkpt>
      <trkpt lat="42.92629" lon="2.48476">
        <ele>498</ele>
        <time>2022-05-02T20:18:27Z</time>
      </trkpt>
      <trkpt lat="42.9261" lon="2.48457">
        <ele>500</ele>
        <time>2022-05-02T20:18:32Z</time>
      </trkpt>
      <trkpt lat="42.92599" lon="2.48441">
        <ele>499</ele>
        <time>2022-05-02T20:18:34Z</time>
      </trkpt>
      <trkpt lat="42.92592" lon="2.48426">
        <ele>498</ele>
        <time>2022-05-02T20:18:37Z</time>
      </trkpt>
      <trkpt lat="42.92589" lon="2.48409">
        <ele>495</ele>
        <time>2022-05-02T20:18:39Z</time>
      </trkpt>
      <trkpt lat="42.9259" lon="2.48364">
        <ele>487</ele>
        <time>2022-05-02T20:18:45Z</time>
      </trkpt>
      <trkpt lat="42.92588" lon="2.48354">
        <ele>486</ele>
        <time>2022-05-02T20:18:46Z</time>
      </trkpt>
      <trkpt lat="42.92584" lon="2.48346">
        <ele>486</ele>
        <time>2022-05-02T20:18:47Z</time>
      </trkpt>
      <trkpt lat="42.92572" lon="2.48334">
        <ele>488</ele>
        <time>2022-05-02T20:18:50Z</time>
      </trkpt>
      <trkpt lat="42.92542" lon="2.4832">
        <ele>497</ele>
        <time>2022-05-02T20:18:56Z</time>
      </trkpt>
      <trkpt lat="42.92537" lon="2.48314">
        <ele>498</ele>
        <time>2022-05-02T20:18:57Z</time>
      </trkpt>
      <trkpt lat="42.92533" lon="2.48307">
        <ele>499</ele>
        <time>2022-05-02T20:18:58Z</time>
      </trkpt>
      <trkpt lat="42.92531" lon="2.48298">
        <ele>498</ele>
        <time>2022-05-02T20:18:59Z</time>
      </trkpt>
      <trkpt lat="42.92531" lon="2.48273">
        <ele>496</ele>
        <time>2022-05-02T20:19:03Z</time>
      </trkpt>
      <trkpt lat="42.92542" lon="2.48206">
        <ele>481</ele>
        <time>2022-05-02T20:19:12Z</time>
      </trkpt>
      <trkpt lat="42.92542" lon="2.48184">
        <ele>478</ele>
        <time>2022-05-02T20:19:14Z</time>
      </trkpt>
      <trkpt lat="42.92534" lon="2.4816">
        <ele>477</ele>
        <time>2022-05-02T20:19:18Z</time>
      </trkpt>
      <trkpt lat="42.9251" lon="2.48119">
        <ele>477</ele>
        <time>2022-05-02T20:19:25Z</time>
      </trkpt>
      <trkpt lat="42.92485" lon="2.48066">
        <ele>473</ele>
        <time>2022-05-02T20:19:33Z</time>
      </trkpt>
      <trkpt lat="42.9248" lon="2.4806">
        <ele>473</ele>
        <time>2022-05-02T20:19:34Z</time>
      </trkpt>
      <trkpt lat="42.92456" lon="2.48044">
        <ele>476</ele>
        <time>2022-05-02T20:19:39Z</time>
      </trkpt>
      <trkpt lat="42.92454" lon="2.48039">
        <ele>475</ele>
        <time>2022-05-02T20:19:40Z</time>
      </trkpt>
      <trkpt lat="42.92446" lon="2.48004">
        <ele>468</ele>
        <time>2022-05-02T20:19:44Z</time>
      </trkpt>
      <trkpt lat="42.92443" lon="2.47998">
        <ele>467</ele>
        <time>2022-05-02T20:19:45Z</time>
      </trkpt>
      <trkpt lat="42.92437" lon="2.47992">
        <ele>466</ele>
        <time>2022-05-02T20:19:47Z</time>
      </trkpt>
      <trkpt lat="42.92424" lon="2.47984">
        <ele>467</ele>
        <time>2022-05-02T20:19:49Z</time>
      </trkpt>
      <trkpt lat="42.92407" lon="2.47981">
        <ele>469</ele>
        <time>2022-05-02T20:19:52Z</time>
      </trkpt>
      <trkpt lat="42.92397" lon="2.47977">
        <ele>469</ele>
        <time>2022-05-02T20:19:54Z</time>
      </trkpt>
      <trkpt lat="42.92391" lon="2.47974">
        <ele>469</ele>
        <time>2022-05-02T20:19:55Z</time>
      </trkpt>
      <trkpt lat="42.92373" lon="2.47953">
        <ele>463</ele>
        <time>2022-05-02T20:19:59Z</time>
      </trkpt>
      <trkpt lat="42.92365" lon="2.47946">
        <ele>461</ele>
        <time>2022-05-02T20:20:01Z</time>
      </trkpt>
      <trkpt lat="42.92358" lon="2.47943">
        <ele>460</ele>
        <time>2022-05-02T20:20:02Z</time>
      </trkpt>
      <trkpt lat="42.9235" lon="2.47943">
        <ele>461</ele>
        <time>2022-05-02T20:20:04Z</time>
      </trkpt>
      <trkpt lat="42.92324" lon="2.47948">
        <ele>467</ele>
        <time>2022-05-02T20:20:09Z</time>
      </trkpt>
      <trkpt lat="42.92312" lon="2.47948">
        <ele>470</ele>
        <time>2022-05-02T20:20:11Z</time>
      </trkpt>
      <trkpt lat="42.92307" lon="2.47944">
        <ele>469</ele>
        <time>2022-05-02T20:20:12Z</time>
      </trkpt>
      <trkpt lat="42.92303" lon="2.47937">
        <ele>468</ele>
        <time>2022-05-02T20:20:13Z</time>
      </trkpt>
      <trkpt lat="42.92296" lon="2.47909">
        <ele>460</ele>
        <time>2022-05-02T20:20:17Z</time>
      </trkpt>
      <trkpt lat="42.92288" lon="2.47895">
        <ele>459</ele>
        <time>2022-05-02T20:20:19Z</time>
      </trkpt>
      <trkpt lat="42.92273" lon="2.47884">
        <ele>459</ele>
        <time>2022-05-02T20:20:22Z</time>
      </trkpt>
      <trkpt lat="42.92266" lon="2.4788">
        <ele>460</ele>
        <time>2022-05-02T20:20:23Z</time>
      </trkpt>
      <trkpt lat="42.92192" lon="2.47841">
        <ele>455</ele>
        <time>2022-05-02T20:20:37Z</time>
      </trkpt>
      <trkpt lat="42.92165" lon="2.47821">
        <ele>454</ele>
        <time>2022-05-02T20:20:43Z</time>
      </trkpt>
      <trkpt lat="42.92148" lon="2.47813">
        <ele>455</ele>
        <time>2022-05-02T20:20:46Z</time>
      </trkpt>
      <trkpt lat="42.92132" lon="2.47813">
        <ele>455</ele>
        <time>2022-05-02T20:20:49Z</time>
      </trkpt>
      <trkpt lat="42.92113" lon="2.47819">
        <ele>455</ele>
        <time>2022-05-02T20:20:52Z</time>
      </trkpt>
      <trkpt lat="42.92106" lon="2.47819">
        <ele>455</ele>
        <time>2022-05-02T20:20:54Z</time>
      </trkpt>
      <trkpt lat="42.92092" lon="2.47814">
        <ele>456</ele>
        <time>2022-05-02T20:20:56Z</time>
      </trkpt>
      <trkpt lat="42.9208" lon="2.47794">
        <ele>459</ele>
        <time>2022-05-02T20:21:00Z</time>
      </trkpt>
      <trkpt lat="42.92081" lon="2.47785">
        <ele>460</ele>
        <time>2022-05-02T20:21:01Z</time>
      </trkpt>
      <trkpt lat="42.92083" lon="2.47777">
        <ele>460</ele>
        <time>2022-05-02T20:21:02Z</time>
      </trkpt>
      <trkpt lat="42.92089" lon="2.47773">
        <ele>460</ele>
        <time>2022-05-02T20:21:03Z</time>
      </trkpt>
      <trkpt lat="42.92107" lon="2.47769">
        <ele>459</ele>
        <time>2022-05-02T20:21:06Z</time>
      </trkpt>
      <trkpt lat="42.92173" lon="2.47763">
        <ele>455</ele>
        <time>2022-05-02T20:21:18Z</time>
      </trkpt>
      <trkpt lat="42.92183" lon="2.47764">
        <ele>455</ele>
        <time>2022-05-02T20:21:20Z</time>
      </trkpt>
      <trkpt lat="42.92228" lon="2.47779">
        <ele>455</ele>
        <time>2022-05-02T20:21:28Z</time>
      </trkpt>
      <trkpt lat="42.92332" lon="2.47786">
        <ele>446</ele>
        <time>2022-05-02T20:21:47Z</time>
      </trkpt>
      <trkpt lat="42.92454" lon="2.4781">
        <ele>426</ele>
        <time>2022-05-02T20:22:09Z</time>
      </trkpt>
      <trkpt lat="42.92468" lon="2.47806">
        <ele>424</ele>
        <time>2022-05-02T20:22:11Z</time>
      </trkpt>
      <trkpt lat="42.92495" lon="2.47789">
        <ele>420</ele>
        <time>2022-05-02T20:22:16Z</time>
      </trkpt>
      <trkpt lat="42.92507" lon="2.47781">
        <ele>420</ele>
        <time>2022-05-02T20:22:19Z</time>
      </trkpt>
      <trkpt lat="42.92555" lon="2.47747">
        <ele>426</ele>
        <time>2022-05-02T20:22:28Z</time>
      </trkpt>
      <trkpt lat="42.9269" lon="2.47996">
        <ele>425</ele>
        <time>2022-05-02T20:23:09Z</time>
      </trkpt>
      <trkpt lat="42.92713" lon="2.48041">
        <ele>426</ele>
        <time>2022-05-02T20:23:16Z</time>
      </trkpt>
      <trkpt lat="42.92721" lon="2.4806">
        <ele>426</ele>
        <time>2022-05-02T20:23:19Z</time>
      </trkpt>
      <trkpt lat="42.92724" lon="2.48077">
        <ele>426</ele>
        <time>2022-05-02T20:23:21Z</time>
      </trkpt>
      <trkpt lat="42.9273" lon="2.48132">
        <ele>424</ele>
        <time>2022-05-02T20:23:28Z</time>
      </trkpt>
      <trkpt lat="42.92735" lon="2.48151">
        <ele>423</ele>
        <time>2022-05-02T20:23:31Z</time>
      </trkpt>
      <trkpt lat="42.92744" lon="2.4817">
        <ele>422</ele>
        <time>2022-05-02T20:23:34Z</time>
      </trkpt>
      <trkpt lat="42.92869" lon="2.48376">
        <ele>428</ele>
        <time>2022-05-02T20:24:09Z</time>
      </trkpt>
      <trkpt lat="42.92912" lon="2.48417">
        <ele>421</ele>
        <time>2022-05-02T20:24:18Z</time>
      </trkpt>
      <trkpt lat="42.92961" lon="2.48474">
        <ele>430</ele>
        <time>2022-05-02T20:24:30Z</time>
      </trkpt>
      <trkpt lat="42.92975" lon="2.48495">
        <ele>430</ele>
        <time>2022-05-02T20:24:33Z</time>
      </trkpt>
      <trkpt lat="42.92981" lon="2.48517">
        <ele>429</ele>
        <time>2022-05-02T20:24:36Z</time>
      </trkpt>
      <trkpt lat="42.92987" lon="2.48549">
        <ele>427</ele>
        <time>2022-05-02T20:24:41Z</time>
      </trkpt>
      <trkpt lat="42.92992" lon="2.48563">
        <ele>425</ele>
        <time>2022-05-02T20:24:43Z</time>
      </trkpt>
      <trkpt lat="42.93006" lon="2.48578">
        <ele>423</ele>
        <time>2022-05-02T20:24:46Z</time>
      </trkpt>
      <trkpt lat="42.93023" lon="2.4859">
        <ele>423</ele>
        <time>2022-05-02T20:24:49Z</time>
      </trkpt>
      <trkpt lat="42.93046" lon="2.48599">
        <ele>424</ele>
        <time>2022-05-02T20:24:54Z</time>
      </trkpt>
      <trkpt lat="42.93076" lon="2.48606">
        <ele>424</ele>
        <time>2022-05-02T20:24:59Z</time>
      </trkpt>
      <trkpt lat="42.93177" lon="2.48626">
        <ele>422</ele>
        <time>2022-05-02T20:25:17Z</time>
      </trkpt>
      <trkpt lat="42.933" lon="2.48641">
        <ele>419</ele>
        <time>2022-05-02T20:25:39Z</time>
      </trkpt>
      <trkpt lat="42.93305" lon="2.48644">
        <ele>419</ele>
        <time>2022-05-02T20:25:40Z</time>
      </trkpt>
      <trkpt lat="42.93309" lon="2.4865">
        <ele>418</ele>
        <time>2022-05-02T20:25:41Z</time>
      </trkpt>
      <trkpt lat="42.93312" lon="2.48659">
        <ele>416</ele>
        <time>2022-05-02T20:25:42Z</time>
      </trkpt>
      <trkpt lat="42.93309" lon="2.48702">
        <ele>420</ele>
        <time>2022-05-02T20:25:48Z</time>
      </trkpt>
      <trkpt lat="42.93312" lon="2.48715">
        <ele>422</ele>
        <time>2022-05-02T20:25:50Z</time>
      </trkpt>
      <trkpt lat="42.93318" lon="2.48724">
        <ele>422</ele>
        <time>2022-05-02T20:25:51Z</time>
      </trkpt>
      <trkpt lat="42.93332" lon="2.48728">
        <ele>421</ele>
        <time>2022-05-02T20:25:54Z</time>
      </trkpt>
      <trkpt lat="42.93408" lon="2.48731">
        <ele>418</ele>
        <time>2022-05-02T20:26:07Z</time>
      </trkpt>
      <trkpt lat="42.93434" lon="2.48734">
        <ele>417</ele>
        <time>2022-05-02T20:26:12Z</time>
      </trkpt>
      <trkpt lat="42.93544" lon="2.48757">
        <ele>413</ele>
        <time>2022-05-02T20:26:32Z</time>
      </trkpt>
      <trkpt lat="42.93561" lon="2.48765">
        <ele>413</ele>
        <time>2022-05-02T20:26:35Z</time>
      </trkpt>
      <trkpt lat="42.93572" lon="2.48774">
        <ele>413</ele>
        <time>2022-05-02T20:26:37Z</time>
      </trkpt>
      <trkpt lat="42.9359" lon="2.48802">
        <ele>414</ele>
        <time>2022-05-02T20:26:42Z</time>
      </trkpt>
      <trkpt lat="42.93686" lon="2.48999">
        <ele>417</ele>
        <time>2022-05-02T20:27:13Z</time>
      </trkpt>
      <trkpt lat="42.93742" lon="2.49131">
        <ele>417</ele>
        <time>2022-05-02T20:27:33Z</time>
      </trkpt>
      <trkpt lat="42.93766" lon="2.49168">
        <ele>418</ele>
        <time>2022-05-02T20:27:39Z</time>
      </trkpt>
      <trkpt lat="42.93803" lon="2.4922">
        <ele>419</ele>
        <time>2022-05-02T20:27:49Z</time>
      </trkpt>
      <trkpt lat="42.93814" lon="2.49233">
        <ele>418</ele>
        <time>2022-05-02T20:27:51Z</time>
      </trkpt>
      <trkpt lat="42.93845" lon="2.49257">
        <ele>414</ele>
        <time>2022-05-02T20:27:58Z</time>
      </trkpt>
      <trkpt lat="42.93901" lon="2.4929">
        <ele>407</ele>
        <time>2022-05-02T20:28:09Z</time>
      </trkpt>
      <trkpt lat="42.93917" lon="2.49301">
        <ele>404</ele>
        <time>2022-05-02T20:28:12Z</time>
      </trkpt>
      <trkpt lat="42.93932" lon="2.49318">
        <ele>403</ele>
        <time>2022-05-02T20:28:15Z</time>
      </trkpt>
      <trkpt lat="42.9409" lon="2.49472">
        <ele>403</ele>
        <time>2022-05-02T20:28:50Z</time>
      </trkpt>
      <trkpt lat="42.94104" lon="2.4948">
        <ele>406</ele>
        <time>2022-05-02T20:28:52Z</time>
      </trkpt>
      <trkpt lat="42.94114" lon="2.49478">
        <ele>408</ele>
        <time>2022-05-02T20:28:54Z</time>
      </trkpt>
      <trkpt lat="42.9412" lon="2.49471">
        <ele>408</ele>
        <time>2022-05-02T20:28:56Z</time>
      </trkpt>
      <trkpt lat="42.9414" lon="2.4944">
        <ele>408</ele>
        <time>2022-05-02T20:29:01Z</time>
      </trkpt>
      <trkpt lat="42.9422" lon="2.49323">
        <ele>405</ele>
        <time>2022-05-02T20:29:22Z</time>
      </trkpt>
      <trkpt lat="42.94233" lon="2.49313">
        <ele>404</ele>
        <time>2022-05-02T20:29:25Z</time>
      </trkpt>
      <trkpt lat="42.94262" lon="2.49297">
        <ele>403</ele>
        <time>2022-05-02T20:29:30Z</time>
      </trkpt>
      <trkpt lat="42.94271" lon="2.49289">
        <ele>403</ele>
        <time>2022-05-02T20:29:32Z</time>
      </trkpt>
      <trkpt lat="42.94284" lon="2.4927">
        <ele>400</ele>
        <time>2022-05-02T20:29:35Z</time>
      </trkpt>
      <trkpt lat="42.94295" lon="2.49259">
        <ele>399</ele>
        <time>2022-05-02T20:29:38Z</time>
      </trkpt>
      <trkpt lat="42.94326" lon="2.49238">
        <ele>398</ele>
        <time>2022-05-02T20:29:44Z</time>
      </trkpt>
      <trkpt lat="42.94342" lon="2.49224">
        <ele>397</ele>
        <time>2022-05-02T20:29:47Z</time>
      </trkpt>
      <trkpt lat="42.94356" lon="2.49222">
        <ele>397</ele>
        <time>2022-05-02T20:29:50Z</time>
      </trkpt>
      <trkpt lat="42.94364" lon="2.49226">
        <ele>397</ele>
        <time>2022-05-02T20:29:51Z</time>
      </trkpt>
      <trkpt lat="42.9438" lon="2.49245">
        <ele>397</ele>
        <time>2022-05-02T20:29:55Z</time>
      </trkpt>
      <trkpt lat="42.94407" lon="2.49267">
        <ele>399</ele>
        <time>2022-05-02T20:30:01Z</time>
      </trkpt>
      <trkpt lat="42.94458" lon="2.49289">
        <ele>400</ele>
        <time>2022-05-02T20:30:10Z</time>
      </trkpt>
      <trkpt lat="42.94487" lon="2.49317">
        <ele>401</ele>
        <time>2022-05-02T20:30:17Z</time>
      </trkpt>
      <trkpt lat="42.9452" lon="2.49333">
        <ele>398</ele>
        <time>2022-05-02T20:30:23Z</time>
      </trkpt>
      <trkpt lat="42.94529" lon="2.49342">
        <ele>398</ele>
        <time>2022-05-02T20:30:25Z</time>
      </trkpt>
      <trkpt lat="42.94535" lon="2.49352">
        <ele>398</ele>
        <time>2022-05-02T20:30:26Z</time>
      </trkpt>
      <trkpt lat="42.9455" lon="2.49385">
        <ele>398</ele>
        <time>2022-05-02T20:30:32Z</time>
      </trkpt>
      <trkpt lat="42.94572" lon="2.49421">
        <ele>396</ele>
        <time>2022-05-02T20:30:38Z</time>
      </trkpt>
      <trkpt lat="42.9458" lon="2.49432">
        <ele>395</ele>
        <time>2022-05-02T20:30:40Z</time>
      </trkpt>
      <trkpt lat="42.94608" lon="2.49456">
        <ele>395</ele>
        <time>2022-05-02T20:30:46Z</time>
      </trkpt>
      <trkpt lat="42.94617" lon="2.49471">
        <ele>395</ele>
        <time>2022-05-02T20:30:48Z</time>
      </trkpt>
      <trkpt lat="42.94626" lon="2.4949">
        <ele>395</ele>
        <time>2022-05-02T20:30:51Z</time>
      </trkpt>
      <trkpt lat="42.94646" lon="2.49541">
        <ele>392</ele>
        <time>2022-05-02T20:30:59Z</time>
      </trkpt>
      <trkpt lat="42.9465" lon="2.49553">
        <ele>392</ele>
        <time>2022-05-02T20:31:00Z</time>
      </trkpt>
      <trkpt lat="42.94657" lon="2.49619">
        <ele>392</ele>
        <time>2022-05-02T20:31:09Z</time>
      </trkpt>
      <trkpt lat="42.94661" lon="2.49743">
        <ele>403</ele>
        <time>2022-05-02T20:31:25Z</time>
      </trkpt>
      <trkpt lat="42.94664" lon="2.49754">
        <ele>403</ele>
        <time>2022-05-02T20:31:27Z</time>
      </trkpt>
      <trkpt lat="42.94667" lon="2.49763">
        <ele>404</ele>
        <time>2022-05-02T20:31:28Z</time>
      </trkpt>
      <trkpt lat="42.94678" lon="2.49775">
        <ele>405</ele>
        <time>2022-05-02T20:31:30Z</time>
      </trkpt>
      <trkpt lat="42.94687" lon="2.4978">
        <ele>404</ele>
        <time>2022-05-02T20:31:32Z</time>
      </trkpt>
      <trkpt lat="42.94699" lon="2.4978">
        <ele>401</ele>
        <time>2022-05-02T20:31:34Z</time>
      </trkpt>
      <trkpt lat="42.94707" lon="2.49773">
        <ele>399</ele>
        <time>2022-05-02T20:31:36Z</time>
      </trkpt>
      <trkpt lat="42.94732" lon="2.49751">
        <ele>393</ele>
        <time>2022-05-02T20:31:41Z</time>
      </trkpt>
      <trkpt lat="42.94737" lon="2.4975">
        <ele>393</ele>
        <time>2022-05-02T20:31:42Z</time>
      </trkpt>
      <trkpt lat="42.94742" lon="2.49752">
        <ele>392</ele>
        <time>2022-05-02T20:31:43Z</time>
      </trkpt>
      <trkpt lat="42.94747" lon="2.49756">
        <ele>391</ele>
        <time>2022-05-02T20:31:44Z</time>
      </trkpt>
      <trkpt lat="42.94772" lon="2.49794">
        <ele>391</ele>
        <time>2022-05-02T20:31:51Z</time>
      </trkpt>
      <trkpt lat="42.94792" lon="2.49818">
        <ele>390</ele>
        <time>2022-05-02T20:31:56Z</time>
      </trkpt>
      <trkpt lat="42.94796" lon="2.49821">
        <ele>390</ele>
        <time>2022-05-02T20:31:56Z</time>
      </trkpt>
      <trkpt lat="42.94834" lon="2.49823">
        <ele>391</ele>
        <time>2022-05-02T20:32:03Z</time>
      </trkpt>
      <trkpt lat="42.94846" lon="2.49816">
        <ele>392</ele>
        <time>2022-05-02T20:32:05Z</time>
      </trkpt>
      <trkpt lat="42.94858" lon="2.49802">
        <ele>394</ele>
        <time>2022-05-02T20:32:08Z</time>
      </trkpt>
      <trkpt lat="42.94864" lon="2.49791">
        <ele>395</ele>
        <time>2022-05-02T20:32:10Z</time>
      </trkpt>
      <trkpt lat="42.94874" lon="2.49764">
        <ele>397</ele>
        <time>2022-05-02T20:32:14Z</time>
      </trkpt>
      <trkpt lat="42.94879" lon="2.49755">
        <ele>397</ele>
        <time>2022-05-02T20:32:15Z</time>
      </trkpt>
      <trkpt lat="42.94887" lon="2.49748">
        <ele>397</ele>
        <time>2022-05-02T20:32:17Z</time>
      </trkpt>
      <trkpt lat="42.94915" lon="2.49734">
        <ele>399</ele>
        <time>2022-05-02T20:32:22Z</time>
      </trkpt>
      <trkpt lat="42.94943" lon="2.49731">
        <ele>399</ele>
        <time>2022-05-02T20:32:27Z</time>
      </trkpt>
      <trkpt lat="42.94976" lon="2.49735">
        <ele>396</ele>
        <time>2022-05-02T20:32:33Z</time>
      </trkpt>
      <trkpt lat="42.95023" lon="2.49724">
        <ele>398</ele>
        <time>2022-05-02T20:32:42Z</time>
      </trkpt>
      <trkpt lat="42.95062" lon="2.4972">
        <ele>397</ele>
        <time>2022-05-02T20:32:49Z</time>
      </trkpt>
      <trkpt lat="42.95071" lon="2.49716">
        <ele>397</ele>
        <time>2022-05-02T20:32:50Z</time>
      </trkpt>
      <trkpt lat="42.95097" lon="2.49698">
        <ele>399</ele>
        <time>2022-05-02T20:32:56Z</time>
      </trkpt>
      <trkpt lat="42.95145" lon="2.49652">
        <ele>401</ele>
        <time>2022-05-02T20:33:06Z</time>
      </trkpt>
      <trkpt lat="42.95155" lon="2.49647">
        <ele>401</ele>
        <time>2022-05-02T20:33:08Z</time>
      </trkpt>
      <trkpt lat="42.95165" lon="2.49645">
        <ele>400</ele>
        <time>2022-05-02T20:33:10Z</time>
      </trkpt>
      <trkpt lat="42.95198" lon="2.49659">
        <ele>392</ele>
        <time>2022-05-02T20:33:16Z</time>
      </trkpt>
      <trkpt lat="42.95251" lon="2.49656">
        <ele>390</ele>
        <time>2022-05-02T20:33:25Z</time>
      </trkpt>
      <trkpt lat="42.95268" lon="2.4966">
        <ele>390</ele>
        <time>2022-05-02T20:33:28Z</time>
      </trkpt>
      <trkpt lat="42.95286" lon="2.49674">
        <ele>389</ele>
        <time>2022-05-02T20:33:32Z</time>
      </trkpt>
      <trkpt lat="42.95324" lon="2.49727">
        <ele>383</ele>
        <time>2022-05-02T20:33:42Z</time>
      </trkpt>
      <trkpt lat="42.95361" lon="2.49753">
        <ele>377</ele>
        <time>2022-05-02T20:33:49Z</time>
      </trkpt>
      <trkpt lat="42.95383" lon="2.49761">
        <ele>376</ele>
        <time>2022-05-02T20:33:53Z</time>
      </trkpt>
      <trkpt lat="42.95411" lon="2.49763">
        <ele>373</ele>
        <time>2022-05-02T20:33:58Z</time>
      </trkpt>
      <trkpt lat="42.95425" lon="2.49751">
        <ele>373</ele>
        <time>2022-05-02T20:34:01Z</time>
      </trkpt>
      <trkpt lat="42.95429" lon="2.4973">
        <ele>373</ele>
        <time>2022-05-02T20:34:04Z</time>
      </trkpt>
      <trkpt lat="42.95425" lon="2.49708">
        <ele>374</ele>
        <time>2022-05-02T20:34:07Z</time>
      </trkpt>
      <trkpt lat="42.95398" lon="2.49601">
        <ele>379</ele>
        <time>2022-05-02T20:34:22Z</time>
      </trkpt>
      <trkpt lat="42.95396" lon="2.49563">
        <ele>385</ele>
        <time>2022-05-02T20:34:27Z</time>
      </trkpt>
      <trkpt lat="42.95404" lon="2.49543">
        <ele>389</ele>
        <time>2022-05-02T20:34:30Z</time>
      </trkpt>
      <trkpt lat="42.9544" lon="2.49521">
        <ele>386</ele>
        <time>2022-05-02T20:34:37Z</time>
      </trkpt>
      <trkpt lat="42.95468" lon="2.49504">
        <ele>381</ele>
        <time>2022-05-02T20:34:42Z</time>
      </trkpt>
      <trkpt lat="42.95479" lon="2.49494">
        <ele>380</ele>
        <time>2022-05-02T20:34:44Z</time>
      </trkpt>
      <trkpt lat="42.9549" lon="2.49476">
        <ele>383</ele>
        <time>2022-05-02T20:34:47Z</time>
      </trkpt>
      <trkpt lat="42.95505" lon="2.49462">
        <ele>383</ele>
        <time>2022-05-02T20:34:51Z</time>
      </trkpt>
      <trkpt lat="42.95526" lon="2.49458">
        <ele>379</ele>
        <time>2022-05-02T20:34:55Z</time>
      </trkpt>
      <trkpt lat="42.95529" lon="2.49458">
        <ele>378</ele>
        <time>2022-05-02T20:34:55Z</time>
      </trkpt>
      <trkpt lat="42.95533" lon="2.49452">
        <ele>378</ele>
        <time>2022-05-02T20:34:56Z</time>
      </trkpt>
      <trkpt lat="42.9554" lon="2.49445">
        <ele>377</ele>
        <time>2022-05-02T20:34:58Z</time>
      </trkpt>
      <trkpt lat="42.95585" lon="2.49414">
        <ele>364</ele>
        <time>2022-05-02T20:35:07Z</time>
      </trkpt>
      <trkpt lat="42.95593" lon="2.49403">
        <ele>365</ele>
        <time>2022-05-02T20:35:09Z</time>
      </trkpt>
      <trkpt lat="42.95595" lon="2.49394">
        <ele>365</ele>
        <time>2022-05-02T20:35:10Z</time>
      </trkpt>
      <trkpt lat="42.95595" lon="2.49381">
        <ele>366</ele>
        <time>2022-05-02T20:35:12Z</time>
      </trkpt>
      <trkpt lat="42.95591" lon="2.49365">
        <ele>367</ele>
        <time>2022-05-02T20:35:14Z</time>
      </trkpt>
      <trkpt lat="42.95577" lon="2.49325">
        <ele>372</ele>
        <time>2022-05-02T20:35:20Z</time>
      </trkpt>
      <trkpt lat="42.95562" lon="2.49292">
        <ele>379</ele>
        <time>2022-05-02T20:35:25Z</time>
      </trkpt>
      <trkpt lat="42.95547" lon="2.49267">
        <ele>384</ele>
        <time>2022-05-02T20:35:29Z</time>
      </trkpt>
      <trkpt lat="42.95517" lon="2.49225">
        <ele>392</ele>
        <time>2022-05-02T20:35:36Z</time>
      </trkpt>
      <trkpt lat="42.9551" lon="2.49206">
        <ele>391</ele>
        <time>2022-05-02T20:35:39Z</time>
      </trkpt>
      <trkpt lat="42.95505" lon="2.49186">
        <ele>390</ele>
        <time>2022-05-02T20:35:42Z</time>
      </trkpt>
      <trkpt lat="42.955" lon="2.49124">
        <ele>386</ele>
        <time>2022-05-02T20:35:50Z</time>
      </trkpt>
      <trkpt lat="42.955" lon="2.4907">
        <ele>385</ele>
        <time>2022-05-02T20:35:57Z</time>
      </trkpt>
      <trkpt lat="42.95498" lon="2.49057">
        <ele>387</ele>
        <time>2022-05-02T20:35:59Z</time>
      </trkpt>
      <trkpt lat="42.95488" lon="2.49">
        <ele>392</ele>
        <time>2022-05-02T20:36:06Z</time>
      </trkpt>
      <trkpt lat="42.95485" lon="2.48973">
        <ele>393</ele>
        <time>2022-05-02T20:36:10Z</time>
      </trkpt>
      <trkpt lat="42.95492" lon="2.48915">
        <ele>391</ele>
        <time>2022-05-02T20:36:18Z</time>
      </trkpt>
      <trkpt lat="42.95495" lon="2.48862">
        <ele>392</ele>
        <time>2022-05-02T20:36:25Z</time>
      </trkpt>
      <trkpt lat="42.95497" lon="2.48851">
        <ele>392</ele>
        <time>2022-05-02T20:36:26Z</time>
      </trkpt>
      <trkpt lat="42.95519" lon="2.48781">
        <ele>395</ele>
        <time>2022-05-02T20:36:36Z</time>
      </trkpt>
      <trkpt lat="42.95526" lon="2.4874">
        <ele>396</ele>
        <time>2022-05-02T20:36:41Z</time>
      </trkpt>
      <trkpt lat="42.9553" lon="2.48707">
        <ele>395</ele>
        <time>2022-05-02T20:36:46Z</time>
      </trkpt>
      <trkpt lat="42.95532" lon="2.48655">
        <ele>395</ele>
        <time>2022-05-02T20:36:53Z</time>
      </trkpt>
      <trkpt lat="42.95528" lon="2.48631">
        <ele>396</ele>
        <time>2022-05-02T20:36:56Z</time>
      </trkpt>
      <trkpt lat="42.95527" lon="2.48605">
        <ele>397</ele>
        <time>2022-05-02T20:36:59Z</time>
      </trkpt>
      <trkpt lat="42.95542" lon="2.4848">
        <ele>398</ele>
        <time>2022-05-02T20:37:16Z</time>
      </trkpt>
      <trkpt lat="42.95548" lon="2.48479">
        <ele>397</ele>
        <time>2022-05-02T20:37:17Z</time>
      </trkpt>
      <trkpt lat="42.95561" lon="2.4845">
        <ele>394</ele>
        <time>2022-05-02T20:37:21Z</time>
      </trkpt>
      <trkpt lat="42.95575" lon="2.4843">
        <ele>393</ele>
        <time>2022-05-02T20:37:25Z</time>
      </trkpt>
      <trkpt lat="42.95591" lon="2.48412">
        <ele>395</ele>
        <time>2022-05-02T20:37:29Z</time>
      </trkpt>
      <trkpt lat="42.95603" lon="2.48403">
        <ele>399</ele>
        <time>2022-05-02T20:37:31Z</time>
      </trkpt>
      <trkpt lat="42.95609" lon="2.48395">
        <ele>402</ele>
        <time>2022-05-02T20:37:32Z</time>
      </trkpt>
      <trkpt lat="42.95613" lon="2.48377">
        <ele>405</ele>
        <time>2022-05-02T20:37:35Z</time>
      </trkpt>
      <trkpt lat="42.95609" lon="2.48359">
        <ele>405</ele>
        <time>2022-05-02T20:37:37Z</time>
      </trkpt>
      <trkpt lat="42.9561" lon="2.48343">
        <ele>407</ele>
        <time>2022-05-02T20:37:39Z</time>
      </trkpt>
      <trkpt lat="42.9563" lon="2.48294">
        <ele>416</ele>
        <time>2022-05-02T20:37:47Z</time>
      </trkpt>
      <trkpt lat="42.95632" lon="2.48281">
        <ele>418</ele>
        <time>2022-05-02T20:37:48Z</time>
      </trkpt>
      <trkpt lat="42.95632" lon="2.48271">
        <ele>418</ele>
        <time>2022-05-02T20:37:50Z</time>
      </trkpt>
      <trkpt lat="42.95623" lon="2.48223">
        <ele>421</ele>
        <time>2022-05-02T20:37:56Z</time>
      </trkpt>
      <trkpt lat="42.95627" lon="2.48211">
        <ele>421</ele>
        <time>2022-05-02T20:37:58Z</time>
      </trkpt>
      <trkpt lat="42.95639" lon="2.48183">
        <ele>422</ele>
        <time>2022-05-02T20:38:02Z</time>
      </trkpt>
      <trkpt lat="42.95676" lon="2.48103">
        <ele>419</ele>
        <time>2022-05-02T20:38:14Z</time>
      </trkpt>
      <trkpt lat="42.95684" lon="2.48079">
        <ele>421</ele>
        <time>2022-05-02T20:38:18Z</time>
      </trkpt>
      <trkpt lat="42.95692" lon="2.48024">
        <ele>425</ele>
        <time>2022-05-02T20:38:25Z</time>
      </trkpt>
      <trkpt lat="42.95699" lon="2.47941">
        <ele>432</ele>
        <time>2022-05-02T20:38:36Z</time>
      </trkpt>
      <trkpt lat="42.9571" lon="2.47864">
        <ele>434</ele>
        <time>2022-05-02T20:38:46Z</time>
      </trkpt>
      <trkpt lat="42.95729" lon="2.47778">
        <ele>431</ele>
        <time>2022-05-02T20:38:58Z</time>
      </trkpt>
      <trkpt lat="42.95739" lon="2.4775">
        <ele>428</ele>
        <time>2022-05-02T20:39:02Z</time>
      </trkpt>
      <trkpt lat="42.95751" lon="2.47729">
        <ele>426</ele>
        <time>2022-05-02T20:39:06Z</time>
      </trkpt>
      <trkpt lat="42.95778" lon="2.477">
        <ele>433</ele>
        <time>2022-05-02T20:39:12Z</time>
      </trkpt>
      <trkpt lat="42.95787" lon="2.47685">
        <ele>435</ele>
        <time>2022-05-02T20:39:14Z</time>
      </trkpt>
      <trkpt lat="42.95792" lon="2.47673">
        <ele>435</ele>
        <time>2022-05-02T20:39:16Z</time>
      </trkpt>
      <trkpt lat="42.95838" lon="2.47536">
        <ele>434</ele>
        <time>2022-05-02T20:39:36Z</time>
      </trkpt>
      <trkpt lat="42.95858" lon="2.47497">
        <ele>436</ele>
        <time>2022-05-02T20:39:42Z</time>
      </trkpt>
      <trkpt lat="42.95882" lon="2.47431">
        <ele>440</ele>
        <time>2022-05-02T20:39:51Z</time>
      </trkpt>
      <trkpt lat="42.95897" lon="2.47403">
        <ele>439</ele>
        <time>2022-05-02T20:39:56Z</time>
      </trkpt>
      <trkpt lat="42.9598" lon="2.47314">
        <ele>440</ele>
        <time>2022-05-02T20:40:15Z</time>
      </trkpt>
      <trkpt lat="42.95986" lon="2.473">
        <ele>441</ele>
        <time>2022-05-02T20:40:17Z</time>
      </trkpt>
      <trkpt lat="42.95987" lon="2.47289">
        <ele>441</ele>
        <time>2022-05-02T20:40:18Z</time>
      </trkpt>
      <trkpt lat="42.9598" lon="2.47221">
        <ele>442</ele>
        <time>2022-05-02T20:40:27Z</time>
      </trkpt>
      <trkpt lat="42.95981" lon="2.47207">
        <ele>443</ele>
        <time>2022-05-02T20:40:29Z</time>
      </trkpt>
      <trkpt lat="42.95987" lon="2.472">
        <ele>443</ele>
        <time>2022-05-02T20:40:30Z</time>
      </trkpt>
      <trkpt lat="42.95996" lon="2.47199">
        <ele>442</ele>
        <time>2022-05-02T20:40:32Z</time>
      </trkpt>
      <trkpt lat="42.96009" lon="2.47207">
        <ele>442</ele>
        <time>2022-05-02T20:40:35Z</time>
      </trkpt>
      <trkpt lat="42.96028" lon="2.47212">
        <ele>446</ele>
        <time>2022-05-02T20:40:38Z</time>
      </trkpt>
      <trkpt lat="42.96042" lon="2.47212">
        <ele>448</ele>
        <time>2022-05-02T20:40:40Z</time>
      </trkpt>
      <trkpt lat="42.96058" lon="2.47209">
        <ele>450</ele>
        <time>2022-05-02T20:40:43Z</time>
      </trkpt>
      <trkpt lat="42.9608" lon="2.47194">
        <ele>451</ele>
        <time>2022-05-02T20:40:48Z</time>
      </trkpt>
      <trkpt lat="42.96101" lon="2.47171">
        <ele>454</ele>
        <time>2022-05-02T20:40:53Z</time>
      </trkpt>
      <trkpt lat="42.96122" lon="2.47133">
        <ele>459</ele>
        <time>2022-05-02T20:40:59Z</time>
      </trkpt>
      <trkpt lat="42.96139" lon="2.4709">
        <ele>460</ele>
        <time>2022-05-02T20:41:05Z</time>
      </trkpt>
      <trkpt lat="42.96148" lon="2.47046">
        <ele>460</ele>
        <time>2022-05-02T20:41:11Z</time>
      </trkpt>
      <trkpt lat="42.96161" lon="2.47007">
        <ele>457</ele>
        <time>2022-05-02T20:41:17Z</time>
      </trkpt>
      <trkpt lat="42.96176" lon="2.46941">
        <ele>459</ele>
        <time>2022-05-02T20:41:26Z</time>
      </trkpt>
      <trkpt lat="42.96184" lon="2.46886">
        <ele>462</ele>
        <time>2022-05-02T20:41:33Z</time>
      </trkpt>
      <trkpt lat="42.96191" lon="2.46859">
        <ele>465</ele>
        <time>2022-05-02T20:41:37Z</time>
      </trkpt>
      <trkpt lat="42.96212" lon="2.46767">
        <ele>466</ele>
        <time>2022-05-02T20:41:49Z</time>
      </trkpt>
      <trkpt lat="42.96224" lon="2.46736">
        <ele>466</ele>
        <time>2022-05-02T20:41:54Z</time>
      </trkpt>
      <trkpt lat="42.96247" lon="2.46698">
        <ele>463</ele>
        <time>2022-05-02T20:42:00Z</time>
      </trkpt>
      <trkpt lat="42.96268" lon="2.46671">
        <ele>467</ele>
        <time>2022-05-02T20:42:05Z</time>
      </trkpt>
      <trkpt lat="42.96276" lon="2.46658">
        <ele>469</ele>
        <time>2022-05-02T20:42:08Z</time>
      </trkpt>
      <trkpt lat="42.96301" lon="2.4656">
        <ele>468</ele>
        <time>2022-05-02T20:42:21Z</time>
      </trkpt>
      <trkpt lat="42.96309" lon="2.46539">
        <ele>468</ele>
        <time>2022-05-02T20:42:24Z</time>
      </trkpt>
      <trkpt lat="42.96328" lon="2.46515">
        <ele>468</ele>
        <time>2022-05-02T20:42:29Z</time>
      </trkpt>
      <trkpt lat="42.96331" lon="2.46503">
        <ele>466</ele>
        <time>2022-05-02T20:42:30Z</time>
      </trkpt>
      <trkpt lat="42.96323" lon="2.46468">
        <ele>465</ele>
        <time>2022-05-02T20:42:35Z</time>
      </trkpt>
      <trkpt lat="42.96324" lon="2.46455">
        <ele>465</ele>
        <time>2022-05-02T20:42:37Z</time>
      </trkpt>
      <trkpt lat="42.96327" lon="2.46439">
        <ele>466</ele>
        <time>2022-05-02T20:42:39Z</time>
      </trkpt>
      <trkpt lat="42.96344" lon="2.46397">
        <ele>472</ele>
        <time>2022-05-02T20:42:45Z</time>
      </trkpt>
      <trkpt lat="42.96351" lon="2.46373">
        <ele>476</ele>
        <time>2022-05-02T20:42:49Z</time>
      </trkpt>
      <trkpt lat="42.96355" lon="2.46348">
        <ele>478</ele>
        <time>2022-05-02T20:42:52Z</time>
      </trkpt>
      <trkpt lat="42.96359" lon="2.46217">
        <ele>481</ele>
        <time>2022-05-02T20:43:09Z</time>
      </trkpt>
      <trkpt lat="42.96365" lon="2.46173">
        <ele>483</ele>
        <time>2022-05-02T20:43:15Z</time>
      </trkpt>
      <trkpt lat="42.96376" lon="2.46146">
        <ele>486</ele>
        <time>2022-05-02T20:43:19Z</time>
      </trkpt>
      <trkpt lat="42.96389" lon="2.46131">
        <ele>487</ele>
        <time>2022-05-02T20:43:22Z</time>
      </trkpt>
      <trkpt lat="42.96406" lon="2.46124">
        <ele>487</ele>
        <time>2022-05-02T20:43:25Z</time>
      </trkpt>
      <trkpt lat="42.96446" lon="2.46091">
        <ele>496</ele>
        <time>2022-05-02T20:43:33Z</time>
      </trkpt>
      <trkpt lat="42.96452" lon="2.46079">
        <ele>497</ele>
        <time>2022-05-02T20:43:35Z</time>
      </trkpt>
      <trkpt lat="42.96458" lon="2.46056">
        <ele>500</ele>
        <time>2022-05-02T20:43:38Z</time>
      </trkpt>
      <trkpt lat="42.96461" lon="2.46021">
        <ele>501</ele>
        <time>2022-05-02T20:43:43Z</time>
      </trkpt>
      <trkpt lat="42.96455" lon="2.46001">
        <ele>498</ele>
        <time>2022-05-02T20:43:46Z</time>
      </trkpt>
      <trkpt lat="42.96432" lon="2.45946">
        <ele>495</ele>
        <time>2022-05-02T20:43:54Z</time>
      </trkpt>
      <trkpt lat="42.9642" lon="2.45897">
        <ele>493</ele>
        <time>2022-05-02T20:44:01Z</time>
      </trkpt>
      <trkpt lat="42.96422" lon="2.45864">
        <ele>493</ele>
        <time>2022-05-02T20:44:05Z</time>
      </trkpt>
      <trkpt lat="42.96435" lon="2.45806">
        <ele>499</ele>
        <time>2022-05-02T20:44:13Z</time>
      </trkpt>
      <trkpt lat="42.96436" lon="2.45775">
        <ele>499</ele>
        <time>2022-05-02T20:44:17Z</time>
      </trkpt>
      <trkpt lat="42.96432" lon="2.45754">
        <ele>498</ele>
        <time>2022-05-02T20:44:20Z</time>
      </trkpt>
      <trkpt lat="42.96422" lon="2.45744">
        <ele>497</ele>
        <time>2022-05-02T20:44:22Z</time>
      </trkpt>
      <trkpt lat="42.96403" lon="2.4573">
        <ele>498</ele>
        <time>2022-05-02T20:44:26Z</time>
      </trkpt>
      <trkpt lat="42.96366" lon="2.4571">
        <ele>498</ele>
        <time>2022-05-02T20:44:33Z</time>
      </trkpt>
      <trkpt lat="42.96308" lon="2.45682">
        <ele>498</ele>
        <time>2022-05-02T20:44:44Z</time>
      </trkpt>
      <trkpt lat="42.96298" lon="2.45667">
        <ele>499</ele>
        <time>2022-05-02T20:44:47Z</time>
      </trkpt>
      <trkpt lat="42.96288" lon="2.45638">
        <ele>502</ele>
        <time>2022-05-02T20:44:51Z</time>
      </trkpt>
      <trkpt lat="42.96279" lon="2.45563">
        <ele>507</ele>
        <time>2022-05-02T20:45:01Z</time>
      </trkpt>
      <trkpt lat="42.96277" lon="2.4552">
        <ele>507</ele>
        <time>2022-05-02T20:45:06Z</time>
      </trkpt>
      <trkpt lat="42.96289" lon="2.45448">
        <ele>509</ele>
        <time>2022-05-02T20:45:16Z</time>
      </trkpt>
      <trkpt lat="42.96295" lon="2.4536">
        <ele>508</ele>
        <time>2022-05-02T20:45:27Z</time>
      </trkpt>
      <trkpt lat="42.96297" lon="2.45272">
        <ele>507</ele>
        <time>2022-05-02T20:45:39Z</time>
      </trkpt>
      <trkpt lat="42.96304" lon="2.45227">
        <ele>507</ele>
        <time>2022-05-02T20:45:45Z</time>
      </trkpt>
      <trkpt lat="42.96323" lon="2.45159">
        <ele>505</ele>
        <time>2022-05-02T20:45:54Z</time>
      </trkpt>
      <trkpt lat="42.96331" lon="2.45145">
        <ele>504</ele>
        <time>2022-05-02T20:45:57Z</time>
      </trkpt>
      <trkpt lat="42.96345" lon="2.4513">
        <ele>507</ele>
        <time>2022-05-02T20:46:00Z</time>
      </trkpt>
      <trkpt lat="42.96359" lon="2.45112">
        <ele>510</ele>
        <time>2022-05-02T20:46:03Z</time>
      </trkpt>
      <trkpt lat="42.96371" lon="2.45085">
        <ele>510</ele>
        <time>2022-05-02T20:46:07Z</time>
      </trkpt>
      <trkpt lat="42.96374" lon="2.45068">
        <ele>509</ele>
        <time>2022-05-02T20:46:10Z</time>
      </trkpt>
      <trkpt lat="42.96371" lon="2.45017">
        <ele>506</ele>
        <time>2022-05-02T20:46:16Z</time>
      </trkpt>
      <trkpt lat="42.96373" lon="2.45003">
        <ele>506</ele>
        <time>2022-05-02T20:46:18Z</time>
      </trkpt>
      <trkpt lat="42.96396" lon="2.44905">
        <ele>512</ele>
        <time>2022-05-02T20:46:32Z</time>
      </trkpt>
      <trkpt lat="42.96399" lon="2.44877">
        <ele>514</ele>
        <time>2022-05-02T20:46:35Z</time>
      </trkpt>
      <trkpt lat="42.96396" lon="2.44793">
        <ele>519</ele>
        <time>2022-05-02T20:46:46Z</time>
      </trkpt>
      <trkpt lat="42.964" lon="2.44754">
        <ele>521</ele>
        <time>2022-05-02T20:46:51Z</time>
      </trkpt>
      <trkpt lat="42.96407" lon="2.4471">
        <ele>521</ele>
        <time>2022-05-02T20:46:57Z</time>
      </trkpt>
      <trkpt lat="42.96418" lon="2.44656">
        <ele>520</ele>
        <time>2022-05-02T20:47:04Z</time>
      </trkpt>
      <trkpt lat="42.96439" lon="2.44589">
        <ele>527</ele>
        <time>2022-05-02T20:47:14Z</time>
      </trkpt>
      <trkpt lat="42.96456" lon="2.44545">
        <ele>532</ele>
        <time>2022-05-02T20:47:20Z</time>
      </trkpt>
      <trkpt lat="42.96474" lon="2.44515">
        <ele>533</ele>
        <time>2022-05-02T20:47:26Z</time>
      </trkpt>
      <trkpt lat="42.96504" lon="2.44479">
        <ele>532</ele>
        <time>2022-05-02T20:47:33Z</time>
      </trkpt>
      <trkpt lat="42.96542" lon="2.44415">
        <ele>535</ele>
        <time>2022-05-02T20:47:43Z</time>
      </trkpt>
      <trkpt lat="42.9664" lon="2.44286">
        <ele>537</ele>
        <time>2022-05-02T20:48:08Z</time>
      </trkpt>
      <trkpt lat="42.96657" lon="2.44271">
        <ele>537</ele>
        <time>2022-05-02T20:48:11Z</time>
      </trkpt>
      <trkpt lat="42.96671" lon="2.44268">
        <ele>539</ele>
        <time>2022-05-02T20:48:14Z</time>
      </trkpt>
      <trkpt lat="42.9668" lon="2.44262">
        <ele>540</ele>
        <time>2022-05-02T20:48:15Z</time>
      </trkpt>
      <trkpt lat="42.96683" lon="2.44253">
        <ele>540</ele>
        <time>2022-05-02T20:48:17Z</time>
      </trkpt>
      <trkpt lat="42.96684" lon="2.4424">
        <ele>540</ele>
        <time>2022-05-02T20:48:18Z</time>
      </trkpt>
      <trkpt lat="42.96677" lon="2.44205">
        <ele>537</ele>
        <time>2022-05-02T20:48:23Z</time>
      </trkpt>
      <trkpt lat="42.96678" lon="2.44185">
        <ele>538</ele>
        <time>2022-05-02T20:48:26Z</time>
      </trkpt>
      <trkpt lat="42.96686" lon="2.44148">
        <ele>540</ele>
        <time>2022-05-02T20:48:31Z</time>
      </trkpt>
      <trkpt lat="42.96705" lon="2.4411">
        <ele>543</ele>
        <time>2022-05-02T20:48:37Z</time>
      </trkpt>
      <trkpt lat="42.96725" lon="2.44077">
        <ele>544</ele>
        <time>2022-05-02T20:48:42Z</time>
      </trkpt>
      <trkpt lat="42.96772" lon="2.44029">
        <ele>547</ele>
        <time>2022-05-02T20:48:53Z</time>
      </trkpt>
      <trkpt lat="42.96818" lon="2.43968">
        <ele>548</ele>
        <time>2022-05-02T20:49:04Z</time>
      </trkpt>
      <trkpt lat="42.96855" lon="2.43937">
        <ele>549</ele>
        <time>2022-05-02T20:49:12Z</time>
      </trkpt>
      <trkpt lat="42.96923" lon="2.43897">
        <ele>556</ele>
        <time>2022-05-02T20:49:25Z</time>
      </trkpt>
      <trkpt lat="42.96958" lon="2.4389">
        <ele>557</ele>
        <time>2022-05-02T20:49:31Z</time>
      </trkpt>
      <trkpt lat="42.96985" lon="2.4389">
        <ele>558</ele>
        <time>2022-05-02T20:49:36Z</time>
      </trkpt>
      <trkpt lat="42.97048" lon="2.43929">
        <ele>564</ele>
        <time>2022-05-02T20:49:49Z</time>
      </trkpt>
      <trkpt lat="42.97085" lon="2.43956">
        <ele>565</ele>
        <time>2022-05-02T20:49:56Z</time>
      </trkpt>
      <trkpt lat="42.97092" lon="2.43968">
        <ele>568</ele>
        <time>2022-05-02T20:49:58Z</time>
      </trkpt>
      <trkpt lat="42.97108" lon="2.44022">
        <ele>578</ele>
        <time>2022-05-02T20:50:06Z</time>
      </trkpt>
      <trkpt lat="42.97116" lon="2.4407">
        <ele>586</ele>
        <time>2022-05-02T20:50:12Z</time>
      </trkpt>
      <trkpt lat="42.97118" lon="2.44109">
        <ele>592</ele>
        <time>2022-05-02T20:50:17Z</time>
      </trkpt>
      <trkpt lat="42.97125" lon="2.44117">
        <ele>592</ele>
        <time>2022-05-02T20:50:19Z</time>
      </trkpt>
      <trkpt lat="42.97132" lon="2.44116">
        <ele>591</ele>
        <time>2022-05-02T20:50:20Z</time>
      </trkpt>
      <trkpt lat="42.9714" lon="2.44105">
        <ele>588</ele>
        <time>2022-05-02T20:50:22Z</time>
      </trkpt>
      <trkpt lat="42.97157" lon="2.44072">
        <ele>580</ele>
        <time>2022-05-02T20:50:27Z</time>
      </trkpt>
      <trkpt lat="42.97169" lon="2.44062">
        <ele>578</ele>
        <time>2022-05-02T20:50:30Z</time>
      </trkpt>
      <trkpt lat="42.97177" lon="2.44053">
        <ele>580</ele>
        <time>2022-05-02T20:50:32Z</time>
      </trkpt>
      <trkpt lat="42.9718" lon="2.44035">
        <ele>579</ele>
        <time>2022-05-02T20:50:34Z</time>
      </trkpt>
      <trkpt lat="42.97177" lon="2.44001">
        <ele>574</ele>
        <time>2022-05-02T20:50:38Z</time>
      </trkpt>
      <trkpt lat="42.9718" lon="2.43988">
        <ele>574</ele>
        <time>2022-05-02T20:50:40Z</time>
      </trkpt>
      <trkpt lat="42.97197" lon="2.43958">
        <ele>578</ele>
        <time>2022-05-02T20:50:45Z</time>
      </trkpt>
      <trkpt lat="42.97239" lon="2.43873">
        <ele>580</ele>
        <time>2022-05-02T20:50:58Z</time>
      </trkpt>
      <trkpt lat="42.97263" lon="2.43841">
        <ele>582</ele>
        <time>2022-05-02T20:51:04Z</time>
      </trkpt>
      <trkpt lat="42.97301" lon="2.43799">
        <ele>587</ele>
        <time>2022-05-02T20:51:13Z</time>
      </trkpt>
      <trkpt lat="42.97407" lon="2.43704">
        <ele>594</ele>
        <time>2022-05-02T20:51:36Z</time>
      </trkpt>
      <trkpt lat="42.97453" lon="2.43669">
        <ele>594</ele>
        <time>2022-05-02T20:51:45Z</time>
      </trkpt>
      <trkpt lat="42.97474" lon="2.43658">
        <ele>596</ele>
        <time>2022-05-02T20:51:49Z</time>
      </trkpt>
      <trkpt lat="42.97491" lon="2.43653">
        <ele>598</ele>
        <time>2022-05-02T20:51:52Z</time>
      </trkpt>
      <trkpt lat="42.97507" lon="2.43652">
        <ele>600</ele>
        <time>2022-05-02T20:51:55Z</time>
      </trkpt>
      <trkpt lat="42.9752" lon="2.43654">
        <ele>601</ele>
        <time>2022-05-02T20:51:57Z</time>
      </trkpt>
      <trkpt lat="42.97538" lon="2.43661">
        <ele>603</ele>
        <time>2022-05-02T20:52:01Z</time>
      </trkpt>
      <trkpt lat="42.97555" lon="2.43673">
        <ele>606</ele>
        <time>2022-05-02T20:52:04Z</time>
      </trkpt>
      <trkpt lat="42.97581" lon="2.43697">
        <ele>614</ele>
        <time>2022-05-02T20:52:10Z</time>
      </trkpt>
      <trkpt lat="42.97633" lon="2.43756">
        <ele>629</ele>
        <time>2022-05-02T20:52:22Z</time>
      </trkpt>
      <trkpt lat="42.97642" lon="2.43762">
        <ele>630</ele>
        <time>2022-05-02T20:52:23Z</time>
      </trkpt>
      <trkpt lat="42.97649" lon="2.4376">
        <ele>629</ele>
        <time>2022-05-02T20:52:25Z</time>
      </trkpt>
      <trkpt lat="42.97654" lon="2.43754">
        <ele>627</ele>
        <time>2022-05-02T20:52:26Z</time>
      </trkpt>
      <trkpt lat="42.97655" lon="2.43728">
        <ele>626</ele>
        <time>2022-05-02T20:52:29Z</time>
      </trkpt>
      <trkpt lat="42.97642" lon="2.43601">
        <ele>617</ele>
        <time>2022-05-02T20:52:46Z</time>
      </trkpt>
      <trkpt lat="42.97644" lon="2.4358">
        <ele>616</ele>
        <time>2022-05-02T20:52:49Z</time>
      </trkpt>
      <trkpt lat="42.97654" lon="2.43561">
        <ele>616</ele>
        <time>2022-05-02T20:52:52Z</time>
      </trkpt>
      <trkpt lat="42.97672" lon="2.43547">
        <ele>619</ele>
        <time>2022-05-02T20:52:55Z</time>
      </trkpt>
      <trkpt lat="42.97734" lon="2.43515">
        <ele>623</ele>
        <time>2022-05-02T20:53:07Z</time>
      </trkpt>
      <trkpt lat="42.97784" lon="2.43505">
        <ele>625</ele>
        <time>2022-05-02T20:53:16Z</time>
      </trkpt>
      <trkpt lat="42.97817" lon="2.43506">
        <ele>627</ele>
        <time>2022-05-02T20:53:22Z</time>
      </trkpt>
      <trkpt lat="42.97854" lon="2.43521">
        <ele>632</ele>
        <time>2022-05-02T20:53:29Z</time>
      </trkpt>
      <trkpt lat="42.97875" lon="2.43538">
        <ele>635</ele>
        <time>2022-05-02T20:53:33Z</time>
      </trkpt>
      <trkpt lat="42.97893" lon="2.43577">
        <ele>643</ele>
        <time>2022-05-02T20:53:39Z</time>
      </trkpt>
      <trkpt lat="42.97916" lon="2.43619">
        <ele>649</ele>
        <time>2022-05-02T20:53:46Z</time>
      </trkpt>
      <trkpt lat="42.97936" lon="2.4365">
        <ele>659</ele>
        <time>2022-05-02T20:53:52Z</time>
      </trkpt>
      <trkpt lat="42.97945" lon="2.43653">
        <ele>661</ele>
        <time>2022-05-02T20:53:53Z</time>
      </trkpt>
      <trkpt lat="42.97954" lon="2.43648">
        <ele>661</ele>
        <time>2022-05-02T20:53:55Z</time>
      </trkpt>
      <trkpt lat="42.97958" lon="2.43633">
        <ele>658</ele>
        <time>2022-05-02T20:53:57Z</time>
      </trkpt>
      <trkpt lat="42.97964" lon="2.43591">
        <ele>649</ele>
        <time>2022-05-02T20:54:03Z</time>
      </trkpt>
      <trkpt lat="42.97972" lon="2.43577">
        <ele>647</ele>
        <time>2022-05-02T20:54:05Z</time>
      </trkpt>
      <trkpt lat="42.98" lon="2.43557">
        <ele>645</ele>
        <time>2022-05-02T20:54:11Z</time>
      </trkpt>
      <trkpt lat="42.98044" lon="2.43535">
        <ele>647</ele>
        <time>2022-05-02T20:54:19Z</time>
      </trkpt>
      <trkpt lat="42.9808" lon="2.43532">
        <ele>653</ele>
        <time>2022-05-02T20:54:25Z</time>
      </trkpt>
      <trkpt lat="42.98105" lon="2.43544">
        <ele>660</ele>
        <time>2022-05-02T20:54:30Z</time>
      </trkpt>
      <trkpt lat="42.98122" lon="2.43564">
        <ele>667</ele>
        <time>2022-05-02T20:54:34Z</time>
      </trkpt>
      <trkpt lat="42.98131" lon="2.43568">
        <ele>668</ele>
        <time>2022-05-02T20:54:36Z</time>
      </trkpt>
      <trkpt lat="42.98139" lon="2.43563">
        <ele>668</ele>
        <time>2022-05-02T20:54:37Z</time>
      </trkpt>
      <trkpt lat="42.98148" lon="2.4355">
        <ele>667</ele>
        <time>2022-05-02T20:54:40Z</time>
      </trkpt>
      <trkpt lat="42.98159" lon="2.43476">
        <ele>657</ele>
        <time>2022-05-02T20:54:49Z</time>
      </trkpt>
      <trkpt lat="42.98165" lon="2.43462">
        <ele>656</ele>
        <time>2022-05-02T20:54:52Z</time>
      </trkpt>
      <trkpt lat="42.98215" lon="2.4343">
        <ele>662</ele>
        <time>2022-05-02T20:55:01Z</time>
      </trkpt>
      <trkpt lat="42.98243" lon="2.43407">
        <ele>663</ele>
        <time>2022-05-02T20:55:07Z</time>
      </trkpt>
      <trkpt lat="42.98273" lon="2.43398">
        <ele>666</ele>
        <time>2022-05-02T20:55:13Z</time>
      </trkpt>
      <trkpt lat="42.98315" lon="2.43395">
        <ele>672</ele>
        <time>2022-05-02T20:55:20Z</time>
      </trkpt>
      <trkpt lat="42.98381" lon="2.43405">
        <ele>678</ele>
        <time>2022-05-02T20:55:32Z</time>
      </trkpt>
      <trkpt lat="42.98411" lon="2.43416">
        <ele>681</ele>
        <time>2022-05-02T20:55:37Z</time>
      </trkpt>
      <trkpt lat="42.98421" lon="2.43413">
        <ele>682</ele>
        <time>2022-05-02T20:55:39Z</time>
      </trkpt>
      <trkpt lat="42.98427" lon="2.43403">
        <ele>681</ele>
        <time>2022-05-02T20:55:41Z</time>
      </trkpt>
      <trkpt lat="42.98431" lon="2.43389">
        <ele>680</ele>
        <time>2022-05-02T20:55:43Z</time>
      </trkpt>
      <trkpt lat="42.98437" lon="2.43353">
        <ele>675</ele>
        <time>2022-05-02T20:55:48Z</time>
      </trkpt>
      <trkpt lat="42.98447" lon="2.43328">
        <ele>675</ele>
        <time>2022-05-02T20:55:51Z</time>
      </trkpt>
      <trkpt lat="42.98467" lon="2.43296">
        <ele>676</ele>
        <time>2022-05-02T20:55:57Z</time>
      </trkpt>
      <trkpt lat="42.98488" lon="2.4327">
        <ele>677</ele>
        <time>2022-05-02T20:56:02Z</time>
      </trkpt>
      <trkpt lat="42.98503" lon="2.43256">
        <ele>678</ele>
        <time>2022-05-02T20:56:05Z</time>
      </trkpt>
      <trkpt lat="42.98564" lon="2.43224">
        <ele>689</ele>
        <time>2022-05-02T20:56:17Z</time>
      </trkpt>
      <trkpt lat="42.98577" lon="2.43209">
        <ele>690</ele>
        <time>2022-05-02T20:56:20Z</time>
      </trkpt>
      <trkpt lat="42.9859" lon="2.43205">
        <ele>692</ele>
        <time>2022-05-02T20:56:22Z</time>
      </trkpt>
      <trkpt lat="42.98603" lon="2.43216">
        <ele>695</ele>
        <time>2022-05-02T20:56:25Z</time>
      </trkpt>
      <trkpt lat="42.98595" lon="2.43217">
        <ele>694</ele>
        <time>2022-05-02T20:56:26Z</time>
      </trkpt>
      <trkpt lat="42.9856" lon="2.43246">
        <ele>690</ele>
        <time>2022-05-02T20:56:34Z</time>
      </trkpt>
      <trkpt lat="42.9851" lon="2.43295">
        <ele>688</ele>
        <time>2022-05-02T20:56:45Z</time>
      </trkpt>
      <trkpt lat="42.98495" lon="2.43318">
        <ele>688</ele>
        <time>2022-05-02T20:56:49Z</time>
      </trkpt>
      <trkpt lat="42.98489" lon="2.43332">
        <ele>689</ele>
        <time>2022-05-02T20:56:51Z</time>
      </trkpt>
      <trkpt lat="42.98495" lon="2.43318">
        <ele>688</ele>
        <time>2022-05-02T20:56:53Z</time>
      </trkpt>
      <trkpt lat="42.9851" lon="2.43295">
        <ele>688</ele>
        <time>2022-05-02T20:56:57Z</time>
      </trkpt>
      <trkpt lat="42.9856" lon="2.43246">
        <ele>690</ele>
        <time>2022-05-02T20:57:08Z</time>
      </trkpt>
      <trkpt lat="42.98595" lon="2.43217">
        <ele>694</ele>
        <time>2022-05-02T20:57:15Z</time>
      </trkpt>
      <trkpt lat="42.98603" lon="2.43216">
        <ele>695</ele>
        <time>2022-05-02T20:57:16Z</time>
      </trkpt>
      <trkpt lat="42.9861" lon="2.43218">
        <ele>697</ele>
        <time>2022-05-02T20:57:18Z</time>
      </trkpt>
      <trkpt lat="42.98615" lon="2.43223">
        <ele>697</ele>
        <time>2022-05-02T20:57:19Z</time>
      </trkpt>
      <trkpt lat="42.98618" lon="2.4323">
        <ele>698</ele>
        <time>2022-05-02T20:57:20Z</time>
      </trkpt>
      <trkpt lat="42.98631" lon="2.43282">
        <ele>703</ele>
        <time>2022-05-02T20:57:27Z</time>
      </trkpt>
      <trkpt lat="42.98638" lon="2.43294">
        <ele>704</ele>
        <time>2022-05-02T20:57:29Z</time>
      </trkpt>
      <trkpt lat="42.98643" lon="2.43299">
        <ele>705</ele>
        <time>2022-05-02T20:57:30Z</time>
      </trkpt>
      <trkpt lat="42.98654" lon="2.43297">
        <ele>704</ele>
        <time>2022-05-02T20:57:32Z</time>
      </trkpt>
      <trkpt lat="42.98657" lon="2.43293">
        <ele>704</ele>
        <time>2022-05-02T20:57:33Z</time>
      </trkpt>
      <trkpt lat="42.9866" lon="2.43275">
        <ele>703</ele>
        <time>2022-05-02T20:57:35Z</time>
      </trkpt>
      <trkpt lat="42.98656" lon="2.43251">
        <ele>701</ele>
        <time>2022-05-02T20:57:38Z</time>
      </trkpt>
      <trkpt lat="42.98655" lon="2.43222">
        <ele>703</ele>
        <time>2022-05-02T20:57:42Z</time>
      </trkpt>
      <trkpt lat="42.98656" lon="2.43207">
        <ele>704</ele>
        <time>2022-05-02T20:57:44Z</time>
      </trkpt>
      <trkpt lat="42.9866" lon="2.43185">
        <ele>707</ele>
        <time>2022-05-02T20:57:47Z</time>
      </trkpt>
      <trkpt lat="42.98661" lon="2.43159">
        <ele>709</ele>
        <time>2022-05-02T20:57:51Z</time>
      </trkpt>
      <trkpt lat="42.98659" lon="2.43149">
        <ele>709</ele>
        <time>2022-05-02T20:57:52Z</time>
      </trkpt>
      <trkpt lat="42.98654" lon="2.43136">
        <ele>709</ele>
        <time>2022-05-02T20:57:54Z</time>
      </trkpt>
      <trkpt lat="42.98636" lon="2.4312">
        <ele>705</ele>
        <time>2022-05-02T20:57:58Z</time>
      </trkpt>
      <trkpt lat="42.98627" lon="2.4311">
        <ele>703</ele>
        <time>2022-05-02T20:58:00Z</time>
      </trkpt>
      <trkpt lat="42.98621" lon="2.43096">
        <ele>701</ele>
        <time>2022-05-02T20:58:02Z</time>
      </trkpt>
      <trkpt lat="42.98619" lon="2.43081">
        <ele>702</ele>
        <time>2022-05-02T20:58:04Z</time>
      </trkpt>
      <trkpt lat="42.9862" lon="2.43069">
        <ele>703</ele>
        <time>2022-05-02T20:58:05Z</time>
      </trkpt>
      <trkpt lat="42.98625" lon="2.43049">
        <ele>706</ele>
        <time>2022-05-02T20:58:08Z</time>
      </trkpt>
      <trkpt lat="42.98636" lon="2.43016">
        <ele>712</ele>
        <time>2022-05-02T20:58:13Z</time>
      </trkpt>
      <trkpt lat="42.98639" lon="2.43">
        <ele>714</ele>
        <time>2022-05-02T20:58:15Z</time>
      </trkpt>
      <trkpt lat="42.98638" lon="2.42982">
        <ele>716</ele>
        <time>2022-05-02T20:58:17Z</time>
      </trkpt>
      <trkpt lat="42.98633" lon="2.4296">
        <ele>717</ele>
        <time>2022-05-02T20:58:20Z</time>
      </trkpt>
      <trkpt lat="42.98626" lon="2.42945">
        <ele>717</ele>
        <time>2022-05-02T20:58:23Z</time>
      </trkpt>
      <trkpt lat="42.98617" lon="2.42933">
        <ele>717</ele>
        <time>2022-05-02T20:58:25Z</time>
      </trkpt>
      <trkpt lat="42.98607" lon="2.42924">
        <ele>716</ele>
        <time>2022-05-02T20:58:27Z</time>
      </trkpt>
      <trkpt lat="42.98595" lon="2.42917">
        <ele>714</ele>
        <time>2022-05-02T20:58:29Z</time>
      </trkpt>
      <trkpt lat="42.98582" lon="2.42908">
        <ele>713</ele>
        <time>2022-05-02T20:58:32Z</time>
      </trkpt>
      <trkpt lat="42.98573" lon="2.42895">
        <ele>713</ele>
        <time>2022-05-02T20:58:34Z</time>
      </trkpt>
      <trkpt lat="42.98566" lon="2.4288">
        <ele>713</ele>
        <time>2022-05-02T20:58:37Z</time>
      </trkpt>
      <trkpt lat="42.98562" lon="2.42853">
        <ele>714</ele>
        <time>2022-05-02T20:58:40Z</time>
      </trkpt>
      <trkpt lat="42.9856" lon="2.42796">
        <ele>713</ele>
        <time>2022-05-02T20:58:48Z</time>
      </trkpt>
      <trkpt lat="42.98565" lon="2.42747">
        <ele>713</ele>
        <time>2022-05-02T20:58:54Z</time>
      </trkpt>
      <trkpt lat="42.98575" lon="2.42711">
        <ele>714</ele>
        <time>2022-05-02T20:58:59Z</time>
      </trkpt>
      <trkpt lat="42.98614" lon="2.4262">
        <ele>718</ele>
        <time>2022-05-02T20:59:13Z</time>
      </trkpt>
      <trkpt lat="42.98629" lon="2.4256">
        <ele>717</ele>
        <time>2022-05-02T20:59:21Z</time>
      </trkpt>
      <trkpt lat="42.98639" lon="2.42543">
        <ele>718</ele>
        <time>2022-05-02T20:59:24Z</time>
      </trkpt>
      <trkpt lat="42.98649" lon="2.42531">
        <ele>719</ele>
        <time>2022-05-02T20:59:26Z</time>
      </trkpt>
      <trkpt lat="42.98686" lon="2.42498">
        <ele>720</ele>
        <time>2022-05-02T20:59:34Z</time>
      </trkpt>
      <trkpt lat="42.98707" lon="2.42486">
        <ele>719</ele>
        <time>2022-05-02T20:59:38Z</time>
      </trkpt>
      <trkpt lat="42.98724" lon="2.4248">
        <ele>718</ele>
        <time>2022-05-02T20:59:41Z</time>
      </trkpt>
      <trkpt lat="42.98746" lon="2.42477">
        <ele>718</ele>
        <time>2022-05-02T20:59:45Z</time>
      </trkpt>
      <trkpt lat="42.98764" lon="2.42479">
        <ele>717</ele>
        <time>2022-05-02T20:59:48Z</time>
      </trkpt>
      <trkpt lat="42.98773" lon="2.42484">
        <ele>718</ele>
        <time>2022-05-02T20:59:50Z</time>
      </trkpt>
      <trkpt lat="42.98868" lon="2.42565">
        <ele>720</ele>
        <time>2022-05-02T21:00:10Z</time>
      </trkpt>
      <trkpt lat="42.98905" lon="2.42613">
        <ele>719</ele>
        <time>2022-05-02T21:00:19Z</time>
      </trkpt>
      <trkpt lat="42.98937" lon="2.42645">
        <ele>720</ele>
        <time>2022-05-02T21:00:26Z</time>
      </trkpt>
      <trkpt lat="42.98954" lon="2.42674">
        <ele>720</ele>
        <time>2022-05-02T21:00:31Z</time>
      </trkpt>
      <trkpt lat="42.98969" lon="2.42709">
        <ele>721</ele>
        <time>2022-05-02T21:00:36Z</time>
      </trkpt>
      <trkpt lat="42.98981" lon="2.4273">
        <ele>721</ele>
        <time>2022-05-02T21:00:40Z</time>
      </trkpt>
      <trkpt lat="42.99001" lon="2.42754">
        <ele>721</ele>
        <time>2022-05-02T21:00:45Z</time>
      </trkpt>
      <trkpt lat="42.99031" lon="2.42777">
        <ele>724</ele>
        <time>2022-05-02T21:00:51Z</time>
      </trkpt>
      <trkpt lat="42.99048" lon="2.42787">
        <ele>725</ele>
        <time>2022-05-02T21:00:54Z</time>
      </trkpt>
      <trkpt lat="42.99058" lon="2.42789">
        <ele>725</ele>
        <time>2022-05-02T21:00:56Z</time>
      </trkpt>
      <trkpt lat="42.99066" lon="2.42788">
        <ele>725</ele>
        <time>2022-05-02T21:00:57Z</time>
      </trkpt>
      <trkpt lat="42.99074" lon="2.42785">
        <ele>725</ele>
        <time>2022-05-02T21:00:59Z</time>
      </trkpt>
      <trkpt lat="42.99126" lon="2.42744">
        <ele>728</ele>
        <time>2022-05-02T21:01:09Z</time>
      </trkpt>
      <trkpt lat="42.99142" lon="2.42735">
        <ele>730</ele>
        <time>2022-05-02T21:01:12Z</time>
      </trkpt>
      <trkpt lat="42.99163" lon="2.42728">
        <ele>733</ele>
        <time>2022-05-02T21:01:16Z</time>
      </trkpt>
      <trkpt lat="42.99188" lon="2.42725">
        <ele>734</ele>
        <time>2022-05-02T21:01:21Z</time>
      </trkpt>
      <trkpt lat="42.99237" lon="2.42734">
        <ele>736</ele>
        <time>2022-05-02T21:01:29Z</time>
      </trkpt>
      <trkpt lat="42.99258" lon="2.4274">
        <ele>738</ele>
        <time>2022-05-02T21:01:33Z</time>
      </trkpt>
      <trkpt lat="42.99276" lon="2.42741">
        <ele>739</ele>
        <time>2022-05-02T21:01:37Z</time>
      </trkpt>
      <trkpt lat="42.99302" lon="2.42736">
        <ele>739</ele>
        <time>2022-05-02T21:01:41Z</time>
      </trkpt>
      <trkpt lat="42.99365" lon="2.42718">
        <ele>738</ele>
        <time>2022-05-02T21:01:53Z</time>
      </trkpt>
      <trkpt lat="42.99389" lon="2.42714">
        <ele>738</ele>
        <time>2022-05-02T21:01:57Z</time>
      </trkpt>
      <trkpt lat="42.99405" lon="2.42719">
        <ele>739</ele>
        <time>2022-05-02T21:02:00Z</time>
      </trkpt>
      <trkpt lat="42.99447" lon="2.42739">
        <ele>739</ele>
        <time>2022-05-02T21:02:08Z</time>
      </trkpt>
      <trkpt lat="42.99482" lon="2.42767">
        <ele>738</ele>
        <time>2022-05-02T21:02:15Z</time>
      </trkpt>
      <trkpt lat="42.99491" lon="2.42788">
        <ele>739</ele>
        <time>2022-05-02T21:02:18Z</time>
      </trkpt>
      <trkpt lat="42.99504" lon="2.42828">
        <ele>742</ele>
        <time>2022-05-02T21:02:24Z</time>
      </trkpt>
      <trkpt lat="42.99512" lon="2.42842">
        <ele>744</ele>
        <time>2022-05-02T21:02:26Z</time>
      </trkpt>
      <trkpt lat="42.9952" lon="2.42848">
        <ele>745</ele>
        <time>2022-05-02T21:02:28Z</time>
      </trkpt>
      <trkpt lat="42.99533" lon="2.42847">
        <ele>745</ele>
        <time>2022-05-02T21:02:30Z</time>
      </trkpt>
      <trkpt lat="42.99547" lon="2.42839">
        <ele>744</ele>
        <time>2022-05-02T21:02:33Z</time>
      </trkpt>
      <trkpt lat="42.9956" lon="2.4282">
        <ele>743</ele>
        <time>2022-05-02T21:02:36Z</time>
      </trkpt>
      <trkpt lat="42.99572" lon="2.42805">
        <ele>742</ele>
        <time>2022-05-02T21:02:39Z</time>
      </trkpt>
      <trkpt lat="42.99594" lon="2.42795">
        <ele>742</ele>
        <time>2022-05-02T21:02:43Z</time>
      </trkpt>
      <trkpt lat="42.99609" lon="2.42797">
        <ele>744</ele>
        <time>2022-05-02T21:02:46Z</time>
      </trkpt>
      <trkpt lat="42.99646" lon="2.42809">
        <ele>748</ele>
        <time>2022-05-02T21:02:53Z</time>
      </trkpt>
      <trkpt lat="42.99657" lon="2.42806">
        <ele>749</ele>
        <time>2022-05-02T21:02:55Z</time>
      </trkpt>
      <trkpt lat="42.99664" lon="2.42798">
        <ele>750</ele>
        <time>2022-05-02T21:02:56Z</time>
      </trkpt>
      <trkpt lat="42.9967" lon="2.42785">
        <ele>751</ele>
        <time>2022-05-02T21:02:58Z</time>
      </trkpt>
      <trkpt lat="42.99676" lon="2.42683">
        <ele>754</ele>
        <time>2022-05-02T21:03:12Z</time>
      </trkpt>
      <trkpt lat="42.99667" lon="2.42621">
        <ele>755</ele>
        <time>2022-05-02T21:03:20Z</time>
      </trkpt>
      <trkpt lat="42.99659" lon="2.42593">
        <ele>757</ele>
        <time>2022-05-02T21:03:24Z</time>
      </trkpt>
      <trkpt lat="42.99649" lon="2.42571">
        <ele>757</ele>
        <time>2022-05-02T21:03:27Z</time>
      </trkpt>
      <trkpt lat="42.9964" lon="2.42557">
        <ele>757</ele>
        <time>2022-05-02T21:03:30Z</time>
      </trkpt>
      <trkpt lat="42.9963" lon="2.4255">
        <ele>757</ele>
        <time>2022-05-02T21:03:32Z</time>
      </trkpt>
      <trkpt lat="42.99591" lon="2.42537">
        <ele>753</ele>
        <time>2022-05-02T21:03:39Z</time>
      </trkpt>
      <trkpt lat="42.9958" lon="2.4253">
        <ele>752</ele>
        <time>2022-05-02T21:03:41Z</time>
      </trkpt>
      <trkpt lat="42.99572" lon="2.42518">
        <ele>752</ele>
        <time>2022-05-02T21:03:43Z</time>
      </trkpt>
      <trkpt lat="42.99569" lon="2.42502">
        <ele>752</ele>
        <time>2022-05-02T21:03:45Z</time>
      </trkpt>
      <trkpt lat="42.99568" lon="2.42485">
        <ele>751</ele>
        <time>2022-05-02T21:03:47Z</time>
      </trkpt>
      <trkpt lat="42.99571" lon="2.42466">
        <ele>751</ele>
        <time>2022-05-02T21:03:50Z</time>
      </trkpt>
      <trkpt lat="42.9958" lon="2.42439">
        <ele>752</ele>
        <time>2022-05-02T21:03:54Z</time>
      </trkpt>
      <trkpt lat="42.99604" lon="2.42394">
        <ele>755</ele>
        <time>2022-05-02T21:04:01Z</time>
      </trkpt>
      <trkpt lat="42.9967" lon="2.42261">
        <ele>758</ele>
        <time>2022-05-02T21:04:22Z</time>
      </trkpt>
      <trkpt lat="42.99681" lon="2.42244">
        <ele>758</ele>
        <time>2022-05-02T21:04:25Z</time>
      </trkpt>
      <trkpt lat="42.99696" lon="2.42231">
        <ele>757</ele>
        <time>2022-05-02T21:04:28Z</time>
      </trkpt>
      <trkpt lat="42.99709" lon="2.42229">
        <ele>756</ele>
        <time>2022-05-02T21:04:30Z</time>
      </trkpt>
      <trkpt lat="42.99722" lon="2.42234">
        <ele>756</ele>
        <time>2022-05-02T21:04:33Z</time>
      </trkpt>
      <trkpt lat="42.99738" lon="2.42253">
        <ele>756</ele>
        <time>2022-05-02T21:04:36Z</time>
      </trkpt>
      <trkpt lat="42.9975" lon="2.42272">
        <ele>757</ele>
        <time>2022-05-02T21:04:40Z</time>
      </trkpt>
      <trkpt lat="42.99762" lon="2.42302">
        <ele>755</ele>
        <time>2022-05-02T21:04:44Z</time>
      </trkpt>
      <trkpt lat="42.9978" lon="2.42355">
        <ele>757</ele>
        <time>2022-05-02T21:04:52Z</time>
      </trkpt>
      <trkpt lat="42.99791" lon="2.42378">
        <ele>758</ele>
        <time>2022-05-02T21:04:55Z</time>
      </trkpt>
      <trkpt lat="42.99805" lon="2.42399">
        <ele>758</ele>
        <time>2022-05-02T21:04:59Z</time>
      </trkpt>
      <trkpt lat="42.9982" lon="2.42414">
        <ele>758</ele>
        <time>2022-05-02T21:05:02Z</time>
      </trkpt>
      <trkpt lat="42.99835" lon="2.42422">
        <ele>758</ele>
        <time>2022-05-02T21:05:05Z</time>
      </trkpt>
      <trkpt lat="42.9985" lon="2.42428">
        <ele>758</ele>
        <time>2022-05-02T21:05:08Z</time>
      </trkpt>
      <trkpt lat="42.99884" lon="2.42428">
        <ele>755</ele>
        <time>2022-05-02T21:05:14Z</time>
      </trkpt>
      <trkpt lat="42.99951" lon="2.42414">
        <ele>745</ele>
        <time>2022-05-02T21:05:26Z</time>
      </trkpt>
      <trkpt lat="42.99966" lon="2.42415">
        <ele>745</ele>
        <time>2022-05-02T21:05:29Z</time>
      </trkpt>
      <trkpt lat="42.99999" lon="2.4243">
        <ele>749</ele>
        <time>2022-05-02T21:05:35Z</time>
      </trkpt>
      <trkpt lat="43.00042" lon="2.42444">
        <ele>746</ele>
        <time>2022-05-02T21:05:43Z</time>
      </trkpt>
      <trkpt lat="43.00058" lon="2.42453">
        <ele>746</ele>
        <time>2022-05-02T21:05:46Z</time>
      </trkpt>
      <trkpt lat="43.0008" lon="2.42459">
        <ele>744</ele>
        <time>2022-05-02T21:05:50Z</time>
      </trkpt>
      <trkpt lat="43.00122" lon="2.42469">
        <ele>741</ele>
        <time>2022-05-02T21:05:58Z</time>
      </trkpt>
      <trkpt lat="43.00157" lon="2.42471">
        <ele>737</ele>
        <time>2022-05-02T21:06:04Z</time>
      </trkpt>
      <trkpt lat="43.00163" lon="2.42473">
        <ele>736</ele>
        <time>2022-05-02T21:06:05Z</time>
      </trkpt>
      <trkpt lat="43.00185" lon="2.42494">
        <ele>742</ele>
        <time>2022-05-02T21:06:10Z</time>
      </trkpt>
      <trkpt lat="43.00193" lon="2.42497">
        <ele>742</ele>
        <time>2022-05-02T21:06:11Z</time>
      </trkpt>
      <trkpt lat="43.00199" lon="2.42496">
        <ele>742</ele>
        <time>2022-05-02T21:06:12Z</time>
      </trkpt>
      <trkpt lat="43.00216" lon="2.42484">
        <ele>738</ele>
        <time>2022-05-02T21:06:16Z</time>
      </trkpt>
      <trkpt lat="43.00249" lon="2.42462">
        <ele>732</ele>
        <time>2022-05-02T21:06:22Z</time>
      </trkpt>
      <trkpt lat="43.0027" lon="2.4245">
        <ele>726</ele>
        <time>2022-05-02T21:06:26Z</time>
      </trkpt>
      <trkpt lat="43.00277" lon="2.42449">
        <ele>726</ele>
        <time>2022-05-02T21:06:27Z</time>
      </trkpt>
      <trkpt lat="43.00284" lon="2.4245">
        <ele>725</ele>
        <time>2022-05-02T21:06:29Z</time>
      </trkpt>
      <trkpt lat="43.00289" lon="2.42454">
        <ele>726</ele>
        <time>2022-05-02T21:06:30Z</time>
      </trkpt>
      <trkpt lat="43.00303" lon="2.42475">
        <ele>730</ele>
        <time>2022-05-02T21:06:33Z</time>
      </trkpt>
      <trkpt lat="43.0031" lon="2.4248">
        <ele>731</ele>
        <time>2022-05-02T21:06:35Z</time>
      </trkpt>
      <trkpt lat="43.00319" lon="2.42484">
        <ele>731</ele>
        <time>2022-05-02T21:06:36Z</time>
      </trkpt>
      <trkpt lat="43.00427" lon="2.42491">
        <ele>722</ele>
        <time>2022-05-02T21:06:56Z</time>
      </trkpt>
      <trkpt lat="43.00453" lon="2.42486">
        <ele>719</ele>
        <time>2022-05-02T21:07:00Z</time>
      </trkpt>
      <trkpt lat="43.00465" lon="2.4248">
        <ele>718</ele>
        <time>2022-05-02T21:07:03Z</time>
      </trkpt>
      <trkpt lat="43.00475" lon="2.4247">
        <ele>718</ele>
        <time>2022-05-02T21:07:05Z</time>
      </trkpt>
      <trkpt lat="43.00483" lon="2.42456">
        <ele>717</ele>
        <time>2022-05-02T21:07:07Z</time>
      </trkpt>
      <trkpt lat="43.00486" lon="2.42449">
        <ele>718</ele>
        <time>2022-05-02T21:07:08Z</time>
      </trkpt>
      <trkpt lat="43.00486" lon="2.42443">
        <ele>718</ele>
        <time>2022-05-02T21:07:09Z</time>
      </trkpt>
      <trkpt lat="43.00486" lon="2.42439">
        <ele>718</ele>
        <time>2022-05-02T21:07:10Z</time>
      </trkpt>
      <trkpt lat="43.00459" lon="2.42339">
        <ele>710</ele>
        <time>2022-05-02T21:07:23Z</time>
      </trkpt>
      <trkpt lat="43.00454" lon="2.42312">
        <ele>706</ele>
        <time>2022-05-02T21:07:27Z</time>
      </trkpt>
      <trkpt lat="43.00453" lon="2.423">
        <ele>705</ele>
        <time>2022-05-02T21:07:29Z</time>
      </trkpt>
      <trkpt lat="43.00455" lon="2.42279">
        <ele>704</ele>
        <time>2022-05-02T21:07:31Z</time>
      </trkpt>
      <trkpt lat="43.00482" lon="2.42165">
        <ele>702</ele>
        <time>2022-05-02T21:07:47Z</time>
      </trkpt>
      <trkpt lat="43.00483" lon="2.42115">
        <ele>699</ele>
        <time>2022-05-02T21:07:53Z</time>
      </trkpt>
      <trkpt lat="43.00485" lon="2.42102">
        <ele>699</ele>
        <time>2022-05-02T21:07:55Z</time>
      </trkpt>
      <trkpt lat="43.00488" lon="2.4209">
        <ele>699</ele>
        <time>2022-05-02T21:07:57Z</time>
      </trkpt>
      <trkpt lat="43.00502" lon="2.42058">
        <ele>702</ele>
        <time>2022-05-02T21:08:02Z</time>
      </trkpt>
      <trkpt lat="43.00504" lon="2.42047">
        <ele>702</ele>
        <time>2022-05-02T21:08:03Z</time>
      </trkpt>
      <trkpt lat="43.00501" lon="2.42019">
        <ele>700</ele>
        <time>2022-05-02T21:08:07Z</time>
      </trkpt>
      <trkpt lat="43.00494" lon="2.41994">
        <ele>697</ele>
        <time>2022-05-02T21:08:10Z</time>
      </trkpt>
      <trkpt lat="43.00481" lon="2.41954">
        <ele>693</ele>
        <time>2022-05-02T21:08:16Z</time>
      </trkpt>
      <trkpt lat="43.00477" lon="2.41937">
        <ele>692</ele>
        <time>2022-05-02T21:08:18Z</time>
      </trkpt>
      <trkpt lat="43.00474" lon="2.41915">
        <ele>690</ele>
        <time>2022-05-02T21:08:21Z</time>
      </trkpt>
      <trkpt lat="43.00477" lon="2.41865">
        <ele>686</ele>
        <time>2022-05-02T21:08:28Z</time>
      </trkpt>
      <trkpt lat="43.00484" lon="2.41834">
        <ele>684</ele>
        <time>2022-05-02T21:08:32Z</time>
      </trkpt>
      <trkpt lat="43.00493" lon="2.41803">
        <ele>682</ele>
        <time>2022-05-02T21:08:36Z</time>
      </trkpt>
      <trkpt lat="43.0051" lon="2.41734">
        <ele>675</ele>
        <time>2022-05-02T21:08:46Z</time>
      </trkpt>
      <trkpt lat="43.00514" lon="2.41724">
        <ele>674</ele>
        <time>2022-05-02T21:08:47Z</time>
      </trkpt>
      <trkpt lat="43.00531" lon="2.41702">
        <ele>673</ele>
        <time>2022-05-02T21:08:51Z</time>
      </trkpt>
      <trkpt lat="43.00559" lon="2.41679">
        <ele>673</ele>
        <time>2022-05-02T21:08:57Z</time>
      </trkpt>
      <trkpt lat="43.00573" lon="2.41672">
        <ele>673</ele>
        <time>2022-05-02T21:09:00Z</time>
      </trkpt>
      <trkpt lat="43.00593" lon="2.4167">
        <ele>675</ele>
        <time>2022-05-02T21:09:04Z</time>
      </trkpt>
      <trkpt lat="43.00629" lon="2.41684">
        <ele>682</ele>
        <time>2022-05-02T21:09:10Z</time>
      </trkpt>
      <trkpt lat="43.00641" lon="2.41684">
        <ele>684</ele>
        <time>2022-05-02T21:09:12Z</time>
      </trkpt>
      <trkpt lat="43.00649" lon="2.4168">
        <ele>684</ele>
        <time>2022-05-02T21:09:14Z</time>
      </trkpt>
      <trkpt lat="43.00656" lon="2.41672">
        <ele>683</ele>
        <time>2022-05-02T21:09:15Z</time>
      </trkpt>
      <trkpt lat="43.00663" lon="2.41654">
        <ele>681</ele>
        <time>2022-05-02T21:09:18Z</time>
      </trkpt>
      <trkpt lat="43.00669" lon="2.41632">
        <ele>679</ele>
        <time>2022-05-02T21:09:21Z</time>
      </trkpt>
      <trkpt lat="43.00672" lon="2.41609">
        <ele>677</ele>
        <time>2022-05-02T21:09:24Z</time>
      </trkpt>
      <trkpt lat="43.00671" lon="2.41594">
        <ele>674</ele>
        <time>2022-05-02T21:09:26Z</time>
      </trkpt>
      <trkpt lat="43.00668" lon="2.41568">
        <ele>669</ele>
        <time>2022-05-02T21:09:30Z</time>
      </trkpt>
      <trkpt lat="43.00668" lon="2.41559">
        <ele>668</ele>
        <time>2022-05-02T21:09:31Z</time>
      </trkpt>
      <trkpt lat="43.0067" lon="2.4155">
        <ele>668</ele>
        <time>2022-05-02T21:09:32Z</time>
      </trkpt>
      <trkpt lat="43.00685" lon="2.41524">
        <ele>670</ele>
        <time>2022-05-02T21:09:36Z</time>
      </trkpt>
      <trkpt lat="43.0069" lon="2.41514">
        <ele>670</ele>
        <time>2022-05-02T21:09:38Z</time>
      </trkpt>
      <trkpt lat="43.00693" lon="2.41462">
        <ele>665</ele>
        <time>2022-05-02T21:09:45Z</time>
      </trkpt>
      <trkpt lat="43.00698" lon="2.41444">
        <ele>665</ele>
        <time>2022-05-02T21:09:47Z</time>
      </trkpt>
      <trkpt lat="43.0071" lon="2.41415">
        <ele>665</ele>
        <time>2022-05-02T21:09:51Z</time>
      </trkpt>
      <trkpt lat="43.00736" lon="2.41362">
        <ele>662</ele>
        <time>2022-05-02T21:10:00Z</time>
      </trkpt>
      <trkpt lat="43.00761" lon="2.41321">
        <ele>659</ele>
        <time>2022-05-02T21:10:07Z</time>
      </trkpt>
      <trkpt lat="43.00768" lon="2.41311">
        <ele>658</ele>
        <time>2022-05-02T21:10:09Z</time>
      </trkpt>
      <trkpt lat="43.0078" lon="2.41296">
        <ele>657</ele>
        <time>2022-05-02T21:10:11Z</time>
      </trkpt>
      <trkpt lat="43.00792" lon="2.41284">
        <ele>657</ele>
        <time>2022-05-02T21:10:14Z</time>
      </trkpt>
      <trkpt lat="43.00889" lon="2.41215">
        <ele>653</ele>
        <time>2022-05-02T21:10:34Z</time>
      </trkpt>
      <trkpt lat="43.00907" lon="2.41197">
        <ele>652</ele>
        <time>2022-05-02T21:10:37Z</time>
      </trkpt>
      <trkpt lat="43.00932" lon="2.41158">
        <ele>648</ele>
        <time>2022-05-02T21:10:44Z</time>
      </trkpt>
      <trkpt lat="43.00947" lon="2.41138">
        <ele>648</ele>
        <time>2022-05-02T21:10:48Z</time>
      </trkpt>
      <trkpt lat="43.0096" lon="2.41128">
        <ele>648</ele>
        <time>2022-05-02T21:10:51Z</time>
      </trkpt>
      <trkpt lat="43.00978" lon="2.4112">
        <ele>650</ele>
        <time>2022-05-02T21:10:54Z</time>
      </trkpt>
      <trkpt lat="43.00986" lon="2.41114">
        <ele>650</ele>
        <time>2022-05-02T21:10:56Z</time>
      </trkpt>
      <trkpt lat="43.00991" lon="2.41104">
        <ele>651</ele>
        <time>2022-05-02T21:10:57Z</time>
      </trkpt>
      <trkpt lat="43.00993" lon="2.41095">
        <ele>650</ele>
        <time>2022-05-02T21:10:58Z</time>
      </trkpt>
      <trkpt lat="43.00992" lon="2.41075">
        <ele>649</ele>
        <time>2022-05-02T21:11:01Z</time>
      </trkpt>
      <trkpt lat="43.00984" lon="2.41011">
        <ele>644</ele>
        <time>2022-05-02T21:11:09Z</time>
      </trkpt>
      <trkpt lat="43.00984" lon="2.40993">
        <ele>643</ele>
        <time>2022-05-02T21:11:12Z</time>
      </trkpt>
      <trkpt lat="43.00988" lon="2.40975">
        <ele>642</ele>
        <time>2022-05-02T21:11:14Z</time>
      </trkpt>
      <trkpt lat="43.01" lon="2.40946">
        <ele>639</ele>
        <time>2022-05-02T21:11:19Z</time>
      </trkpt>
      <trkpt lat="43.01011" lon="2.40918">
        <ele>638</ele>
        <time>2022-05-02T21:11:23Z</time>
      </trkpt>
      <trkpt lat="43.01016" lon="2.40907">
        <ele>639</ele>
        <time>2022-05-02T21:11:24Z</time>
      </trkpt>
      <trkpt lat="43.01046" lon="2.40847">
        <ele>638</ele>
        <time>2022-05-02T21:11:34Z</time>
      </trkpt>
      <trkpt lat="43.01091" lon="2.40771">
        <ele>635</ele>
        <time>2022-05-02T21:11:47Z</time>
      </trkpt>
      <trkpt lat="43.01103" lon="2.40743">
        <ele>634</ele>
        <time>2022-05-02T21:11:51Z</time>
      </trkpt>
      <trkpt lat="43.0111" lon="2.40712">
        <ele>632</ele>
        <time>2022-05-02T21:11:55Z</time>
      </trkpt>
      <trkpt lat="43.0111" lon="2.40689">
        <ele>630</ele>
        <time>2022-05-02T21:11:58Z</time>
      </trkpt>
      <trkpt lat="43.01106" lon="2.40647">
        <ele>625</ele>
        <time>2022-05-02T21:12:04Z</time>
      </trkpt>
      <trkpt lat="43.01107" lon="2.40637">
        <ele>624</ele>
        <time>2022-05-02T21:12:05Z</time>
      </trkpt>
      <trkpt lat="43.01114" lon="2.40617">
        <ele>622</ele>
        <time>2022-05-02T21:12:08Z</time>
      </trkpt>
      <trkpt lat="43.01124" lon="2.40602">
        <ele>621</ele>
        <time>2022-05-02T21:12:10Z</time>
      </trkpt>
      <trkpt lat="43.01142" lon="2.40589">
        <ele>620</ele>
        <time>2022-05-02T21:12:14Z</time>
      </trkpt>
      <trkpt lat="43.01155" lon="2.40586">
        <ele>619</ele>
        <time>2022-05-02T21:12:16Z</time>
      </trkpt>
      <trkpt lat="43.01198" lon="2.40581">
        <ele>619</ele>
        <time>2022-05-02T21:12:24Z</time>
      </trkpt>
      <trkpt lat="43.01228" lon="2.4057">
        <ele>618</ele>
        <time>2022-05-02T21:12:30Z</time>
      </trkpt>
      <trkpt lat="43.01262" lon="2.40545">
        <ele>614</ele>
        <time>2022-05-02T21:12:36Z</time>
      </trkpt>
      <trkpt lat="43.0129" lon="2.40519">
        <ele>611</ele>
        <time>2022-05-02T21:12:42Z</time>
      </trkpt>
      <trkpt lat="43.01304" lon="2.40509">
        <ele>609</ele>
        <time>2022-05-02T21:12:45Z</time>
      </trkpt>
      <trkpt lat="43.01319" lon="2.40505">
        <ele>608</ele>
        <time>2022-05-02T21:12:48Z</time>
      </trkpt>
      <trkpt lat="43.0134" lon="2.40505">
        <ele>608</ele>
        <time>2022-05-02T21:12:52Z</time>
      </trkpt>
      <trkpt lat="43.01368" lon="2.40508">
        <ele>608</ele>
        <time>2022-05-02T21:12:57Z</time>
      </trkpt>
      <trkpt lat="43.01388" lon="2.40506">
        <ele>607</ele>
        <time>2022-05-02T21:13:00Z</time>
      </trkpt>
      <trkpt lat="43.01402" lon="2.40503">
        <ele>606</ele>
        <time>2022-05-02T21:13:03Z</time>
      </trkpt>
      <trkpt lat="43.01418" lon="2.40494">
        <ele>604</ele>
        <time>2022-05-02T21:13:06Z</time>
      </trkpt>
      <trkpt lat="43.01482" lon="2.40447">
        <ele>602</ele>
        <time>2022-05-02T21:13:19Z</time>
      </trkpt>
      <trkpt lat="43.01507" lon="2.40437">
        <ele>602</ele>
        <time>2022-05-02T21:13:23Z</time>
      </trkpt>
      <trkpt lat="43.0152" lon="2.40429">
        <ele>603</ele>
        <time>2022-05-02T21:13:26Z</time>
      </trkpt>
      <trkpt lat="43.01531" lon="2.40417">
        <ele>602</ele>
        <time>2022-05-02T21:13:28Z</time>
      </trkpt>
      <trkpt lat="43.01558" lon="2.40377">
        <ele>600</ele>
        <time>2022-05-02T21:13:36Z</time>
      </trkpt>
      <trkpt lat="43.01591" lon="2.40334">
        <ele>599</ele>
        <time>2022-05-02T21:13:44Z</time>
      </trkpt>
      <trkpt lat="43.01596" lon="2.40323">
        <ele>599</ele>
        <time>2022-05-02T21:13:45Z</time>
      </trkpt>
      <trkpt lat="43.01599" lon="2.40308">
        <ele>599</ele>
        <time>2022-05-02T21:13:47Z</time>
      </trkpt>
      <trkpt lat="43.01595" lon="2.40243">
        <ele>593</ele>
        <time>2022-05-02T21:13:56Z</time>
      </trkpt>
      <trkpt lat="43.01595" lon="2.40205">
        <ele>591</ele>
        <time>2022-05-02T21:14:01Z</time>
      </trkpt>
      <trkpt lat="43.01597" lon="2.40179">
        <ele>590</ele>
        <time>2022-05-02T21:14:04Z</time>
      </trkpt>
      <trkpt lat="43.01618" lon="2.40087">
        <ele>588</ele>
        <time>2022-05-02T21:14:17Z</time>
      </trkpt>
      <trkpt lat="43.01633" lon="2.40051">
        <ele>587</ele>
        <time>2022-05-02T21:14:22Z</time>
      </trkpt>
      <trkpt lat="43.01652" lon="2.40016">
        <ele>586</ele>
        <time>2022-05-02T21:14:28Z</time>
      </trkpt>
      <trkpt lat="43.01665" lon="2.39995">
        <ele>585</ele>
        <time>2022-05-02T21:14:31Z</time>
      </trkpt>
      <trkpt lat="43.01706" lon="2.39921">
        <ele>584</ele>
        <time>2022-05-02T21:14:43Z</time>
      </trkpt>
      <trkpt lat="43.01754" lon="2.39841">
        <ele>580</ele>
        <time>2022-05-02T21:14:57Z</time>
      </trkpt>
      <trkpt lat="43.01784" lon="2.39783">
        <ele>581</ele>
        <time>2022-05-02T21:15:06Z</time>
      </trkpt>
      <trkpt lat="43.01849" lon="2.39672">
        <ele>570</ele>
        <time>2022-05-02T21:15:25Z</time>
      </trkpt>
      <trkpt lat="43.01859" lon="2.39648">
        <ele>570</ele>
        <time>2022-05-02T21:15:28Z</time>
      </trkpt>
      <trkpt lat="43.01862" lon="2.39637">
        <ele>570</ele>
        <time>2022-05-02T21:15:30Z</time>
      </trkpt>
      <trkpt lat="43.01862" lon="2.39618">
        <ele>569</ele>
        <time>2022-05-02T21:15:32Z</time>
      </trkpt>
      <trkpt lat="43.01854" lon="2.39573">
        <ele>567</ele>
        <time>2022-05-02T21:15:38Z</time>
      </trkpt>
      <trkpt lat="43.01852" lon="2.39548">
        <ele>565</ele>
        <time>2022-05-02T21:15:42Z</time>
      </trkpt>
      <trkpt lat="43.01854" lon="2.3951">
        <ele>563</ele>
        <time>2022-05-02T21:15:47Z</time>
      </trkpt>
      <trkpt lat="43.01857" lon="2.3949">
        <ele>562</ele>
        <time>2022-05-02T21:15:49Z</time>
      </trkpt>
      <trkpt lat="43.01865" lon="2.39457">
        <ele>561</ele>
        <time>2022-05-02T21:15:54Z</time>
      </trkpt>
      <trkpt lat="43.01879" lon="2.3942">
        <ele>559</ele>
        <time>2022-05-02T21:15:59Z</time>
      </trkpt>
      <trkpt lat="43.0189" lon="2.39395">
        <ele>558</ele>
        <time>2022-05-02T21:16:03Z</time>
      </trkpt>
      <trkpt lat="43.01909" lon="2.39364">
        <ele>556</ele>
        <time>2022-05-02T21:16:08Z</time>
      </trkpt>
      <trkpt lat="43.01916" lon="2.39359">
        <ele>555</ele>
        <time>2022-05-02T21:16:10Z</time>
      </trkpt>
      <trkpt lat="43.0195" lon="2.3931">
        <ele>555</ele>
        <time>2022-05-02T21:16:18Z</time>
      </trkpt>
      <trkpt lat="43.01961" lon="2.39287">
        <ele>554</ele>
        <time>2022-05-02T21:16:22Z</time>
      </trkpt>
      <trkpt lat="43.01965" lon="2.39276">
        <ele>553</ele>
        <time>2022-05-02T21:16:24Z</time>
      </trkpt>
      <trkpt lat="43.0197" lon="2.39262">
        <ele>552</ele>
        <time>2022-05-02T21:16:26Z</time>
      </trkpt>
      <trkpt lat="43.01973" lon="2.39255">
        <ele>551</ele>
        <time>2022-05-02T21:16:27Z</time>
      </trkpt>
      <trkpt lat="43.01975" lon="2.39249">
        <ele>550</ele>
        <time>2022-05-02T21:16:27Z</time>
      </trkpt>
      <trkpt lat="43.01995" lon="2.39187">
        <ele>547</ele>
        <time>2022-05-02T21:16:36Z</time>
      </trkpt>
      <trkpt lat="43.01999" lon="2.3918">
        <ele>547</ele>
        <time>2022-05-02T21:16:37Z</time>
      </trkpt>
      <trkpt lat="43.02007" lon="2.39182">
        <ele>546</ele>
        <time>2022-05-02T21:16:39Z</time>
      </trkpt>
      <trkpt lat="43.02024" lon="2.39182">
        <ele>545</ele>
        <time>2022-05-02T21:16:42Z</time>
      </trkpt>
      <trkpt lat="43.02036" lon="2.39187">
        <ele>545</ele>
        <time>2022-05-02T21:16:44Z</time>
      </trkpt>
      <trkpt lat="43.02041" lon="2.39178">
        <ele>544</ele>
        <time>2022-05-02T21:16:46Z</time>
      </trkpt>
      <trkpt lat="43.02036" lon="2.39187">
        <ele>545</ele>
        <time>2022-05-02T21:16:47Z</time>
      </trkpt>
      <trkpt lat="43.02039" lon="2.39188">
        <ele>544</ele>
        <time>2022-05-02T21:16:48Z</time>
      </trkpt>
      <trkpt lat="43.02046" lon="2.39196">
        <ele>545</ele>
        <time>2022-05-02T21:16:49Z</time>
      </trkpt>
      <trkpt lat="43.02053" lon="2.3921">
        <ele>545</ele>
        <time>2022-05-02T21:16:51Z</time>
      </trkpt>
      <trkpt lat="43.02065" lon="2.39304">
        <ele>554</ele>
        <time>2022-05-02T21:17:04Z</time>
      </trkpt>
      <trkpt lat="43.02069" lon="2.39316">
        <ele>556</ele>
        <time>2022-05-02T21:17:06Z</time>
      </trkpt>
      <trkpt lat="43.02075" lon="2.39325">
        <ele>556</ele>
        <time>2022-05-02T21:17:07Z</time>
      </trkpt>
      <trkpt lat="43.02079" lon="2.39328">
        <ele>557</ele>
        <time>2022-05-02T21:17:08Z</time>
      </trkpt>
      <trkpt lat="43.02092" lon="2.39332">
        <ele>556</ele>
        <time>2022-05-02T21:17:10Z</time>
      </trkpt>
      <trkpt lat="43.02112" lon="2.39334">
        <ele>556</ele>
        <time>2022-05-02T21:17:14Z</time>
      </trkpt>
      <trkpt lat="43.02118" lon="2.39338">
        <ele>556</ele>
        <time>2022-05-02T21:17:15Z</time>
      </trkpt>
      <trkpt lat="43.02156" lon="2.39396">
        <ele>561</ele>
        <time>2022-05-02T21:17:25Z</time>
      </trkpt>
      <trkpt lat="43.02162" lon="2.39417">
        <ele>563</ele>
        <time>2022-05-02T21:17:28Z</time>
      </trkpt>
      <trkpt lat="43.02171" lon="2.39537">
        <ele>578</ele>
        <time>2022-05-02T21:17:44Z</time>
      </trkpt>
      <trkpt lat="43.02176" lon="2.39559">
        <ele>581</ele>
        <time>2022-05-02T21:17:47Z</time>
      </trkpt>
      <trkpt lat="43.02209" lon="2.39666">
        <ele>594</ele>
        <time>2022-05-02T21:18:02Z</time>
      </trkpt>
      <trkpt lat="43.02236" lon="2.39736">
        <ele>598</ele>
        <time>2022-05-02T21:18:12Z</time>
      </trkpt>
      <trkpt lat="43.0225" lon="2.39767">
        <ele>599</ele>
        <time>2022-05-02T21:18:17Z</time>
      </trkpt>
      <trkpt lat="43.02253" lon="2.39771">
        <ele>601</ele>
        <time>2022-05-02T21:18:18Z</time>
      </trkpt>
      <trkpt lat="43.0226" lon="2.39775">
        <ele>603</ele>
        <time>2022-05-02T21:18:19Z</time>
      </trkpt>
      <trkpt lat="43.02267" lon="2.39774">
        <ele>604</ele>
        <time>2022-05-02T21:18:20Z</time>
      </trkpt>
      <trkpt lat="43.02274" lon="2.3977">
        <ele>605</ele>
        <time>2022-05-02T21:18:22Z</time>
      </trkpt>
      <trkpt lat="43.02279" lon="2.39761">
        <ele>605</ele>
        <time>2022-05-02T21:18:23Z</time>
      </trkpt>
      <trkpt lat="43.02286" lon="2.39726">
        <ele>605</ele>
        <time>2022-05-02T21:18:28Z</time>
      </trkpt>
      <trkpt lat="43.02291" lon="2.39717">
        <ele>606</ele>
        <time>2022-05-02T21:18:29Z</time>
      </trkpt>
      <trkpt lat="43.023" lon="2.39716">
        <ele>608</ele>
        <time>2022-05-02T21:18:31Z</time>
      </trkpt>
      <trkpt lat="43.02309" lon="2.39725">
        <ele>610</ele>
        <time>2022-05-02T21:18:33Z</time>
      </trkpt>
      <trkpt lat="43.02311" lon="2.39736">
        <ele>611</ele>
        <time>2022-05-02T21:18:34Z</time>
      </trkpt>
      <trkpt lat="43.0231" lon="2.39754">
        <ele>611</ele>
        <time>2022-05-02T21:18:37Z</time>
      </trkpt>
      <trkpt lat="43.02289" lon="2.39882">
        <ele>616</ele>
        <time>2022-05-02T21:18:54Z</time>
      </trkpt>
      <trkpt lat="43.0229" lon="2.39932">
        <ele>615</ele>
        <time>2022-05-02T21:19:00Z</time>
      </trkpt>
      <trkpt lat="43.02295" lon="2.39948">
        <ele>613</ele>
        <time>2022-05-02T21:19:03Z</time>
      </trkpt>
      <trkpt lat="43.023" lon="2.39958">
        <ele>612</ele>
        <time>2022-05-02T21:19:04Z</time>
      </trkpt>
      <trkpt lat="43.02329" lon="2.39977">
        <ele>609</ele>
        <time>2022-05-02T21:19:10Z</time>
      </trkpt>
      <trkpt lat="43.0234" lon="2.39989">
        <ele>608</ele>
        <time>2022-05-02T21:19:12Z</time>
      </trkpt>
      <trkpt lat="43.02352" lon="2.40008">
        <ele>605</ele>
        <time>2022-05-02T21:19:16Z</time>
      </trkpt>
      <trkpt lat="43.02378" lon="2.40064">
        <ele>596</ele>
        <time>2022-05-02T21:19:24Z</time>
      </trkpt>
      <trkpt lat="43.02395" lon="2.40094">
        <ele>594</ele>
        <time>2022-05-02T21:19:29Z</time>
      </trkpt>
      <trkpt lat="43.02399" lon="2.40109">
        <ele>594</ele>
        <time>2022-05-02T21:19:31Z</time>
      </trkpt>
      <trkpt lat="43.02399" lon="2.40124">
        <ele>592</ele>
        <time>2022-05-02T21:19:33Z</time>
      </trkpt>
      <trkpt lat="43.02393" lon="2.40159">
        <ele>587</ele>
        <time>2022-05-02T21:19:38Z</time>
      </trkpt>
      <trkpt lat="43.02395" lon="2.40208">
        <ele>583</ele>
        <time>2022-05-02T21:19:44Z</time>
      </trkpt>
      <trkpt lat="43.02398" lon="2.4022">
        <ele>583</ele>
        <time>2022-05-02T21:19:46Z</time>
      </trkpt>
      <trkpt lat="43.02418" lon="2.40268">
        <ele>582</ele>
        <time>2022-05-02T21:19:53Z</time>
      </trkpt>
      <trkpt lat="43.02429" lon="2.40329">
        <ele>576</ele>
        <time>2022-05-02T21:20:01Z</time>
      </trkpt>
      <trkpt lat="43.02432" lon="2.40337">
        <ele>575</ele>
        <time>2022-05-02T21:20:03Z</time>
      </trkpt>
      <trkpt lat="43.02436" lon="2.40342">
        <ele>576</ele>
        <time>2022-05-02T21:20:03Z</time>
      </trkpt>
      <trkpt lat="43.02453" lon="2.40351">
        <ele>580</ele>
        <time>2022-05-02T21:20:07Z</time>
      </trkpt>
      <trkpt lat="43.0246" lon="2.4036">
        <ele>581</ele>
        <time>2022-05-02T21:20:08Z</time>
      </trkpt>
      <trkpt lat="43.02474" lon="2.40386">
        <ele>581</ele>
        <time>2022-05-02T21:20:13Z</time>
      </trkpt>
      <trkpt lat="43.02483" lon="2.40419">
        <ele>580</ele>
        <time>2022-05-02T21:20:17Z</time>
      </trkpt>
      <trkpt lat="43.02486" lon="2.40457">
        <ele>578</ele>
        <time>2022-05-02T21:20:22Z</time>
      </trkpt>
      <trkpt lat="43.02484" lon="2.40514">
        <ele>573</ele>
        <time>2022-05-02T21:20:30Z</time>
      </trkpt>
      <trkpt lat="43.02492" lon="2.40561">
        <ele>572</ele>
        <time>2022-05-02T21:20:36Z</time>
      </trkpt>
      <trkpt lat="43.02506" lon="2.40604">
        <ele>572</ele>
        <time>2022-05-02T21:20:42Z</time>
      </trkpt>
      <trkpt lat="43.02534" lon="2.40678">
        <ele>573</ele>
        <time>2022-05-02T21:20:53Z</time>
      </trkpt>
      <trkpt lat="43.02549" lon="2.40703">
        <ele>575</ele>
        <time>2022-05-02T21:20:57Z</time>
      </trkpt>
      <trkpt lat="43.02554" lon="2.40719">
        <ele>575</ele>
        <time>2022-05-02T21:20:59Z</time>
      </trkpt>
      <trkpt lat="43.02559" lon="2.40761">
        <ele>569</ele>
        <time>2022-05-02T21:21:05Z</time>
      </trkpt>
      <trkpt lat="43.02583" lon="2.40855">
        <ele>560</ele>
        <time>2022-05-02T21:21:18Z</time>
      </trkpt>
      <trkpt lat="43.02596" lon="2.40864">
        <ele>556</ele>
        <time>2022-05-02T21:21:20Z</time>
      </trkpt>
      <trkpt lat="43.02603" lon="2.40863">
        <ele>554</ele>
        <time>2022-05-02T21:21:22Z</time>
      </trkpt>
      <trkpt lat="43.02611" lon="2.40857">
        <ele>555</ele>
        <time>2022-05-02T21:21:23Z</time>
      </trkpt>
      <trkpt lat="43.02638" lon="2.40814">
        <ele>563</ele>
        <time>2022-05-02T21:21:31Z</time>
      </trkpt>
      <trkpt lat="43.02652" lon="2.40798">
        <ele>567</ele>
        <time>2022-05-02T21:21:34Z</time>
      </trkpt>
      <trkpt lat="43.02664" lon="2.40793">
        <ele>568</ele>
        <time>2022-05-02T21:21:36Z</time>
      </trkpt>
      <trkpt lat="43.02675" lon="2.40798">
        <ele>565</ele>
        <time>2022-05-02T21:21:38Z</time>
      </trkpt>
      <trkpt lat="43.02702" lon="2.40833">
        <ele>551</ele>
        <time>2022-05-02T21:21:45Z</time>
      </trkpt>
      <trkpt lat="43.02716" lon="2.40838">
        <ele>547</ele>
        <time>2022-05-02T21:21:47Z</time>
      </trkpt>
      <trkpt lat="43.02734" lon="2.40838">
        <ele>546</ele>
        <time>2022-05-02T21:21:51Z</time>
      </trkpt>
      <trkpt lat="43.02767" lon="2.4083">
        <ele>548</ele>
        <time>2022-05-02T21:21:57Z</time>
      </trkpt>
      <trkpt lat="43.02784" lon="2.40819">
        <ele>552</ele>
        <time>2022-05-02T21:22:00Z</time>
      </trkpt>
      <trkpt lat="43.02801" lon="2.408">
        <ele>559</ele>
        <time>2022-05-02T21:22:04Z</time>
      </trkpt>
      <trkpt lat="43.02817" lon="2.40797">
        <ele>560</ele>
        <time>2022-05-02T21:22:07Z</time>
      </trkpt>
      <trkpt lat="43.0283" lon="2.40803">
        <ele>557</ele>
        <time>2022-05-02T21:22:09Z</time>
      </trkpt>
      <trkpt lat="43.02841" lon="2.40816">
        <ele>550</ele>
        <time>2022-05-02T21:22:12Z</time>
      </trkpt>
      <trkpt lat="43.02858" lon="2.40847">
        <ele>535</ele>
        <time>2022-05-02T21:22:17Z</time>
      </trkpt>
      <trkpt lat="43.02866" lon="2.40856">
        <ele>531</ele>
        <time>2022-05-02T21:22:19Z</time>
      </trkpt>
      <trkpt lat="43.02876" lon="2.40863">
        <ele>527</ele>
        <time>2022-05-02T21:22:21Z</time>
      </trkpt>
      <trkpt lat="43.02888" lon="2.40861">
        <ele>528</ele>
        <time>2022-05-02T21:22:23Z</time>
      </trkpt>
      <trkpt lat="43.02912" lon="2.40822">
        <ele>538</ele>
        <time>2022-05-02T21:22:29Z</time>
      </trkpt>
      <trkpt lat="43.02934" lon="2.40759">
        <ele>548</ele>
        <time>2022-05-02T21:22:38Z</time>
      </trkpt>
      <trkpt lat="43.02938" lon="2.4073">
        <ele>555</ele>
        <time>2022-05-02T21:22:42Z</time>
      </trkpt>
      <trkpt lat="43.02943" lon="2.40713">
        <ele>559</ele>
        <time>2022-05-02T21:22:45Z</time>
      </trkpt>
      <trkpt lat="43.02951" lon="2.40704">
        <ele>559</ele>
        <time>2022-05-02T21:22:47Z</time>
      </trkpt>
      <trkpt lat="43.02961" lon="2.40706">
        <ele>556</ele>
        <time>2022-05-02T21:22:48Z</time>
      </trkpt>
      <trkpt lat="43.02973" lon="2.4072">
        <ele>549</ele>
        <time>2022-05-02T21:22:51Z</time>
      </trkpt>
      <trkpt lat="43.03031" lon="2.40801">
        <ele>523</ele>
        <time>2022-05-02T21:23:06Z</time>
      </trkpt>
      <trkpt lat="43.03045" lon="2.40809">
        <ele>522</ele>
        <time>2022-05-02T21:23:09Z</time>
      </trkpt>
      <trkpt lat="43.03056" lon="2.40822">
        <ele>521</ele>
        <time>2022-05-02T21:23:11Z</time>
      </trkpt>
      <trkpt lat="43.03059" lon="2.40836">
        <ele>519</ele>
        <time>2022-05-02T21:23:13Z</time>
      </trkpt>
      <trkpt lat="43.03051" lon="2.40841">
        <ele>518</ele>
        <time>2022-05-02T21:23:15Z</time>
      </trkpt>
      <trkpt lat="43.03038" lon="2.4084">
        <ele>518</ele>
        <time>2022-05-02T21:23:17Z</time>
      </trkpt>
      <trkpt lat="43.03033" lon="2.40836">
        <ele>518</ele>
        <time>2022-05-02T21:23:18Z</time>
      </trkpt>
      <trkpt lat="43.03014" lon="2.40795">
        <ele>524</ele>
        <time>2022-05-02T21:23:24Z</time>
      </trkpt>
      <trkpt lat="43.03002" lon="2.40781">
        <ele>527</ele>
        <time>2022-05-02T21:23:27Z</time>
      </trkpt>
      <trkpt lat="43.0297" lon="2.40737">
        <ele>545</ele>
        <time>2022-05-02T21:23:35Z</time>
      </trkpt>
      <trkpt lat="43.0296" lon="2.40731">
        <ele>549</ele>
        <time>2022-05-02T21:23:37Z</time>
      </trkpt>
      <trkpt lat="43.02955" lon="2.40734">
        <ele>550</ele>
        <time>2022-05-02T21:23:38Z</time>
      </trkpt>
      <trkpt lat="43.0295" lon="2.40741">
        <ele>549</ele>
        <time>2022-05-02T21:23:39Z</time>
      </trkpt>
      <trkpt lat="43.02943" lon="2.40792">
        <ele>538</ele>
        <time>2022-05-02T21:23:46Z</time>
      </trkpt>
      <trkpt lat="43.02916" lon="2.40879">
        <ele>521</ele>
        <time>2022-05-02T21:23:58Z</time>
      </trkpt>
      <trkpt lat="43.02908" lon="2.409">
        <ele>515</ele>
        <time>2022-05-02T21:24:01Z</time>
      </trkpt>
      <trkpt lat="43.02898" lon="2.40919">
        <ele>508</ele>
        <time>2022-05-02T21:24:05Z</time>
      </trkpt>
      <trkpt lat="43.0289" lon="2.40925">
        <ele>506</ele>
        <time>2022-05-02T21:24:06Z</time>
      </trkpt>
      <trkpt lat="43.02883" lon="2.40925">
        <ele>505</ele>
        <time>2022-05-02T21:24:07Z</time>
      </trkpt>
      <trkpt lat="43.02874" lon="2.40922">
        <ele>505</ele>
        <time>2022-05-02T21:24:09Z</time>
      </trkpt>
      <trkpt lat="43.02855" lon="2.40906">
        <ele>509</ele>
        <time>2022-05-02T21:24:13Z</time>
      </trkpt>
      <trkpt lat="43.02828" lon="2.40874">
        <ele>524</ele>
        <time>2022-05-02T21:24:19Z</time>
      </trkpt>
      <trkpt lat="43.02821" lon="2.4087">
        <ele>526</ele>
        <time>2022-05-02T21:24:21Z</time>
      </trkpt>
      <trkpt lat="43.02815" lon="2.4087">
        <ele>526</ele>
        <time>2022-05-02T21:24:22Z</time>
      </trkpt>
      <trkpt lat="43.02805" lon="2.40881">
        <ele>521</ele>
        <time>2022-05-02T21:24:24Z</time>
      </trkpt>
      <trkpt lat="43.02793" lon="2.40889">
        <ele>518</ele>
        <time>2022-05-02T21:24:26Z</time>
      </trkpt>
      <trkpt lat="43.02744" lon="2.40907">
        <ele>512</ele>
        <time>2022-05-02T21:24:35Z</time>
      </trkpt>
      <trkpt lat="43.0271" lon="2.40931">
        <ele>509</ele>
        <time>2022-05-02T21:24:42Z</time>
      </trkpt>
      <trkpt lat="43.02698" lon="2.40933">
        <ele>510</ele>
        <time>2022-05-02T21:24:44Z</time>
      </trkpt>
      <trkpt lat="43.0268" lon="2.40928">
        <ele>514</ele>
        <time>2022-05-02T21:24:48Z</time>
      </trkpt>
      <trkpt lat="43.02669" lon="2.40928">
        <ele>516</ele>
        <time>2022-05-02T21:24:50Z</time>
      </trkpt>
      <trkpt lat="43.0265" lon="2.40935">
        <ele>519</ele>
        <time>2022-05-02T21:24:53Z</time>
      </trkpt>
      <trkpt lat="43.02639" lon="2.40944">
        <ele>520</ele>
        <time>2022-05-02T21:24:55Z</time>
      </trkpt>
      <trkpt lat="43.02627" lon="2.40958">
        <ele>519</ele>
        <time>2022-05-02T21:24:58Z</time>
      </trkpt>
      <trkpt lat="43.02616" lon="2.40981">
        <ele>515</ele>
        <time>2022-05-02T21:25:02Z</time>
      </trkpt>
      <trkpt lat="43.02607" lon="2.41007">
        <ele>512</ele>
        <time>2022-05-02T21:25:06Z</time>
      </trkpt>
      <trkpt lat="43.02602" lon="2.41046">
        <ele>510</ele>
        <time>2022-05-02T21:25:11Z</time>
      </trkpt>
      <trkpt lat="43.02601" lon="2.41057">
        <ele>510</ele>
        <time>2022-05-02T21:25:12Z</time>
      </trkpt>
      <trkpt lat="43.02608" lon="2.4107">
        <ele>508</ele>
        <time>2022-05-02T21:25:14Z</time>
      </trkpt>
      <trkpt lat="43.02629" lon="2.41078">
        <ele>504</ele>
        <time>2022-05-02T21:25:18Z</time>
      </trkpt>
      <trkpt lat="43.02642" lon="2.41076">
        <ele>502</ele>
        <time>2022-05-02T21:25:20Z</time>
      </trkpt>
      <trkpt lat="43.02662" lon="2.41067">
        <ele>499</ele>
        <time>2022-05-02T21:25:24Z</time>
      </trkpt>
      <trkpt lat="43.02702" lon="2.41029">
        <ele>494</ele>
        <time>2022-05-02T21:25:33Z</time>
      </trkpt>
      <trkpt lat="43.02735" lon="2.41015">
        <ele>490</ele>
        <time>2022-05-02T21:25:39Z</time>
      </trkpt>
      <trkpt lat="43.02754" lon="2.41009">
        <ele>487</ele>
        <time>2022-05-02T21:25:42Z</time>
      </trkpt>
      <trkpt lat="43.02771" lon="2.41008">
        <ele>485</ele>
        <time>2022-05-02T21:25:46Z</time>
      </trkpt>
      <trkpt lat="43.02784" lon="2.4101">
        <ele>484</ele>
        <time>2022-05-02T21:25:48Z</time>
      </trkpt>
      <trkpt lat="43.02795" lon="2.41016">
        <ele>484</ele>
        <time>2022-05-02T21:25:50Z</time>
      </trkpt>
      <trkpt lat="43.02806" lon="2.41024">
        <ele>483</ele>
        <time>2022-05-02T21:25:52Z</time>
      </trkpt>
      <trkpt lat="43.02849" lon="2.41075">
        <ele>479</ele>
        <time>2022-05-02T21:26:02Z</time>
      </trkpt>
      <trkpt lat="43.02883" lon="2.41123">
        <ele>476</ele>
        <time>2022-05-02T21:26:11Z</time>
      </trkpt>
      <trkpt lat="43.0291" lon="2.41169">
        <ele>466</ele>
        <time>2022-05-02T21:26:19Z</time>
      </trkpt>
      <trkpt lat="43.02927" lon="2.41224">
        <ele>467</ele>
        <time>2022-05-02T21:26:26Z</time>
      </trkpt>
      <trkpt lat="43.02945" lon="2.41293">
        <ele>467</ele>
        <time>2022-05-02T21:26:36Z</time>
      </trkpt>
      <trkpt lat="43.02958" lon="2.41335">
        <ele>464</ele>
        <time>2022-05-02T21:26:42Z</time>
      </trkpt>
      <trkpt lat="43.02986" lon="2.41406">
        <ele>454</ele>
        <time>2022-05-02T21:26:52Z</time>
      </trkpt>
      <trkpt lat="43.03023" lon="2.41536">
        <ele>439</ele>
        <time>2022-05-02T21:27:11Z</time>
      </trkpt>
      <trkpt lat="43.03031" lon="2.41558">
        <ele>435</ele>
        <time>2022-05-02T21:27:14Z</time>
      </trkpt>
      <trkpt lat="43.03049" lon="2.41559">
        <ele>433</ele>
        <time>2022-05-02T21:27:17Z</time>
      </trkpt>
      <trkpt lat="43.03075" lon="2.4156">
        <ele>431</ele>
        <time>2022-05-02T21:27:22Z</time>
      </trkpt>
      <trkpt lat="43.03089" lon="2.41552">
        <ele>431</ele>
        <time>2022-05-02T21:27:24Z</time>
      </trkpt>
      <trkpt lat="43.03108" lon="2.41536">
        <ele>433</ele>
        <time>2022-05-02T21:27:28Z</time>
      </trkpt>
      <trkpt lat="43.03216" lon="2.41487">
        <ele>438</ele>
        <time>2022-05-02T21:27:48Z</time>
      </trkpt>
      <trkpt lat="43.03321" lon="2.41462">
        <ele>439</ele>
        <time>2022-05-02T21:28:07Z</time>
      </trkpt>
      <trkpt lat="43.03341" lon="2.41459">
        <ele>438</ele>
        <time>2022-05-02T21:28:11Z</time>
      </trkpt>
      <trkpt lat="43.03358" lon="2.41461">
        <ele>437</ele>
        <time>2022-05-02T21:28:14Z</time>
      </trkpt>
      <trkpt lat="43.03371" lon="2.41465">
        <ele>436</ele>
        <time>2022-05-02T21:28:16Z</time>
      </trkpt>
      <trkpt lat="43.0343" lon="2.41497">
        <ele>423</ele>
        <time>2022-05-02T21:28:28Z</time>
      </trkpt>
      <trkpt lat="43.0344" lon="2.415">
        <ele>422</ele>
        <time>2022-05-02T21:28:30Z</time>
      </trkpt>
      <trkpt lat="43.03492" lon="2.41502">
        <ele>422</ele>
        <time>2022-05-02T21:28:39Z</time>
      </trkpt>
      <trkpt lat="43.0351" lon="2.41507">
        <ele>422</ele>
        <time>2022-05-02T21:28:42Z</time>
      </trkpt>
      <trkpt lat="43.03552" lon="2.41523">
        <ele>422</ele>
        <time>2022-05-02T21:28:50Z</time>
      </trkpt>
      <trkpt lat="43.03564" lon="2.41529">
        <ele>421</ele>
        <time>2022-05-02T21:28:52Z</time>
      </trkpt>
      <trkpt lat="43.0357" lon="2.41534">
        <ele>420</ele>
        <time>2022-05-02T21:28:53Z</time>
      </trkpt>
      <trkpt lat="43.03589" lon="2.41561">
        <ele>416</ele>
        <time>2022-05-02T21:28:58Z</time>
      </trkpt>
      <trkpt lat="43.03595" lon="2.41567">
        <ele>415</ele>
        <time>2022-05-02T21:29:00Z</time>
      </trkpt>
      <trkpt lat="43.03607" lon="2.41569">
        <ele>414</ele>
        <time>2022-05-02T21:29:02Z</time>
      </trkpt>
      <trkpt lat="43.03641" lon="2.41566">
        <ele>414</ele>
        <time>2022-05-02T21:29:08Z</time>
      </trkpt>
      <trkpt lat="43.03669" lon="2.41567">
        <ele>414</ele>
        <time>2022-05-02T21:29:13Z</time>
      </trkpt>
      <trkpt lat="43.03685" lon="2.41574">
        <ele>416</ele>
        <time>2022-05-02T21:29:16Z</time>
      </trkpt>
      <trkpt lat="43.03702" lon="2.41588">
        <ele>417</ele>
        <time>2022-05-02T21:29:19Z</time>
      </trkpt>
      <trkpt lat="43.03713" lon="2.41602">
        <ele>418</ele>
        <time>2022-05-02T21:29:22Z</time>
      </trkpt>
      <trkpt lat="43.03723" lon="2.41641">
        <ele>415</ele>
        <time>2022-05-02T21:29:27Z</time>
      </trkpt>
      <trkpt lat="43.03725" lon="2.41659">
        <ele>414</ele>
        <time>2022-05-02T21:29:30Z</time>
      </trkpt>
      <trkpt lat="43.03725" lon="2.41669">
        <ele>412</ele>
        <time>2022-05-02T21:29:31Z</time>
      </trkpt>
      <trkpt lat="43.03724" lon="2.41683">
        <ele>412</ele>
        <time>2022-05-02T21:29:33Z</time>
      </trkpt>
      <trkpt lat="43.03713" lon="2.41736">
        <ele>409</ele>
        <time>2022-05-02T21:29:40Z</time>
      </trkpt>
      <trkpt lat="43.037" lon="2.41775">
        <ele>408</ele>
        <time>2022-05-02T21:29:46Z</time>
      </trkpt>
      <trkpt lat="43.03698" lon="2.41785">
        <ele>407</ele>
        <time>2022-05-02T21:29:47Z</time>
      </trkpt>
      <trkpt lat="43.03699" lon="2.41798">
        <ele>407</ele>
        <time>2022-05-02T21:29:49Z</time>
      </trkpt>
      <trkpt lat="43.03711" lon="2.41859">
        <ele>403</ele>
        <time>2022-05-02T21:29:57Z</time>
      </trkpt>
      <trkpt lat="43.03715" lon="2.41872">
        <ele>402</ele>
        <time>2022-05-02T21:29:59Z</time>
      </trkpt>
      <trkpt lat="43.0372" lon="2.41879">
        <ele>401</ele>
        <time>2022-05-02T21:30:00Z</time>
      </trkpt>
      <trkpt lat="43.03726" lon="2.41884">
        <ele>400</ele>
        <time>2022-05-02T21:30:01Z</time>
      </trkpt>
      <trkpt lat="43.03732" lon="2.41888">
        <ele>399</ele>
        <time>2022-05-02T21:30:02Z</time>
      </trkpt>
      <trkpt lat="43.038" lon="2.41883">
        <ele>394</ele>
        <time>2022-05-02T21:30:14Z</time>
      </trkpt>
      <trkpt lat="43.03807" lon="2.41879">
        <ele>394</ele>
        <time>2022-05-02T21:30:16Z</time>
      </trkpt>
      <trkpt lat="43.03814" lon="2.41866">
        <ele>394</ele>
        <time>2022-05-02T21:30:18Z</time>
      </trkpt>
      <trkpt lat="43.03817" lon="2.41857">
        <ele>394</ele>
        <time>2022-05-02T21:30:19Z</time>
      </trkpt>
      <trkpt lat="43.03819" lon="2.41827">
        <ele>395</ele>
        <time>2022-05-02T21:30:23Z</time>
      </trkpt>
      <trkpt lat="43.03825" lon="2.41804">
        <ele>398</ele>
        <time>2022-05-02T21:30:26Z</time>
      </trkpt>
      <trkpt lat="43.03833" lon="2.41793">
        <ele>399</ele>
        <time>2022-05-02T21:30:28Z</time>
      </trkpt>
      <trkpt lat="43.0384" lon="2.41786">
        <ele>400</ele>
        <time>2022-05-02T21:30:30Z</time>
      </trkpt>
      <trkpt lat="43.03851" lon="2.41781">
        <ele>402</ele>
        <time>2022-05-02T21:30:32Z</time>
      </trkpt>
      <trkpt lat="43.03862" lon="2.41781">
        <ele>402</ele>
        <time>2022-05-02T21:30:34Z</time>
      </trkpt>
      <trkpt lat="43.03875" lon="2.41792">
        <ele>401</ele>
        <time>2022-05-02T21:30:37Z</time>
      </trkpt>
      <trkpt lat="43.03895" lon="2.41809">
        <ele>401</ele>
        <time>2022-05-02T21:30:41Z</time>
      </trkpt>
      <trkpt lat="43.03918" lon="2.41834">
        <ele>400</ele>
        <time>2022-05-02T21:30:46Z</time>
      </trkpt>
      <trkpt lat="43.03928" lon="2.41857">
        <ele>402</ele>
        <time>2022-05-02T21:30:49Z</time>
      </trkpt>
      <trkpt lat="43.03932" lon="2.41876">
        <ele>402</ele>
        <time>2022-05-02T21:30:52Z</time>
      </trkpt>
      <trkpt lat="43.03933" lon="2.4189">
        <ele>401</ele>
        <time>2022-05-02T21:30:54Z</time>
      </trkpt>
      <trkpt lat="43.0392" lon="2.4196">
        <ele>394</ele>
        <time>2022-05-02T21:31:03Z</time>
      </trkpt>
      <trkpt lat="43.03918" lon="2.41973">
        <ele>393</ele>
        <time>2022-05-02T21:31:05Z</time>
      </trkpt>
      <trkpt lat="43.03918" lon="2.41983">
        <ele>393</ele>
        <time>2022-05-02T21:31:06Z</time>
      </trkpt>
      <trkpt lat="43.03923" lon="2.41996">
        <ele>393</ele>
        <time>2022-05-02T21:31:08Z</time>
      </trkpt>
      <trkpt lat="43.0393" lon="2.42005">
        <ele>394</ele>
        <time>2022-05-02T21:31:10Z</time>
      </trkpt>
      <trkpt lat="43.03947" lon="2.42017">
        <ele>395</ele>
        <time>2022-05-02T21:31:13Z</time>
      </trkpt>
      <trkpt lat="43.0398" lon="2.42034">
        <ele>395</ele>
        <time>2022-05-02T21:31:20Z</time>
      </trkpt>
      <trkpt lat="43.03998" lon="2.42038">
        <ele>393</ele>
        <time>2022-05-02T21:31:23Z</time>
      </trkpt>
      <trkpt lat="43.04075" lon="2.42044">
        <ele>388</ele>
        <time>2022-05-02T21:31:37Z</time>
      </trkpt>
      <trkpt lat="43.04089" lon="2.42041">
        <ele>388</ele>
        <time>2022-05-02T21:31:39Z</time>
      </trkpt>
      <trkpt lat="43.04111" lon="2.42027">
        <ele>387</ele>
        <time>2022-05-02T21:31:43Z</time>
      </trkpt>
      <trkpt lat="43.0418" lon="2.41997">
        <ele>382</ele>
        <time>2022-05-02T21:31:56Z</time>
      </trkpt>
      <trkpt lat="43.04215" lon="2.41989">
        <ele>383</ele>
        <time>2022-05-02T21:32:03Z</time>
      </trkpt>
      <trkpt lat="43.04225" lon="2.4199">
        <ele>383</ele>
        <time>2022-05-02T21:32:04Z</time>
      </trkpt>
      <trkpt lat="43.04241" lon="2.41995">
        <ele>381</ele>
        <time>2022-05-02T21:32:07Z</time>
      </trkpt>
      <trkpt lat="43.04265" lon="2.42008">
        <ele>381</ele>
        <time>2022-05-02T21:32:12Z</time>
      </trkpt>
      <trkpt lat="43.04285" lon="2.42012">
        <ele>381</ele>
        <time>2022-05-02T21:32:15Z</time>
      </trkpt>
      <trkpt lat="43.04317" lon="2.42014">
        <ele>382</ele>
        <time>2022-05-02T21:32:21Z</time>
      </trkpt>
      <trkpt lat="43.04347" lon="2.42008">
        <ele>382</ele>
        <time>2022-05-02T21:32:27Z</time>
      </trkpt>
      <trkpt lat="43.04386" lon="2.42011">
        <ele>381</ele>
        <time>2022-05-02T21:32:34Z</time>
      </trkpt>
      <trkpt lat="43.04406" lon="2.42019">
        <ele>380</ele>
        <time>2022-05-02T21:32:37Z</time>
      </trkpt>
      <trkpt lat="43.04448" lon="2.42039">
        <ele>381</ele>
        <time>2022-05-02T21:32:45Z</time>
      </trkpt>
      <trkpt lat="43.04461" lon="2.42047">
        <ele>381</ele>
        <time>2022-05-02T21:32:48Z</time>
      </trkpt>
      <trkpt lat="43.04471" lon="2.42056">
        <ele>380</ele>
        <time>2022-05-02T21:32:50Z</time>
      </trkpt>
      <trkpt lat="43.04476" lon="2.42066">
        <ele>378</ele>
        <time>2022-05-02T21:32:51Z</time>
      </trkpt>
      <trkpt lat="43.04481" lon="2.42079">
        <ele>376</ele>
        <time>2022-05-02T21:32:53Z</time>
      </trkpt>
      <trkpt lat="43.04484" lon="2.42096">
        <ele>375</ele>
        <time>2022-05-02T21:32:56Z</time>
      </trkpt>
      <trkpt lat="43.04485" lon="2.421">
        <ele>375</ele>
        <time>2022-05-02T21:32:56Z</time>
      </trkpt>
      <trkpt lat="43.04493" lon="2.42115">
        <ele>375</ele>
        <time>2022-05-02T21:32:59Z</time>
      </trkpt>
      <trkpt lat="43.04502" lon="2.42125">
        <ele>374</ele>
        <time>2022-05-02T21:33:01Z</time>
      </trkpt>
      <trkpt lat="43.04514" lon="2.42135">
        <ele>373</ele>
        <time>2022-05-02T21:33:03Z</time>
      </trkpt>
      <trkpt lat="43.04531" lon="2.42137">
        <ele>373</ele>
        <time>2022-05-02T21:33:06Z</time>
      </trkpt>
      <trkpt lat="43.04537" lon="2.42135">
        <ele>373</ele>
        <time>2022-05-02T21:33:07Z</time>
      </trkpt>
      <trkpt lat="43.04546" lon="2.42126">
        <ele>373</ele>
        <time>2022-05-02T21:33:09Z</time>
      </trkpt>
      <trkpt lat="43.04574" lon="2.42089">
        <ele>370</ele>
        <time>2022-05-02T21:33:16Z</time>
      </trkpt>
      <trkpt lat="43.04583" lon="2.42084">
        <ele>369</ele>
        <time>2022-05-02T21:33:18Z</time>
      </trkpt>
      <trkpt lat="43.04593" lon="2.42085">
        <ele>369</ele>
        <time>2022-05-02T21:33:20Z</time>
      </trkpt>
      <trkpt lat="43.04598" lon="2.42085">
        <ele>370</ele>
        <time>2022-05-02T21:33:21Z</time>
      </trkpt>
      <trkpt lat="43.04611" lon="2.42085">
        <ele>370</ele>
        <time>2022-05-02T21:33:23Z</time>
      </trkpt>
      <trkpt lat="43.04621" lon="2.42088">
        <ele>371</ele>
        <time>2022-05-02T21:33:25Z</time>
      </trkpt>
      <trkpt lat="43.04629" lon="2.42084">
        <ele>371</ele>
        <time>2022-05-02T21:33:26Z</time>
      </trkpt>
      <trkpt lat="43.04634" lon="2.42078">
        <ele>371</ele>
        <time>2022-05-02T21:33:27Z</time>
      </trkpt>
      <trkpt lat="43.0466" lon="2.42036">
        <ele>372</ele>
        <time>2022-05-02T21:33:35Z</time>
      </trkpt>
      <trkpt lat="43.0467" lon="2.42021">
        <ele>372</ele>
        <time>2022-05-02T21:33:37Z</time>
      </trkpt>
      <trkpt lat="43.04699" lon="2.41992">
        <ele>378</ele>
        <time>2022-05-02T21:33:44Z</time>
      </trkpt>
      <trkpt lat="43.04712" lon="2.41982">
        <ele>380</ele>
        <time>2022-05-02T21:33:46Z</time>
      </trkpt>
      <trkpt lat="43.04708" lon="2.41993">
        <ele>380</ele>
        <time>2022-05-02T21:33:48Z</time>
      </trkpt>
      <trkpt lat="43.04685" lon="2.42017">
        <ele>376</ele>
        <time>2022-05-02T21:33:53Z</time>
      </trkpt>
      <trkpt lat="43.04679" lon="2.42029">
        <ele>375</ele>
        <time>2022-05-02T21:33:55Z</time>
      </trkpt>
      <trkpt lat="43.04675" lon="2.42057">
        <ele>374</ele>
        <time>2022-05-02T21:33:59Z</time>
      </trkpt>
      <trkpt lat="43.04675" lon="2.4208">
        <ele>374</ele>
        <time>2022-05-02T21:34:02Z</time>
      </trkpt>
      <trkpt lat="43.04677" lon="2.42093">
        <ele>375</ele>
        <time>2022-05-02T21:34:03Z</time>
      </trkpt>
      <trkpt lat="43.04681" lon="2.42104">
        <ele>376</ele>
        <time>2022-05-02T21:34:05Z</time>
      </trkpt>
      <trkpt lat="43.04687" lon="2.42115">
        <ele>378</ele>
        <time>2022-05-02T21:34:07Z</time>
      </trkpt>
      <trkpt lat="43.04695" lon="2.42125">
        <ele>379</ele>
        <time>2022-05-02T21:34:09Z</time>
      </trkpt>
      <trkpt lat="43.04805" lon="2.42231">
        <ele>393</ele>
        <time>2022-05-02T21:34:33Z</time>
      </trkpt>
      <trkpt lat="43.04816" lon="2.42245">
        <ele>394</ele>
        <time>2022-05-02T21:34:35Z</time>
      </trkpt>
      <trkpt lat="43.0484" lon="2.42277">
        <ele>395</ele>
        <time>2022-05-02T21:34:41Z</time>
      </trkpt>
      <trkpt lat="43.04846" lon="2.42291">
        <ele>395</ele>
        <time>2022-05-02T21:34:43Z</time>
      </trkpt>
      <trkpt lat="43.0486" lon="2.42333">
        <ele>391</ele>
        <time>2022-05-02T21:34:49Z</time>
      </trkpt>
      <trkpt lat="43.04865" lon="2.42341">
        <ele>391</ele>
        <time>2022-05-02T21:34:51Z</time>
      </trkpt>
      <trkpt lat="43.04886" lon="2.42359">
        <ele>395</ele>
        <time>2022-05-02T21:34:55Z</time>
      </trkpt>
      <trkpt lat="43.04893" lon="2.42367">
        <ele>396</ele>
        <time>2022-05-02T21:34:57Z</time>
      </trkpt>
      <trkpt lat="43.04899" lon="2.42378">
        <ele>395</ele>
        <time>2022-05-02T21:34:58Z</time>
      </trkpt>
      <trkpt lat="43.04909" lon="2.42407">
        <ele>392</ele>
        <time>2022-05-02T21:35:03Z</time>
      </trkpt>
      <trkpt lat="43.04918" lon="2.42422">
        <ele>392</ele>
        <time>2022-05-02T21:35:05Z</time>
      </trkpt>
      <trkpt lat="43.04945" lon="2.42455">
        <ele>397</ele>
        <time>2022-05-02T21:35:12Z</time>
      </trkpt>
      <trkpt lat="43.04968" lon="2.42493">
        <ele>396</ele>
        <time>2022-05-02T21:35:18Z</time>
      </trkpt>
      <trkpt lat="43.04978" lon="2.42502">
        <ele>397</ele>
        <time>2022-05-02T21:35:20Z</time>
      </trkpt>
      <trkpt lat="43.04988" lon="2.42505">
        <ele>399</ele>
        <time>2022-05-02T21:35:22Z</time>
      </trkpt>
      <trkpt lat="43.05" lon="2.42506">
        <ele>401</ele>
        <time>2022-05-02T21:35:24Z</time>
      </trkpt>
      <trkpt lat="43.05014" lon="2.42504">
        <ele>404</ele>
        <time>2022-05-02T21:35:27Z</time>
      </trkpt>
      <trkpt lat="43.05069" lon="2.4248">
        <ele>418</ele>
        <time>2022-05-02T21:35:37Z</time>
      </trkpt>
      <trkpt lat="43.05077" lon="2.42482">
        <ele>419</ele>
        <time>2022-05-02T21:35:38Z</time>
      </trkpt>
      <trkpt lat="43.05082" lon="2.42487">
        <ele>418</ele>
        <time>2022-05-02T21:35:39Z</time>
      </trkpt>
      <trkpt lat="43.05085" lon="2.42498">
        <ele>415</ele>
        <time>2022-05-02T21:35:41Z</time>
      </trkpt>
      <trkpt lat="43.05083" lon="2.4251">
        <ele>414</ele>
        <time>2022-05-02T21:35:43Z</time>
      </trkpt>
      <trkpt lat="43.05064" lon="2.42537">
        <ele>411</ele>
        <time>2022-05-02T21:35:47Z</time>
      </trkpt>
      <trkpt lat="43.0506" lon="2.42545">
        <ele>410</ele>
        <time>2022-05-02T21:35:49Z</time>
      </trkpt>
      <trkpt lat="43.05048" lon="2.42595">
        <ele>406</ele>
        <time>2022-05-02T21:35:56Z</time>
      </trkpt>
      <trkpt lat="43.05048" lon="2.42608">
        <ele>406</ele>
        <time>2022-05-02T21:35:57Z</time>
      </trkpt>
      <trkpt lat="43.05052" lon="2.4262">
        <ele>408</ele>
        <time>2022-05-02T21:35:59Z</time>
      </trkpt>
      <trkpt lat="43.05066" lon="2.42639">
        <ele>413</ele>
        <time>2022-05-02T21:36:02Z</time>
      </trkpt>
      <trkpt lat="43.0507" lon="2.42651">
        <ele>415</ele>
        <time>2022-05-02T21:36:04Z</time>
      </trkpt>
      <trkpt lat="43.05076" lon="2.42689">
        <ele>420</ele>
        <time>2022-05-02T21:36:09Z</time>
      </trkpt>
      <trkpt lat="43.05076" lon="2.42702">
        <ele>421</ele>
        <time>2022-05-02T21:36:11Z</time>
      </trkpt>
      <trkpt lat="43.05074" lon="2.42712">
        <ele>422</ele>
        <time>2022-05-02T21:36:12Z</time>
      </trkpt>
      <trkpt lat="43.05053" lon="2.42742">
        <ele>416</ele>
        <time>2022-05-02T21:36:18Z</time>
      </trkpt>
      <trkpt lat="43.05047" lon="2.42759">
        <ele>415</ele>
        <time>2022-05-02T21:36:20Z</time>
      </trkpt>
      <trkpt lat="43.05043" lon="2.42777">
        <ele>414</ele>
        <time>2022-05-02T21:36:23Z</time>
      </trkpt>
      <trkpt lat="43.05043" lon="2.42794">
        <ele>414</ele>
        <time>2022-05-02T21:36:25Z</time>
      </trkpt>
      <trkpt lat="43.05051" lon="2.42842">
        <ele>419</ele>
        <time>2022-05-02T21:36:31Z</time>
      </trkpt>
      <trkpt lat="43.05058" lon="2.42868">
        <ele>419</ele>
        <time>2022-05-02T21:36:35Z</time>
      </trkpt>
      <trkpt lat="43.05068" lon="2.42891">
        <ele>420</ele>
        <time>2022-05-02T21:36:38Z</time>
      </trkpt>
      <trkpt lat="43.05093" lon="2.42935">
        <ele>425</ele>
        <time>2022-05-02T21:36:46Z</time>
      </trkpt>
      <trkpt lat="43.05125" lon="2.42987">
        <ele>433</ele>
        <time>2022-05-02T21:36:54Z</time>
      </trkpt>
      <trkpt lat="43.0513" lon="2.42997">
        <ele>434</ele>
        <time>2022-05-02T21:36:56Z</time>
      </trkpt>
      <trkpt lat="43.05134" lon="2.43033">
        <ele>428</ele>
        <time>2022-05-02T21:37:01Z</time>
      </trkpt>
      <trkpt lat="43.05145" lon="2.43046">
        <ele>429</ele>
        <time>2022-05-02T21:37:03Z</time>
      </trkpt>
      <trkpt lat="43.05187" lon="2.43062">
        <ele>435</ele>
        <time>2022-05-02T21:37:11Z</time>
      </trkpt>
      <trkpt lat="43.05216" lon="2.43096">
        <ele>432</ele>
        <time>2022-05-02T21:37:18Z</time>
      </trkpt>
      <trkpt lat="43.05227" lon="2.43103">
        <ele>433</ele>
        <time>2022-05-02T21:37:20Z</time>
      </trkpt>
      <trkpt lat="43.05255" lon="2.43101">
        <ele>438</ele>
        <time>2022-05-02T21:37:25Z</time>
      </trkpt>
      <trkpt lat="43.05265" lon="2.43096">
        <ele>438</ele>
        <time>2022-05-02T21:37:27Z</time>
      </trkpt>
      <trkpt lat="43.05274" lon="2.43083">
        <ele>440</ele>
        <time>2022-05-02T21:37:29Z</time>
      </trkpt>
      <trkpt lat="43.05338" lon="2.4292">
        <ele>462</ele>
        <time>2022-05-02T21:37:53Z</time>
      </trkpt>
      <trkpt lat="43.05345" lon="2.4291">
        <ele>464</ele>
        <time>2022-05-02T21:37:55Z</time>
      </trkpt>
      <trkpt lat="43.05356" lon="2.42907">
        <ele>466</ele>
        <time>2022-05-02T21:37:57Z</time>
      </trkpt>
      <trkpt lat="43.05364" lon="2.42909">
        <ele>466</ele>
        <time>2022-05-02T21:37:58Z</time>
      </trkpt>
      <trkpt lat="43.05376" lon="2.42925">
        <ele>464</ele>
        <time>2022-05-02T21:38:01Z</time>
      </trkpt>
      <trkpt lat="43.05388" lon="2.42967">
        <ele>460</ele>
        <time>2022-05-02T21:38:07Z</time>
      </trkpt>
      <trkpt lat="43.05393" lon="2.43022">
        <ele>457</ele>
        <time>2022-05-02T21:38:15Z</time>
      </trkpt>
      <trkpt lat="43.05398" lon="2.43034">
        <ele>458</ele>
        <time>2022-05-02T21:38:16Z</time>
      </trkpt>
      <trkpt lat="43.0541" lon="2.43054">
        <ele>461</ele>
        <time>2022-05-02T21:38:20Z</time>
      </trkpt>
      <trkpt lat="43.05413" lon="2.43064">
        <ele>462</ele>
        <time>2022-05-02T21:38:21Z</time>
      </trkpt>
      <trkpt lat="43.05412" lon="2.43077">
        <ele>462</ele>
        <time>2022-05-02T21:38:23Z</time>
      </trkpt>
      <trkpt lat="43.05403" lon="2.43102">
        <ele>458</ele>
        <time>2022-05-02T21:38:26Z</time>
      </trkpt>
      <trkpt lat="43.05402" lon="2.43118">
        <ele>457</ele>
        <time>2022-05-02T21:38:28Z</time>
      </trkpt>
      <trkpt lat="43.05404" lon="2.43133">
        <ele>457</ele>
        <time>2022-05-02T21:38:30Z</time>
      </trkpt>
      <trkpt lat="43.05414" lon="2.43165">
        <ele>459</ele>
        <time>2022-05-02T21:38:35Z</time>
      </trkpt>
      <trkpt lat="43.05425" lon="2.43189">
        <ele>459</ele>
        <time>2022-05-02T21:38:39Z</time>
      </trkpt>
      <trkpt lat="43.05451" lon="2.4323">
        <ele>460</ele>
        <time>2022-05-02T21:38:46Z</time>
      </trkpt>
      <trkpt lat="43.05466" lon="2.43259">
        <ele>459</ele>
        <time>2022-05-02T21:38:50Z</time>
      </trkpt>
      <trkpt lat="43.05472" lon="2.43267">
        <ele>459</ele>
        <time>2022-05-02T21:38:52Z</time>
      </trkpt>
      <trkpt lat="43.05479" lon="2.43271">
        <ele>461</ele>
        <time>2022-05-02T21:38:53Z</time>
      </trkpt>
      <trkpt lat="43.05501" lon="2.43273">
        <ele>468</ele>
        <time>2022-05-02T21:38:57Z</time>
      </trkpt>
      <trkpt lat="43.05529" lon="2.43285">
        <ele>468</ele>
        <time>2022-05-02T21:39:02Z</time>
      </trkpt>
      <trkpt lat="43.05537" lon="2.43285">
        <ele>469</ele>
        <time>2022-05-02T21:39:04Z</time>
      </trkpt>
      <trkpt lat="43.05545" lon="2.43279">
        <ele>471</ele>
        <time>2022-05-02T21:39:05Z</time>
      </trkpt>
      <trkpt lat="43.05568" lon="2.43244">
        <ele>474</ele>
        <time>2022-05-02T21:39:12Z</time>
      </trkpt>
      <trkpt lat="43.05591" lon="2.43193">
        <ele>481</ele>
        <time>2022-05-02T21:39:19Z</time>
      </trkpt>
      <trkpt lat="43.05619" lon="2.43139">
        <ele>488</ele>
        <time>2022-05-02T21:39:28Z</time>
      </trkpt>
      <trkpt lat="43.05667" lon="2.4308">
        <ele>486</ele>
        <time>2022-05-02T21:39:39Z</time>
      </trkpt>
      <trkpt lat="43.0567" lon="2.43071">
        <ele>487</ele>
        <time>2022-05-02T21:39:41Z</time>
      </trkpt>
      <trkpt lat="43.0567" lon="2.43062">
        <ele>488</ele>
        <time>2022-05-02T21:39:42Z</time>
      </trkpt>
      <trkpt lat="43.05668" lon="2.43051">
        <ele>489</ele>
        <time>2022-05-02T21:39:43Z</time>
      </trkpt>
      <trkpt lat="43.05664" lon="2.43044">
        <ele>489</ele>
        <time>2022-05-02T21:39:44Z</time>
      </trkpt>
      <trkpt lat="43.05658" lon="2.4304">
        <ele>491</ele>
        <time>2022-05-02T21:39:46Z</time>
      </trkpt>
      <trkpt lat="43.05652" lon="2.4304">
        <ele>492</ele>
        <time>2022-05-02T21:39:47Z</time>
      </trkpt>
      <trkpt lat="43.05645" lon="2.43042">
        <ele>492</ele>
        <time>2022-05-02T21:39:48Z</time>
      </trkpt>
      <trkpt lat="43.05641" lon="2.43047">
        <ele>493</ele>
        <time>2022-05-02T21:39:49Z</time>
      </trkpt>
      <trkpt lat="43.05639" lon="2.43055">
        <ele>492</ele>
        <time>2022-05-02T21:39:50Z</time>
      </trkpt>
      <trkpt lat="43.05637" lon="2.43085">
        <ele>490</ele>
        <time>2022-05-02T21:39:54Z</time>
      </trkpt>
      <trkpt lat="43.05635" lon="2.43093">
        <ele>490</ele>
        <time>2022-05-02T21:39:55Z</time>
      </trkpt>
      <trkpt lat="43.05631" lon="2.43098">
        <ele>490</ele>
        <time>2022-05-02T21:39:56Z</time>
      </trkpt>
      <trkpt lat="43.05626" lon="2.431">
        <ele>491</ele>
        <time>2022-05-02T21:39:57Z</time>
      </trkpt>
      <trkpt lat="43.05605" lon="2.43101">
        <ele>493</ele>
        <time>2022-05-02T21:40:01Z</time>
      </trkpt>
      <trkpt lat="43.056" lon="2.43104">
        <ele>493</ele>
        <time>2022-05-02T21:40:02Z</time>
      </trkpt>
      <trkpt lat="43.05583" lon="2.43134">
        <ele>489</ele>
        <time>2022-05-02T21:40:07Z</time>
      </trkpt>
      <trkpt lat="43.05522" lon="2.43208">
        <ele>480</ele>
        <time>2022-05-02T21:40:21Z</time>
      </trkpt>
      <trkpt lat="43.05515" lon="2.43212">
        <ele>480</ele>
        <time>2022-05-02T21:40:22Z</time>
      </trkpt>
      <trkpt lat="43.05508" lon="2.43212">
        <ele>480</ele>
        <time>2022-05-02T21:40:24Z</time>
      </trkpt>
      <trkpt lat="43.05502" lon="2.43207">
        <ele>481</ele>
        <time>2022-05-02T21:40:25Z</time>
      </trkpt>
      <trkpt lat="43.05497" lon="2.43197">
        <ele>482</ele>
        <time>2022-05-02T21:40:27Z</time>
      </trkpt>
      <trkpt lat="43.05496" lon="2.43185">
        <ele>484</ele>
        <time>2022-05-02T21:40:28Z</time>
      </trkpt>
      <trkpt lat="43.05497" lon="2.43177">
        <ele>486</ele>
        <time>2022-05-02T21:40:29Z</time>
      </trkpt>
      <trkpt lat="43.055" lon="2.43171">
        <ele>488</ele>
        <time>2022-05-02T21:40:30Z</time>
      </trkpt>
      <trkpt lat="43.05506" lon="2.43166">
        <ele>489</ele>
        <time>2022-05-02T21:40:31Z</time>
      </trkpt>
      <trkpt lat="43.05526" lon="2.43154">
        <ele>489</ele>
        <time>2022-05-02T21:40:35Z</time>
      </trkpt>
      <trkpt lat="43.05537" lon="2.4314">
        <ele>490</ele>
        <time>2022-05-02T21:40:38Z</time>
      </trkpt>
      <trkpt lat="43.05543" lon="2.4313">
        <ele>491</ele>
        <time>2022-05-02T21:40:40Z</time>
      </trkpt>
      <trkpt lat="43.05562" lon="2.43078">
        <ele>497</ele>
        <time>2022-05-02T21:40:47Z</time>
      </trkpt>
      <trkpt lat="43.05586" lon="2.43032">
        <ele>503</ele>
        <time>2022-05-02T21:40:55Z</time>
      </trkpt>
      <trkpt lat="43.0559" lon="2.43022">
        <ele>503</ele>
        <time>2022-05-02T21:40:56Z</time>
      </trkpt>
      <trkpt lat="43.05591" lon="2.43011">
        <ele>504</ele>
        <time>2022-05-02T21:40:57Z</time>
      </trkpt>
      <trkpt lat="43.0559" lon="2.43">
        <ele>506</ele>
        <time>2022-05-02T21:40:59Z</time>
      </trkpt>
      <trkpt lat="43.05567" lon="2.42911">
        <ele>509</ele>
        <time>2022-05-02T21:41:11Z</time>
      </trkpt>
      <trkpt lat="43.05568" lon="2.42901">
        <ele>510</ele>
        <time>2022-05-02T21:41:12Z</time>
      </trkpt>
      <trkpt lat="43.0557" lon="2.42891">
        <ele>512</ele>
        <time>2022-05-02T21:41:14Z</time>
      </trkpt>
      <trkpt lat="43.05576" lon="2.4288">
        <ele>515</ele>
        <time>2022-05-02T21:41:16Z</time>
      </trkpt>
      <trkpt lat="43.05593" lon="2.42855">
        <ele>520</ele>
        <time>2022-05-02T21:41:20Z</time>
      </trkpt>
      <trkpt lat="43.05599" lon="2.4285">
        <ele>521</ele>
        <time>2022-05-02T21:41:21Z</time>
      </trkpt>
      <trkpt lat="43.05607" lon="2.4285">
        <ele>521</ele>
        <time>2022-05-02T21:41:23Z</time>
      </trkpt>
      <trkpt lat="43.05639" lon="2.42854">
        <ele>520</ele>
        <time>2022-05-02T21:41:28Z</time>
      </trkpt>
      <trkpt lat="43.05755" lon="2.42848">
        <ele>521</ele>
        <time>2022-05-02T21:41:49Z</time>
      </trkpt>
      <trkpt lat="43.05767" lon="2.42849">
        <ele>522</ele>
        <time>2022-05-02T21:41:51Z</time>
      </trkpt>
      <trkpt lat="43.05777" lon="2.42854">
        <ele>522</ele>
        <time>2022-05-02T21:41:53Z</time>
      </trkpt>
      <trkpt lat="43.05815" lon="2.42877">
        <ele>523</ele>
        <time>2022-05-02T21:42:01Z</time>
      </trkpt>
      <trkpt lat="43.05819" lon="2.42883">
        <ele>523</ele>
        <time>2022-05-02T21:42:02Z</time>
      </trkpt>
      <trkpt lat="43.05823" lon="2.42891">
        <ele>523</ele>
        <time>2022-05-02T21:42:03Z</time>
      </trkpt>
      <trkpt lat="43.05825" lon="2.42911">
        <ele>523</ele>
        <time>2022-05-02T21:42:05Z</time>
      </trkpt>
      <trkpt lat="43.05824" lon="2.42966">
        <ele>522</ele>
        <time>2022-05-02T21:42:13Z</time>
      </trkpt>
      <trkpt lat="43.05821" lon="2.43017">
        <ele>520</ele>
        <time>2022-05-02T21:42:19Z</time>
      </trkpt>
      <trkpt lat="43.05823" lon="2.43032">
        <ele>520</ele>
        <time>2022-05-02T21:42:21Z</time>
      </trkpt>
      <trkpt lat="43.05842" lon="2.43067">
        <ele>523</ele>
        <time>2022-05-02T21:42:27Z</time>
      </trkpt>
      <trkpt lat="43.05868" lon="2.43099">
        <ele>526</ele>
        <time>2022-05-02T21:42:33Z</time>
      </trkpt>
      <trkpt lat="43.05875" lon="2.43112">
        <ele>527</ele>
        <time>2022-05-02T21:42:35Z</time>
      </trkpt>
      <trkpt lat="43.05877" lon="2.43122">
        <ele>528</ele>
        <time>2022-05-02T21:42:37Z</time>
      </trkpt>
      <trkpt lat="43.05886" lon="2.43177">
        <ele>528</ele>
        <time>2022-05-02T21:42:44Z</time>
      </trkpt>
      <trkpt lat="43.05892" lon="2.43194">
        <ele>528</ele>
        <time>2022-05-02T21:42:46Z</time>
      </trkpt>
      <trkpt lat="43.05897" lon="2.43203">
        <ele>528</ele>
        <time>2022-05-02T21:42:48Z</time>
      </trkpt>
      <trkpt lat="43.05904" lon="2.43209">
        <ele>528</ele>
        <time>2022-05-02T21:42:49Z</time>
      </trkpt>
      <trkpt lat="43.05912" lon="2.43214">
        <ele>528</ele>
        <time>2022-05-02T21:42:51Z</time>
      </trkpt>
      <trkpt lat="43.05932" lon="2.4322">
        <ele>529</ele>
        <time>2022-05-02T21:42:54Z</time>
      </trkpt>
      <trkpt lat="43.05942" lon="2.43229">
        <ele>530</ele>
        <time>2022-05-02T21:42:57Z</time>
      </trkpt>
      <trkpt lat="43.05948" lon="2.43243">
        <ele>531</ele>
        <time>2022-05-02T21:42:59Z</time>
      </trkpt>
      <trkpt lat="43.05949" lon="2.43253">
        <ele>531</ele>
        <time>2022-05-02T21:43:00Z</time>
      </trkpt>
      <trkpt lat="43.05948" lon="2.43276">
        <ele>530</ele>
        <time>2022-05-02T21:43:03Z</time>
      </trkpt>
      <trkpt lat="43.0595" lon="2.43286">
        <ele>530</ele>
        <time>2022-05-02T21:43:04Z</time>
      </trkpt>
      <trkpt lat="43.05957" lon="2.43297">
        <ele>531</ele>
        <time>2022-05-02T21:43:06Z</time>
      </trkpt>
      <trkpt lat="43.05967" lon="2.43299">
        <ele>533</ele>
        <time>2022-05-02T21:43:08Z</time>
      </trkpt>
      <trkpt lat="43.05983" lon="2.43293">
        <ele>535</ele>
        <time>2022-05-02T21:43:11Z</time>
      </trkpt>
      <trkpt lat="43.05991" lon="2.43294">
        <ele>537</ele>
        <time>2022-05-02T21:43:12Z</time>
      </trkpt>
      <trkpt lat="43.05995" lon="2.43296">
        <ele>537</ele>
        <time>2022-05-02T21:43:13Z</time>
      </trkpt>
      <trkpt lat="43.06" lon="2.43303">
        <ele>538</ele>
        <time>2022-05-02T21:43:14Z</time>
      </trkpt>
      <trkpt lat="43.06001" lon="2.4331">
        <ele>538</ele>
        <time>2022-05-02T21:43:15Z</time>
      </trkpt>
      <trkpt lat="43.06002" lon="2.43318">
        <ele>538</ele>
        <time>2022-05-02T21:43:16Z</time>
      </trkpt>
      <trkpt lat="43.05998" lon="2.43332">
        <ele>538</ele>
        <time>2022-05-02T21:43:18Z</time>
      </trkpt>
      <trkpt lat="43.05979" lon="2.43354">
        <ele>536</ele>
        <time>2022-05-02T21:43:23Z</time>
      </trkpt>
      <trkpt lat="43.05972" lon="2.43367">
        <ele>536</ele>
        <time>2022-05-02T21:43:25Z</time>
      </trkpt>
      <trkpt lat="43.05934" lon="2.43491">
        <ele>537</ele>
        <time>2022-05-02T21:43:42Z</time>
      </trkpt>
      <trkpt lat="43.05933" lon="2.43503">
        <ele>538</ele>
        <time>2022-05-02T21:43:44Z</time>
      </trkpt>
      <trkpt lat="43.05934" lon="2.43514">
        <ele>537</ele>
        <time>2022-05-02T21:43:45Z</time>
      </trkpt>
      <trkpt lat="43.05937" lon="2.43522">
        <ele>537</ele>
        <time>2022-05-02T21:43:47Z</time>
      </trkpt>
      <trkpt lat="43.0594" lon="2.43528">
        <ele>537</ele>
        <time>2022-05-02T21:43:48Z</time>
      </trkpt>
      <trkpt lat="43.05946" lon="2.4353">
        <ele>537</ele>
        <time>2022-05-02T21:43:49Z</time>
      </trkpt>
      <trkpt lat="43.06007" lon="2.43526">
        <ele>543</ele>
        <time>2022-05-02T21:44:00Z</time>
      </trkpt>
      <trkpt lat="43.06019" lon="2.43527">
        <ele>545</ele>
        <time>2022-05-02T21:44:02Z</time>
      </trkpt>
      <trkpt lat="43.06027" lon="2.43534">
        <ele>544</ele>
        <time>2022-05-02T21:44:03Z</time>
      </trkpt>
      <trkpt lat="43.06039" lon="2.43556">
        <ele>541</ele>
        <time>2022-05-02T21:44:07Z</time>
      </trkpt>
      <trkpt lat="43.06043" lon="2.43561">
        <ele>541</ele>
        <time>2022-05-02T21:44:08Z</time>
      </trkpt>
      <trkpt lat="43.06049" lon="2.43563">
        <ele>541</ele>
        <time>2022-05-02T21:44:09Z</time>
      </trkpt>
      <trkpt lat="43.06106" lon="2.43558">
        <ele>550</ele>
        <time>2022-05-02T21:44:19Z</time>
      </trkpt>
      <trkpt lat="43.06113" lon="2.43556">
        <ele>552</ele>
        <time>2022-05-02T21:44:20Z</time>
      </trkpt>
      <trkpt lat="43.06144" lon="2.43538">
        <ele>558</ele>
        <time>2022-05-02T21:44:26Z</time>
      </trkpt>
      <trkpt lat="43.06154" lon="2.4354">
        <ele>559</ele>
        <time>2022-05-02T21:44:28Z</time>
      </trkpt>
      <trkpt lat="43.06161" lon="2.43548">
        <ele>558</ele>
        <time>2022-05-02T21:44:30Z</time>
      </trkpt>
      <trkpt lat="43.06162" lon="2.43555">
        <ele>557</ele>
        <time>2022-05-02T21:44:31Z</time>
      </trkpt>
      <trkpt lat="43.06161" lon="2.43565">
        <ele>556</ele>
        <time>2022-05-02T21:44:32Z</time>
      </trkpt>
      <trkpt lat="43.06144" lon="2.43626">
        <ele>550</ele>
        <time>2022-05-02T21:44:41Z</time>
      </trkpt>
      <trkpt lat="43.06143" lon="2.43648">
        <ele>549</ele>
        <time>2022-05-02T21:44:43Z</time>
      </trkpt>
      <trkpt lat="43.06148" lon="2.43669">
        <ele>550</ele>
        <time>2022-05-02T21:44:46Z</time>
      </trkpt>
      <trkpt lat="43.06167" lon="2.43717">
        <ele>551</ele>
        <time>2022-05-02T21:44:53Z</time>
      </trkpt>
      <trkpt lat="43.06184" lon="2.4378">
        <ele>553</ele>
        <time>2022-05-02T21:45:02Z</time>
      </trkpt>
      <trkpt lat="43.06186" lon="2.4379">
        <ele>554</ele>
        <time>2022-05-02T21:45:03Z</time>
      </trkpt>
      <trkpt lat="43.06186" lon="2.4383">
        <ele>553</ele>
        <time>2022-05-02T21:45:09Z</time>
      </trkpt>
      <trkpt lat="43.06189" lon="2.43872">
        <ele>554</ele>
        <time>2022-05-02T21:45:14Z</time>
      </trkpt>
      <trkpt lat="43.06191" lon="2.43886">
        <ele>555</ele>
        <time>2022-05-02T21:45:16Z</time>
      </trkpt>
      <trkpt lat="43.06209" lon="2.4398">
        <ele>562</ele>
        <time>2022-05-02T21:45:29Z</time>
      </trkpt>
      <trkpt lat="43.06211" lon="2.43997">
        <ele>563</ele>
        <time>2022-05-02T21:45:31Z</time>
      </trkpt>
      <trkpt lat="43.06209" lon="2.44017">
        <ele>562</ele>
        <time>2022-05-02T21:45:34Z</time>
      </trkpt>
      <trkpt lat="43.062" lon="2.44067">
        <ele>562</ele>
        <time>2022-05-02T21:45:40Z</time>
      </trkpt>
      <trkpt lat="43.06177" lon="2.44218">
        <ele>556</ele>
        <time>2022-05-02T21:46:00Z</time>
      </trkpt>
      <trkpt lat="43.06172" lon="2.44238">
        <ele>555</ele>
        <time>2022-05-02T21:46:03Z</time>
      </trkpt>
      <trkpt lat="43.0614" lon="2.44317">
        <ele>552</ele>
        <time>2022-05-02T21:46:15Z</time>
      </trkpt>
      <trkpt lat="43.06109" lon="2.4437">
        <ele>552</ele>
        <time>2022-05-02T21:46:24Z</time>
      </trkpt>
      <trkpt lat="43.06098" lon="2.444">
        <ele>550</ele>
        <time>2022-05-02T21:46:28Z</time>
      </trkpt>
      <trkpt lat="43.06081" lon="2.44487">
        <ele>545</ele>
        <time>2022-05-02T21:46:40Z</time>
      </trkpt>
      <trkpt lat="43.06084" lon="2.44555">
        <ele>542</ele>
        <time>2022-05-02T21:46:49Z</time>
      </trkpt>
      <trkpt lat="43.06084" lon="2.44577">
        <ele>541</ele>
        <time>2022-05-02T21:46:51Z</time>
      </trkpt>
      <trkpt lat="43.0608" lon="2.446">
        <ele>540</ele>
        <time>2022-05-02T21:46:54Z</time>
      </trkpt>
      <trkpt lat="43.06071" lon="2.44613">
        <ele>539</ele>
        <time>2022-05-02T21:46:57Z</time>
      </trkpt>
      <trkpt lat="43.06048" lon="2.4466">
        <ele>535</ele>
        <time>2022-05-02T21:47:04Z</time>
      </trkpt>
      <trkpt lat="43.06032" lon="2.44795">
        <ele>531</ele>
        <time>2022-05-02T21:47:22Z</time>
      </trkpt>
      <trkpt lat="43.06033" lon="2.44811">
        <ele>530</ele>
        <time>2022-05-02T21:47:24Z</time>
      </trkpt>
      <trkpt lat="43.06042" lon="2.44837">
        <ele>529</ele>
        <time>2022-05-02T21:47:28Z</time>
      </trkpt>
      <trkpt lat="43.06044" lon="2.44853">
        <ele>529</ele>
        <time>2022-05-02T21:47:30Z</time>
      </trkpt>
      <trkpt lat="43.06055" lon="2.44967">
        <ele>527</ele>
        <time>2022-05-02T21:47:45Z</time>
      </trkpt>
      <trkpt lat="43.06055" lon="2.44986">
        <ele>527</ele>
        <time>2022-05-02T21:47:47Z</time>
      </trkpt>
      <trkpt lat="43.06052" lon="2.45003">
        <ele>527</ele>
        <time>2022-05-02T21:47:50Z</time>
      </trkpt>
      <trkpt lat="43.06039" lon="2.45042">
        <ele>524</ele>
        <time>2022-05-02T21:47:55Z</time>
      </trkpt>
      <trkpt lat="43.06039" lon="2.45054">
        <ele>523</ele>
        <time>2022-05-02T21:47:57Z</time>
      </trkpt>
      <trkpt lat="43.06043" lon="2.45096">
        <ele>520</ele>
        <time>2022-05-02T21:48:02Z</time>
      </trkpt>
      <trkpt lat="43.06046" lon="2.45104">
        <ele>519</ele>
        <time>2022-05-02T21:48:03Z</time>
      </trkpt>
      <trkpt lat="43.06062" lon="2.45122">
        <ele>519</ele>
        <time>2022-05-02T21:48:07Z</time>
      </trkpt>
      <trkpt lat="43.06071" lon="2.45137">
        <ele>518</ele>
        <time>2022-05-02T21:48:10Z</time>
      </trkpt>
      <trkpt lat="43.06115" lon="2.45236">
        <ele>514</ele>
        <time>2022-05-02T21:48:25Z</time>
      </trkpt>
      <trkpt lat="43.06118" lon="2.45254">
        <ele>513</ele>
        <time>2022-05-02T21:48:27Z</time>
      </trkpt>
      <trkpt lat="43.06117" lon="2.45262">
        <ele>512</ele>
        <time>2022-05-02T21:48:28Z</time>
      </trkpt>
      <trkpt lat="43.06114" lon="2.4527">
        <ele>512</ele>
        <time>2022-05-02T21:48:29Z</time>
      </trkpt>
      <trkpt lat="43.06107" lon="2.45276">
        <ele>511</ele>
        <time>2022-05-02T21:48:31Z</time>
      </trkpt>
      <trkpt lat="43.06101" lon="2.45278">
        <ele>510</ele>
        <time>2022-05-02T21:48:32Z</time>
      </trkpt>
      <trkpt lat="43.06095" lon="2.45276">
        <ele>509</ele>
        <time>2022-05-02T21:48:33Z</time>
      </trkpt>
      <trkpt lat="43.06089" lon="2.45271">
        <ele>508</ele>
        <time>2022-05-02T21:48:34Z</time>
      </trkpt>
      <trkpt lat="43.06084" lon="2.45262">
        <ele>507</ele>
        <time>2022-05-02T21:48:36Z</time>
      </trkpt>
      <trkpt lat="43.06073" lon="2.45223">
        <ele>508</ele>
        <time>2022-05-02T21:48:41Z</time>
      </trkpt>
      <trkpt lat="43.06044" lon="2.45151">
        <ele>511</ele>
        <time>2022-05-02T21:48:52Z</time>
      </trkpt>
      <trkpt lat="43.06013" lon="2.45111">
        <ele>513</ele>
        <time>2022-05-02T21:48:59Z</time>
      </trkpt>
      <trkpt lat="43.06002" lon="2.45105">
        <ele>512</ele>
        <time>2022-05-02T21:49:01Z</time>
      </trkpt>
      <trkpt lat="43.05976" lon="2.45108">
        <ele>514</ele>
        <time>2022-05-02T21:49:06Z</time>
      </trkpt>
      <trkpt lat="43.05962" lon="2.45111">
        <ele>515</ele>
        <time>2022-05-02T21:49:09Z</time>
      </trkpt>
      <trkpt lat="43.05955" lon="2.45115">
        <ele>516</ele>
        <time>2022-05-02T21:49:10Z</time>
      </trkpt>
      <trkpt lat="43.05951" lon="2.45122">
        <ele>516</ele>
        <time>2022-05-02T21:49:11Z</time>
      </trkpt>
      <trkpt lat="43.05948" lon="2.45129">
        <ele>515</ele>
        <time>2022-05-02T21:49:12Z</time>
      </trkpt>
      <trkpt lat="43.05953" lon="2.45171">
        <ele>511</ele>
        <time>2022-05-02T21:49:18Z</time>
      </trkpt>
      <trkpt lat="43.05954" lon="2.4522">
        <ele>509</ele>
        <time>2022-05-02T21:49:24Z</time>
      </trkpt>
      <trkpt lat="43.05956" lon="2.45236">
        <ele>507</ele>
        <time>2022-05-02T21:49:26Z</time>
      </trkpt>
      <trkpt lat="43.05966" lon="2.45272">
        <ele>502</ele>
        <time>2022-05-02T21:49:31Z</time>
      </trkpt>
      <trkpt lat="43.05968" lon="2.45288">
        <ele>500</ele>
        <time>2022-05-02T21:49:33Z</time>
      </trkpt>
      <trkpt lat="43.05975" lon="2.45408">
        <ele>489</ele>
        <time>2022-05-02T21:49:49Z</time>
      </trkpt>
      <trkpt lat="43.05959" lon="2.45522">
        <ele>488</ele>
        <time>2022-05-02T21:50:04Z</time>
      </trkpt>
      <trkpt lat="43.05956" lon="2.45599">
        <ele>477</ele>
        <time>2022-05-02T21:50:14Z</time>
      </trkpt>
      <trkpt lat="43.05951" lon="2.45611">
        <ele>475</ele>
        <time>2022-05-02T21:50:16Z</time>
      </trkpt>
      <trkpt lat="43.05942" lon="2.45616">
        <ele>476</ele>
        <time>2022-05-02T21:50:18Z</time>
      </trkpt>
      <trkpt lat="43.0592" lon="2.45611">
        <ele>485</ele>
        <time>2022-05-02T21:50:22Z</time>
      </trkpt>
      <trkpt lat="43.05909" lon="2.45612">
        <ele>487</ele>
        <time>2022-05-02T21:50:24Z</time>
      </trkpt>
      <trkpt lat="43.05905" lon="2.45621">
        <ele>485</ele>
        <time>2022-05-02T21:50:25Z</time>
      </trkpt>
      <trkpt lat="43.05904" lon="2.45631">
        <ele>481</ele>
        <time>2022-05-02T21:50:26Z</time>
      </trkpt>
      <trkpt lat="43.0591" lon="2.45636">
        <ele>478</ele>
        <time>2022-05-02T21:50:27Z</time>
      </trkpt>
      <trkpt lat="43.05922" lon="2.45637">
        <ele>476</ele>
        <time>2022-05-02T21:50:30Z</time>
      </trkpt>
      <trkpt lat="43.05962" lon="2.45627">
        <ele>468</ele>
        <time>2022-05-02T21:50:37Z</time>
      </trkpt>
      <trkpt lat="43.05969" lon="2.45619">
        <ele>468</ele>
        <time>2022-05-02T21:50:38Z</time>
      </trkpt>
      <trkpt lat="43.05973" lon="2.45608">
        <ele>469</ele>
        <time>2022-05-02T21:50:40Z</time>
      </trkpt>
      <trkpt lat="43.05985" lon="2.45516">
        <ele>478</ele>
        <time>2022-05-02T21:50:52Z</time>
      </trkpt>
      <trkpt lat="43.05991" lon="2.45501">
        <ele>477</ele>
        <time>2022-05-02T21:50:54Z</time>
      </trkpt>
      <trkpt lat="43.06001" lon="2.45495">
        <ele>474</ele>
        <time>2022-05-02T21:50:56Z</time>
      </trkpt>
      <trkpt lat="43.06009" lon="2.45502">
        <ele>474</ele>
        <time>2022-05-02T21:50:58Z</time>
      </trkpt>
      <trkpt lat="43.06017" lon="2.45593">
        <ele>464</ele>
        <time>2022-05-02T21:51:10Z</time>
      </trkpt>
      <trkpt lat="43.06022" lon="2.45614">
        <ele>461</ele>
        <time>2022-05-02T21:51:13Z</time>
      </trkpt>
      <trkpt lat="43.06032" lon="2.45634">
        <ele>458</ele>
        <time>2022-05-02T21:51:16Z</time>
      </trkpt>
      <trkpt lat="43.06049" lon="2.45644">
        <ele>457</ele>
        <time>2022-05-02T21:51:19Z</time>
      </trkpt>
      <trkpt lat="43.06061" lon="2.4565">
        <ele>457</ele>
        <time>2022-05-02T21:51:22Z</time>
      </trkpt>
      <trkpt lat="43.06069" lon="2.45659">
        <ele>456</ele>
        <time>2022-05-02T21:51:23Z</time>
      </trkpt>
      <trkpt lat="43.06078" lon="2.45678">
        <ele>451</ele>
        <time>2022-05-02T21:51:26Z</time>
      </trkpt>
      <trkpt lat="43.06091" lon="2.45712">
        <ele>442</ele>
        <time>2022-05-02T21:51:31Z</time>
      </trkpt>
      <trkpt lat="43.061" lon="2.45727">
        <ele>439</ele>
        <time>2022-05-02T21:51:34Z</time>
      </trkpt>
      <trkpt lat="43.06108" lon="2.45734">
        <ele>439</ele>
        <time>2022-05-02T21:51:36Z</time>
      </trkpt>
      <trkpt lat="43.06122" lon="2.45742">
        <ele>439</ele>
        <time>2022-05-02T21:51:38Z</time>
      </trkpt>
      <trkpt lat="43.06149" lon="2.45746">
        <ele>444</ele>
        <time>2022-05-02T21:51:43Z</time>
      </trkpt>
      <trkpt lat="43.06263" lon="2.45788">
        <ele>437</ele>
        <time>2022-05-02T21:52:04Z</time>
      </trkpt>
      <trkpt lat="43.06332" lon="2.45819">
        <ele>430</ele>
        <time>2022-05-02T21:52:17Z</time>
      </trkpt>
      <trkpt lat="43.0643" lon="2.45893">
        <ele>427</ele>
        <time>2022-05-02T21:52:37Z</time>
      </trkpt>
      <trkpt lat="43.06456" lon="2.4592">
        <ele>424</ele>
        <time>2022-05-02T21:52:43Z</time>
      </trkpt>
      <trkpt lat="43.06472" lon="2.45946">
        <ele>419</ele>
        <time>2022-05-02T21:52:47Z</time>
      </trkpt>
      <trkpt lat="43.06492" lon="2.45989">
        <ele>409</ele>
        <time>2022-05-02T21:52:54Z</time>
      </trkpt>
      <trkpt lat="43.06512" lon="2.46013">
        <ele>408</ele>
        <time>2022-05-02T21:52:58Z</time>
      </trkpt>
      <trkpt lat="43.06546" lon="2.46034">
        <ele>414</ele>
        <time>2022-05-02T21:53:05Z</time>
      </trkpt>
      <trkpt lat="43.06596" lon="2.46095">
        <ele>405</ele>
        <time>2022-05-02T21:53:17Z</time>
      </trkpt>
      <trkpt lat="43.067" lon="2.46205">
        <ele>394</ele>
        <time>2022-05-02T21:53:40Z</time>
      </trkpt>
      <trkpt lat="43.06763" lon="2.46282">
        <ele>387</ele>
        <time>2022-05-02T21:53:55Z</time>
      </trkpt>
      <trkpt lat="43.06816" lon="2.46336">
        <ele>377</ele>
        <time>2022-05-02T21:54:07Z</time>
      </trkpt>
      <trkpt lat="43.06894" lon="2.4645">
        <ele>366</ele>
        <time>2022-05-02T21:54:28Z</time>
      </trkpt>
      <trkpt lat="43.06905" lon="2.46464">
        <ele>365</ele>
        <time>2022-05-02T21:54:30Z</time>
      </trkpt>
      <trkpt lat="43.06983" lon="2.46543">
        <ele>362</ele>
        <time>2022-05-02T21:54:47Z</time>
      </trkpt>
      <trkpt lat="43.06984" lon="2.46553">
        <ele>359</ele>
        <time>2022-05-02T21:54:49Z</time>
      </trkpt>
      <trkpt lat="43.06981" lon="2.46562">
        <ele>356</ele>
        <time>2022-05-02T21:54:50Z</time>
      </trkpt>
      <trkpt lat="43.06973" lon="2.46563">
        <ele>354</ele>
        <time>2022-05-02T21:54:51Z</time>
      </trkpt>
      <trkpt lat="43.06968" lon="2.46561">
        <ele>353</ele>
        <time>2022-05-02T21:54:52Z</time>
      </trkpt>
      <trkpt lat="43.06944" lon="2.46538">
        <ele>353</ele>
        <time>2022-05-02T21:54:58Z</time>
      </trkpt>
      <trkpt lat="43.06884" lon="2.46494">
        <ele>348</ele>
        <time>2022-05-02T21:55:10Z</time>
      </trkpt>
      <trkpt lat="43.06857" lon="2.46468">
        <ele>347</ele>
        <time>2022-05-02T21:55:16Z</time>
      </trkpt>
      <trkpt lat="43.06816" lon="2.46435">
        <ele>344</ele>
        <time>2022-05-02T21:55:24Z</time>
      </trkpt>
      <trkpt lat="43.06795" lon="2.46423">
        <ele>343</ele>
        <time>2022-05-02T21:55:28Z</time>
      </trkpt>
      <trkpt lat="43.06725" lon="2.46391">
        <ele>335</ele>
        <time>2022-05-02T21:55:41Z</time>
      </trkpt>
      <trkpt lat="43.06675" lon="2.46346">
        <ele>333</ele>
        <time>2022-05-02T21:55:52Z</time>
      </trkpt>
      <trkpt lat="43.06647" lon="2.46331">
        <ele>329</ele>
        <time>2022-05-02T21:55:57Z</time>
      </trkpt>
      <trkpt lat="43.06631" lon="2.46304">
        <ele>333</ele>
        <time>2022-05-02T21:56:02Z</time>
      </trkpt>
      <trkpt lat="43.06596" lon="2.46274">
        <ele>332</ele>
        <time>2022-05-02T21:56:09Z</time>
      </trkpt>
      <trkpt lat="43.06505" lon="2.46222">
        <ele>327</ele>
        <time>2022-05-02T21:56:27Z</time>
      </trkpt>
      <trkpt lat="43.06496" lon="2.46228">
        <ele>323</ele>
        <time>2022-05-02T21:56:28Z</time>
      </trkpt>
      <trkpt lat="43.06497" lon="2.46244">
        <ele>318</ele>
        <time>2022-05-02T21:56:31Z</time>
      </trkpt>
      <trkpt lat="43.06538" lon="2.4627">
        <ele>320</ele>
        <time>2022-05-02T21:56:39Z</time>
      </trkpt>
      <trkpt lat="43.06561" lon="2.46297">
        <ele>317</ele>
        <time>2022-05-02T21:56:44Z</time>
      </trkpt>
      <trkpt lat="43.06615" lon="2.46374">
        <ele>308</ele>
        <time>2022-05-02T21:56:58Z</time>
      </trkpt>
      <trkpt lat="43.06645" lon="2.46407">
        <ele>307</ele>
        <time>2022-05-02T21:57:05Z</time>
      </trkpt>
      <trkpt lat="43.06695" lon="2.46475">
        <ele>300</ele>
        <time>2022-05-02T21:57:17Z</time>
      </trkpt>
      <trkpt lat="43.06767" lon="2.46596">
        <ele>290</ele>
        <time>2022-05-02T21:57:37Z</time>
      </trkpt>
      <trkpt lat="43.06847" lon="2.46687">
        <ele>287</ele>
        <time>2022-05-02T21:57:56Z</time>
      </trkpt>
      <trkpt lat="43.06872" lon="2.46712">
        <ele>285</ele>
        <time>2022-05-02T21:58:02Z</time>
      </trkpt>
      <trkpt lat="43.06893" lon="2.46727">
        <ele>283</ele>
        <time>2022-05-02T21:58:06Z</time>
      </trkpt>
      <trkpt lat="43.06908" lon="2.46734">
        <ele>282</ele>
        <time>2022-05-02T21:58:09Z</time>
      </trkpt>
      <trkpt lat="43.06925" lon="2.46738">
        <ele>282</ele>
        <time>2022-05-02T21:58:12Z</time>
      </trkpt>
      <trkpt lat="43.0697" lon="2.4674">
        <ele>283</ele>
        <time>2022-05-02T21:58:20Z</time>
      </trkpt>
      <trkpt lat="43.06982" lon="2.46748">
        <ele>280</ele>
        <time>2022-05-02T21:58:22Z</time>
      </trkpt>
      <trkpt lat="43.07064" lon="2.46816">
        <ele>275</ele>
        <time>2022-05-02T21:58:39Z</time>
      </trkpt>
      <trkpt lat="43.07096" lon="2.46847">
        <ele>271</ele>
        <time>2022-05-02T21:58:46Z</time>
      </trkpt>
      <trkpt lat="43.07139" lon="2.46894">
        <ele>267</ele>
        <time>2022-05-02T21:58:56Z</time>
      </trkpt>
      <trkpt lat="43.07158" lon="2.46902">
        <ele>266</ele>
        <time>2022-05-02T21:58:59Z</time>
      </trkpt>
      <trkpt lat="43.07219" lon="2.46899">
        <ele>264</ele>
        <time>2022-05-02T21:59:10Z</time>
      </trkpt>
      <trkpt lat="43.07287" lon="2.46907">
        <ele>262</ele>
        <time>2022-05-02T21:59:22Z</time>
      </trkpt>
      <trkpt lat="43.073" lon="2.46914">
        <ele>261</ele>
        <time>2022-05-02T21:59:25Z</time>
      </trkpt>
      <trkpt lat="43.07324" lon="2.46951">
        <ele>258</ele>
        <time>2022-05-02T21:59:31Z</time>
      </trkpt>
      <trkpt lat="43.07338" lon="2.46982">
        <ele>256</ele>
        <time>2022-05-02T21:59:36Z</time>
      </trkpt>
      <trkpt lat="43.07344" lon="2.47004">
        <ele>255</ele>
        <time>2022-05-02T21:59:39Z</time>
      </trkpt>
      <trkpt lat="43.07355" lon="2.47072">
        <ele>253</ele>
        <time>2022-05-02T21:59:48Z</time>
      </trkpt>
      <trkpt lat="43.07366" lon="2.47116">
        <ele>253</ele>
        <time>2022-05-02T21:59:54Z</time>
      </trkpt>
      <trkpt lat="43.07382" lon="2.47158">
        <ele>252</ele>
        <time>2022-05-02T22:00:00Z</time>
      </trkpt>
      <trkpt lat="43.0739" lon="2.47168">
        <ele>251</ele>
        <time>2022-05-02T22:00:02Z</time>
      </trkpt>
      <trkpt lat="43.07405" lon="2.47182">
        <ele>251</ele>
        <time>2022-05-02T22:00:05Z</time>
      </trkpt>
      <trkpt lat="43.07419" lon="2.472">
        <ele>251</ele>
        <time>2022-05-02T22:00:09Z</time>
      </trkpt>
      <trkpt lat="43.07429" lon="2.4721">
        <ele>251</ele>
        <time>2022-05-02T22:00:11Z</time>
      </trkpt>
      <trkpt lat="43.07448" lon="2.47216">
        <ele>251</ele>
        <time>2022-05-02T22:00:15Z</time>
      </trkpt>
      <trkpt lat="43.07473" lon="2.4722">
        <ele>250</ele>
        <time>2022-05-02T22:00:19Z</time>
      </trkpt>
      <trkpt lat="43.07487" lon="2.47225">
        <ele>250</ele>
        <time>2022-05-02T22:00:22Z</time>
      </trkpt>
      <trkpt lat="43.07516" lon="2.47256">
        <ele>247</ele>
        <time>2022-05-02T22:00:28Z</time>
      </trkpt>
      <trkpt lat="43.07551" lon="2.47281">
        <ele>248</ele>
        <time>2022-05-02T22:00:35Z</time>
      </trkpt>
      <trkpt lat="43.07561" lon="2.47293">
        <ele>247</ele>
        <time>2022-05-02T22:00:38Z</time>
      </trkpt>
      <trkpt lat="43.07571" lon="2.4731">
        <ele>246</ele>
        <time>2022-05-02T22:00:40Z</time>
      </trkpt>
      <trkpt lat="43.07586" lon="2.47324">
        <ele>245</ele>
        <time>2022-05-02T22:00:44Z</time>
      </trkpt>
      <trkpt lat="43.07621" lon="2.47338">
        <ele>244</ele>
        <time>2022-05-02T22:00:50Z</time>
      </trkpt>
      <trkpt lat="43.07709" lon="2.47337">
        <ele>243</ele>
        <time>2022-05-02T22:01:06Z</time>
      </trkpt>
      <trkpt lat="43.07735" lon="2.47339">
        <ele>242</ele>
        <time>2022-05-02T22:01:10Z</time>
      </trkpt>
      <trkpt lat="43.07747" lon="2.47353">
        <ele>241</ele>
        <time>2022-05-02T22:01:13Z</time>
      </trkpt>
      <trkpt lat="43.07759" lon="2.47381">
        <ele>239</ele>
        <time>2022-05-02T22:01:17Z</time>
      </trkpt>
      <trkpt lat="43.0777" lon="2.47432">
        <ele>237</ele>
        <time>2022-05-02T22:01:24Z</time>
      </trkpt>
      <trkpt lat="43.07778" lon="2.47453">
        <ele>237</ele>
        <time>2022-05-02T22:01:27Z</time>
      </trkpt>
      <trkpt lat="43.07785" lon="2.47467">
        <ele>236</ele>
        <time>2022-05-02T22:01:30Z</time>
      </trkpt>
      <trkpt lat="43.07821" lon="2.47511">
        <ele>234</ele>
        <time>2022-05-02T22:01:38Z</time>
      </trkpt>
      <trkpt lat="43.07846" lon="2.47539">
        <ele>233</ele>
        <time>2022-05-02T22:01:44Z</time>
      </trkpt>
      <trkpt lat="43.07861" lon="2.47547">
        <ele>232</ele>
        <time>2022-05-02T22:01:47Z</time>
      </trkpt>
      <trkpt lat="43.07908" lon="2.47547">
        <ele>231</ele>
        <time>2022-05-02T22:01:55Z</time>
      </trkpt>
      <trkpt lat="43.07925" lon="2.47547">
        <ele>231</ele>
        <time>2022-05-02T22:01:58Z</time>
      </trkpt>
      <trkpt lat="43.07934" lon="2.47552">
        <ele>231</ele>
        <time>2022-05-02T22:02:00Z</time>
      </trkpt>
      <trkpt lat="43.07945" lon="2.47563">
        <ele>231</ele>
        <time>2022-05-02T22:02:02Z</time>
      </trkpt>
      <trkpt lat="43.07991" lon="2.47629">
        <ele>232</ele>
        <time>2022-05-02T22:02:14Z</time>
      </trkpt>
      <trkpt lat="43.08044" lon="2.47691">
        <ele>231</ele>
        <time>2022-05-02T22:02:27Z</time>
      </trkpt>
      <trkpt lat="43.08109" lon="2.47754">
        <ele>229</ele>
        <time>2022-05-02T22:02:41Z</time>
      </trkpt>
      <trkpt lat="43.08123" lon="2.47761">
        <ele>229</ele>
        <time>2022-05-02T22:02:43Z</time>
      </trkpt>
      <trkpt lat="43.08145" lon="2.47762">
        <ele>230</ele>
        <time>2022-05-02T22:02:47Z</time>
      </trkpt>
      <trkpt lat="43.08159" lon="2.47767">
        <ele>230</ele>
        <time>2022-05-02T22:02:50Z</time>
      </trkpt>
      <trkpt lat="43.08208" lon="2.47797">
        <ele>228</ele>
        <time>2022-05-02T22:02:59Z</time>
      </trkpt>
      <trkpt lat="43.08226" lon="2.47806">
        <ele>228</ele>
        <time>2022-05-02T22:03:03Z</time>
      </trkpt>
      <trkpt lat="43.08274" lon="2.47842">
        <ele>228</ele>
        <time>2022-05-02T22:03:13Z</time>
      </trkpt>
      <trkpt lat="43.08295" lon="2.4786">
        <ele>228</ele>
        <time>2022-05-02T22:03:17Z</time>
      </trkpt>
      <trkpt lat="43.08299" lon="2.47872">
        <ele>228</ele>
        <time>2022-05-02T22:03:19Z</time>
      </trkpt>
      <trkpt lat="43.083" lon="2.4789">
        <ele>227</ele>
        <time>2022-05-02T22:03:21Z</time>
      </trkpt>
      <trkpt lat="43.08295" lon="2.4792">
        <ele>227</ele>
        <time>2022-05-02T22:03:25Z</time>
      </trkpt>
      <trkpt lat="43.08296" lon="2.47937">
        <ele>227</ele>
        <time>2022-05-02T22:03:27Z</time>
      </trkpt>
      <trkpt lat="43.08301" lon="2.47951">
        <ele>227</ele>
        <time>2022-05-02T22:03:29Z</time>
      </trkpt>
      <trkpt lat="43.08354" lon="2.48011">
        <ele>226</ele>
        <time>2022-05-02T22:03:42Z</time>
      </trkpt>
      <trkpt lat="43.0836" lon="2.48019">
        <ele>226</ele>
        <time>2022-05-02T22:03:43Z</time>
      </trkpt>
      <trkpt lat="43.08371" lon="2.48041">
        <ele>226</ele>
        <time>2022-05-02T22:03:47Z</time>
      </trkpt>
      <trkpt lat="43.08374" lon="2.48056">
        <ele>226</ele>
        <time>2022-05-02T22:03:49Z</time>
      </trkpt>
      <trkpt lat="43.0837" lon="2.48164">
        <ele>223</ele>
        <time>2022-05-02T22:04:03Z</time>
      </trkpt>
      <trkpt lat="43.08371" lon="2.48188">
        <ele>223</ele>
        <time>2022-05-02T22:04:06Z</time>
      </trkpt>
      <trkpt lat="43.08378" lon="2.48216">
        <ele>223</ele>
        <time>2022-05-02T22:04:10Z</time>
      </trkpt>
      <trkpt lat="43.08385" lon="2.48236">
        <ele>223</ele>
        <time>2022-05-02T22:04:12Z</time>
      </trkpt>
      <trkpt lat="43.08457" lon="2.48385">
        <ele>222</ele>
        <time>2022-05-02T22:04:36Z</time>
      </trkpt>
      <trkpt lat="43.08469" lon="2.48419">
        <ele>222</ele>
        <time>2022-05-02T22:04:41Z</time>
      </trkpt>
      <trkpt lat="43.08487" lon="2.48584">
        <ele>220</ele>
        <time>2022-05-02T22:05:02Z</time>
      </trkpt>
      <trkpt lat="43.08488" lon="2.48609">
        <ele>220</ele>
        <time>2022-05-02T22:05:06Z</time>
      </trkpt>
      <trkpt lat="43.08486" lon="2.48675">
        <ele>220</ele>
        <time>2022-05-02T22:05:14Z</time>
      </trkpt>
      <trkpt lat="43.08489" lon="2.48937">
        <ele>215</ele>
        <time>2022-05-02T22:05:48Z</time>
      </trkpt>
      <trkpt lat="43.08491" lon="2.48965">
        <ele>214</ele>
        <time>2022-05-02T22:05:52Z</time>
      </trkpt>
      <trkpt lat="43.08495" lon="2.48987">
        <ele>213</ele>
        <time>2022-05-02T22:05:55Z</time>
      </trkpt>
      <trkpt lat="43.08511" lon="2.49102">
        <ele>214</ele>
        <time>2022-05-02T22:06:10Z</time>
      </trkpt>
      <trkpt lat="43.08509" lon="2.49132">
        <ele>214</ele>
        <time>2022-05-02T22:06:14Z</time>
      </trkpt>
      <trkpt lat="43.08506" lon="2.49154">
        <ele>214</ele>
        <time>2022-05-02T22:06:17Z</time>
      </trkpt>
      <trkpt lat="43.08498" lon="2.49195">
        <ele>214</ele>
        <time>2022-05-02T22:06:22Z</time>
      </trkpt>
      <trkpt lat="43.0847" lon="2.4927">
        <ele>213</ele>
        <time>2022-05-02T22:06:33Z</time>
      </trkpt>
      <trkpt lat="43.08464" lon="2.493">
        <ele>213</ele>
        <time>2022-05-02T22:06:37Z</time>
      </trkpt>
      <trkpt lat="43.08448" lon="2.49468">
        <ele>211</ele>
        <time>2022-05-02T22:06:59Z</time>
      </trkpt>
      <trkpt lat="43.08419" lon="2.49611">
        <ele>210</ele>
        <time>2022-05-02T22:07:19Z</time>
      </trkpt>
      <trkpt lat="43.0839" lon="2.49788">
        <ele>211</ele>
        <time>2022-05-02T22:07:42Z</time>
      </trkpt>
      <trkpt lat="43.08362" lon="2.50002">
        <ele>207</ele>
        <time>2022-05-02T22:08:10Z</time>
      </trkpt>
      <trkpt lat="43.08359" lon="2.50047">
        <ele>207</ele>
        <time>2022-05-02T22:08:16Z</time>
      </trkpt>
      <trkpt lat="43.08358" lon="2.50112">
        <ele>207</ele>
        <time>2022-05-02T22:08:25Z</time>
      </trkpt>
      <trkpt lat="43.08362" lon="2.50152">
        <ele>207</ele>
        <time>2022-05-02T22:08:30Z</time>
      </trkpt>
      <trkpt lat="43.08398" lon="2.50338">
        <ele>205</ele>
        <time>2022-05-02T22:08:55Z</time>
      </trkpt>
      <trkpt lat="43.084" lon="2.50355">
        <ele>205</ele>
        <time>2022-05-02T22:08:57Z</time>
      </trkpt>
      <trkpt lat="43.084" lon="2.50374">
        <ele>205</ele>
        <time>2022-05-02T22:09:00Z</time>
      </trkpt>
      <trkpt lat="43.08398" lon="2.50393">
        <ele>205</ele>
        <time>2022-05-02T22:09:02Z</time>
      </trkpt>
      <trkpt lat="43.08386" lon="2.50441">
        <ele>205</ele>
        <time>2022-05-02T22:09:09Z</time>
      </trkpt>
      <trkpt lat="43.08384" lon="2.50487">
        <ele>203</ele>
        <time>2022-05-02T22:09:15Z</time>
      </trkpt>
      <trkpt lat="43.08397" lon="2.50755">
        <ele>202</ele>
        <time>2022-05-02T22:09:50Z</time>
      </trkpt>
      <trkpt lat="43.08401" lon="2.50777">
        <ele>202</ele>
        <time>2022-05-02T22:09:53Z</time>
      </trkpt>
      <trkpt lat="43.08516" lon="2.51045">
        <ele>199</ele>
        <time>2022-05-02T22:10:33Z</time>
      </trkpt>
      <trkpt lat="43.08529" lon="2.51079">
        <ele>198</ele>
        <time>2022-05-02T22:10:38Z</time>
      </trkpt>
      <trkpt lat="43.08533" lon="2.51103">
        <ele>198</ele>
        <time>2022-05-02T22:10:41Z</time>
      </trkpt>
      <trkpt lat="43.08533" lon="2.51162">
        <ele>198</ele>
        <time>2022-05-02T22:10:49Z</time>
      </trkpt>
      <trkpt lat="43.08536" lon="2.51189">
        <ele>198</ele>
        <time>2022-05-02T22:10:52Z</time>
      </trkpt>
      <trkpt lat="43.08549" lon="2.51224">
        <ele>197</ele>
        <time>2022-05-02T22:10:58Z</time>
      </trkpt>
      <trkpt lat="43.08618" lon="2.51387">
        <ele>197</ele>
        <time>2022-05-02T22:11:22Z</time>
      </trkpt>
      <trkpt lat="43.08633" lon="2.51413">
        <ele>198</ele>
        <time>2022-05-02T22:11:26Z</time>
      </trkpt>
      <trkpt lat="43.0873" lon="2.51535">
        <ele>197</ele>
        <time>2022-05-02T22:11:50Z</time>
      </trkpt>
      <trkpt lat="43.08755" lon="2.51556">
        <ele>197</ele>
        <time>2022-05-02T22:11:55Z</time>
      </trkpt>
      <trkpt lat="43.0877" lon="2.51566">
        <ele>197</ele>
        <time>2022-05-02T22:11:58Z</time>
      </trkpt>
      <trkpt lat="43.08823" lon="2.51607">
        <ele>199</ele>
        <time>2022-05-02T22:12:09Z</time>
      </trkpt>
      <trkpt lat="43.08834" lon="2.51622">
        <ele>200</ele>
        <time>2022-05-02T22:12:12Z</time>
      </trkpt>
      <trkpt lat="43.08844" lon="2.5164">
        <ele>200</ele>
        <time>2022-05-02T22:12:14Z</time>
      </trkpt>
      <trkpt lat="43.08858" lon="2.51683">
        <ele>202</ele>
        <time>2022-05-02T22:12:21Z</time>
      </trkpt>
      <trkpt lat="43.08864" lon="2.5171">
        <ele>203</ele>
        <time>2022-05-02T22:12:24Z</time>
      </trkpt>
      <trkpt lat="43.08868" lon="2.51758">
        <ele>205</ele>
        <time>2022-05-02T22:12:31Z</time>
      </trkpt>
      <trkpt lat="43.08871" lon="2.51815">
        <ele>207</ele>
        <time>2022-05-02T22:12:38Z</time>
      </trkpt>
      <trkpt lat="43.08853" lon="2.51865">
        <ele>207</ele>
        <time>2022-05-02T22:12:45Z</time>
      </trkpt>
      <trkpt lat="43.08835" lon="2.51923">
        <ele>208</ele>
        <time>2022-05-02T22:12:53Z</time>
      </trkpt>
      <trkpt lat="43.08822" lon="2.51965">
        <ele>208</ele>
        <time>2022-05-02T22:12:59Z</time>
      </trkpt>
      <trkpt lat="43.08803" lon="2.52038">
        <ele>207</ele>
        <time>2022-05-02T22:13:09Z</time>
      </trkpt>
      <trkpt lat="43.08801" lon="2.52085">
        <ele>206</ele>
        <time>2022-05-02T22:13:16Z</time>
      </trkpt>
      <trkpt lat="43.08797" lon="2.52125">
        <ele>205</ele>
        <time>2022-05-02T22:13:21Z</time>
      </trkpt>
      <trkpt lat="43.08791" lon="2.52146">
        <ele>204</ele>
        <time>2022-05-02T22:13:24Z</time>
      </trkpt>
      <trkpt lat="43.0881" lon="2.5214">
        <ele>205</ele>
        <time>2022-05-02T22:13:27Z</time>
      </trkpt>
      <trkpt lat="43.08887" lon="2.52156">
        <ele>211</ele>
        <time>2022-05-02T22:13:41Z</time>
      </trkpt>
      <trkpt lat="43.08888" lon="2.52203">
        <ele>211</ele>
        <time>2022-05-02T22:13:47Z</time>
      </trkpt>
      <trkpt lat="43.08884" lon="2.52312">
        <ele>211</ele>
        <time>2022-05-02T22:14:01Z</time>
      </trkpt>
      <trkpt lat="43.08885" lon="2.52375">
        <ele>211</ele>
        <time>2022-05-02T22:14:09Z</time>
      </trkpt>
      <trkpt lat="43.08896" lon="2.52589">
        <ele>210</ele>
        <time>2022-05-02T22:14:37Z</time>
      </trkpt>
      <trkpt lat="43.08901" lon="2.52658">
        <ele>209</ele>
        <time>2022-05-02T22:14:46Z</time>
      </trkpt>
      <trkpt lat="43.08902" lon="2.52698">
        <ele>208</ele>
        <time>2022-05-02T22:14:52Z</time>
      </trkpt>
      <trkpt lat="43.08899" lon="2.52811">
        <ele>205</ele>
        <time>2022-05-02T22:15:06Z</time>
      </trkpt>
      <trkpt lat="43.08893" lon="2.52859">
        <ele>204</ele>
        <time>2022-05-02T22:15:13Z</time>
      </trkpt>
      <trkpt lat="43.08892" lon="2.52915">
        <ele>204</ele>
        <time>2022-05-02T22:15:20Z</time>
      </trkpt>
      <trkpt lat="43.08897" lon="2.52963">
        <ele>203</ele>
        <time>2022-05-02T22:15:26Z</time>
      </trkpt>
      <trkpt lat="43.08909" lon="2.53038">
        <ele>203</ele>
        <time>2022-05-02T22:15:36Z</time>
      </trkpt>
      <trkpt lat="43.08913" lon="2.53115">
        <ele>201</ele>
        <time>2022-05-02T22:15:46Z</time>
      </trkpt>
      <trkpt lat="43.0892" lon="2.53167">
        <ele>201</ele>
        <time>2022-05-02T22:15:53Z</time>
      </trkpt>
      <trkpt lat="43.0892" lon="2.53192">
        <ele>200</ele>
        <time>2022-05-02T22:15:56Z</time>
      </trkpt>
      <trkpt lat="43.08912" lon="2.53265">
        <ele>195</ele>
        <time>2022-05-02T22:16:06Z</time>
      </trkpt>
      <trkpt lat="43.08912" lon="2.53301">
        <ele>194</ele>
        <time>2022-05-02T22:16:11Z</time>
      </trkpt>
      <trkpt lat="43.08916" lon="2.53344">
        <ele>193</ele>
        <time>2022-05-02T22:16:16Z</time>
      </trkpt>
      <trkpt lat="43.08936" lon="2.53471">
        <ele>190</ele>
        <time>2022-05-02T22:16:33Z</time>
      </trkpt>
      <trkpt lat="43.08957" lon="2.53548">
        <ele>188</ele>
        <time>2022-05-02T22:16:44Z</time>
      </trkpt>
      <trkpt lat="43.08962" lon="2.53564">
        <ele>188</ele>
        <time>2022-05-02T22:16:46Z</time>
      </trkpt>
      <trkpt lat="43.0897" lon="2.53576">
        <ele>188</ele>
        <time>2022-05-02T22:16:48Z</time>
      </trkpt>
      <trkpt lat="43.09205" lon="2.5377">
        <ele>177</ele>
        <time>2022-05-02T22:17:37Z</time>
      </trkpt>
      <trkpt lat="43.09215" lon="2.53778">
        <ele>177</ele>
        <time>2022-05-02T22:17:39Z</time>
      </trkpt>
      <trkpt lat="43.09268" lon="2.53821">
        <ele>177</ele>
        <time>2022-05-02T22:17:50Z</time>
      </trkpt>
      <trkpt lat="43.09301" lon="2.53851">
        <ele>178</ele>
        <time>2022-05-02T22:17:57Z</time>
      </trkpt>
      <trkpt lat="43.09324" lon="2.53876">
        <ele>179</ele>
        <time>2022-05-02T22:18:02Z</time>
      </trkpt>
      <trkpt lat="43.0934" lon="2.53883">
        <ele>180</ele>
        <time>2022-05-02T22:18:05Z</time>
      </trkpt>
      <trkpt lat="43.09336" lon="2.53901">
        <ele>180</ele>
        <time>2022-05-02T22:18:08Z</time>
      </trkpt>
      <trkpt lat="43.09329" lon="2.53942">
        <ele>180</ele>
        <time>2022-05-02T22:18:13Z</time>
      </trkpt>
      <trkpt lat="43.09318" lon="2.54016">
        <ele>179</ele>
        <time>2022-05-02T22:18:23Z</time>
      </trkpt>
      <trkpt lat="43.09307" lon="2.54096">
        <ele>178</ele>
        <time>2022-05-02T22:18:34Z</time>
      </trkpt>
      <trkpt lat="43.09306" lon="2.54099">
        <ele>178</ele>
        <time>2022-05-02T22:18:34Z</time>
      </trkpt>
      <trkpt lat="43.09291" lon="2.54207">
        <ele>178</ele>
        <time>2022-05-02T22:18:48Z</time>
      </trkpt>
      <trkpt lat="43.09258" lon="2.54447">
        <ele>177</ele>
        <time>2022-05-02T22:19:20Z</time>
      </trkpt>
      <trkpt lat="43.09251" lon="2.54507">
        <ele>176</ele>
        <time>2022-05-02T22:19:28Z</time>
      </trkpt>
      <trkpt lat="43.09248" lon="2.54543">
        <ele>176</ele>
        <time>2022-05-02T22:19:33Z</time>
      </trkpt>
      <trkpt lat="43.09246" lon="2.54579">
        <ele>177</ele>
        <time>2022-05-02T22:19:37Z</time>
      </trkpt>
      <trkpt lat="43.09246" lon="2.54624">
        <ele>176</ele>
        <time>2022-05-02T22:19:43Z</time>
      </trkpt>
      <trkpt lat="43.09248" lon="2.54788">
        <ele>174</ele>
        <time>2022-05-02T22:20:04Z</time>
      </trkpt>
      <trkpt lat="43.09248" lon="2.54962">
        <ele>174</ele>
        <time>2022-05-02T22:20:27Z</time>
      </trkpt>
      <trkpt lat="43.09246" lon="2.54984">
        <ele>174</ele>
        <time>2022-05-02T22:20:30Z</time>
      </trkpt>
      <trkpt lat="43.09242" lon="2.55009">
        <ele>173</ele>
        <time>2022-05-02T22:20:33Z</time>
      </trkpt>
      <trkpt lat="43.09235" lon="2.55044">
        <ele>172</ele>
        <time>2022-05-02T22:20:38Z</time>
      </trkpt>
      <trkpt lat="43.09225" lon="2.55078">
        <ele>171</ele>
        <time>2022-05-02T22:20:43Z</time>
      </trkpt>
      <trkpt lat="43.09172" lon="2.5524">
        <ele>170</ele>
        <time>2022-05-02T22:21:06Z</time>
      </trkpt>
      <trkpt lat="43.09141" lon="2.55339">
        <ele>168</ele>
        <time>2022-05-02T22:21:20Z</time>
      </trkpt>
      <trkpt lat="43.0911" lon="2.55435">
        <ele>170</ele>
        <time>2022-05-02T22:21:33Z</time>
      </trkpt>
      <trkpt lat="43.09105" lon="2.55449">
        <ele>171</ele>
        <time>2022-05-02T22:21:35Z</time>
      </trkpt>
      <trkpt lat="43.09098" lon="2.55469">
        <ele>172</ele>
        <time>2022-05-02T22:21:38Z</time>
      </trkpt>
      <trkpt lat="43.09064" lon="2.55528">
        <ele>177</ele>
        <time>2022-05-02T22:21:48Z</time>
      </trkpt>
      <trkpt lat="43.09055" lon="2.55552">
        <ele>178</ele>
        <time>2022-05-02T22:21:52Z</time>
      </trkpt>
      <trkpt lat="43.09038" lon="2.55613">
        <ele>179</ele>
        <time>2022-05-02T22:22:00Z</time>
      </trkpt>
      <trkpt lat="43.08999" lon="2.55774">
        <ele>172</ele>
        <time>2022-05-02T22:22:22Z</time>
      </trkpt>
      <trkpt lat="43.08993" lon="2.55801">
        <ele>173</ele>
        <time>2022-05-02T22:22:26Z</time>
      </trkpt>
      <trkpt lat="43.08993" lon="2.55822">
        <ele>172</ele>
        <time>2022-05-02T22:22:29Z</time>
      </trkpt>
      <trkpt lat="43.08996" lon="2.55839">
        <ele>171</ele>
        <time>2022-05-02T22:22:31Z</time>
      </trkpt>
      <trkpt lat="43.09006" lon="2.55854">
        <ele>171</ele>
        <time>2022-05-02T22:22:33Z</time>
      </trkpt>
      <trkpt lat="43.09018" lon="2.55863">
        <ele>171</ele>
        <time>2022-05-02T22:22:36Z</time>
      </trkpt>
      <trkpt lat="43.09037" lon="2.55865">
        <ele>171</ele>
        <time>2022-05-02T22:22:39Z</time>
      </trkpt>
      <trkpt lat="43.09091" lon="2.55855">
        <ele>171</ele>
        <time>2022-05-02T22:22:49Z</time>
      </trkpt>
      <trkpt lat="43.09099" lon="2.55856">
        <ele>171</ele>
        <time>2022-05-02T22:22:50Z</time>
      </trkpt>
      <trkpt lat="43.0911" lon="2.55861">
        <ele>171</ele>
        <time>2022-05-02T22:22:52Z</time>
      </trkpt>
      <trkpt lat="43.09118" lon="2.55872">
        <ele>171</ele>
        <time>2022-05-02T22:22:54Z</time>
      </trkpt>
      <trkpt lat="43.09121" lon="2.55881">
        <ele>171</ele>
        <time>2022-05-02T22:22:56Z</time>
      </trkpt>
      <trkpt lat="43.09122" lon="2.55893">
        <ele>170</ele>
        <time>2022-05-02T22:22:57Z</time>
      </trkpt>
      <trkpt lat="43.0912" lon="2.55946">
        <ele>171</ele>
        <time>2022-05-02T22:23:04Z</time>
      </trkpt>
      <trkpt lat="43.09122" lon="2.55991">
        <ele>173</ele>
        <time>2022-05-02T22:23:10Z</time>
      </trkpt>
      <trkpt lat="43.09138" lon="2.56109">
        <ele>175</ele>
        <time>2022-05-02T22:23:26Z</time>
      </trkpt>
      <trkpt lat="43.09137" lon="2.56139">
        <ele>175</ele>
        <time>2022-05-02T22:23:30Z</time>
      </trkpt>
      <trkpt lat="43.09122" lon="2.56235">
        <ele>178</ele>
        <time>2022-05-02T22:23:42Z</time>
      </trkpt>
      <trkpt lat="43.09113" lon="2.56311">
        <ele>178</ele>
        <time>2022-05-02T22:23:52Z</time>
      </trkpt>
      <trkpt lat="43.09101" lon="2.56371">
        <ele>176</ele>
        <time>2022-05-02T22:24:00Z</time>
      </trkpt>
      <trkpt lat="43.09078" lon="2.56472">
        <ele>169</ele>
        <time>2022-05-02T22:24:14Z</time>
      </trkpt>
      <trkpt lat="43.09063" lon="2.56551">
        <ele>169</ele>
        <time>2022-05-02T22:24:25Z</time>
      </trkpt>
      <trkpt lat="43.09033" lon="2.56659">
        <ele>172</ele>
        <time>2022-05-02T22:24:40Z</time>
      </trkpt>
      <trkpt lat="43.09001" lon="2.56758">
        <ele>168</ele>
        <time>2022-05-02T22:24:54Z</time>
      </trkpt>
      <trkpt lat="43.08988" lon="2.56815">
        <ele>169</ele>
        <time>2022-05-02T22:25:02Z</time>
      </trkpt>
      <trkpt lat="43.08977" lon="2.56869">
        <ele>170</ele>
        <time>2022-05-02T22:25:09Z</time>
      </trkpt>
      <trkpt lat="43.08956" lon="2.5702">
        <ele>170</ele>
        <time>2022-05-02T22:25:29Z</time>
      </trkpt>
      <trkpt lat="43.08953" lon="2.57032">
        <ele>170</ele>
        <time>2022-05-02T22:25:31Z</time>
      </trkpt>
      <trkpt lat="43.08941" lon="2.5707">
        <ele>172</ele>
        <time>2022-05-02T22:25:36Z</time>
      </trkpt>
      <trkpt lat="43.08934" lon="2.57102">
        <ele>173</ele>
        <time>2022-05-02T22:25:40Z</time>
      </trkpt>
      <trkpt lat="43.08929" lon="2.57143">
        <ele>173</ele>
        <time>2022-05-02T22:25:46Z</time>
      </trkpt>
      <trkpt lat="43.08928" lon="2.57156">
        <ele>174</ele>
        <time>2022-05-02T22:25:47Z</time>
      </trkpt>
      <trkpt lat="43.0893" lon="2.57175">
        <ele>174</ele>
        <time>2022-05-02T22:25:50Z</time>
      </trkpt>
      <trkpt lat="43.08936" lon="2.57195">
        <ele>176</ele>
        <time>2022-05-02T22:25:53Z</time>
      </trkpt>
      <trkpt lat="43.08941" lon="2.57204">
        <ele>176</ele>
        <time>2022-05-02T22:25:54Z</time>
      </trkpt>
      <trkpt lat="43.08954" lon="2.57219">
        <ele>176</ele>
        <time>2022-05-02T22:25:57Z</time>
      </trkpt>
      <trkpt lat="43.08969" lon="2.57232">
        <ele>175</ele>
        <time>2022-05-02T22:26:00Z</time>
      </trkpt>
      <trkpt lat="43.08976" lon="2.57237">
        <ele>175</ele>
        <time>2022-05-02T22:26:02Z</time>
      </trkpt>
      <trkpt lat="43.0899" lon="2.57242">
        <ele>173</ele>
        <time>2022-05-02T22:26:04Z</time>
      </trkpt>
      <trkpt lat="43.08997" lon="2.57242">
        <ele>172</ele>
        <time>2022-05-02T22:26:06Z</time>
      </trkpt>
      <trkpt lat="43.09011" lon="2.5724">
        <ele>173</ele>
        <time>2022-05-02T22:26:08Z</time>
      </trkpt>
      <trkpt lat="43.09022" lon="2.57234">
        <ele>173</ele>
        <time>2022-05-02T22:26:10Z</time>
      </trkpt>
      <trkpt lat="43.09104" lon="2.57177">
        <ele>166</ele>
        <time>2022-05-02T22:26:27Z</time>
      </trkpt>
      <trkpt lat="43.09125" lon="2.57169">
        <ele>163</ele>
        <time>2022-05-02T22:26:30Z</time>
      </trkpt>
      <trkpt lat="43.09324" lon="2.57186">
        <ele>162</ele>
        <time>2022-05-02T22:27:06Z</time>
      </trkpt>
      <trkpt lat="43.09368" lon="2.57199">
        <ele>163</ele>
        <time>2022-05-02T22:27:14Z</time>
      </trkpt>
      <trkpt lat="43.09376" lon="2.57205">
        <ele>163</ele>
        <time>2022-05-02T22:27:15Z</time>
      </trkpt>
      <trkpt lat="43.09387" lon="2.57223">
        <ele>163</ele>
        <time>2022-05-02T22:27:19Z</time>
      </trkpt>
      <trkpt lat="43.09392" lon="2.57247">
        <ele>162</ele>
        <time>2022-05-02T22:27:22Z</time>
      </trkpt>
      <trkpt lat="43.09393" lon="2.57259">
        <ele>162</ele>
        <time>2022-05-02T22:27:23Z</time>
      </trkpt>
      <trkpt lat="43.09392" lon="2.57271">
        <ele>163</ele>
        <time>2022-05-02T22:27:25Z</time>
      </trkpt>
      <trkpt lat="43.09386" lon="2.57293">
        <ele>164</ele>
        <time>2022-05-02T22:27:28Z</time>
      </trkpt>
      <trkpt lat="43.09352" lon="2.5736">
        <ele>170</ele>
        <time>2022-05-02T22:27:39Z</time>
      </trkpt>
      <trkpt lat="43.09329" lon="2.57413">
        <ele>167</ele>
        <time>2022-05-02T22:27:47Z</time>
      </trkpt>
      <trkpt lat="43.09307" lon="2.57476">
        <ele>172</ele>
        <time>2022-05-02T22:27:56Z</time>
      </trkpt>
      <trkpt lat="43.09275" lon="2.57586">
        <ele>173</ele>
        <time>2022-05-02T22:28:11Z</time>
      </trkpt>
      <trkpt lat="43.0927" lon="2.57646">
        <ele>166</ele>
        <time>2022-05-02T22:28:19Z</time>
      </trkpt>
      <trkpt lat="43.09264" lon="2.57682">
        <ele>162</ele>
        <time>2022-05-02T22:28:24Z</time>
      </trkpt>
      <trkpt lat="43.09257" lon="2.577">
        <ele>160</ele>
        <time>2022-05-02T22:28:26Z</time>
      </trkpt>
      <trkpt lat="43.09227" lon="2.57737">
        <ele>156</ele>
        <time>2022-05-02T22:28:34Z</time>
      </trkpt>
      <trkpt lat="43.09205" lon="2.57755">
        <ele>155</ele>
        <time>2022-05-02T22:28:38Z</time>
      </trkpt>
      <trkpt lat="43.09185" lon="2.57767">
        <ele>156</ele>
        <time>2022-05-02T22:28:42Z</time>
      </trkpt>
      <trkpt lat="43.09122" lon="2.5778">
        <ele>159</ele>
        <time>2022-05-02T22:28:53Z</time>
      </trkpt>
      <trkpt lat="43.09069" lon="2.57787">
        <ele>162</ele>
        <time>2022-05-02T22:29:03Z</time>
      </trkpt>
      <trkpt lat="43.09051" lon="2.57792">
        <ele>163</ele>
        <time>2022-05-02T22:29:06Z</time>
      </trkpt>
      <trkpt lat="43.09039" lon="2.57801">
        <ele>162</ele>
        <time>2022-05-02T22:29:08Z</time>
      </trkpt>
      <trkpt lat="43.09033" lon="2.57812">
        <ele>159</ele>
        <time>2022-05-02T22:29:10Z</time>
      </trkpt>
      <trkpt lat="43.09033" lon="2.57831">
        <ele>154</ele>
        <time>2022-05-02T22:29:13Z</time>
      </trkpt>
      <trkpt lat="43.09039" lon="2.57875">
        <ele>155</ele>
        <time>2022-05-02T22:29:19Z</time>
      </trkpt>
      <trkpt lat="43.09039" lon="2.57897">
        <ele>156</ele>
        <time>2022-05-02T22:29:21Z</time>
      </trkpt>
      <trkpt lat="43.09034" lon="2.57914">
        <ele>156</ele>
        <time>2022-05-02T22:29:24Z</time>
      </trkpt>
      <trkpt lat="43.09019" lon="2.57946">
        <ele>155</ele>
        <time>2022-05-02T22:29:29Z</time>
      </trkpt>
      <trkpt lat="43.09003" lon="2.5803">
        <ele>153</ele>
        <time>2022-05-02T22:29:40Z</time>
      </trkpt>
      <trkpt lat="43.09" lon="2.5806">
        <ele>152</ele>
        <time>2022-05-02T22:29:44Z</time>
      </trkpt>
      <trkpt lat="43.09001" lon="2.58085">
        <ele>152</ele>
        <time>2022-05-02T22:29:47Z</time>
      </trkpt>
      <trkpt lat="43.09009" lon="2.58135">
        <ele>155</ele>
        <time>2022-05-02T22:29:54Z</time>
      </trkpt>
      <trkpt lat="43.09007" lon="2.58166">
        <ele>154</ele>
        <time>2022-05-02T22:29:58Z</time>
      </trkpt>
      <trkpt lat="43.09003" lon="2.58192">
        <ele>153</ele>
        <time>2022-05-02T22:30:01Z</time>
      </trkpt>
      <trkpt lat="43.08992" lon="2.5823">
        <ele>154</ele>
        <time>2022-05-02T22:30:07Z</time>
      </trkpt>
      <trkpt lat="43.08989" lon="2.58248">
        <ele>155</ele>
        <time>2022-05-02T22:30:09Z</time>
      </trkpt>
      <trkpt lat="43.08983" lon="2.5836">
        <ele>153</ele>
        <time>2022-05-02T22:30:24Z</time>
      </trkpt>
      <trkpt lat="43.08979" lon="2.58379">
        <ele>152</ele>
        <time>2022-05-02T22:30:26Z</time>
      </trkpt>
      <trkpt lat="43.0897" lon="2.58411">
        <ele>150</ele>
        <time>2022-05-02T22:30:31Z</time>
      </trkpt>
      <trkpt lat="43.08969" lon="2.58432">
        <ele>150</ele>
        <time>2022-05-02T22:30:33Z</time>
      </trkpt>
      <trkpt lat="43.08972" lon="2.58456">
        <ele>149</ele>
        <time>2022-05-02T22:30:37Z</time>
      </trkpt>
      <trkpt lat="43.08981" lon="2.58478">
        <ele>148</ele>
        <time>2022-05-02T22:30:40Z</time>
      </trkpt>
      <trkpt lat="43.0899" lon="2.58496">
        <ele>146</ele>
        <time>2022-05-02T22:30:43Z</time>
      </trkpt>
      <trkpt lat="43.08998" lon="2.58507">
        <ele>146</ele>
        <time>2022-05-02T22:30:45Z</time>
      </trkpt>
      <trkpt lat="43.09009" lon="2.5851">
        <ele>146</ele>
        <time>2022-05-02T22:30:47Z</time>
      </trkpt>
      <trkpt lat="43.09019" lon="2.5851">
        <ele>146</ele>
        <time>2022-05-02T22:30:48Z</time>
      </trkpt>
      <trkpt lat="43.09033" lon="2.58502">
        <ele>146</ele>
        <time>2022-05-02T22:30:51Z</time>
      </trkpt>
      <trkpt lat="43.09042" lon="2.58487">
        <ele>146</ele>
        <time>2022-05-02T22:30:54Z</time>
      </trkpt>
      <trkpt lat="43.09062" lon="2.58434">
        <ele>148</ele>
        <time>2022-05-02T22:31:01Z</time>
      </trkpt>
      <trkpt lat="43.09079" lon="2.58402">
        <ele>148</ele>
        <time>2022-05-02T22:31:07Z</time>
      </trkpt>
      <trkpt lat="43.09093" lon="2.58363">
        <ele>150</ele>
        <time>2022-05-02T22:31:12Z</time>
      </trkpt>
      <trkpt lat="43.09113" lon="2.5833">
        <ele>150</ele>
        <time>2022-05-02T22:31:18Z</time>
      </trkpt>
      <trkpt lat="43.09152" lon="2.58296">
        <ele>158</ele>
        <time>2022-05-02T22:31:26Z</time>
      </trkpt>
      <trkpt lat="43.09173" lon="2.58285">
        <ele>161</ele>
        <time>2022-05-02T22:31:30Z</time>
      </trkpt>
      <trkpt lat="43.09188" lon="2.58282">
        <ele>163</ele>
        <time>2022-05-02T22:31:33Z</time>
      </trkpt>
      <trkpt lat="43.09206" lon="2.58284">
        <ele>164</ele>
        <time>2022-05-02T22:31:36Z</time>
      </trkpt>
      <trkpt lat="43.09227" lon="2.58291">
        <ele>162</ele>
        <time>2022-05-02T22:31:40Z</time>
      </trkpt>
      <trkpt lat="43.09246" lon="2.58304">
        <ele>158</ele>
        <time>2022-05-02T22:31:44Z</time>
      </trkpt>
      <trkpt lat="43.09275" lon="2.5833">
        <ele>156</ele>
        <time>2022-05-02T22:31:50Z</time>
      </trkpt>
      <trkpt lat="43.09301" lon="2.58365">
        <ele>158</ele>
        <time>2022-05-02T22:31:56Z</time>
      </trkpt>
      <trkpt lat="43.09316" lon="2.58391">
        <ele>157</ele>
        <time>2022-05-02T22:32:01Z</time>
      </trkpt>
      <trkpt lat="43.09322" lon="2.58405">
        <ele>155</ele>
        <time>2022-05-02T22:32:03Z</time>
      </trkpt>
      <trkpt lat="43.09326" lon="2.58421">
        <ele>153</ele>
        <time>2022-05-02T22:32:05Z</time>
      </trkpt>
      <trkpt lat="43.09327" lon="2.5844">
        <ele>152</ele>
        <time>2022-05-02T22:32:07Z</time>
      </trkpt>
      <trkpt lat="43.09287" lon="2.58629">
        <ele>150</ele>
        <time>2022-05-02T22:32:33Z</time>
      </trkpt>
      <trkpt lat="43.09271" lon="2.58757">
        <ele>150</ele>
        <time>2022-05-02T22:32:50Z</time>
      </trkpt>
      <trkpt lat="43.09263" lon="2.588">
        <ele>147</ele>
        <time>2022-05-02T22:32:56Z</time>
      </trkpt>
      <trkpt lat="43.09247" lon="2.58865">
        <ele>143</ele>
        <time>2022-05-02T22:33:04Z</time>
      </trkpt>
      <trkpt lat="43.09223" lon="2.58953">
        <ele>146</ele>
        <time>2022-05-02T22:33:17Z</time>
      </trkpt>
      <trkpt lat="43.09218" lon="2.58975">
        <ele>146</ele>
        <time>2022-05-02T22:33:20Z</time>
      </trkpt>
      <trkpt lat="43.09214" lon="2.59001">
        <ele>145</ele>
        <time>2022-05-02T22:33:23Z</time>
      </trkpt>
      <trkpt lat="43.09211" lon="2.59058">
        <ele>147</ele>
        <time>2022-05-02T22:33:31Z</time>
      </trkpt>
      <trkpt lat="43.09211" lon="2.59242">
        <ele>146</ele>
        <time>2022-05-02T22:33:54Z</time>
      </trkpt>
      <trkpt lat="43.09209" lon="2.5933">
        <ele>145</ele>
        <time>2022-05-02T22:34:06Z</time>
      </trkpt>
      <trkpt lat="43.09204" lon="2.59355">
        <ele>143</ele>
        <time>2022-05-02T22:34:09Z</time>
      </trkpt>
      <trkpt lat="43.09195" lon="2.59386">
        <ele>141</ele>
        <time>2022-05-02T22:34:14Z</time>
      </trkpt>
      <trkpt lat="43.09181" lon="2.59418">
        <ele>137</ele>
        <time>2022-05-02T22:34:18Z</time>
      </trkpt>
      <trkpt lat="43.09175" lon="2.59443">
        <ele>135</ele>
        <time>2022-05-02T22:34:22Z</time>
      </trkpt>
      <trkpt lat="43.09174" lon="2.59462">
        <ele>135</ele>
        <time>2022-05-02T22:34:24Z</time>
      </trkpt>
      <trkpt lat="43.09181" lon="2.595">
        <ele>135</ele>
        <time>2022-05-02T22:34:29Z</time>
      </trkpt>
      <trkpt lat="43.09186" lon="2.59513">
        <ele>136</ele>
        <time>2022-05-02T22:34:31Z</time>
      </trkpt>
      <trkpt lat="43.09193" lon="2.59524">
        <ele>138</ele>
        <time>2022-05-02T22:34:33Z</time>
      </trkpt>
      <trkpt lat="43.09207" lon="2.59536">
        <ele>138</ele>
        <time>2022-05-02T22:34:36Z</time>
      </trkpt>
      <trkpt lat="43.09217" lon="2.5954">
        <ele>137</ele>
        <time>2022-05-02T22:34:38Z</time>
      </trkpt>
      <trkpt lat="43.09259" lon="2.59549">
        <ele>136</ele>
        <time>2022-05-02T22:34:46Z</time>
      </trkpt>
      <trkpt lat="43.09271" lon="2.59553">
        <ele>139</ele>
        <time>2022-05-02T22:34:48Z</time>
      </trkpt>
      <trkpt lat="43.09278" lon="2.59558">
        <ele>141</ele>
        <time>2022-05-02T22:34:49Z</time>
      </trkpt>
      <trkpt lat="43.09291" lon="2.59573">
        <ele>143</ele>
        <time>2022-05-02T22:34:52Z</time>
      </trkpt>
      <trkpt lat="43.09304" lon="2.59603">
        <ele>146</ele>
        <time>2022-05-02T22:34:57Z</time>
      </trkpt>
      <trkpt lat="43.09307" lon="2.59619">
        <ele>147</ele>
        <time>2022-05-02T22:34:59Z</time>
      </trkpt>
      <trkpt lat="43.09309" lon="2.59632">
        <ele>148</ele>
        <time>2022-05-02T22:35:01Z</time>
      </trkpt>
      <trkpt lat="43.09306" lon="2.59659">
        <ele>147</ele>
        <time>2022-05-02T22:35:04Z</time>
      </trkpt>
      <trkpt lat="43.09291" lon="2.59691">
        <ele>145</ele>
        <time>2022-05-02T22:35:09Z</time>
      </trkpt>
      <trkpt lat="43.09279" lon="2.59711">
        <ele>144</ele>
        <time>2022-05-02T22:35:12Z</time>
      </trkpt>
      <trkpt lat="43.09206" lon="2.59804">
        <ele>142</ele>
        <time>2022-05-02T22:35:30Z</time>
      </trkpt>
      <trkpt lat="43.09161" lon="2.59851">
        <ele>138</ele>
        <time>2022-05-02T22:35:40Z</time>
      </trkpt>
      <trkpt lat="43.09138" lon="2.59881">
        <ele>139</ele>
        <time>2022-05-02T22:35:46Z</time>
      </trkpt>
      <trkpt lat="43.0912" lon="2.59912">
        <ele>137</ele>
        <time>2022-05-02T22:35:51Z</time>
      </trkpt>
      <trkpt lat="43.09106" lon="2.59947">
        <ele>134</ele>
        <time>2022-05-02T22:35:56Z</time>
      </trkpt>
      <trkpt lat="43.091" lon="2.59964">
        <ele>133</ele>
        <time>2022-05-02T22:35:59Z</time>
      </trkpt>
      <trkpt lat="43.09095" lon="2.59994">
        <ele>132</ele>
        <time>2022-05-02T22:36:03Z</time>
      </trkpt>
      <trkpt lat="43.09095" lon="2.60024">
        <ele>131</ele>
        <time>2022-05-02T22:36:07Z</time>
      </trkpt>
      <trkpt lat="43.09099" lon="2.60041">
        <ele>130</ele>
        <time>2022-05-02T22:36:09Z</time>
      </trkpt>
      <trkpt lat="43.09105" lon="2.60059">
        <ele>130</ele>
        <time>2022-05-02T22:36:11Z</time>
      </trkpt>
      <trkpt lat="43.09112" lon="2.60072">
        <ele>130</ele>
        <time>2022-05-02T22:36:14Z</time>
      </trkpt>
      <trkpt lat="43.09123" lon="2.60085">
        <ele>130</ele>
        <time>2022-05-02T22:36:16Z</time>
      </trkpt>
      <trkpt lat="43.09133" lon="2.60093">
        <ele>130</ele>
        <time>2022-05-02T22:36:18Z</time>
      </trkpt>
      <trkpt lat="43.09145" lon="2.601">
        <ele>130</ele>
        <time>2022-05-02T22:36:21Z</time>
      </trkpt>
      <trkpt lat="43.09161" lon="2.60105">
        <ele>131</ele>
        <time>2022-05-02T22:36:23Z</time>
      </trkpt>
      <trkpt lat="43.09233" lon="2.60122">
        <ele>129</ele>
        <time>2022-05-02T22:36:36Z</time>
      </trkpt>
      <trkpt lat="43.09251" lon="2.6012">
        <ele>130</ele>
        <time>2022-05-02T22:36:40Z</time>
      </trkpt>
      <trkpt lat="43.09263" lon="2.60116">
        <ele>130</ele>
        <time>2022-05-02T22:36:42Z</time>
      </trkpt>
      <trkpt lat="43.09276" lon="2.60105">
        <ele>130</ele>
        <time>2022-05-02T22:36:45Z</time>
      </trkpt>
      <trkpt lat="43.09287" lon="2.60091">
        <ele>130</ele>
        <time>2022-05-02T22:36:47Z</time>
      </trkpt>
      <trkpt lat="43.09296" lon="2.60072">
        <ele>130</ele>
        <time>2022-05-02T22:36:50Z</time>
      </trkpt>
      <trkpt lat="43.09329" lon="2.5996">
        <ele>132</ele>
        <time>2022-05-02T22:37:06Z</time>
      </trkpt>
      <trkpt lat="43.09346" lon="2.59916">
        <ele>134</ele>
        <time>2022-05-02T22:37:12Z</time>
      </trkpt>
      <trkpt lat="43.09361" lon="2.59903">
        <ele>135</ele>
        <time>2022-05-02T22:37:16Z</time>
      </trkpt>
      <trkpt lat="43.09379" lon="2.59903">
        <ele>131</ele>
        <time>2022-05-02T22:37:19Z</time>
      </trkpt>
      <trkpt lat="43.09392" lon="2.59912">
        <ele>127</ele>
        <time>2022-05-02T22:37:21Z</time>
      </trkpt>
      <trkpt lat="43.09428" lon="2.59944">
        <ele>122</ele>
        <time>2022-05-02T22:37:29Z</time>
      </trkpt>
      <trkpt lat="43.09442" lon="2.59958">
        <ele>123</ele>
        <time>2022-05-02T22:37:32Z</time>
      </trkpt>
      <trkpt lat="43.09451" lon="2.5997">
        <ele>124</ele>
        <time>2022-05-02T22:37:34Z</time>
      </trkpt>
      <trkpt lat="43.09458" lon="2.59989">
        <ele>123</ele>
        <time>2022-05-02T22:37:37Z</time>
      </trkpt>
      <trkpt lat="43.09461" lon="2.60018">
        <ele>124</ele>
        <time>2022-05-02T22:37:41Z</time>
      </trkpt>
      <trkpt lat="43.09469" lon="2.60344">
        <ele>136</ele>
        <time>2022-05-02T22:38:23Z</time>
      </trkpt>
      <trkpt lat="43.09475" lon="2.60379">
        <ele>137</ele>
        <time>2022-05-02T22:38:28Z</time>
      </trkpt>
      <trkpt lat="43.0949" lon="2.6043">
        <ele>132</ele>
        <time>2022-05-02T22:38:35Z</time>
      </trkpt>
      <trkpt lat="43.09541" lon="2.60555">
        <ele>126</ele>
        <time>2022-05-02T22:38:54Z</time>
      </trkpt>
      <trkpt lat="43.09544" lon="2.60566">
        <ele>126</ele>
        <time>2022-05-02T22:38:55Z</time>
      </trkpt>
      <trkpt lat="43.09544" lon="2.60588">
        <ele>126</ele>
        <time>2022-05-02T22:38:58Z</time>
      </trkpt>
      <trkpt lat="43.09537" lon="2.60605">
        <ele>125</ele>
        <time>2022-05-02T22:39:01Z</time>
      </trkpt>
      <trkpt lat="43.09521" lon="2.60625">
        <ele>124</ele>
        <time>2022-05-02T22:39:04Z</time>
      </trkpt>
      <trkpt lat="43.09323" lon="2.6083">
        <ele>121</ele>
        <time>2022-05-02T22:39:49Z</time>
      </trkpt>
      <trkpt lat="43.09282" lon="2.60875">
        <ele>128</ele>
        <time>2022-05-02T22:39:58Z</time>
      </trkpt>
      <trkpt lat="43.09241" lon="2.60934">
        <ele>129</ele>
        <time>2022-05-02T22:40:09Z</time>
      </trkpt>
      <trkpt lat="43.09179" lon="2.61006">
        <ele>132</ele>
        <time>2022-05-02T22:40:23Z</time>
      </trkpt>
      <trkpt lat="43.09149" lon="2.61045">
        <ele>131</ele>
        <time>2022-05-02T22:40:30Z</time>
      </trkpt>
      <trkpt lat="43.09136" lon="2.61067">
        <ele>130</ele>
        <time>2022-05-02T22:40:34Z</time>
      </trkpt>
      <trkpt lat="43.09129" lon="2.61085">
        <ele>129</ele>
        <time>2022-05-02T22:40:37Z</time>
      </trkpt>
      <trkpt lat="43.09127" lon="2.61103">
        <ele>128</ele>
        <time>2022-05-02T22:40:39Z</time>
      </trkpt>
      <trkpt lat="43.09133" lon="2.61194">
        <ele>126</ele>
        <time>2022-05-02T22:40:51Z</time>
      </trkpt>
      <trkpt lat="43.09134" lon="2.61284">
        <ele>131</ele>
        <time>2022-05-02T22:41:03Z</time>
      </trkpt>
      <trkpt lat="43.09137" lon="2.61304">
        <ele>131</ele>
        <time>2022-05-02T22:41:05Z</time>
      </trkpt>
      <trkpt lat="43.09182" lon="2.61436">
        <ele>130</ele>
        <time>2022-05-02T22:41:24Z</time>
      </trkpt>
      <trkpt lat="43.09259" lon="2.61673">
        <ele>127</ele>
        <time>2022-05-02T22:41:58Z</time>
      </trkpt>
      <trkpt lat="43.09297" lon="2.61772">
        <ele>124</ele>
        <time>2022-05-02T22:42:12Z</time>
      </trkpt>
      <trkpt lat="43.09309" lon="2.61814">
        <ele>122</ele>
        <time>2022-05-02T22:42:18Z</time>
      </trkpt>
      <trkpt lat="43.09312" lon="2.61848">
        <ele>122</ele>
        <time>2022-05-02T22:42:23Z</time>
      </trkpt>
      <trkpt lat="43.0931" lon="2.61863">
        <ele>122</ele>
        <time>2022-05-02T22:42:25Z</time>
      </trkpt>
      <trkpt lat="43.09269" lon="2.6198">
        <ele>126</ele>
        <time>2022-05-02T22:42:42Z</time>
      </trkpt>
      <trkpt lat="43.09258" lon="2.61999">
        <ele>127</ele>
        <time>2022-05-02T22:42:45Z</time>
      </trkpt>
      <trkpt lat="43.09236" lon="2.62026">
        <ele>128</ele>
        <time>2022-05-02T22:42:50Z</time>
      </trkpt>
      <trkpt lat="43.09214" lon="2.62048">
        <ele>128</ele>
        <time>2022-05-02T22:42:55Z</time>
      </trkpt>
      <trkpt lat="43.09179" lon="2.6208">
        <ele>129</ele>
        <time>2022-05-02T22:43:02Z</time>
      </trkpt>
      <trkpt lat="43.09171" lon="2.62085">
        <ele>129</ele>
        <time>2022-05-02T22:43:04Z</time>
      </trkpt>
      <trkpt lat="43.09153" lon="2.62091">
        <ele>129</ele>
        <time>2022-05-02T22:43:07Z</time>
      </trkpt>
      <trkpt lat="43.09125" lon="2.62088">
        <ele>129</ele>
        <time>2022-05-02T22:43:12Z</time>
      </trkpt>
      <trkpt lat="43.09102" lon="2.62082">
        <ele>130</ele>
        <time>2022-05-02T22:43:16Z</time>
      </trkpt>
      <trkpt lat="43.09094" lon="2.62136">
        <ele>130</ele>
        <time>2022-05-02T22:43:23Z</time>
      </trkpt>
      <trkpt lat="43.09091" lon="2.62194">
        <ele>130</ele>
        <time>2022-05-02T22:43:31Z</time>
      </trkpt>
      <trkpt lat="43.09058" lon="2.62219">
        <ele>131</ele>
        <time>2022-05-02T22:43:38Z</time>
      </trkpt>
      <trkpt lat="43.09026" lon="2.62222">
        <ele>132</ele>
        <time>2022-05-02T22:43:43Z</time>
      </trkpt>
    </trkseg>
  </trk>
  <trk>
    <name><![CDATA[Lagrasse-87km]]></name>
    <extensions>
      <line xmlns="http://www.topografix.com/GPX/gpx_style/0/2">
        <color>FF0000</color>
        <width>8</width>
          <extensions>
            <sens>1</sens>
          </extensions>
      </line>
    </extensions>
    <trkseg>
      <trkpt lat="43.08971" lon="2.62148">
        <ele>135</ele>
        <time>2022-05-02T17:51:58Z</time>
      </trkpt>
      <trkpt lat="43.08969" lon="2.62125">
        <ele>135</ele>
        <time>2022-05-02T17:52:01Z</time>
      </trkpt>
      <trkpt lat="43.08969" lon="2.62093">
        <ele>136</ele>
        <time>2022-05-02T17:52:05Z</time>
      </trkpt>
      <trkpt lat="43.08971" lon="2.62062">
        <ele>136</ele>
        <time>2022-05-02T17:52:09Z</time>
      </trkpt>
      <trkpt lat="43.08975" lon="2.62042">
        <ele>136</ele>
        <time>2022-05-02T17:52:12Z</time>
      </trkpt>
      <trkpt lat="43.08919" lon="2.61996">
        <ele>139</ele>
        <time>2022-05-02T17:52:24Z</time>
      </trkpt>
      <trkpt lat="43.08877" lon="2.61965">
        <ele>140</ele>
        <time>2022-05-02T17:52:32Z</time>
      </trkpt>
      <trkpt lat="43.08826" lon="2.61923">
        <ele>139</ele>
        <time>2022-05-02T17:52:43Z</time>
      </trkpt>
      <trkpt lat="43.08794" lon="2.61905">
        <ele>137</ele>
        <time>2022-05-02T17:52:49Z</time>
      </trkpt>
      <trkpt lat="43.08713" lon="2.61885">
        <ele>139</ele>
        <time>2022-05-02T17:53:03Z</time>
      </trkpt>
      <trkpt lat="43.08684" lon="2.61872">
        <ele>140</ele>
        <time>2022-05-02T17:53:09Z</time>
      </trkpt>
      <trkpt lat="43.08656" lon="2.61856">
        <ele>139</ele>
        <time>2022-05-02T17:53:14Z</time>
      </trkpt>
      <trkpt lat="43.08515" lon="2.61764">
        <ele>139</ele>
        <time>2022-05-02T17:53:42Z</time>
      </trkpt>
      <trkpt lat="43.08491" lon="2.61741">
        <ele>139</ele>
        <time>2022-05-02T17:53:47Z</time>
      </trkpt>
      <trkpt lat="43.08418" lon="2.61644">
        <ele>137</ele>
        <time>2022-05-02T17:54:05Z</time>
      </trkpt>
      <trkpt lat="43.08378" lon="2.61593">
        <ele>137</ele>
        <time>2022-05-02T17:54:15Z</time>
      </trkpt>
      <trkpt lat="43.08349" lon="2.61568">
        <ele>137</ele>
        <time>2022-05-02T17:54:21Z</time>
      </trkpt>
      <trkpt lat="43.08265" lon="2.61512">
        <ele>137</ele>
        <time>2022-05-02T17:54:38Z</time>
      </trkpt>
      <trkpt lat="43.08169" lon="2.61429">
        <ele>139</ele>
        <time>2022-05-02T17:54:58Z</time>
      </trkpt>
      <trkpt lat="43.08147" lon="2.61406">
        <ele>140</ele>
        <time>2022-05-02T17:55:03Z</time>
      </trkpt>
      <trkpt lat="43.08134" lon="2.61384">
        <ele>140</ele>
        <time>2022-05-02T17:55:07Z</time>
      </trkpt>
      <trkpt lat="43.08114" lon="2.61321">
        <ele>138</ele>
        <time>2022-05-02T17:55:16Z</time>
      </trkpt>
      <trkpt lat="43.08105" lon="2.61302">
        <ele>136</ele>
        <time>2022-05-02T17:55:18Z</time>
      </trkpt>
      <trkpt lat="43.08098" lon="2.61295">
        <ele>136</ele>
        <time>2022-05-02T17:55:20Z</time>
      </trkpt>
      <trkpt lat="43.08091" lon="2.61289">
        <ele>136</ele>
        <time>2022-05-02T17:55:21Z</time>
      </trkpt>
      <trkpt lat="43.08073" lon="2.61278">
        <ele>137</ele>
        <time>2022-05-02T17:55:25Z</time>
      </trkpt>
      <trkpt lat="43.07995" lon="2.61247">
        <ele>140</ele>
        <time>2022-05-02T17:55:39Z</time>
      </trkpt>
      <trkpt lat="43.07976" lon="2.61228">
        <ele>139</ele>
        <time>2022-05-02T17:55:44Z</time>
      </trkpt>
      <trkpt lat="43.07969" lon="2.61215">
        <ele>139</ele>
        <time>2022-05-02T17:55:46Z</time>
      </trkpt>
      <trkpt lat="43.07965" lon="2.61203">
        <ele>139</ele>
        <time>2022-05-02T17:55:47Z</time>
      </trkpt>
      <trkpt lat="43.07958" lon="2.61168">
        <ele>137</ele>
        <time>2022-05-02T17:55:52Z</time>
      </trkpt>
      <trkpt lat="43.07951" lon="2.61138">
        <ele>137</ele>
        <time>2022-05-02T17:55:56Z</time>
      </trkpt>
      <trkpt lat="43.07945" lon="2.61123">
        <ele>137</ele>
        <time>2022-05-02T17:55:58Z</time>
      </trkpt>
      <trkpt lat="43.07899" lon="2.61037">
        <ele>139</ele>
        <time>2022-05-02T17:56:12Z</time>
      </trkpt>
      <trkpt lat="43.07884" lon="2.61002">
        <ele>141</ele>
        <time>2022-05-02T17:56:18Z</time>
      </trkpt>
      <trkpt lat="43.07879" lon="2.60986">
        <ele>142</ele>
        <time>2022-05-02T17:56:20Z</time>
      </trkpt>
      <trkpt lat="43.07869" lon="2.60937">
        <ele>143</ele>
        <time>2022-05-02T17:56:26Z</time>
      </trkpt>
      <trkpt lat="43.07837" lon="2.60729">
        <ele>138</ele>
        <time>2022-05-02T17:56:54Z</time>
      </trkpt>
      <trkpt lat="43.07825" lon="2.60687">
        <ele>138</ele>
        <time>2022-05-02T17:57:00Z</time>
      </trkpt>
      <trkpt lat="43.07713" lon="2.60459">
        <ele>137</ele>
        <time>2022-05-02T17:57:36Z</time>
      </trkpt>
      <trkpt lat="43.07695" lon="2.60436">
        <ele>137</ele>
        <time>2022-05-02T17:57:40Z</time>
      </trkpt>
      <trkpt lat="43.07674" lon="2.60419">
        <ele>137</ele>
        <time>2022-05-02T17:57:44Z</time>
      </trkpt>
      <trkpt lat="43.07654" lon="2.60415">
        <ele>136</ele>
        <time>2022-05-02T17:57:48Z</time>
      </trkpt>
      <trkpt lat="43.0764" lon="2.60416">
        <ele>135</ele>
        <time>2022-05-02T17:57:50Z</time>
      </trkpt>
      <trkpt lat="43.07626" lon="2.60421">
        <ele>135</ele>
        <time>2022-05-02T17:57:53Z</time>
      </trkpt>
      <trkpt lat="43.07465" lon="2.60559">
        <ele>142</ele>
        <time>2022-05-02T17:58:27Z</time>
      </trkpt>
      <trkpt lat="43.0738" lon="2.60647">
        <ele>145</ele>
        <time>2022-05-02T17:58:46Z</time>
      </trkpt>
      <trkpt lat="43.0737" lon="2.60659">
        <ele>145</ele>
        <time>2022-05-02T17:58:48Z</time>
      </trkpt>
      <trkpt lat="43.0736" lon="2.60682">
        <ele>145</ele>
        <time>2022-05-02T17:58:52Z</time>
      </trkpt>
      <trkpt lat="43.07355" lon="2.60711">
        <ele>147</ele>
        <time>2022-05-02T17:58:56Z</time>
      </trkpt>
      <trkpt lat="43.07341" lon="2.60902">
        <ele>146</ele>
        <time>2022-05-02T17:59:20Z</time>
      </trkpt>
      <trkpt lat="43.07336" lon="2.60928">
        <ele>146</ele>
        <time>2022-05-02T17:59:24Z</time>
      </trkpt>
      <trkpt lat="43.07327" lon="2.60953">
        <ele>145</ele>
        <time>2022-05-02T17:59:28Z</time>
      </trkpt>
      <trkpt lat="43.07304" lon="2.60992">
        <ele>144</ele>
        <time>2022-05-02T17:59:34Z</time>
      </trkpt>
      <trkpt lat="43.07291" lon="2.61008">
        <ele>143</ele>
        <time>2022-05-02T17:59:37Z</time>
      </trkpt>
      <trkpt lat="43.07276" lon="2.61023">
        <ele>143</ele>
        <time>2022-05-02T17:59:41Z</time>
      </trkpt>
      <trkpt lat="43.07263" lon="2.61033">
        <ele>142</ele>
        <time>2022-05-02T17:59:43Z</time>
      </trkpt>
      <trkpt lat="43.07249" lon="2.61039">
        <ele>141</ele>
        <time>2022-05-02T17:59:46Z</time>
      </trkpt>
      <trkpt lat="43.0717" lon="2.61057">
        <ele>142</ele>
        <time>2022-05-02T18:00:00Z</time>
      </trkpt>
      <trkpt lat="43.07157" lon="2.61059">
        <ele>143</ele>
        <time>2022-05-02T18:00:02Z</time>
      </trkpt>
      <trkpt lat="43.07137" lon="2.61063">
        <ele>145</ele>
        <time>2022-05-02T18:00:06Z</time>
      </trkpt>
      <trkpt lat="43.07126" lon="2.61062">
        <ele>146</ele>
        <time>2022-05-02T18:00:08Z</time>
      </trkpt>
      <trkpt lat="43.07112" lon="2.61058">
        <ele>148</ele>
        <time>2022-05-02T18:00:10Z</time>
      </trkpt>
      <trkpt lat="43.07005" lon="2.60956">
        <ele>146</ele>
        <time>2022-05-02T18:00:34Z</time>
      </trkpt>
      <trkpt lat="43.06995" lon="2.60947">
        <ele>146</ele>
        <time>2022-05-02T18:00:36Z</time>
      </trkpt>
      <trkpt lat="43.06937" lon="2.60889">
        <ele>150</ele>
        <time>2022-05-02T18:00:49Z</time>
      </trkpt>
      <trkpt lat="43.06926" lon="2.60874">
        <ele>150</ele>
        <time>2022-05-02T18:00:51Z</time>
      </trkpt>
      <trkpt lat="43.06902" lon="2.60824">
        <ele>146</ele>
        <time>2022-05-02T18:00:59Z</time>
      </trkpt>
      <trkpt lat="43.06895" lon="2.60813">
        <ele>145</ele>
        <time>2022-05-02T18:01:01Z</time>
      </trkpt>
      <trkpt lat="43.06887" lon="2.60805">
        <ele>145</ele>
        <time>2022-05-02T18:01:03Z</time>
      </trkpt>
      <trkpt lat="43.06878" lon="2.60799">
        <ele>145</ele>
        <time>2022-05-02T18:01:05Z</time>
      </trkpt>
      <trkpt lat="43.06869" lon="2.60797">
        <ele>145</ele>
        <time>2022-05-02T18:01:06Z</time>
      </trkpt>
      <trkpt lat="43.06857" lon="2.60797">
        <ele>146</ele>
        <time>2022-05-02T18:01:08Z</time>
      </trkpt>
      <trkpt lat="43.06848" lon="2.60799">
        <ele>146</ele>
        <time>2022-05-02T18:01:10Z</time>
      </trkpt>
      <trkpt lat="43.06839" lon="2.60804">
        <ele>147</ele>
        <time>2022-05-02T18:01:12Z</time>
      </trkpt>
      <trkpt lat="43.06812" lon="2.60827">
        <ele>151</ele>
        <time>2022-05-02T18:01:17Z</time>
      </trkpt>
      <trkpt lat="43.06796" lon="2.60834">
        <ele>151</ele>
        <time>2022-05-02T18:01:20Z</time>
      </trkpt>
      <trkpt lat="43.06785" lon="2.60835">
        <ele>151</ele>
        <time>2022-05-02T18:01:22Z</time>
      </trkpt>
      <trkpt lat="43.06748" lon="2.60829">
        <ele>150</ele>
        <time>2022-05-02T18:01:29Z</time>
      </trkpt>
      <trkpt lat="43.06733" lon="2.60832">
        <ele>150</ele>
        <time>2022-05-02T18:01:32Z</time>
      </trkpt>
      <trkpt lat="43.06693" lon="2.6085">
        <ele>150</ele>
        <time>2022-05-02T18:01:39Z</time>
      </trkpt>
      <trkpt lat="43.06673" lon="2.6085">
        <ele>149</ele>
        <time>2022-05-02T18:01:43Z</time>
      </trkpt>
      <trkpt lat="43.06662" lon="2.60846">
        <ele>149</ele>
        <time>2022-05-02T18:01:45Z</time>
      </trkpt>
      <trkpt lat="43.06642" lon="2.60833">
        <ele>151</ele>
        <time>2022-05-02T18:01:49Z</time>
      </trkpt>
      <trkpt lat="43.06624" lon="2.60821">
        <ele>153</ele>
        <time>2022-05-02T18:01:52Z</time>
      </trkpt>
      <trkpt lat="43.06617" lon="2.6081">
        <ele>154</ele>
        <time>2022-05-02T18:01:54Z</time>
      </trkpt>
      <trkpt lat="43.06612" lon="2.60799">
        <ele>154</ele>
        <time>2022-05-02T18:01:56Z</time>
      </trkpt>
      <trkpt lat="43.06593" lon="2.6073">
        <ele>156</ele>
        <time>2022-05-02T18:02:05Z</time>
      </trkpt>
      <trkpt lat="43.06584" lon="2.60708">
        <ele>157</ele>
        <time>2022-05-02T18:02:09Z</time>
      </trkpt>
      <trkpt lat="43.06577" lon="2.60696">
        <ele>157</ele>
        <time>2022-05-02T18:02:11Z</time>
      </trkpt>
      <trkpt lat="43.06519" lon="2.60634">
        <ele>159</ele>
        <time>2022-05-02T18:02:24Z</time>
      </trkpt>
      <trkpt lat="43.06511" lon="2.60619">
        <ele>160</ele>
        <time>2022-05-02T18:02:26Z</time>
      </trkpt>
      <trkpt lat="43.06499" lon="2.60582">
        <ele>160</ele>
        <time>2022-05-02T18:02:31Z</time>
      </trkpt>
      <trkpt lat="43.06487" lon="2.60528">
        <ele>161</ele>
        <time>2022-05-02T18:02:39Z</time>
      </trkpt>
      <trkpt lat="43.06477" lon="2.60499">
        <ele>162</ele>
        <time>2022-05-02T18:02:43Z</time>
      </trkpt>
      <trkpt lat="43.06405" lon="2.60383">
        <ele>164</ele>
        <time>2022-05-02T18:03:03Z</time>
      </trkpt>
      <trkpt lat="43.06327" lon="2.6025">
        <ele>162</ele>
        <time>2022-05-02T18:03:25Z</time>
      </trkpt>
      <trkpt lat="43.06314" lon="2.60245">
        <ele>160</ele>
        <time>2022-05-02T18:03:27Z</time>
      </trkpt>
      <trkpt lat="43.06293" lon="2.60248">
        <ele>160</ele>
        <time>2022-05-02T18:03:31Z</time>
      </trkpt>
      <trkpt lat="43.06267" lon="2.60261">
        <ele>161</ele>
        <time>2022-05-02T18:03:36Z</time>
      </trkpt>
      <trkpt lat="43.06248" lon="2.60258">
        <ele>160</ele>
        <time>2022-05-02T18:03:39Z</time>
      </trkpt>
      <trkpt lat="43.0621" lon="2.6024">
        <ele>154</ele>
        <time>2022-05-02T18:03:46Z</time>
      </trkpt>
      <trkpt lat="43.0619" lon="2.60241">
        <ele>153</ele>
        <time>2022-05-02T18:03:50Z</time>
      </trkpt>
      <trkpt lat="43.06164" lon="2.60257">
        <ele>154</ele>
        <time>2022-05-02T18:03:55Z</time>
      </trkpt>
      <trkpt lat="43.06141" lon="2.6029">
        <ele>156</ele>
        <time>2022-05-02T18:04:01Z</time>
      </trkpt>
      <trkpt lat="43.0604" lon="2.60404">
        <ele>153</ele>
        <time>2022-05-02T18:04:24Z</time>
      </trkpt>
      <trkpt lat="43.06003" lon="2.60443">
        <ele>151</ele>
        <time>2022-05-02T18:04:33Z</time>
      </trkpt>
      <trkpt lat="43.05967" lon="2.60472">
        <ele>151</ele>
        <time>2022-05-02T18:04:40Z</time>
      </trkpt>
      <trkpt lat="43.05942" lon="2.60476">
        <ele>149</ele>
        <time>2022-05-02T18:04:45Z</time>
      </trkpt>
      <trkpt lat="43.05927" lon="2.60482">
        <ele>148</ele>
        <time>2022-05-02T18:04:47Z</time>
      </trkpt>
      <trkpt lat="43.05893" lon="2.60513">
        <ele>149</ele>
        <time>2022-05-02T18:04:55Z</time>
      </trkpt>
      <trkpt lat="43.05881" lon="2.60503">
        <ele>149</ele>
        <time>2022-05-02T18:04:57Z</time>
      </trkpt>
      <trkpt lat="43.05873" lon="2.60496">
        <ele>149</ele>
        <time>2022-05-02T18:04:59Z</time>
      </trkpt>
      <trkpt lat="43.05837" lon="2.60471">
        <ele>151</ele>
        <time>2022-05-02T18:05:06Z</time>
      </trkpt>
      <trkpt lat="43.05846" lon="2.60412">
        <ele>153</ele>
        <time>2022-05-02T18:05:14Z</time>
      </trkpt>
      <trkpt lat="43.05851" lon="2.6039">
        <ele>152</ele>
        <time>2022-05-02T18:05:17Z</time>
      </trkpt>
      <trkpt lat="43.05852" lon="2.60371">
        <ele>152</ele>
        <time>2022-05-02T18:05:19Z</time>
      </trkpt>
      <trkpt lat="43.0585" lon="2.60348">
        <ele>152</ele>
        <time>2022-05-02T18:05:22Z</time>
      </trkpt>
      <trkpt lat="43.05839" lon="2.60303">
        <ele>150</ele>
        <time>2022-05-02T18:05:28Z</time>
      </trkpt>
      <trkpt lat="43.05814" lon="2.60278">
        <ele>151</ele>
        <time>2022-05-02T18:05:34Z</time>
      </trkpt>
      <trkpt lat="43.05793" lon="2.6026">
        <ele>152</ele>
        <time>2022-05-02T18:05:38Z</time>
      </trkpt>
      <trkpt lat="43.05778" lon="2.6025">
        <ele>153</ele>
        <time>2022-05-02T18:05:41Z</time>
      </trkpt>
      <trkpt lat="43.05725" lon="2.60224">
        <ele>158</ele>
        <time>2022-05-02T18:05:51Z</time>
      </trkpt>
      <trkpt lat="43.05714" lon="2.6021">
        <ele>158</ele>
        <time>2022-05-02T18:05:54Z</time>
      </trkpt>
      <trkpt lat="43.05682" lon="2.60145">
        <ele>157</ele>
        <time>2022-05-02T18:06:04Z</time>
      </trkpt>
      <trkpt lat="43.05668" lon="2.601">
        <ele>156</ele>
        <time>2022-05-02T18:06:11Z</time>
      </trkpt>
      <trkpt lat="43.0566" lon="2.60082">
        <ele>155</ele>
        <time>2022-05-02T18:06:13Z</time>
      </trkpt>
      <trkpt lat="43.05654" lon="2.60075">
        <ele>156</ele>
        <time>2022-05-02T18:06:15Z</time>
      </trkpt>
      <trkpt lat="43.05627" lon="2.60059">
        <ele>161</ele>
        <time>2022-05-02T18:06:20Z</time>
      </trkpt>
      <trkpt lat="43.05619" lon="2.60052">
        <ele>162</ele>
        <time>2022-05-02T18:06:22Z</time>
      </trkpt>
      <trkpt lat="43.05614" lon="2.60044">
        <ele>163</ele>
        <time>2022-05-02T18:06:23Z</time>
      </trkpt>
      <trkpt lat="43.0561" lon="2.60024">
        <ele>163</ele>
        <time>2022-05-02T18:06:26Z</time>
      </trkpt>
      <trkpt lat="43.05611" lon="2.60004">
        <ele>162</ele>
        <time>2022-05-02T18:06:28Z</time>
      </trkpt>
      <trkpt lat="43.05613" lon="2.59975">
        <ele>161</ele>
        <time>2022-05-02T18:06:32Z</time>
      </trkpt>
      <trkpt lat="43.05619" lon="2.59947">
        <ele>159</ele>
        <time>2022-05-02T18:06:36Z</time>
      </trkpt>
      <trkpt lat="43.05619" lon="2.59925">
        <ele>159</ele>
        <time>2022-05-02T18:06:39Z</time>
      </trkpt>
      <trkpt lat="43.05614" lon="2.59901">
        <ele>161</ele>
        <time>2022-05-02T18:06:42Z</time>
      </trkpt>
      <trkpt lat="43.05611" lon="2.59891">
        <ele>162</ele>
        <time>2022-05-02T18:06:43Z</time>
      </trkpt>
      <trkpt lat="43.05601" lon="2.59871">
        <ele>165</ele>
        <time>2022-05-02T18:06:47Z</time>
      </trkpt>
      <trkpt lat="43.05597" lon="2.59851">
        <ele>167</ele>
        <time>2022-05-02T18:06:49Z</time>
      </trkpt>
      <trkpt lat="43.05605" lon="2.5974">
        <ele>167</ele>
        <time>2022-05-02T18:07:04Z</time>
      </trkpt>
      <trkpt lat="43.05605" lon="2.59729">
        <ele>167</ele>
        <time>2022-05-02T18:07:05Z</time>
      </trkpt>
      <trkpt lat="43.05598" lon="2.59668">
        <ele>170</ele>
        <time>2022-05-02T18:07:13Z</time>
      </trkpt>
      <trkpt lat="43.05597" lon="2.59657">
        <ele>171</ele>
        <time>2022-05-02T18:07:15Z</time>
      </trkpt>
      <trkpt lat="43.05604" lon="2.59595">
        <ele>170</ele>
        <time>2022-05-02T18:07:23Z</time>
      </trkpt>
      <trkpt lat="43.05604" lon="2.5953">
        <ele>173</ele>
        <time>2022-05-02T18:07:31Z</time>
      </trkpt>
      <trkpt lat="43.05617" lon="2.5946">
        <ele>174</ele>
        <time>2022-05-02T18:07:41Z</time>
      </trkpt>
      <trkpt lat="43.05621" lon="2.59425">
        <ele>175</ele>
        <time>2022-05-02T18:07:45Z</time>
      </trkpt>
      <trkpt lat="43.05632" lon="2.59382">
        <ele>172</ele>
        <time>2022-05-02T18:07:51Z</time>
      </trkpt>
      <trkpt lat="43.05635" lon="2.59347">
        <ele>172</ele>
        <time>2022-05-02T18:07:56Z</time>
      </trkpt>
      <trkpt lat="43.05631" lon="2.59206">
        <ele>169</ele>
        <time>2022-05-02T18:08:14Z</time>
      </trkpt>
      <trkpt lat="43.05629" lon="2.59195">
        <ele>169</ele>
        <time>2022-05-02T18:08:16Z</time>
      </trkpt>
      <trkpt lat="43.05623" lon="2.59188">
        <ele>169</ele>
        <time>2022-05-02T18:08:17Z</time>
      </trkpt>
      <trkpt lat="43.05615" lon="2.59186">
        <ele>171</ele>
        <time>2022-05-02T18:08:18Z</time>
      </trkpt>
      <trkpt lat="43.05578" lon="2.59187">
        <ele>177</ele>
        <time>2022-05-02T18:08:25Z</time>
      </trkpt>
      <trkpt lat="43.05556" lon="2.59176">
        <ele>177</ele>
        <time>2022-05-02T18:08:29Z</time>
      </trkpt>
      <trkpt lat="43.05531" lon="2.59156">
        <ele>175</ele>
        <time>2022-05-02T18:08:34Z</time>
      </trkpt>
      <trkpt lat="43.05494" lon="2.59141">
        <ele>176</ele>
        <time>2022-05-02T18:08:41Z</time>
      </trkpt>
      <trkpt lat="43.05461" lon="2.59134">
        <ele>183</ele>
        <time>2022-05-02T18:08:47Z</time>
      </trkpt>
      <trkpt lat="43.05455" lon="2.59128">
        <ele>183</ele>
        <time>2022-05-02T18:08:48Z</time>
      </trkpt>
      <trkpt lat="43.05422" lon="2.59062">
        <ele>179</ele>
        <time>2022-05-02T18:08:59Z</time>
      </trkpt>
      <trkpt lat="43.05416" lon="2.59047">
        <ele>177</ele>
        <time>2022-05-02T18:09:01Z</time>
      </trkpt>
      <trkpt lat="43.05409" lon="2.58993">
        <ele>170</ele>
        <time>2022-05-02T18:09:08Z</time>
      </trkpt>
      <trkpt lat="43.05395" lon="2.5895">
        <ele>172</ele>
        <time>2022-05-02T18:09:14Z</time>
      </trkpt>
      <trkpt lat="43.05393" lon="2.58938">
        <ele>172</ele>
        <time>2022-05-02T18:09:16Z</time>
      </trkpt>
      <trkpt lat="43.05393" lon="2.5888">
        <ele>170</ele>
        <time>2022-05-02T18:09:23Z</time>
      </trkpt>
      <trkpt lat="43.05392" lon="2.5886">
        <ele>171</ele>
        <time>2022-05-02T18:09:26Z</time>
      </trkpt>
      <trkpt lat="43.0538" lon="2.58792">
        <ele>173</ele>
        <time>2022-05-02T18:09:35Z</time>
      </trkpt>
      <trkpt lat="43.05357" lon="2.5873">
        <ele>173</ele>
        <time>2022-05-02T18:09:44Z</time>
      </trkpt>
      <trkpt lat="43.05351" lon="2.58717">
        <ele>172</ele>
        <time>2022-05-02T18:09:46Z</time>
      </trkpt>
      <trkpt lat="43.05329" lon="2.58688">
        <ele>169</ele>
        <time>2022-05-02T18:09:52Z</time>
      </trkpt>
      <trkpt lat="43.05307" lon="2.58666">
        <ele>166</ele>
        <time>2022-05-02T18:09:57Z</time>
      </trkpt>
      <trkpt lat="43.05296" lon="2.58658">
        <ele>167</ele>
        <time>2022-05-02T18:09:59Z</time>
      </trkpt>
      <trkpt lat="43.05279" lon="2.58653">
        <ele>167</ele>
        <time>2022-05-02T18:10:02Z</time>
      </trkpt>
      <trkpt lat="43.05265" lon="2.58656">
        <ele>167</ele>
        <time>2022-05-02T18:10:04Z</time>
      </trkpt>
      <trkpt lat="43.0521" lon="2.58684">
        <ele>168</ele>
        <time>2022-05-02T18:10:15Z</time>
      </trkpt>
      <trkpt lat="43.05154" lon="2.58715">
        <ele>170</ele>
        <time>2022-05-02T18:10:26Z</time>
      </trkpt>
      <trkpt lat="43.05034" lon="2.58789">
        <ele>169</ele>
        <time>2022-05-02T18:10:49Z</time>
      </trkpt>
      <trkpt lat="43.05004" lon="2.58809">
        <ele>167</ele>
        <time>2022-05-02T18:10:55Z</time>
      </trkpt>
      <trkpt lat="43.04961" lon="2.58837">
        <ele>168</ele>
        <time>2022-05-02T18:11:03Z</time>
      </trkpt>
      <trkpt lat="43.04952" lon="2.58846">
        <ele>169</ele>
        <time>2022-05-02T18:11:05Z</time>
      </trkpt>
      <trkpt lat="43.04937" lon="2.58871">
        <ele>172</ele>
        <time>2022-05-02T18:11:10Z</time>
      </trkpt>
      <trkpt lat="43.04891" lon="2.5892">
        <ele>172</ele>
        <time>2022-05-02T18:11:20Z</time>
      </trkpt>
      <trkpt lat="43.04826" lon="2.58979">
        <ele>178</ele>
        <time>2022-05-02T18:11:34Z</time>
      </trkpt>
      <trkpt lat="43.04802" lon="2.58991">
        <ele>180</ele>
        <time>2022-05-02T18:11:38Z</time>
      </trkpt>
      <trkpt lat="43.04788" lon="2.58994">
        <ele>180</ele>
        <time>2022-05-02T18:11:41Z</time>
      </trkpt>
      <trkpt lat="43.04759" lon="2.58992">
        <ele>177</ele>
        <time>2022-05-02T18:11:46Z</time>
      </trkpt>
      <trkpt lat="43.04734" lon="2.58982">
        <ele>180</ele>
        <time>2022-05-02T18:11:51Z</time>
      </trkpt>
      <trkpt lat="43.04727" lon="2.58977">
        <ele>182</ele>
        <time>2022-05-02T18:11:52Z</time>
      </trkpt>
      <trkpt lat="43.04701" lon="2.58951">
        <ele>184</ele>
        <time>2022-05-02T18:11:58Z</time>
      </trkpt>
      <trkpt lat="43.04691" lon="2.58933">
        <ele>183</ele>
        <time>2022-05-02T18:12:01Z</time>
      </trkpt>
      <trkpt lat="43.04686" lon="2.58909">
        <ele>180</ele>
        <time>2022-05-02T18:12:04Z</time>
      </trkpt>
      <trkpt lat="43.0468" lon="2.58843">
        <ele>180</ele>
        <time>2022-05-02T18:12:13Z</time>
      </trkpt>
      <trkpt lat="43.0468" lon="2.58816">
        <ele>182</ele>
        <time>2022-05-02T18:12:16Z</time>
      </trkpt>
      <trkpt lat="43.04686" lon="2.58777">
        <ele>185</ele>
        <time>2022-05-02T18:12:21Z</time>
      </trkpt>
      <trkpt lat="43.04692" lon="2.58759">
        <ele>186</ele>
        <time>2022-05-02T18:12:24Z</time>
      </trkpt>
      <trkpt lat="43.04707" lon="2.5873">
        <ele>186</ele>
        <time>2022-05-02T18:12:29Z</time>
      </trkpt>
      <trkpt lat="43.04735" lon="2.58694">
        <ele>182</ele>
        <time>2022-05-02T18:12:35Z</time>
      </trkpt>
      <trkpt lat="43.04837" lon="2.58579">
        <ele>178</ele>
        <time>2022-05-02T18:12:59Z</time>
      </trkpt>
      <trkpt lat="43.04845" lon="2.58565">
        <ele>180</ele>
        <time>2022-05-02T18:13:01Z</time>
      </trkpt>
      <trkpt lat="43.04855" lon="2.58541">
        <ele>183</ele>
        <time>2022-05-02T18:13:05Z</time>
      </trkpt>
      <trkpt lat="43.04869" lon="2.58443">
        <ele>184</ele>
        <time>2022-05-02T18:13:18Z</time>
      </trkpt>
      <trkpt lat="43.0487" lon="2.58413">
        <ele>183</ele>
        <time>2022-05-02T18:13:22Z</time>
      </trkpt>
      <trkpt lat="43.04867" lon="2.58399">
        <ele>182</ele>
        <time>2022-05-02T18:13:24Z</time>
      </trkpt>
      <trkpt lat="43.04859" lon="2.58382">
        <ele>180</ele>
        <time>2022-05-02T18:13:26Z</time>
      </trkpt>
      <trkpt lat="43.0485" lon="2.58365">
        <ele>178</ele>
        <time>2022-05-02T18:13:29Z</time>
      </trkpt>
      <trkpt lat="43.04839" lon="2.5835">
        <ele>176</ele>
        <time>2022-05-02T18:13:32Z</time>
      </trkpt>
      <trkpt lat="43.04825" lon="2.58337">
        <ele>174</ele>
        <time>2022-05-02T18:13:35Z</time>
      </trkpt>
      <trkpt lat="43.04797" lon="2.5832">
        <ele>176</ele>
        <time>2022-05-02T18:13:40Z</time>
      </trkpt>
      <trkpt lat="43.04688" lon="2.58284">
        <ele>177</ele>
        <time>2022-05-02T18:14:00Z</time>
      </trkpt>
      <trkpt lat="43.04605" lon="2.58261">
        <ele>175</ele>
        <time>2022-05-02T18:14:15Z</time>
      </trkpt>
      <trkpt lat="43.04566" lon="2.58259">
        <ele>174</ele>
        <time>2022-05-02T18:14:22Z</time>
      </trkpt>
      <trkpt lat="43.04506" lon="2.58282">
        <ele>179</ele>
        <time>2022-05-02T18:14:33Z</time>
      </trkpt>
      <trkpt lat="43.04461" lon="2.5831">
        <ele>185</ele>
        <time>2022-05-02T18:14:42Z</time>
      </trkpt>
      <trkpt lat="43.04432" lon="2.58315">
        <ele>186</ele>
        <time>2022-05-02T18:14:47Z</time>
      </trkpt>
      <trkpt lat="43.04402" lon="2.58311">
        <ele>186</ele>
        <time>2022-05-02T18:14:53Z</time>
      </trkpt>
      <trkpt lat="43.04379" lon="2.58303">
        <ele>186</ele>
        <time>2022-05-02T18:14:57Z</time>
      </trkpt>
      <trkpt lat="43.04362" lon="2.58295">
        <ele>187</ele>
        <time>2022-05-02T18:15:00Z</time>
      </trkpt>
      <trkpt lat="43.04355" lon="2.58289">
        <ele>186</ele>
        <time>2022-05-02T18:15:01Z</time>
      </trkpt>
      <trkpt lat="43.04349" lon="2.5828">
        <ele>186</ele>
        <time>2022-05-02T18:15:03Z</time>
      </trkpt>
      <trkpt lat="43.04343" lon="2.58259">
        <ele>183</ele>
        <time>2022-05-02T18:15:06Z</time>
      </trkpt>
      <trkpt lat="43.04338" lon="2.58205">
        <ele>181</ele>
        <time>2022-05-02T18:15:13Z</time>
      </trkpt>
      <trkpt lat="43.04331" lon="2.58154">
        <ele>181</ele>
        <time>2022-05-02T18:15:20Z</time>
      </trkpt>
      <trkpt lat="43.04331" lon="2.58127">
        <ele>180</ele>
        <time>2022-05-02T18:15:23Z</time>
      </trkpt>
      <trkpt lat="43.04336" lon="2.58081">
        <ele>178</ele>
        <time>2022-05-02T18:15:29Z</time>
      </trkpt>
      <trkpt lat="43.04334" lon="2.58034">
        <ele>180</ele>
        <time>2022-05-02T18:15:35Z</time>
      </trkpt>
      <trkpt lat="43.04337" lon="2.57955">
        <ele>182</ele>
        <time>2022-05-02T18:15:46Z</time>
      </trkpt>
      <trkpt lat="43.04325" lon="2.57859">
        <ele>181</ele>
        <time>2022-05-02T18:15:58Z</time>
      </trkpt>
      <trkpt lat="43.04313" lon="2.57812">
        <ele>183</ele>
        <time>2022-05-02T18:16:05Z</time>
      </trkpt>
      <trkpt lat="43.04279" lon="2.57724">
        <ele>186</ele>
        <time>2022-05-02T18:16:18Z</time>
      </trkpt>
      <trkpt lat="43.04259" lon="2.57663">
        <ele>183</ele>
        <time>2022-05-02T18:16:27Z</time>
      </trkpt>
      <trkpt lat="43.04253" lon="2.57651">
        <ele>182</ele>
        <time>2022-05-02T18:16:28Z</time>
      </trkpt>
      <trkpt lat="43.04194" lon="2.57556">
        <ele>185</ele>
        <time>2022-05-02T18:16:45Z</time>
      </trkpt>
      <trkpt lat="43.0417" lon="2.57528">
        <ele>182</ele>
        <time>2022-05-02T18:16:50Z</time>
      </trkpt>
      <trkpt lat="43.04145" lon="2.57502">
        <ele>178</ele>
        <time>2022-05-02T18:16:56Z</time>
      </trkpt>
      <trkpt lat="43.04135" lon="2.57494">
        <ele>178</ele>
        <time>2022-05-02T18:16:58Z</time>
      </trkpt>
      <trkpt lat="43.04113" lon="2.57482">
        <ele>178</ele>
        <time>2022-05-02T18:17:02Z</time>
      </trkpt>
      <trkpt lat="43.04093" lon="2.5744">
        <ele>176</ele>
        <time>2022-05-02T18:17:09Z</time>
      </trkpt>
      <trkpt lat="43.04062" lon="2.57363">
        <ele>179</ele>
        <time>2022-05-02T18:17:20Z</time>
      </trkpt>
      <trkpt lat="43.03974" lon="2.57192">
        <ele>189</ele>
        <time>2022-05-02T18:17:47Z</time>
      </trkpt>
      <trkpt lat="43.03964" lon="2.57166">
        <ele>189</ele>
        <time>2022-05-02T18:17:51Z</time>
      </trkpt>
      <trkpt lat="43.03952" lon="2.57127">
        <ele>192</ele>
        <time>2022-05-02T18:17:57Z</time>
      </trkpt>
      <trkpt lat="43.03937" lon="2.57037">
        <ele>192</ele>
        <time>2022-05-02T18:18:09Z</time>
      </trkpt>
      <trkpt lat="43.03936" lon="2.57004">
        <ele>191</ele>
        <time>2022-05-02T18:18:13Z</time>
      </trkpt>
      <trkpt lat="43.03942" lon="2.56951">
        <ele>191</ele>
        <time>2022-05-02T18:18:20Z</time>
      </trkpt>
      <trkpt lat="43.03948" lon="2.56927">
        <ele>191</ele>
        <time>2022-05-02T18:18:23Z</time>
      </trkpt>
      <trkpt lat="43.03955" lon="2.56911">
        <ele>190</ele>
        <time>2022-05-02T18:18:26Z</time>
      </trkpt>
      <trkpt lat="43.03963" lon="2.569">
        <ele>190</ele>
        <time>2022-05-02T18:18:28Z</time>
      </trkpt>
      <trkpt lat="43.03989" lon="2.56871">
        <ele>187</ele>
        <time>2022-05-02T18:18:34Z</time>
      </trkpt>
      <trkpt lat="43.03996" lon="2.5686">
        <ele>186</ele>
        <time>2022-05-02T18:18:35Z</time>
      </trkpt>
      <trkpt lat="43.04005" lon="2.56837">
        <ele>187</ele>
        <time>2022-05-02T18:18:39Z</time>
      </trkpt>
      <trkpt lat="43.0401" lon="2.56828">
        <ele>188</ele>
        <time>2022-05-02T18:18:40Z</time>
      </trkpt>
      <trkpt lat="43.04017" lon="2.56821">
        <ele>188</ele>
        <time>2022-05-02T18:18:42Z</time>
      </trkpt>
      <trkpt lat="43.0409" lon="2.56778">
        <ele>187</ele>
        <time>2022-05-02T18:18:56Z</time>
      </trkpt>
      <trkpt lat="43.04126" lon="2.56764">
        <ele>186</ele>
        <time>2022-05-02T18:19:03Z</time>
      </trkpt>
      <trkpt lat="43.04155" lon="2.56744">
        <ele>184</ele>
        <time>2022-05-02T18:19:08Z</time>
      </trkpt>
      <trkpt lat="43.04176" lon="2.56719">
        <ele>185</ele>
        <time>2022-05-02T18:19:13Z</time>
      </trkpt>
      <trkpt lat="43.04194" lon="2.56692">
        <ele>187</ele>
        <time>2022-05-02T18:19:18Z</time>
      </trkpt>
      <trkpt lat="43.04223" lon="2.56659">
        <ele>186</ele>
        <time>2022-05-02T18:19:25Z</time>
      </trkpt>
      <trkpt lat="43.04253" lon="2.56632">
        <ele>184</ele>
        <time>2022-05-02T18:19:31Z</time>
      </trkpt>
      <trkpt lat="43.04263" lon="2.5662">
        <ele>184</ele>
        <time>2022-05-02T18:19:34Z</time>
      </trkpt>
      <trkpt lat="43.0428" lon="2.56585">
        <ele>184</ele>
        <time>2022-05-02T18:19:39Z</time>
      </trkpt>
      <trkpt lat="43.04282" lon="2.56574">
        <ele>184</ele>
        <time>2022-05-02T18:19:41Z</time>
      </trkpt>
      <trkpt lat="43.04283" lon="2.56561">
        <ele>184</ele>
        <time>2022-05-02T18:19:42Z</time>
      </trkpt>
      <trkpt lat="43.04282" lon="2.56548">
        <ele>184</ele>
        <time>2022-05-02T18:19:44Z</time>
      </trkpt>
      <trkpt lat="43.04278" lon="2.56537">
        <ele>184</ele>
        <time>2022-05-02T18:19:46Z</time>
      </trkpt>
      <trkpt lat="43.04266" lon="2.56515">
        <ele>184</ele>
        <time>2022-05-02T18:19:49Z</time>
      </trkpt>
      <trkpt lat="43.04257" lon="2.56505">
        <ele>184</ele>
        <time>2022-05-02T18:19:51Z</time>
      </trkpt>
      <trkpt lat="43.04241" lon="2.56492">
        <ele>184</ele>
        <time>2022-05-02T18:19:55Z</time>
      </trkpt>
      <trkpt lat="43.04207" lon="2.56474">
        <ele>184</ele>
        <time>2022-05-02T18:20:01Z</time>
      </trkpt>
      <trkpt lat="43.04175" lon="2.56466">
        <ele>183</ele>
        <time>2022-05-02T18:20:07Z</time>
      </trkpt>
      <trkpt lat="43.04128" lon="2.56465">
        <ele>183</ele>
        <time>2022-05-02T18:20:15Z</time>
      </trkpt>
      <trkpt lat="43.04094" lon="2.56466">
        <ele>184</ele>
        <time>2022-05-02T18:20:21Z</time>
      </trkpt>
      <trkpt lat="43.0408" lon="2.5647">
        <ele>184</ele>
        <time>2022-05-02T18:20:24Z</time>
      </trkpt>
      <trkpt lat="43.0406" lon="2.56483">
        <ele>185</ele>
        <time>2022-05-02T18:20:28Z</time>
      </trkpt>
      <trkpt lat="43.04051" lon="2.56494">
        <ele>184</ele>
        <time>2022-05-02T18:20:30Z</time>
      </trkpt>
      <trkpt lat="43.04024" lon="2.56561">
        <ele>187</ele>
        <time>2022-05-02T18:20:40Z</time>
      </trkpt>
      <trkpt lat="43.04003" lon="2.56596">
        <ele>187</ele>
        <time>2022-05-02T18:20:46Z</time>
      </trkpt>
      <trkpt lat="43.03993" lon="2.56609">
        <ele>188</ele>
        <time>2022-05-02T18:20:48Z</time>
      </trkpt>
      <trkpt lat="43.03962" lon="2.56638">
        <ele>188</ele>
        <time>2022-05-02T18:20:55Z</time>
      </trkpt>
      <trkpt lat="43.03948" lon="2.56657">
        <ele>188</ele>
        <time>2022-05-02T18:20:58Z</time>
      </trkpt>
      <trkpt lat="43.03918" lon="2.56692">
        <ele>189</ele>
        <time>2022-05-02T18:21:05Z</time>
      </trkpt>
      <trkpt lat="43.03906" lon="2.56704">
        <ele>191</ele>
        <time>2022-05-02T18:21:08Z</time>
      </trkpt>
      <trkpt lat="43.03895" lon="2.5671">
        <ele>191</ele>
        <time>2022-05-02T18:21:10Z</time>
      </trkpt>
      <trkpt lat="43.03883" lon="2.56714">
        <ele>191</ele>
        <time>2022-05-02T18:21:12Z</time>
      </trkpt>
      <trkpt lat="43.03803" lon="2.56719">
        <ele>191</ele>
        <time>2022-05-02T18:21:27Z</time>
      </trkpt>
      <trkpt lat="43.03785" lon="2.56714">
        <ele>191</ele>
        <time>2022-05-02T18:21:30Z</time>
      </trkpt>
      <trkpt lat="43.03731" lon="2.56686">
        <ele>190</ele>
        <time>2022-05-02T18:21:40Z</time>
      </trkpt>
      <trkpt lat="43.03723" lon="2.56678">
        <ele>189</ele>
        <time>2022-05-02T18:21:42Z</time>
      </trkpt>
      <trkpt lat="43.03684" lon="2.56609">
        <ele>187</ele>
        <time>2022-05-02T18:21:53Z</time>
      </trkpt>
      <trkpt lat="43.03678" lon="2.56594">
        <ele>187</ele>
        <time>2022-05-02T18:21:55Z</time>
      </trkpt>
      <trkpt lat="43.03668" lon="2.56542">
        <ele>185</ele>
        <time>2022-05-02T18:22:02Z</time>
      </trkpt>
      <trkpt lat="43.03635" lon="2.56475">
        <ele>189</ele>
        <time>2022-05-02T18:22:13Z</time>
      </trkpt>
      <trkpt lat="43.03625" lon="2.5646">
        <ele>190</ele>
        <time>2022-05-02T18:22:16Z</time>
      </trkpt>
      <trkpt lat="43.0357" lon="2.56385">
        <ele>194</ele>
        <time>2022-05-02T18:22:29Z</time>
      </trkpt>
      <trkpt lat="43.03552" lon="2.56356">
        <ele>199</ele>
        <time>2022-05-02T18:22:34Z</time>
      </trkpt>
      <trkpt lat="43.03546" lon="2.56341">
        <ele>200</ele>
        <time>2022-05-02T18:22:37Z</time>
      </trkpt>
      <trkpt lat="43.03541" lon="2.56322">
        <ele>202</ele>
        <time>2022-05-02T18:22:39Z</time>
      </trkpt>
      <trkpt lat="43.03535" lon="2.56283">
        <ele>204</ele>
        <time>2022-05-02T18:22:44Z</time>
      </trkpt>
      <trkpt lat="43.03533" lon="2.5624">
        <ele>204</ele>
        <time>2022-05-02T18:22:50Z</time>
      </trkpt>
      <trkpt lat="43.03534" lon="2.56223">
        <ele>204</ele>
        <time>2022-05-02T18:22:52Z</time>
      </trkpt>
      <trkpt lat="43.03545" lon="2.56152">
        <ele>202</ele>
        <time>2022-05-02T18:23:02Z</time>
      </trkpt>
      <trkpt lat="43.03553" lon="2.56123">
        <ele>201</ele>
        <time>2022-05-02T18:23:06Z</time>
      </trkpt>
      <trkpt lat="43.03558" lon="2.5611">
        <ele>201</ele>
        <time>2022-05-02T18:23:08Z</time>
      </trkpt>
      <trkpt lat="43.03564" lon="2.56099">
        <ele>199</ele>
        <time>2022-05-02T18:23:09Z</time>
      </trkpt>
      <trkpt lat="43.03595" lon="2.56061">
        <ele>197</ele>
        <time>2022-05-02T18:23:17Z</time>
      </trkpt>
      <trkpt lat="43.03612" lon="2.56045">
        <ele>198</ele>
        <time>2022-05-02T18:23:20Z</time>
      </trkpt>
      <trkpt lat="43.03626" lon="2.56034">
        <ele>198</ele>
        <time>2022-05-02T18:23:23Z</time>
      </trkpt>
      <trkpt lat="43.03671" lon="2.56016">
        <ele>193</ele>
        <time>2022-05-02T18:23:32Z</time>
      </trkpt>
      <trkpt lat="43.03681" lon="2.5601">
        <ele>193</ele>
        <time>2022-05-02T18:23:34Z</time>
      </trkpt>
      <trkpt lat="43.03691" lon="2.55998">
        <ele>193</ele>
        <time>2022-05-02T18:23:36Z</time>
      </trkpt>
      <trkpt lat="43.03708" lon="2.55971">
        <ele>193</ele>
        <time>2022-05-02T18:23:41Z</time>
      </trkpt>
      <trkpt lat="43.03718" lon="2.55945">
        <ele>192</ele>
        <time>2022-05-02T18:23:44Z</time>
      </trkpt>
      <trkpt lat="43.03719" lon="2.55932">
        <ele>191</ele>
        <time>2022-05-02T18:23:46Z</time>
      </trkpt>
      <trkpt lat="43.03718" lon="2.55919">
        <ele>191</ele>
        <time>2022-05-02T18:23:48Z</time>
      </trkpt>
      <trkpt lat="43.03715" lon="2.55909">
        <ele>191</ele>
        <time>2022-05-02T18:23:49Z</time>
      </trkpt>
      <trkpt lat="43.0371" lon="2.55899">
        <ele>192</ele>
        <time>2022-05-02T18:23:51Z</time>
      </trkpt>
      <trkpt lat="43.03699" lon="2.55887">
        <ele>192</ele>
        <time>2022-05-02T18:23:53Z</time>
      </trkpt>
      <trkpt lat="43.0368" lon="2.55871">
        <ele>193</ele>
        <time>2022-05-02T18:23:57Z</time>
      </trkpt>
      <trkpt lat="43.03626" lon="2.55836">
        <ele>198</ele>
        <time>2022-05-02T18:24:08Z</time>
      </trkpt>
      <trkpt lat="43.03614" lon="2.55825">
        <ele>199</ele>
        <time>2022-05-02T18:24:10Z</time>
      </trkpt>
      <trkpt lat="43.03574" lon="2.55771">
        <ele>197</ele>
        <time>2022-05-02T18:24:20Z</time>
      </trkpt>
      <trkpt lat="43.03569" lon="2.55759">
        <ele>196</ele>
        <time>2022-05-02T18:24:22Z</time>
      </trkpt>
      <trkpt lat="43.03564" lon="2.55744">
        <ele>194</ele>
        <time>2022-05-02T18:24:24Z</time>
      </trkpt>
      <trkpt lat="43.03544" lon="2.55636">
        <ele>193</ele>
        <time>2022-05-02T18:24:39Z</time>
      </trkpt>
      <trkpt lat="43.03535" lon="2.55503">
        <ele>195</ele>
        <time>2022-05-02T18:24:56Z</time>
      </trkpt>
      <trkpt lat="43.0353" lon="2.55481">
        <ele>195</ele>
        <time>2022-05-02T18:24:59Z</time>
      </trkpt>
      <trkpt lat="43.03523" lon="2.55463">
        <ele>194</ele>
        <time>2022-05-02T18:25:02Z</time>
      </trkpt>
      <trkpt lat="43.03513" lon="2.55445">
        <ele>193</ele>
        <time>2022-05-02T18:25:05Z</time>
      </trkpt>
      <trkpt lat="43.03503" lon="2.55432">
        <ele>192</ele>
        <time>2022-05-02T18:25:07Z</time>
      </trkpt>
      <trkpt lat="43.03488" lon="2.55422">
        <ele>192</ele>
        <time>2022-05-02T18:25:10Z</time>
      </trkpt>
      <trkpt lat="43.03474" lon="2.55415">
        <ele>192</ele>
        <time>2022-05-02T18:25:13Z</time>
      </trkpt>
      <trkpt lat="43.0345" lon="2.55412">
        <ele>192</ele>
        <time>2022-05-02T18:25:17Z</time>
      </trkpt>
      <trkpt lat="43.03429" lon="2.55416">
        <ele>193</ele>
        <time>2022-05-02T18:25:21Z</time>
      </trkpt>
      <trkpt lat="43.03413" lon="2.55422">
        <ele>194</ele>
        <time>2022-05-02T18:25:24Z</time>
      </trkpt>
      <trkpt lat="43.03384" lon="2.55444">
        <ele>199</ele>
        <time>2022-05-02T18:25:30Z</time>
      </trkpt>
      <trkpt lat="43.03376" lon="2.55449">
        <ele>201</ele>
        <time>2022-05-02T18:25:31Z</time>
      </trkpt>
      <trkpt lat="43.03369" lon="2.5545">
        <ele>201</ele>
        <time>2022-05-02T18:25:33Z</time>
      </trkpt>
      <trkpt lat="43.03352" lon="2.55446">
        <ele>202</ele>
        <time>2022-05-02T18:25:36Z</time>
      </trkpt>
      <trkpt lat="43.03337" lon="2.55436">
        <ele>201</ele>
        <time>2022-05-02T18:25:39Z</time>
      </trkpt>
      <trkpt lat="43.03293" lon="2.55399">
        <ele>203</ele>
        <time>2022-05-02T18:25:48Z</time>
      </trkpt>
      <trkpt lat="43.03286" lon="2.55387">
        <ele>202</ele>
        <time>2022-05-02T18:25:50Z</time>
      </trkpt>
      <trkpt lat="43.03273" lon="2.55335">
        <ele>197</ele>
        <time>2022-05-02T18:25:57Z</time>
      </trkpt>
      <trkpt lat="43.03266" lon="2.55319">
        <ele>197</ele>
        <time>2022-05-02T18:25:59Z</time>
      </trkpt>
      <trkpt lat="43.03248" lon="2.55286">
        <ele>195</ele>
        <time>2022-05-02T18:26:05Z</time>
      </trkpt>
      <trkpt lat="43.03238" lon="2.55275">
        <ele>196</ele>
        <time>2022-05-02T18:26:07Z</time>
      </trkpt>
      <trkpt lat="43.03224" lon="2.55266">
        <ele>197</ele>
        <time>2022-05-02T18:26:10Z</time>
      </trkpt>
      <trkpt lat="43.03199" lon="2.55258">
        <ele>198</ele>
        <time>2022-05-02T18:26:14Z</time>
      </trkpt>
      <trkpt lat="43.03181" lon="2.55249">
        <ele>199</ele>
        <time>2022-05-02T18:26:18Z</time>
      </trkpt>
      <trkpt lat="43.03148" lon="2.5521">
        <ele>202</ele>
        <time>2022-05-02T18:26:26Z</time>
      </trkpt>
      <trkpt lat="43.03122" lon="2.55171">
        <ele>204</ele>
        <time>2022-05-02T18:26:32Z</time>
      </trkpt>
      <trkpt lat="43.03109" lon="2.55154">
        <ele>206</ele>
        <time>2022-05-02T18:26:36Z</time>
      </trkpt>
      <trkpt lat="43.03091" lon="2.55136">
        <ele>207</ele>
        <time>2022-05-02T18:26:40Z</time>
      </trkpt>
      <trkpt lat="43.03078" lon="2.55117">
        <ele>207</ele>
        <time>2022-05-02T18:26:43Z</time>
      </trkpt>
      <trkpt lat="43.03069" lon="2.551">
        <ele>209</ele>
        <time>2022-05-02T18:26:46Z</time>
      </trkpt>
      <trkpt lat="43.03054" lon="2.55039">
        <ele>209</ele>
        <time>2022-05-02T18:26:54Z</time>
      </trkpt>
      <trkpt lat="43.03048" lon="2.55022">
        <ele>209</ele>
        <time>2022-05-02T18:26:57Z</time>
      </trkpt>
      <trkpt lat="43.0302" lon="2.54976">
        <ele>209</ele>
        <time>2022-05-02T18:27:04Z</time>
      </trkpt>
      <trkpt lat="43.0301" lon="2.54963">
        <ele>208</ele>
        <time>2022-05-02T18:27:07Z</time>
      </trkpt>
      <trkpt lat="43.0298" lon="2.54941">
        <ele>212</ele>
        <time>2022-05-02T18:27:13Z</time>
      </trkpt>
      <trkpt lat="43.0297" lon="2.54932">
        <ele>213</ele>
        <time>2022-05-02T18:27:15Z</time>
      </trkpt>
      <trkpt lat="43.02943" lon="2.54897">
        <ele>216</ele>
        <time>2022-05-02T18:27:22Z</time>
      </trkpt>
      <trkpt lat="43.02933" lon="2.54881">
        <ele>215</ele>
        <time>2022-05-02T18:27:24Z</time>
      </trkpt>
      <trkpt lat="43.0291" lon="2.54817">
        <ele>207</ele>
        <time>2022-05-02T18:27:34Z</time>
      </trkpt>
      <trkpt lat="43.02894" lon="2.54796">
        <ele>211</ele>
        <time>2022-05-02T18:27:38Z</time>
      </trkpt>
      <trkpt lat="43.02838" lon="2.54744">
        <ele>207</ele>
        <time>2022-05-02T18:27:50Z</time>
      </trkpt>
      <trkpt lat="43.02768" lon="2.54697">
        <ele>206</ele>
        <time>2022-05-02T18:28:03Z</time>
      </trkpt>
      <trkpt lat="43.02747" lon="2.54687">
        <ele>204</ele>
        <time>2022-05-02T18:28:07Z</time>
      </trkpt>
      <trkpt lat="43.02701" lon="2.54678">
        <ele>204</ele>
        <time>2022-05-02T18:28:16Z</time>
      </trkpt>
      <trkpt lat="43.02694" lon="2.54674">
        <ele>203</ele>
        <time>2022-05-02T18:28:17Z</time>
      </trkpt>
      <trkpt lat="43.02686" lon="2.54659">
        <ele>202</ele>
        <time>2022-05-02T18:28:19Z</time>
      </trkpt>
      <trkpt lat="43.02672" lon="2.546">
        <ele>205</ele>
        <time>2022-05-02T18:28:28Z</time>
      </trkpt>
      <trkpt lat="43.02667" lon="2.54591">
        <ele>205</ele>
        <time>2022-05-02T18:28:29Z</time>
      </trkpt>
      <trkpt lat="43.02654" lon="2.54584">
        <ele>206</ele>
        <time>2022-05-02T18:28:31Z</time>
      </trkpt>
      <trkpt lat="43.02644" lon="2.54585">
        <ele>207</ele>
        <time>2022-05-02T18:28:33Z</time>
      </trkpt>
      <trkpt lat="43.0259" lon="2.54602">
        <ele>210</ele>
        <time>2022-05-02T18:28:43Z</time>
      </trkpt>
      <trkpt lat="43.02469" lon="2.54624">
        <ele>213</ele>
        <time>2022-05-02T18:29:05Z</time>
      </trkpt>
      <trkpt lat="43.02453" lon="2.54633">
        <ele>213</ele>
        <time>2022-05-02T18:29:08Z</time>
      </trkpt>
      <trkpt lat="43.0243" lon="2.5464">
        <ele>213</ele>
        <time>2022-05-02T18:29:12Z</time>
      </trkpt>
      <trkpt lat="43.02399" lon="2.54656">
        <ele>216</ele>
        <time>2022-05-02T18:29:18Z</time>
      </trkpt>
      <trkpt lat="43.02385" lon="2.5467">
        <ele>217</ele>
        <time>2022-05-02T18:29:21Z</time>
      </trkpt>
      <trkpt lat="43.02361" lon="2.54701">
        <ele>219</ele>
        <time>2022-05-02T18:29:27Z</time>
      </trkpt>
      <trkpt lat="43.02344" lon="2.5472">
        <ele>219</ele>
        <time>2022-05-02T18:29:31Z</time>
      </trkpt>
      <trkpt lat="43.02334" lon="2.54736">
        <ele>218</ele>
        <time>2022-05-02T18:29:34Z</time>
      </trkpt>
      <trkpt lat="43.02315" lon="2.54777">
        <ele>217</ele>
        <time>2022-05-02T18:29:40Z</time>
      </trkpt>
      <trkpt lat="43.02295" lon="2.54833">
        <ele>212</ele>
        <time>2022-05-02T18:29:48Z</time>
      </trkpt>
      <trkpt lat="43.02289" lon="2.54848">
        <ele>212</ele>
        <time>2022-05-02T18:29:50Z</time>
      </trkpt>
      <trkpt lat="43.02278" lon="2.54859">
        <ele>212</ele>
        <time>2022-05-02T18:29:53Z</time>
      </trkpt>
      <trkpt lat="43.02263" lon="2.54863">
        <ele>213</ele>
        <time>2022-05-02T18:29:55Z</time>
      </trkpt>
      <trkpt lat="43.0224" lon="2.54866">
        <ele>215</ele>
        <time>2022-05-02T18:29:59Z</time>
      </trkpt>
      <trkpt lat="43.02184" lon="2.54867">
        <ele>219</ele>
        <time>2022-05-02T18:30:09Z</time>
      </trkpt>
      <trkpt lat="43.02122" lon="2.5488">
        <ele>220</ele>
        <time>2022-05-02T18:30:21Z</time>
      </trkpt>
      <trkpt lat="43.02107" lon="2.54878">
        <ele>222</ele>
        <time>2022-05-02T18:30:23Z</time>
      </trkpt>
      <trkpt lat="43.02081" lon="2.54869">
        <ele>227</ele>
        <time>2022-05-02T18:30:28Z</time>
      </trkpt>
      <trkpt lat="43.02067" lon="2.54868">
        <ele>228</ele>
        <time>2022-05-02T18:30:31Z</time>
      </trkpt>
      <trkpt lat="43.02035" lon="2.54899">
        <ele>222</ele>
        <time>2022-05-02T18:30:38Z</time>
      </trkpt>
      <trkpt lat="43.02016" lon="2.54907">
        <ele>223</ele>
        <time>2022-05-02T18:30:41Z</time>
      </trkpt>
      <trkpt lat="43.01982" lon="2.54938">
        <ele>218</ele>
        <time>2022-05-02T18:30:48Z</time>
      </trkpt>
      <trkpt lat="43.0197" lon="2.5494">
        <ele>217</ele>
        <time>2022-05-02T18:30:50Z</time>
      </trkpt>
      <trkpt lat="43.01956" lon="2.54936">
        <ele>217</ele>
        <time>2022-05-02T18:30:53Z</time>
      </trkpt>
      <trkpt lat="43.01948" lon="2.5493">
        <ele>217</ele>
        <time>2022-05-02T18:30:55Z</time>
      </trkpt>
      <trkpt lat="43.01939" lon="2.5492">
        <ele>218</ele>
        <time>2022-05-02T18:30:57Z</time>
      </trkpt>
      <trkpt lat="43.01928" lon="2.54891">
        <ele>221</ele>
        <time>2022-05-02T18:31:01Z</time>
      </trkpt>
      <trkpt lat="43.0191" lon="2.54833">
        <ele>228</ele>
        <time>2022-05-02T18:31:09Z</time>
      </trkpt>
      <trkpt lat="43.01907" lon="2.54814">
        <ele>227</ele>
        <time>2022-05-02T18:31:12Z</time>
      </trkpt>
      <trkpt lat="43.01907" lon="2.54802">
        <ele>226</ele>
        <time>2022-05-02T18:31:13Z</time>
      </trkpt>
      <trkpt lat="43.0191" lon="2.54787">
        <ele>226</ele>
        <time>2022-05-02T18:31:15Z</time>
      </trkpt>
      <trkpt lat="43.01963" lon="2.54674">
        <ele>223</ele>
        <time>2022-05-02T18:31:33Z</time>
      </trkpt>
      <trkpt lat="43.01971" lon="2.54644">
        <ele>222</ele>
        <time>2022-05-02T18:31:37Z</time>
      </trkpt>
      <trkpt lat="43.01972" lon="2.54618">
        <ele>222</ele>
        <time>2022-05-02T18:31:40Z</time>
      </trkpt>
      <trkpt lat="43.01969" lon="2.5455">
        <ele>220</ele>
        <time>2022-05-02T18:31:49Z</time>
      </trkpt>
      <trkpt lat="43.01969" lon="2.5454">
        <ele>220</ele>
        <time>2022-05-02T18:31:50Z</time>
      </trkpt>
      <trkpt lat="43.01972" lon="2.5453">
        <ele>220</ele>
        <time>2022-05-02T18:31:52Z</time>
      </trkpt>
      <trkpt lat="43.01977" lon="2.54521">
        <ele>220</ele>
        <time>2022-05-02T18:31:53Z</time>
      </trkpt>
      <trkpt lat="43.0199" lon="2.54506">
        <ele>221</ele>
        <time>2022-05-02T18:31:56Z</time>
      </trkpt>
      <trkpt lat="43.02001" lon="2.545">
        <ele>221</ele>
        <time>2022-05-02T18:31:58Z</time>
      </trkpt>
      <trkpt lat="43.02051" lon="2.54488">
        <ele>225</ele>
        <time>2022-05-02T18:32:08Z</time>
      </trkpt>
      <trkpt lat="43.02067" lon="2.5448">
        <ele>226</ele>
        <time>2022-05-02T18:32:11Z</time>
      </trkpt>
      <trkpt lat="43.02079" lon="2.54464">
        <ele>227</ele>
        <time>2022-05-02T18:32:14Z</time>
      </trkpt>
      <trkpt lat="43.02083" lon="2.54449">
        <ele>227</ele>
        <time>2022-05-02T18:32:16Z</time>
      </trkpt>
      <trkpt lat="43.02084" lon="2.54438">
        <ele>227</ele>
        <time>2022-05-02T18:32:17Z</time>
      </trkpt>
      <trkpt lat="43.02083" lon="2.54428">
        <ele>226</ele>
        <time>2022-05-02T18:32:18Z</time>
      </trkpt>
      <trkpt lat="43.02076" lon="2.54411">
        <ele>226</ele>
        <time>2022-05-02T18:32:21Z</time>
      </trkpt>
      <trkpt lat="43.02064" lon="2.54396">
        <ele>227</ele>
        <time>2022-05-02T18:32:24Z</time>
      </trkpt>
      <trkpt lat="43.02057" lon="2.54392">
        <ele>228</ele>
        <time>2022-05-02T18:32:25Z</time>
      </trkpt>
      <trkpt lat="43.02051" lon="2.5439">
        <ele>228</ele>
        <time>2022-05-02T18:32:26Z</time>
      </trkpt>
      <trkpt lat="43.01926" lon="2.54408">
        <ele>227</ele>
        <time>2022-05-02T18:32:49Z</time>
      </trkpt>
      <trkpt lat="43.01906" lon="2.54405">
        <ele>227</ele>
        <time>2022-05-02T18:32:52Z</time>
      </trkpt>
      <trkpt lat="43.0189" lon="2.54401">
        <ele>227</ele>
        <time>2022-05-02T18:32:55Z</time>
      </trkpt>
      <trkpt lat="43.01759" lon="2.54326">
        <ele>229</ele>
        <time>2022-05-02T18:33:20Z</time>
      </trkpt>
      <trkpt lat="43.01748" lon="2.54318">
        <ele>229</ele>
        <time>2022-05-02T18:33:23Z</time>
      </trkpt>
      <trkpt lat="43.01741" lon="2.54309">
        <ele>229</ele>
        <time>2022-05-02T18:33:24Z</time>
      </trkpt>
      <trkpt lat="43.01735" lon="2.54296">
        <ele>229</ele>
        <time>2022-05-02T18:33:26Z</time>
      </trkpt>
      <trkpt lat="43.01732" lon="2.54284">
        <ele>230</ele>
        <time>2022-05-02T18:33:28Z</time>
      </trkpt>
      <trkpt lat="43.01735" lon="2.5399">
        <ele>238</ele>
        <time>2022-05-02T18:34:06Z</time>
      </trkpt>
      <trkpt lat="43.01742" lon="2.53964">
        <ele>236</ele>
        <time>2022-05-02T18:34:10Z</time>
      </trkpt>
      <trkpt lat="43.01758" lon="2.53925">
        <ele>237</ele>
        <time>2022-05-02T18:34:16Z</time>
      </trkpt>
      <trkpt lat="43.01774" lon="2.53874">
        <ele>241</ele>
        <time>2022-05-02T18:34:23Z</time>
      </trkpt>
      <trkpt lat="43.01777" lon="2.53853">
        <ele>242</ele>
        <time>2022-05-02T18:34:26Z</time>
      </trkpt>
      <trkpt lat="43.01777" lon="2.53831">
        <ele>241</ele>
        <time>2022-05-02T18:34:28Z</time>
      </trkpt>
      <trkpt lat="43.01769" lon="2.53791">
        <ele>241</ele>
        <time>2022-05-02T18:34:34Z</time>
      </trkpt>
      <trkpt lat="43.01756" lon="2.53761">
        <ele>238</ele>
        <time>2022-05-02T18:34:38Z</time>
      </trkpt>
      <trkpt lat="43.01733" lon="2.53728">
        <ele>237</ele>
        <time>2022-05-02T18:34:44Z</time>
      </trkpt>
      <trkpt lat="43.01675" lon="2.53656">
        <ele>237</ele>
        <time>2022-05-02T18:34:58Z</time>
      </trkpt>
      <trkpt lat="43.01663" lon="2.53647">
        <ele>238</ele>
        <time>2022-05-02T18:35:01Z</time>
      </trkpt>
      <trkpt lat="43.01653" lon="2.53646">
        <ele>239</ele>
        <time>2022-05-02T18:35:02Z</time>
      </trkpt>
      <trkpt lat="43.01643" lon="2.53649">
        <ele>239</ele>
        <time>2022-05-02T18:35:04Z</time>
      </trkpt>
      <trkpt lat="43.01566" lon="2.53713">
        <ele>234</ele>
        <time>2022-05-02T18:35:20Z</time>
      </trkpt>
      <trkpt lat="43.01488" lon="2.53783">
        <ele>231</ele>
        <time>2022-05-02T18:35:37Z</time>
      </trkpt>
      <trkpt lat="43.01485" lon="2.5379">
        <ele>230</ele>
        <time>2022-05-02T18:35:38Z</time>
      </trkpt>
      <trkpt lat="43.01484" lon="2.53805">
        <ele>227</ele>
        <time>2022-05-02T18:35:40Z</time>
      </trkpt>
      <trkpt lat="43.01484" lon="2.53819">
        <ele>225</ele>
        <time>2022-05-02T18:35:42Z</time>
      </trkpt>
      <trkpt lat="43.01489" lon="2.5385">
        <ele>226</ele>
        <time>2022-05-02T18:35:46Z</time>
      </trkpt>
      <trkpt lat="43.01491" lon="2.53859">
        <ele>229</ele>
        <time>2022-05-02T18:35:47Z</time>
      </trkpt>
      <trkpt lat="43.01491" lon="2.53869">
        <ele>232</ele>
        <time>2022-05-02T18:35:48Z</time>
      </trkpt>
      <trkpt lat="43.01502" lon="2.53866">
        <ele>231</ele>
        <time>2022-05-02T18:35:50Z</time>
      </trkpt>
      <trkpt lat="43.01514" lon="2.53866">
        <ele>230</ele>
        <time>2022-05-02T18:35:53Z</time>
      </trkpt>
      <trkpt lat="43.0156" lon="2.53879">
        <ele>231</ele>
        <time>2022-05-02T18:36:01Z</time>
      </trkpt>
      <trkpt lat="43.01592" lon="2.53891">
        <ele>230</ele>
        <time>2022-05-02T18:36:07Z</time>
      </trkpt>
      <trkpt lat="43.016" lon="2.539">
        <ele>230</ele>
        <time>2022-05-02T18:36:09Z</time>
      </trkpt>
      <trkpt lat="43.01604" lon="2.53911">
        <ele>231</ele>
        <time>2022-05-02T18:36:10Z</time>
      </trkpt>
      <trkpt lat="43.01607" lon="2.53958">
        <ele>235</ele>
        <time>2022-05-02T18:36:16Z</time>
      </trkpt>
      <trkpt lat="43.01605" lon="2.53974">
        <ele>237</ele>
        <time>2022-05-02T18:36:18Z</time>
      </trkpt>
      <trkpt lat="43.01595" lon="2.54022">
        <ele>241</ele>
        <time>2022-05-02T18:36:25Z</time>
      </trkpt>
      <trkpt lat="43.01577" lon="2.54085">
        <ele>242</ele>
        <time>2022-05-02T18:36:34Z</time>
      </trkpt>
      <trkpt lat="43.01565" lon="2.54145">
        <ele>243</ele>
        <time>2022-05-02T18:36:42Z</time>
      </trkpt>
      <trkpt lat="43.01548" lon="2.54263">
        <ele>246</ele>
        <time>2022-05-02T18:36:58Z</time>
      </trkpt>
      <trkpt lat="43.01547" lon="2.54277">
        <ele>246</ele>
        <time>2022-05-02T18:36:59Z</time>
      </trkpt>
      <trkpt lat="43.01555" lon="2.54332">
        <ele>239</ele>
        <time>2022-05-02T18:37:07Z</time>
      </trkpt>
      <trkpt lat="43.01556" lon="2.54348">
        <ele>236</ele>
        <time>2022-05-02T18:37:09Z</time>
      </trkpt>
      <trkpt lat="43.01551" lon="2.54363">
        <ele>235</ele>
        <time>2022-05-02T18:37:11Z</time>
      </trkpt>
      <trkpt lat="43.01543" lon="2.54372">
        <ele>237</ele>
        <time>2022-05-02T18:37:13Z</time>
      </trkpt>
      <trkpt lat="43.01487" lon="2.54409">
        <ele>245</ele>
        <time>2022-05-02T18:37:24Z</time>
      </trkpt>
      <trkpt lat="43.01437" lon="2.54454">
        <ele>244</ele>
        <time>2022-05-02T18:37:34Z</time>
      </trkpt>
      <trkpt lat="43.01425" lon="2.54462">
        <ele>245</ele>
        <time>2022-05-02T18:37:37Z</time>
      </trkpt>
      <trkpt lat="43.01412" lon="2.54465">
        <ele>246</ele>
        <time>2022-05-02T18:37:39Z</time>
      </trkpt>
      <trkpt lat="43.01353" lon="2.54481">
        <ele>244</ele>
        <time>2022-05-02T18:37:50Z</time>
      </trkpt>
      <trkpt lat="43.01343" lon="2.5448">
        <ele>244</ele>
        <time>2022-05-02T18:37:52Z</time>
      </trkpt>
      <trkpt lat="43.01336" lon="2.54478">
        <ele>244</ele>
        <time>2022-05-02T18:37:53Z</time>
      </trkpt>
      <trkpt lat="43.01326" lon="2.54471">
        <ele>245</ele>
        <time>2022-05-02T18:37:55Z</time>
      </trkpt>
      <trkpt lat="43.01306" lon="2.54438">
        <ele>248</ele>
        <time>2022-05-02T18:38:00Z</time>
      </trkpt>
      <trkpt lat="43.01298" lon="2.54431">
        <ele>249</ele>
        <time>2022-05-02T18:38:02Z</time>
      </trkpt>
      <trkpt lat="43.01288" lon="2.54426">
        <ele>250</ele>
        <time>2022-05-02T18:38:04Z</time>
      </trkpt>
      <trkpt lat="43.01267" lon="2.54424">
        <ele>251</ele>
        <time>2022-05-02T18:38:08Z</time>
      </trkpt>
      <trkpt lat="43.01254" lon="2.54427">
        <ele>251</ele>
        <time>2022-05-02T18:38:10Z</time>
      </trkpt>
      <trkpt lat="43.01216" lon="2.5444">
        <ele>252</ele>
        <time>2022-05-02T18:38:17Z</time>
      </trkpt>
      <trkpt lat="43.01209" lon="2.54446">
        <ele>252</ele>
        <time>2022-05-02T18:38:19Z</time>
      </trkpt>
      <trkpt lat="43.01202" lon="2.54456">
        <ele>251</ele>
        <time>2022-05-02T18:38:20Z</time>
      </trkpt>
      <trkpt lat="43.01175" lon="2.54524">
        <ele>243</ele>
        <time>2022-05-02T18:38:30Z</time>
      </trkpt>
      <trkpt lat="43.0117" lon="2.54533">
        <ele>242</ele>
        <time>2022-05-02T18:38:32Z</time>
      </trkpt>
      <trkpt lat="43.01159" lon="2.54543">
        <ele>241</ele>
        <time>2022-05-02T18:38:34Z</time>
      </trkpt>
      <trkpt lat="43.0113" lon="2.54553">
        <ele>241</ele>
        <time>2022-05-02T18:38:40Z</time>
      </trkpt>
      <trkpt lat="43.01114" lon="2.54563">
        <ele>240</ele>
        <time>2022-05-02T18:38:43Z</time>
      </trkpt>
      <trkpt lat="43.01094" lon="2.54584">
        <ele>238</ele>
        <time>2022-05-02T18:38:47Z</time>
      </trkpt>
      <trkpt lat="43.01083" lon="2.54588">
        <ele>239</ele>
        <time>2022-05-02T18:38:49Z</time>
      </trkpt>
      <trkpt lat="43.01076" lon="2.54585">
        <ele>238</ele>
        <time>2022-05-02T18:38:51Z</time>
      </trkpt>
      <trkpt lat="43.0107" lon="2.54579">
        <ele>239</ele>
        <time>2022-05-02T18:38:52Z</time>
      </trkpt>
      <trkpt lat="43.0105" lon="2.54544">
        <ele>244</ele>
        <time>2022-05-02T18:38:58Z</time>
      </trkpt>
      <trkpt lat="43.01039" lon="2.54532">
        <ele>245</ele>
        <time>2022-05-02T18:39:00Z</time>
      </trkpt>
      <trkpt lat="43.01019" lon="2.5452">
        <ele>248</ele>
        <time>2022-05-02T18:39:04Z</time>
      </trkpt>
      <trkpt lat="43.01001" lon="2.54517">
        <ele>248</ele>
        <time>2022-05-02T18:39:07Z</time>
      </trkpt>
      <trkpt lat="43.00987" lon="2.54517">
        <ele>251</ele>
        <time>2022-05-02T18:39:10Z</time>
      </trkpt>
      <trkpt lat="43.00968" lon="2.54524">
        <ele>254</ele>
        <time>2022-05-02T18:39:13Z</time>
      </trkpt>
      <trkpt lat="43.00955" lon="2.54538">
        <ele>255</ele>
        <time>2022-05-02T18:39:16Z</time>
      </trkpt>
      <trkpt lat="43.00944" lon="2.54563">
        <ele>252</ele>
        <time>2022-05-02T18:39:20Z</time>
      </trkpt>
      <trkpt lat="43.00931" lon="2.54622">
        <ele>247</ele>
        <time>2022-05-02T18:39:28Z</time>
      </trkpt>
      <trkpt lat="43.00932" lon="2.54654">
        <ele>244</ele>
        <time>2022-05-02T18:39:32Z</time>
      </trkpt>
      <trkpt lat="43.00936" lon="2.54687">
        <ele>245</ele>
        <time>2022-05-02T18:39:37Z</time>
      </trkpt>
      <trkpt lat="43.00966" lon="2.54761">
        <ele>245</ele>
        <time>2022-05-02T18:39:48Z</time>
      </trkpt>
      <trkpt lat="43.00976" lon="2.548">
        <ele>245</ele>
        <time>2022-05-02T18:39:53Z</time>
      </trkpt>
      <trkpt lat="43.00976" lon="2.54822">
        <ele>246</ele>
        <time>2022-05-02T18:39:56Z</time>
      </trkpt>
      <trkpt lat="43.00972" lon="2.54832">
        <ele>248</ele>
        <time>2022-05-02T18:39:57Z</time>
      </trkpt>
      <trkpt lat="43.00947" lon="2.54853">
        <ele>252</ele>
        <time>2022-05-02T18:40:03Z</time>
      </trkpt>
      <trkpt lat="43.00937" lon="2.54864">
        <ele>253</ele>
        <time>2022-05-02T18:40:05Z</time>
      </trkpt>
      <trkpt lat="43.00845" lon="2.55007">
        <ele>258</ele>
        <time>2022-05-02T18:40:30Z</time>
      </trkpt>
      <trkpt lat="43.00838" lon="2.55022">
        <ele>256</ele>
        <time>2022-05-02T18:40:32Z</time>
      </trkpt>
      <trkpt lat="43.00821" lon="2.55064">
        <ele>253</ele>
        <time>2022-05-02T18:40:38Z</time>
      </trkpt>
      <trkpt lat="43.00812" lon="2.55112">
        <ele>253</ele>
        <time>2022-05-02T18:40:45Z</time>
      </trkpt>
      <trkpt lat="43.0081" lon="2.55117">
        <ele>253</ele>
        <time>2022-05-02T18:40:45Z</time>
      </trkpt>
      <trkpt lat="43.00806" lon="2.55119">
        <ele>253</ele>
        <time>2022-05-02T18:40:46Z</time>
      </trkpt>
      <trkpt lat="43.00771" lon="2.55124">
        <ele>255</ele>
        <time>2022-05-02T18:40:52Z</time>
      </trkpt>
      <trkpt lat="43.00755" lon="2.55123">
        <ele>256</ele>
        <time>2022-05-02T18:40:55Z</time>
      </trkpt>
      <trkpt lat="43.00729" lon="2.55103">
        <ele>259</ele>
        <time>2022-05-02T18:41:00Z</time>
      </trkpt>
      <trkpt lat="43.00703" lon="2.55095">
        <ele>261</ele>
        <time>2022-05-02T18:41:05Z</time>
      </trkpt>
      <trkpt lat="43.00627" lon="2.55097">
        <ele>265</ele>
        <time>2022-05-02T18:41:19Z</time>
      </trkpt>
      <trkpt lat="43.00614" lon="2.55103">
        <ele>265</ele>
        <time>2022-05-02T18:41:21Z</time>
      </trkpt>
      <trkpt lat="43.00599" lon="2.55117">
        <ele>264</ele>
        <time>2022-05-02T18:41:24Z</time>
      </trkpt>
      <trkpt lat="43.00587" lon="2.5512">
        <ele>264</ele>
        <time>2022-05-02T18:41:27Z</time>
      </trkpt>
      <trkpt lat="43.00575" lon="2.55121">
        <ele>265</ele>
        <time>2022-05-02T18:41:29Z</time>
      </trkpt>
      <trkpt lat="43.00554" lon="2.55107">
        <ele>268</ele>
        <time>2022-05-02T18:41:33Z</time>
      </trkpt>
      <trkpt lat="43.00539" lon="2.55088">
        <ele>271</ele>
        <time>2022-05-02T18:41:37Z</time>
      </trkpt>
      <trkpt lat="43.00529" lon="2.5508">
        <ele>272</ele>
        <time>2022-05-02T18:41:39Z</time>
      </trkpt>
      <trkpt lat="43.00526" lon="2.55078">
        <ele>272</ele>
        <time>2022-05-02T18:41:39Z</time>
      </trkpt>
      <trkpt lat="43.00517" lon="2.5508">
        <ele>272</ele>
        <time>2022-05-02T18:41:41Z</time>
      </trkpt>
      <trkpt lat="43.00511" lon="2.55086">
        <ele>272</ele>
        <time>2022-05-02T18:41:42Z</time>
      </trkpt>
      <trkpt lat="43.00503" lon="2.55112">
        <ele>270</ele>
        <time>2022-05-02T18:41:46Z</time>
      </trkpt>
      <trkpt lat="43.005" lon="2.55118">
        <ele>270</ele>
        <time>2022-05-02T18:41:47Z</time>
      </trkpt>
      <trkpt lat="43.00495" lon="2.55122">
        <ele>270</ele>
        <time>2022-05-02T18:41:48Z</time>
      </trkpt>
      <trkpt lat="43.00468" lon="2.55132">
        <ele>273</ele>
        <time>2022-05-02T18:41:53Z</time>
      </trkpt>
      <trkpt lat="43.0045" lon="2.55143">
        <ele>274</ele>
        <time>2022-05-02T18:41:56Z</time>
      </trkpt>
      <trkpt lat="43.00437" lon="2.55162">
        <ele>274</ele>
        <time>2022-05-02T18:42:00Z</time>
      </trkpt>
      <trkpt lat="43.00418" lon="2.55195">
        <ele>276</ele>
        <time>2022-05-02T18:42:05Z</time>
      </trkpt>
      <trkpt lat="43.00396" lon="2.55242">
        <ele>278</ele>
        <time>2022-05-02T18:42:12Z</time>
      </trkpt>
      <trkpt lat="43.0039" lon="2.55248">
        <ele>279</ele>
        <time>2022-05-02T18:42:14Z</time>
      </trkpt>
      <trkpt lat="43.00383" lon="2.55251">
        <ele>279</ele>
        <time>2022-05-02T18:42:15Z</time>
      </trkpt>
      <trkpt lat="43.00348" lon="2.55248">
        <ele>281</ele>
        <time>2022-05-02T18:42:21Z</time>
      </trkpt>
      <trkpt lat="43.00347" lon="2.55249">
        <ele>281</ele>
        <time>2022-05-02T18:42:21Z</time>
      </trkpt>
      <trkpt lat="43.00329" lon="2.55284">
        <ele>287</ele>
        <time>2022-05-02T18:42:27Z</time>
      </trkpt>
      <trkpt lat="43.00327" lon="2.55292">
        <ele>289</ele>
        <time>2022-05-02T18:42:28Z</time>
      </trkpt>
      <trkpt lat="43.00329" lon="2.553">
        <ele>290</ele>
        <time>2022-05-02T18:42:29Z</time>
      </trkpt>
      <trkpt lat="43.0034" lon="2.5532">
        <ele>292</ele>
        <time>2022-05-02T18:42:32Z</time>
      </trkpt>
      <trkpt lat="43.00346" lon="2.55326">
        <ele>293</ele>
        <time>2022-05-02T18:42:34Z</time>
      </trkpt>
      <trkpt lat="43.00356" lon="2.5533">
        <ele>293</ele>
        <time>2022-05-02T18:42:36Z</time>
      </trkpt>
      <trkpt lat="43.00408" lon="2.55329">
        <ele>292</ele>
        <time>2022-05-02T18:42:45Z</time>
      </trkpt>
      <trkpt lat="43.0042" lon="2.55323">
        <ele>291</ele>
        <time>2022-05-02T18:42:47Z</time>
      </trkpt>
      <trkpt lat="43.00462" lon="2.5528">
        <ele>279</ele>
        <time>2022-05-02T18:42:57Z</time>
      </trkpt>
      <trkpt lat="43.0047" lon="2.55279">
        <ele>278</ele>
        <time>2022-05-02T18:42:58Z</time>
      </trkpt>
      <trkpt lat="43.00478" lon="2.55282">
        <ele>278</ele>
        <time>2022-05-02T18:42:59Z</time>
      </trkpt>
      <trkpt lat="43.00482" lon="2.55289">
        <ele>279</ele>
        <time>2022-05-02T18:43:01Z</time>
      </trkpt>
      <trkpt lat="43.00483" lon="2.55299">
        <ele>280</ele>
        <time>2022-05-02T18:43:02Z</time>
      </trkpt>
      <trkpt lat="43.00482" lon="2.55308">
        <ele>282</ele>
        <time>2022-05-02T18:43:03Z</time>
      </trkpt>
      <trkpt lat="43.00478" lon="2.55317">
        <ele>284</ele>
        <time>2022-05-02T18:43:04Z</time>
      </trkpt>
      <trkpt lat="43.00458" lon="2.55343">
        <ele>290</ele>
        <time>2022-05-02T18:43:09Z</time>
      </trkpt>
      <trkpt lat="43.0045" lon="2.55365">
        <ele>295</ele>
        <time>2022-05-02T18:43:13Z</time>
      </trkpt>
      <trkpt lat="43.00451" lon="2.55376">
        <ele>297</ele>
        <time>2022-05-02T18:43:14Z</time>
      </trkpt>
      <trkpt lat="43.00455" lon="2.55396">
        <ele>300</ele>
        <time>2022-05-02T18:43:17Z</time>
      </trkpt>
      <trkpt lat="43.00462" lon="2.55411">
        <ele>301</ele>
        <time>2022-05-02T18:43:19Z</time>
      </trkpt>
      <trkpt lat="43.00473" lon="2.55429">
        <ele>303</ele>
        <time>2022-05-02T18:43:22Z</time>
      </trkpt>
      <trkpt lat="43.00504" lon="2.55465">
        <ele>306</ele>
        <time>2022-05-02T18:43:29Z</time>
      </trkpt>
      <trkpt lat="43.00517" lon="2.55494">
        <ele>310</ele>
        <time>2022-05-02T18:43:34Z</time>
      </trkpt>
      <trkpt lat="43.00519" lon="2.55509">
        <ele>311</ele>
        <time>2022-05-02T18:43:36Z</time>
      </trkpt>
      <trkpt lat="43.00519" lon="2.55529">
        <ele>314</ele>
        <time>2022-05-02T18:43:38Z</time>
      </trkpt>
      <trkpt lat="43.00518" lon="2.55542">
        <ele>316</ele>
        <time>2022-05-02T18:43:40Z</time>
      </trkpt>
      <trkpt lat="43.00494" lon="2.55608">
        <ele>329</ele>
        <time>2022-05-02T18:43:50Z</time>
      </trkpt>
      <trkpt lat="43.00484" lon="2.5562">
        <ele>333</ele>
        <time>2022-05-02T18:43:52Z</time>
      </trkpt>
      <trkpt lat="43.00477" lon="2.55625">
        <ele>335</ele>
        <time>2022-05-02T18:43:53Z</time>
      </trkpt>
      <trkpt lat="43.00461" lon="2.55635">
        <ele>340</ele>
        <time>2022-05-02T18:43:57Z</time>
      </trkpt>
      <trkpt lat="43.00456" lon="2.55639">
        <ele>340</ele>
        <time>2022-05-02T18:43:58Z</time>
      </trkpt>
      <trkpt lat="43.00451" lon="2.55647">
        <ele>341</ele>
        <time>2022-05-02T18:43:59Z</time>
      </trkpt>
      <trkpt lat="43.00448" lon="2.55657">
        <ele>340</ele>
        <time>2022-05-02T18:44:00Z</time>
      </trkpt>
      <trkpt lat="43.00424" lon="2.55751">
        <ele>330</ele>
        <time>2022-05-02T18:44:13Z</time>
      </trkpt>
      <trkpt lat="43.00417" lon="2.55781">
        <ele>330</ele>
        <time>2022-05-02T18:44:17Z</time>
      </trkpt>
      <trkpt lat="43.00416" lon="2.55801">
        <ele>331</ele>
        <time>2022-05-02T18:44:20Z</time>
      </trkpt>
      <trkpt lat="43.00419" lon="2.55823">
        <ele>331</ele>
        <time>2022-05-02T18:44:23Z</time>
      </trkpt>
      <trkpt lat="43.00426" lon="2.55839">
        <ele>332</ele>
        <time>2022-05-02T18:44:25Z</time>
      </trkpt>
      <trkpt lat="43.00434" lon="2.55854">
        <ele>335</ele>
        <time>2022-05-02T18:44:28Z</time>
      </trkpt>
      <trkpt lat="43.00444" lon="2.5586">
        <ele>335</ele>
        <time>2022-05-02T18:44:30Z</time>
      </trkpt>
      <trkpt lat="43.00459" lon="2.55865">
        <ele>335</ele>
        <time>2022-05-02T18:44:32Z</time>
      </trkpt>
      <trkpt lat="43.005" lon="2.55864">
        <ele>332</ele>
        <time>2022-05-02T18:44:40Z</time>
      </trkpt>
      <trkpt lat="43.00507" lon="2.55867">
        <ele>335</ele>
        <time>2022-05-02T18:44:41Z</time>
      </trkpt>
      <trkpt lat="43.00511" lon="2.55872">
        <ele>337</ele>
        <time>2022-05-02T18:44:42Z</time>
      </trkpt>
      <trkpt lat="43.00516" lon="2.55886">
        <ele>338</ele>
        <time>2022-05-02T18:44:44Z</time>
      </trkpt>
      <trkpt lat="43.00517" lon="2.55904">
        <ele>339</ele>
        <time>2022-05-02T18:44:46Z</time>
      </trkpt>
      <trkpt lat="43.00514" lon="2.5593">
        <ele>337</ele>
        <time>2022-05-02T18:44:50Z</time>
      </trkpt>
      <trkpt lat="43.00489" lon="2.55991">
        <ele>334</ele>
        <time>2022-05-02T18:44:59Z</time>
      </trkpt>
      <trkpt lat="43.00475" lon="2.56043">
        <ele>337</ele>
        <time>2022-05-02T18:45:06Z</time>
      </trkpt>
      <trkpt lat="43.00471" lon="2.56071">
        <ele>337</ele>
        <time>2022-05-02T18:45:10Z</time>
      </trkpt>
      <trkpt lat="43.00472" lon="2.56114">
        <ele>335</ele>
        <time>2022-05-02T18:45:15Z</time>
      </trkpt>
      <trkpt lat="43.0047" lon="2.56148">
        <ele>333</ele>
        <time>2022-05-02T18:45:20Z</time>
      </trkpt>
      <trkpt lat="43.00469" lon="2.56187">
        <ele>334</ele>
        <time>2022-05-02T18:45:25Z</time>
      </trkpt>
      <trkpt lat="43.00465" lon="2.56198">
        <ele>335</ele>
        <time>2022-05-02T18:45:27Z</time>
      </trkpt>
      <trkpt lat="43.00457" lon="2.56202">
        <ele>336</ele>
        <time>2022-05-02T18:45:28Z</time>
      </trkpt>
      <trkpt lat="43.00445" lon="2.56203">
        <ele>336</ele>
        <time>2022-05-02T18:45:30Z</time>
      </trkpt>
      <trkpt lat="43.00412" lon="2.562">
        <ele>337</ele>
        <time>2022-05-02T18:45:36Z</time>
      </trkpt>
      <trkpt lat="43.00397" lon="2.56195">
        <ele>338</ele>
        <time>2022-05-02T18:45:39Z</time>
      </trkpt>
      <trkpt lat="43.00382" lon="2.56185">
        <ele>338</ele>
        <time>2022-05-02T18:45:42Z</time>
      </trkpt>
      <trkpt lat="43.00366" lon="2.5617">
        <ele>337</ele>
        <time>2022-05-02T18:45:45Z</time>
      </trkpt>
      <trkpt lat="43.00357" lon="2.56157">
        <ele>337</ele>
        <time>2022-05-02T18:45:48Z</time>
      </trkpt>
      <trkpt lat="43.00353" lon="2.5614">
        <ele>337</ele>
        <time>2022-05-02T18:45:50Z</time>
      </trkpt>
      <trkpt lat="43.00354" lon="2.56123">
        <ele>338</ele>
        <time>2022-05-02T18:45:52Z</time>
      </trkpt>
      <trkpt lat="43.00365" lon="2.56071">
        <ele>342</ele>
        <time>2022-05-02T18:45:59Z</time>
      </trkpt>
      <trkpt lat="43.00368" lon="2.56049">
        <ele>344</ele>
        <time>2022-05-02T18:46:02Z</time>
      </trkpt>
      <trkpt lat="43.00364" lon="2.56013">
        <ele>346</ele>
        <time>2022-05-02T18:46:07Z</time>
      </trkpt>
      <trkpt lat="43.00356" lon="2.55977">
        <ele>345</ele>
        <time>2022-05-02T18:46:12Z</time>
      </trkpt>
      <trkpt lat="43.00346" lon="2.55952">
        <ele>345</ele>
        <time>2022-05-02T18:46:15Z</time>
      </trkpt>
      <trkpt lat="43.00333" lon="2.5593">
        <ele>344</ele>
        <time>2022-05-02T18:46:19Z</time>
      </trkpt>
      <trkpt lat="43.00312" lon="2.55903">
        <ele>348</ele>
        <time>2022-05-02T18:46:24Z</time>
      </trkpt>
      <trkpt lat="43.00302" lon="2.55895">
        <ele>350</ele>
        <time>2022-05-02T18:46:26Z</time>
      </trkpt>
      <trkpt lat="43.00239" lon="2.55881">
        <ele>354</ele>
        <time>2022-05-02T18:46:38Z</time>
      </trkpt>
      <trkpt lat="43.00224" lon="2.55883">
        <ele>354</ele>
        <time>2022-05-02T18:46:40Z</time>
      </trkpt>
      <trkpt lat="43.00195" lon="2.55896">
        <ele>351</ele>
        <time>2022-05-02T18:46:46Z</time>
      </trkpt>
      <trkpt lat="43.00175" lon="2.55902">
        <ele>350</ele>
        <time>2022-05-02T18:46:49Z</time>
      </trkpt>
      <trkpt lat="43.0013" lon="2.55889">
        <ele>353</ele>
        <time>2022-05-02T18:46:58Z</time>
      </trkpt>
      <trkpt lat="43.00122" lon="2.55889">
        <ele>352</ele>
        <time>2022-05-02T18:46:59Z</time>
      </trkpt>
      <trkpt lat="43.00119" lon="2.55892">
        <ele>352</ele>
        <time>2022-05-02T18:47:00Z</time>
      </trkpt>
      <trkpt lat="43.00106" lon="2.55922">
        <ele>346</ele>
        <time>2022-05-02T18:47:04Z</time>
      </trkpt>
      <trkpt lat="43.00103" lon="2.55933">
        <ele>347</ele>
        <time>2022-05-02T18:47:06Z</time>
      </trkpt>
      <trkpt lat="43.00099" lon="2.5595">
        <ele>348</ele>
        <time>2022-05-02T18:47:08Z</time>
      </trkpt>
      <trkpt lat="43.00097" lon="2.55995">
        <ele>352</ele>
        <time>2022-05-02T18:47:14Z</time>
      </trkpt>
      <trkpt lat="43.00103" lon="2.56035">
        <ele>357</ele>
        <time>2022-05-02T18:47:19Z</time>
      </trkpt>
      <trkpt lat="43.00103" lon="2.56055">
        <ele>358</ele>
        <time>2022-05-02T18:47:22Z</time>
      </trkpt>
      <trkpt lat="43.00099" lon="2.56074">
        <ele>358</ele>
        <time>2022-05-02T18:47:24Z</time>
      </trkpt>
      <trkpt lat="43.00091" lon="2.56092">
        <ele>354</ele>
        <time>2022-05-02T18:47:27Z</time>
      </trkpt>
      <trkpt lat="43.00083" lon="2.56105">
        <ele>351</ele>
        <time>2022-05-02T18:47:29Z</time>
      </trkpt>
      <trkpt lat="43.00074" lon="2.56118">
        <ele>352</ele>
        <time>2022-05-02T18:47:32Z</time>
      </trkpt>
      <trkpt lat="43.0006" lon="2.56134">
        <ele>353</ele>
        <time>2022-05-02T18:47:35Z</time>
      </trkpt>
      <trkpt lat="43.00049" lon="2.56145">
        <ele>353</ele>
        <time>2022-05-02T18:47:37Z</time>
      </trkpt>
      <trkpt lat="43.00029" lon="2.56159">
        <ele>353</ele>
        <time>2022-05-02T18:47:41Z</time>
      </trkpt>
      <trkpt lat="43.00024" lon="2.56174">
        <ele>353</ele>
        <time>2022-05-02T18:47:44Z</time>
      </trkpt>
      <trkpt lat="43.00018" lon="2.56204">
        <ele>352</ele>
        <time>2022-05-02T18:47:48Z</time>
      </trkpt>
      <trkpt lat="43.00017" lon="2.56209">
        <ele>352</ele>
        <time>2022-05-02T18:47:48Z</time>
      </trkpt>
      <trkpt lat="43.00018" lon="2.56243">
        <ele>351</ele>
        <time>2022-05-02T18:47:53Z</time>
      </trkpt>
      <trkpt lat="43.00023" lon="2.56277">
        <ele>351</ele>
        <time>2022-05-02T18:47:57Z</time>
      </trkpt>
      <trkpt lat="43.00032" lon="2.56299">
        <ele>353</ele>
        <time>2022-05-02T18:48:00Z</time>
      </trkpt>
      <trkpt lat="43.00047" lon="2.56339">
        <ele>355</ele>
        <time>2022-05-02T18:48:06Z</time>
      </trkpt>
      <trkpt lat="43.00054" lon="2.56358">
        <ele>355</ele>
        <time>2022-05-02T18:48:09Z</time>
      </trkpt>
      <trkpt lat="43.00059" lon="2.56379">
        <ele>354</ele>
        <time>2022-05-02T18:48:12Z</time>
      </trkpt>
      <trkpt lat="43.00077" lon="2.56459">
        <ele>353</ele>
        <time>2022-05-02T18:48:23Z</time>
      </trkpt>
      <trkpt lat="43.00086" lon="2.56509">
        <ele>356</ele>
        <time>2022-05-02T18:48:30Z</time>
      </trkpt>
      <trkpt lat="43.00095" lon="2.5652">
        <ele>360</ele>
        <time>2022-05-02T18:48:32Z</time>
      </trkpt>
      <trkpt lat="43.00119" lon="2.56539">
        <ele>367</ele>
        <time>2022-05-02T18:48:37Z</time>
      </trkpt>
      <trkpt lat="43.00195" lon="2.5658">
        <ele>380</ele>
        <time>2022-05-02T18:48:51Z</time>
      </trkpt>
      <trkpt lat="43.00203" lon="2.56587">
        <ele>382</ele>
        <time>2022-05-02T18:48:53Z</time>
      </trkpt>
      <trkpt lat="43.0021" lon="2.56597">
        <ele>384</ele>
        <time>2022-05-02T18:48:55Z</time>
      </trkpt>
      <trkpt lat="43.00215" lon="2.56618">
        <ele>386</ele>
        <time>2022-05-02T18:48:58Z</time>
      </trkpt>
      <trkpt lat="43.00219" lon="2.56654">
        <ele>386</ele>
        <time>2022-05-02T18:49:02Z</time>
      </trkpt>
      <trkpt lat="43.00219" lon="2.56691">
        <ele>388</ele>
        <time>2022-05-02T18:49:07Z</time>
      </trkpt>
      <trkpt lat="43.00217" lon="2.56715">
        <ele>390</ele>
        <time>2022-05-02T18:49:10Z</time>
      </trkpt>
      <trkpt lat="43.00214" lon="2.5673">
        <ele>391</ele>
        <time>2022-05-02T18:49:12Z</time>
      </trkpt>
      <trkpt lat="43.00208" lon="2.56739">
        <ele>391</ele>
        <time>2022-05-02T18:49:14Z</time>
      </trkpt>
      <trkpt lat="43.00195" lon="2.56754">
        <ele>392</ele>
        <time>2022-05-02T18:49:17Z</time>
      </trkpt>
      <trkpt lat="43.00191" lon="2.56766">
        <ele>392</ele>
        <time>2022-05-02T18:49:19Z</time>
      </trkpt>
      <trkpt lat="43.00189" lon="2.5678">
        <ele>393</ele>
        <time>2022-05-02T18:49:20Z</time>
      </trkpt>
      <trkpt lat="43.00192" lon="2.56878">
        <ele>397</ele>
        <time>2022-05-02T18:49:33Z</time>
      </trkpt>
      <trkpt lat="43.0019" lon="2.56907">
        <ele>398</ele>
        <time>2022-05-02T18:49:37Z</time>
      </trkpt>
      <trkpt lat="43.00184" lon="2.56928">
        <ele>398</ele>
        <time>2022-05-02T18:49:40Z</time>
      </trkpt>
      <trkpt lat="43.00153" lon="2.57011">
        <ele>401</ele>
        <time>2022-05-02T18:49:52Z</time>
      </trkpt>
      <trkpt lat="43.0014" lon="2.57049">
        <ele>406</ele>
        <time>2022-05-02T18:49:57Z</time>
      </trkpt>
      <trkpt lat="43.00123" lon="2.57093">
        <ele>411</ele>
        <time>2022-05-02T18:50:04Z</time>
      </trkpt>
      <trkpt lat="43.0011" lon="2.57159">
        <ele>413</ele>
        <time>2022-05-02T18:50:13Z</time>
      </trkpt>
      <trkpt lat="43.00102" lon="2.57175">
        <ele>413</ele>
        <time>2022-05-02T18:50:15Z</time>
      </trkpt>
      <trkpt lat="43.00086" lon="2.57201">
        <ele>412</ele>
        <time>2022-05-02T18:50:20Z</time>
      </trkpt>
      <trkpt lat="43.00072" lon="2.57241">
        <ele>414</ele>
        <time>2022-05-02T18:50:26Z</time>
      </trkpt>
      <trkpt lat="43.00058" lon="2.57305">
        <ele>418</ele>
        <time>2022-05-02T18:50:34Z</time>
      </trkpt>
      <trkpt lat="43.00045" lon="2.5733">
        <ele>419</ele>
        <time>2022-05-02T18:50:38Z</time>
      </trkpt>
      <trkpt lat="43.00021" lon="2.5737">
        <ele>423</ele>
        <time>2022-05-02T18:50:45Z</time>
      </trkpt>
      <trkpt lat="43.00008" lon="2.57425">
        <ele>424</ele>
        <time>2022-05-02T18:50:53Z</time>
      </trkpt>
      <trkpt lat="42.99997" lon="2.57464">
        <ele>427</ele>
        <time>2022-05-02T18:50:58Z</time>
      </trkpt>
      <trkpt lat="42.99987" lon="2.57484">
        <ele>431</ele>
        <time>2022-05-02T18:51:01Z</time>
      </trkpt>
      <trkpt lat="42.9998" lon="2.57517">
        <ele>435</ele>
        <time>2022-05-02T18:51:06Z</time>
      </trkpt>
      <trkpt lat="42.99971" lon="2.57547">
        <ele>437</ele>
        <time>2022-05-02T18:51:10Z</time>
      </trkpt>
      <trkpt lat="42.99924" lon="2.57638">
        <ele>445</ele>
        <time>2022-05-02T18:51:24Z</time>
      </trkpt>
      <trkpt lat="42.9991" lon="2.57657">
        <ele>447</ele>
        <time>2022-05-02T18:51:28Z</time>
      </trkpt>
      <trkpt lat="42.99903" lon="2.57671">
        <ele>449</ele>
        <time>2022-05-02T18:51:30Z</time>
      </trkpt>
      <trkpt lat="42.99902" lon="2.57678">
        <ele>450</ele>
        <time>2022-05-02T18:51:31Z</time>
      </trkpt>
      <trkpt lat="42.99903" lon="2.57684">
        <ele>450</ele>
        <time>2022-05-02T18:51:32Z</time>
      </trkpt>
      <trkpt lat="42.99906" lon="2.5769">
        <ele>450</ele>
        <time>2022-05-02T18:51:33Z</time>
      </trkpt>
      <trkpt lat="42.99916" lon="2.5769">
        <ele>448</ele>
        <time>2022-05-02T18:51:34Z</time>
      </trkpt>
      <trkpt lat="42.99926" lon="2.57686">
        <ele>448</ele>
        <time>2022-05-02T18:51:36Z</time>
      </trkpt>
      <trkpt lat="42.99936" lon="2.5768">
        <ele>447</ele>
        <time>2022-05-02T18:51:38Z</time>
      </trkpt>
      <trkpt lat="42.99971" lon="2.57645">
        <ele>442</ele>
        <time>2022-05-02T18:51:46Z</time>
      </trkpt>
      <trkpt lat="42.99987" lon="2.57635">
        <ele>440</ele>
        <time>2022-05-02T18:51:49Z</time>
      </trkpt>
      <trkpt lat="42.99994" lon="2.57633">
        <ele>439</ele>
        <time>2022-05-02T18:51:50Z</time>
      </trkpt>
      <trkpt lat="43.00001" lon="2.57634">
        <ele>439</ele>
        <time>2022-05-02T18:51:52Z</time>
      </trkpt>
      <trkpt lat="43.0001" lon="2.57639">
        <ele>442</ele>
        <time>2022-05-02T18:51:53Z</time>
      </trkpt>
      <trkpt lat="43.00021" lon="2.57649">
        <ele>446</ele>
        <time>2022-05-02T18:51:56Z</time>
      </trkpt>
      <trkpt lat="43.00033" lon="2.57665">
        <ele>451</ele>
        <time>2022-05-02T18:51:59Z</time>
      </trkpt>
      <trkpt lat="43.0004" lon="2.57667">
        <ele>453</ele>
        <time>2022-05-02T18:52:00Z</time>
      </trkpt>
      <trkpt lat="43.00047" lon="2.57665">
        <ele>455</ele>
        <time>2022-05-02T18:52:01Z</time>
      </trkpt>
      <trkpt lat="43.00052" lon="2.57661">
        <ele>455</ele>
        <time>2022-05-02T18:52:02Z</time>
      </trkpt>
      <trkpt lat="43.00056" lon="2.57653">
        <ele>456</ele>
        <time>2022-05-02T18:52:04Z</time>
      </trkpt>
      <trkpt lat="43.0006" lon="2.5763">
        <ele>455</ele>
        <time>2022-05-02T18:52:07Z</time>
      </trkpt>
      <trkpt lat="43.00059" lon="2.57613">
        <ele>453</ele>
        <time>2022-05-02T18:52:09Z</time>
      </trkpt>
      <trkpt lat="43.00052" lon="2.57572">
        <ele>448</ele>
        <time>2022-05-02T18:52:14Z</time>
      </trkpt>
      <trkpt lat="43.00052" lon="2.57558">
        <ele>447</ele>
        <time>2022-05-02T18:52:16Z</time>
      </trkpt>
      <trkpt lat="43.00059" lon="2.57535">
        <ele>447</ele>
        <time>2022-05-02T18:52:19Z</time>
      </trkpt>
      <trkpt lat="43.00072" lon="2.57507">
        <ele>449</ele>
        <time>2022-05-02T18:52:24Z</time>
      </trkpt>
      <trkpt lat="43.0011" lon="2.57441">
        <ele>449</ele>
        <time>2022-05-02T18:52:35Z</time>
      </trkpt>
      <trkpt lat="43.00166" lon="2.57371">
        <ele>456</ele>
        <time>2022-05-02T18:52:48Z</time>
      </trkpt>
      <trkpt lat="43.00172" lon="2.57366">
        <ele>455</ele>
        <time>2022-05-02T18:52:49Z</time>
      </trkpt>
      <trkpt lat="43.00186" lon="2.57366">
        <ele>456</ele>
        <time>2022-05-02T18:52:52Z</time>
      </trkpt>
      <trkpt lat="43.00224" lon="2.57393">
        <ele>465</ele>
        <time>2022-05-02T18:52:59Z</time>
      </trkpt>
      <trkpt lat="43.00239" lon="2.57401">
        <ele>468</ele>
        <time>2022-05-02T18:53:02Z</time>
      </trkpt>
      <trkpt lat="43.00285" lon="2.57421">
        <ele>471</ele>
        <time>2022-05-02T18:53:11Z</time>
      </trkpt>
      <trkpt lat="43.00292" lon="2.57428">
        <ele>471</ele>
        <time>2022-05-02T18:53:12Z</time>
      </trkpt>
      <trkpt lat="43.00296" lon="2.57437">
        <ele>471</ele>
        <time>2022-05-02T18:53:14Z</time>
      </trkpt>
      <trkpt lat="43.00295" lon="2.57448">
        <ele>470</ele>
        <time>2022-05-02T18:53:15Z</time>
      </trkpt>
      <trkpt lat="43.00291" lon="2.57459">
        <ele>471</ele>
        <time>2022-05-02T18:53:17Z</time>
      </trkpt>
      <trkpt lat="43.00267" lon="2.57497">
        <ele>475</ele>
        <time>2022-05-02T18:53:23Z</time>
      </trkpt>
      <trkpt lat="43.00255" lon="2.57507">
        <ele>475</ele>
        <time>2022-05-02T18:53:26Z</time>
      </trkpt>
      <trkpt lat="43.00243" lon="2.5751">
        <ele>476</ele>
        <time>2022-05-02T18:53:28Z</time>
      </trkpt>
      <trkpt lat="43.00217" lon="2.57511">
        <ele>477</ele>
        <time>2022-05-02T18:53:33Z</time>
      </trkpt>
      <trkpt lat="43.00203" lon="2.57513">
        <ele>477</ele>
        <time>2022-05-02T18:53:35Z</time>
      </trkpt>
      <trkpt lat="43.00194" lon="2.57519">
        <ele>477</ele>
        <time>2022-05-02T18:53:37Z</time>
      </trkpt>
      <trkpt lat="43.00183" lon="2.57533">
        <ele>477</ele>
        <time>2022-05-02T18:53:40Z</time>
      </trkpt>
      <trkpt lat="43.00174" lon="2.57546">
        <ele>477</ele>
        <time>2022-05-02T18:53:42Z</time>
      </trkpt>
      <trkpt lat="43.00169" lon="2.57562">
        <ele>478</ele>
        <time>2022-05-02T18:53:44Z</time>
      </trkpt>
      <trkpt lat="43.00157" lon="2.57617">
        <ele>475</ele>
        <time>2022-05-02T18:53:52Z</time>
      </trkpt>
      <trkpt lat="43.00135" lon="2.57683">
        <ele>470</ele>
        <time>2022-05-02T18:54:01Z</time>
      </trkpt>
      <trkpt lat="43.00122" lon="2.57729">
        <ele>470</ele>
        <time>2022-05-02T18:54:08Z</time>
      </trkpt>
      <trkpt lat="43.00111" lon="2.57762">
        <ele>473</ele>
        <time>2022-05-02T18:54:12Z</time>
      </trkpt>
      <trkpt lat="43.00096" lon="2.57794">
        <ele>481</ele>
        <time>2022-05-02T18:54:17Z</time>
      </trkpt>
      <trkpt lat="43.00045" lon="2.57867">
        <ele>498</ele>
        <time>2022-05-02T18:54:30Z</time>
      </trkpt>
      <trkpt lat="43.00039" lon="2.57872">
        <ele>499</ele>
        <time>2022-05-02T18:54:32Z</time>
      </trkpt>
      <trkpt lat="43.00027" lon="2.57873">
        <ele>498</ele>
        <time>2022-05-02T18:54:34Z</time>
      </trkpt>
      <trkpt lat="43.00021" lon="2.57868">
        <ele>497</ele>
        <time>2022-05-02T18:54:35Z</time>
      </trkpt>
      <trkpt lat="42.99999" lon="2.57823">
        <ele>486</ele>
        <time>2022-05-02T18:54:42Z</time>
      </trkpt>
      <trkpt lat="42.99991" lon="2.57817">
        <ele>484</ele>
        <time>2022-05-02T18:54:44Z</time>
      </trkpt>
      <trkpt lat="42.99982" lon="2.57815">
        <ele>483</ele>
        <time>2022-05-02T18:54:45Z</time>
      </trkpt>
      <trkpt lat="42.99974" lon="2.57815">
        <ele>482</ele>
        <time>2022-05-02T18:54:47Z</time>
      </trkpt>
      <trkpt lat="42.99963" lon="2.5782">
        <ele>483</ele>
        <time>2022-05-02T18:54:49Z</time>
      </trkpt>
      <trkpt lat="42.9995" lon="2.5783">
        <ele>485</ele>
        <time>2022-05-02T18:54:51Z</time>
      </trkpt>
      <trkpt lat="42.99938" lon="2.57845">
        <ele>488</ele>
        <time>2022-05-02T18:54:54Z</time>
      </trkpt>
      <trkpt lat="42.99914" lon="2.57887">
        <ele>495</ele>
        <time>2022-05-02T18:55:01Z</time>
      </trkpt>
      <trkpt lat="42.99906" lon="2.57897">
        <ele>495</ele>
        <time>2022-05-02T18:55:03Z</time>
      </trkpt>
      <trkpt lat="42.99881" lon="2.57919">
        <ele>493</ele>
        <time>2022-05-02T18:55:09Z</time>
      </trkpt>
      <trkpt lat="42.99875" lon="2.57927">
        <ele>493</ele>
        <time>2022-05-02T18:55:10Z</time>
      </trkpt>
      <trkpt lat="42.99869" lon="2.57937">
        <ele>494</ele>
        <time>2022-05-02T18:55:12Z</time>
      </trkpt>
      <trkpt lat="42.99856" lon="2.57978">
        <ele>500</ele>
        <time>2022-05-02T18:55:18Z</time>
      </trkpt>
      <trkpt lat="42.99851" lon="2.57986">
        <ele>501</ele>
        <time>2022-05-02T18:55:19Z</time>
      </trkpt>
      <trkpt lat="42.99844" lon="2.57993">
        <ele>501</ele>
        <time>2022-05-02T18:55:20Z</time>
      </trkpt>
      <trkpt lat="42.99822" lon="2.58006">
        <ele>499</ele>
        <time>2022-05-02T18:55:25Z</time>
      </trkpt>
      <trkpt lat="42.99811" lon="2.58016">
        <ele>498</ele>
        <time>2022-05-02T18:55:27Z</time>
      </trkpt>
      <trkpt lat="42.99789" lon="2.58043">
        <ele>499</ele>
        <time>2022-05-02T18:55:32Z</time>
      </trkpt>
      <trkpt lat="42.99781" lon="2.58059">
        <ele>500</ele>
        <time>2022-05-02T18:55:35Z</time>
      </trkpt>
      <trkpt lat="42.99778" lon="2.5807">
        <ele>501</ele>
        <time>2022-05-02T18:55:36Z</time>
      </trkpt>
      <trkpt lat="42.99776" lon="2.58126">
        <ele>512</ele>
        <time>2022-05-02T18:55:44Z</time>
      </trkpt>
      <trkpt lat="42.99769" lon="2.58139">
        <ele>513</ele>
        <time>2022-05-02T18:55:46Z</time>
      </trkpt>
      <trkpt lat="42.99763" lon="2.58142">
        <ele>513</ele>
        <time>2022-05-02T18:55:47Z</time>
      </trkpt>
      <trkpt lat="42.99753" lon="2.58143">
        <ele>512</ele>
        <time>2022-05-02T18:55:49Z</time>
      </trkpt>
      <trkpt lat="42.99734" lon="2.58136">
        <ele>510</ele>
        <time>2022-05-02T18:55:52Z</time>
      </trkpt>
      <trkpt lat="42.99714" lon="2.58123">
        <ele>506</ele>
        <time>2022-05-02T18:55:56Z</time>
      </trkpt>
      <trkpt lat="42.99693" lon="2.58114">
        <ele>504</ele>
        <time>2022-05-02T18:56:00Z</time>
      </trkpt>
      <trkpt lat="42.99684" lon="2.58113">
        <ele>504</ele>
        <time>2022-05-02T18:56:02Z</time>
      </trkpt>
      <trkpt lat="42.99673" lon="2.58116">
        <ele>504</ele>
        <time>2022-05-02T18:56:04Z</time>
      </trkpt>
      <trkpt lat="42.99663" lon="2.58122">
        <ele>506</ele>
        <time>2022-05-02T18:56:06Z</time>
      </trkpt>
      <trkpt lat="42.9965" lon="2.58135">
        <ele>508</ele>
        <time>2022-05-02T18:56:08Z</time>
      </trkpt>
      <trkpt lat="42.99626" lon="2.58163">
        <ele>513</ele>
        <time>2022-05-02T18:56:14Z</time>
      </trkpt>
      <trkpt lat="42.99611" lon="2.58176">
        <ele>513</ele>
        <time>2022-05-02T18:56:17Z</time>
      </trkpt>
      <trkpt lat="42.99609" lon="2.58178">
        <ele>513</ele>
        <time>2022-05-02T18:56:18Z</time>
      </trkpt>
      <trkpt lat="42.9959" lon="2.58189">
        <ele>512</ele>
        <time>2022-05-02T18:56:21Z</time>
      </trkpt>
      <trkpt lat="42.99572" lon="2.58197">
        <ele>512</ele>
        <time>2022-05-02T18:56:25Z</time>
      </trkpt>
      <trkpt lat="42.99554" lon="2.58199">
        <ele>513</ele>
        <time>2022-05-02T18:56:28Z</time>
      </trkpt>
      <trkpt lat="42.99539" lon="2.58196">
        <ele>513</ele>
        <time>2022-05-02T18:56:31Z</time>
      </trkpt>
      <trkpt lat="42.99524" lon="2.58188">
        <ele>514</ele>
        <time>2022-05-02T18:56:33Z</time>
      </trkpt>
      <trkpt lat="42.99511" lon="2.58174">
        <ele>515</ele>
        <time>2022-05-02T18:56:36Z</time>
      </trkpt>
      <trkpt lat="42.99487" lon="2.58136">
        <ele>516</ele>
        <time>2022-05-02T18:56:43Z</time>
      </trkpt>
      <trkpt lat="42.9945" lon="2.58079">
        <ele>514</ele>
        <time>2022-05-02T18:56:53Z</time>
      </trkpt>
      <trkpt lat="42.99439" lon="2.58063">
        <ele>515</ele>
        <time>2022-05-02T18:56:56Z</time>
      </trkpt>
      <trkpt lat="42.99425" lon="2.58046">
        <ele>516</ele>
        <time>2022-05-02T18:56:59Z</time>
      </trkpt>
      <trkpt lat="42.99389" lon="2.58011">
        <ele>515</ele>
        <time>2022-05-02T18:57:07Z</time>
      </trkpt>
      <trkpt lat="42.99325" lon="2.57975">
        <ele>511</ele>
        <time>2022-05-02T18:57:19Z</time>
      </trkpt>
      <trkpt lat="42.99298" lon="2.57956">
        <ele>510</ele>
        <time>2022-05-02T18:57:25Z</time>
      </trkpt>
      <trkpt lat="42.99272" lon="2.57946">
        <ele>507</ele>
        <time>2022-05-02T18:57:29Z</time>
      </trkpt>
      <trkpt lat="42.99258" lon="2.57939">
        <ele>505</ele>
        <time>2022-05-02T18:57:32Z</time>
      </trkpt>
      <trkpt lat="42.99248" lon="2.5793">
        <ele>505</ele>
        <time>2022-05-02T18:57:34Z</time>
      </trkpt>
      <trkpt lat="42.99224" lon="2.57893">
        <ele>504</ele>
        <time>2022-05-02T18:57:41Z</time>
      </trkpt>
      <trkpt lat="42.99217" lon="2.57872">
        <ele>506</ele>
        <time>2022-05-02T18:57:44Z</time>
      </trkpt>
      <trkpt lat="42.99211" lon="2.57848">
        <ele>508</ele>
        <time>2022-05-02T18:57:47Z</time>
      </trkpt>
      <trkpt lat="42.99206" lon="2.57839">
        <ele>509</ele>
        <time>2022-05-02T18:57:48Z</time>
      </trkpt>
      <trkpt lat="42.99201" lon="2.57836">
        <ele>508</ele>
        <time>2022-05-02T18:57:49Z</time>
      </trkpt>
      <trkpt lat="42.99194" lon="2.57837">
        <ele>507</ele>
        <time>2022-05-02T18:57:51Z</time>
      </trkpt>
      <trkpt lat="42.99177" lon="2.57852">
        <ele>501</ele>
        <time>2022-05-02T18:57:54Z</time>
      </trkpt>
      <trkpt lat="42.99164" lon="2.5786">
        <ele>497</ele>
        <time>2022-05-02T18:57:57Z</time>
      </trkpt>
      <trkpt lat="42.99155" lon="2.57861">
        <ele>495</ele>
        <time>2022-05-02T18:57:58Z</time>
      </trkpt>
      <trkpt lat="42.99148" lon="2.5786">
        <ele>494</ele>
        <time>2022-05-02T18:58:00Z</time>
      </trkpt>
      <trkpt lat="42.99137" lon="2.57856">
        <ele>492</ele>
        <time>2022-05-02T18:58:02Z</time>
      </trkpt>
      <trkpt lat="42.99125" lon="2.57847">
        <ele>491</ele>
        <time>2022-05-02T18:58:04Z</time>
      </trkpt>
      <trkpt lat="42.9909" lon="2.57811">
        <ele>490</ele>
        <time>2022-05-02T18:58:12Z</time>
      </trkpt>
      <trkpt lat="42.99081" lon="2.57796">
        <ele>491</ele>
        <time>2022-05-02T18:58:14Z</time>
      </trkpt>
      <trkpt lat="42.99075" lon="2.57782">
        <ele>491</ele>
        <time>2022-05-02T18:58:17Z</time>
      </trkpt>
      <trkpt lat="42.99043" lon="2.57689">
        <ele>494</ele>
        <time>2022-05-02T18:58:30Z</time>
      </trkpt>
      <trkpt lat="42.99036" lon="2.57677">
        <ele>494</ele>
        <time>2022-05-02T18:58:32Z</time>
      </trkpt>
      <trkpt lat="42.99028" lon="2.57668">
        <ele>493</ele>
        <time>2022-05-02T18:58:34Z</time>
      </trkpt>
      <trkpt lat="42.99017" lon="2.57661">
        <ele>492</ele>
        <time>2022-05-02T18:58:36Z</time>
      </trkpt>
      <trkpt lat="42.98999" lon="2.57656">
        <ele>488</ele>
        <time>2022-05-02T18:58:39Z</time>
      </trkpt>
      <trkpt lat="42.98962" lon="2.5765">
        <ele>481</ele>
        <time>2022-05-02T18:58:46Z</time>
      </trkpt>
      <trkpt lat="42.98944" lon="2.57642">
        <ele>479</ele>
        <time>2022-05-02T18:58:49Z</time>
      </trkpt>
      <trkpt lat="42.9893" lon="2.57631">
        <ele>479</ele>
        <time>2022-05-02T18:58:52Z</time>
      </trkpt>
      <trkpt lat="42.9891" lon="2.57611">
        <ele>481</ele>
        <time>2022-05-02T18:58:56Z</time>
      </trkpt>
      <trkpt lat="42.98899" lon="2.57602">
        <ele>481</ele>
        <time>2022-05-02T18:58:59Z</time>
      </trkpt>
      <trkpt lat="42.98821" lon="2.57582">
        <ele>470</ele>
        <time>2022-05-02T18:59:13Z</time>
      </trkpt>
      <trkpt lat="42.98801" lon="2.57574">
        <ele>469</ele>
        <time>2022-05-02T18:59:17Z</time>
      </trkpt>
      <trkpt lat="42.98778" lon="2.57562">
        <ele>467</ele>
        <time>2022-05-02T18:59:21Z</time>
      </trkpt>
      <trkpt lat="42.98753" lon="2.57535">
        <ele>466</ele>
        <time>2022-05-02T18:59:27Z</time>
      </trkpt>
      <trkpt lat="42.98714" lon="2.57478">
        <ele>466</ele>
        <time>2022-05-02T18:59:37Z</time>
      </trkpt>
      <trkpt lat="42.98679" lon="2.57439">
        <ele>463</ele>
        <time>2022-05-02T18:59:45Z</time>
      </trkpt>
      <trkpt lat="42.98659" lon="2.57424">
        <ele>461</ele>
        <time>2022-05-02T18:59:49Z</time>
      </trkpt>
      <trkpt lat="42.98645" lon="2.57419">
        <ele>460</ele>
        <time>2022-05-02T18:59:51Z</time>
      </trkpt>
      <trkpt lat="42.98633" lon="2.5742">
        <ele>460</ele>
        <time>2022-05-02T18:59:54Z</time>
      </trkpt>
      <trkpt lat="42.98622" lon="2.57428">
        <ele>458</ele>
        <time>2022-05-02T18:59:56Z</time>
      </trkpt>
      <trkpt lat="42.98613" lon="2.57444">
        <ele>456</ele>
        <time>2022-05-02T18:59:58Z</time>
      </trkpt>
      <trkpt lat="42.98608" lon="2.57459">
        <ele>455</ele>
        <time>2022-05-02T19:00:01Z</time>
      </trkpt>
      <trkpt lat="42.98602" lon="2.57474">
        <ele>454</ele>
        <time>2022-05-02T19:00:03Z</time>
      </trkpt>
      <trkpt lat="42.98579" lon="2.57503">
        <ele>451</ele>
        <time>2022-05-02T19:00:08Z</time>
      </trkpt>
      <trkpt lat="42.98562" lon="2.5752">
        <ele>448</ele>
        <time>2022-05-02T19:00:12Z</time>
      </trkpt>
      <trkpt lat="42.98555" lon="2.57522">
        <ele>447</ele>
        <time>2022-05-02T19:00:13Z</time>
      </trkpt>
      <trkpt lat="42.98542" lon="2.57521">
        <ele>447</ele>
        <time>2022-05-02T19:00:16Z</time>
      </trkpt>
      <trkpt lat="42.98513" lon="2.57512">
        <ele>447</ele>
        <time>2022-05-02T19:00:21Z</time>
      </trkpt>
      <trkpt lat="42.98504" lon="2.57507">
        <ele>447</ele>
        <time>2022-05-02T19:00:23Z</time>
      </trkpt>
      <trkpt lat="42.98492" lon="2.57494">
        <ele>447</ele>
        <time>2022-05-02T19:00:25Z</time>
      </trkpt>
      <trkpt lat="42.98459" lon="2.5744">
        <ele>447</ele>
        <time>2022-05-02T19:00:35Z</time>
      </trkpt>
      <trkpt lat="42.98447" lon="2.57426">
        <ele>448</ele>
        <time>2022-05-02T19:00:37Z</time>
      </trkpt>
      <trkpt lat="42.98429" lon="2.57411">
        <ele>447</ele>
        <time>2022-05-02T19:00:41Z</time>
      </trkpt>
      <trkpt lat="42.98397" lon="2.57395">
        <ele>446</ele>
        <time>2022-05-02T19:00:47Z</time>
      </trkpt>
      <trkpt lat="42.98379" lon="2.57393">
        <ele>446</ele>
        <time>2022-05-02T19:00:50Z</time>
      </trkpt>
      <trkpt lat="42.98361" lon="2.57395">
        <ele>446</ele>
        <time>2022-05-02T19:00:54Z</time>
      </trkpt>
      <trkpt lat="42.98349" lon="2.574">
        <ele>445</ele>
        <time>2022-05-02T19:00:56Z</time>
      </trkpt>
      <trkpt lat="42.98336" lon="2.57411">
        <ele>444</ele>
        <time>2022-05-02T19:00:59Z</time>
      </trkpt>
      <trkpt lat="42.9831" lon="2.57446">
        <ele>440</ele>
        <time>2022-05-02T19:01:05Z</time>
      </trkpt>
      <trkpt lat="42.98303" lon="2.57453">
        <ele>440</ele>
        <time>2022-05-02T19:01:07Z</time>
      </trkpt>
      <trkpt lat="42.983" lon="2.57455">
        <ele>440</ele>
        <time>2022-05-02T19:01:07Z</time>
      </trkpt>
      <trkpt lat="42.98276" lon="2.57469">
        <ele>441</ele>
        <time>2022-05-02T19:01:12Z</time>
      </trkpt>
      <trkpt lat="42.98268" lon="2.57479">
        <ele>441</ele>
        <time>2022-05-02T19:01:14Z</time>
      </trkpt>
      <trkpt lat="42.98243" lon="2.57526">
        <ele>439</ele>
        <time>2022-05-02T19:01:21Z</time>
      </trkpt>
      <trkpt lat="42.98204" lon="2.57593">
        <ele>432</ele>
        <time>2022-05-02T19:01:33Z</time>
      </trkpt>
      <trkpt lat="42.98192" lon="2.57601">
        <ele>431</ele>
        <time>2022-05-02T19:01:35Z</time>
      </trkpt>
      <trkpt lat="42.98151" lon="2.57607">
        <ele>430</ele>
        <time>2022-05-02T19:01:42Z</time>
      </trkpt>
      <trkpt lat="42.98134" lon="2.57613">
        <ele>428</ele>
        <time>2022-05-02T19:01:45Z</time>
      </trkpt>
      <trkpt lat="42.9813" lon="2.57615">
        <ele>427</ele>
        <time>2022-05-02T19:01:46Z</time>
      </trkpt>
      <trkpt lat="42.98124" lon="2.57618">
        <ele>426</ele>
        <time>2022-05-02T19:01:47Z</time>
      </trkpt>
      <trkpt lat="42.98108" lon="2.57629">
        <ele>425</ele>
        <time>2022-05-02T19:01:50Z</time>
      </trkpt>
      <trkpt lat="42.98084" lon="2.57652">
        <ele>424</ele>
        <time>2022-05-02T19:01:56Z</time>
      </trkpt>
      <trkpt lat="42.98078" lon="2.57657">
        <ele>425</ele>
        <time>2022-05-02T19:01:57Z</time>
      </trkpt>
      <trkpt lat="42.98059" lon="2.57668">
        <ele>425</ele>
        <time>2022-05-02T19:02:01Z</time>
      </trkpt>
      <trkpt lat="42.97977" lon="2.57704">
        <ele>438</ele>
        <time>2022-05-02T19:02:16Z</time>
      </trkpt>
      <trkpt lat="42.97963" lon="2.57706">
        <ele>440</ele>
        <time>2022-05-02T19:02:18Z</time>
      </trkpt>
      <trkpt lat="42.97941" lon="2.57704">
        <ele>443</ele>
        <time>2022-05-02T19:02:22Z</time>
      </trkpt>
      <trkpt lat="42.9793" lon="2.577">
        <ele>444</ele>
        <time>2022-05-02T19:02:24Z</time>
      </trkpt>
      <trkpt lat="42.97872" lon="2.57666">
        <ele>442</ele>
        <time>2022-05-02T19:02:36Z</time>
      </trkpt>
      <trkpt lat="42.97853" lon="2.57658">
        <ele>443</ele>
        <time>2022-05-02T19:02:39Z</time>
      </trkpt>
      <trkpt lat="42.9782" lon="2.57649">
        <ele>446</ele>
        <time>2022-05-02T19:02:45Z</time>
      </trkpt>
      <trkpt lat="42.97806" lon="2.57651">
        <ele>449</ele>
        <time>2022-05-02T19:02:48Z</time>
      </trkpt>
      <trkpt lat="42.97755" lon="2.57674">
        <ele>460</ele>
        <time>2022-05-02T19:02:57Z</time>
      </trkpt>
      <trkpt lat="42.97748" lon="2.57673">
        <ele>461</ele>
        <time>2022-05-02T19:02:58Z</time>
      </trkpt>
      <trkpt lat="42.97742" lon="2.57668">
        <ele>462</ele>
        <time>2022-05-02T19:03:00Z</time>
      </trkpt>
      <trkpt lat="42.97739" lon="2.57661">
        <ele>462</ele>
        <time>2022-05-02T19:03:01Z</time>
      </trkpt>
      <trkpt lat="42.97738" lon="2.57651">
        <ele>462</ele>
        <time>2022-05-02T19:03:02Z</time>
      </trkpt>
      <trkpt lat="42.97742" lon="2.57639">
        <ele>461</ele>
        <time>2022-05-02T19:03:04Z</time>
      </trkpt>
      <trkpt lat="42.97768" lon="2.57582">
        <ele>452</ele>
        <time>2022-05-02T19:03:12Z</time>
      </trkpt>
      <trkpt lat="42.97772" lon="2.57567">
        <ele>449</ele>
        <time>2022-05-02T19:03:15Z</time>
      </trkpt>
      <trkpt lat="42.97772" lon="2.57558">
        <ele>449</ele>
        <time>2022-05-02T19:03:16Z</time>
      </trkpt>
      <trkpt lat="42.97766" lon="2.57533">
        <ele>449</ele>
        <time>2022-05-02T19:03:19Z</time>
      </trkpt>
      <trkpt lat="42.97746" lon="2.57484">
        <ele>451</ele>
        <time>2022-05-02T19:03:26Z</time>
      </trkpt>
      <trkpt lat="42.97735" lon="2.57467">
        <ele>448</ele>
        <time>2022-05-02T19:03:29Z</time>
      </trkpt>
      <trkpt lat="42.97718" lon="2.57453">
        <ele>446</ele>
        <time>2022-05-02T19:03:33Z</time>
      </trkpt>
      <trkpt lat="42.97706" lon="2.57453">
        <ele>447</ele>
        <time>2022-05-02T19:03:35Z</time>
      </trkpt>
      <trkpt lat="42.97695" lon="2.57458">
        <ele>448</ele>
        <time>2022-05-02T19:03:37Z</time>
      </trkpt>
      <trkpt lat="42.97668" lon="2.57484">
        <ele>457</ele>
        <time>2022-05-02T19:03:43Z</time>
      </trkpt>
      <trkpt lat="42.97662" lon="2.57488">
        <ele>458</ele>
        <time>2022-05-02T19:03:44Z</time>
      </trkpt>
      <trkpt lat="42.97654" lon="2.57491">
        <ele>458</ele>
        <time>2022-05-02T19:03:46Z</time>
      </trkpt>
      <trkpt lat="42.97622" lon="2.57486">
        <ele>452</ele>
        <time>2022-05-02T19:03:51Z</time>
      </trkpt>
      <trkpt lat="42.9761" lon="2.57489">
        <ele>451</ele>
        <time>2022-05-02T19:03:54Z</time>
      </trkpt>
      <trkpt lat="42.97602" lon="2.57497">
        <ele>452</ele>
        <time>2022-05-02T19:03:55Z</time>
      </trkpt>
      <trkpt lat="42.97597" lon="2.57514">
        <ele>456</ele>
        <time>2022-05-02T19:03:58Z</time>
      </trkpt>
      <trkpt lat="42.97592" lon="2.57522">
        <ele>458</ele>
        <time>2022-05-02T19:03:59Z</time>
      </trkpt>
      <trkpt lat="42.97575" lon="2.57537">
        <ele>460</ele>
        <time>2022-05-02T19:04:03Z</time>
      </trkpt>
      <trkpt lat="42.97561" lon="2.57559">
        <ele>464</ele>
        <time>2022-05-02T19:04:07Z</time>
      </trkpt>
      <trkpt lat="42.97542" lon="2.5757">
        <ele>463</ele>
        <time>2022-05-02T19:04:10Z</time>
      </trkpt>
      <trkpt lat="42.97528" lon="2.5758">
        <ele>463</ele>
        <time>2022-05-02T19:04:13Z</time>
      </trkpt>
      <trkpt lat="42.97493" lon="2.57612">
        <ele>468</ele>
        <time>2022-05-02T19:04:20Z</time>
      </trkpt>
      <trkpt lat="42.97486" lon="2.57614">
        <ele>468</ele>
        <time>2022-05-02T19:04:22Z</time>
      </trkpt>
      <trkpt lat="42.97456" lon="2.57615">
        <ele>464</ele>
        <time>2022-05-02T19:04:27Z</time>
      </trkpt>
      <trkpt lat="42.97441" lon="2.5762">
        <ele>464</ele>
        <time>2022-05-02T19:04:30Z</time>
      </trkpt>
      <trkpt lat="42.97418" lon="2.57646">
        <ele>470</ele>
        <time>2022-05-02T19:04:35Z</time>
      </trkpt>
      <trkpt lat="42.97392" lon="2.5767">
        <ele>469</ele>
        <time>2022-05-02T19:04:41Z</time>
      </trkpt>
      <trkpt lat="42.9739" lon="2.57676">
        <ele>469</ele>
        <time>2022-05-02T19:04:42Z</time>
      </trkpt>
      <trkpt lat="42.97385" lon="2.57718">
        <ele>476</ele>
        <time>2022-05-02T19:04:47Z</time>
      </trkpt>
      <trkpt lat="42.97346" lon="2.57873">
        <ele>481</ele>
        <time>2022-05-02T19:05:08Z</time>
      </trkpt>
      <trkpt lat="42.97338" lon="2.57914">
        <ele>481</ele>
        <time>2022-05-02T19:05:14Z</time>
      </trkpt>
      <trkpt lat="42.97338" lon="2.57925">
        <ele>481</ele>
        <time>2022-05-02T19:05:15Z</time>
      </trkpt>
      <trkpt lat="42.97342" lon="2.57947">
        <ele>482</ele>
        <time>2022-05-02T19:05:18Z</time>
      </trkpt>
      <trkpt lat="42.97376" lon="2.58006">
        <ele>489</ele>
        <time>2022-05-02T19:05:28Z</time>
      </trkpt>
      <trkpt lat="42.97379" lon="2.58015">
        <ele>490</ele>
        <time>2022-05-02T19:05:29Z</time>
      </trkpt>
      <trkpt lat="42.9738" lon="2.58027">
        <ele>490</ele>
        <time>2022-05-02T19:05:31Z</time>
      </trkpt>
      <trkpt lat="42.97377" lon="2.58047">
        <ele>489</ele>
        <time>2022-05-02T19:05:34Z</time>
      </trkpt>
      <trkpt lat="42.97362" lon="2.58076">
        <ele>488</ele>
        <time>2022-05-02T19:05:38Z</time>
      </trkpt>
      <trkpt lat="42.97367" lon="2.58082">
        <ele>488</ele>
        <time>2022-05-02T19:05:39Z</time>
      </trkpt>
      <trkpt lat="42.9737" lon="2.58086">
        <ele>489</ele>
        <time>2022-05-02T19:05:40Z</time>
      </trkpt>
      <trkpt lat="42.97367" lon="2.58082">
        <ele>488</ele>
        <time>2022-05-02T19:05:41Z</time>
      </trkpt>
      <trkpt lat="42.97362" lon="2.58076">
        <ele>488</ele>
        <time>2022-05-02T19:05:42Z</time>
      </trkpt>
      <trkpt lat="42.97351" lon="2.58066">
        <ele>486</ele>
        <time>2022-05-02T19:05:44Z</time>
      </trkpt>
      <trkpt lat="42.97338" lon="2.58059">
        <ele>484</ele>
        <time>2022-05-02T19:05:47Z</time>
      </trkpt>
      <trkpt lat="42.9732" lon="2.58055">
        <ele>482</ele>
        <time>2022-05-02T19:05:50Z</time>
      </trkpt>
      <trkpt lat="42.97294" lon="2.58057">
        <ele>481</ele>
        <time>2022-05-02T19:05:55Z</time>
      </trkpt>
      <trkpt lat="42.97153" lon="2.58108">
        <ele>479</ele>
        <time>2022-05-02T19:06:21Z</time>
      </trkpt>
      <trkpt lat="42.97129" lon="2.58112">
        <ele>481</ele>
        <time>2022-05-02T19:06:25Z</time>
      </trkpt>
      <trkpt lat="42.97112" lon="2.58108">
        <ele>480</ele>
        <time>2022-05-02T19:06:28Z</time>
      </trkpt>
      <trkpt lat="42.97075" lon="2.58087">
        <ele>475</ele>
        <time>2022-05-02T19:06:35Z</time>
      </trkpt>
      <trkpt lat="42.97061" lon="2.58084">
        <ele>474</ele>
        <time>2022-05-02T19:06:38Z</time>
      </trkpt>
      <trkpt lat="42.97043" lon="2.58086">
        <ele>474</ele>
        <time>2022-05-02T19:06:41Z</time>
      </trkpt>
      <trkpt lat="42.97001" lon="2.5811">
        <ele>478</ele>
        <time>2022-05-02T19:06:49Z</time>
      </trkpt>
      <trkpt lat="42.96993" lon="2.58113">
        <ele>478</ele>
        <time>2022-05-02T19:06:51Z</time>
      </trkpt>
      <trkpt lat="42.96978" lon="2.58114">
        <ele>477</ele>
        <time>2022-05-02T19:06:53Z</time>
      </trkpt>
      <trkpt lat="42.96969" lon="2.58112">
        <ele>476</ele>
        <time>2022-05-02T19:06:55Z</time>
      </trkpt>
      <trkpt lat="42.96935" lon="2.58083">
        <ele>468</ele>
        <time>2022-05-02T19:07:02Z</time>
      </trkpt>
      <trkpt lat="42.9692" lon="2.58076">
        <ele>465</ele>
        <time>2022-05-02T19:07:05Z</time>
      </trkpt>
      <trkpt lat="42.96912" lon="2.58076">
        <ele>464</ele>
        <time>2022-05-02T19:07:06Z</time>
      </trkpt>
      <trkpt lat="42.96894" lon="2.58084">
        <ele>464</ele>
        <time>2022-05-02T19:07:10Z</time>
      </trkpt>
      <trkpt lat="42.96876" lon="2.58102">
        <ele>465</ele>
        <time>2022-05-02T19:07:14Z</time>
      </trkpt>
      <trkpt lat="42.9686" lon="2.58128">
        <ele>467</ele>
        <time>2022-05-02T19:07:18Z</time>
      </trkpt>
      <trkpt lat="42.96847" lon="2.58141">
        <ele>467</ele>
        <time>2022-05-02T19:07:21Z</time>
      </trkpt>
      <trkpt lat="42.96839" lon="2.58146">
        <ele>467</ele>
        <time>2022-05-02T19:07:22Z</time>
      </trkpt>
      <trkpt lat="42.96824" lon="2.58151">
        <ele>467</ele>
        <time>2022-05-02T19:07:25Z</time>
      </trkpt>
      <trkpt lat="42.96812" lon="2.5815">
        <ele>467</ele>
        <time>2022-05-02T19:07:27Z</time>
      </trkpt>
      <trkpt lat="42.96802" lon="2.58148">
        <ele>468</ele>
        <time>2022-05-02T19:07:29Z</time>
      </trkpt>
      <trkpt lat="42.96731" lon="2.58102">
        <ele>461</ele>
        <time>2022-05-02T19:07:43Z</time>
      </trkpt>
      <trkpt lat="42.96669" lon="2.58068">
        <ele>460</ele>
        <time>2022-05-02T19:07:55Z</time>
      </trkpt>
      <trkpt lat="42.9666" lon="2.58058">
        <ele>459</ele>
        <time>2022-05-02T19:07:57Z</time>
      </trkpt>
      <trkpt lat="42.96627" lon="2.57989">
        <ele>453</ele>
        <time>2022-05-02T19:08:08Z</time>
      </trkpt>
      <trkpt lat="42.96607" lon="2.57957">
        <ele>450</ele>
        <time>2022-05-02T19:08:13Z</time>
      </trkpt>
      <trkpt lat="42.96595" lon="2.57946">
        <ele>450</ele>
        <time>2022-05-02T19:08:16Z</time>
      </trkpt>
      <trkpt lat="42.96577" lon="2.57934">
        <ele>450</ele>
        <time>2022-05-02T19:08:19Z</time>
      </trkpt>
      <trkpt lat="42.96553" lon="2.57926">
        <ele>450</ele>
        <time>2022-05-02T19:08:24Z</time>
      </trkpt>
      <trkpt lat="42.96539" lon="2.57922">
        <ele>450</ele>
        <time>2022-05-02T19:08:26Z</time>
      </trkpt>
      <trkpt lat="42.96517" lon="2.57917">
        <ele>451</ele>
        <time>2022-05-02T19:08:30Z</time>
      </trkpt>
      <trkpt lat="42.96503" lon="2.57909">
        <ele>452</ele>
        <time>2022-05-02T19:08:33Z</time>
      </trkpt>
      <trkpt lat="42.96493" lon="2.57897">
        <ele>453</ele>
        <time>2022-05-02T19:08:35Z</time>
      </trkpt>
      <trkpt lat="42.96486" lon="2.57881">
        <ele>453</ele>
        <time>2022-05-02T19:08:38Z</time>
      </trkpt>
      <trkpt lat="42.96475" lon="2.57821">
        <ele>450</ele>
        <time>2022-05-02T19:08:46Z</time>
      </trkpt>
      <trkpt lat="42.96467" lon="2.57798">
        <ele>449</ele>
        <time>2022-05-02T19:08:49Z</time>
      </trkpt>
      <trkpt lat="42.96443" lon="2.57744">
        <ele>445</ele>
        <time>2022-05-02T19:08:57Z</time>
      </trkpt>
      <trkpt lat="42.96429" lon="2.57726">
        <ele>445</ele>
        <time>2022-05-02T19:09:01Z</time>
      </trkpt>
      <trkpt lat="42.96413" lon="2.57711">
        <ele>445</ele>
        <time>2022-05-02T19:09:04Z</time>
      </trkpt>
      <trkpt lat="42.96405" lon="2.57699">
        <ele>443</ele>
        <time>2022-05-02T19:09:06Z</time>
      </trkpt>
      <trkpt lat="42.96399" lon="2.57686">
        <ele>442</ele>
        <time>2022-05-02T19:09:08Z</time>
      </trkpt>
      <trkpt lat="42.96395" lon="2.57667">
        <ele>440</ele>
        <time>2022-05-02T19:09:11Z</time>
      </trkpt>
      <trkpt lat="42.96376" lon="2.57586">
        <ele>444</ele>
        <time>2022-05-02T19:09:22Z</time>
      </trkpt>
      <trkpt lat="42.96353" lon="2.5751">
        <ele>443</ele>
        <time>2022-05-02T19:09:33Z</time>
      </trkpt>
      <trkpt lat="42.96346" lon="2.5749">
        <ele>443</ele>
        <time>2022-05-02T19:09:36Z</time>
      </trkpt>
      <trkpt lat="42.96311" lon="2.5742">
        <ele>444</ele>
        <time>2022-05-02T19:09:47Z</time>
      </trkpt>
      <trkpt lat="42.96302" lon="2.57392">
        <ele>445</ele>
        <time>2022-05-02T19:09:51Z</time>
      </trkpt>
      <trkpt lat="42.96277" lon="2.57316">
        <ele>448</ele>
        <time>2022-05-02T19:10:02Z</time>
      </trkpt>
      <trkpt lat="42.96271" lon="2.57297">
        <ele>449</ele>
        <time>2022-05-02T19:10:04Z</time>
      </trkpt>
      <trkpt lat="42.96204" lon="2.57087">
        <ele>445</ele>
        <time>2022-05-02T19:10:34Z</time>
      </trkpt>
      <trkpt lat="42.96197" lon="2.57072">
        <ele>446</ele>
        <time>2022-05-02T19:10:36Z</time>
      </trkpt>
      <trkpt lat="42.9619" lon="2.57063">
        <ele>446</ele>
        <time>2022-05-02T19:10:38Z</time>
      </trkpt>
      <trkpt lat="42.96181" lon="2.57058">
        <ele>446</ele>
        <time>2022-05-02T19:10:40Z</time>
      </trkpt>
      <trkpt lat="42.96171" lon="2.57054">
        <ele>447</ele>
        <time>2022-05-02T19:10:42Z</time>
      </trkpt>
      <trkpt lat="42.96162" lon="2.57054">
        <ele>447</ele>
        <time>2022-05-02T19:10:43Z</time>
      </trkpt>
      <trkpt lat="42.96135" lon="2.57062">
        <ele>448</ele>
        <time>2022-05-02T19:10:48Z</time>
      </trkpt>
      <trkpt lat="42.96106" lon="2.57081">
        <ele>450</ele>
        <time>2022-05-02T19:10:54Z</time>
      </trkpt>
      <trkpt lat="42.96062" lon="2.57134">
        <ele>456</ele>
        <time>2022-05-02T19:11:04Z</time>
      </trkpt>
      <trkpt lat="42.96046" lon="2.57145">
        <ele>456</ele>
        <time>2022-05-02T19:11:08Z</time>
      </trkpt>
      <trkpt lat="42.9603" lon="2.57147">
        <ele>455</ele>
        <time>2022-05-02T19:11:10Z</time>
      </trkpt>
      <trkpt lat="42.96019" lon="2.57145">
        <ele>454</ele>
        <time>2022-05-02T19:11:12Z</time>
      </trkpt>
      <trkpt lat="42.95999" lon="2.57136">
        <ele>451</ele>
        <time>2022-05-02T19:11:16Z</time>
      </trkpt>
      <trkpt lat="42.95991" lon="2.5713">
        <ele>452</ele>
        <time>2022-05-02T19:11:18Z</time>
      </trkpt>
      <trkpt lat="42.95975" lon="2.57114">
        <ele>453</ele>
        <time>2022-05-02T19:11:21Z</time>
      </trkpt>
      <trkpt lat="42.95961" lon="2.57094">
        <ele>453</ele>
        <time>2022-05-02T19:11:25Z</time>
      </trkpt>
      <trkpt lat="42.95886" lon="2.56976">
        <ele>455</ele>
        <time>2022-05-02T19:11:45Z</time>
      </trkpt>
      <trkpt lat="42.95858" lon="2.56948">
        <ele>455</ele>
        <time>2022-05-02T19:11:51Z</time>
      </trkpt>
      <trkpt lat="42.95832" lon="2.56915">
        <ele>450</ele>
        <time>2022-05-02T19:11:58Z</time>
      </trkpt>
      <trkpt lat="42.95824" lon="2.56899">
        <ele>451</ele>
        <time>2022-05-02T19:12:00Z</time>
      </trkpt>
      <trkpt lat="42.95798" lon="2.56829">
        <ele>454</ele>
        <time>2022-05-02T19:12:10Z</time>
      </trkpt>
      <trkpt lat="42.95783" lon="2.56754">
        <ele>456</ele>
        <time>2022-05-02T19:12:21Z</time>
      </trkpt>
      <trkpt lat="42.95776" lon="2.56739">
        <ele>457</ele>
        <time>2022-05-02T19:12:23Z</time>
      </trkpt>
      <trkpt lat="42.95768" lon="2.56726">
        <ele>458</ele>
        <time>2022-05-02T19:12:25Z</time>
      </trkpt>
      <trkpt lat="42.95757" lon="2.56718">
        <ele>458</ele>
        <time>2022-05-02T19:12:27Z</time>
      </trkpt>
      <trkpt lat="42.95729" lon="2.56708">
        <ele>463</ele>
        <time>2022-05-02T19:12:32Z</time>
      </trkpt>
      <trkpt lat="42.95728" lon="2.56708">
        <ele>463</ele>
        <time>2022-05-02T19:12:33Z</time>
      </trkpt>
      <trkpt lat="42.95663" lon="2.56674">
        <ele>469</ele>
        <time>2022-05-02T19:12:45Z</time>
      </trkpt>
      <trkpt lat="42.95642" lon="2.56661">
        <ele>476</ele>
        <time>2022-05-02T19:12:49Z</time>
      </trkpt>
      <trkpt lat="42.95635" lon="2.5665">
        <ele>477</ele>
        <time>2022-05-02T19:12:51Z</time>
      </trkpt>
      <trkpt lat="42.9563" lon="2.56638">
        <ele>477</ele>
        <time>2022-05-02T19:12:53Z</time>
      </trkpt>
      <trkpt lat="42.95626" lon="2.56619">
        <ele>475</ele>
        <time>2022-05-02T19:12:55Z</time>
      </trkpt>
      <trkpt lat="42.95622" lon="2.56587">
        <ele>470</ele>
        <time>2022-05-02T19:13:00Z</time>
      </trkpt>
      <trkpt lat="42.95617" lon="2.56571">
        <ele>469</ele>
        <time>2022-05-02T19:13:02Z</time>
      </trkpt>
      <trkpt lat="42.95598" lon="2.56543">
        <ele>466</ele>
        <time>2022-05-02T19:13:07Z</time>
      </trkpt>
      <trkpt lat="42.95568" lon="2.56477">
        <ele>461</ele>
        <time>2022-05-02T19:13:17Z</time>
      </trkpt>
      <trkpt lat="42.95564" lon="2.56457">
        <ele>461</ele>
        <time>2022-05-02T19:13:20Z</time>
      </trkpt>
      <trkpt lat="42.95563" lon="2.56446">
        <ele>461</ele>
        <time>2022-05-02T19:13:21Z</time>
      </trkpt>
      <trkpt lat="42.95566" lon="2.5643">
        <ele>460</ele>
        <time>2022-05-02T19:13:23Z</time>
      </trkpt>
      <trkpt lat="42.95567" lon="2.56425">
        <ele>460</ele>
        <time>2022-05-02T19:13:24Z</time>
      </trkpt>
      <trkpt lat="42.95572" lon="2.5641">
        <ele>460</ele>
        <time>2022-05-02T19:13:26Z</time>
      </trkpt>
      <trkpt lat="42.95582" lon="2.5639">
        <ele>460</ele>
        <time>2022-05-02T19:13:29Z</time>
      </trkpt>
      <trkpt lat="42.95594" lon="2.56371">
        <ele>460</ele>
        <time>2022-05-02T19:13:33Z</time>
      </trkpt>
      <trkpt lat="42.95609" lon="2.56355">
        <ele>460</ele>
        <time>2022-05-02T19:13:36Z</time>
      </trkpt>
      <trkpt lat="42.95641" lon="2.56337">
        <ele>461</ele>
        <time>2022-05-02T19:13:42Z</time>
      </trkpt>
      <trkpt lat="42.95795" lon="2.5628">
        <ele>465</ele>
        <time>2022-05-02T19:14:10Z</time>
      </trkpt>
      <trkpt lat="42.9583" lon="2.56271">
        <ele>466</ele>
        <time>2022-05-02T19:14:17Z</time>
      </trkpt>
      <trkpt lat="42.9585" lon="2.56267">
        <ele>467</ele>
        <time>2022-05-02T19:14:20Z</time>
      </trkpt>
      <trkpt lat="42.95959" lon="2.56259">
        <ele>469</ele>
        <time>2022-05-02T19:14:40Z</time>
      </trkpt>
      <trkpt lat="42.95991" lon="2.56251">
        <ele>470</ele>
        <time>2022-05-02T19:14:46Z</time>
      </trkpt>
      <trkpt lat="42.96014" lon="2.56241">
        <ele>471</ele>
        <time>2022-05-02T19:14:50Z</time>
      </trkpt>
      <trkpt lat="42.96063" lon="2.56203">
        <ele>476</ele>
        <time>2022-05-02T19:15:00Z</time>
      </trkpt>
      <trkpt lat="42.96083" lon="2.56182">
        <ele>479</ele>
        <time>2022-05-02T19:15:04Z</time>
      </trkpt>
      <trkpt lat="42.96098" lon="2.56155">
        <ele>482</ele>
        <time>2022-05-02T19:15:09Z</time>
      </trkpt>
      <trkpt lat="42.96101" lon="2.56137">
        <ele>483</ele>
        <time>2022-05-02T19:15:11Z</time>
      </trkpt>
      <trkpt lat="42.96102" lon="2.56121">
        <ele>484</ele>
        <time>2022-05-02T19:15:13Z</time>
      </trkpt>
      <trkpt lat="42.96099" lon="2.56084">
        <ele>485</ele>
        <time>2022-05-02T19:15:18Z</time>
      </trkpt>
      <trkpt lat="42.96099" lon="2.56057">
        <ele>486</ele>
        <time>2022-05-02T19:15:22Z</time>
      </trkpt>
      <trkpt lat="42.96106" lon="2.55989">
        <ele>493</ele>
        <time>2022-05-02T19:15:31Z</time>
      </trkpt>
      <trkpt lat="42.96099" lon="2.55925">
        <ele>496</ele>
        <time>2022-05-02T19:15:39Z</time>
      </trkpt>
      <trkpt lat="42.96101" lon="2.55903">
        <ele>497</ele>
        <time>2022-05-02T19:15:42Z</time>
      </trkpt>
      <trkpt lat="42.96104" lon="2.55891">
        <ele>499</ele>
        <time>2022-05-02T19:15:44Z</time>
      </trkpt>
      <trkpt lat="42.96112" lon="2.55871">
        <ele>501</ele>
        <time>2022-05-02T19:15:47Z</time>
      </trkpt>
      <trkpt lat="42.96134" lon="2.55836">
        <ele>506</ele>
        <time>2022-05-02T19:15:53Z</time>
      </trkpt>
      <trkpt lat="42.96152" lon="2.558">
        <ele>511</ele>
        <time>2022-05-02T19:15:58Z</time>
      </trkpt>
      <trkpt lat="42.96228" lon="2.55577">
        <ele>523</ele>
        <time>2022-05-02T19:16:30Z</time>
      </trkpt>
      <trkpt lat="42.96234" lon="2.55557">
        <ele>523</ele>
        <time>2022-05-02T19:16:33Z</time>
      </trkpt>
      <trkpt lat="42.96236" lon="2.55532">
        <ele>523</ele>
        <time>2022-05-02T19:16:36Z</time>
      </trkpt>
      <trkpt lat="42.96235" lon="2.55514">
        <ele>523</ele>
        <time>2022-05-02T19:16:39Z</time>
      </trkpt>
      <trkpt lat="42.96225" lon="2.5545">
        <ele>527</ele>
        <time>2022-05-02T19:16:47Z</time>
      </trkpt>
      <trkpt lat="42.96224" lon="2.5541">
        <ele>529</ele>
        <time>2022-05-02T19:16:52Z</time>
      </trkpt>
      <trkpt lat="42.96228" lon="2.55373">
        <ele>529</ele>
        <time>2022-05-02T19:16:57Z</time>
      </trkpt>
      <trkpt lat="42.96241" lon="2.55307">
        <ele>529</ele>
        <time>2022-05-02T19:17:06Z</time>
      </trkpt>
      <trkpt lat="42.96242" lon="2.55292">
        <ele>529</ele>
        <time>2022-05-02T19:17:08Z</time>
      </trkpt>
      <trkpt lat="42.9624" lon="2.55258">
        <ele>530</ele>
        <time>2022-05-02T19:17:13Z</time>
      </trkpt>
      <trkpt lat="42.96235" lon="2.55233">
        <ele>532</ele>
        <time>2022-05-02T19:17:16Z</time>
      </trkpt>
      <trkpt lat="42.96215" lon="2.55157">
        <ele>538</ele>
        <time>2022-05-02T19:17:27Z</time>
      </trkpt>
      <trkpt lat="42.962" lon="2.5509">
        <ele>541</ele>
        <time>2022-05-02T19:17:36Z</time>
      </trkpt>
      <trkpt lat="42.96194" lon="2.55072">
        <ele>541</ele>
        <time>2022-05-02T19:17:38Z</time>
      </trkpt>
      <trkpt lat="42.96183" lon="2.55054">
        <ele>540</ele>
        <time>2022-05-02T19:17:41Z</time>
      </trkpt>
      <trkpt lat="42.96172" lon="2.55019">
        <ele>539</ele>
        <time>2022-05-02T19:17:46Z</time>
      </trkpt>
      <trkpt lat="42.96168" lon="2.54973">
        <ele>539</ele>
        <time>2022-05-02T19:17:52Z</time>
      </trkpt>
      <trkpt lat="42.96158" lon="2.54908">
        <ele>540</ele>
        <time>2022-05-02T19:18:01Z</time>
      </trkpt>
      <trkpt lat="42.9615" lon="2.54868">
        <ele>542</ele>
        <time>2022-05-02T19:18:06Z</time>
      </trkpt>
      <trkpt lat="42.96134" lon="2.5481">
        <ele>544</ele>
        <time>2022-05-02T19:18:14Z</time>
      </trkpt>
      <trkpt lat="42.96127" lon="2.54793">
        <ele>545</ele>
        <time>2022-05-02T19:18:17Z</time>
      </trkpt>
      <trkpt lat="42.96096" lon="2.54739">
        <ele>546</ele>
        <time>2022-05-02T19:18:26Z</time>
      </trkpt>
      <trkpt lat="42.96086" lon="2.54716">
        <ele>547</ele>
        <time>2022-05-02T19:18:29Z</time>
      </trkpt>
      <trkpt lat="42.96077" lon="2.54688">
        <ele>548</ele>
        <time>2022-05-02T19:18:33Z</time>
      </trkpt>
      <trkpt lat="42.96061" lon="2.54624">
        <ele>552</ele>
        <time>2022-05-02T19:18:42Z</time>
      </trkpt>
      <trkpt lat="42.96048" lon="2.54562">
        <ele>557</ele>
        <time>2022-05-02T19:18:51Z</time>
      </trkpt>
      <trkpt lat="42.96045" lon="2.54528">
        <ele>559</ele>
        <time>2022-05-02T19:18:55Z</time>
      </trkpt>
      <trkpt lat="42.96043" lon="2.54474">
        <ele>562</ele>
        <time>2022-05-02T19:19:02Z</time>
      </trkpt>
      <trkpt lat="42.96048" lon="2.54196">
        <ele>568</ele>
        <time>2022-05-02T19:19:38Z</time>
      </trkpt>
      <trkpt lat="42.96047" lon="2.54126">
        <ele>565</ele>
        <time>2022-05-02T19:19:47Z</time>
      </trkpt>
      <trkpt lat="42.96038" lon="2.53833">
        <ele>557</ele>
        <time>2022-05-02T19:20:26Z</time>
      </trkpt>
      <trkpt lat="42.9603" lon="2.53658">
        <ele>554</ele>
        <time>2022-05-02T19:20:48Z</time>
      </trkpt>
      <trkpt lat="42.96009" lon="2.53038">
        <ele>537</ele>
        <time>2022-05-02T19:22:09Z</time>
      </trkpt>
      <trkpt lat="42.96001" lon="2.52898">
        <ele>542</ele>
        <time>2022-05-02T19:22:27Z</time>
      </trkpt>
      <trkpt lat="42.95995" lon="2.52865">
        <ele>542</ele>
        <time>2022-05-02T19:22:32Z</time>
      </trkpt>
      <trkpt lat="42.95978" lon="2.52824">
        <ele>542</ele>
        <time>2022-05-02T19:22:38Z</time>
      </trkpt>
      <trkpt lat="42.95935" lon="2.52745">
        <ele>538</ele>
        <time>2022-05-02T19:22:51Z</time>
      </trkpt>
      <trkpt lat="42.95925" lon="2.52732">
        <ele>537</ele>
        <time>2022-05-02T19:22:53Z</time>
      </trkpt>
      <trkpt lat="42.95914" lon="2.5272">
        <ele>536</ele>
        <time>2022-05-02T19:22:56Z</time>
      </trkpt>
      <trkpt lat="42.95891" lon="2.52705">
        <ele>533</ele>
        <time>2022-05-02T19:23:00Z</time>
      </trkpt>
      <trkpt lat="42.95859" lon="2.52698">
        <ele>528</ele>
        <time>2022-05-02T19:23:06Z</time>
      </trkpt>
      <trkpt lat="42.95851" lon="2.52694">
        <ele>527</ele>
        <time>2022-05-02T19:23:08Z</time>
      </trkpt>
      <trkpt lat="42.95837" lon="2.52674">
        <ele>526</ele>
        <time>2022-05-02T19:23:11Z</time>
      </trkpt>
      <trkpt lat="42.95832" lon="2.52658">
        <ele>526</ele>
        <time>2022-05-02T19:23:14Z</time>
      </trkpt>
      <trkpt lat="42.95832" lon="2.52613">
        <ele>527</ele>
        <time>2022-05-02T19:23:19Z</time>
      </trkpt>
      <trkpt lat="42.9583" lon="2.526">
        <ele>527</ele>
        <time>2022-05-02T19:23:21Z</time>
      </trkpt>
      <trkpt lat="42.95825" lon="2.52588">
        <ele>526</ele>
        <time>2022-05-02T19:23:23Z</time>
      </trkpt>
      <trkpt lat="42.95792" lon="2.52557">
        <ele>522</ele>
        <time>2022-05-02T19:23:30Z</time>
      </trkpt>
      <trkpt lat="42.95783" lon="2.52544">
        <ele>521</ele>
        <time>2022-05-02T19:23:32Z</time>
      </trkpt>
      <trkpt lat="42.95763" lon="2.52495">
        <ele>519</ele>
        <time>2022-05-02T19:23:40Z</time>
      </trkpt>
      <trkpt lat="42.95735" lon="2.52448">
        <ele>515</ele>
        <time>2022-05-02T19:23:48Z</time>
      </trkpt>
      <trkpt lat="42.95729" lon="2.52431">
        <ele>514</ele>
        <time>2022-05-02T19:23:50Z</time>
      </trkpt>
      <trkpt lat="42.95727" lon="2.52405">
        <ele>514</ele>
        <time>2022-05-02T19:23:53Z</time>
      </trkpt>
      <trkpt lat="42.95729" lon="2.52374">
        <ele>513</ele>
        <time>2022-05-02T19:23:57Z</time>
      </trkpt>
      <trkpt lat="42.95728" lon="2.5235">
        <ele>512</ele>
        <time>2022-05-02T19:24:01Z</time>
      </trkpt>
      <trkpt lat="42.95712" lon="2.5224">
        <ele>509</ele>
        <time>2022-05-02T19:24:15Z</time>
      </trkpt>
      <trkpt lat="42.95707" lon="2.52223">
        <ele>508</ele>
        <time>2022-05-02T19:24:18Z</time>
      </trkpt>
      <trkpt lat="42.95683" lon="2.5219">
        <ele>504</ele>
        <time>2022-05-02T19:24:24Z</time>
      </trkpt>
      <trkpt lat="42.95676" lon="2.52173">
        <ele>503</ele>
        <time>2022-05-02T19:24:26Z</time>
      </trkpt>
      <trkpt lat="42.95653" lon="2.52042">
        <ele>499</ele>
        <time>2022-05-02T19:24:44Z</time>
      </trkpt>
      <trkpt lat="42.95648" lon="2.52005">
        <ele>499</ele>
        <time>2022-05-02T19:24:49Z</time>
      </trkpt>
      <trkpt lat="42.95648" lon="2.51993">
        <ele>498</ele>
        <time>2022-05-02T19:24:50Z</time>
      </trkpt>
      <trkpt lat="42.95649" lon="2.51964">
        <ele>498</ele>
        <time>2022-05-02T19:24:54Z</time>
      </trkpt>
      <trkpt lat="42.95651" lon="2.51926">
        <ele>497</ele>
        <time>2022-05-02T19:24:59Z</time>
      </trkpt>
      <trkpt lat="42.95649" lon="2.51908">
        <ele>497</ele>
        <time>2022-05-02T19:25:01Z</time>
      </trkpt>
      <trkpt lat="42.95641" lon="2.51892">
        <ele>496</ele>
        <time>2022-05-02T19:25:04Z</time>
      </trkpt>
      <trkpt lat="42.95629" lon="2.51876">
        <ele>495</ele>
        <time>2022-05-02T19:25:07Z</time>
      </trkpt>
      <trkpt lat="42.95618" lon="2.51847">
        <ele>493</ele>
        <time>2022-05-02T19:25:11Z</time>
      </trkpt>
      <trkpt lat="42.95615" lon="2.51826">
        <ele>491</ele>
        <time>2022-05-02T19:25:14Z</time>
      </trkpt>
      <trkpt lat="42.95618" lon="2.51794">
        <ele>489</ele>
        <time>2022-05-02T19:25:18Z</time>
      </trkpt>
      <trkpt lat="42.9564" lon="2.5174">
        <ele>491</ele>
        <time>2022-05-02T19:25:26Z</time>
      </trkpt>
      <trkpt lat="42.95642" lon="2.51712">
        <ele>491</ele>
        <time>2022-05-02T19:25:30Z</time>
      </trkpt>
      <trkpt lat="42.9564" lon="2.51675">
        <ele>489</ele>
        <time>2022-05-02T19:25:35Z</time>
      </trkpt>
      <trkpt lat="42.95643" lon="2.51648">
        <ele>491</ele>
        <time>2022-05-02T19:25:38Z</time>
      </trkpt>
      <trkpt lat="42.95641" lon="2.51634">
        <ele>491</ele>
        <time>2022-05-02T19:25:40Z</time>
      </trkpt>
      <trkpt lat="42.95635" lon="2.51619">
        <ele>490</ele>
        <time>2022-05-02T19:25:42Z</time>
      </trkpt>
      <trkpt lat="42.95593" lon="2.5158">
        <ele>477</ele>
        <time>2022-05-02T19:25:51Z</time>
      </trkpt>
      <trkpt lat="42.95586" lon="2.5157">
        <ele>475</ele>
        <time>2022-05-02T19:25:53Z</time>
      </trkpt>
      <trkpt lat="42.95582" lon="2.51559">
        <ele>473</ele>
        <time>2022-05-02T19:25:55Z</time>
      </trkpt>
      <trkpt lat="42.95581" lon="2.51546">
        <ele>473</ele>
        <time>2022-05-02T19:25:56Z</time>
      </trkpt>
      <trkpt lat="42.95594" lon="2.51467">
        <ele>475</ele>
        <time>2022-05-02T19:26:07Z</time>
      </trkpt>
      <trkpt lat="42.95602" lon="2.51406">
        <ele>476</ele>
        <time>2022-05-02T19:26:15Z</time>
      </trkpt>
      <trkpt lat="42.95624" lon="2.51338">
        <ele>479</ele>
        <time>2022-05-02T19:26:25Z</time>
      </trkpt>
      <trkpt lat="42.95628" lon="2.51313">
        <ele>478</ele>
        <time>2022-05-02T19:26:28Z</time>
      </trkpt>
      <trkpt lat="42.95635" lon="2.51244">
        <ele>473</ele>
        <time>2022-05-02T19:26:37Z</time>
      </trkpt>
      <trkpt lat="42.95634" lon="2.51222">
        <ele>469</ele>
        <time>2022-05-02T19:26:40Z</time>
      </trkpt>
      <trkpt lat="42.95626" lon="2.51191">
        <ele>464</ele>
        <time>2022-05-02T19:26:44Z</time>
      </trkpt>
      <trkpt lat="42.95616" lon="2.51148">
        <ele>460</ele>
        <time>2022-05-02T19:26:50Z</time>
      </trkpt>
      <trkpt lat="42.95616" lon="2.51133">
        <ele>459</ele>
        <time>2022-05-02T19:26:52Z</time>
      </trkpt>
      <trkpt lat="42.95617" lon="2.51122">
        <ele>458</ele>
        <time>2022-05-02T19:26:53Z</time>
      </trkpt>
      <trkpt lat="42.95622" lon="2.51111">
        <ele>457</ele>
        <time>2022-05-02T19:26:55Z</time>
      </trkpt>
      <trkpt lat="42.95628" lon="2.51106">
        <ele>457</ele>
        <time>2022-05-02T19:26:56Z</time>
      </trkpt>
      <trkpt lat="42.95637" lon="2.51103">
        <ele>456</ele>
        <time>2022-05-02T19:26:58Z</time>
      </trkpt>
      <trkpt lat="42.95645" lon="2.51104">
        <ele>456</ele>
        <time>2022-05-02T19:27:00Z</time>
      </trkpt>
      <trkpt lat="42.95653" lon="2.51108">
        <ele>457</ele>
        <time>2022-05-02T19:27:01Z</time>
      </trkpt>
      <trkpt lat="42.95674" lon="2.51129">
        <ele>461</ele>
        <time>2022-05-02T19:27:06Z</time>
      </trkpt>
      <trkpt lat="42.95689" lon="2.51131">
        <ele>465</ele>
        <time>2022-05-02T19:27:08Z</time>
      </trkpt>
      <trkpt lat="42.95699" lon="2.51127">
        <ele>467</ele>
        <time>2022-05-02T19:27:10Z</time>
      </trkpt>
      <trkpt lat="42.95707" lon="2.51118">
        <ele>468</ele>
        <time>2022-05-02T19:27:12Z</time>
      </trkpt>
      <trkpt lat="42.95712" lon="2.51109">
        <ele>468</ele>
        <time>2022-05-02T19:27:14Z</time>
      </trkpt>
      <trkpt lat="42.95714" lon="2.51099">
        <ele>467</ele>
        <time>2022-05-02T19:27:15Z</time>
      </trkpt>
      <trkpt lat="42.95714" lon="2.51088">
        <ele>466</ele>
        <time>2022-05-02T19:27:16Z</time>
      </trkpt>
      <trkpt lat="42.95712" lon="2.51075">
        <ele>465</ele>
        <time>2022-05-02T19:27:18Z</time>
      </trkpt>
      <trkpt lat="42.95703" lon="2.51055">
        <ele>465</ele>
        <time>2022-05-02T19:27:21Z</time>
      </trkpt>
      <trkpt lat="42.95641" lon="2.50952">
        <ele>456</ele>
        <time>2022-05-02T19:27:38Z</time>
      </trkpt>
      <trkpt lat="42.95632" lon="2.50925">
        <ele>454</ele>
        <time>2022-05-02T19:27:42Z</time>
      </trkpt>
      <trkpt lat="42.95634" lon="2.50908">
        <ele>454</ele>
        <time>2022-05-02T19:27:45Z</time>
      </trkpt>
      <trkpt lat="42.95662" lon="2.50857">
        <ele>456</ele>
        <time>2022-05-02T19:27:53Z</time>
      </trkpt>
      <trkpt lat="42.9567" lon="2.50839">
        <ele>457</ele>
        <time>2022-05-02T19:27:56Z</time>
      </trkpt>
      <trkpt lat="42.95673" lon="2.50822">
        <ele>457</ele>
        <time>2022-05-02T19:27:58Z</time>
      </trkpt>
      <trkpt lat="42.95679" lon="2.50738">
        <ele>452</ele>
        <time>2022-05-02T19:28:09Z</time>
      </trkpt>
      <trkpt lat="42.95684" lon="2.50713">
        <ele>451</ele>
        <time>2022-05-02T19:28:12Z</time>
      </trkpt>
      <trkpt lat="42.95719" lon="2.50628">
        <ele>451</ele>
        <time>2022-05-02T19:28:25Z</time>
      </trkpt>
      <trkpt lat="42.95724" lon="2.50607">
        <ele>448</ele>
        <time>2022-05-02T19:28:28Z</time>
      </trkpt>
      <trkpt lat="42.95728" lon="2.50583">
        <ele>444</ele>
        <time>2022-05-02T19:28:31Z</time>
      </trkpt>
      <trkpt lat="42.95735" lon="2.50557">
        <ele>441</ele>
        <time>2022-05-02T19:28:35Z</time>
      </trkpt>
      <trkpt lat="42.9574" lon="2.50546">
        <ele>439</ele>
        <time>2022-05-02T19:28:36Z</time>
      </trkpt>
      <trkpt lat="42.95765" lon="2.50513">
        <ele>434</ele>
        <time>2022-05-02T19:28:42Z</time>
      </trkpt>
      <trkpt lat="42.95779" lon="2.50479">
        <ele>433</ele>
        <time>2022-05-02T19:28:48Z</time>
      </trkpt>
      <trkpt lat="42.95784" lon="2.50451">
        <ele>433</ele>
        <time>2022-05-02T19:28:51Z</time>
      </trkpt>
      <trkpt lat="42.95786" lon="2.50421">
        <ele>432</ele>
        <time>2022-05-02T19:28:55Z</time>
      </trkpt>
      <trkpt lat="42.95775" lon="2.50378">
        <ele>432</ele>
        <time>2022-05-02T19:29:01Z</time>
      </trkpt>
      <trkpt lat="42.95775" lon="2.50365">
        <ele>433</ele>
        <time>2022-05-02T19:29:03Z</time>
      </trkpt>
      <trkpt lat="42.95778" lon="2.50351">
        <ele>433</ele>
        <time>2022-05-02T19:29:05Z</time>
      </trkpt>
      <trkpt lat="42.95788" lon="2.50329">
        <ele>432</ele>
        <time>2022-05-02T19:29:08Z</time>
      </trkpt>
      <trkpt lat="42.95802" lon="2.5031">
        <ele>432</ele>
        <time>2022-05-02T19:29:12Z</time>
      </trkpt>
      <trkpt lat="42.95814" lon="2.50297">
        <ele>431</ele>
        <time>2022-05-02T19:29:14Z</time>
      </trkpt>
      <trkpt lat="42.95826" lon="2.5029">
        <ele>429</ele>
        <time>2022-05-02T19:29:17Z</time>
      </trkpt>
      <trkpt lat="42.95881" lon="2.50286">
        <ele>424</ele>
        <time>2022-05-02T19:29:26Z</time>
      </trkpt>
      <trkpt lat="42.95901" lon="2.50282">
        <ele>423</ele>
        <time>2022-05-02T19:29:30Z</time>
      </trkpt>
      <trkpt lat="42.95972" lon="2.50259">
        <ele>424</ele>
        <time>2022-05-02T19:29:43Z</time>
      </trkpt>
      <trkpt lat="42.95981" lon="2.50251">
        <ele>423</ele>
        <time>2022-05-02T19:29:45Z</time>
      </trkpt>
      <trkpt lat="42.95989" lon="2.5024">
        <ele>424</ele>
        <time>2022-05-02T19:29:47Z</time>
      </trkpt>
      <trkpt lat="42.95995" lon="2.50228">
        <ele>425</ele>
        <time>2022-05-02T19:29:49Z</time>
      </trkpt>
      <trkpt lat="42.95998" lon="2.50215">
        <ele>425</ele>
        <time>2022-05-02T19:29:51Z</time>
      </trkpt>
      <trkpt lat="42.95995" lon="2.50194">
        <ele>425</ele>
        <time>2022-05-02T19:29:53Z</time>
      </trkpt>
      <trkpt lat="42.95988" lon="2.50181">
        <ele>425</ele>
        <time>2022-05-02T19:29:56Z</time>
      </trkpt>
      <trkpt lat="42.95963" lon="2.5015">
        <ele>425</ele>
        <time>2022-05-02T19:30:02Z</time>
      </trkpt>
      <trkpt lat="42.9596" lon="2.50137">
        <ele>425</ele>
        <time>2022-05-02T19:30:03Z</time>
      </trkpt>
      <trkpt lat="42.9596" lon="2.50129">
        <ele>424</ele>
        <time>2022-05-02T19:30:04Z</time>
      </trkpt>
      <trkpt lat="42.95961" lon="2.50122">
        <ele>424</ele>
        <time>2022-05-02T19:30:05Z</time>
      </trkpt>
      <trkpt lat="42.95965" lon="2.50113">
        <ele>424</ele>
        <time>2022-05-02T19:30:07Z</time>
      </trkpt>
      <trkpt lat="42.95972" lon="2.50105">
        <ele>423</ele>
        <time>2022-05-02T19:30:08Z</time>
      </trkpt>
      <trkpt lat="42.95988" lon="2.5009">
        <ele>419</ele>
        <time>2022-05-02T19:30:12Z</time>
      </trkpt>
      <trkpt lat="42.95997" lon="2.50077">
        <ele>417</ele>
        <time>2022-05-02T19:30:14Z</time>
      </trkpt>
      <trkpt lat="42.96002" lon="2.50066">
        <ele>417</ele>
        <time>2022-05-02T19:30:16Z</time>
      </trkpt>
      <trkpt lat="42.96003" lon="2.50054">
        <ele>417</ele>
        <time>2022-05-02T19:30:17Z</time>
      </trkpt>
      <trkpt lat="42.96002" lon="2.5004">
        <ele>415</ele>
        <time>2022-05-02T19:30:19Z</time>
      </trkpt>
      <trkpt lat="42.95991" lon="2.49989">
        <ele>414</ele>
        <time>2022-05-02T19:30:26Z</time>
      </trkpt>
      <trkpt lat="42.95988" lon="2.49961">
        <ele>414</ele>
        <time>2022-05-02T19:30:30Z</time>
      </trkpt>
      <trkpt lat="42.95993" lon="2.49939">
        <ele>413</ele>
        <time>2022-05-02T19:30:33Z</time>
      </trkpt>
      <trkpt lat="42.96" lon="2.49917">
        <ele>411</ele>
        <time>2022-05-02T19:30:36Z</time>
      </trkpt>
      <trkpt lat="42.96002" lon="2.49901">
        <ele>412</ele>
        <time>2022-05-02T19:30:38Z</time>
      </trkpt>
      <trkpt lat="42.96002" lon="2.49891">
        <ele>413</ele>
        <time>2022-05-02T19:30:39Z</time>
      </trkpt>
      <trkpt lat="42.96" lon="2.49877">
        <ele>412</ele>
        <time>2022-05-02T19:30:41Z</time>
      </trkpt>
      <trkpt lat="42.95988" lon="2.49859">
        <ele>413</ele>
        <time>2022-05-02T19:30:44Z</time>
      </trkpt>
      <trkpt lat="42.95955" lon="2.4985">
        <ele>414</ele>
        <time>2022-05-02T19:30:50Z</time>
      </trkpt>
      <trkpt lat="42.95948" lon="2.4984">
        <ele>413</ele>
        <time>2022-05-02T19:30:52Z</time>
      </trkpt>
      <trkpt lat="42.95937" lon="2.4982">
        <ele>411</ele>
        <time>2022-05-02T19:30:55Z</time>
      </trkpt>
      <trkpt lat="42.95933" lon="2.49812">
        <ele>410</ele>
        <time>2022-05-02T19:30:57Z</time>
      </trkpt>
      <trkpt lat="42.95917" lon="2.49734">
        <ele>399</ele>
        <time>2022-05-02T19:31:07Z</time>
      </trkpt>
      <trkpt lat="42.9591" lon="2.49717">
        <ele>400</ele>
        <time>2022-05-02T19:31:10Z</time>
      </trkpt>
      <trkpt lat="42.95877" lon="2.49663">
        <ele>402</ele>
        <time>2022-05-02T19:31:19Z</time>
      </trkpt>
      <trkpt lat="42.95869" lon="2.49647">
        <ele>400</ele>
        <time>2022-05-02T19:31:21Z</time>
      </trkpt>
      <trkpt lat="42.95862" lon="2.49619">
        <ele>393</ele>
        <time>2022-05-02T19:31:25Z</time>
      </trkpt>
      <trkpt lat="42.95858" lon="2.49615">
        <ele>392</ele>
        <time>2022-05-02T19:31:26Z</time>
      </trkpt>
      <trkpt lat="42.95844" lon="2.49609">
        <ele>390</ele>
        <time>2022-05-02T19:31:29Z</time>
      </trkpt>
      <trkpt lat="42.95818" lon="2.49591">
        <ele>383</ele>
        <time>2022-05-02T19:31:34Z</time>
      </trkpt>
      <trkpt lat="42.95782" lon="2.49531">
        <ele>373</ele>
        <time>2022-05-02T19:31:44Z</time>
      </trkpt>
      <trkpt lat="42.95775" lon="2.49526">
        <ele>372</ele>
        <time>2022-05-02T19:31:45Z</time>
      </trkpt>
      <trkpt lat="42.95766" lon="2.49528">
        <ele>372</ele>
        <time>2022-05-02T19:31:47Z</time>
      </trkpt>
      <trkpt lat="42.95688" lon="2.49569">
        <ele>374</ele>
        <time>2022-05-02T19:32:02Z</time>
      </trkpt>
      <trkpt lat="42.9567" lon="2.49575">
        <ele>372</ele>
        <time>2022-05-02T19:32:05Z</time>
      </trkpt>
      <trkpt lat="42.95657" lon="2.49575">
        <ele>372</ele>
        <time>2022-05-02T19:32:08Z</time>
      </trkpt>
      <trkpt lat="42.95643" lon="2.49572">
        <ele>371</ele>
        <time>2022-05-02T19:32:10Z</time>
      </trkpt>
      <trkpt lat="42.95554" lon="2.49539">
        <ele>368</ele>
        <time>2022-05-02T19:32:27Z</time>
      </trkpt>
      <trkpt lat="42.95544" lon="2.49525">
        <ele>367</ele>
        <time>2022-05-02T19:32:29Z</time>
      </trkpt>
      <trkpt lat="42.95541" lon="2.49517">
        <ele>367</ele>
        <time>2022-05-02T19:32:30Z</time>
      </trkpt>
      <trkpt lat="42.95531" lon="2.49471">
        <ele>374</ele>
        <time>2022-05-02T19:32:36Z</time>
      </trkpt>
      <trkpt lat="42.95529" lon="2.49458">
        <ele>378</ele>
        <time>2022-05-02T19:32:38Z</time>
      </trkpt>
      <trkpt lat="42.95533" lon="2.49452">
        <ele>378</ele>
        <time>2022-05-02T19:32:39Z</time>
      </trkpt>
      <trkpt lat="42.9554" lon="2.49445">
        <ele>377</ele>
        <time>2022-05-02T19:32:41Z</time>
      </trkpt>
      <trkpt lat="42.95585" lon="2.49414">
        <ele>364</ele>
        <time>2022-05-02T19:32:50Z</time>
      </trkpt>
      <trkpt lat="42.95593" lon="2.49403">
        <ele>365</ele>
        <time>2022-05-02T19:32:52Z</time>
      </trkpt>
      <trkpt lat="42.95595" lon="2.49394">
        <ele>365</ele>
        <time>2022-05-02T19:32:53Z</time>
      </trkpt>
      <trkpt lat="42.95595" lon="2.49381">
        <ele>366</ele>
        <time>2022-05-02T19:32:55Z</time>
      </trkpt>
      <trkpt lat="42.95591" lon="2.49365">
        <ele>367</ele>
        <time>2022-05-02T19:32:57Z</time>
      </trkpt>
      <trkpt lat="42.95577" lon="2.49325">
        <ele>372</ele>
        <time>2022-05-02T19:33:03Z</time>
      </trkpt>
      <trkpt lat="42.95562" lon="2.49292">
        <ele>379</ele>
        <time>2022-05-02T19:33:08Z</time>
      </trkpt>
      <trkpt lat="42.95547" lon="2.49267">
        <ele>384</ele>
        <time>2022-05-02T19:33:12Z</time>
      </trkpt>
      <trkpt lat="42.95517" lon="2.49225">
        <ele>392</ele>
        <time>2022-05-02T19:33:20Z</time>
      </trkpt>
      <trkpt lat="42.9551" lon="2.49206">
        <ele>391</ele>
        <time>2022-05-02T19:33:22Z</time>
      </trkpt>
      <trkpt lat="42.95505" lon="2.49186">
        <ele>390</ele>
        <time>2022-05-02T19:33:25Z</time>
      </trkpt>
      <trkpt lat="42.955" lon="2.49124">
        <ele>386</ele>
        <time>2022-05-02T19:33:33Z</time>
      </trkpt>
      <trkpt lat="42.955" lon="2.4907">
        <ele>385</ele>
        <time>2022-05-02T19:33:40Z</time>
      </trkpt>
      <trkpt lat="42.95498" lon="2.49057">
        <ele>387</ele>
        <time>2022-05-02T19:33:42Z</time>
      </trkpt>
      <trkpt lat="42.95488" lon="2.49">
        <ele>392</ele>
        <time>2022-05-02T19:33:50Z</time>
      </trkpt>
      <trkpt lat="42.95485" lon="2.48973">
        <ele>393</ele>
        <time>2022-05-02T19:33:53Z</time>
      </trkpt>
      <trkpt lat="42.95492" lon="2.48915">
        <ele>391</ele>
        <time>2022-05-02T19:34:01Z</time>
      </trkpt>
      <trkpt lat="42.95495" lon="2.48862">
        <ele>392</ele>
        <time>2022-05-02T19:34:08Z</time>
      </trkpt>
      <trkpt lat="42.95497" lon="2.48851">
        <ele>392</ele>
        <time>2022-05-02T19:34:09Z</time>
      </trkpt>
      <trkpt lat="42.95519" lon="2.48781">
        <ele>395</ele>
        <time>2022-05-02T19:34:19Z</time>
      </trkpt>
      <trkpt lat="42.95526" lon="2.4874">
        <ele>396</ele>
        <time>2022-05-02T19:34:25Z</time>
      </trkpt>
      <trkpt lat="42.9553" lon="2.48707">
        <ele>395</ele>
        <time>2022-05-02T19:34:29Z</time>
      </trkpt>
      <trkpt lat="42.95532" lon="2.48655">
        <ele>395</ele>
        <time>2022-05-02T19:34:36Z</time>
      </trkpt>
      <trkpt lat="42.95528" lon="2.48631">
        <ele>396</ele>
        <time>2022-05-02T19:34:39Z</time>
      </trkpt>
      <trkpt lat="42.95527" lon="2.48605">
        <ele>397</ele>
        <time>2022-05-02T19:34:42Z</time>
      </trkpt>
      <trkpt lat="42.95542" lon="2.4848">
        <ele>398</ele>
        <time>2022-05-02T19:34:59Z</time>
      </trkpt>
      <trkpt lat="42.95548" lon="2.48479">
        <ele>397</ele>
        <time>2022-05-02T19:35:00Z</time>
      </trkpt>
      <trkpt lat="42.95561" lon="2.4845">
        <ele>394</ele>
        <time>2022-05-02T19:35:04Z</time>
      </trkpt>
      <trkpt lat="42.95575" lon="2.4843">
        <ele>393</ele>
        <time>2022-05-02T19:35:08Z</time>
      </trkpt>
      <trkpt lat="42.95591" lon="2.48412">
        <ele>395</ele>
        <time>2022-05-02T19:35:12Z</time>
      </trkpt>
      <trkpt lat="42.95603" lon="2.48403">
        <ele>399</ele>
        <time>2022-05-02T19:35:14Z</time>
      </trkpt>
      <trkpt lat="42.95609" lon="2.48395">
        <ele>402</ele>
        <time>2022-05-02T19:35:16Z</time>
      </trkpt>
      <trkpt lat="42.95613" lon="2.48377">
        <ele>405</ele>
        <time>2022-05-02T19:35:18Z</time>
      </trkpt>
      <trkpt lat="42.95609" lon="2.48359">
        <ele>405</ele>
        <time>2022-05-02T19:35:21Z</time>
      </trkpt>
      <trkpt lat="42.9561" lon="2.48343">
        <ele>407</ele>
        <time>2022-05-02T19:35:23Z</time>
      </trkpt>
      <trkpt lat="42.9563" lon="2.48294">
        <ele>416</ele>
        <time>2022-05-02T19:35:30Z</time>
      </trkpt>
      <trkpt lat="42.95632" lon="2.48281">
        <ele>418</ele>
        <time>2022-05-02T19:35:32Z</time>
      </trkpt>
      <trkpt lat="42.95632" lon="2.48271">
        <ele>418</ele>
        <time>2022-05-02T19:35:33Z</time>
      </trkpt>
      <trkpt lat="42.95623" lon="2.48223">
        <ele>421</ele>
        <time>2022-05-02T19:35:39Z</time>
      </trkpt>
      <trkpt lat="42.95627" lon="2.48211">
        <ele>421</ele>
        <time>2022-05-02T19:35:41Z</time>
      </trkpt>
      <trkpt lat="42.95639" lon="2.48183">
        <ele>422</ele>
        <time>2022-05-02T19:35:45Z</time>
      </trkpt>
      <trkpt lat="42.95676" lon="2.48103">
        <ele>419</ele>
        <time>2022-05-02T19:35:58Z</time>
      </trkpt>
      <trkpt lat="42.95684" lon="2.48079">
        <ele>421</ele>
        <time>2022-05-02T19:36:01Z</time>
      </trkpt>
      <trkpt lat="42.95692" lon="2.48024">
        <ele>425</ele>
        <time>2022-05-02T19:36:08Z</time>
      </trkpt>
      <trkpt lat="42.95699" lon="2.47941">
        <ele>432</ele>
        <time>2022-05-02T19:36:19Z</time>
      </trkpt>
      <trkpt lat="42.9571" lon="2.47864">
        <ele>434</ele>
        <time>2022-05-02T19:36:29Z</time>
      </trkpt>
      <trkpt lat="42.95729" lon="2.47778">
        <ele>431</ele>
        <time>2022-05-02T19:36:41Z</time>
      </trkpt>
      <trkpt lat="42.95739" lon="2.4775">
        <ele>428</ele>
        <time>2022-05-02T19:36:45Z</time>
      </trkpt>
      <trkpt lat="42.95751" lon="2.47729">
        <ele>426</ele>
        <time>2022-05-02T19:36:49Z</time>
      </trkpt>
      <trkpt lat="42.95778" lon="2.477">
        <ele>433</ele>
        <time>2022-05-02T19:36:55Z</time>
      </trkpt>
      <trkpt lat="42.95787" lon="2.47685">
        <ele>435</ele>
        <time>2022-05-02T19:36:57Z</time>
      </trkpt>
      <trkpt lat="42.95792" lon="2.47673">
        <ele>435</ele>
        <time>2022-05-02T19:36:59Z</time>
      </trkpt>
      <trkpt lat="42.95838" lon="2.47536">
        <ele>434</ele>
        <time>2022-05-02T19:37:19Z</time>
      </trkpt>
      <trkpt lat="42.95858" lon="2.47497">
        <ele>436</ele>
        <time>2022-05-02T19:37:25Z</time>
      </trkpt>
      <trkpt lat="42.95882" lon="2.47431">
        <ele>440</ele>
        <time>2022-05-02T19:37:35Z</time>
      </trkpt>
      <trkpt lat="42.95897" lon="2.47403">
        <ele>439</ele>
        <time>2022-05-02T19:37:39Z</time>
      </trkpt>
      <trkpt lat="42.9598" lon="2.47314">
        <ele>440</ele>
        <time>2022-05-02T19:37:58Z</time>
      </trkpt>
      <trkpt lat="42.95986" lon="2.473">
        <ele>441</ele>
        <time>2022-05-02T19:38:00Z</time>
      </trkpt>
      <trkpt lat="42.95987" lon="2.47289">
        <ele>441</ele>
        <time>2022-05-02T19:38:01Z</time>
      </trkpt>
      <trkpt lat="42.9598" lon="2.47221">
        <ele>442</ele>
        <time>2022-05-02T19:38:10Z</time>
      </trkpt>
      <trkpt lat="42.95981" lon="2.47207">
        <ele>443</ele>
        <time>2022-05-02T19:38:12Z</time>
      </trkpt>
      <trkpt lat="42.95987" lon="2.472">
        <ele>443</ele>
        <time>2022-05-02T19:38:14Z</time>
      </trkpt>
      <trkpt lat="42.95996" lon="2.47199">
        <ele>442</ele>
        <time>2022-05-02T19:38:15Z</time>
      </trkpt>
      <trkpt lat="42.96009" lon="2.47207">
        <ele>442</ele>
        <time>2022-05-02T19:38:18Z</time>
      </trkpt>
      <trkpt lat="42.96028" lon="2.47212">
        <ele>446</ele>
        <time>2022-05-02T19:38:21Z</time>
      </trkpt>
      <trkpt lat="42.96042" lon="2.47212">
        <ele>448</ele>
        <time>2022-05-02T19:38:24Z</time>
      </trkpt>
      <trkpt lat="42.96058" lon="2.47209">
        <ele>450</ele>
        <time>2022-05-02T19:38:27Z</time>
      </trkpt>
      <trkpt lat="42.9608" lon="2.47194">
        <ele>451</ele>
        <time>2022-05-02T19:38:31Z</time>
      </trkpt>
      <trkpt lat="42.96101" lon="2.47171">
        <ele>454</ele>
        <time>2022-05-02T19:38:36Z</time>
      </trkpt>
      <trkpt lat="42.96122" lon="2.47133">
        <ele>459</ele>
        <time>2022-05-02T19:38:42Z</time>
      </trkpt>
      <trkpt lat="42.96139" lon="2.4709">
        <ele>460</ele>
        <time>2022-05-02T19:38:48Z</time>
      </trkpt>
      <trkpt lat="42.96148" lon="2.47046">
        <ele>460</ele>
        <time>2022-05-02T19:38:54Z</time>
      </trkpt>
      <trkpt lat="42.96161" lon="2.47007">
        <ele>457</ele>
        <time>2022-05-02T19:39:00Z</time>
      </trkpt>
      <trkpt lat="42.96176" lon="2.46941">
        <ele>459</ele>
        <time>2022-05-02T19:39:09Z</time>
      </trkpt>
      <trkpt lat="42.96184" lon="2.46886">
        <ele>462</ele>
        <time>2022-05-02T19:39:16Z</time>
      </trkpt>
      <trkpt lat="42.96191" lon="2.46859">
        <ele>465</ele>
        <time>2022-05-02T19:39:20Z</time>
      </trkpt>
      <trkpt lat="42.96212" lon="2.46767">
        <ele>466</ele>
        <time>2022-05-02T19:39:32Z</time>
      </trkpt>
      <trkpt lat="42.96221" lon="2.46742">
        <ele>466</ele>
        <time>2022-05-02T19:39:36Z</time>
      </trkpt>
      <trkpt lat="42.96224" lon="2.46736">
        <ele>466</ele>
        <time>2022-05-02T19:39:37Z</time>
      </trkpt>
      <trkpt lat="42.96247" lon="2.46698">
        <ele>463</ele>
        <time>2022-05-02T19:39:43Z</time>
      </trkpt>
      <trkpt lat="42.96268" lon="2.46671">
        <ele>467</ele>
        <time>2022-05-02T19:39:49Z</time>
      </trkpt>
      <trkpt lat="42.96276" lon="2.46658">
        <ele>469</ele>
        <time>2022-05-02T19:39:51Z</time>
      </trkpt>
      <trkpt lat="42.96301" lon="2.4656">
        <ele>468</ele>
        <time>2022-05-02T19:40:04Z</time>
      </trkpt>
      <trkpt lat="42.96309" lon="2.46539">
        <ele>468</ele>
        <time>2022-05-02T19:40:07Z</time>
      </trkpt>
      <trkpt lat="42.96328" lon="2.46515">
        <ele>468</ele>
        <time>2022-05-02T19:40:12Z</time>
      </trkpt>
      <trkpt lat="42.96331" lon="2.46503">
        <ele>466</ele>
        <time>2022-05-02T19:40:14Z</time>
      </trkpt>
      <trkpt lat="42.96323" lon="2.46468">
        <ele>465</ele>
        <time>2022-05-02T19:40:18Z</time>
      </trkpt>
      <trkpt lat="42.96324" lon="2.46455">
        <ele>465</ele>
        <time>2022-05-02T19:40:20Z</time>
      </trkpt>
      <trkpt lat="42.96327" lon="2.46439">
        <ele>466</ele>
        <time>2022-05-02T19:40:22Z</time>
      </trkpt>
      <trkpt lat="42.96344" lon="2.46397">
        <ele>472</ele>
        <time>2022-05-02T19:40:28Z</time>
      </trkpt>
      <trkpt lat="42.96351" lon="2.46373">
        <ele>476</ele>
        <time>2022-05-02T19:40:32Z</time>
      </trkpt>
      <trkpt lat="42.96355" lon="2.46348">
        <ele>478</ele>
        <time>2022-05-02T19:40:35Z</time>
      </trkpt>
      <trkpt lat="42.96359" lon="2.46217">
        <ele>481</ele>
        <time>2022-05-02T19:40:52Z</time>
      </trkpt>
      <trkpt lat="42.96365" lon="2.46173">
        <ele>483</ele>
        <time>2022-05-02T19:40:58Z</time>
      </trkpt>
      <trkpt lat="42.96376" lon="2.46146">
        <ele>486</ele>
        <time>2022-05-02T19:41:02Z</time>
      </trkpt>
      <trkpt lat="42.96389" lon="2.46131">
        <ele>487</ele>
        <time>2022-05-02T19:41:05Z</time>
      </trkpt>
      <trkpt lat="42.96406" lon="2.46124">
        <ele>487</ele>
        <time>2022-05-02T19:41:08Z</time>
      </trkpt>
      <trkpt lat="42.96446" lon="2.46091">
        <ele>496</ele>
        <time>2022-05-02T19:41:17Z</time>
      </trkpt>
      <trkpt lat="42.96452" lon="2.46079">
        <ele>497</ele>
        <time>2022-05-02T19:41:18Z</time>
      </trkpt>
      <trkpt lat="42.96458" lon="2.46056">
        <ele>500</ele>
        <time>2022-05-02T19:41:22Z</time>
      </trkpt>
      <trkpt lat="42.96461" lon="2.46021">
        <ele>501</ele>
        <time>2022-05-02T19:41:26Z</time>
      </trkpt>
      <trkpt lat="42.96455" lon="2.46001">
        <ele>498</ele>
        <time>2022-05-02T19:41:29Z</time>
      </trkpt>
      <trkpt lat="42.96432" lon="2.45946">
        <ele>495</ele>
        <time>2022-05-02T19:41:37Z</time>
      </trkpt>
      <trkpt lat="42.9642" lon="2.45897">
        <ele>493</ele>
        <time>2022-05-02T19:41:44Z</time>
      </trkpt>
      <trkpt lat="42.96422" lon="2.45864">
        <ele>493</ele>
        <time>2022-05-02T19:41:48Z</time>
      </trkpt>
      <trkpt lat="42.96435" lon="2.45806">
        <ele>499</ele>
        <time>2022-05-02T19:41:56Z</time>
      </trkpt>
      <trkpt lat="42.96436" lon="2.45775">
        <ele>499</ele>
        <time>2022-05-02T19:42:00Z</time>
      </trkpt>
      <trkpt lat="42.96432" lon="2.45754">
        <ele>498</ele>
        <time>2022-05-02T19:42:03Z</time>
      </trkpt>
      <trkpt lat="42.96422" lon="2.45744">
        <ele>497</ele>
        <time>2022-05-02T19:42:05Z</time>
      </trkpt>
      <trkpt lat="42.96403" lon="2.4573">
        <ele>498</ele>
        <time>2022-05-02T19:42:09Z</time>
      </trkpt>
      <trkpt lat="42.96366" lon="2.4571">
        <ele>498</ele>
        <time>2022-05-02T19:42:16Z</time>
      </trkpt>
      <trkpt lat="42.96308" lon="2.45682">
        <ele>498</ele>
        <time>2022-05-02T19:42:27Z</time>
      </trkpt>
      <trkpt lat="42.96298" lon="2.45667">
        <ele>499</ele>
        <time>2022-05-02T19:42:30Z</time>
      </trkpt>
      <trkpt lat="42.96288" lon="2.45638">
        <ele>502</ele>
        <time>2022-05-02T19:42:34Z</time>
      </trkpt>
      <trkpt lat="42.96279" lon="2.45563">
        <ele>507</ele>
        <time>2022-05-02T19:42:44Z</time>
      </trkpt>
      <trkpt lat="42.96277" lon="2.4552">
        <ele>507</ele>
        <time>2022-05-02T19:42:49Z</time>
      </trkpt>
      <trkpt lat="42.96289" lon="2.45448">
        <ele>509</ele>
        <time>2022-05-02T19:42:59Z</time>
      </trkpt>
      <trkpt lat="42.96295" lon="2.4536">
        <ele>508</ele>
        <time>2022-05-02T19:43:11Z</time>
      </trkpt>
      <trkpt lat="42.96297" lon="2.45272">
        <ele>507</ele>
        <time>2022-05-02T19:43:22Z</time>
      </trkpt>
      <trkpt lat="42.96304" lon="2.45227">
        <ele>507</ele>
        <time>2022-05-02T19:43:28Z</time>
      </trkpt>
      <trkpt lat="42.96323" lon="2.45159">
        <ele>505</ele>
        <time>2022-05-02T19:43:38Z</time>
      </trkpt>
      <trkpt lat="42.96331" lon="2.45145">
        <ele>504</ele>
        <time>2022-05-02T19:43:40Z</time>
      </trkpt>
      <trkpt lat="42.96345" lon="2.4513">
        <ele>507</ele>
        <time>2022-05-02T19:43:43Z</time>
      </trkpt>
      <trkpt lat="42.96359" lon="2.45112">
        <ele>510</ele>
        <time>2022-05-02T19:43:46Z</time>
      </trkpt>
      <trkpt lat="42.96371" lon="2.45085">
        <ele>510</ele>
        <time>2022-05-02T19:43:51Z</time>
      </trkpt>
      <trkpt lat="42.96374" lon="2.45068">
        <ele>509</ele>
        <time>2022-05-02T19:43:53Z</time>
      </trkpt>
      <trkpt lat="42.96371" lon="2.45017">
        <ele>506</ele>
        <time>2022-05-02T19:43:59Z</time>
      </trkpt>
      <trkpt lat="42.96373" lon="2.45003">
        <ele>506</ele>
        <time>2022-05-02T19:44:01Z</time>
      </trkpt>
      <trkpt lat="42.96396" lon="2.44905">
        <ele>512</ele>
        <time>2022-05-02T19:44:15Z</time>
      </trkpt>
      <trkpt lat="42.96399" lon="2.44877">
        <ele>514</ele>
        <time>2022-05-02T19:44:18Z</time>
      </trkpt>
      <trkpt lat="42.96396" lon="2.44793">
        <ele>519</ele>
        <time>2022-05-02T19:44:29Z</time>
      </trkpt>
      <trkpt lat="42.964" lon="2.44754">
        <ele>521</ele>
        <time>2022-05-02T19:44:35Z</time>
      </trkpt>
      <trkpt lat="42.96407" lon="2.4471">
        <ele>521</ele>
        <time>2022-05-02T19:44:40Z</time>
      </trkpt>
      <trkpt lat="42.96418" lon="2.44656">
        <ele>520</ele>
        <time>2022-05-02T19:44:48Z</time>
      </trkpt>
      <trkpt lat="42.96439" lon="2.44589">
        <ele>527</ele>
        <time>2022-05-02T19:44:57Z</time>
      </trkpt>
      <trkpt lat="42.96456" lon="2.44545">
        <ele>532</ele>
        <time>2022-05-02T19:45:04Z</time>
      </trkpt>
      <trkpt lat="42.96474" lon="2.44515">
        <ele>533</ele>
        <time>2022-05-02T19:45:09Z</time>
      </trkpt>
      <trkpt lat="42.96504" lon="2.44479">
        <ele>532</ele>
        <time>2022-05-02T19:45:16Z</time>
      </trkpt>
      <trkpt lat="42.96542" lon="2.44415">
        <ele>535</ele>
        <time>2022-05-02T19:45:27Z</time>
      </trkpt>
      <trkpt lat="42.9664" lon="2.44286">
        <ele>537</ele>
        <time>2022-05-02T19:45:51Z</time>
      </trkpt>
      <trkpt lat="42.96657" lon="2.44271">
        <ele>537</ele>
        <time>2022-05-02T19:45:54Z</time>
      </trkpt>
      <trkpt lat="42.96671" lon="2.44268">
        <ele>539</ele>
        <time>2022-05-02T19:45:57Z</time>
      </trkpt>
      <trkpt lat="42.9668" lon="2.44262">
        <ele>540</ele>
        <time>2022-05-02T19:45:59Z</time>
      </trkpt>
      <trkpt lat="42.96683" lon="2.44253">
        <ele>540</ele>
        <time>2022-05-02T19:46:00Z</time>
      </trkpt>
      <trkpt lat="42.96684" lon="2.4424">
        <ele>540</ele>
        <time>2022-05-02T19:46:02Z</time>
      </trkpt>
      <trkpt lat="42.96677" lon="2.44205">
        <ele>537</ele>
        <time>2022-05-02T19:46:06Z</time>
      </trkpt>
      <trkpt lat="42.96678" lon="2.44185">
        <ele>538</ele>
        <time>2022-05-02T19:46:09Z</time>
      </trkpt>
      <trkpt lat="42.96686" lon="2.44148">
        <ele>540</ele>
        <time>2022-05-02T19:46:14Z</time>
      </trkpt>
      <trkpt lat="42.96705" lon="2.4411">
        <ele>543</ele>
        <time>2022-05-02T19:46:20Z</time>
      </trkpt>
      <trkpt lat="42.96725" lon="2.44077">
        <ele>544</ele>
        <time>2022-05-02T19:46:26Z</time>
      </trkpt>
      <trkpt lat="42.96772" lon="2.44029">
        <ele>547</ele>
        <time>2022-05-02T19:46:36Z</time>
      </trkpt>
      <trkpt lat="42.96818" lon="2.43968">
        <ele>548</ele>
        <time>2022-05-02T19:46:47Z</time>
      </trkpt>
      <trkpt lat="42.96855" lon="2.43937">
        <ele>549</ele>
        <time>2022-05-02T19:46:55Z</time>
      </trkpt>
      <trkpt lat="42.96923" lon="2.43897">
        <ele>556</ele>
        <time>2022-05-02T19:47:08Z</time>
      </trkpt>
      <trkpt lat="42.96958" lon="2.4389">
        <ele>557</ele>
        <time>2022-05-02T19:47:15Z</time>
      </trkpt>
      <trkpt lat="42.96985" lon="2.4389">
        <ele>558</ele>
        <time>2022-05-02T19:47:19Z</time>
      </trkpt>
      <trkpt lat="42.97048" lon="2.43929">
        <ele>564</ele>
        <time>2022-05-02T19:47:32Z</time>
      </trkpt>
      <trkpt lat="42.97085" lon="2.43956">
        <ele>565</ele>
        <time>2022-05-02T19:47:39Z</time>
      </trkpt>
      <trkpt lat="42.97092" lon="2.43968">
        <ele>568</ele>
        <time>2022-05-02T19:47:41Z</time>
      </trkpt>
      <trkpt lat="42.97108" lon="2.44022">
        <ele>578</ele>
        <time>2022-05-02T19:47:49Z</time>
      </trkpt>
      <trkpt lat="42.97116" lon="2.4407">
        <ele>586</ele>
        <time>2022-05-02T19:47:55Z</time>
      </trkpt>
      <trkpt lat="42.97118" lon="2.44109">
        <ele>592</ele>
        <time>2022-05-02T19:48:00Z</time>
      </trkpt>
      <trkpt lat="42.97125" lon="2.44117">
        <ele>592</ele>
        <time>2022-05-02T19:48:02Z</time>
      </trkpt>
      <trkpt lat="42.97132" lon="2.44116">
        <ele>591</ele>
        <time>2022-05-02T19:48:03Z</time>
      </trkpt>
      <trkpt lat="42.9714" lon="2.44105">
        <ele>588</ele>
        <time>2022-05-02T19:48:05Z</time>
      </trkpt>
      <trkpt lat="42.97157" lon="2.44072">
        <ele>580</ele>
        <time>2022-05-02T19:48:10Z</time>
      </trkpt>
      <trkpt lat="42.97169" lon="2.44062">
        <ele>578</ele>
        <time>2022-05-02T19:48:13Z</time>
      </trkpt>
      <trkpt lat="42.97177" lon="2.44053">
        <ele>580</ele>
        <time>2022-05-02T19:48:15Z</time>
      </trkpt>
      <trkpt lat="42.9718" lon="2.44035">
        <ele>579</ele>
        <time>2022-05-02T19:48:17Z</time>
      </trkpt>
      <trkpt lat="42.97177" lon="2.44001">
        <ele>574</ele>
        <time>2022-05-02T19:48:22Z</time>
      </trkpt>
      <trkpt lat="42.9718" lon="2.43988">
        <ele>574</ele>
        <time>2022-05-02T19:48:23Z</time>
      </trkpt>
      <trkpt lat="42.97197" lon="2.43958">
        <ele>578</ele>
        <time>2022-05-02T19:48:28Z</time>
      </trkpt>
      <trkpt lat="42.97239" lon="2.43873">
        <ele>580</ele>
        <time>2022-05-02T19:48:42Z</time>
      </trkpt>
      <trkpt lat="42.97263" lon="2.43841">
        <ele>582</ele>
        <time>2022-05-02T19:48:48Z</time>
      </trkpt>
      <trkpt lat="42.97301" lon="2.43799">
        <ele>587</ele>
        <time>2022-05-02T19:48:56Z</time>
      </trkpt>
      <trkpt lat="42.97407" lon="2.43704">
        <ele>594</ele>
        <time>2022-05-02T19:49:19Z</time>
      </trkpt>
      <trkpt lat="42.97453" lon="2.43669">
        <ele>594</ele>
        <time>2022-05-02T19:49:28Z</time>
      </trkpt>
      <trkpt lat="42.97474" lon="2.43658">
        <ele>596</ele>
        <time>2022-05-02T19:49:32Z</time>
      </trkpt>
      <trkpt lat="42.97491" lon="2.43653">
        <ele>598</ele>
        <time>2022-05-02T19:49:35Z</time>
      </trkpt>
      <trkpt lat="42.97507" lon="2.43652">
        <ele>600</ele>
        <time>2022-05-02T19:49:38Z</time>
      </trkpt>
      <trkpt lat="42.9752" lon="2.43654">
        <ele>601</ele>
        <time>2022-05-02T19:49:41Z</time>
      </trkpt>
      <trkpt lat="42.97538" lon="2.43661">
        <ele>603</ele>
        <time>2022-05-02T19:49:44Z</time>
      </trkpt>
      <trkpt lat="42.97555" lon="2.43673">
        <ele>606</ele>
        <time>2022-05-02T19:49:47Z</time>
      </trkpt>
      <trkpt lat="42.97581" lon="2.43697">
        <ele>614</ele>
        <time>2022-05-02T19:49:53Z</time>
      </trkpt>
      <trkpt lat="42.97633" lon="2.43756">
        <ele>629</ele>
        <time>2022-05-02T19:50:05Z</time>
      </trkpt>
      <trkpt lat="42.97642" lon="2.43762">
        <ele>630</ele>
        <time>2022-05-02T19:50:07Z</time>
      </trkpt>
      <trkpt lat="42.97649" lon="2.4376">
        <ele>629</ele>
        <time>2022-05-02T19:50:08Z</time>
      </trkpt>
      <trkpt lat="42.97654" lon="2.43754">
        <ele>627</ele>
        <time>2022-05-02T19:50:09Z</time>
      </trkpt>
      <trkpt lat="42.97655" lon="2.43728">
        <ele>626</ele>
        <time>2022-05-02T19:50:12Z</time>
      </trkpt>
      <trkpt lat="42.97642" lon="2.43601">
        <ele>617</ele>
        <time>2022-05-02T19:50:29Z</time>
      </trkpt>
      <trkpt lat="42.97644" lon="2.4358">
        <ele>616</ele>
        <time>2022-05-02T19:50:32Z</time>
      </trkpt>
      <trkpt lat="42.97654" lon="2.43561">
        <ele>616</ele>
        <time>2022-05-02T19:50:35Z</time>
      </trkpt>
      <trkpt lat="42.97672" lon="2.43547">
        <ele>619</ele>
        <time>2022-05-02T19:50:39Z</time>
      </trkpt>
      <trkpt lat="42.97734" lon="2.43515">
        <ele>623</ele>
        <time>2022-05-02T19:50:50Z</time>
      </trkpt>
      <trkpt lat="42.97784" lon="2.43505">
        <ele>625</ele>
        <time>2022-05-02T19:50:59Z</time>
      </trkpt>
      <trkpt lat="42.97817" lon="2.43506">
        <ele>627</ele>
        <time>2022-05-02T19:51:05Z</time>
      </trkpt>
      <trkpt lat="42.97854" lon="2.43521">
        <ele>632</ele>
        <time>2022-05-02T19:51:12Z</time>
      </trkpt>
      <trkpt lat="42.97875" lon="2.43538">
        <ele>635</ele>
        <time>2022-05-02T19:51:17Z</time>
      </trkpt>
      <trkpt lat="42.97893" lon="2.43577">
        <ele>643</ele>
        <time>2022-05-02T19:51:23Z</time>
      </trkpt>
      <trkpt lat="42.97916" lon="2.43619">
        <ele>649</ele>
        <time>2022-05-02T19:51:29Z</time>
      </trkpt>
      <trkpt lat="42.97936" lon="2.4365">
        <ele>659</ele>
        <time>2022-05-02T19:51:35Z</time>
      </trkpt>
      <trkpt lat="42.97945" lon="2.43653">
        <ele>661</ele>
        <time>2022-05-02T19:51:36Z</time>
      </trkpt>
      <trkpt lat="42.97954" lon="2.43648">
        <ele>661</ele>
        <time>2022-05-02T19:51:38Z</time>
      </trkpt>
      <trkpt lat="42.97958" lon="2.43633">
        <ele>658</ele>
        <time>2022-05-02T19:51:40Z</time>
      </trkpt>
      <trkpt lat="42.97964" lon="2.43591">
        <ele>649</ele>
        <time>2022-05-02T19:51:46Z</time>
      </trkpt>
      <trkpt lat="42.97972" lon="2.43577">
        <ele>647</ele>
        <time>2022-05-02T19:51:48Z</time>
      </trkpt>
      <trkpt lat="42.98" lon="2.43557">
        <ele>645</ele>
        <time>2022-05-02T19:51:54Z</time>
      </trkpt>
      <trkpt lat="42.98044" lon="2.43535">
        <ele>647</ele>
        <time>2022-05-02T19:52:02Z</time>
      </trkpt>
      <trkpt lat="42.9808" lon="2.43532">
        <ele>653</ele>
        <time>2022-05-02T19:52:08Z</time>
      </trkpt>
      <trkpt lat="42.98105" lon="2.43544">
        <ele>660</ele>
        <time>2022-05-02T19:52:13Z</time>
      </trkpt>
      <trkpt lat="42.98122" lon="2.43564">
        <ele>667</ele>
        <time>2022-05-02T19:52:17Z</time>
      </trkpt>
      <trkpt lat="42.98131" lon="2.43568">
        <ele>668</ele>
        <time>2022-05-02T19:52:19Z</time>
      </trkpt>
      <trkpt lat="42.98139" lon="2.43563">
        <ele>668</ele>
        <time>2022-05-02T19:52:20Z</time>
      </trkpt>
      <trkpt lat="42.98148" lon="2.4355">
        <ele>667</ele>
        <time>2022-05-02T19:52:23Z</time>
      </trkpt>
      <trkpt lat="42.98159" lon="2.43476">
        <ele>657</ele>
        <time>2022-05-02T19:52:33Z</time>
      </trkpt>
      <trkpt lat="42.98165" lon="2.43462">
        <ele>656</ele>
        <time>2022-05-02T19:52:35Z</time>
      </trkpt>
      <trkpt lat="42.98215" lon="2.4343">
        <ele>662</ele>
        <time>2022-05-02T19:52:45Z</time>
      </trkpt>
      <trkpt lat="42.98243" lon="2.43407">
        <ele>663</ele>
        <time>2022-05-02T19:52:50Z</time>
      </trkpt>
      <trkpt lat="42.98273" lon="2.43398">
        <ele>666</ele>
        <time>2022-05-02T19:52:56Z</time>
      </trkpt>
      <trkpt lat="42.98315" lon="2.43395">
        <ele>672</ele>
        <time>2022-05-02T19:53:03Z</time>
      </trkpt>
      <trkpt lat="42.98381" lon="2.43405">
        <ele>678</ele>
        <time>2022-05-02T19:53:15Z</time>
      </trkpt>
      <trkpt lat="42.98411" lon="2.43416">
        <ele>681</ele>
        <time>2022-05-02T19:53:21Z</time>
      </trkpt>
      <trkpt lat="42.98421" lon="2.43413">
        <ele>682</ele>
        <time>2022-05-02T19:53:22Z</time>
      </trkpt>
      <trkpt lat="42.98427" lon="2.43403">
        <ele>681</ele>
        <time>2022-05-02T19:53:24Z</time>
      </trkpt>
      <trkpt lat="42.98431" lon="2.43389">
        <ele>680</ele>
        <time>2022-05-02T19:53:26Z</time>
      </trkpt>
      <trkpt lat="42.98437" lon="2.43353">
        <ele>675</ele>
        <time>2022-05-02T19:53:31Z</time>
      </trkpt>
      <trkpt lat="42.98447" lon="2.43328">
        <ele>675</ele>
        <time>2022-05-02T19:53:35Z</time>
      </trkpt>
      <trkpt lat="42.98467" lon="2.43296">
        <ele>676</ele>
        <time>2022-05-02T19:53:40Z</time>
      </trkpt>
      <trkpt lat="42.98488" lon="2.4327">
        <ele>677</ele>
        <time>2022-05-02T19:53:45Z</time>
      </trkpt>
      <trkpt lat="42.98503" lon="2.43256">
        <ele>678</ele>
        <time>2022-05-02T19:53:48Z</time>
      </trkpt>
      <trkpt lat="42.98564" lon="2.43224">
        <ele>689</ele>
        <time>2022-05-02T19:54:00Z</time>
      </trkpt>
      <trkpt lat="42.98577" lon="2.43209">
        <ele>690</ele>
        <time>2022-05-02T19:54:03Z</time>
      </trkpt>
      <trkpt lat="42.9859" lon="2.43205">
        <ele>692</ele>
        <time>2022-05-02T19:54:05Z</time>
      </trkpt>
      <trkpt lat="42.98603" lon="2.43216">
        <ele>695</ele>
        <time>2022-05-02T19:54:08Z</time>
      </trkpt>
      <trkpt lat="42.9861" lon="2.43218">
        <ele>697</ele>
        <time>2022-05-02T19:54:09Z</time>
      </trkpt>
      <trkpt lat="42.98615" lon="2.43223">
        <ele>697</ele>
        <time>2022-05-02T19:54:10Z</time>
      </trkpt>
      <trkpt lat="42.98618" lon="2.4323">
        <ele>698</ele>
        <time>2022-05-02T19:54:12Z</time>
      </trkpt>
      <trkpt lat="42.98631" lon="2.43282">
        <ele>703</ele>
        <time>2022-05-02T19:54:19Z</time>
      </trkpt>
      <trkpt lat="42.98638" lon="2.43294">
        <ele>704</ele>
        <time>2022-05-02T19:54:21Z</time>
      </trkpt>
      <trkpt lat="42.98643" lon="2.43299">
        <ele>705</ele>
        <time>2022-05-02T19:54:22Z</time>
      </trkpt>
      <trkpt lat="42.98654" lon="2.43297">
        <ele>704</ele>
        <time>2022-05-02T19:54:24Z</time>
      </trkpt>
      <trkpt lat="42.98657" lon="2.43293">
        <ele>704</ele>
        <time>2022-05-02T19:54:24Z</time>
      </trkpt>
      <trkpt lat="42.9866" lon="2.43275">
        <ele>703</ele>
        <time>2022-05-02T19:54:27Z</time>
      </trkpt>
      <trkpt lat="42.98656" lon="2.43251">
        <ele>701</ele>
        <time>2022-05-02T19:54:30Z</time>
      </trkpt>
      <trkpt lat="42.98655" lon="2.43222">
        <ele>703</ele>
        <time>2022-05-02T19:54:34Z</time>
      </trkpt>
      <trkpt lat="42.98656" lon="2.43207">
        <ele>704</ele>
        <time>2022-05-02T19:54:36Z</time>
      </trkpt>
      <trkpt lat="42.9866" lon="2.43185">
        <ele>707</ele>
        <time>2022-05-02T19:54:39Z</time>
      </trkpt>
      <trkpt lat="42.98661" lon="2.43159">
        <ele>709</ele>
        <time>2022-05-02T19:54:42Z</time>
      </trkpt>
      <trkpt lat="42.98659" lon="2.43149">
        <ele>709</ele>
        <time>2022-05-02T19:54:44Z</time>
      </trkpt>
      <trkpt lat="42.98654" lon="2.43136">
        <ele>709</ele>
        <time>2022-05-02T19:54:45Z</time>
      </trkpt>
      <trkpt lat="42.98636" lon="2.4312">
        <ele>705</ele>
        <time>2022-05-02T19:54:49Z</time>
      </trkpt>
      <trkpt lat="42.98627" lon="2.4311">
        <ele>703</ele>
        <time>2022-05-02T19:54:51Z</time>
      </trkpt>
      <trkpt lat="42.98621" lon="2.43096">
        <ele>701</ele>
        <time>2022-05-02T19:54:53Z</time>
      </trkpt>
      <trkpt lat="42.98619" lon="2.43081">
        <ele>702</ele>
        <time>2022-05-02T19:54:55Z</time>
      </trkpt>
      <trkpt lat="42.9862" lon="2.43069">
        <ele>703</ele>
        <time>2022-05-02T19:54:57Z</time>
      </trkpt>
      <trkpt lat="42.98625" lon="2.43049">
        <ele>706</ele>
        <time>2022-05-02T19:55:00Z</time>
      </trkpt>
      <trkpt lat="42.98636" lon="2.43016">
        <ele>712</ele>
        <time>2022-05-02T19:55:04Z</time>
      </trkpt>
      <trkpt lat="42.98639" lon="2.43">
        <ele>714</ele>
        <time>2022-05-02T19:55:07Z</time>
      </trkpt>
      <trkpt lat="42.98638" lon="2.42982">
        <ele>716</ele>
        <time>2022-05-02T19:55:09Z</time>
      </trkpt>
      <trkpt lat="42.98633" lon="2.4296">
        <ele>717</ele>
        <time>2022-05-02T19:55:12Z</time>
      </trkpt>
      <trkpt lat="42.98626" lon="2.42945">
        <ele>717</ele>
        <time>2022-05-02T19:55:14Z</time>
      </trkpt>
      <trkpt lat="42.98617" lon="2.42933">
        <ele>717</ele>
        <time>2022-05-02T19:55:17Z</time>
      </trkpt>
      <trkpt lat="42.98607" lon="2.42924">
        <ele>716</ele>
        <time>2022-05-02T19:55:19Z</time>
      </trkpt>
      <trkpt lat="42.98595" lon="2.42917">
        <ele>714</ele>
        <time>2022-05-02T19:55:21Z</time>
      </trkpt>
      <trkpt lat="42.98582" lon="2.42908">
        <ele>713</ele>
        <time>2022-05-02T19:55:24Z</time>
      </trkpt>
      <trkpt lat="42.98573" lon="2.42895">
        <ele>713</ele>
        <time>2022-05-02T19:55:26Z</time>
      </trkpt>
      <trkpt lat="42.98566" lon="2.4288">
        <ele>713</ele>
        <time>2022-05-02T19:55:28Z</time>
      </trkpt>
      <trkpt lat="42.98562" lon="2.42853">
        <ele>714</ele>
        <time>2022-05-02T19:55:32Z</time>
      </trkpt>
      <trkpt lat="42.9856" lon="2.42796">
        <ele>713</ele>
        <time>2022-05-02T19:55:39Z</time>
      </trkpt>
      <trkpt lat="42.98565" lon="2.42747">
        <ele>713</ele>
        <time>2022-05-02T19:55:46Z</time>
      </trkpt>
      <trkpt lat="42.98575" lon="2.42711">
        <ele>714</ele>
        <time>2022-05-02T19:55:51Z</time>
      </trkpt>
      <trkpt lat="42.98614" lon="2.4262">
        <ele>718</ele>
        <time>2022-05-02T19:56:04Z</time>
      </trkpt>
      <trkpt lat="42.98629" lon="2.4256">
        <ele>717</ele>
        <time>2022-05-02T19:56:13Z</time>
      </trkpt>
      <trkpt lat="42.98639" lon="2.42543">
        <ele>718</ele>
        <time>2022-05-02T19:56:15Z</time>
      </trkpt>
      <trkpt lat="42.98649" lon="2.42531">
        <ele>719</ele>
        <time>2022-05-02T19:56:18Z</time>
      </trkpt>
      <trkpt lat="42.98686" lon="2.42498">
        <ele>720</ele>
        <time>2022-05-02T19:56:26Z</time>
      </trkpt>
      <trkpt lat="42.98707" lon="2.42486">
        <ele>719</ele>
        <time>2022-05-02T19:56:30Z</time>
      </trkpt>
      <trkpt lat="42.98724" lon="2.4248">
        <ele>718</ele>
        <time>2022-05-02T19:56:33Z</time>
      </trkpt>
      <trkpt lat="42.98746" lon="2.42477">
        <ele>718</ele>
        <time>2022-05-02T19:56:37Z</time>
      </trkpt>
      <trkpt lat="42.98764" lon="2.42479">
        <ele>717</ele>
        <time>2022-05-02T19:56:40Z</time>
      </trkpt>
      <trkpt lat="42.98773" lon="2.42484">
        <ele>718</ele>
        <time>2022-05-02T19:56:42Z</time>
      </trkpt>
      <trkpt lat="42.98868" lon="2.42565">
        <ele>720</ele>
        <time>2022-05-02T19:57:02Z</time>
      </trkpt>
      <trkpt lat="42.98905" lon="2.42613">
        <ele>719</ele>
        <time>2022-05-02T19:57:11Z</time>
      </trkpt>
      <trkpt lat="42.98937" lon="2.42645">
        <ele>720</ele>
        <time>2022-05-02T19:57:18Z</time>
      </trkpt>
      <trkpt lat="42.98954" lon="2.42674">
        <ele>720</ele>
        <time>2022-05-02T19:57:23Z</time>
      </trkpt>
      <trkpt lat="42.98969" lon="2.42709">
        <ele>721</ele>
        <time>2022-05-02T19:57:28Z</time>
      </trkpt>
      <trkpt lat="42.98981" lon="2.4273">
        <ele>721</ele>
        <time>2022-05-02T19:57:31Z</time>
      </trkpt>
      <trkpt lat="42.99001" lon="2.42754">
        <ele>721</ele>
        <time>2022-05-02T19:57:36Z</time>
      </trkpt>
      <trkpt lat="42.99031" lon="2.42777">
        <ele>724</ele>
        <time>2022-05-02T19:57:42Z</time>
      </trkpt>
      <trkpt lat="42.99048" lon="2.42787">
        <ele>725</ele>
        <time>2022-05-02T19:57:46Z</time>
      </trkpt>
      <trkpt lat="42.99058" lon="2.42789">
        <ele>725</ele>
        <time>2022-05-02T19:57:47Z</time>
      </trkpt>
      <trkpt lat="42.99066" lon="2.42788">
        <ele>725</ele>
        <time>2022-05-02T19:57:49Z</time>
      </trkpt>
      <trkpt lat="42.99074" lon="2.42785">
        <ele>725</ele>
        <time>2022-05-02T19:57:50Z</time>
      </trkpt>
      <trkpt lat="42.99126" lon="2.42744">
        <ele>728</ele>
        <time>2022-05-02T19:58:01Z</time>
      </trkpt>
      <trkpt lat="42.99142" lon="2.42735">
        <ele>730</ele>
        <time>2022-05-02T19:58:04Z</time>
      </trkpt>
      <trkpt lat="42.99163" lon="2.42728">
        <ele>733</ele>
        <time>2022-05-02T19:58:08Z</time>
      </trkpt>
      <trkpt lat="42.99188" lon="2.42725">
        <ele>734</ele>
        <time>2022-05-02T19:58:12Z</time>
      </trkpt>
      <trkpt lat="42.99237" lon="2.42734">
        <ele>736</ele>
        <time>2022-05-02T19:58:21Z</time>
      </trkpt>
      <trkpt lat="42.99258" lon="2.4274">
        <ele>738</ele>
        <time>2022-05-02T19:58:25Z</time>
      </trkpt>
      <trkpt lat="42.99276" lon="2.42741">
        <ele>739</ele>
        <time>2022-05-02T19:58:28Z</time>
      </trkpt>
      <trkpt lat="42.99302" lon="2.42736">
        <ele>739</ele>
        <time>2022-05-02T19:58:33Z</time>
      </trkpt>
      <trkpt lat="42.99365" lon="2.42718">
        <ele>738</ele>
        <time>2022-05-02T19:58:44Z</time>
      </trkpt>
      <trkpt lat="42.99389" lon="2.42714">
        <ele>738</ele>
        <time>2022-05-02T19:58:49Z</time>
      </trkpt>
      <trkpt lat="42.99405" lon="2.42719">
        <ele>739</ele>
        <time>2022-05-02T19:58:51Z</time>
      </trkpt>
      <trkpt lat="42.99447" lon="2.42739">
        <ele>739</ele>
        <time>2022-05-02T19:58:59Z</time>
      </trkpt>
      <trkpt lat="42.99482" lon="2.42767">
        <ele>738</ele>
        <time>2022-05-02T19:59:07Z</time>
      </trkpt>
      <trkpt lat="42.99491" lon="2.42788">
        <ele>739</ele>
        <time>2022-05-02T19:59:10Z</time>
      </trkpt>
      <trkpt lat="42.99504" lon="2.42828">
        <ele>742</ele>
        <time>2022-05-02T19:59:15Z</time>
      </trkpt>
      <trkpt lat="42.99512" lon="2.42842">
        <ele>744</ele>
        <time>2022-05-02T19:59:18Z</time>
      </trkpt>
      <trkpt lat="42.9952" lon="2.42848">
        <ele>745</ele>
        <time>2022-05-02T19:59:19Z</time>
      </trkpt>
      <trkpt lat="42.99533" lon="2.42847">
        <ele>745</ele>
        <time>2022-05-02T19:59:22Z</time>
      </trkpt>
      <trkpt lat="42.99547" lon="2.42839">
        <ele>744</ele>
        <time>2022-05-02T19:59:24Z</time>
      </trkpt>
      <trkpt lat="42.9956" lon="2.4282">
        <ele>743</ele>
        <time>2022-05-02T19:59:28Z</time>
      </trkpt>
      <trkpt lat="42.99572" lon="2.42805">
        <ele>742</ele>
        <time>2022-05-02T19:59:31Z</time>
      </trkpt>
      <trkpt lat="42.99594" lon="2.42795">
        <ele>742</ele>
        <time>2022-05-02T19:59:35Z</time>
      </trkpt>
      <trkpt lat="42.99609" lon="2.42797">
        <ele>744</ele>
        <time>2022-05-02T19:59:38Z</time>
      </trkpt>
      <trkpt lat="42.99646" lon="2.42809">
        <ele>748</ele>
        <time>2022-05-02T19:59:44Z</time>
      </trkpt>
      <trkpt lat="42.99657" lon="2.42806">
        <ele>749</ele>
        <time>2022-05-02T19:59:46Z</time>
      </trkpt>
      <trkpt lat="42.99664" lon="2.42798">
        <ele>750</ele>
        <time>2022-05-02T19:59:48Z</time>
      </trkpt>
      <trkpt lat="42.9967" lon="2.42785">
        <ele>751</ele>
        <time>2022-05-02T19:59:50Z</time>
      </trkpt>
      <trkpt lat="42.99676" lon="2.42683">
        <ele>754</ele>
        <time>2022-05-02T20:00:03Z</time>
      </trkpt>
      <trkpt lat="42.99667" lon="2.42621">
        <ele>755</ele>
        <time>2022-05-02T20:00:11Z</time>
      </trkpt>
      <trkpt lat="42.99659" lon="2.42593">
        <ele>757</ele>
        <time>2022-05-02T20:00:15Z</time>
      </trkpt>
      <trkpt lat="42.99649" lon="2.42571">
        <ele>757</ele>
        <time>2022-05-02T20:00:19Z</time>
      </trkpt>
      <trkpt lat="42.9964" lon="2.42557">
        <ele>757</ele>
        <time>2022-05-02T20:00:21Z</time>
      </trkpt>
      <trkpt lat="42.9963" lon="2.4255">
        <ele>757</ele>
        <time>2022-05-02T20:00:23Z</time>
      </trkpt>
      <trkpt lat="42.99591" lon="2.42537">
        <ele>753</ele>
        <time>2022-05-02T20:00:30Z</time>
      </trkpt>
      <trkpt lat="42.9958" lon="2.4253">
        <ele>752</ele>
        <time>2022-05-02T20:00:32Z</time>
      </trkpt>
      <trkpt lat="42.99572" lon="2.42518">
        <ele>752</ele>
        <time>2022-05-02T20:00:35Z</time>
      </trkpt>
      <trkpt lat="42.99569" lon="2.42502">
        <ele>752</ele>
        <time>2022-05-02T20:00:37Z</time>
      </trkpt>
      <trkpt lat="42.99568" lon="2.42485">
        <ele>751</ele>
        <time>2022-05-02T20:00:39Z</time>
      </trkpt>
      <trkpt lat="42.99571" lon="2.42466">
        <ele>751</ele>
        <time>2022-05-02T20:00:41Z</time>
      </trkpt>
      <trkpt lat="42.9958" lon="2.42439">
        <ele>752</ele>
        <time>2022-05-02T20:00:45Z</time>
      </trkpt>
      <trkpt lat="42.99604" lon="2.42394">
        <ele>755</ele>
        <time>2022-05-02T20:00:53Z</time>
      </trkpt>
      <trkpt lat="42.9967" lon="2.42261">
        <ele>758</ele>
        <time>2022-05-02T20:01:13Z</time>
      </trkpt>
      <trkpt lat="42.99681" lon="2.42244">
        <ele>758</ele>
        <time>2022-05-02T20:01:16Z</time>
      </trkpt>
      <trkpt lat="42.99696" lon="2.42231">
        <ele>757</ele>
        <time>2022-05-02T20:01:20Z</time>
      </trkpt>
      <trkpt lat="42.99709" lon="2.42229">
        <ele>756</ele>
        <time>2022-05-02T20:01:22Z</time>
      </trkpt>
      <trkpt lat="42.99722" lon="2.42234">
        <ele>756</ele>
        <time>2022-05-02T20:01:24Z</time>
      </trkpt>
      <trkpt lat="42.99738" lon="2.42253">
        <ele>756</ele>
        <time>2022-05-02T20:01:28Z</time>
      </trkpt>
      <trkpt lat="42.9975" lon="2.42272">
        <ele>757</ele>
        <time>2022-05-02T20:01:31Z</time>
      </trkpt>
      <trkpt lat="42.99762" lon="2.42302">
        <ele>755</ele>
        <time>2022-05-02T20:01:36Z</time>
      </trkpt>
      <trkpt lat="42.9978" lon="2.42355">
        <ele>757</ele>
        <time>2022-05-02T20:01:43Z</time>
      </trkpt>
      <trkpt lat="42.99791" lon="2.42378">
        <ele>758</ele>
        <time>2022-05-02T20:01:47Z</time>
      </trkpt>
      <trkpt lat="42.99805" lon="2.42399">
        <ele>758</ele>
        <time>2022-05-02T20:01:51Z</time>
      </trkpt>
      <trkpt lat="42.9982" lon="2.42414">
        <ele>758</ele>
        <time>2022-05-02T20:01:54Z</time>
      </trkpt>
      <trkpt lat="42.99835" lon="2.42422">
        <ele>758</ele>
        <time>2022-05-02T20:01:57Z</time>
      </trkpt>
      <trkpt lat="42.9985" lon="2.42428">
        <ele>758</ele>
        <time>2022-05-02T20:02:00Z</time>
      </trkpt>
      <trkpt lat="42.99884" lon="2.42428">
        <ele>755</ele>
        <time>2022-05-02T20:02:06Z</time>
      </trkpt>
      <trkpt lat="42.99951" lon="2.42414">
        <ele>745</ele>
        <time>2022-05-02T20:02:18Z</time>
      </trkpt>
      <trkpt lat="42.99966" lon="2.42415">
        <ele>745</ele>
        <time>2022-05-02T20:02:20Z</time>
      </trkpt>
      <trkpt lat="42.99999" lon="2.4243">
        <ele>749</ele>
        <time>2022-05-02T20:02:27Z</time>
      </trkpt>
      <trkpt lat="43.00042" lon="2.42444">
        <ele>746</ele>
        <time>2022-05-02T20:02:34Z</time>
      </trkpt>
      <trkpt lat="43.00058" lon="2.42453">
        <ele>746</ele>
        <time>2022-05-02T20:02:38Z</time>
      </trkpt>
      <trkpt lat="43.0008" lon="2.42459">
        <ele>744</ele>
        <time>2022-05-02T20:02:42Z</time>
      </trkpt>
      <trkpt lat="43.00122" lon="2.42469">
        <ele>741</ele>
        <time>2022-05-02T20:02:49Z</time>
      </trkpt>
      <trkpt lat="43.00157" lon="2.42471">
        <ele>737</ele>
        <time>2022-05-02T20:02:55Z</time>
      </trkpt>
      <trkpt lat="43.00163" lon="2.42473">
        <ele>736</ele>
        <time>2022-05-02T20:02:56Z</time>
      </trkpt>
      <trkpt lat="43.00185" lon="2.42494">
        <ele>742</ele>
        <time>2022-05-02T20:03:01Z</time>
      </trkpt>
      <trkpt lat="43.00193" lon="2.42497">
        <ele>742</ele>
        <time>2022-05-02T20:03:03Z</time>
      </trkpt>
      <trkpt lat="43.00199" lon="2.42496">
        <ele>742</ele>
        <time>2022-05-02T20:03:04Z</time>
      </trkpt>
      <trkpt lat="43.00249" lon="2.42462">
        <ele>732</ele>
        <time>2022-05-02T20:03:14Z</time>
      </trkpt>
      <trkpt lat="43.0027" lon="2.4245">
        <ele>726</ele>
        <time>2022-05-02T20:03:18Z</time>
      </trkpt>
      <trkpt lat="43.00277" lon="2.42449">
        <ele>726</ele>
        <time>2022-05-02T20:03:19Z</time>
      </trkpt>
      <trkpt lat="43.00284" lon="2.4245">
        <ele>725</ele>
        <time>2022-05-02T20:03:20Z</time>
      </trkpt>
      <trkpt lat="43.00285" lon="2.4245">
        <ele>725</ele>
        <time>2022-05-02T20:03:20Z</time>
      </trkpt>
      <trkpt lat="43.00289" lon="2.42454">
        <ele>726</ele>
        <time>2022-05-02T20:03:21Z</time>
      </trkpt>
      <trkpt lat="43.00303" lon="2.42475">
        <ele>730</ele>
        <time>2022-05-02T20:03:25Z</time>
      </trkpt>
      <trkpt lat="43.0031" lon="2.4248">
        <ele>731</ele>
        <time>2022-05-02T20:03:26Z</time>
      </trkpt>
      <trkpt lat="43.00319" lon="2.42484">
        <ele>731</ele>
        <time>2022-05-02T20:03:28Z</time>
      </trkpt>
      <trkpt lat="43.00427" lon="2.42491">
        <ele>722</ele>
        <time>2022-05-02T20:03:47Z</time>
      </trkpt>
      <trkpt lat="43.00453" lon="2.42486">
        <ele>719</ele>
        <time>2022-05-02T20:03:52Z</time>
      </trkpt>
      <trkpt lat="43.00465" lon="2.4248">
        <ele>718</ele>
        <time>2022-05-02T20:03:54Z</time>
      </trkpt>
      <trkpt lat="43.00475" lon="2.4247">
        <ele>718</ele>
        <time>2022-05-02T20:03:57Z</time>
      </trkpt>
      <trkpt lat="43.00483" lon="2.42456">
        <ele>717</ele>
        <time>2022-05-02T20:03:59Z</time>
      </trkpt>
      <trkpt lat="43.00486" lon="2.42449">
        <ele>718</ele>
        <time>2022-05-02T20:04:00Z</time>
      </trkpt>
      <trkpt lat="43.00486" lon="2.42443">
        <ele>718</ele>
        <time>2022-05-02T20:04:01Z</time>
      </trkpt>
      <trkpt lat="43.00486" lon="2.42439">
        <ele>718</ele>
        <time>2022-05-02T20:04:01Z</time>
      </trkpt>
      <trkpt lat="43.00459" lon="2.42339">
        <ele>710</ele>
        <time>2022-05-02T20:04:15Z</time>
      </trkpt>
      <trkpt lat="43.00454" lon="2.42312">
        <ele>706</ele>
        <time>2022-05-02T20:04:19Z</time>
      </trkpt>
      <trkpt lat="43.00453" lon="2.423">
        <ele>705</ele>
        <time>2022-05-02T20:04:20Z</time>
      </trkpt>
      <trkpt lat="43.00455" lon="2.42279">
        <ele>704</ele>
        <time>2022-05-02T20:04:23Z</time>
      </trkpt>
      <trkpt lat="43.00482" lon="2.42165">
        <ele>702</ele>
        <time>2022-05-02T20:04:39Z</time>
      </trkpt>
      <trkpt lat="43.00483" lon="2.42115">
        <ele>699</ele>
        <time>2022-05-02T20:04:45Z</time>
      </trkpt>
      <trkpt lat="43.00485" lon="2.42102">
        <ele>699</ele>
        <time>2022-05-02T20:04:47Z</time>
      </trkpt>
      <trkpt lat="43.00488" lon="2.4209">
        <ele>699</ele>
        <time>2022-05-02T20:04:48Z</time>
      </trkpt>
      <trkpt lat="43.00502" lon="2.42058">
        <ele>702</ele>
        <time>2022-05-02T20:04:53Z</time>
      </trkpt>
      <trkpt lat="43.00504" lon="2.42047">
        <ele>702</ele>
        <time>2022-05-02T20:04:55Z</time>
      </trkpt>
      <trkpt lat="43.00501" lon="2.42019">
        <ele>700</ele>
        <time>2022-05-02T20:04:58Z</time>
      </trkpt>
      <trkpt lat="43.00494" lon="2.41994">
        <ele>697</ele>
        <time>2022-05-02T20:05:02Z</time>
      </trkpt>
      <trkpt lat="43.00481" lon="2.41954">
        <ele>693</ele>
        <time>2022-05-02T20:05:08Z</time>
      </trkpt>
      <trkpt lat="43.00477" lon="2.41937">
        <ele>692</ele>
        <time>2022-05-02T20:05:10Z</time>
      </trkpt>
      <trkpt lat="43.00474" lon="2.41915">
        <ele>690</ele>
        <time>2022-05-02T20:05:13Z</time>
      </trkpt>
      <trkpt lat="43.00477" lon="2.41865">
        <ele>686</ele>
        <time>2022-05-02T20:05:19Z</time>
      </trkpt>
      <trkpt lat="43.00484" lon="2.41834">
        <ele>684</ele>
        <time>2022-05-02T20:05:24Z</time>
      </trkpt>
      <trkpt lat="43.00493" lon="2.41803">
        <ele>682</ele>
        <time>2022-05-02T20:05:28Z</time>
      </trkpt>
      <trkpt lat="43.0051" lon="2.41734">
        <ele>675</ele>
        <time>2022-05-02T20:05:37Z</time>
      </trkpt>
      <trkpt lat="43.00514" lon="2.41724">
        <ele>674</ele>
        <time>2022-05-02T20:05:39Z</time>
      </trkpt>
      <trkpt lat="43.00531" lon="2.41702">
        <ele>673</ele>
        <time>2022-05-02T20:05:43Z</time>
      </trkpt>
      <trkpt lat="43.00559" lon="2.41679">
        <ele>673</ele>
        <time>2022-05-02T20:05:49Z</time>
      </trkpt>
      <trkpt lat="43.00573" lon="2.41672">
        <ele>673</ele>
        <time>2022-05-02T20:05:52Z</time>
      </trkpt>
      <trkpt lat="43.00593" lon="2.4167">
        <ele>675</ele>
        <time>2022-05-02T20:05:55Z</time>
      </trkpt>
      <trkpt lat="43.00629" lon="2.41684">
        <ele>682</ele>
        <time>2022-05-02T20:06:02Z</time>
      </trkpt>
      <trkpt lat="43.00641" lon="2.41684">
        <ele>684</ele>
        <time>2022-05-02T20:06:04Z</time>
      </trkpt>
      <trkpt lat="43.00649" lon="2.4168">
        <ele>684</ele>
        <time>2022-05-02T20:06:05Z</time>
      </trkpt>
      <trkpt lat="43.00656" lon="2.41672">
        <ele>683</ele>
        <time>2022-05-02T20:06:07Z</time>
      </trkpt>
      <trkpt lat="43.00663" lon="2.41654">
        <ele>681</ele>
        <time>2022-05-02T20:06:10Z</time>
      </trkpt>
      <trkpt lat="43.00669" lon="2.41632">
        <ele>679</ele>
        <time>2022-05-02T20:06:13Z</time>
      </trkpt>
      <trkpt lat="43.00672" lon="2.41609">
        <ele>677</ele>
        <time>2022-05-02T20:06:16Z</time>
      </trkpt>
      <trkpt lat="43.00671" lon="2.41594">
        <ele>674</ele>
        <time>2022-05-02T20:06:18Z</time>
      </trkpt>
      <trkpt lat="43.00668" lon="2.41568">
        <ele>669</ele>
        <time>2022-05-02T20:06:21Z</time>
      </trkpt>
      <trkpt lat="43.00668" lon="2.41559">
        <ele>668</ele>
        <time>2022-05-02T20:06:22Z</time>
      </trkpt>
      <trkpt lat="43.0067" lon="2.4155">
        <ele>668</ele>
        <time>2022-05-02T20:06:24Z</time>
      </trkpt>
      <trkpt lat="43.00685" lon="2.41524">
        <ele>670</ele>
        <time>2022-05-02T20:06:28Z</time>
      </trkpt>
      <trkpt lat="43.0069" lon="2.41514">
        <ele>670</ele>
        <time>2022-05-02T20:06:29Z</time>
      </trkpt>
      <trkpt lat="43.00693" lon="2.41462">
        <ele>665</ele>
        <time>2022-05-02T20:06:36Z</time>
      </trkpt>
      <trkpt lat="43.00698" lon="2.41444">
        <ele>665</ele>
        <time>2022-05-02T20:06:39Z</time>
      </trkpt>
      <trkpt lat="43.0071" lon="2.41415">
        <ele>665</ele>
        <time>2022-05-02T20:06:43Z</time>
      </trkpt>
      <trkpt lat="43.00736" lon="2.41362">
        <ele>662</ele>
        <time>2022-05-02T20:06:51Z</time>
      </trkpt>
      <trkpt lat="43.00761" lon="2.41321">
        <ele>659</ele>
        <time>2022-05-02T20:06:58Z</time>
      </trkpt>
      <trkpt lat="43.00768" lon="2.41311">
        <ele>658</ele>
        <time>2022-05-02T20:07:00Z</time>
      </trkpt>
      <trkpt lat="43.0078" lon="2.41296">
        <ele>657</ele>
        <time>2022-05-02T20:07:03Z</time>
      </trkpt>
      <trkpt lat="43.00792" lon="2.41284">
        <ele>657</ele>
        <time>2022-05-02T20:07:06Z</time>
      </trkpt>
      <trkpt lat="43.00889" lon="2.41215">
        <ele>653</ele>
        <time>2022-05-02T20:07:25Z</time>
      </trkpt>
      <trkpt lat="43.00907" lon="2.41197">
        <ele>652</ele>
        <time>2022-05-02T20:07:29Z</time>
      </trkpt>
      <trkpt lat="43.00932" lon="2.41158">
        <ele>648</ele>
        <time>2022-05-02T20:07:36Z</time>
      </trkpt>
      <trkpt lat="43.00947" lon="2.41138">
        <ele>648</ele>
        <time>2022-05-02T20:07:40Z</time>
      </trkpt>
      <trkpt lat="43.0096" lon="2.41128">
        <ele>648</ele>
        <time>2022-05-02T20:07:42Z</time>
      </trkpt>
      <trkpt lat="43.00978" lon="2.4112">
        <ele>650</ele>
        <time>2022-05-02T20:07:46Z</time>
      </trkpt>
      <trkpt lat="43.00986" lon="2.41114">
        <ele>650</ele>
        <time>2022-05-02T20:07:47Z</time>
      </trkpt>
      <trkpt lat="43.00991" lon="2.41104">
        <ele>651</ele>
        <time>2022-05-02T20:07:49Z</time>
      </trkpt>
      <trkpt lat="43.00993" lon="2.41095">
        <ele>650</ele>
        <time>2022-05-02T20:07:50Z</time>
      </trkpt>
      <trkpt lat="43.00992" lon="2.41075">
        <ele>649</ele>
        <time>2022-05-02T20:07:53Z</time>
      </trkpt>
      <trkpt lat="43.00984" lon="2.41011">
        <ele>644</ele>
        <time>2022-05-02T20:08:01Z</time>
      </trkpt>
      <trkpt lat="43.00984" lon="2.40993">
        <ele>643</ele>
        <time>2022-05-02T20:08:03Z</time>
      </trkpt>
      <trkpt lat="43.00988" lon="2.40975">
        <ele>642</ele>
        <time>2022-05-02T20:08:06Z</time>
      </trkpt>
      <trkpt lat="43.01" lon="2.40946">
        <ele>639</ele>
        <time>2022-05-02T20:08:10Z</time>
      </trkpt>
      <trkpt lat="43.01011" lon="2.40918">
        <ele>638</ele>
        <time>2022-05-02T20:08:14Z</time>
      </trkpt>
      <trkpt lat="43.01016" lon="2.40907">
        <ele>639</ele>
        <time>2022-05-02T20:08:16Z</time>
      </trkpt>
      <trkpt lat="43.01046" lon="2.40847">
        <ele>638</ele>
        <time>2022-05-02T20:08:26Z</time>
      </trkpt>
      <trkpt lat="43.01091" lon="2.40771">
        <ele>635</ele>
        <time>2022-05-02T20:08:38Z</time>
      </trkpt>
      <trkpt lat="43.01103" lon="2.40743">
        <ele>634</ele>
        <time>2022-05-02T20:08:42Z</time>
      </trkpt>
      <trkpt lat="43.0111" lon="2.40712">
        <ele>632</ele>
        <time>2022-05-02T20:08:47Z</time>
      </trkpt>
      <trkpt lat="43.0111" lon="2.40689">
        <ele>630</ele>
        <time>2022-05-02T20:08:50Z</time>
      </trkpt>
      <trkpt lat="43.01106" lon="2.40647">
        <ele>625</ele>
        <time>2022-05-02T20:08:55Z</time>
      </trkpt>
      <trkpt lat="43.01107" lon="2.40637">
        <ele>624</ele>
        <time>2022-05-02T20:08:57Z</time>
      </trkpt>
      <trkpt lat="43.01114" lon="2.40617">
        <ele>622</ele>
        <time>2022-05-02T20:08:59Z</time>
      </trkpt>
      <trkpt lat="43.01124" lon="2.40602">
        <ele>621</ele>
        <time>2022-05-02T20:09:02Z</time>
      </trkpt>
      <trkpt lat="43.01142" lon="2.40589">
        <ele>620</ele>
        <time>2022-05-02T20:09:06Z</time>
      </trkpt>
      <trkpt lat="43.01155" lon="2.40586">
        <ele>619</ele>
        <time>2022-05-02T20:09:08Z</time>
      </trkpt>
      <trkpt lat="43.01198" lon="2.40581">
        <ele>619</ele>
        <time>2022-05-02T20:09:16Z</time>
      </trkpt>
      <trkpt lat="43.01228" lon="2.4057">
        <ele>618</ele>
        <time>2022-05-02T20:09:21Z</time>
      </trkpt>
      <trkpt lat="43.01262" lon="2.40545">
        <ele>614</ele>
        <time>2022-05-02T20:09:28Z</time>
      </trkpt>
      <trkpt lat="43.0129" lon="2.40519">
        <ele>611</ele>
        <time>2022-05-02T20:09:34Z</time>
      </trkpt>
      <trkpt lat="43.01304" lon="2.40509">
        <ele>609</ele>
        <time>2022-05-02T20:09:37Z</time>
      </trkpt>
      <trkpt lat="43.01319" lon="2.40505">
        <ele>608</ele>
        <time>2022-05-02T20:09:40Z</time>
      </trkpt>
      <trkpt lat="43.0134" lon="2.40505">
        <ele>608</ele>
        <time>2022-05-02T20:09:43Z</time>
      </trkpt>
      <trkpt lat="43.01368" lon="2.40508">
        <ele>608</ele>
        <time>2022-05-02T20:09:48Z</time>
      </trkpt>
      <trkpt lat="43.01388" lon="2.40506">
        <ele>607</ele>
        <time>2022-05-02T20:09:52Z</time>
      </trkpt>
      <trkpt lat="43.01402" lon="2.40503">
        <ele>606</ele>
        <time>2022-05-02T20:09:54Z</time>
      </trkpt>
      <trkpt lat="43.01418" lon="2.40494">
        <ele>604</ele>
        <time>2022-05-02T20:09:58Z</time>
      </trkpt>
      <trkpt lat="43.01482" lon="2.40447">
        <ele>602</ele>
        <time>2022-05-02T20:10:10Z</time>
      </trkpt>
      <trkpt lat="43.01507" lon="2.40437">
        <ele>602</ele>
        <time>2022-05-02T20:10:15Z</time>
      </trkpt>
      <trkpt lat="43.0152" lon="2.40429">
        <ele>603</ele>
        <time>2022-05-02T20:10:18Z</time>
      </trkpt>
      <trkpt lat="43.01531" lon="2.40417">
        <ele>602</ele>
        <time>2022-05-02T20:10:20Z</time>
      </trkpt>
      <trkpt lat="43.01558" lon="2.40377">
        <ele>600</ele>
        <time>2022-05-02T20:10:27Z</time>
      </trkpt>
      <trkpt lat="43.01591" lon="2.40334">
        <ele>599</ele>
        <time>2022-05-02T20:10:35Z</time>
      </trkpt>
      <trkpt lat="43.01596" lon="2.40323">
        <ele>599</ele>
        <time>2022-05-02T20:10:37Z</time>
      </trkpt>
      <trkpt lat="43.01599" lon="2.40308">
        <ele>599</ele>
        <time>2022-05-02T20:10:39Z</time>
      </trkpt>
      <trkpt lat="43.01595" lon="2.40243">
        <ele>593</ele>
        <time>2022-05-02T20:10:48Z</time>
      </trkpt>
      <trkpt lat="43.01595" lon="2.40205">
        <ele>591</ele>
        <time>2022-05-02T20:10:52Z</time>
      </trkpt>
      <trkpt lat="43.01597" lon="2.40179">
        <ele>590</ele>
        <time>2022-05-02T20:10:56Z</time>
      </trkpt>
      <trkpt lat="43.01618" lon="2.40087">
        <ele>588</ele>
        <time>2022-05-02T20:11:08Z</time>
      </trkpt>
      <trkpt lat="43.01633" lon="2.40051">
        <ele>587</ele>
        <time>2022-05-02T20:11:14Z</time>
      </trkpt>
      <trkpt lat="43.01652" lon="2.40016">
        <ele>586</ele>
        <time>2022-05-02T20:11:19Z</time>
      </trkpt>
      <trkpt lat="43.01665" lon="2.39995">
        <ele>585</ele>
        <time>2022-05-02T20:11:23Z</time>
      </trkpt>
      <trkpt lat="43.01706" lon="2.39921">
        <ele>584</ele>
        <time>2022-05-02T20:11:35Z</time>
      </trkpt>
      <trkpt lat="43.01754" lon="2.39841">
        <ele>580</ele>
        <time>2022-05-02T20:11:49Z</time>
      </trkpt>
      <trkpt lat="43.01784" lon="2.39783">
        <ele>581</ele>
        <time>2022-05-02T20:11:58Z</time>
      </trkpt>
      <trkpt lat="43.01849" lon="2.39672">
        <ele>570</ele>
        <time>2022-05-02T20:12:16Z</time>
      </trkpt>
      <trkpt lat="43.01859" lon="2.39648">
        <ele>570</ele>
        <time>2022-05-02T20:12:20Z</time>
      </trkpt>
      <trkpt lat="43.01862" lon="2.39637">
        <ele>570</ele>
        <time>2022-05-02T20:12:21Z</time>
      </trkpt>
      <trkpt lat="43.01862" lon="2.39618">
        <ele>569</ele>
        <time>2022-05-02T20:12:24Z</time>
      </trkpt>
      <trkpt lat="43.01854" lon="2.39573">
        <ele>567</ele>
        <time>2022-05-02T20:12:30Z</time>
      </trkpt>
      <trkpt lat="43.01852" lon="2.39548">
        <ele>565</ele>
        <time>2022-05-02T20:12:33Z</time>
      </trkpt>
      <trkpt lat="43.01854" lon="2.3951">
        <ele>563</ele>
        <time>2022-05-02T20:12:38Z</time>
      </trkpt>
      <trkpt lat="43.01857" lon="2.3949">
        <ele>562</ele>
        <time>2022-05-02T20:12:41Z</time>
      </trkpt>
      <trkpt lat="43.01865" lon="2.39457">
        <ele>561</ele>
        <time>2022-05-02T20:12:45Z</time>
      </trkpt>
      <trkpt lat="43.01879" lon="2.3942">
        <ele>559</ele>
        <time>2022-05-02T20:12:51Z</time>
      </trkpt>
      <trkpt lat="43.0189" lon="2.39395">
        <ele>558</ele>
        <time>2022-05-02T20:12:55Z</time>
      </trkpt>
      <trkpt lat="43.01909" lon="2.39364">
        <ele>556</ele>
        <time>2022-05-02T20:13:00Z</time>
      </trkpt>
      <trkpt lat="43.01916" lon="2.39359">
        <ele>555</ele>
        <time>2022-05-02T20:13:01Z</time>
      </trkpt>
      <trkpt lat="43.0195" lon="2.3931">
        <ele>555</ele>
        <time>2022-05-02T20:13:10Z</time>
      </trkpt>
      <trkpt lat="43.01961" lon="2.39287">
        <ele>554</ele>
        <time>2022-05-02T20:13:14Z</time>
      </trkpt>
      <trkpt lat="43.01965" lon="2.39276">
        <ele>553</ele>
        <time>2022-05-02T20:13:15Z</time>
      </trkpt>
      <trkpt lat="43.0197" lon="2.39262">
        <ele>552</ele>
        <time>2022-05-02T20:13:17Z</time>
      </trkpt>
      <trkpt lat="43.01973" lon="2.39255">
        <ele>551</ele>
        <time>2022-05-02T20:13:18Z</time>
      </trkpt>
      <trkpt lat="43.01975" lon="2.39249">
        <ele>550</ele>
        <time>2022-05-02T20:13:19Z</time>
      </trkpt>
      <trkpt lat="43.01995" lon="2.39187">
        <ele>547</ele>
        <time>2022-05-02T20:13:28Z</time>
      </trkpt>
      <trkpt lat="43.01999" lon="2.3918">
        <ele>547</ele>
        <time>2022-05-02T20:13:29Z</time>
      </trkpt>
      <trkpt lat="43.02007" lon="2.39182">
        <ele>546</ele>
        <time>2022-05-02T20:13:31Z</time>
      </trkpt>
      <trkpt lat="43.02009" lon="2.39189">
        <ele>546</ele>
        <time>2022-05-02T20:13:32Z</time>
      </trkpt>
      <trkpt lat="43.02023" lon="2.3921">
        <ele>546</ele>
        <time>2022-05-02T20:13:35Z</time>
      </trkpt>
      <trkpt lat="43.02009" lon="2.39189">
        <ele>546</ele>
        <time>2022-05-02T20:13:39Z</time>
      </trkpt>
      <trkpt lat="43.02007" lon="2.39182">
        <ele>546</ele>
        <time>2022-05-02T20:13:40Z</time>
      </trkpt>
      <trkpt lat="43.02024" lon="2.39182">
        <ele>545</ele>
        <time>2022-05-02T20:13:43Z</time>
      </trkpt>
      <trkpt lat="43.02039" lon="2.39188">
        <ele>544</ele>
        <time>2022-05-02T20:13:46Z</time>
      </trkpt>
      <trkpt lat="43.02046" lon="2.39196">
        <ele>545</ele>
        <time>2022-05-02T20:13:47Z</time>
      </trkpt>
      <trkpt lat="43.02051" lon="2.39207">
        <ele>545</ele>
        <time>2022-05-02T20:13:49Z</time>
      </trkpt>
      <trkpt lat="43.02053" lon="2.3921">
        <ele>545</ele>
        <time>2022-05-02T20:13:50Z</time>
      </trkpt>
      <trkpt lat="43.02065" lon="2.39304">
        <ele>554</ele>
        <time>2022-05-02T20:14:02Z</time>
      </trkpt>
      <trkpt lat="43.02069" lon="2.39316">
        <ele>556</ele>
        <time>2022-05-02T20:14:04Z</time>
      </trkpt>
      <trkpt lat="43.02075" lon="2.39325">
        <ele>556</ele>
        <time>2022-05-02T20:14:05Z</time>
      </trkpt>
      <trkpt lat="43.02092" lon="2.39332">
        <ele>556</ele>
        <time>2022-05-02T20:14:08Z</time>
      </trkpt>
      <trkpt lat="43.02112" lon="2.39334">
        <ele>556</ele>
        <time>2022-05-02T20:14:12Z</time>
      </trkpt>
      <trkpt lat="43.02118" lon="2.39338">
        <ele>556</ele>
        <time>2022-05-02T20:14:13Z</time>
      </trkpt>
      <trkpt lat="43.02156" lon="2.39396">
        <ele>561</ele>
        <time>2022-05-02T20:14:23Z</time>
      </trkpt>
      <trkpt lat="43.02162" lon="2.39417">
        <ele>563</ele>
        <time>2022-05-02T20:14:26Z</time>
      </trkpt>
      <trkpt lat="43.02171" lon="2.39537">
        <ele>578</ele>
        <time>2022-05-02T20:14:42Z</time>
      </trkpt>
      <trkpt lat="43.02176" lon="2.39559">
        <ele>581</ele>
        <time>2022-05-02T20:14:45Z</time>
      </trkpt>
      <trkpt lat="43.02209" lon="2.39666">
        <ele>594</ele>
        <time>2022-05-02T20:15:00Z</time>
      </trkpt>
      <trkpt lat="43.02236" lon="2.39736">
        <ele>598</ele>
        <time>2022-05-02T20:15:10Z</time>
      </trkpt>
      <trkpt lat="43.0225" lon="2.39767">
        <ele>599</ele>
        <time>2022-05-02T20:15:15Z</time>
      </trkpt>
      <trkpt lat="43.02253" lon="2.39771">
        <ele>601</ele>
        <time>2022-05-02T20:15:16Z</time>
      </trkpt>
      <trkpt lat="43.0226" lon="2.39775">
        <ele>603</ele>
        <time>2022-05-02T20:15:17Z</time>
      </trkpt>
      <trkpt lat="43.02267" lon="2.39774">
        <ele>604</ele>
        <time>2022-05-02T20:15:18Z</time>
      </trkpt>
      <trkpt lat="43.02274" lon="2.3977">
        <ele>605</ele>
        <time>2022-05-02T20:15:20Z</time>
      </trkpt>
      <trkpt lat="43.02279" lon="2.39761">
        <ele>605</ele>
        <time>2022-05-02T20:15:21Z</time>
      </trkpt>
      <trkpt lat="43.02286" lon="2.39726">
        <ele>605</ele>
        <time>2022-05-02T20:15:26Z</time>
      </trkpt>
      <trkpt lat="43.02291" lon="2.39717">
        <ele>606</ele>
        <time>2022-05-02T20:15:27Z</time>
      </trkpt>
      <trkpt lat="43.023" lon="2.39716">
        <ele>608</ele>
        <time>2022-05-02T20:15:29Z</time>
      </trkpt>
      <trkpt lat="43.02309" lon="2.39725">
        <ele>610</ele>
        <time>2022-05-02T20:15:31Z</time>
      </trkpt>
      <trkpt lat="43.02311" lon="2.39736">
        <ele>611</ele>
        <time>2022-05-02T20:15:32Z</time>
      </trkpt>
      <trkpt lat="43.0231" lon="2.39754">
        <ele>611</ele>
        <time>2022-05-02T20:15:35Z</time>
      </trkpt>
      <trkpt lat="43.02289" lon="2.39882">
        <ele>616</ele>
        <time>2022-05-02T20:15:52Z</time>
      </trkpt>
      <trkpt lat="43.0229" lon="2.39932">
        <ele>615</ele>
        <time>2022-05-02T20:15:58Z</time>
      </trkpt>
      <trkpt lat="43.02295" lon="2.39948">
        <ele>613</ele>
        <time>2022-05-02T20:16:01Z</time>
      </trkpt>
      <trkpt lat="43.023" lon="2.39958">
        <ele>612</ele>
        <time>2022-05-02T20:16:02Z</time>
      </trkpt>
      <trkpt lat="43.02329" lon="2.39977">
        <ele>609</ele>
        <time>2022-05-02T20:16:08Z</time>
      </trkpt>
      <trkpt lat="43.0234" lon="2.39989">
        <ele>608</ele>
        <time>2022-05-02T20:16:10Z</time>
      </trkpt>
      <trkpt lat="43.02352" lon="2.40008">
        <ele>605</ele>
        <time>2022-05-02T20:16:14Z</time>
      </trkpt>
      <trkpt lat="43.02378" lon="2.40064">
        <ele>596</ele>
        <time>2022-05-02T20:16:22Z</time>
      </trkpt>
      <trkpt lat="43.02395" lon="2.40094">
        <ele>594</ele>
        <time>2022-05-02T20:16:27Z</time>
      </trkpt>
      <trkpt lat="43.02399" lon="2.40109">
        <ele>594</ele>
        <time>2022-05-02T20:16:29Z</time>
      </trkpt>
      <trkpt lat="43.02399" lon="2.40124">
        <ele>592</ele>
        <time>2022-05-02T20:16:31Z</time>
      </trkpt>
      <trkpt lat="43.02393" lon="2.40159">
        <ele>587</ele>
        <time>2022-05-02T20:16:36Z</time>
      </trkpt>
      <trkpt lat="43.02395" lon="2.40208">
        <ele>583</ele>
        <time>2022-05-02T20:16:42Z</time>
      </trkpt>
      <trkpt lat="43.02398" lon="2.4022">
        <ele>583</ele>
        <time>2022-05-02T20:16:44Z</time>
      </trkpt>
      <trkpt lat="43.02418" lon="2.40268">
        <ele>582</ele>
        <time>2022-05-02T20:16:51Z</time>
      </trkpt>
      <trkpt lat="43.02429" lon="2.40329">
        <ele>576</ele>
        <time>2022-05-02T20:16:59Z</time>
      </trkpt>
      <trkpt lat="43.02432" lon="2.40337">
        <ele>575</ele>
        <time>2022-05-02T20:17:01Z</time>
      </trkpt>
      <trkpt lat="43.02436" lon="2.40342">
        <ele>576</ele>
        <time>2022-05-02T20:17:02Z</time>
      </trkpt>
      <trkpt lat="43.02453" lon="2.40351">
        <ele>580</ele>
        <time>2022-05-02T20:17:05Z</time>
      </trkpt>
      <trkpt lat="43.0246" lon="2.4036">
        <ele>581</ele>
        <time>2022-05-02T20:17:06Z</time>
      </trkpt>
      <trkpt lat="43.02474" lon="2.40386">
        <ele>581</ele>
        <time>2022-05-02T20:17:11Z</time>
      </trkpt>
      <trkpt lat="43.02483" lon="2.40419">
        <ele>580</ele>
        <time>2022-05-02T20:17:15Z</time>
      </trkpt>
      <trkpt lat="43.02486" lon="2.40457">
        <ele>578</ele>
        <time>2022-05-02T20:17:20Z</time>
      </trkpt>
      <trkpt lat="43.02484" lon="2.40514">
        <ele>573</ele>
        <time>2022-05-02T20:17:28Z</time>
      </trkpt>
      <trkpt lat="43.02492" lon="2.40561">
        <ele>572</ele>
        <time>2022-05-02T20:17:34Z</time>
      </trkpt>
      <trkpt lat="43.02506" lon="2.40604">
        <ele>572</ele>
        <time>2022-05-02T20:17:40Z</time>
      </trkpt>
      <trkpt lat="43.02534" lon="2.40678">
        <ele>573</ele>
        <time>2022-05-02T20:17:51Z</time>
      </trkpt>
      <trkpt lat="43.02549" lon="2.40703">
        <ele>575</ele>
        <time>2022-05-02T20:17:55Z</time>
      </trkpt>
      <trkpt lat="43.02554" lon="2.40719">
        <ele>575</ele>
        <time>2022-05-02T20:17:57Z</time>
      </trkpt>
      <trkpt lat="43.02559" lon="2.40761">
        <ele>569</ele>
        <time>2022-05-02T20:18:03Z</time>
      </trkpt>
      <trkpt lat="43.02583" lon="2.40855">
        <ele>560</ele>
        <time>2022-05-02T20:18:16Z</time>
      </trkpt>
      <trkpt lat="43.02596" lon="2.40864">
        <ele>556</ele>
        <time>2022-05-02T20:18:18Z</time>
      </trkpt>
      <trkpt lat="43.02603" lon="2.40863">
        <ele>554</ele>
        <time>2022-05-02T20:18:20Z</time>
      </trkpt>
      <trkpt lat="43.02611" lon="2.40857">
        <ele>555</ele>
        <time>2022-05-02T20:18:21Z</time>
      </trkpt>
      <trkpt lat="43.02638" lon="2.40814">
        <ele>563</ele>
        <time>2022-05-02T20:18:29Z</time>
      </trkpt>
      <trkpt lat="43.02652" lon="2.40798">
        <ele>567</ele>
        <time>2022-05-02T20:18:32Z</time>
      </trkpt>
      <trkpt lat="43.02664" lon="2.40793">
        <ele>568</ele>
        <time>2022-05-02T20:18:34Z</time>
      </trkpt>
      <trkpt lat="43.02675" lon="2.40798">
        <ele>565</ele>
        <time>2022-05-02T20:18:36Z</time>
      </trkpt>
      <trkpt lat="43.02702" lon="2.40833">
        <ele>551</ele>
        <time>2022-05-02T20:18:43Z</time>
      </trkpt>
      <trkpt lat="43.02716" lon="2.40838">
        <ele>547</ele>
        <time>2022-05-02T20:18:45Z</time>
      </trkpt>
      <trkpt lat="43.02734" lon="2.40838">
        <ele>546</ele>
        <time>2022-05-02T20:18:49Z</time>
      </trkpt>
      <trkpt lat="43.02767" lon="2.4083">
        <ele>548</ele>
        <time>2022-05-02T20:18:55Z</time>
      </trkpt>
      <trkpt lat="43.02784" lon="2.40819">
        <ele>552</ele>
        <time>2022-05-02T20:18:58Z</time>
      </trkpt>
      <trkpt lat="43.02801" lon="2.408">
        <ele>559</ele>
        <time>2022-05-02T20:19:02Z</time>
      </trkpt>
      <trkpt lat="43.02817" lon="2.40797">
        <ele>560</ele>
        <time>2022-05-02T20:19:05Z</time>
      </trkpt>
      <trkpt lat="43.0283" lon="2.40803">
        <ele>557</ele>
        <time>2022-05-02T20:19:07Z</time>
      </trkpt>
      <trkpt lat="43.02841" lon="2.40816">
        <ele>550</ele>
        <time>2022-05-02T20:19:10Z</time>
      </trkpt>
      <trkpt lat="43.02858" lon="2.40847">
        <ele>535</ele>
        <time>2022-05-02T20:19:15Z</time>
      </trkpt>
      <trkpt lat="43.02866" lon="2.40856">
        <ele>531</ele>
        <time>2022-05-02T20:19:17Z</time>
      </trkpt>
      <trkpt lat="43.02876" lon="2.40863">
        <ele>527</ele>
        <time>2022-05-02T20:19:19Z</time>
      </trkpt>
      <trkpt lat="43.02888" lon="2.40861">
        <ele>528</ele>
        <time>2022-05-02T20:19:21Z</time>
      </trkpt>
      <trkpt lat="43.02912" lon="2.40822">
        <ele>538</ele>
        <time>2022-05-02T20:19:27Z</time>
      </trkpt>
      <trkpt lat="43.02934" lon="2.40759">
        <ele>548</ele>
        <time>2022-05-02T20:19:36Z</time>
      </trkpt>
      <trkpt lat="43.02938" lon="2.4073">
        <ele>555</ele>
        <time>2022-05-02T20:19:40Z</time>
      </trkpt>
      <trkpt lat="43.02943" lon="2.40713">
        <ele>559</ele>
        <time>2022-05-02T20:19:43Z</time>
      </trkpt>
      <trkpt lat="43.02951" lon="2.40704">
        <ele>559</ele>
        <time>2022-05-02T20:19:45Z</time>
      </trkpt>
      <trkpt lat="43.02961" lon="2.40706">
        <ele>556</ele>
        <time>2022-05-02T20:19:46Z</time>
      </trkpt>
      <trkpt lat="43.02973" lon="2.4072">
        <ele>549</ele>
        <time>2022-05-02T20:19:49Z</time>
      </trkpt>
      <trkpt lat="43.03031" lon="2.40801">
        <ele>523</ele>
        <time>2022-05-02T20:20:04Z</time>
      </trkpt>
      <trkpt lat="43.03045" lon="2.40809">
        <ele>522</ele>
        <time>2022-05-02T20:20:07Z</time>
      </trkpt>
      <trkpt lat="43.03056" lon="2.40822">
        <ele>521</ele>
        <time>2022-05-02T20:20:09Z</time>
      </trkpt>
      <trkpt lat="43.03059" lon="2.40836">
        <ele>519</ele>
        <time>2022-05-02T20:20:11Z</time>
      </trkpt>
      <trkpt lat="43.03051" lon="2.40841">
        <ele>518</ele>
        <time>2022-05-02T20:20:13Z</time>
      </trkpt>
      <trkpt lat="43.03038" lon="2.4084">
        <ele>518</ele>
        <time>2022-05-02T20:20:15Z</time>
      </trkpt>
      <trkpt lat="43.03033" lon="2.40836">
        <ele>518</ele>
        <time>2022-05-02T20:20:16Z</time>
      </trkpt>
      <trkpt lat="43.03014" lon="2.40795">
        <ele>524</ele>
        <time>2022-05-02T20:20:22Z</time>
      </trkpt>
      <trkpt lat="43.03002" lon="2.40781">
        <ele>527</ele>
        <time>2022-05-02T20:20:25Z</time>
      </trkpt>
      <trkpt lat="43.0297" lon="2.40737">
        <ele>545</ele>
        <time>2022-05-02T20:20:33Z</time>
      </trkpt>
      <trkpt lat="43.0296" lon="2.40731">
        <ele>549</ele>
        <time>2022-05-02T20:20:35Z</time>
      </trkpt>
      <trkpt lat="43.02955" lon="2.40734">
        <ele>550</ele>
        <time>2022-05-02T20:20:36Z</time>
      </trkpt>
      <trkpt lat="43.0295" lon="2.40741">
        <ele>549</ele>
        <time>2022-05-02T20:20:37Z</time>
      </trkpt>
      <trkpt lat="43.02943" lon="2.40792">
        <ele>538</ele>
        <time>2022-05-02T20:20:44Z</time>
      </trkpt>
      <trkpt lat="43.02916" lon="2.40879">
        <ele>521</ele>
        <time>2022-05-02T20:20:56Z</time>
      </trkpt>
      <trkpt lat="43.02908" lon="2.409">
        <ele>515</ele>
        <time>2022-05-02T20:21:00Z</time>
      </trkpt>
      <trkpt lat="43.02898" lon="2.40919">
        <ele>508</ele>
        <time>2022-05-02T20:21:03Z</time>
      </trkpt>
      <trkpt lat="43.0289" lon="2.40925">
        <ele>506</ele>
        <time>2022-05-02T20:21:04Z</time>
      </trkpt>
      <trkpt lat="43.02883" lon="2.40925">
        <ele>505</ele>
        <time>2022-05-02T20:21:05Z</time>
      </trkpt>
      <trkpt lat="43.02874" lon="2.40922">
        <ele>505</ele>
        <time>2022-05-02T20:21:07Z</time>
      </trkpt>
      <trkpt lat="43.02855" lon="2.40906">
        <ele>509</ele>
        <time>2022-05-02T20:21:11Z</time>
      </trkpt>
      <trkpt lat="43.02828" lon="2.40874">
        <ele>524</ele>
        <time>2022-05-02T20:21:17Z</time>
      </trkpt>
      <trkpt lat="43.02821" lon="2.4087">
        <ele>526</ele>
        <time>2022-05-02T20:21:19Z</time>
      </trkpt>
      <trkpt lat="43.02815" lon="2.4087">
        <ele>526</ele>
        <time>2022-05-02T20:21:20Z</time>
      </trkpt>
      <trkpt lat="43.02805" lon="2.40881">
        <ele>521</ele>
        <time>2022-05-02T20:21:22Z</time>
      </trkpt>
      <trkpt lat="43.02793" lon="2.40889">
        <ele>518</ele>
        <time>2022-05-02T20:21:24Z</time>
      </trkpt>
      <trkpt lat="43.02744" lon="2.40907">
        <ele>512</ele>
        <time>2022-05-02T20:21:33Z</time>
      </trkpt>
      <trkpt lat="43.0271" lon="2.40931">
        <ele>509</ele>
        <time>2022-05-02T20:21:40Z</time>
      </trkpt>
      <trkpt lat="43.02698" lon="2.40933">
        <ele>510</ele>
        <time>2022-05-02T20:21:42Z</time>
      </trkpt>
      <trkpt lat="43.0268" lon="2.40928">
        <ele>514</ele>
        <time>2022-05-02T20:21:46Z</time>
      </trkpt>
      <trkpt lat="43.02669" lon="2.40928">
        <ele>516</ele>
        <time>2022-05-02T20:21:48Z</time>
      </trkpt>
      <trkpt lat="43.0265" lon="2.40935">
        <ele>519</ele>
        <time>2022-05-02T20:21:51Z</time>
      </trkpt>
      <trkpt lat="43.02639" lon="2.40944">
        <ele>520</ele>
        <time>2022-05-02T20:21:53Z</time>
      </trkpt>
      <trkpt lat="43.02627" lon="2.40958">
        <ele>519</ele>
        <time>2022-05-02T20:21:56Z</time>
      </trkpt>
      <trkpt lat="43.02616" lon="2.40981">
        <ele>515</ele>
        <time>2022-05-02T20:22:00Z</time>
      </trkpt>
      <trkpt lat="43.02607" lon="2.41007">
        <ele>512</ele>
        <time>2022-05-02T20:22:04Z</time>
      </trkpt>
      <trkpt lat="43.02602" lon="2.41046">
        <ele>510</ele>
        <time>2022-05-02T20:22:09Z</time>
      </trkpt>
      <trkpt lat="43.02601" lon="2.41057">
        <ele>510</ele>
        <time>2022-05-02T20:22:10Z</time>
      </trkpt>
      <trkpt lat="43.02608" lon="2.4107">
        <ele>508</ele>
        <time>2022-05-02T20:22:12Z</time>
      </trkpt>
      <trkpt lat="43.02629" lon="2.41078">
        <ele>504</ele>
        <time>2022-05-02T20:22:16Z</time>
      </trkpt>
      <trkpt lat="43.02642" lon="2.41076">
        <ele>502</ele>
        <time>2022-05-02T20:22:18Z</time>
      </trkpt>
      <trkpt lat="43.02662" lon="2.41067">
        <ele>499</ele>
        <time>2022-05-02T20:22:22Z</time>
      </trkpt>
      <trkpt lat="43.02702" lon="2.41029">
        <ele>494</ele>
        <time>2022-05-02T20:22:31Z</time>
      </trkpt>
      <trkpt lat="43.02735" lon="2.41015">
        <ele>490</ele>
        <time>2022-05-02T20:22:37Z</time>
      </trkpt>
      <trkpt lat="43.02754" lon="2.41009">
        <ele>487</ele>
        <time>2022-05-02T20:22:41Z</time>
      </trkpt>
      <trkpt lat="43.02771" lon="2.41008">
        <ele>485</ele>
        <time>2022-05-02T20:22:44Z</time>
      </trkpt>
      <trkpt lat="43.02784" lon="2.4101">
        <ele>484</ele>
        <time>2022-05-02T20:22:46Z</time>
      </trkpt>
      <trkpt lat="43.02795" lon="2.41016">
        <ele>484</ele>
        <time>2022-05-02T20:22:48Z</time>
      </trkpt>
      <trkpt lat="43.02806" lon="2.41024">
        <ele>483</ele>
        <time>2022-05-02T20:22:50Z</time>
      </trkpt>
      <trkpt lat="43.02849" lon="2.41075">
        <ele>479</ele>
        <time>2022-05-02T20:23:00Z</time>
      </trkpt>
      <trkpt lat="43.02883" lon="2.41123">
        <ele>476</ele>
        <time>2022-05-02T20:23:09Z</time>
      </trkpt>
      <trkpt lat="43.0291" lon="2.41169">
        <ele>466</ele>
        <time>2022-05-02T20:23:17Z</time>
      </trkpt>
      <trkpt lat="43.02927" lon="2.41224">
        <ele>467</ele>
        <time>2022-05-02T20:23:24Z</time>
      </trkpt>
      <trkpt lat="43.02945" lon="2.41293">
        <ele>467</ele>
        <time>2022-05-02T20:23:34Z</time>
      </trkpt>
      <trkpt lat="43.02958" lon="2.41335">
        <ele>464</ele>
        <time>2022-05-02T20:23:40Z</time>
      </trkpt>
      <trkpt lat="43.02986" lon="2.41406">
        <ele>454</ele>
        <time>2022-05-02T20:23:50Z</time>
      </trkpt>
      <trkpt lat="43.03023" lon="2.41536">
        <ele>439</ele>
        <time>2022-05-02T20:24:09Z</time>
      </trkpt>
      <trkpt lat="43.03031" lon="2.41558">
        <ele>435</ele>
        <time>2022-05-02T20:24:12Z</time>
      </trkpt>
      <trkpt lat="43.03049" lon="2.41559">
        <ele>433</ele>
        <time>2022-05-02T20:24:15Z</time>
      </trkpt>
      <trkpt lat="43.03075" lon="2.4156">
        <ele>431</ele>
        <time>2022-05-02T20:24:20Z</time>
      </trkpt>
      <trkpt lat="43.03089" lon="2.41552">
        <ele>431</ele>
        <time>2022-05-02T20:24:22Z</time>
      </trkpt>
      <trkpt lat="43.03108" lon="2.41536">
        <ele>433</ele>
        <time>2022-05-02T20:24:26Z</time>
      </trkpt>
      <trkpt lat="43.03216" lon="2.41487">
        <ele>438</ele>
        <time>2022-05-02T20:24:46Z</time>
      </trkpt>
      <trkpt lat="43.03321" lon="2.41462">
        <ele>439</ele>
        <time>2022-05-02T20:25:05Z</time>
      </trkpt>
      <trkpt lat="43.03341" lon="2.41459">
        <ele>438</ele>
        <time>2022-05-02T20:25:09Z</time>
      </trkpt>
      <trkpt lat="43.03358" lon="2.41461">
        <ele>437</ele>
        <time>2022-05-02T20:25:12Z</time>
      </trkpt>
      <trkpt lat="43.03371" lon="2.41465">
        <ele>436</ele>
        <time>2022-05-02T20:25:14Z</time>
      </trkpt>
      <trkpt lat="43.0343" lon="2.41497">
        <ele>423</ele>
        <time>2022-05-02T20:25:26Z</time>
      </trkpt>
      <trkpt lat="43.0344" lon="2.415">
        <ele>422</ele>
        <time>2022-05-02T20:25:28Z</time>
      </trkpt>
      <trkpt lat="43.03492" lon="2.41502">
        <ele>422</ele>
        <time>2022-05-02T20:25:37Z</time>
      </trkpt>
      <trkpt lat="43.0351" lon="2.41507">
        <ele>422</ele>
        <time>2022-05-02T20:25:40Z</time>
      </trkpt>
      <trkpt lat="43.03552" lon="2.41523">
        <ele>422</ele>
        <time>2022-05-02T20:25:48Z</time>
      </trkpt>
      <trkpt lat="43.03564" lon="2.41529">
        <ele>421</ele>
        <time>2022-05-02T20:25:50Z</time>
      </trkpt>
      <trkpt lat="43.0357" lon="2.41534">
        <ele>420</ele>
        <time>2022-05-02T20:25:51Z</time>
      </trkpt>
      <trkpt lat="43.03589" lon="2.41561">
        <ele>416</ele>
        <time>2022-05-02T20:25:56Z</time>
      </trkpt>
      <trkpt lat="43.03595" lon="2.41567">
        <ele>415</ele>
        <time>2022-05-02T20:25:58Z</time>
      </trkpt>
      <trkpt lat="43.03607" lon="2.41569">
        <ele>414</ele>
        <time>2022-05-02T20:26:00Z</time>
      </trkpt>
      <trkpt lat="43.03641" lon="2.41566">
        <ele>414</ele>
        <time>2022-05-02T20:26:06Z</time>
      </trkpt>
      <trkpt lat="43.03669" lon="2.41567">
        <ele>414</ele>
        <time>2022-05-02T20:26:11Z</time>
      </trkpt>
      <trkpt lat="43.03685" lon="2.41574">
        <ele>416</ele>
        <time>2022-05-02T20:26:14Z</time>
      </trkpt>
      <trkpt lat="43.03702" lon="2.41588">
        <ele>417</ele>
        <time>2022-05-02T20:26:17Z</time>
      </trkpt>
      <trkpt lat="43.03713" lon="2.41602">
        <ele>418</ele>
        <time>2022-05-02T20:26:20Z</time>
      </trkpt>
      <trkpt lat="43.03723" lon="2.41641">
        <ele>415</ele>
        <time>2022-05-02T20:26:25Z</time>
      </trkpt>
      <trkpt lat="43.03725" lon="2.41659">
        <ele>414</ele>
        <time>2022-05-02T20:26:28Z</time>
      </trkpt>
      <trkpt lat="43.03725" lon="2.41669">
        <ele>412</ele>
        <time>2022-05-02T20:26:29Z</time>
      </trkpt>
      <trkpt lat="43.03724" lon="2.41683">
        <ele>412</ele>
        <time>2022-05-02T20:26:31Z</time>
      </trkpt>
      <trkpt lat="43.03713" lon="2.41736">
        <ele>409</ele>
        <time>2022-05-02T20:26:38Z</time>
      </trkpt>
      <trkpt lat="43.037" lon="2.41775">
        <ele>408</ele>
        <time>2022-05-02T20:26:44Z</time>
      </trkpt>
      <trkpt lat="43.03698" lon="2.41785">
        <ele>407</ele>
        <time>2022-05-02T20:26:45Z</time>
      </trkpt>
      <trkpt lat="43.03699" lon="2.41798">
        <ele>407</ele>
        <time>2022-05-02T20:26:47Z</time>
      </trkpt>
      <trkpt lat="43.03711" lon="2.41859">
        <ele>403</ele>
        <time>2022-05-02T20:26:55Z</time>
      </trkpt>
      <trkpt lat="43.03715" lon="2.41872">
        <ele>402</ele>
        <time>2022-05-02T20:26:57Z</time>
      </trkpt>
      <trkpt lat="43.0372" lon="2.41879">
        <ele>401</ele>
        <time>2022-05-02T20:26:58Z</time>
      </trkpt>
      <trkpt lat="43.03726" lon="2.41884">
        <ele>400</ele>
        <time>2022-05-02T20:26:59Z</time>
      </trkpt>
      <trkpt lat="43.03732" lon="2.41888">
        <ele>399</ele>
        <time>2022-05-02T20:27:00Z</time>
      </trkpt>
      <trkpt lat="43.038" lon="2.41883">
        <ele>394</ele>
        <time>2022-05-02T20:27:12Z</time>
      </trkpt>
      <trkpt lat="43.03807" lon="2.41879">
        <ele>394</ele>
        <time>2022-05-02T20:27:14Z</time>
      </trkpt>
      <trkpt lat="43.03814" lon="2.41866">
        <ele>394</ele>
        <time>2022-05-02T20:27:16Z</time>
      </trkpt>
      <trkpt lat="43.03817" lon="2.41857">
        <ele>394</ele>
        <time>2022-05-02T20:27:17Z</time>
      </trkpt>
      <trkpt lat="43.03819" lon="2.41827">
        <ele>395</ele>
        <time>2022-05-02T20:27:21Z</time>
      </trkpt>
      <trkpt lat="43.03825" lon="2.41804">
        <ele>398</ele>
        <time>2022-05-02T20:27:24Z</time>
      </trkpt>
      <trkpt lat="43.03833" lon="2.41793">
        <ele>399</ele>
        <time>2022-05-02T20:27:26Z</time>
      </trkpt>
      <trkpt lat="43.0384" lon="2.41786">
        <ele>400</ele>
        <time>2022-05-02T20:27:28Z</time>
      </trkpt>
      <trkpt lat="43.03851" lon="2.41781">
        <ele>402</ele>
        <time>2022-05-02T20:27:30Z</time>
      </trkpt>
      <trkpt lat="43.03862" lon="2.41781">
        <ele>402</ele>
        <time>2022-05-02T20:27:32Z</time>
      </trkpt>
      <trkpt lat="43.03875" lon="2.41792">
        <ele>401</ele>
        <time>2022-05-02T20:27:35Z</time>
      </trkpt>
      <trkpt lat="43.03895" lon="2.41809">
        <ele>401</ele>
        <time>2022-05-02T20:27:39Z</time>
      </trkpt>
      <trkpt lat="43.03918" lon="2.41834">
        <ele>400</ele>
        <time>2022-05-02T20:27:44Z</time>
      </trkpt>
      <trkpt lat="43.03928" lon="2.41857">
        <ele>402</ele>
        <time>2022-05-02T20:27:48Z</time>
      </trkpt>
      <trkpt lat="43.03932" lon="2.41876">
        <ele>402</ele>
        <time>2022-05-02T20:27:50Z</time>
      </trkpt>
      <trkpt lat="43.03933" lon="2.4189">
        <ele>401</ele>
        <time>2022-05-02T20:27:52Z</time>
      </trkpt>
      <trkpt lat="43.0392" lon="2.4196">
        <ele>394</ele>
        <time>2022-05-02T20:28:01Z</time>
      </trkpt>
      <trkpt lat="43.03918" lon="2.41973">
        <ele>393</ele>
        <time>2022-05-02T20:28:03Z</time>
      </trkpt>
      <trkpt lat="43.03918" lon="2.41983">
        <ele>393</ele>
        <time>2022-05-02T20:28:04Z</time>
      </trkpt>
      <trkpt lat="43.03923" lon="2.41996">
        <ele>393</ele>
        <time>2022-05-02T20:28:06Z</time>
      </trkpt>
      <trkpt lat="43.0393" lon="2.42005">
        <ele>394</ele>
        <time>2022-05-02T20:28:08Z</time>
      </trkpt>
      <trkpt lat="43.03947" lon="2.42017">
        <ele>395</ele>
        <time>2022-05-02T20:28:11Z</time>
      </trkpt>
      <trkpt lat="43.0398" lon="2.42034">
        <ele>395</ele>
        <time>2022-05-02T20:28:18Z</time>
      </trkpt>
      <trkpt lat="43.03998" lon="2.42038">
        <ele>393</ele>
        <time>2022-05-02T20:28:21Z</time>
      </trkpt>
      <trkpt lat="43.04075" lon="2.42044">
        <ele>388</ele>
        <time>2022-05-02T20:28:35Z</time>
      </trkpt>
      <trkpt lat="43.04089" lon="2.42041">
        <ele>388</ele>
        <time>2022-05-02T20:28:37Z</time>
      </trkpt>
      <trkpt lat="43.04111" lon="2.42027">
        <ele>387</ele>
        <time>2022-05-02T20:28:41Z</time>
      </trkpt>
      <trkpt lat="43.0418" lon="2.41997">
        <ele>382</ele>
        <time>2022-05-02T20:28:54Z</time>
      </trkpt>
      <trkpt lat="43.04215" lon="2.41989">
        <ele>383</ele>
        <time>2022-05-02T20:29:01Z</time>
      </trkpt>
      <trkpt lat="43.04225" lon="2.4199">
        <ele>383</ele>
        <time>2022-05-02T20:29:02Z</time>
      </trkpt>
      <trkpt lat="43.04241" lon="2.41995">
        <ele>381</ele>
        <time>2022-05-02T20:29:05Z</time>
      </trkpt>
      <trkpt lat="43.04265" lon="2.42008">
        <ele>381</ele>
        <time>2022-05-02T20:29:10Z</time>
      </trkpt>
      <trkpt lat="43.04285" lon="2.42012">
        <ele>381</ele>
        <time>2022-05-02T20:29:14Z</time>
      </trkpt>
      <trkpt lat="43.04317" lon="2.42014">
        <ele>382</ele>
        <time>2022-05-02T20:29:19Z</time>
      </trkpt>
      <trkpt lat="43.04347" lon="2.42008">
        <ele>382</ele>
        <time>2022-05-02T20:29:25Z</time>
      </trkpt>
      <trkpt lat="43.04386" lon="2.42011">
        <ele>381</ele>
        <time>2022-05-02T20:29:32Z</time>
      </trkpt>
      <trkpt lat="43.04406" lon="2.42019">
        <ele>380</ele>
        <time>2022-05-02T20:29:35Z</time>
      </trkpt>
      <trkpt lat="43.04448" lon="2.42039">
        <ele>381</ele>
        <time>2022-05-02T20:29:43Z</time>
      </trkpt>
      <trkpt lat="43.04461" lon="2.42047">
        <ele>381</ele>
        <time>2022-05-02T20:29:46Z</time>
      </trkpt>
      <trkpt lat="43.04471" lon="2.42056">
        <ele>380</ele>
        <time>2022-05-02T20:29:48Z</time>
      </trkpt>
      <trkpt lat="43.04476" lon="2.42066">
        <ele>378</ele>
        <time>2022-05-02T20:29:49Z</time>
      </trkpt>
      <trkpt lat="43.04481" lon="2.42079">
        <ele>376</ele>
        <time>2022-05-02T20:29:51Z</time>
      </trkpt>
      <trkpt lat="43.04484" lon="2.42096">
        <ele>375</ele>
        <time>2022-05-02T20:29:54Z</time>
      </trkpt>
      <trkpt lat="43.04485" lon="2.421">
        <ele>375</ele>
        <time>2022-05-02T20:29:54Z</time>
      </trkpt>
      <trkpt lat="43.04493" lon="2.42115">
        <ele>375</ele>
        <time>2022-05-02T20:29:57Z</time>
      </trkpt>
      <trkpt lat="43.04502" lon="2.42125">
        <ele>374</ele>
        <time>2022-05-02T20:29:59Z</time>
      </trkpt>
      <trkpt lat="43.04514" lon="2.42135">
        <ele>373</ele>
        <time>2022-05-02T20:30:01Z</time>
      </trkpt>
      <trkpt lat="43.04531" lon="2.42137">
        <ele>373</ele>
        <time>2022-05-02T20:30:04Z</time>
      </trkpt>
      <trkpt lat="43.04537" lon="2.42135">
        <ele>373</ele>
        <time>2022-05-02T20:30:05Z</time>
      </trkpt>
      <trkpt lat="43.04546" lon="2.42126">
        <ele>373</ele>
        <time>2022-05-02T20:30:07Z</time>
      </trkpt>
      <trkpt lat="43.04574" lon="2.42089">
        <ele>370</ele>
        <time>2022-05-02T20:30:14Z</time>
      </trkpt>
      <trkpt lat="43.04583" lon="2.42084">
        <ele>369</ele>
        <time>2022-05-02T20:30:16Z</time>
      </trkpt>
      <trkpt lat="43.04593" lon="2.42085">
        <ele>369</ele>
        <time>2022-05-02T20:30:18Z</time>
      </trkpt>
      <trkpt lat="43.04598" lon="2.42085">
        <ele>370</ele>
        <time>2022-05-02T20:30:19Z</time>
      </trkpt>
      <trkpt lat="43.04611" lon="2.42085">
        <ele>370</ele>
        <time>2022-05-02T20:30:21Z</time>
      </trkpt>
      <trkpt lat="43.04621" lon="2.42088">
        <ele>371</ele>
        <time>2022-05-02T20:30:23Z</time>
      </trkpt>
      <trkpt lat="43.04629" lon="2.42084">
        <ele>371</ele>
        <time>2022-05-02T20:30:24Z</time>
      </trkpt>
      <trkpt lat="43.04634" lon="2.42078">
        <ele>371</ele>
        <time>2022-05-02T20:30:25Z</time>
      </trkpt>
      <trkpt lat="43.0466" lon="2.42036">
        <ele>372</ele>
        <time>2022-05-02T20:30:33Z</time>
      </trkpt>
      <trkpt lat="43.0467" lon="2.42021">
        <ele>372</ele>
        <time>2022-05-02T20:30:35Z</time>
      </trkpt>
      <trkpt lat="43.04699" lon="2.41992">
        <ele>378</ele>
        <time>2022-05-02T20:30:42Z</time>
      </trkpt>
      <trkpt lat="43.04712" lon="2.41982">
        <ele>380</ele>
        <time>2022-05-02T20:30:44Z</time>
      </trkpt>
      <trkpt lat="43.04708" lon="2.41993">
        <ele>380</ele>
        <time>2022-05-02T20:30:46Z</time>
      </trkpt>
      <trkpt lat="43.04685" lon="2.42017">
        <ele>376</ele>
        <time>2022-05-02T20:30:51Z</time>
      </trkpt>
      <trkpt lat="43.04679" lon="2.42029">
        <ele>375</ele>
        <time>2022-05-02T20:30:53Z</time>
      </trkpt>
      <trkpt lat="43.04675" lon="2.42057">
        <ele>374</ele>
        <time>2022-05-02T20:30:57Z</time>
      </trkpt>
      <trkpt lat="43.04675" lon="2.4208">
        <ele>374</ele>
        <time>2022-05-02T20:31:00Z</time>
      </trkpt>
      <trkpt lat="43.04677" lon="2.42093">
        <ele>375</ele>
        <time>2022-05-02T20:31:01Z</time>
      </trkpt>
      <trkpt lat="43.04681" lon="2.42104">
        <ele>376</ele>
        <time>2022-05-02T20:31:03Z</time>
      </trkpt>
      <trkpt lat="43.04687" lon="2.42115">
        <ele>378</ele>
        <time>2022-05-02T20:31:05Z</time>
      </trkpt>
      <trkpt lat="43.04695" lon="2.42125">
        <ele>379</ele>
        <time>2022-05-02T20:31:07Z</time>
      </trkpt>
      <trkpt lat="43.04805" lon="2.42231">
        <ele>393</ele>
        <time>2022-05-02T20:31:31Z</time>
      </trkpt>
      <trkpt lat="43.04816" lon="2.42245">
        <ele>394</ele>
        <time>2022-05-02T20:31:33Z</time>
      </trkpt>
      <trkpt lat="43.0484" lon="2.42277">
        <ele>395</ele>
        <time>2022-05-02T20:31:39Z</time>
      </trkpt>
      <trkpt lat="43.04846" lon="2.42291">
        <ele>395</ele>
        <time>2022-05-02T20:31:41Z</time>
      </trkpt>
      <trkpt lat="43.0486" lon="2.42333">
        <ele>391</ele>
        <time>2022-05-02T20:31:47Z</time>
      </trkpt>
      <trkpt lat="43.04865" lon="2.42341">
        <ele>391</ele>
        <time>2022-05-02T20:31:49Z</time>
      </trkpt>
      <trkpt lat="43.04886" lon="2.42359">
        <ele>395</ele>
        <time>2022-05-02T20:31:53Z</time>
      </trkpt>
      <trkpt lat="43.04893" lon="2.42367">
        <ele>396</ele>
        <time>2022-05-02T20:31:55Z</time>
      </trkpt>
      <trkpt lat="43.04899" lon="2.42378">
        <ele>395</ele>
        <time>2022-05-02T20:31:57Z</time>
      </trkpt>
      <trkpt lat="43.04909" lon="2.42407">
        <ele>392</ele>
        <time>2022-05-02T20:32:01Z</time>
      </trkpt>
      <trkpt lat="43.04918" lon="2.42422">
        <ele>392</ele>
        <time>2022-05-02T20:32:03Z</time>
      </trkpt>
      <trkpt lat="43.04945" lon="2.42455">
        <ele>397</ele>
        <time>2022-05-02T20:32:10Z</time>
      </trkpt>
      <trkpt lat="43.04968" lon="2.42493">
        <ele>396</ele>
        <time>2022-05-02T20:32:16Z</time>
      </trkpt>
      <trkpt lat="43.04978" lon="2.42502">
        <ele>397</ele>
        <time>2022-05-02T20:32:18Z</time>
      </trkpt>
      <trkpt lat="43.04988" lon="2.42505">
        <ele>399</ele>
        <time>2022-05-02T20:32:20Z</time>
      </trkpt>
      <trkpt lat="43.05" lon="2.42506">
        <ele>401</ele>
        <time>2022-05-02T20:32:22Z</time>
      </trkpt>
      <trkpt lat="43.05014" lon="2.42504">
        <ele>404</ele>
        <time>2022-05-02T20:32:25Z</time>
      </trkpt>
      <trkpt lat="43.05069" lon="2.4248">
        <ele>418</ele>
        <time>2022-05-02T20:32:35Z</time>
      </trkpt>
      <trkpt lat="43.05077" lon="2.42482">
        <ele>419</ele>
        <time>2022-05-02T20:32:36Z</time>
      </trkpt>
      <trkpt lat="43.05082" lon="2.42487">
        <ele>418</ele>
        <time>2022-05-02T20:32:37Z</time>
      </trkpt>
      <trkpt lat="43.05085" lon="2.42498">
        <ele>415</ele>
        <time>2022-05-02T20:32:39Z</time>
      </trkpt>
      <trkpt lat="43.05083" lon="2.4251">
        <ele>414</ele>
        <time>2022-05-02T20:32:41Z</time>
      </trkpt>
      <trkpt lat="43.05064" lon="2.42537">
        <ele>411</ele>
        <time>2022-05-02T20:32:45Z</time>
      </trkpt>
      <trkpt lat="43.0506" lon="2.42545">
        <ele>410</ele>
        <time>2022-05-02T20:32:47Z</time>
      </trkpt>
      <trkpt lat="43.05048" lon="2.42595">
        <ele>406</ele>
        <time>2022-05-02T20:32:54Z</time>
      </trkpt>
      <trkpt lat="43.05048" lon="2.42608">
        <ele>406</ele>
        <time>2022-05-02T20:32:55Z</time>
      </trkpt>
      <trkpt lat="43.05052" lon="2.4262">
        <ele>408</ele>
        <time>2022-05-02T20:32:57Z</time>
      </trkpt>
      <trkpt lat="43.05066" lon="2.42639">
        <ele>413</ele>
        <time>2022-05-02T20:33:00Z</time>
      </trkpt>
      <trkpt lat="43.0507" lon="2.42651">
        <ele>415</ele>
        <time>2022-05-02T20:33:02Z</time>
      </trkpt>
      <trkpt lat="43.05076" lon="2.42689">
        <ele>420</ele>
        <time>2022-05-02T20:33:07Z</time>
      </trkpt>
      <trkpt lat="43.05076" lon="2.42702">
        <ele>421</ele>
        <time>2022-05-02T20:33:09Z</time>
      </trkpt>
      <trkpt lat="43.05074" lon="2.42712">
        <ele>422</ele>
        <time>2022-05-02T20:33:10Z</time>
      </trkpt>
      <trkpt lat="43.05053" lon="2.42742">
        <ele>416</ele>
        <time>2022-05-02T20:33:16Z</time>
      </trkpt>
      <trkpt lat="43.05047" lon="2.42759">
        <ele>415</ele>
        <time>2022-05-02T20:33:18Z</time>
      </trkpt>
      <trkpt lat="43.05043" lon="2.42777">
        <ele>414</ele>
        <time>2022-05-02T20:33:21Z</time>
      </trkpt>
      <trkpt lat="43.05043" lon="2.42794">
        <ele>414</ele>
        <time>2022-05-02T20:33:23Z</time>
      </trkpt>
      <trkpt lat="43.05051" lon="2.42842">
        <ele>419</ele>
        <time>2022-05-02T20:33:29Z</time>
      </trkpt>
      <trkpt lat="43.05058" lon="2.42868">
        <ele>419</ele>
        <time>2022-05-02T20:33:33Z</time>
      </trkpt>
      <trkpt lat="43.05068" lon="2.42891">
        <ele>420</ele>
        <time>2022-05-02T20:33:36Z</time>
      </trkpt>
      <trkpt lat="43.05093" lon="2.42935">
        <ele>425</ele>
        <time>2022-05-02T20:33:44Z</time>
      </trkpt>
      <trkpt lat="43.05125" lon="2.42987">
        <ele>433</ele>
        <time>2022-05-02T20:33:52Z</time>
      </trkpt>
      <trkpt lat="43.0513" lon="2.42997">
        <ele>434</ele>
        <time>2022-05-02T20:33:54Z</time>
      </trkpt>
      <trkpt lat="43.05134" lon="2.43033">
        <ele>428</ele>
        <time>2022-05-02T20:33:59Z</time>
      </trkpt>
      <trkpt lat="43.05145" lon="2.43046">
        <ele>429</ele>
        <time>2022-05-02T20:34:01Z</time>
      </trkpt>
      <trkpt lat="43.05187" lon="2.43062">
        <ele>435</ele>
        <time>2022-05-02T20:34:09Z</time>
      </trkpt>
      <trkpt lat="43.05216" lon="2.43096">
        <ele>432</ele>
        <time>2022-05-02T20:34:16Z</time>
      </trkpt>
      <trkpt lat="43.05227" lon="2.43103">
        <ele>433</ele>
        <time>2022-05-02T20:34:18Z</time>
      </trkpt>
      <trkpt lat="43.05255" lon="2.43101">
        <ele>438</ele>
        <time>2022-05-02T20:34:23Z</time>
      </trkpt>
      <trkpt lat="43.05265" lon="2.43096">
        <ele>438</ele>
        <time>2022-05-02T20:34:25Z</time>
      </trkpt>
      <trkpt lat="43.05274" lon="2.43083">
        <ele>440</ele>
        <time>2022-05-02T20:34:27Z</time>
      </trkpt>
      <trkpt lat="43.05338" lon="2.4292">
        <ele>462</ele>
        <time>2022-05-02T20:34:51Z</time>
      </trkpt>
      <trkpt lat="43.05345" lon="2.4291">
        <ele>464</ele>
        <time>2022-05-02T20:34:53Z</time>
      </trkpt>
      <trkpt lat="43.05356" lon="2.42907">
        <ele>466</ele>
        <time>2022-05-02T20:34:55Z</time>
      </trkpt>
      <trkpt lat="43.05364" lon="2.42909">
        <ele>466</ele>
        <time>2022-05-02T20:34:56Z</time>
      </trkpt>
      <trkpt lat="43.05376" lon="2.42925">
        <ele>464</ele>
        <time>2022-05-02T20:34:59Z</time>
      </trkpt>
      <trkpt lat="43.05388" lon="2.42967">
        <ele>460</ele>
        <time>2022-05-02T20:35:05Z</time>
      </trkpt>
      <trkpt lat="43.05393" lon="2.43022">
        <ele>457</ele>
        <time>2022-05-02T20:35:13Z</time>
      </trkpt>
      <trkpt lat="43.05398" lon="2.43034">
        <ele>458</ele>
        <time>2022-05-02T20:35:14Z</time>
      </trkpt>
      <trkpt lat="43.0541" lon="2.43054">
        <ele>461</ele>
        <time>2022-05-02T20:35:18Z</time>
      </trkpt>
      <trkpt lat="43.05413" lon="2.43064">
        <ele>462</ele>
        <time>2022-05-02T20:35:19Z</time>
      </trkpt>
      <trkpt lat="43.05412" lon="2.43077">
        <ele>462</ele>
        <time>2022-05-02T20:35:21Z</time>
      </trkpt>
      <trkpt lat="43.05403" lon="2.43102">
        <ele>458</ele>
        <time>2022-05-02T20:35:24Z</time>
      </trkpt>
      <trkpt lat="43.05402" lon="2.43118">
        <ele>457</ele>
        <time>2022-05-02T20:35:27Z</time>
      </trkpt>
      <trkpt lat="43.05404" lon="2.43133">
        <ele>457</ele>
        <time>2022-05-02T20:35:29Z</time>
      </trkpt>
      <trkpt lat="43.05414" lon="2.43165">
        <ele>459</ele>
        <time>2022-05-02T20:35:33Z</time>
      </trkpt>
      <trkpt lat="43.05425" lon="2.43189">
        <ele>459</ele>
        <time>2022-05-02T20:35:37Z</time>
      </trkpt>
      <trkpt lat="43.05451" lon="2.4323">
        <ele>460</ele>
        <time>2022-05-02T20:35:44Z</time>
      </trkpt>
      <trkpt lat="43.05466" lon="2.43259">
        <ele>459</ele>
        <time>2022-05-02T20:35:48Z</time>
      </trkpt>
      <trkpt lat="43.05472" lon="2.43267">
        <ele>459</ele>
        <time>2022-05-02T20:35:50Z</time>
      </trkpt>
      <trkpt lat="43.05479" lon="2.43271">
        <ele>461</ele>
        <time>2022-05-02T20:35:51Z</time>
      </trkpt>
      <trkpt lat="43.05501" lon="2.43273">
        <ele>468</ele>
        <time>2022-05-02T20:35:55Z</time>
      </trkpt>
      <trkpt lat="43.05529" lon="2.43285">
        <ele>468</ele>
        <time>2022-05-02T20:36:00Z</time>
      </trkpt>
      <trkpt lat="43.05537" lon="2.43285">
        <ele>469</ele>
        <time>2022-05-02T20:36:02Z</time>
      </trkpt>
      <trkpt lat="43.05545" lon="2.43279">
        <ele>471</ele>
        <time>2022-05-02T20:36:03Z</time>
      </trkpt>
      <trkpt lat="43.05568" lon="2.43244">
        <ele>474</ele>
        <time>2022-05-02T20:36:10Z</time>
      </trkpt>
      <trkpt lat="43.05591" lon="2.43193">
        <ele>481</ele>
        <time>2022-05-02T20:36:17Z</time>
      </trkpt>
      <trkpt lat="43.05619" lon="2.43139">
        <ele>488</ele>
        <time>2022-05-02T20:36:26Z</time>
      </trkpt>
      <trkpt lat="43.05667" lon="2.4308">
        <ele>486</ele>
        <time>2022-05-02T20:36:37Z</time>
      </trkpt>
      <trkpt lat="43.0567" lon="2.43071">
        <ele>487</ele>
        <time>2022-05-02T20:36:39Z</time>
      </trkpt>
      <trkpt lat="43.0567" lon="2.43062">
        <ele>488</ele>
        <time>2022-05-02T20:36:40Z</time>
      </trkpt>
      <trkpt lat="43.05668" lon="2.43051">
        <ele>489</ele>
        <time>2022-05-02T20:36:41Z</time>
      </trkpt>
      <trkpt lat="43.05664" lon="2.43044">
        <ele>489</ele>
        <time>2022-05-02T20:36:43Z</time>
      </trkpt>
      <trkpt lat="43.05658" lon="2.4304">
        <ele>491</ele>
        <time>2022-05-02T20:36:44Z</time>
      </trkpt>
      <trkpt lat="43.05652" lon="2.4304">
        <ele>492</ele>
        <time>2022-05-02T20:36:45Z</time>
      </trkpt>
      <trkpt lat="43.05645" lon="2.43042">
        <ele>492</ele>
        <time>2022-05-02T20:36:46Z</time>
      </trkpt>
      <trkpt lat="43.05641" lon="2.43047">
        <ele>493</ele>
        <time>2022-05-02T20:36:47Z</time>
      </trkpt>
      <trkpt lat="43.05639" lon="2.43055">
        <ele>492</ele>
        <time>2022-05-02T20:36:48Z</time>
      </trkpt>
      <trkpt lat="43.05637" lon="2.43085">
        <ele>490</ele>
        <time>2022-05-02T20:36:52Z</time>
      </trkpt>
      <trkpt lat="43.05635" lon="2.43093">
        <ele>490</ele>
        <time>2022-05-02T20:36:53Z</time>
      </trkpt>
      <trkpt lat="43.05631" lon="2.43098">
        <ele>490</ele>
        <time>2022-05-02T20:36:54Z</time>
      </trkpt>
      <trkpt lat="43.05626" lon="2.431">
        <ele>491</ele>
        <time>2022-05-02T20:36:55Z</time>
      </trkpt>
      <trkpt lat="43.05605" lon="2.43101">
        <ele>493</ele>
        <time>2022-05-02T20:36:59Z</time>
      </trkpt>
      <trkpt lat="43.056" lon="2.43104">
        <ele>493</ele>
        <time>2022-05-02T20:37:00Z</time>
      </trkpt>
      <trkpt lat="43.05583" lon="2.43134">
        <ele>489</ele>
        <time>2022-05-02T20:37:05Z</time>
      </trkpt>
      <trkpt lat="43.05522" lon="2.43208">
        <ele>480</ele>
        <time>2022-05-02T20:37:19Z</time>
      </trkpt>
      <trkpt lat="43.05515" lon="2.43212">
        <ele>480</ele>
        <time>2022-05-02T20:37:21Z</time>
      </trkpt>
      <trkpt lat="43.05508" lon="2.43212">
        <ele>480</ele>
        <time>2022-05-02T20:37:22Z</time>
      </trkpt>
      <trkpt lat="43.05502" lon="2.43207">
        <ele>481</ele>
        <time>2022-05-02T20:37:23Z</time>
      </trkpt>
      <trkpt lat="43.05497" lon="2.43197">
        <ele>482</ele>
        <time>2022-05-02T20:37:25Z</time>
      </trkpt>
      <trkpt lat="43.05496" lon="2.43185">
        <ele>484</ele>
        <time>2022-05-02T20:37:26Z</time>
      </trkpt>
      <trkpt lat="43.05497" lon="2.43177">
        <ele>486</ele>
        <time>2022-05-02T20:37:27Z</time>
      </trkpt>
      <trkpt lat="43.055" lon="2.43171">
        <ele>488</ele>
        <time>2022-05-02T20:37:28Z</time>
      </trkpt>
      <trkpt lat="43.05506" lon="2.43166">
        <ele>489</ele>
        <time>2022-05-02T20:37:29Z</time>
      </trkpt>
      <trkpt lat="43.05526" lon="2.43154">
        <ele>489</ele>
        <time>2022-05-02T20:37:33Z</time>
      </trkpt>
      <trkpt lat="43.05537" lon="2.4314">
        <ele>490</ele>
        <time>2022-05-02T20:37:36Z</time>
      </trkpt>
      <trkpt lat="43.05543" lon="2.4313">
        <ele>491</ele>
        <time>2022-05-02T20:37:38Z</time>
      </trkpt>
      <trkpt lat="43.05562" lon="2.43078">
        <ele>497</ele>
        <time>2022-05-02T20:37:45Z</time>
      </trkpt>
      <trkpt lat="43.05586" lon="2.43032">
        <ele>503</ele>
        <time>2022-05-02T20:37:53Z</time>
      </trkpt>
      <trkpt lat="43.0559" lon="2.43022">
        <ele>503</ele>
        <time>2022-05-02T20:37:54Z</time>
      </trkpt>
      <trkpt lat="43.05591" lon="2.43011">
        <ele>504</ele>
        <time>2022-05-02T20:37:55Z</time>
      </trkpt>
      <trkpt lat="43.0559" lon="2.43">
        <ele>506</ele>
        <time>2022-05-02T20:37:57Z</time>
      </trkpt>
      <trkpt lat="43.05567" lon="2.42911">
        <ele>509</ele>
        <time>2022-05-02T20:38:09Z</time>
      </trkpt>
      <trkpt lat="43.05568" lon="2.42901">
        <ele>510</ele>
        <time>2022-05-02T20:38:10Z</time>
      </trkpt>
      <trkpt lat="43.0557" lon="2.42891">
        <ele>512</ele>
        <time>2022-05-02T20:38:12Z</time>
      </trkpt>
      <trkpt lat="43.05576" lon="2.4288">
        <ele>515</ele>
        <time>2022-05-02T20:38:14Z</time>
      </trkpt>
      <trkpt lat="43.05593" lon="2.42855">
        <ele>520</ele>
        <time>2022-05-02T20:38:18Z</time>
      </trkpt>
      <trkpt lat="43.05599" lon="2.4285">
        <ele>521</ele>
        <time>2022-05-02T20:38:19Z</time>
      </trkpt>
      <trkpt lat="43.05607" lon="2.4285">
        <ele>521</ele>
        <time>2022-05-02T20:38:21Z</time>
      </trkpt>
      <trkpt lat="43.05639" lon="2.42854">
        <ele>520</ele>
        <time>2022-05-02T20:38:26Z</time>
      </trkpt>
      <trkpt lat="43.05755" lon="2.42848">
        <ele>521</ele>
        <time>2022-05-02T20:38:47Z</time>
      </trkpt>
      <trkpt lat="43.05767" lon="2.42849">
        <ele>522</ele>
        <time>2022-05-02T20:38:49Z</time>
      </trkpt>
      <trkpt lat="43.05777" lon="2.42854">
        <ele>522</ele>
        <time>2022-05-02T20:38:51Z</time>
      </trkpt>
      <trkpt lat="43.05815" lon="2.42877">
        <ele>523</ele>
        <time>2022-05-02T20:38:59Z</time>
      </trkpt>
      <trkpt lat="43.05819" lon="2.42883">
        <ele>523</ele>
        <time>2022-05-02T20:39:00Z</time>
      </trkpt>
      <trkpt lat="43.05823" lon="2.42891">
        <ele>523</ele>
        <time>2022-05-02T20:39:01Z</time>
      </trkpt>
      <trkpt lat="43.05825" lon="2.42911">
        <ele>523</ele>
        <time>2022-05-02T20:39:03Z</time>
      </trkpt>
      <trkpt lat="43.05824" lon="2.42966">
        <ele>522</ele>
        <time>2022-05-02T20:39:11Z</time>
      </trkpt>
      <trkpt lat="43.05821" lon="2.43017">
        <ele>520</ele>
        <time>2022-05-02T20:39:17Z</time>
      </trkpt>
      <trkpt lat="43.05823" lon="2.43032">
        <ele>520</ele>
        <time>2022-05-02T20:39:19Z</time>
      </trkpt>
      <trkpt lat="43.05842" lon="2.43067">
        <ele>523</ele>
        <time>2022-05-02T20:39:25Z</time>
      </trkpt>
      <trkpt lat="43.05868" lon="2.43099">
        <ele>526</ele>
        <time>2022-05-02T20:39:31Z</time>
      </trkpt>
      <trkpt lat="43.05875" lon="2.43112">
        <ele>527</ele>
        <time>2022-05-02T20:39:33Z</time>
      </trkpt>
      <trkpt lat="43.05877" lon="2.43122">
        <ele>528</ele>
        <time>2022-05-02T20:39:35Z</time>
      </trkpt>
      <trkpt lat="43.05886" lon="2.43177">
        <ele>528</ele>
        <time>2022-05-02T20:39:42Z</time>
      </trkpt>
      <trkpt lat="43.05892" lon="2.43194">
        <ele>528</ele>
        <time>2022-05-02T20:39:44Z</time>
      </trkpt>
      <trkpt lat="43.05897" lon="2.43203">
        <ele>528</ele>
        <time>2022-05-02T20:39:46Z</time>
      </trkpt>
      <trkpt lat="43.05904" lon="2.43209">
        <ele>528</ele>
        <time>2022-05-02T20:39:47Z</time>
      </trkpt>
      <trkpt lat="43.05912" lon="2.43214">
        <ele>528</ele>
        <time>2022-05-02T20:39:49Z</time>
      </trkpt>
      <trkpt lat="43.05932" lon="2.4322">
        <ele>529</ele>
        <time>2022-05-02T20:39:53Z</time>
      </trkpt>
      <trkpt lat="43.05942" lon="2.43229">
        <ele>530</ele>
        <time>2022-05-02T20:39:55Z</time>
      </trkpt>
      <trkpt lat="43.05948" lon="2.43243">
        <ele>531</ele>
        <time>2022-05-02T20:39:57Z</time>
      </trkpt>
      <trkpt lat="43.05949" lon="2.43253">
        <ele>531</ele>
        <time>2022-05-02T20:39:58Z</time>
      </trkpt>
      <trkpt lat="43.05948" lon="2.43276">
        <ele>530</ele>
        <time>2022-05-02T20:40:01Z</time>
      </trkpt>
      <trkpt lat="43.0595" lon="2.43286">
        <ele>530</ele>
        <time>2022-05-02T20:40:02Z</time>
      </trkpt>
      <trkpt lat="43.05957" lon="2.43297">
        <ele>531</ele>
        <time>2022-05-02T20:40:04Z</time>
      </trkpt>
      <trkpt lat="43.05967" lon="2.43299">
        <ele>533</ele>
        <time>2022-05-02T20:40:06Z</time>
      </trkpt>
      <trkpt lat="43.05983" lon="2.43293">
        <ele>535</ele>
        <time>2022-05-02T20:40:09Z</time>
      </trkpt>
      <trkpt lat="43.05991" lon="2.43294">
        <ele>537</ele>
        <time>2022-05-02T20:40:11Z</time>
      </trkpt>
      <trkpt lat="43.05995" lon="2.43296">
        <ele>537</ele>
        <time>2022-05-02T20:40:11Z</time>
      </trkpt>
      <trkpt lat="43.06" lon="2.43303">
        <ele>538</ele>
        <time>2022-05-02T20:40:13Z</time>
      </trkpt>
      <trkpt lat="43.06001" lon="2.4331">
        <ele>538</ele>
        <time>2022-05-02T20:40:13Z</time>
      </trkpt>
      <trkpt lat="43.06002" lon="2.43318">
        <ele>538</ele>
        <time>2022-05-02T20:40:15Z</time>
      </trkpt>
      <trkpt lat="43.05998" lon="2.43332">
        <ele>538</ele>
        <time>2022-05-02T20:40:16Z</time>
      </trkpt>
      <trkpt lat="43.05979" lon="2.43354">
        <ele>536</ele>
        <time>2022-05-02T20:40:21Z</time>
      </trkpt>
      <trkpt lat="43.05972" lon="2.43367">
        <ele>536</ele>
        <time>2022-05-02T20:40:23Z</time>
      </trkpt>
      <trkpt lat="43.05934" lon="2.43491">
        <ele>537</ele>
        <time>2022-05-02T20:40:40Z</time>
      </trkpt>
      <trkpt lat="43.05933" lon="2.43503">
        <ele>538</ele>
        <time>2022-05-02T20:40:42Z</time>
      </trkpt>
      <trkpt lat="43.05934" lon="2.43514">
        <ele>537</ele>
        <time>2022-05-02T20:40:43Z</time>
      </trkpt>
      <trkpt lat="43.05937" lon="2.43522">
        <ele>537</ele>
        <time>2022-05-02T20:40:45Z</time>
      </trkpt>
      <trkpt lat="43.0594" lon="2.43528">
        <ele>537</ele>
        <time>2022-05-02T20:40:46Z</time>
      </trkpt>
      <trkpt lat="43.05946" lon="2.4353">
        <ele>537</ele>
        <time>2022-05-02T20:40:47Z</time>
      </trkpt>
      <trkpt lat="43.06007" lon="2.43526">
        <ele>543</ele>
        <time>2022-05-02T20:40:58Z</time>
      </trkpt>
      <trkpt lat="43.06019" lon="2.43527">
        <ele>545</ele>
        <time>2022-05-02T20:41:00Z</time>
      </trkpt>
      <trkpt lat="43.06027" lon="2.43534">
        <ele>544</ele>
        <time>2022-05-02T20:41:01Z</time>
      </trkpt>
      <trkpt lat="43.06039" lon="2.43556">
        <ele>541</ele>
        <time>2022-05-02T20:41:05Z</time>
      </trkpt>
      <trkpt lat="43.06043" lon="2.43561">
        <ele>541</ele>
        <time>2022-05-02T20:41:06Z</time>
      </trkpt>
      <trkpt lat="43.06049" lon="2.43563">
        <ele>541</ele>
        <time>2022-05-02T20:41:07Z</time>
      </trkpt>
      <trkpt lat="43.06106" lon="2.43558">
        <ele>550</ele>
        <time>2022-05-02T20:41:17Z</time>
      </trkpt>
      <trkpt lat="43.06113" lon="2.43556">
        <ele>552</ele>
        <time>2022-05-02T20:41:18Z</time>
      </trkpt>
      <trkpt lat="43.06144" lon="2.43538">
        <ele>558</ele>
        <time>2022-05-02T20:41:24Z</time>
      </trkpt>
      <trkpt lat="43.06154" lon="2.4354">
        <ele>559</ele>
        <time>2022-05-02T20:41:26Z</time>
      </trkpt>
      <trkpt lat="43.06161" lon="2.43548">
        <ele>558</ele>
        <time>2022-05-02T20:41:28Z</time>
      </trkpt>
      <trkpt lat="43.06162" lon="2.43555">
        <ele>557</ele>
        <time>2022-05-02T20:41:29Z</time>
      </trkpt>
      <trkpt lat="43.06161" lon="2.43565">
        <ele>556</ele>
        <time>2022-05-02T20:41:30Z</time>
      </trkpt>
      <trkpt lat="43.06144" lon="2.43626">
        <ele>550</ele>
        <time>2022-05-02T20:41:39Z</time>
      </trkpt>
      <trkpt lat="43.06143" lon="2.43648">
        <ele>549</ele>
        <time>2022-05-02T20:41:41Z</time>
      </trkpt>
      <trkpt lat="43.06148" lon="2.43669">
        <ele>550</ele>
        <time>2022-05-02T20:41:44Z</time>
      </trkpt>
      <trkpt lat="43.06167" lon="2.43717">
        <ele>551</ele>
        <time>2022-05-02T20:41:51Z</time>
      </trkpt>
      <trkpt lat="43.06184" lon="2.4378">
        <ele>553</ele>
        <time>2022-05-02T20:42:00Z</time>
      </trkpt>
      <trkpt lat="43.06186" lon="2.4379">
        <ele>554</ele>
        <time>2022-05-02T20:42:02Z</time>
      </trkpt>
      <trkpt lat="43.06186" lon="2.4383">
        <ele>553</ele>
        <time>2022-05-02T20:42:07Z</time>
      </trkpt>
      <trkpt lat="43.06189" lon="2.43872">
        <ele>554</ele>
        <time>2022-05-02T20:42:12Z</time>
      </trkpt>
      <trkpt lat="43.06191" lon="2.43886">
        <ele>555</ele>
        <time>2022-05-02T20:42:14Z</time>
      </trkpt>
      <trkpt lat="43.06209" lon="2.4398">
        <ele>562</ele>
        <time>2022-05-02T20:42:27Z</time>
      </trkpt>
      <trkpt lat="43.06211" lon="2.43997">
        <ele>563</ele>
        <time>2022-05-02T20:42:29Z</time>
      </trkpt>
      <trkpt lat="43.06209" lon="2.44017">
        <ele>562</ele>
        <time>2022-05-02T20:42:32Z</time>
      </trkpt>
      <trkpt lat="43.062" lon="2.44067">
        <ele>562</ele>
        <time>2022-05-02T20:42:38Z</time>
      </trkpt>
      <trkpt lat="43.06177" lon="2.44218">
        <ele>556</ele>
        <time>2022-05-02T20:42:58Z</time>
      </trkpt>
      <trkpt lat="43.06172" lon="2.44238">
        <ele>555</ele>
        <time>2022-05-02T20:43:01Z</time>
      </trkpt>
      <trkpt lat="43.0614" lon="2.44317">
        <ele>552</ele>
        <time>2022-05-02T20:43:13Z</time>
      </trkpt>
      <trkpt lat="43.06109" lon="2.4437">
        <ele>552</ele>
        <time>2022-05-02T20:43:22Z</time>
      </trkpt>
      <trkpt lat="43.06098" lon="2.444">
        <ele>550</ele>
        <time>2022-05-02T20:43:26Z</time>
      </trkpt>
      <trkpt lat="43.06081" lon="2.44487">
        <ele>545</ele>
        <time>2022-05-02T20:43:38Z</time>
      </trkpt>
      <trkpt lat="43.06084" lon="2.44555">
        <ele>542</ele>
        <time>2022-05-02T20:43:47Z</time>
      </trkpt>
      <trkpt lat="43.06084" lon="2.44577">
        <ele>541</ele>
        <time>2022-05-02T20:43:49Z</time>
      </trkpt>
      <trkpt lat="43.0608" lon="2.446">
        <ele>540</ele>
        <time>2022-05-02T20:43:52Z</time>
      </trkpt>
      <trkpt lat="43.06071" lon="2.44613">
        <ele>539</ele>
        <time>2022-05-02T20:43:55Z</time>
      </trkpt>
      <trkpt lat="43.06048" lon="2.4466">
        <ele>535</ele>
        <time>2022-05-02T20:44:02Z</time>
      </trkpt>
      <trkpt lat="43.06032" lon="2.44795">
        <ele>531</ele>
        <time>2022-05-02T20:44:20Z</time>
      </trkpt>
      <trkpt lat="43.06033" lon="2.44811">
        <ele>530</ele>
        <time>2022-05-02T20:44:22Z</time>
      </trkpt>
      <trkpt lat="43.06042" lon="2.44837">
        <ele>529</ele>
        <time>2022-05-02T20:44:26Z</time>
      </trkpt>
      <trkpt lat="43.06044" lon="2.44853">
        <ele>529</ele>
        <time>2022-05-02T20:44:28Z</time>
      </trkpt>
      <trkpt lat="43.06055" lon="2.44967">
        <ele>527</ele>
        <time>2022-05-02T20:44:43Z</time>
      </trkpt>
      <trkpt lat="43.06055" lon="2.44986">
        <ele>527</ele>
        <time>2022-05-02T20:44:45Z</time>
      </trkpt>
      <trkpt lat="43.06052" lon="2.45003">
        <ele>527</ele>
        <time>2022-05-02T20:44:48Z</time>
      </trkpt>
      <trkpt lat="43.06039" lon="2.45042">
        <ele>524</ele>
        <time>2022-05-02T20:44:53Z</time>
      </trkpt>
      <trkpt lat="43.06039" lon="2.45054">
        <ele>523</ele>
        <time>2022-05-02T20:44:55Z</time>
      </trkpt>
      <trkpt lat="43.06043" lon="2.45096">
        <ele>520</ele>
        <time>2022-05-02T20:45:00Z</time>
      </trkpt>
      <trkpt lat="43.06046" lon="2.45104">
        <ele>519</ele>
        <time>2022-05-02T20:45:01Z</time>
      </trkpt>
      <trkpt lat="43.06062" lon="2.45122">
        <ele>519</ele>
        <time>2022-05-02T20:45:05Z</time>
      </trkpt>
      <trkpt lat="43.06071" lon="2.45137">
        <ele>518</ele>
        <time>2022-05-02T20:45:08Z</time>
      </trkpt>
      <trkpt lat="43.06115" lon="2.45236">
        <ele>514</ele>
        <time>2022-05-02T20:45:23Z</time>
      </trkpt>
      <trkpt lat="43.06118" lon="2.45254">
        <ele>513</ele>
        <time>2022-05-02T20:45:25Z</time>
      </trkpt>
      <trkpt lat="43.06117" lon="2.45262">
        <ele>512</ele>
        <time>2022-05-02T20:45:26Z</time>
      </trkpt>
      <trkpt lat="43.06114" lon="2.4527">
        <ele>512</ele>
        <time>2022-05-02T20:45:27Z</time>
      </trkpt>
      <trkpt lat="43.06107" lon="2.45276">
        <ele>511</ele>
        <time>2022-05-02T20:45:29Z</time>
      </trkpt>
      <trkpt lat="43.06101" lon="2.45278">
        <ele>510</ele>
        <time>2022-05-02T20:45:30Z</time>
      </trkpt>
      <trkpt lat="43.06095" lon="2.45276">
        <ele>509</ele>
        <time>2022-05-02T20:45:31Z</time>
      </trkpt>
      <trkpt lat="43.06089" lon="2.45271">
        <ele>508</ele>
        <time>2022-05-02T20:45:32Z</time>
      </trkpt>
      <trkpt lat="43.06084" lon="2.45262">
        <ele>507</ele>
        <time>2022-05-02T20:45:34Z</time>
      </trkpt>
      <trkpt lat="43.06073" lon="2.45223">
        <ele>508</ele>
        <time>2022-05-02T20:45:39Z</time>
      </trkpt>
      <trkpt lat="43.06044" lon="2.45151">
        <ele>511</ele>
        <time>2022-05-02T20:45:50Z</time>
      </trkpt>
      <trkpt lat="43.06013" lon="2.45111">
        <ele>513</ele>
        <time>2022-05-02T20:45:57Z</time>
      </trkpt>
      <trkpt lat="43.06002" lon="2.45105">
        <ele>512</ele>
        <time>2022-05-02T20:45:59Z</time>
      </trkpt>
      <trkpt lat="43.05976" lon="2.45108">
        <ele>514</ele>
        <time>2022-05-02T20:46:04Z</time>
      </trkpt>
      <trkpt lat="43.05962" lon="2.45111">
        <ele>515</ele>
        <time>2022-05-02T20:46:07Z</time>
      </trkpt>
      <trkpt lat="43.05955" lon="2.45115">
        <ele>516</ele>
        <time>2022-05-02T20:46:08Z</time>
      </trkpt>
      <trkpt lat="43.05951" lon="2.45122">
        <ele>516</ele>
        <time>2022-05-02T20:46:09Z</time>
      </trkpt>
      <trkpt lat="43.05948" lon="2.45129">
        <ele>515</ele>
        <time>2022-05-02T20:46:10Z</time>
      </trkpt>
      <trkpt lat="43.05953" lon="2.45171">
        <ele>511</ele>
        <time>2022-05-02T20:46:16Z</time>
      </trkpt>
      <trkpt lat="43.05954" lon="2.4522">
        <ele>509</ele>
        <time>2022-05-02T20:46:22Z</time>
      </trkpt>
      <trkpt lat="43.05956" lon="2.45236">
        <ele>507</ele>
        <time>2022-05-02T20:46:24Z</time>
      </trkpt>
      <trkpt lat="43.05966" lon="2.45272">
        <ele>502</ele>
        <time>2022-05-02T20:46:29Z</time>
      </trkpt>
      <trkpt lat="43.05968" lon="2.45288">
        <ele>500</ele>
        <time>2022-05-02T20:46:31Z</time>
      </trkpt>
      <trkpt lat="43.05975" lon="2.45408">
        <ele>489</ele>
        <time>2022-05-02T20:46:47Z</time>
      </trkpt>
      <trkpt lat="43.05959" lon="2.45522">
        <ele>488</ele>
        <time>2022-05-02T20:47:02Z</time>
      </trkpt>
      <trkpt lat="43.05956" lon="2.45599">
        <ele>477</ele>
        <time>2022-05-02T20:47:12Z</time>
      </trkpt>
      <trkpt lat="43.05951" lon="2.45611">
        <ele>475</ele>
        <time>2022-05-02T20:47:14Z</time>
      </trkpt>
      <trkpt lat="43.05942" lon="2.45616">
        <ele>476</ele>
        <time>2022-05-02T20:47:16Z</time>
      </trkpt>
      <trkpt lat="43.0592" lon="2.45611">
        <ele>485</ele>
        <time>2022-05-02T20:47:20Z</time>
      </trkpt>
      <trkpt lat="43.05909" lon="2.45612">
        <ele>487</ele>
        <time>2022-05-02T20:47:22Z</time>
      </trkpt>
      <trkpt lat="43.05905" lon="2.45621">
        <ele>485</ele>
        <time>2022-05-02T20:47:23Z</time>
      </trkpt>
      <trkpt lat="43.05904" lon="2.45631">
        <ele>481</ele>
        <time>2022-05-02T20:47:24Z</time>
      </trkpt>
      <trkpt lat="43.0591" lon="2.45636">
        <ele>478</ele>
        <time>2022-05-02T20:47:25Z</time>
      </trkpt>
      <trkpt lat="43.05922" lon="2.45637">
        <ele>476</ele>
        <time>2022-05-02T20:47:28Z</time>
      </trkpt>
      <trkpt lat="43.05962" lon="2.45627">
        <ele>468</ele>
        <time>2022-05-02T20:47:35Z</time>
      </trkpt>
      <trkpt lat="43.05969" lon="2.45619">
        <ele>468</ele>
        <time>2022-05-02T20:47:36Z</time>
      </trkpt>
      <trkpt lat="43.05973" lon="2.45608">
        <ele>469</ele>
        <time>2022-05-02T20:47:38Z</time>
      </trkpt>
      <trkpt lat="43.05985" lon="2.45516">
        <ele>478</ele>
        <time>2022-05-02T20:47:50Z</time>
      </trkpt>
      <trkpt lat="43.05991" lon="2.45501">
        <ele>477</ele>
        <time>2022-05-02T20:47:52Z</time>
      </trkpt>
      <trkpt lat="43.06001" lon="2.45495">
        <ele>474</ele>
        <time>2022-05-02T20:47:54Z</time>
      </trkpt>
      <trkpt lat="43.06009" lon="2.45502">
        <ele>474</ele>
        <time>2022-05-02T20:47:56Z</time>
      </trkpt>
      <trkpt lat="43.06017" lon="2.45593">
        <ele>464</ele>
        <time>2022-05-02T20:48:08Z</time>
      </trkpt>
      <trkpt lat="43.06022" lon="2.45614">
        <ele>461</ele>
        <time>2022-05-02T20:48:11Z</time>
      </trkpt>
      <trkpt lat="43.06032" lon="2.45634">
        <ele>458</ele>
        <time>2022-05-02T20:48:14Z</time>
      </trkpt>
      <trkpt lat="43.06049" lon="2.45644">
        <ele>457</ele>
        <time>2022-05-02T20:48:17Z</time>
      </trkpt>
      <trkpt lat="43.06061" lon="2.4565">
        <ele>457</ele>
        <time>2022-05-02T20:48:20Z</time>
      </trkpt>
      <trkpt lat="43.06069" lon="2.45659">
        <ele>456</ele>
        <time>2022-05-02T20:48:21Z</time>
      </trkpt>
      <trkpt lat="43.06078" lon="2.45678">
        <ele>451</ele>
        <time>2022-05-02T20:48:24Z</time>
      </trkpt>
      <trkpt lat="43.06091" lon="2.45712">
        <ele>442</ele>
        <time>2022-05-02T20:48:29Z</time>
      </trkpt>
      <trkpt lat="43.061" lon="2.45727">
        <ele>439</ele>
        <time>2022-05-02T20:48:32Z</time>
      </trkpt>
      <trkpt lat="43.06108" lon="2.45734">
        <ele>439</ele>
        <time>2022-05-02T20:48:34Z</time>
      </trkpt>
      <trkpt lat="43.06122" lon="2.45742">
        <ele>439</ele>
        <time>2022-05-02T20:48:36Z</time>
      </trkpt>
      <trkpt lat="43.06149" lon="2.45746">
        <ele>444</ele>
        <time>2022-05-02T20:48:41Z</time>
      </trkpt>
      <trkpt lat="43.06263" lon="2.45788">
        <ele>437</ele>
        <time>2022-05-02T20:49:02Z</time>
      </trkpt>
      <trkpt lat="43.06332" lon="2.45819">
        <ele>430</ele>
        <time>2022-05-02T20:49:15Z</time>
      </trkpt>
      <trkpt lat="43.0643" lon="2.45893">
        <ele>427</ele>
        <time>2022-05-02T20:49:35Z</time>
      </trkpt>
      <trkpt lat="43.06456" lon="2.4592">
        <ele>424</ele>
        <time>2022-05-02T20:49:41Z</time>
      </trkpt>
      <trkpt lat="43.06472" lon="2.45946">
        <ele>419</ele>
        <time>2022-05-02T20:49:45Z</time>
      </trkpt>
      <trkpt lat="43.06492" lon="2.45989">
        <ele>409</ele>
        <time>2022-05-02T20:49:52Z</time>
      </trkpt>
      <trkpt lat="43.06512" lon="2.46013">
        <ele>408</ele>
        <time>2022-05-02T20:49:57Z</time>
      </trkpt>
      <trkpt lat="43.06546" lon="2.46034">
        <ele>414</ele>
        <time>2022-05-02T20:50:03Z</time>
      </trkpt>
      <trkpt lat="43.06596" lon="2.46095">
        <ele>405</ele>
        <time>2022-05-02T20:50:15Z</time>
      </trkpt>
      <trkpt lat="43.067" lon="2.46205">
        <ele>394</ele>
        <time>2022-05-02T20:50:38Z</time>
      </trkpt>
      <trkpt lat="43.06763" lon="2.46282">
        <ele>387</ele>
        <time>2022-05-02T20:50:53Z</time>
      </trkpt>
      <trkpt lat="43.06816" lon="2.46336">
        <ele>377</ele>
        <time>2022-05-02T20:51:05Z</time>
      </trkpt>
      <trkpt lat="43.06894" lon="2.4645">
        <ele>366</ele>
        <time>2022-05-02T20:51:26Z</time>
      </trkpt>
      <trkpt lat="43.06905" lon="2.46464">
        <ele>365</ele>
        <time>2022-05-02T20:51:28Z</time>
      </trkpt>
      <trkpt lat="43.06983" lon="2.46543">
        <ele>362</ele>
        <time>2022-05-02T20:51:45Z</time>
      </trkpt>
      <trkpt lat="43.06984" lon="2.46553">
        <ele>359</ele>
        <time>2022-05-02T20:51:47Z</time>
      </trkpt>
      <trkpt lat="43.06981" lon="2.46562">
        <ele>356</ele>
        <time>2022-05-02T20:51:48Z</time>
      </trkpt>
      <trkpt lat="43.06973" lon="2.46563">
        <ele>354</ele>
        <time>2022-05-02T20:51:50Z</time>
      </trkpt>
      <trkpt lat="43.06968" lon="2.46561">
        <ele>353</ele>
        <time>2022-05-02T20:51:50Z</time>
      </trkpt>
      <trkpt lat="43.06944" lon="2.46538">
        <ele>353</ele>
        <time>2022-05-02T20:51:56Z</time>
      </trkpt>
      <trkpt lat="43.06884" lon="2.46494">
        <ele>348</ele>
        <time>2022-05-02T20:52:08Z</time>
      </trkpt>
      <trkpt lat="43.06857" lon="2.46468">
        <ele>347</ele>
        <time>2022-05-02T20:52:14Z</time>
      </trkpt>
      <trkpt lat="43.06816" lon="2.46435">
        <ele>344</ele>
        <time>2022-05-02T20:52:22Z</time>
      </trkpt>
      <trkpt lat="43.06795" lon="2.46423">
        <ele>343</ele>
        <time>2022-05-02T20:52:26Z</time>
      </trkpt>
      <trkpt lat="43.06725" lon="2.46391">
        <ele>335</ele>
        <time>2022-05-02T20:52:39Z</time>
      </trkpt>
      <trkpt lat="43.06675" lon="2.46346">
        <ele>333</ele>
        <time>2022-05-02T20:52:50Z</time>
      </trkpt>
      <trkpt lat="43.06647" lon="2.46331">
        <ele>329</ele>
        <time>2022-05-02T20:52:55Z</time>
      </trkpt>
      <trkpt lat="43.06631" lon="2.46304">
        <ele>333</ele>
        <time>2022-05-02T20:53:00Z</time>
      </trkpt>
      <trkpt lat="43.06596" lon="2.46274">
        <ele>332</ele>
        <time>2022-05-02T20:53:07Z</time>
      </trkpt>
      <trkpt lat="43.06505" lon="2.46222">
        <ele>327</ele>
        <time>2022-05-02T20:53:25Z</time>
      </trkpt>
      <trkpt lat="43.06496" lon="2.46228">
        <ele>323</ele>
        <time>2022-05-02T20:53:26Z</time>
      </trkpt>
      <trkpt lat="43.06497" lon="2.46244">
        <ele>318</ele>
        <time>2022-05-02T20:53:29Z</time>
      </trkpt>
      <trkpt lat="43.06538" lon="2.4627">
        <ele>320</ele>
        <time>2022-05-02T20:53:37Z</time>
      </trkpt>
      <trkpt lat="43.06561" lon="2.46297">
        <ele>317</ele>
        <time>2022-05-02T20:53:42Z</time>
      </trkpt>
      <trkpt lat="43.06615" lon="2.46374">
        <ele>308</ele>
        <time>2022-05-02T20:53:56Z</time>
      </trkpt>
      <trkpt lat="43.06645" lon="2.46407">
        <ele>307</ele>
        <time>2022-05-02T20:54:03Z</time>
      </trkpt>
      <trkpt lat="43.06695" lon="2.46475">
        <ele>300</ele>
        <time>2022-05-02T20:54:15Z</time>
      </trkpt>
      <trkpt lat="43.06767" lon="2.46596">
        <ele>290</ele>
        <time>2022-05-02T20:54:36Z</time>
      </trkpt>
      <trkpt lat="43.06847" lon="2.46687">
        <ele>287</ele>
        <time>2022-05-02T20:54:54Z</time>
      </trkpt>
      <trkpt lat="43.06872" lon="2.46712">
        <ele>285</ele>
        <time>2022-05-02T20:55:00Z</time>
      </trkpt>
      <trkpt lat="43.06893" lon="2.46727">
        <ele>283</ele>
        <time>2022-05-02T20:55:04Z</time>
      </trkpt>
      <trkpt lat="43.06908" lon="2.46734">
        <ele>282</ele>
        <time>2022-05-02T20:55:07Z</time>
      </trkpt>
      <trkpt lat="43.06925" lon="2.46738">
        <ele>282</ele>
        <time>2022-05-02T20:55:10Z</time>
      </trkpt>
      <trkpt lat="43.0697" lon="2.4674">
        <ele>283</ele>
        <time>2022-05-02T20:55:18Z</time>
      </trkpt>
      <trkpt lat="43.06982" lon="2.46748">
        <ele>280</ele>
        <time>2022-05-02T20:55:20Z</time>
      </trkpt>
      <trkpt lat="43.07064" lon="2.46816">
        <ele>275</ele>
        <time>2022-05-02T20:55:37Z</time>
      </trkpt>
      <trkpt lat="43.07096" lon="2.46847">
        <ele>271</ele>
        <time>2022-05-02T20:55:44Z</time>
      </trkpt>
      <trkpt lat="43.07139" lon="2.46894">
        <ele>267</ele>
        <time>2022-05-02T20:55:54Z</time>
      </trkpt>
      <trkpt lat="43.07158" lon="2.46902">
        <ele>266</ele>
        <time>2022-05-02T20:55:57Z</time>
      </trkpt>
      <trkpt lat="43.07219" lon="2.46899">
        <ele>264</ele>
        <time>2022-05-02T20:56:08Z</time>
      </trkpt>
      <trkpt lat="43.07287" lon="2.46907">
        <ele>262</ele>
        <time>2022-05-02T20:56:20Z</time>
      </trkpt>
      <trkpt lat="43.073" lon="2.46914">
        <ele>261</ele>
        <time>2022-05-02T20:56:23Z</time>
      </trkpt>
      <trkpt lat="43.07324" lon="2.46951">
        <ele>258</ele>
        <time>2022-05-02T20:56:29Z</time>
      </trkpt>
      <trkpt lat="43.07338" lon="2.46982">
        <ele>256</ele>
        <time>2022-05-02T20:56:34Z</time>
      </trkpt>
      <trkpt lat="43.07344" lon="2.47004">
        <ele>255</ele>
        <time>2022-05-02T20:56:37Z</time>
      </trkpt>
      <trkpt lat="43.07355" lon="2.47072">
        <ele>253</ele>
        <time>2022-05-02T20:56:46Z</time>
      </trkpt>
      <trkpt lat="43.07366" lon="2.47116">
        <ele>253</ele>
        <time>2022-05-02T20:56:52Z</time>
      </trkpt>
      <trkpt lat="43.07382" lon="2.47158">
        <ele>252</ele>
        <time>2022-05-02T20:56:58Z</time>
      </trkpt>
      <trkpt lat="43.0739" lon="2.47168">
        <ele>251</ele>
        <time>2022-05-02T20:57:00Z</time>
      </trkpt>
      <trkpt lat="43.07405" lon="2.47182">
        <ele>251</ele>
        <time>2022-05-02T20:57:04Z</time>
      </trkpt>
      <trkpt lat="43.07419" lon="2.472">
        <ele>251</ele>
        <time>2022-05-02T20:57:07Z</time>
      </trkpt>
      <trkpt lat="43.07429" lon="2.4721">
        <ele>251</ele>
        <time>2022-05-02T20:57:09Z</time>
      </trkpt>
      <trkpt lat="43.07448" lon="2.47216">
        <ele>251</ele>
        <time>2022-05-02T20:57:13Z</time>
      </trkpt>
      <trkpt lat="43.07473" lon="2.4722">
        <ele>250</ele>
        <time>2022-05-02T20:57:17Z</time>
      </trkpt>
      <trkpt lat="43.07487" lon="2.47225">
        <ele>250</ele>
        <time>2022-05-02T20:57:20Z</time>
      </trkpt>
      <trkpt lat="43.07516" lon="2.47256">
        <ele>247</ele>
        <time>2022-05-02T20:57:26Z</time>
      </trkpt>
      <trkpt lat="43.07551" lon="2.47281">
        <ele>248</ele>
        <time>2022-05-02T20:57:33Z</time>
      </trkpt>
      <trkpt lat="43.07561" lon="2.47293">
        <ele>247</ele>
        <time>2022-05-02T20:57:36Z</time>
      </trkpt>
      <trkpt lat="43.07571" lon="2.4731">
        <ele>246</ele>
        <time>2022-05-02T20:57:38Z</time>
      </trkpt>
      <trkpt lat="43.07586" lon="2.47324">
        <ele>245</ele>
        <time>2022-05-02T20:57:42Z</time>
      </trkpt>
      <trkpt lat="43.07621" lon="2.47338">
        <ele>244</ele>
        <time>2022-05-02T20:57:48Z</time>
      </trkpt>
      <trkpt lat="43.07709" lon="2.47337">
        <ele>243</ele>
        <time>2022-05-02T20:58:04Z</time>
      </trkpt>
      <trkpt lat="43.07735" lon="2.47339">
        <ele>242</ele>
        <time>2022-05-02T20:58:08Z</time>
      </trkpt>
      <trkpt lat="43.07747" lon="2.47353">
        <ele>241</ele>
        <time>2022-05-02T20:58:11Z</time>
      </trkpt>
      <trkpt lat="43.07759" lon="2.47381">
        <ele>239</ele>
        <time>2022-05-02T20:58:15Z</time>
      </trkpt>
      <trkpt lat="43.0777" lon="2.47432">
        <ele>237</ele>
        <time>2022-05-02T20:58:22Z</time>
      </trkpt>
      <trkpt lat="43.07778" lon="2.47453">
        <ele>237</ele>
        <time>2022-05-02T20:58:25Z</time>
      </trkpt>
      <trkpt lat="43.07785" lon="2.47467">
        <ele>236</ele>
        <time>2022-05-02T20:58:28Z</time>
      </trkpt>
      <trkpt lat="43.07821" lon="2.47511">
        <ele>234</ele>
        <time>2022-05-02T20:58:36Z</time>
      </trkpt>
      <trkpt lat="43.07846" lon="2.47539">
        <ele>233</ele>
        <time>2022-05-02T20:58:42Z</time>
      </trkpt>
      <trkpt lat="43.07861" lon="2.47547">
        <ele>232</ele>
        <time>2022-05-02T20:58:45Z</time>
      </trkpt>
      <trkpt lat="43.07908" lon="2.47547">
        <ele>231</ele>
        <time>2022-05-02T20:58:53Z</time>
      </trkpt>
      <trkpt lat="43.07925" lon="2.47547">
        <ele>231</ele>
        <time>2022-05-02T20:58:56Z</time>
      </trkpt>
      <trkpt lat="43.07934" lon="2.47552">
        <ele>231</ele>
        <time>2022-05-02T20:58:58Z</time>
      </trkpt>
      <trkpt lat="43.07945" lon="2.47563">
        <ele>231</ele>
        <time>2022-05-02T20:59:00Z</time>
      </trkpt>
      <trkpt lat="43.07991" lon="2.47629">
        <ele>232</ele>
        <time>2022-05-02T20:59:12Z</time>
      </trkpt>
      <trkpt lat="43.08044" lon="2.47691">
        <ele>231</ele>
        <time>2022-05-02T20:59:25Z</time>
      </trkpt>
      <trkpt lat="43.08109" lon="2.47754">
        <ele>229</ele>
        <time>2022-05-02T20:59:39Z</time>
      </trkpt>
      <trkpt lat="43.08123" lon="2.47761">
        <ele>229</ele>
        <time>2022-05-02T20:59:41Z</time>
      </trkpt>
      <trkpt lat="43.08145" lon="2.47762">
        <ele>230</ele>
        <time>2022-05-02T20:59:45Z</time>
      </trkpt>
      <trkpt lat="43.08159" lon="2.47767">
        <ele>230</ele>
        <time>2022-05-02T20:59:48Z</time>
      </trkpt>
      <trkpt lat="43.08208" lon="2.47797">
        <ele>228</ele>
        <time>2022-05-02T20:59:58Z</time>
      </trkpt>
      <trkpt lat="43.08226" lon="2.47806">
        <ele>228</ele>
        <time>2022-05-02T21:00:01Z</time>
      </trkpt>
      <trkpt lat="43.08274" lon="2.47842">
        <ele>228</ele>
        <time>2022-05-02T21:00:11Z</time>
      </trkpt>
      <trkpt lat="43.08295" lon="2.4786">
        <ele>228</ele>
        <time>2022-05-02T21:00:15Z</time>
      </trkpt>
      <trkpt lat="43.08299" lon="2.47872">
        <ele>228</ele>
        <time>2022-05-02T21:00:17Z</time>
      </trkpt>
      <trkpt lat="43.083" lon="2.4789">
        <ele>227</ele>
        <time>2022-05-02T21:00:19Z</time>
      </trkpt>
      <trkpt lat="43.08295" lon="2.4792">
        <ele>227</ele>
        <time>2022-05-02T21:00:23Z</time>
      </trkpt>
      <trkpt lat="43.08296" lon="2.47937">
        <ele>227</ele>
        <time>2022-05-02T21:00:25Z</time>
      </trkpt>
      <trkpt lat="43.08301" lon="2.47951">
        <ele>227</ele>
        <time>2022-05-02T21:00:27Z</time>
      </trkpt>
      <trkpt lat="43.08354" lon="2.48011">
        <ele>226</ele>
        <time>2022-05-02T21:00:40Z</time>
      </trkpt>
      <trkpt lat="43.0836" lon="2.48019">
        <ele>226</ele>
        <time>2022-05-02T21:00:41Z</time>
      </trkpt>
      <trkpt lat="43.08371" lon="2.48041">
        <ele>226</ele>
        <time>2022-05-02T21:00:45Z</time>
      </trkpt>
      <trkpt lat="43.08374" lon="2.48056">
        <ele>226</ele>
        <time>2022-05-02T21:00:47Z</time>
      </trkpt>
      <trkpt lat="43.0837" lon="2.48164">
        <ele>223</ele>
        <time>2022-05-02T21:01:01Z</time>
      </trkpt>
      <trkpt lat="43.08371" lon="2.48188">
        <ele>223</ele>
        <time>2022-05-02T21:01:04Z</time>
      </trkpt>
      <trkpt lat="43.08378" lon="2.48216">
        <ele>223</ele>
        <time>2022-05-02T21:01:08Z</time>
      </trkpt>
      <trkpt lat="43.08385" lon="2.48236">
        <ele>223</ele>
        <time>2022-05-02T21:01:11Z</time>
      </trkpt>
      <trkpt lat="43.08457" lon="2.48385">
        <ele>222</ele>
        <time>2022-05-02T21:01:34Z</time>
      </trkpt>
      <trkpt lat="43.08469" lon="2.48419">
        <ele>222</ele>
        <time>2022-05-02T21:01:39Z</time>
      </trkpt>
      <trkpt lat="43.08487" lon="2.48584">
        <ele>220</ele>
        <time>2022-05-02T21:02:00Z</time>
      </trkpt>
      <trkpt lat="43.08488" lon="2.48609">
        <ele>220</ele>
        <time>2022-05-02T21:02:04Z</time>
      </trkpt>
      <trkpt lat="43.08486" lon="2.48675">
        <ele>220</ele>
        <time>2022-05-02T21:02:12Z</time>
      </trkpt>
      <trkpt lat="43.08489" lon="2.48937">
        <ele>215</ele>
        <time>2022-05-02T21:02:46Z</time>
      </trkpt>
      <trkpt lat="43.08491" lon="2.48965">
        <ele>214</ele>
        <time>2022-05-02T21:02:50Z</time>
      </trkpt>
      <trkpt lat="43.08495" lon="2.48987">
        <ele>213</ele>
        <time>2022-05-02T21:02:53Z</time>
      </trkpt>
      <trkpt lat="43.08511" lon="2.49102">
        <ele>214</ele>
        <time>2022-05-02T21:03:08Z</time>
      </trkpt>
      <trkpt lat="43.08509" lon="2.49132">
        <ele>214</ele>
        <time>2022-05-02T21:03:12Z</time>
      </trkpt>
      <trkpt lat="43.08506" lon="2.49154">
        <ele>214</ele>
        <time>2022-05-02T21:03:15Z</time>
      </trkpt>
      <trkpt lat="43.08498" lon="2.49195">
        <ele>214</ele>
        <time>2022-05-02T21:03:20Z</time>
      </trkpt>
      <trkpt lat="43.0847" lon="2.4927">
        <ele>213</ele>
        <time>2022-05-02T21:03:31Z</time>
      </trkpt>
      <trkpt lat="43.08464" lon="2.493">
        <ele>213</ele>
        <time>2022-05-02T21:03:35Z</time>
      </trkpt>
      <trkpt lat="43.08448" lon="2.49468">
        <ele>211</ele>
        <time>2022-05-02T21:03:57Z</time>
      </trkpt>
      <trkpt lat="43.08419" lon="2.49611">
        <ele>210</ele>
        <time>2022-05-02T21:04:17Z</time>
      </trkpt>
      <trkpt lat="43.0839" lon="2.49788">
        <ele>211</ele>
        <time>2022-05-02T21:04:40Z</time>
      </trkpt>
      <trkpt lat="43.08362" lon="2.50002">
        <ele>207</ele>
        <time>2022-05-02T21:05:08Z</time>
      </trkpt>
      <trkpt lat="43.08359" lon="2.50047">
        <ele>207</ele>
        <time>2022-05-02T21:05:14Z</time>
      </trkpt>
      <trkpt lat="43.08358" lon="2.50112">
        <ele>207</ele>
        <time>2022-05-02T21:05:23Z</time>
      </trkpt>
      <trkpt lat="43.08362" lon="2.50152">
        <ele>207</ele>
        <time>2022-05-02T21:05:28Z</time>
      </trkpt>
      <trkpt lat="43.08398" lon="2.50338">
        <ele>205</ele>
        <time>2022-05-02T21:05:53Z</time>
      </trkpt>
      <trkpt lat="43.084" lon="2.50355">
        <ele>205</ele>
        <time>2022-05-02T21:05:55Z</time>
      </trkpt>
      <trkpt lat="43.084" lon="2.50374">
        <ele>205</ele>
        <time>2022-05-02T21:05:58Z</time>
      </trkpt>
      <trkpt lat="43.08398" lon="2.50393">
        <ele>205</ele>
        <time>2022-05-02T21:06:00Z</time>
      </trkpt>
      <trkpt lat="43.08386" lon="2.50441">
        <ele>205</ele>
        <time>2022-05-02T21:06:07Z</time>
      </trkpt>
      <trkpt lat="43.08384" lon="2.50487">
        <ele>203</ele>
        <time>2022-05-02T21:06:13Z</time>
      </trkpt>
      <trkpt lat="43.08397" lon="2.50755">
        <ele>202</ele>
        <time>2022-05-02T21:06:48Z</time>
      </trkpt>
      <trkpt lat="43.08401" lon="2.50777">
        <ele>202</ele>
        <time>2022-05-02T21:06:51Z</time>
      </trkpt>
      <trkpt lat="43.08516" lon="2.51045">
        <ele>199</ele>
        <time>2022-05-02T21:07:31Z</time>
      </trkpt>
      <trkpt lat="43.08529" lon="2.51079">
        <ele>198</ele>
        <time>2022-05-02T21:07:36Z</time>
      </trkpt>
      <trkpt lat="43.08533" lon="2.51103">
        <ele>198</ele>
        <time>2022-05-02T21:07:39Z</time>
      </trkpt>
      <trkpt lat="43.08533" lon="2.51162">
        <ele>198</ele>
        <time>2022-05-02T21:07:47Z</time>
      </trkpt>
      <trkpt lat="43.08536" lon="2.51189">
        <ele>198</ele>
        <time>2022-05-02T21:07:50Z</time>
      </trkpt>
      <trkpt lat="43.08549" lon="2.51224">
        <ele>197</ele>
        <time>2022-05-02T21:07:56Z</time>
      </trkpt>
      <trkpt lat="43.08618" lon="2.51387">
        <ele>197</ele>
        <time>2022-05-02T21:08:20Z</time>
      </trkpt>
      <trkpt lat="43.08633" lon="2.51413">
        <ele>198</ele>
        <time>2022-05-02T21:08:24Z</time>
      </trkpt>
      <trkpt lat="43.0873" lon="2.51535">
        <ele>197</ele>
        <time>2022-05-02T21:08:48Z</time>
      </trkpt>
      <trkpt lat="43.08755" lon="2.51556">
        <ele>197</ele>
        <time>2022-05-02T21:08:53Z</time>
      </trkpt>
      <trkpt lat="43.0877" lon="2.51566">
        <ele>197</ele>
        <time>2022-05-02T21:08:56Z</time>
      </trkpt>
      <trkpt lat="43.08823" lon="2.51607">
        <ele>199</ele>
        <time>2022-05-02T21:09:07Z</time>
      </trkpt>
      <trkpt lat="43.08834" lon="2.51622">
        <ele>200</ele>
        <time>2022-05-02T21:09:10Z</time>
      </trkpt>
      <trkpt lat="43.08844" lon="2.5164">
        <ele>200</ele>
        <time>2022-05-02T21:09:13Z</time>
      </trkpt>
      <trkpt lat="43.08858" lon="2.51683">
        <ele>202</ele>
        <time>2022-05-02T21:09:19Z</time>
      </trkpt>
      <trkpt lat="43.08864" lon="2.5171">
        <ele>203</ele>
        <time>2022-05-02T21:09:22Z</time>
      </trkpt>
      <trkpt lat="43.08868" lon="2.51758">
        <ele>205</ele>
        <time>2022-05-02T21:09:29Z</time>
      </trkpt>
      <trkpt lat="43.08871" lon="2.51815">
        <ele>207</ele>
        <time>2022-05-02T21:09:36Z</time>
      </trkpt>
      <trkpt lat="43.08853" lon="2.51865">
        <ele>207</ele>
        <time>2022-05-02T21:09:43Z</time>
      </trkpt>
      <trkpt lat="43.08835" lon="2.51923">
        <ele>208</ele>
        <time>2022-05-02T21:09:51Z</time>
      </trkpt>
      <trkpt lat="43.08822" lon="2.51965">
        <ele>208</ele>
        <time>2022-05-02T21:09:57Z</time>
      </trkpt>
      <trkpt lat="43.08803" lon="2.52038">
        <ele>207</ele>
        <time>2022-05-02T21:10:07Z</time>
      </trkpt>
      <trkpt lat="43.08801" lon="2.52085">
        <ele>206</ele>
        <time>2022-05-02T21:10:14Z</time>
      </trkpt>
      <trkpt lat="43.08797" lon="2.52125">
        <ele>205</ele>
        <time>2022-05-02T21:10:19Z</time>
      </trkpt>
      <trkpt lat="43.08791" lon="2.52146">
        <ele>204</ele>
        <time>2022-05-02T21:10:22Z</time>
      </trkpt>
      <trkpt lat="43.08765" lon="2.52161">
        <ele>203</ele>
        <time>2022-05-02T21:10:27Z</time>
      </trkpt>
      <trkpt lat="43.08697" lon="2.52186">
        <ele>201</ele>
        <time>2022-05-02T21:10:39Z</time>
      </trkpt>
      <trkpt lat="43.08658" lon="2.52208">
        <ele>201</ele>
        <time>2022-05-02T21:10:47Z</time>
      </trkpt>
      <trkpt lat="43.08629" lon="2.5223">
        <ele>201</ele>
        <time>2022-05-02T21:10:53Z</time>
      </trkpt>
      <trkpt lat="43.08609" lon="2.52244">
        <ele>202</ele>
        <time>2022-05-02T21:10:57Z</time>
      </trkpt>
      <trkpt lat="43.0858" lon="2.52254">
        <ele>202</ele>
        <time>2022-05-02T21:11:02Z</time>
      </trkpt>
      <trkpt lat="43.0856" lon="2.52254">
        <ele>203</ele>
        <time>2022-05-02T21:11:06Z</time>
      </trkpt>
      <trkpt lat="43.08487" lon="2.52246">
        <ele>202</ele>
        <time>2022-05-02T21:11:19Z</time>
      </trkpt>
      <trkpt lat="43.08467" lon="2.52249">
        <ele>200</ele>
        <time>2022-05-02T21:11:22Z</time>
      </trkpt>
      <trkpt lat="43.08458" lon="2.52256">
        <ele>200</ele>
        <time>2022-05-02T21:11:24Z</time>
      </trkpt>
      <trkpt lat="43.08441" lon="2.52278">
        <ele>199</ele>
        <time>2022-05-02T21:11:28Z</time>
      </trkpt>
      <trkpt lat="43.08428" lon="2.5232">
        <ele>200</ele>
        <time>2022-05-02T21:11:34Z</time>
      </trkpt>
      <trkpt lat="43.08418" lon="2.52341">
        <ele>199</ele>
        <time>2022-05-02T21:11:37Z</time>
      </trkpt>
      <trkpt lat="43.08412" lon="2.5235">
        <ele>199</ele>
        <time>2022-05-02T21:11:39Z</time>
      </trkpt>
      <trkpt lat="43.08395" lon="2.52362">
        <ele>198</ele>
        <time>2022-05-02T21:11:42Z</time>
      </trkpt>
      <trkpt lat="43.08379" lon="2.52365">
        <ele>197</ele>
        <time>2022-05-02T21:11:45Z</time>
      </trkpt>
      <trkpt lat="43.08326" lon="2.52369">
        <ele>194</ele>
        <time>2022-05-02T21:11:55Z</time>
      </trkpt>
      <trkpt lat="43.08309" lon="2.52378">
        <ele>194</ele>
        <time>2022-05-02T21:11:58Z</time>
      </trkpt>
      <trkpt lat="43.083" lon="2.52389">
        <ele>194</ele>
        <time>2022-05-02T21:12:00Z</time>
      </trkpt>
      <trkpt lat="43.08279" lon="2.52452">
        <ele>194</ele>
        <time>2022-05-02T21:12:09Z</time>
      </trkpt>
      <trkpt lat="43.0826" lon="2.52538">
        <ele>194</ele>
        <time>2022-05-02T21:12:21Z</time>
      </trkpt>
      <trkpt lat="43.08238" lon="2.52658">
        <ele>197</ele>
        <time>2022-05-02T21:12:37Z</time>
      </trkpt>
      <trkpt lat="43.08205" lon="2.52857">
        <ele>193</ele>
        <time>2022-05-02T21:13:03Z</time>
      </trkpt>
      <trkpt lat="43.08198" lon="2.52876">
        <ele>192</ele>
        <time>2022-05-02T21:13:06Z</time>
      </trkpt>
      <trkpt lat="43.08179" lon="2.52915">
        <ele>189</ele>
        <time>2022-05-02T21:13:12Z</time>
      </trkpt>
      <trkpt lat="43.0817" lon="2.52928">
        <ele>188</ele>
        <time>2022-05-02T21:13:15Z</time>
      </trkpt>
      <trkpt lat="43.08132" lon="2.52967">
        <ele>187</ele>
        <time>2022-05-02T21:13:23Z</time>
      </trkpt>
      <trkpt lat="43.08127" lon="2.52981">
        <ele>186</ele>
        <time>2022-05-02T21:13:25Z</time>
      </trkpt>
      <trkpt lat="43.08124" lon="2.53002">
        <ele>186</ele>
        <time>2022-05-02T21:13:28Z</time>
      </trkpt>
      <trkpt lat="43.08119" lon="2.53077">
        <ele>187</ele>
        <time>2022-05-02T21:13:38Z</time>
      </trkpt>
      <trkpt lat="43.08112" lon="2.53092">
        <ele>186</ele>
        <time>2022-05-02T21:13:40Z</time>
      </trkpt>
      <trkpt lat="43.08123" lon="2.53144">
        <ele>186</ele>
        <time>2022-05-02T21:13:47Z</time>
      </trkpt>
      <trkpt lat="43.08133" lon="2.53182">
        <ele>186</ele>
        <time>2022-05-02T21:13:52Z</time>
      </trkpt>
      <trkpt lat="43.0816" lon="2.53229">
        <ele>186</ele>
        <time>2022-05-02T21:14:00Z</time>
      </trkpt>
      <trkpt lat="43.08329" lon="2.53613">
        <ele>184</ele>
        <time>2022-05-02T21:14:58Z</time>
      </trkpt>
      <trkpt lat="43.08355" lon="2.53674">
        <ele>183</ele>
        <time>2022-05-02T21:15:07Z</time>
      </trkpt>
      <trkpt lat="43.0837" lon="2.537">
        <ele>183</ele>
        <time>2022-05-02T21:15:12Z</time>
      </trkpt>
      <trkpt lat="43.08406" lon="2.53745">
        <ele>183</ele>
        <time>2022-05-02T21:15:20Z</time>
      </trkpt>
      <trkpt lat="43.08469" lon="2.53809">
        <ele>183</ele>
        <time>2022-05-02T21:15:34Z</time>
      </trkpt>
      <trkpt lat="43.0848" lon="2.53813">
        <ele>183</ele>
        <time>2022-05-02T21:15:36Z</time>
      </trkpt>
      <trkpt lat="43.08531" lon="2.53806">
        <ele>187</ele>
        <time>2022-05-02T21:15:45Z</time>
      </trkpt>
      <trkpt lat="43.08548" lon="2.53812">
        <ele>188</ele>
        <time>2022-05-02T21:15:49Z</time>
      </trkpt>
      <trkpt lat="43.08563" lon="2.53822">
        <ele>188</ele>
        <time>2022-05-02T21:15:52Z</time>
      </trkpt>
      <trkpt lat="43.08588" lon="2.5385">
        <ele>186</ele>
        <time>2022-05-02T21:15:57Z</time>
      </trkpt>
      <trkpt lat="43.08598" lon="2.53866">
        <ele>185</ele>
        <time>2022-05-02T21:16:00Z</time>
      </trkpt>
      <trkpt lat="43.08614" lon="2.53908">
        <ele>182</ele>
        <time>2022-05-02T21:16:06Z</time>
      </trkpt>
      <trkpt lat="43.08663" lon="2.53988">
        <ele>183</ele>
        <time>2022-05-02T21:16:20Z</time>
      </trkpt>
      <trkpt lat="43.0868" lon="2.5402">
        <ele>182</ele>
        <time>2022-05-02T21:16:25Z</time>
      </trkpt>
      <trkpt lat="43.08688" lon="2.5404">
        <ele>180</ele>
        <time>2022-05-02T21:16:28Z</time>
      </trkpt>
      <trkpt lat="43.08735" lon="2.54221">
        <ele>178</ele>
        <time>2022-05-02T21:16:53Z</time>
      </trkpt>
      <trkpt lat="43.08749" lon="2.54312">
        <ele>177</ele>
        <time>2022-05-02T21:17:05Z</time>
      </trkpt>
      <trkpt lat="43.08761" lon="2.54376">
        <ele>176</ele>
        <time>2022-05-02T21:17:13Z</time>
      </trkpt>
      <trkpt lat="43.08773" lon="2.54423">
        <ele>176</ele>
        <time>2022-05-02T21:17:20Z</time>
      </trkpt>
      <trkpt lat="43.08787" lon="2.54457">
        <ele>175</ele>
        <time>2022-05-02T21:17:25Z</time>
      </trkpt>
      <trkpt lat="43.08813" lon="2.5453">
        <ele>175</ele>
        <time>2022-05-02T21:17:36Z</time>
      </trkpt>
      <trkpt lat="43.08851" lon="2.54615">
        <ele>174</ele>
        <time>2022-05-02T21:17:49Z</time>
      </trkpt>
      <trkpt lat="43.08869" lon="2.54652">
        <ele>174</ele>
        <time>2022-05-02T21:17:54Z</time>
      </trkpt>
      <trkpt lat="43.08932" lon="2.5481">
        <ele>171</ele>
        <time>2022-05-02T21:18:18Z</time>
      </trkpt>
      <trkpt lat="43.08948" lon="2.54839">
        <ele>171</ele>
        <time>2022-05-02T21:18:22Z</time>
      </trkpt>
      <trkpt lat="43.08964" lon="2.5486">
        <ele>171</ele>
        <time>2022-05-02T21:18:26Z</time>
      </trkpt>
      <trkpt lat="43.08991" lon="2.54882">
        <ele>170</ele>
        <time>2022-05-02T21:18:32Z</time>
      </trkpt>
      <trkpt lat="43.09046" lon="2.54911">
        <ele>170</ele>
        <time>2022-05-02T21:18:42Z</time>
      </trkpt>
      <trkpt lat="43.09065" lon="2.54921">
        <ele>170</ele>
        <time>2022-05-02T21:18:46Z</time>
      </trkpt>
      <trkpt lat="43.09198" lon="2.54987">
        <ele>172</ele>
        <time>2022-05-02T21:19:11Z</time>
      </trkpt>
      <trkpt lat="43.09242" lon="2.55009">
        <ele>173</ele>
        <time>2022-05-02T21:19:20Z</time>
      </trkpt>
      <trkpt lat="43.09235" lon="2.55044">
        <ele>172</ele>
        <time>2022-05-02T21:19:24Z</time>
      </trkpt>
      <trkpt lat="43.09225" lon="2.55078">
        <ele>171</ele>
        <time>2022-05-02T21:19:29Z</time>
      </trkpt>
      <trkpt lat="43.09172" lon="2.5524">
        <ele>170</ele>
        <time>2022-05-02T21:19:52Z</time>
      </trkpt>
      <trkpt lat="43.09141" lon="2.55339">
        <ele>168</ele>
        <time>2022-05-02T21:20:06Z</time>
      </trkpt>
      <trkpt lat="43.0911" lon="2.55435">
        <ele>170</ele>
        <time>2022-05-02T21:20:20Z</time>
      </trkpt>
      <trkpt lat="43.09105" lon="2.55449">
        <ele>171</ele>
        <time>2022-05-02T21:20:22Z</time>
      </trkpt>
      <trkpt lat="43.09098" lon="2.55469">
        <ele>172</ele>
        <time>2022-05-02T21:20:25Z</time>
      </trkpt>
      <trkpt lat="43.09064" lon="2.55528">
        <ele>177</ele>
        <time>2022-05-02T21:20:34Z</time>
      </trkpt>
      <trkpt lat="43.09055" lon="2.55552">
        <ele>178</ele>
        <time>2022-05-02T21:20:38Z</time>
      </trkpt>
      <trkpt lat="43.09038" lon="2.55613">
        <ele>179</ele>
        <time>2022-05-02T21:20:46Z</time>
      </trkpt>
      <trkpt lat="43.08999" lon="2.55774">
        <ele>172</ele>
        <time>2022-05-02T21:21:08Z</time>
      </trkpt>
      <trkpt lat="43.08993" lon="2.55801">
        <ele>173</ele>
        <time>2022-05-02T21:21:12Z</time>
      </trkpt>
      <trkpt lat="43.08993" lon="2.55822">
        <ele>172</ele>
        <time>2022-05-02T21:21:15Z</time>
      </trkpt>
      <trkpt lat="43.08996" lon="2.55839">
        <ele>171</ele>
        <time>2022-05-02T21:21:17Z</time>
      </trkpt>
      <trkpt lat="43.09006" lon="2.55854">
        <ele>171</ele>
        <time>2022-05-02T21:21:20Z</time>
      </trkpt>
      <trkpt lat="43.09018" lon="2.55863">
        <ele>171</ele>
        <time>2022-05-02T21:21:22Z</time>
      </trkpt>
      <trkpt lat="43.09037" lon="2.55865">
        <ele>171</ele>
        <time>2022-05-02T21:21:26Z</time>
      </trkpt>
      <trkpt lat="43.09091" lon="2.55855">
        <ele>171</ele>
        <time>2022-05-02T21:21:35Z</time>
      </trkpt>
      <trkpt lat="43.09099" lon="2.55856">
        <ele>171</ele>
        <time>2022-05-02T21:21:37Z</time>
      </trkpt>
      <trkpt lat="43.0911" lon="2.55861">
        <ele>171</ele>
        <time>2022-05-02T21:21:39Z</time>
      </trkpt>
      <trkpt lat="43.09118" lon="2.55872">
        <ele>171</ele>
        <time>2022-05-02T21:21:41Z</time>
      </trkpt>
      <trkpt lat="43.09121" lon="2.55881">
        <ele>171</ele>
        <time>2022-05-02T21:21:42Z</time>
      </trkpt>
      <trkpt lat="43.09122" lon="2.55893">
        <ele>170</ele>
        <time>2022-05-02T21:21:44Z</time>
      </trkpt>
      <trkpt lat="43.0912" lon="2.55946">
        <ele>171</ele>
        <time>2022-05-02T21:21:51Z</time>
      </trkpt>
      <trkpt lat="43.09122" lon="2.55991">
        <ele>173</ele>
        <time>2022-05-02T21:21:56Z</time>
      </trkpt>
      <trkpt lat="43.09138" lon="2.56109">
        <ele>175</ele>
        <time>2022-05-02T21:22:12Z</time>
      </trkpt>
      <trkpt lat="43.09137" lon="2.56139">
        <ele>175</ele>
        <time>2022-05-02T21:22:16Z</time>
      </trkpt>
      <trkpt lat="43.09122" lon="2.56235">
        <ele>178</ele>
        <time>2022-05-02T21:22:29Z</time>
      </trkpt>
      <trkpt lat="43.09113" lon="2.56311">
        <ele>178</ele>
        <time>2022-05-02T21:22:39Z</time>
      </trkpt>
      <trkpt lat="43.09101" lon="2.56371">
        <ele>176</ele>
        <time>2022-05-02T21:22:47Z</time>
      </trkpt>
      <trkpt lat="43.09078" lon="2.56472">
        <ele>169</ele>
        <time>2022-05-02T21:23:00Z</time>
      </trkpt>
      <trkpt lat="43.09063" lon="2.56551">
        <ele>169</ele>
        <time>2022-05-02T21:23:11Z</time>
      </trkpt>
      <trkpt lat="43.09033" lon="2.56659">
        <ele>172</ele>
        <time>2022-05-02T21:23:26Z</time>
      </trkpt>
      <trkpt lat="43.09001" lon="2.56758">
        <ele>168</ele>
        <time>2022-05-02T21:23:40Z</time>
      </trkpt>
      <trkpt lat="43.08988" lon="2.56815">
        <ele>169</ele>
        <time>2022-05-02T21:23:48Z</time>
      </trkpt>
      <trkpt lat="43.08977" lon="2.56869">
        <ele>170</ele>
        <time>2022-05-02T21:23:55Z</time>
      </trkpt>
      <trkpt lat="43.08956" lon="2.5702">
        <ele>170</ele>
        <time>2022-05-02T21:24:15Z</time>
      </trkpt>
      <trkpt lat="43.08953" lon="2.57032">
        <ele>170</ele>
        <time>2022-05-02T21:24:17Z</time>
      </trkpt>
      <trkpt lat="43.08941" lon="2.5707">
        <ele>172</ele>
        <time>2022-05-02T21:24:22Z</time>
      </trkpt>
      <trkpt lat="43.08934" lon="2.57102">
        <ele>173</ele>
        <time>2022-05-02T21:24:27Z</time>
      </trkpt>
      <trkpt lat="43.08929" lon="2.57143">
        <ele>173</ele>
        <time>2022-05-02T21:24:32Z</time>
      </trkpt>
      <trkpt lat="43.08928" lon="2.57156">
        <ele>174</ele>
        <time>2022-05-02T21:24:34Z</time>
      </trkpt>
      <trkpt lat="43.0893" lon="2.57175">
        <ele>174</ele>
        <time>2022-05-02T21:24:36Z</time>
      </trkpt>
      <trkpt lat="43.08936" lon="2.57195">
        <ele>176</ele>
        <time>2022-05-02T21:24:39Z</time>
      </trkpt>
      <trkpt lat="43.08941" lon="2.57204">
        <ele>176</ele>
        <time>2022-05-02T21:24:40Z</time>
      </trkpt>
      <trkpt lat="43.08954" lon="2.57219">
        <ele>176</ele>
        <time>2022-05-02T21:24:43Z</time>
      </trkpt>
      <trkpt lat="43.08969" lon="2.57232">
        <ele>175</ele>
        <time>2022-05-02T21:24:47Z</time>
      </trkpt>
      <trkpt lat="43.08976" lon="2.57237">
        <ele>175</ele>
        <time>2022-05-02T21:24:48Z</time>
      </trkpt>
      <trkpt lat="43.0899" lon="2.57242">
        <ele>173</ele>
        <time>2022-05-02T21:24:51Z</time>
      </trkpt>
      <trkpt lat="43.08997" lon="2.57242">
        <ele>172</ele>
        <time>2022-05-02T21:24:52Z</time>
      </trkpt>
      <trkpt lat="43.09011" lon="2.5724">
        <ele>173</ele>
        <time>2022-05-02T21:24:54Z</time>
      </trkpt>
      <trkpt lat="43.09022" lon="2.57234">
        <ele>173</ele>
        <time>2022-05-02T21:24:56Z</time>
      </trkpt>
      <trkpt lat="43.09104" lon="2.57177">
        <ele>166</ele>
        <time>2022-05-02T21:25:13Z</time>
      </trkpt>
      <trkpt lat="43.09125" lon="2.57169">
        <ele>163</ele>
        <time>2022-05-02T21:25:17Z</time>
      </trkpt>
      <trkpt lat="43.09324" lon="2.57186">
        <ele>162</ele>
        <time>2022-05-02T21:25:52Z</time>
      </trkpt>
      <trkpt lat="43.09368" lon="2.57199">
        <ele>163</ele>
        <time>2022-05-02T21:26:00Z</time>
      </trkpt>
      <trkpt lat="43.09376" lon="2.57205">
        <ele>163</ele>
        <time>2022-05-02T21:26:02Z</time>
      </trkpt>
      <trkpt lat="43.09387" lon="2.57223">
        <ele>163</ele>
        <time>2022-05-02T21:26:05Z</time>
      </trkpt>
      <trkpt lat="43.09392" lon="2.57247">
        <ele>162</ele>
        <time>2022-05-02T21:26:08Z</time>
      </trkpt>
      <trkpt lat="43.09393" lon="2.57259">
        <ele>162</ele>
        <time>2022-05-02T21:26:10Z</time>
      </trkpt>
      <trkpt lat="43.09392" lon="2.57271">
        <ele>163</ele>
        <time>2022-05-02T21:26:11Z</time>
      </trkpt>
      <trkpt lat="43.09386" lon="2.57293">
        <ele>164</ele>
        <time>2022-05-02T21:26:14Z</time>
      </trkpt>
      <trkpt lat="43.09352" lon="2.5736">
        <ele>170</ele>
        <time>2022-05-02T21:26:25Z</time>
      </trkpt>
      <trkpt lat="43.09329" lon="2.57413">
        <ele>167</ele>
        <time>2022-05-02T21:26:33Z</time>
      </trkpt>
      <trkpt lat="43.09307" lon="2.57476">
        <ele>172</ele>
        <time>2022-05-02T21:26:42Z</time>
      </trkpt>
      <trkpt lat="43.09275" lon="2.57586">
        <ele>173</ele>
        <time>2022-05-02T21:26:57Z</time>
      </trkpt>
      <trkpt lat="43.0927" lon="2.57646">
        <ele>166</ele>
        <time>2022-05-02T21:27:05Z</time>
      </trkpt>
      <trkpt lat="43.09264" lon="2.57682">
        <ele>162</ele>
        <time>2022-05-02T21:27:10Z</time>
      </trkpt>
      <trkpt lat="43.09257" lon="2.577">
        <ele>160</ele>
        <time>2022-05-02T21:27:13Z</time>
      </trkpt>
      <trkpt lat="43.09227" lon="2.57737">
        <ele>156</ele>
        <time>2022-05-02T21:27:20Z</time>
      </trkpt>
      <trkpt lat="43.09205" lon="2.57755">
        <ele>155</ele>
        <time>2022-05-02T21:27:24Z</time>
      </trkpt>
      <trkpt lat="43.09185" lon="2.57767">
        <ele>156</ele>
        <time>2022-05-02T21:27:28Z</time>
      </trkpt>
      <trkpt lat="43.09122" lon="2.5778">
        <ele>159</ele>
        <time>2022-05-02T21:27:40Z</time>
      </trkpt>
      <trkpt lat="43.09069" lon="2.57787">
        <ele>162</ele>
        <time>2022-05-02T21:27:49Z</time>
      </trkpt>
      <trkpt lat="43.09051" lon="2.57792">
        <ele>163</ele>
        <time>2022-05-02T21:27:52Z</time>
      </trkpt>
      <trkpt lat="43.09039" lon="2.57801">
        <ele>162</ele>
        <time>2022-05-02T21:27:55Z</time>
      </trkpt>
      <trkpt lat="43.09033" lon="2.57812">
        <ele>159</ele>
        <time>2022-05-02T21:27:57Z</time>
      </trkpt>
      <trkpt lat="43.09033" lon="2.57831">
        <ele>154</ele>
        <time>2022-05-02T21:27:59Z</time>
      </trkpt>
      <trkpt lat="43.09039" lon="2.57875">
        <ele>155</ele>
        <time>2022-05-02T21:28:05Z</time>
      </trkpt>
      <trkpt lat="43.09039" lon="2.57897">
        <ele>156</ele>
        <time>2022-05-02T21:28:08Z</time>
      </trkpt>
      <trkpt lat="43.09034" lon="2.57914">
        <ele>156</ele>
        <time>2022-05-02T21:28:10Z</time>
      </trkpt>
      <trkpt lat="43.09019" lon="2.57946">
        <ele>155</ele>
        <time>2022-05-02T21:28:15Z</time>
      </trkpt>
      <trkpt lat="43.09003" lon="2.5803">
        <ele>153</ele>
        <time>2022-05-02T21:28:26Z</time>
      </trkpt>
      <trkpt lat="43.09" lon="2.5806">
        <ele>152</ele>
        <time>2022-05-02T21:28:30Z</time>
      </trkpt>
      <trkpt lat="43.09001" lon="2.58085">
        <ele>152</ele>
        <time>2022-05-02T21:28:33Z</time>
      </trkpt>
      <trkpt lat="43.09009" lon="2.58135">
        <ele>155</ele>
        <time>2022-05-02T21:28:40Z</time>
      </trkpt>
      <trkpt lat="43.09007" lon="2.58166">
        <ele>154</ele>
        <time>2022-05-02T21:28:44Z</time>
      </trkpt>
      <trkpt lat="43.09003" lon="2.58192">
        <ele>153</ele>
        <time>2022-05-02T21:28:48Z</time>
      </trkpt>
      <trkpt lat="43.08992" lon="2.5823">
        <ele>154</ele>
        <time>2022-05-02T21:28:53Z</time>
      </trkpt>
      <trkpt lat="43.08989" lon="2.58248">
        <ele>155</ele>
        <time>2022-05-02T21:28:55Z</time>
      </trkpt>
      <trkpt lat="43.08983" lon="2.5836">
        <ele>153</ele>
        <time>2022-05-02T21:29:10Z</time>
      </trkpt>
      <trkpt lat="43.08979" lon="2.58379">
        <ele>152</ele>
        <time>2022-05-02T21:29:13Z</time>
      </trkpt>
      <trkpt lat="43.0897" lon="2.58411">
        <ele>150</ele>
        <time>2022-05-02T21:29:17Z</time>
      </trkpt>
      <trkpt lat="43.08969" lon="2.58432">
        <ele>150</ele>
        <time>2022-05-02T21:29:20Z</time>
      </trkpt>
      <trkpt lat="43.08972" lon="2.58456">
        <ele>149</ele>
        <time>2022-05-02T21:29:23Z</time>
      </trkpt>
      <trkpt lat="43.08981" lon="2.58478">
        <ele>148</ele>
        <time>2022-05-02T21:29:26Z</time>
      </trkpt>
      <trkpt lat="43.0899" lon="2.58496">
        <ele>146</ele>
        <time>2022-05-02T21:29:29Z</time>
      </trkpt>
      <trkpt lat="43.08998" lon="2.58507">
        <ele>146</ele>
        <time>2022-05-02T21:29:31Z</time>
      </trkpt>
      <trkpt lat="43.09009" lon="2.5851">
        <ele>146</ele>
        <time>2022-05-02T21:29:33Z</time>
      </trkpt>
      <trkpt lat="43.09019" lon="2.5851">
        <ele>146</ele>
        <time>2022-05-02T21:29:35Z</time>
      </trkpt>
      <trkpt lat="43.09033" lon="2.58502">
        <ele>146</ele>
        <time>2022-05-02T21:29:37Z</time>
      </trkpt>
      <trkpt lat="43.09042" lon="2.58487">
        <ele>146</ele>
        <time>2022-05-02T21:29:40Z</time>
      </trkpt>
      <trkpt lat="43.09062" lon="2.58434">
        <ele>148</ele>
        <time>2022-05-02T21:29:48Z</time>
      </trkpt>
      <trkpt lat="43.09079" lon="2.58402">
        <ele>148</ele>
        <time>2022-05-02T21:29:53Z</time>
      </trkpt>
      <trkpt lat="43.09093" lon="2.58363">
        <ele>150</ele>
        <time>2022-05-02T21:29:59Z</time>
      </trkpt>
      <trkpt lat="43.09113" lon="2.5833">
        <ele>150</ele>
        <time>2022-05-02T21:30:04Z</time>
      </trkpt>
      <trkpt lat="43.09152" lon="2.58296">
        <ele>158</ele>
        <time>2022-05-02T21:30:12Z</time>
      </trkpt>
      <trkpt lat="43.09173" lon="2.58285">
        <ele>161</ele>
        <time>2022-05-02T21:30:16Z</time>
      </trkpt>
      <trkpt lat="43.09188" lon="2.58282">
        <ele>163</ele>
        <time>2022-05-02T21:30:19Z</time>
      </trkpt>
      <trkpt lat="43.09206" lon="2.58284">
        <ele>164</ele>
        <time>2022-05-02T21:30:22Z</time>
      </trkpt>
      <trkpt lat="43.09227" lon="2.58291">
        <ele>162</ele>
        <time>2022-05-02T21:30:26Z</time>
      </trkpt>
      <trkpt lat="43.09246" lon="2.58304">
        <ele>158</ele>
        <time>2022-05-02T21:30:30Z</time>
      </trkpt>
      <trkpt lat="43.09275" lon="2.5833">
        <ele>156</ele>
        <time>2022-05-02T21:30:36Z</time>
      </trkpt>
      <trkpt lat="43.09301" lon="2.58365">
        <ele>158</ele>
        <time>2022-05-02T21:30:43Z</time>
      </trkpt>
      <trkpt lat="43.09316" lon="2.58391">
        <ele>157</ele>
        <time>2022-05-02T21:30:47Z</time>
      </trkpt>
      <trkpt lat="43.09322" lon="2.58405">
        <ele>155</ele>
        <time>2022-05-02T21:30:49Z</time>
      </trkpt>
      <trkpt lat="43.09326" lon="2.58421">
        <ele>153</ele>
        <time>2022-05-02T21:30:51Z</time>
      </trkpt>
      <trkpt lat="43.09327" lon="2.5844">
        <ele>152</ele>
        <time>2022-05-02T21:30:54Z</time>
      </trkpt>
      <trkpt lat="43.09287" lon="2.58629">
        <ele>150</ele>
        <time>2022-05-02T21:31:19Z</time>
      </trkpt>
      <trkpt lat="43.09271" lon="2.58757">
        <ele>150</ele>
        <time>2022-05-02T21:31:36Z</time>
      </trkpt>
      <trkpt lat="43.09263" lon="2.588">
        <ele>147</ele>
        <time>2022-05-02T21:31:42Z</time>
      </trkpt>
      <trkpt lat="43.09247" lon="2.58865">
        <ele>143</ele>
        <time>2022-05-02T21:31:51Z</time>
      </trkpt>
      <trkpt lat="43.09223" lon="2.58953">
        <ele>146</ele>
        <time>2022-05-02T21:32:03Z</time>
      </trkpt>
      <trkpt lat="43.09218" lon="2.58975">
        <ele>146</ele>
        <time>2022-05-02T21:32:06Z</time>
      </trkpt>
      <trkpt lat="43.09214" lon="2.59001">
        <ele>145</ele>
        <time>2022-05-02T21:32:09Z</time>
      </trkpt>
      <trkpt lat="43.09211" lon="2.59058">
        <ele>147</ele>
        <time>2022-05-02T21:32:17Z</time>
      </trkpt>
      <trkpt lat="43.09211" lon="2.59242">
        <ele>146</ele>
        <time>2022-05-02T21:32:41Z</time>
      </trkpt>
      <trkpt lat="43.09209" lon="2.5933">
        <ele>145</ele>
        <time>2022-05-02T21:32:52Z</time>
      </trkpt>
      <trkpt lat="43.09204" lon="2.59355">
        <ele>143</ele>
        <time>2022-05-02T21:32:56Z</time>
      </trkpt>
      <trkpt lat="43.09195" lon="2.59386">
        <ele>141</ele>
        <time>2022-05-02T21:33:00Z</time>
      </trkpt>
      <trkpt lat="43.09181" lon="2.59418">
        <ele>137</ele>
        <time>2022-05-02T21:33:05Z</time>
      </trkpt>
      <trkpt lat="43.09175" lon="2.59443">
        <ele>135</ele>
        <time>2022-05-02T21:33:08Z</time>
      </trkpt>
      <trkpt lat="43.09174" lon="2.59462">
        <ele>135</ele>
        <time>2022-05-02T21:33:11Z</time>
      </trkpt>
      <trkpt lat="43.09181" lon="2.595">
        <ele>135</ele>
        <time>2022-05-02T21:33:16Z</time>
      </trkpt>
      <trkpt lat="43.09186" lon="2.59513">
        <ele>136</ele>
        <time>2022-05-02T21:33:18Z</time>
      </trkpt>
      <trkpt lat="43.09193" lon="2.59524">
        <ele>138</ele>
        <time>2022-05-02T21:33:19Z</time>
      </trkpt>
      <trkpt lat="43.09207" lon="2.59536">
        <ele>138</ele>
        <time>2022-05-02T21:33:22Z</time>
      </trkpt>
      <trkpt lat="43.09217" lon="2.5954">
        <ele>137</ele>
        <time>2022-05-02T21:33:24Z</time>
      </trkpt>
      <trkpt lat="43.09259" lon="2.59549">
        <ele>136</ele>
        <time>2022-05-02T21:33:32Z</time>
      </trkpt>
      <trkpt lat="43.09271" lon="2.59553">
        <ele>139</ele>
        <time>2022-05-02T21:33:34Z</time>
      </trkpt>
      <trkpt lat="43.09278" lon="2.59558">
        <ele>141</ele>
        <time>2022-05-02T21:33:35Z</time>
      </trkpt>
      <trkpt lat="43.09291" lon="2.59573">
        <ele>143</ele>
        <time>2022-05-02T21:33:38Z</time>
      </trkpt>
      <trkpt lat="43.09304" lon="2.59603">
        <ele>146</ele>
        <time>2022-05-02T21:33:43Z</time>
      </trkpt>
      <trkpt lat="43.09307" lon="2.59619">
        <ele>147</ele>
        <time>2022-05-02T21:33:45Z</time>
      </trkpt>
      <trkpt lat="43.09309" lon="2.59632">
        <ele>148</ele>
        <time>2022-05-02T21:33:47Z</time>
      </trkpt>
      <trkpt lat="43.09306" lon="2.59659">
        <ele>147</ele>
        <time>2022-05-02T21:33:50Z</time>
      </trkpt>
      <trkpt lat="43.09291" lon="2.59691">
        <ele>145</ele>
        <time>2022-05-02T21:33:55Z</time>
      </trkpt>
      <trkpt lat="43.09279" lon="2.59711">
        <ele>144</ele>
        <time>2022-05-02T21:33:59Z</time>
      </trkpt>
      <trkpt lat="43.09206" lon="2.59804">
        <ele>142</ele>
        <time>2022-05-02T21:34:16Z</time>
      </trkpt>
      <trkpt lat="43.09161" lon="2.59851">
        <ele>138</ele>
        <time>2022-05-02T21:34:27Z</time>
      </trkpt>
      <trkpt lat="43.09138" lon="2.59881">
        <ele>139</ele>
        <time>2022-05-02T21:34:32Z</time>
      </trkpt>
      <trkpt lat="43.0912" lon="2.59912">
        <ele>137</ele>
        <time>2022-05-02T21:34:37Z</time>
      </trkpt>
      <trkpt lat="43.09106" lon="2.59947">
        <ele>134</ele>
        <time>2022-05-02T21:34:43Z</time>
      </trkpt>
      <trkpt lat="43.091" lon="2.59964">
        <ele>133</ele>
        <time>2022-05-02T21:34:45Z</time>
      </trkpt>
      <trkpt lat="43.09095" lon="2.59994">
        <ele>132</ele>
        <time>2022-05-02T21:34:49Z</time>
      </trkpt>
      <trkpt lat="43.09095" lon="2.60024">
        <ele>131</ele>
        <time>2022-05-02T21:34:53Z</time>
      </trkpt>
      <trkpt lat="43.09099" lon="2.60041">
        <ele>130</ele>
        <time>2022-05-02T21:34:55Z</time>
      </trkpt>
      <trkpt lat="43.09105" lon="2.60059">
        <ele>130</ele>
        <time>2022-05-02T21:34:58Z</time>
      </trkpt>
      <trkpt lat="43.09112" lon="2.60072">
        <ele>130</ele>
        <time>2022-05-02T21:35:00Z</time>
      </trkpt>
      <trkpt lat="43.09123" lon="2.60085">
        <ele>130</ele>
        <time>2022-05-02T21:35:02Z</time>
      </trkpt>
      <trkpt lat="43.09133" lon="2.60093">
        <ele>130</ele>
        <time>2022-05-02T21:35:05Z</time>
      </trkpt>
      <trkpt lat="43.09145" lon="2.601">
        <ele>130</ele>
        <time>2022-05-02T21:35:07Z</time>
      </trkpt>
      <trkpt lat="43.09161" lon="2.60105">
        <ele>131</ele>
        <time>2022-05-02T21:35:10Z</time>
      </trkpt>
      <trkpt lat="43.09233" lon="2.60122">
        <ele>129</ele>
        <time>2022-05-02T21:35:23Z</time>
      </trkpt>
      <trkpt lat="43.09251" lon="2.6012">
        <ele>130</ele>
        <time>2022-05-02T21:35:26Z</time>
      </trkpt>
      <trkpt lat="43.09263" lon="2.60116">
        <ele>130</ele>
        <time>2022-05-02T21:35:28Z</time>
      </trkpt>
      <trkpt lat="43.09276" lon="2.60105">
        <ele>130</ele>
        <time>2022-05-02T21:35:31Z</time>
      </trkpt>
      <trkpt lat="43.09287" lon="2.60091">
        <ele>130</ele>
        <time>2022-05-02T21:35:34Z</time>
      </trkpt>
      <trkpt lat="43.09296" lon="2.60072">
        <ele>130</ele>
        <time>2022-05-02T21:35:36Z</time>
      </trkpt>
      <trkpt lat="43.09329" lon="2.5996">
        <ele>132</ele>
        <time>2022-05-02T21:35:52Z</time>
      </trkpt>
      <trkpt lat="43.09346" lon="2.59916">
        <ele>134</ele>
        <time>2022-05-02T21:35:59Z</time>
      </trkpt>
      <trkpt lat="43.09361" lon="2.59903">
        <ele>135</ele>
        <time>2022-05-02T21:36:02Z</time>
      </trkpt>
      <trkpt lat="43.09379" lon="2.59903">
        <ele>131</ele>
        <time>2022-05-02T21:36:05Z</time>
      </trkpt>
      <trkpt lat="43.09392" lon="2.59912">
        <ele>127</ele>
        <time>2022-05-02T21:36:08Z</time>
      </trkpt>
      <trkpt lat="43.09428" lon="2.59944">
        <ele>122</ele>
        <time>2022-05-02T21:36:15Z</time>
      </trkpt>
      <trkpt lat="43.09442" lon="2.59958">
        <ele>123</ele>
        <time>2022-05-02T21:36:18Z</time>
      </trkpt>
      <trkpt lat="43.09451" lon="2.5997">
        <ele>124</ele>
        <time>2022-05-02T21:36:21Z</time>
      </trkpt>
      <trkpt lat="43.09458" lon="2.59989">
        <ele>123</ele>
        <time>2022-05-02T21:36:23Z</time>
      </trkpt>
      <trkpt lat="43.09461" lon="2.60018">
        <ele>124</ele>
        <time>2022-05-02T21:36:27Z</time>
      </trkpt>
      <trkpt lat="43.09469" lon="2.60344">
        <ele>136</ele>
        <time>2022-05-02T21:37:10Z</time>
      </trkpt>
      <trkpt lat="43.09475" lon="2.60379">
        <ele>137</ele>
        <time>2022-05-02T21:37:14Z</time>
      </trkpt>
      <trkpt lat="43.0949" lon="2.6043">
        <ele>132</ele>
        <time>2022-05-02T21:37:21Z</time>
      </trkpt>
      <trkpt lat="43.09541" lon="2.60555">
        <ele>126</ele>
        <time>2022-05-02T21:37:40Z</time>
      </trkpt>
      <trkpt lat="43.09544" lon="2.60566">
        <ele>126</ele>
        <time>2022-05-02T21:37:41Z</time>
      </trkpt>
      <trkpt lat="43.09544" lon="2.60588">
        <ele>126</ele>
        <time>2022-05-02T21:37:44Z</time>
      </trkpt>
      <trkpt lat="43.09537" lon="2.60605">
        <ele>125</ele>
        <time>2022-05-02T21:37:47Z</time>
      </trkpt>
      <trkpt lat="43.09521" lon="2.60625">
        <ele>124</ele>
        <time>2022-05-02T21:37:51Z</time>
      </trkpt>
      <trkpt lat="43.09323" lon="2.6083">
        <ele>121</ele>
        <time>2022-05-02T21:38:35Z</time>
      </trkpt>
      <trkpt lat="43.09282" lon="2.60875">
        <ele>128</ele>
        <time>2022-05-02T21:38:44Z</time>
      </trkpt>
      <trkpt lat="43.09241" lon="2.60934">
        <ele>129</ele>
        <time>2022-05-02T21:38:55Z</time>
      </trkpt>
      <trkpt lat="43.09179" lon="2.61006">
        <ele>132</ele>
        <time>2022-05-02T21:39:09Z</time>
      </trkpt>
      <trkpt lat="43.09149" lon="2.61045">
        <ele>131</ele>
        <time>2022-05-02T21:39:17Z</time>
      </trkpt>
      <trkpt lat="43.09136" lon="2.61067">
        <ele>130</ele>
        <time>2022-05-02T21:39:20Z</time>
      </trkpt>
      <trkpt lat="43.09129" lon="2.61085">
        <ele>129</ele>
        <time>2022-05-02T21:39:23Z</time>
      </trkpt>
      <trkpt lat="43.09127" lon="2.61103">
        <ele>128</ele>
        <time>2022-05-02T21:39:25Z</time>
      </trkpt>
      <trkpt lat="43.09133" lon="2.61194">
        <ele>126</ele>
        <time>2022-05-02T21:39:37Z</time>
      </trkpt>
      <trkpt lat="43.09134" lon="2.61284">
        <ele>131</ele>
        <time>2022-05-02T21:39:49Z</time>
      </trkpt>
      <trkpt lat="43.09137" lon="2.61304">
        <ele>131</ele>
        <time>2022-05-02T21:39:52Z</time>
      </trkpt>
      <trkpt lat="43.09182" lon="2.61436">
        <ele>130</ele>
        <time>2022-05-02T21:40:10Z</time>
      </trkpt>
      <trkpt lat="43.09259" lon="2.61673">
        <ele>127</ele>
        <time>2022-05-02T21:40:44Z</time>
      </trkpt>
      <trkpt lat="43.09297" lon="2.61772">
        <ele>124</ele>
        <time>2022-05-02T21:40:59Z</time>
      </trkpt>
      <trkpt lat="43.09309" lon="2.61814">
        <ele>122</ele>
        <time>2022-05-02T21:41:05Z</time>
      </trkpt>
      <trkpt lat="43.09312" lon="2.61848">
        <ele>122</ele>
        <time>2022-05-02T21:41:09Z</time>
      </trkpt>
      <trkpt lat="43.0931" lon="2.61863">
        <ele>122</ele>
        <time>2022-05-02T21:41:11Z</time>
      </trkpt>
      <trkpt lat="43.09269" lon="2.6198">
        <ele>126</ele>
        <time>2022-05-02T21:41:28Z</time>
      </trkpt>
      <trkpt lat="43.09258" lon="2.61999">
        <ele>127</ele>
        <time>2022-05-02T21:41:31Z</time>
      </trkpt>
      <trkpt lat="43.09236" lon="2.62026">
        <ele>128</ele>
        <time>2022-05-02T21:41:36Z</time>
      </trkpt>
      <trkpt lat="43.09214" lon="2.62048">
        <ele>128</ele>
        <time>2022-05-02T21:41:41Z</time>
      </trkpt>
      <trkpt lat="43.09179" lon="2.6208">
        <ele>129</ele>
        <time>2022-05-02T21:41:49Z</time>
      </trkpt>
      <trkpt lat="43.09171" lon="2.62085">
        <ele>129</ele>
        <time>2022-05-02T21:41:50Z</time>
      </trkpt>
      <trkpt lat="43.09153" lon="2.62091">
        <ele>129</ele>
        <time>2022-05-02T21:41:53Z</time>
      </trkpt>
      <trkpt lat="43.09125" lon="2.62088">
        <ele>129</ele>
        <time>2022-05-02T21:41:58Z</time>
      </trkpt>
      <trkpt lat="43.09102" lon="2.62082">
        <ele>130</ele>
        <time>2022-05-02T21:42:03Z</time>
      </trkpt>
      <trkpt lat="43.09094" lon="2.62136">
        <ele>130</ele>
        <time>2022-05-02T21:42:10Z</time>
      </trkpt>
      <trkpt lat="43.09091" lon="2.62194">
        <ele>130</ele>
        <time>2022-05-02T21:42:17Z</time>
      </trkpt>
      <trkpt lat="43.09058" lon="2.62219">
        <ele>131</ele>
        <time>2022-05-02T21:42:24Z</time>
      </trkpt>
      <trkpt lat="43.0901" lon="2.62223">
        <ele>132</ele>
        <time>2022-05-02T21:42:33Z</time>
      </trkpt>
      <trkpt lat="43.08993" lon="2.62233">
        <ele>133</ele>
        <time>2022-05-02T21:42:36Z</time>
      </trkpt>
      <trkpt lat="43.08992" lon="2.62228">
        <ele>133</ele>
        <time>2022-05-02T21:42:37Z</time>
      </trkpt>
    </trkseg>
  </trk>
</gpx>